<?xml version="1.0" encoding="UTF-8" standalone="no" ?>
<gpx xmlns="http://www.topografix.com/GPX/1/1" xmlns:xsi="http://www.w3.org/2001/XMLSchema-instance" xsi:schemaLocation="http://www.topografix.com/GPX/1/1 http://www.topografix.com/GPX/1/1/gpx.xsd" version="1.1" creator="VisuGPX - https://www.visugpx.com">
  <metadata>
    <name>lac du ternay</name>
  </metadata>
  <trk>
    <name><![CDATA[lac du ternay]]></name>
    <trkseg>
      <trkpt lat="45.31056" lon="4.63941">
        <ele>569</ele>
        <time>2019-10-30T07:16:25.000Z</time>
      </trkpt>
      <trkpt lat="45.31067" lon="4.63948">
        <ele>570</ele>
        <time>2019-10-30T07:16:29.000Z</time>
      </trkpt>
      <trkpt lat="45.31069" lon="4.63949">
        <ele>570.40002441406</ele>
        <time>2019-10-30T07:16:30.000Z</time>
      </trkpt>
      <trkpt lat="45.3107" lon="4.6395">
        <ele>570.59997558594</ele>
        <time>2019-10-30T07:16:31.000Z</time>
      </trkpt>
      <trkpt lat="45.31072" lon="4.63952">
        <ele>571</ele>
        <time>2019-10-30T07:16:32.000Z</time>
      </trkpt>
      <trkpt lat="45.31074" lon="4.63953">
        <ele>571</ele>
        <time>2019-10-30T07:16:33.000Z</time>
      </trkpt>
      <trkpt lat="45.31077" lon="4.63955">
        <ele>571.40002441406</ele>
        <time>2019-10-30T07:16:34.000Z</time>
      </trkpt>
      <trkpt lat="45.31078" lon="4.63955">
        <ele>571.59997558594</ele>
        <time>2019-10-30T07:16:35.000Z</time>
      </trkpt>
      <trkpt lat="45.3108" lon="4.63957">
        <ele>572</ele>
        <time>2019-10-30T07:16:36.000Z</time>
      </trkpt>
      <trkpt lat="45.3108" lon="4.63959">
        <ele>572.40002441406</ele>
        <time>2019-10-30T07:16:37.000Z</time>
      </trkpt>
      <trkpt lat="45.31081" lon="4.6396">
        <ele>572.79998779297</ele>
        <time>2019-10-30T07:16:38.000Z</time>
      </trkpt>
      <trkpt lat="45.31082" lon="4.63961">
        <ele>573.20001220703</ele>
        <time>2019-10-30T07:16:39.000Z</time>
      </trkpt>
      <trkpt lat="45.31083" lon="4.63963">
        <ele>573.59997558594</ele>
        <time>2019-10-30T07:16:40.000Z</time>
      </trkpt>
      <trkpt lat="45.31083" lon="4.63964">
        <ele>574</ele>
        <time>2019-10-30T07:16:41.000Z</time>
      </trkpt>
      <trkpt lat="45.31084" lon="4.63966">
        <ele>574.40002441406</ele>
        <time>2019-10-30T07:16:42.000Z</time>
      </trkpt>
      <trkpt lat="45.31084" lon="4.63967">
        <ele>574.59997558594</ele>
        <time>2019-10-30T07:16:43.000Z</time>
      </trkpt>
      <trkpt lat="45.31086" lon="4.63969">
        <ele>574.79998779297</ele>
        <time>2019-10-30T07:16:44.000Z</time>
      </trkpt>
      <trkpt lat="45.31087" lon="4.63972">
        <ele>573.59997558594</ele>
        <time>2019-10-30T07:16:45.000Z</time>
      </trkpt>
      <trkpt lat="45.31088" lon="4.63974">
        <ele>573.20001220703</ele>
        <time>2019-10-30T07:16:46.000Z</time>
      </trkpt>
      <trkpt lat="45.31089" lon="4.63976">
        <ele>573.20001220703</ele>
        <time>2019-10-30T07:16:47.000Z</time>
      </trkpt>
      <trkpt lat="45.31091" lon="4.63978">
        <ele>573.40002441406</ele>
        <time>2019-10-30T07:16:48.000Z</time>
      </trkpt>
      <trkpt lat="45.31093" lon="4.6398">
        <ele>573.59997558594</ele>
        <time>2019-10-30T07:16:49.000Z</time>
      </trkpt>
      <trkpt lat="45.31095" lon="4.63982">
        <ele>574</ele>
        <time>2019-10-30T07:16:50.000Z</time>
      </trkpt>
      <trkpt lat="45.31097" lon="4.63985">
        <ele>574.20001220703</ele>
        <time>2019-10-30T07:16:51.000Z</time>
      </trkpt>
      <trkpt lat="45.31098" lon="4.63987">
        <ele>574.59997558594</ele>
        <time>2019-10-30T07:16:52.000Z</time>
      </trkpt>
      <trkpt lat="45.31098" lon="4.63988">
        <ele>574.79998779297</ele>
        <time>2019-10-30T07:16:53.000Z</time>
      </trkpt>
      <trkpt lat="45.31098" lon="4.63989">
        <ele>575.20001220703</ele>
        <time>2019-10-30T07:16:54.000Z</time>
      </trkpt>
      <trkpt lat="45.311" lon="4.63992">
        <ele>575.40002441406</ele>
        <time>2019-10-30T07:16:55.000Z</time>
      </trkpt>
      <trkpt lat="45.31101" lon="4.63993">
        <ele>575.79998779297</ele>
        <time>2019-10-30T07:16:56.000Z</time>
      </trkpt>
      <trkpt lat="45.31102" lon="4.63994">
        <ele>576</ele>
        <time>2019-10-30T07:16:57.000Z</time>
      </trkpt>
      <trkpt lat="45.31102" lon="4.63995">
        <ele>576.20001220703</ele>
        <time>2019-10-30T07:16:58.000Z</time>
      </trkpt>
      <trkpt lat="45.31103" lon="4.63997">
        <ele>576.20001220703</ele>
        <time>2019-10-30T07:16:59.000Z</time>
      </trkpt>
      <trkpt lat="45.31104" lon="4.63998">
        <ele>576.40002441406</ele>
        <time>2019-10-30T07:17:00.000Z</time>
      </trkpt>
      <trkpt lat="45.31106" lon="4.64">
        <ele>576.79998779297</ele>
        <time>2019-10-30T07:17:01.000Z</time>
      </trkpt>
      <trkpt lat="45.31108" lon="4.64002">
        <ele>577</ele>
        <time>2019-10-30T07:17:02.000Z</time>
      </trkpt>
      <trkpt lat="45.31109" lon="4.64004">
        <ele>577</ele>
        <time>2019-10-30T07:17:03.000Z</time>
      </trkpt>
      <trkpt lat="45.3111" lon="4.64006">
        <ele>577.40002441406</ele>
        <time>2019-10-30T07:17:04.000Z</time>
      </trkpt>
      <trkpt lat="45.31111" lon="4.64008">
        <ele>577.40002441406</ele>
        <time>2019-10-30T07:17:05.000Z</time>
      </trkpt>
      <trkpt lat="45.31111" lon="4.64009">
        <ele>577.79998779297</ele>
        <time>2019-10-30T07:17:06.000Z</time>
      </trkpt>
      <trkpt lat="45.31112" lon="4.64011">
        <ele>578</ele>
        <time>2019-10-30T07:17:07.000Z</time>
      </trkpt>
      <trkpt lat="45.31113" lon="4.64012">
        <ele>578</ele>
        <time>2019-10-30T07:17:08.000Z</time>
      </trkpt>
      <trkpt lat="45.31114" lon="4.64014">
        <ele>578.40002441406</ele>
        <time>2019-10-30T07:17:09.000Z</time>
      </trkpt>
      <trkpt lat="45.31115" lon="4.64016">
        <ele>578.40002441406</ele>
        <time>2019-10-30T07:17:10.000Z</time>
      </trkpt>
      <trkpt lat="45.31116" lon="4.64017">
        <ele>578.59997558594</ele>
        <time>2019-10-30T07:17:11.000Z</time>
      </trkpt>
      <trkpt lat="45.31117" lon="4.64019">
        <ele>579</ele>
        <time>2019-10-30T07:17:12.000Z</time>
      </trkpt>
      <trkpt lat="45.31118" lon="4.64021">
        <ele>579.20001220703</ele>
        <time>2019-10-30T07:17:13.000Z</time>
      </trkpt>
      <trkpt lat="45.31118" lon="4.64023">
        <ele>579.40002441406</ele>
        <time>2019-10-30T07:17:14.000Z</time>
      </trkpt>
      <trkpt lat="45.31119" lon="4.64024">
        <ele>579.59997558594</ele>
        <time>2019-10-30T07:17:15.000Z</time>
      </trkpt>
      <trkpt lat="45.31119" lon="4.64025">
        <ele>579.79998779297</ele>
        <time>2019-10-30T07:17:16.000Z</time>
      </trkpt>
      <trkpt lat="45.3112" lon="4.64027">
        <ele>580.20001220703</ele>
        <time>2019-10-30T07:17:17.000Z</time>
      </trkpt>
      <trkpt lat="45.31121" lon="4.64029">
        <ele>580.59997558594</ele>
        <time>2019-10-30T07:17:18.000Z</time>
      </trkpt>
      <trkpt lat="45.31122" lon="4.6403">
        <ele>580.59997558594</ele>
        <time>2019-10-30T07:17:19.000Z</time>
      </trkpt>
      <trkpt lat="45.31123" lon="4.64032">
        <ele>581.20001220703</ele>
        <time>2019-10-30T07:17:20.000Z</time>
      </trkpt>
      <trkpt lat="45.31123" lon="4.64034">
        <ele>581.20001220703</ele>
        <time>2019-10-30T07:17:21.000Z</time>
      </trkpt>
      <trkpt lat="45.31124" lon="4.64036">
        <ele>581.59997558594</ele>
        <time>2019-10-30T07:17:22.000Z</time>
      </trkpt>
      <trkpt lat="45.31125" lon="4.64037">
        <ele>581.79998779297</ele>
        <time>2019-10-30T07:17:23.000Z</time>
      </trkpt>
      <trkpt lat="45.31125" lon="4.64039">
        <ele>582</ele>
        <time>2019-10-30T07:17:24.000Z</time>
      </trkpt>
      <trkpt lat="45.31126" lon="4.64041">
        <ele>582</ele>
        <time>2019-10-30T07:17:25.000Z</time>
      </trkpt>
      <trkpt lat="45.31127" lon="4.64042">
        <ele>582.20001220703</ele>
        <time>2019-10-30T07:17:26.000Z</time>
      </trkpt>
      <trkpt lat="45.31127" lon="4.64044">
        <ele>582.40002441406</ele>
        <time>2019-10-30T07:17:27.000Z</time>
      </trkpt>
      <trkpt lat="45.31128" lon="4.64045">
        <ele>582.79998779297</ele>
        <time>2019-10-30T07:17:28.000Z</time>
      </trkpt>
      <trkpt lat="45.31129" lon="4.64047">
        <ele>583</ele>
        <time>2019-10-30T07:17:29.000Z</time>
      </trkpt>
      <trkpt lat="45.3113" lon="4.64049">
        <ele>583.40002441406</ele>
        <time>2019-10-30T07:17:30.000Z</time>
      </trkpt>
      <trkpt lat="45.31131" lon="4.64051">
        <ele>583.59997558594</ele>
        <time>2019-10-30T07:17:31.000Z</time>
      </trkpt>
      <trkpt lat="45.31132" lon="4.64053">
        <ele>584</ele>
        <time>2019-10-30T07:17:32.000Z</time>
      </trkpt>
      <trkpt lat="45.31132" lon="4.64055">
        <ele>584.20001220703</ele>
        <time>2019-10-30T07:17:33.000Z</time>
      </trkpt>
      <trkpt lat="45.31133" lon="4.64057">
        <ele>584.20001220703</ele>
        <time>2019-10-30T07:17:34.000Z</time>
      </trkpt>
      <trkpt lat="45.31135" lon="4.64059">
        <ele>584.40002441406</ele>
        <time>2019-10-30T07:17:35.000Z</time>
      </trkpt>
      <trkpt lat="45.31127" lon="4.64053">
        <ele>584.79998779297</ele>
        <time>2019-10-30T07:17:36.000Z</time>
      </trkpt>
      <trkpt lat="45.31125" lon="4.64053">
        <ele>584.79998779297</ele>
        <time>2019-10-30T07:17:37.000Z</time>
      </trkpt>
      <trkpt lat="45.31125" lon="4.64053">
        <ele>585.20001220703</ele>
        <time>2019-10-30T07:17:38.000Z</time>
      </trkpt>
      <trkpt lat="45.31125" lon="4.64055">
        <ele>585.40002441406</ele>
        <time>2019-10-30T07:17:39.000Z</time>
      </trkpt>
      <trkpt lat="45.31125" lon="4.64057">
        <ele>585.59997558594</ele>
        <time>2019-10-30T07:17:40.000Z</time>
      </trkpt>
      <trkpt lat="45.31126" lon="4.6406">
        <ele>585.79998779297</ele>
        <time>2019-10-30T07:17:41.000Z</time>
      </trkpt>
      <trkpt lat="45.31126" lon="4.64062">
        <ele>586</ele>
        <time>2019-10-30T07:17:42.000Z</time>
      </trkpt>
      <trkpt lat="45.31126" lon="4.64064">
        <ele>586.20001220703</ele>
        <time>2019-10-30T07:17:43.000Z</time>
      </trkpt>
      <trkpt lat="45.31127" lon="4.64067">
        <ele>586.40002441406</ele>
        <time>2019-10-30T07:17:44.000Z</time>
      </trkpt>
      <trkpt lat="45.31127" lon="4.64069">
        <ele>586.79998779297</ele>
        <time>2019-10-30T07:17:45.000Z</time>
      </trkpt>
      <trkpt lat="45.31128" lon="4.64071">
        <ele>587</ele>
        <time>2019-10-30T07:17:46.000Z</time>
      </trkpt>
      <trkpt lat="45.31129" lon="4.64073">
        <ele>587.20001220703</ele>
        <time>2019-10-30T07:17:47.000Z</time>
      </trkpt>
      <trkpt lat="45.31129" lon="4.64074">
        <ele>587.40002441406</ele>
        <time>2019-10-30T07:17:48.000Z</time>
      </trkpt>
      <trkpt lat="45.3113" lon="4.64076">
        <ele>587.59997558594</ele>
        <time>2019-10-30T07:17:49.000Z</time>
      </trkpt>
      <trkpt lat="45.31131" lon="4.64078">
        <ele>588</ele>
        <time>2019-10-30T07:17:50.000Z</time>
      </trkpt>
      <trkpt lat="45.31131" lon="4.6408">
        <ele>588</ele>
        <time>2019-10-30T07:17:51.000Z</time>
      </trkpt>
      <trkpt lat="45.31132" lon="4.64082">
        <ele>588</ele>
        <time>2019-10-30T07:17:52.000Z</time>
      </trkpt>
      <trkpt lat="45.31133" lon="4.64084">
        <ele>588.20001220703</ele>
        <time>2019-10-30T07:17:53.000Z</time>
      </trkpt>
      <trkpt lat="45.31134" lon="4.64085">
        <ele>588.40002441406</ele>
        <time>2019-10-30T07:17:54.000Z</time>
      </trkpt>
      <trkpt lat="45.31134" lon="4.64087">
        <ele>588.20001220703</ele>
        <time>2019-10-30T07:17:55.000Z</time>
      </trkpt>
      <trkpt lat="45.31135" lon="4.64088">
        <ele>588.79998779297</ele>
        <time>2019-10-30T07:17:56.000Z</time>
      </trkpt>
      <trkpt lat="45.31135" lon="4.6409">
        <ele>588.59997558594</ele>
        <time>2019-10-30T07:17:57.000Z</time>
      </trkpt>
      <trkpt lat="45.31136" lon="4.64092">
        <ele>589</ele>
        <time>2019-10-30T07:17:58.000Z</time>
      </trkpt>
      <trkpt lat="45.31136" lon="4.64093">
        <ele>589.40002441406</ele>
        <time>2019-10-30T07:17:59.000Z</time>
      </trkpt>
      <trkpt lat="45.31137" lon="4.64095">
        <ele>589.59997558594</ele>
        <time>2019-10-30T07:18:00.000Z</time>
      </trkpt>
      <trkpt lat="45.31138" lon="4.64097">
        <ele>589.79998779297</ele>
        <time>2019-10-30T07:18:01.000Z</time>
      </trkpt>
      <trkpt lat="45.31139" lon="4.64099">
        <ele>590</ele>
        <time>2019-10-30T07:18:02.000Z</time>
      </trkpt>
      <trkpt lat="45.31139" lon="4.641">
        <ele>590</ele>
        <time>2019-10-30T07:18:03.000Z</time>
      </trkpt>
      <trkpt lat="45.3114" lon="4.64102">
        <ele>590.20001220703</ele>
        <time>2019-10-30T07:18:04.000Z</time>
      </trkpt>
      <trkpt lat="45.31141" lon="4.64104">
        <ele>590.40002441406</ele>
        <time>2019-10-30T07:18:05.000Z</time>
      </trkpt>
      <trkpt lat="45.31142" lon="4.64106">
        <ele>590.40002441406</ele>
        <time>2019-10-30T07:18:06.000Z</time>
      </trkpt>
      <trkpt lat="45.31143" lon="4.64108">
        <ele>590.59997558594</ele>
        <time>2019-10-30T07:18:07.000Z</time>
      </trkpt>
      <trkpt lat="45.31144" lon="4.64109">
        <ele>590.79998779297</ele>
        <time>2019-10-30T07:18:08.000Z</time>
      </trkpt>
      <trkpt lat="45.31145" lon="4.64111">
        <ele>591.20001220703</ele>
        <time>2019-10-30T07:18:09.000Z</time>
      </trkpt>
      <trkpt lat="45.31146" lon="4.64113">
        <ele>591.20001220703</ele>
        <time>2019-10-30T07:18:10.000Z</time>
      </trkpt>
      <trkpt lat="45.31147" lon="4.64115">
        <ele>591.79998779297</ele>
        <time>2019-10-30T07:18:11.000Z</time>
      </trkpt>
      <trkpt lat="45.31148" lon="4.64116">
        <ele>591.79998779297</ele>
        <time>2019-10-30T07:18:12.000Z</time>
      </trkpt>
      <trkpt lat="45.31149" lon="4.64118">
        <ele>592</ele>
        <time>2019-10-30T07:18:13.000Z</time>
      </trkpt>
      <trkpt lat="45.31149" lon="4.6412">
        <ele>592</ele>
        <time>2019-10-30T07:18:14.000Z</time>
      </trkpt>
      <trkpt lat="45.3115" lon="4.64122">
        <ele>592.20001220703</ele>
        <time>2019-10-30T07:18:15.000Z</time>
      </trkpt>
      <trkpt lat="45.31151" lon="4.64123">
        <ele>592.40002441406</ele>
        <time>2019-10-30T07:18:16.000Z</time>
      </trkpt>
      <trkpt lat="45.31152" lon="4.64125">
        <ele>592.40002441406</ele>
        <time>2019-10-30T07:18:17.000Z</time>
      </trkpt>
      <trkpt lat="45.31153" lon="4.64127">
        <ele>592.79998779297</ele>
        <time>2019-10-30T07:18:18.000Z</time>
      </trkpt>
      <trkpt lat="45.31154" lon="4.64129">
        <ele>592.79998779297</ele>
        <time>2019-10-30T07:18:19.000Z</time>
      </trkpt>
      <trkpt lat="45.31154" lon="4.6413">
        <ele>593</ele>
        <time>2019-10-30T07:18:20.000Z</time>
      </trkpt>
      <trkpt lat="45.31155" lon="4.64132">
        <ele>593.20001220703</ele>
        <time>2019-10-30T07:18:21.000Z</time>
      </trkpt>
      <trkpt lat="45.31156" lon="4.64134">
        <ele>593.40002441406</ele>
        <time>2019-10-30T07:18:22.000Z</time>
      </trkpt>
      <trkpt lat="45.31157" lon="4.64136">
        <ele>593.40002441406</ele>
        <time>2019-10-30T07:18:23.000Z</time>
      </trkpt>
      <trkpt lat="45.31158" lon="4.64138">
        <ele>593.59997558594</ele>
        <time>2019-10-30T07:18:24.000Z</time>
      </trkpt>
      <trkpt lat="45.31159" lon="4.6414">
        <ele>593.79998779297</ele>
        <time>2019-10-30T07:18:25.000Z</time>
      </trkpt>
      <trkpt lat="45.31159" lon="4.64142">
        <ele>594</ele>
        <time>2019-10-30T07:18:26.000Z</time>
      </trkpt>
      <trkpt lat="45.3116" lon="4.64144">
        <ele>594.20001220703</ele>
        <time>2019-10-30T07:18:27.000Z</time>
      </trkpt>
      <trkpt lat="45.31161" lon="4.64146">
        <ele>594.20001220703</ele>
        <time>2019-10-30T07:18:28.000Z</time>
      </trkpt>
      <trkpt lat="45.31161" lon="4.64148">
        <ele>594.40002441406</ele>
        <time>2019-10-30T07:18:29.000Z</time>
      </trkpt>
      <trkpt lat="45.31162" lon="4.6415">
        <ele>594.40002441406</ele>
        <time>2019-10-30T07:18:30.000Z</time>
      </trkpt>
      <trkpt lat="45.31163" lon="4.64152">
        <ele>594.59997558594</ele>
        <time>2019-10-30T07:18:31.000Z</time>
      </trkpt>
      <trkpt lat="45.31163" lon="4.64154">
        <ele>594.79998779297</ele>
        <time>2019-10-30T07:18:32.000Z</time>
      </trkpt>
      <trkpt lat="45.31164" lon="4.64156">
        <ele>595</ele>
        <time>2019-10-30T07:18:33.000Z</time>
      </trkpt>
      <trkpt lat="45.31164" lon="4.64158">
        <ele>595</ele>
        <time>2019-10-30T07:18:34.000Z</time>
      </trkpt>
      <trkpt lat="45.31165" lon="4.6416">
        <ele>595.20001220703</ele>
        <time>2019-10-30T07:18:35.000Z</time>
      </trkpt>
      <trkpt lat="45.31166" lon="4.64162">
        <ele>595.40002441406</ele>
        <time>2019-10-30T07:18:36.000Z</time>
      </trkpt>
      <trkpt lat="45.31167" lon="4.64164">
        <ele>595.59997558594</ele>
        <time>2019-10-30T07:18:37.000Z</time>
      </trkpt>
      <trkpt lat="45.31168" lon="4.64167">
        <ele>595.59997558594</ele>
        <time>2019-10-30T07:18:38.000Z</time>
      </trkpt>
      <trkpt lat="45.31169" lon="4.64169">
        <ele>596</ele>
        <time>2019-10-30T07:18:39.000Z</time>
      </trkpt>
      <trkpt lat="45.31169" lon="4.64171">
        <ele>596.20001220703</ele>
        <time>2019-10-30T07:18:40.000Z</time>
      </trkpt>
      <trkpt lat="45.3117" lon="4.64173">
        <ele>596.20001220703</ele>
        <time>2019-10-30T07:18:41.000Z</time>
      </trkpt>
      <trkpt lat="45.31171" lon="4.64175">
        <ele>596.40002441406</ele>
        <time>2019-10-30T07:18:42.000Z</time>
      </trkpt>
      <trkpt lat="45.31172" lon="4.64177">
        <ele>596.40002441406</ele>
        <time>2019-10-30T07:18:43.000Z</time>
      </trkpt>
      <trkpt lat="45.31173" lon="4.6418">
        <ele>596.40002441406</ele>
        <time>2019-10-30T07:18:44.000Z</time>
      </trkpt>
      <trkpt lat="45.31174" lon="4.64182">
        <ele>596.40002441406</ele>
        <time>2019-10-30T07:18:45.000Z</time>
      </trkpt>
      <trkpt lat="45.31175" lon="4.64184">
        <ele>596.79998779297</ele>
        <time>2019-10-30T07:18:46.000Z</time>
      </trkpt>
      <trkpt lat="45.31177" lon="4.64186">
        <ele>596.79998779297</ele>
        <time>2019-10-30T07:18:47.000Z</time>
      </trkpt>
      <trkpt lat="45.31177" lon="4.64189">
        <ele>597.20001220703</ele>
        <time>2019-10-30T07:18:48.000Z</time>
      </trkpt>
      <trkpt lat="45.31178" lon="4.64191">
        <ele>597.40002441406</ele>
        <time>2019-10-30T07:18:49.000Z</time>
      </trkpt>
      <trkpt lat="45.31179" lon="4.64193">
        <ele>597.79998779297</ele>
        <time>2019-10-30T07:18:50.000Z</time>
      </trkpt>
      <trkpt lat="45.3118" lon="4.64196">
        <ele>598</ele>
        <time>2019-10-30T07:18:51.000Z</time>
      </trkpt>
      <trkpt lat="45.31181" lon="4.64198">
        <ele>598.20001220703</ele>
        <time>2019-10-30T07:18:52.000Z</time>
      </trkpt>
      <trkpt lat="45.31182" lon="4.642">
        <ele>598.20001220703</ele>
        <time>2019-10-30T07:18:53.000Z</time>
      </trkpt>
      <trkpt lat="45.31183" lon="4.64203">
        <ele>598.20001220703</ele>
        <time>2019-10-30T07:18:54.000Z</time>
      </trkpt>
      <trkpt lat="45.31185" lon="4.64208">
        <ele>598.20001220703</ele>
        <time>2019-10-30T07:18:56.000Z</time>
      </trkpt>
      <trkpt lat="45.31186" lon="4.6421">
        <ele>598.40002441406</ele>
        <time>2019-10-30T07:18:57.000Z</time>
      </trkpt>
      <trkpt lat="45.31187" lon="4.64215">
        <ele>598.40002441406</ele>
        <time>2019-10-30T07:18:59.000Z</time>
      </trkpt>
      <trkpt lat="45.31188" lon="4.64218">
        <ele>598.59997558594</ele>
        <time>2019-10-30T07:19:00.000Z</time>
      </trkpt>
      <trkpt lat="45.31189" lon="4.6422">
        <ele>598.79998779297</ele>
        <time>2019-10-30T07:19:01.000Z</time>
      </trkpt>
      <trkpt lat="45.3119" lon="4.64222">
        <ele>598.79998779297</ele>
        <time>2019-10-30T07:19:02.000Z</time>
      </trkpt>
      <trkpt lat="45.31191" lon="4.64224">
        <ele>599</ele>
        <time>2019-10-30T07:19:03.000Z</time>
      </trkpt>
      <trkpt lat="45.31192" lon="4.64226">
        <ele>599</ele>
        <time>2019-10-30T07:19:04.000Z</time>
      </trkpt>
      <trkpt lat="45.31195" lon="4.64233">
        <ele>599.20001220703</ele>
        <time>2019-10-30T07:19:07.000Z</time>
      </trkpt>
      <trkpt lat="45.31205" lon="4.64255">
        <ele>599.79998779297</ele>
        <time>2019-10-30T07:19:15.000Z</time>
      </trkpt>
      <trkpt lat="45.31212" lon="4.64269">
        <ele>599.79998779297</ele>
        <time>2019-10-30T07:19:19.000Z</time>
      </trkpt>
      <trkpt lat="45.31213" lon="4.64272">
        <ele>599.79998779297</ele>
        <time>2019-10-30T07:19:20.000Z</time>
      </trkpt>
      <trkpt lat="45.31215" lon="4.64274">
        <ele>599.79998779297</ele>
        <time>2019-10-30T07:19:21.000Z</time>
      </trkpt>
      <trkpt lat="45.31217" lon="4.64276">
        <ele>599.79998779297</ele>
        <time>2019-10-30T07:19:22.000Z</time>
      </trkpt>
      <trkpt lat="45.31219" lon="4.64278">
        <ele>599.79998779297</ele>
        <time>2019-10-30T07:19:23.000Z</time>
      </trkpt>
      <trkpt lat="45.31223" lon="4.64288">
        <ele>599.59997558594</ele>
        <time>2019-10-30T07:19:26.000Z</time>
      </trkpt>
      <trkpt lat="45.31225" lon="4.64291">
        <ele>599.20001220703</ele>
        <time>2019-10-30T07:19:27.000Z</time>
      </trkpt>
      <trkpt lat="45.31231" lon="4.64306">
        <ele>599.20001220703</ele>
        <time>2019-10-30T07:19:31.000Z</time>
      </trkpt>
      <trkpt lat="45.31232" lon="4.64308">
        <ele>599.20001220703</ele>
        <time>2019-10-30T07:19:32.000Z</time>
      </trkpt>
      <trkpt lat="45.31234" lon="4.64311">
        <ele>599.20001220703</ele>
        <time>2019-10-30T07:19:33.000Z</time>
      </trkpt>
      <trkpt lat="45.31235" lon="4.64314">
        <ele>599.20001220703</ele>
        <time>2019-10-30T07:19:34.000Z</time>
      </trkpt>
      <trkpt lat="45.31237" lon="4.64317">
        <ele>599.20001220703</ele>
        <time>2019-10-30T07:19:35.000Z</time>
      </trkpt>
      <trkpt lat="45.31238" lon="4.6432">
        <ele>599.20001220703</ele>
        <time>2019-10-30T07:19:36.000Z</time>
      </trkpt>
      <trkpt lat="45.3124" lon="4.64327">
        <ele>599.40002441406</ele>
        <time>2019-10-30T07:19:38.000Z</time>
      </trkpt>
      <trkpt lat="45.31243" lon="4.64333">
        <ele>599.40002441406</ele>
        <time>2019-10-30T07:19:40.000Z</time>
      </trkpt>
      <trkpt lat="45.31244" lon="4.64336">
        <ele>599.40002441406</ele>
        <time>2019-10-30T07:19:41.000Z</time>
      </trkpt>
      <trkpt lat="45.31245" lon="4.64339">
        <ele>599.40002441406</ele>
        <time>2019-10-30T07:19:42.000Z</time>
      </trkpt>
      <trkpt lat="45.31246" lon="4.64342">
        <ele>599.40002441406</ele>
        <time>2019-10-30T07:19:43.000Z</time>
      </trkpt>
      <trkpt lat="45.31248" lon="4.64345">
        <ele>599.59997558594</ele>
        <time>2019-10-30T07:19:44.000Z</time>
      </trkpt>
      <trkpt lat="45.31249" lon="4.64348">
        <ele>599.59997558594</ele>
        <time>2019-10-30T07:19:45.000Z</time>
      </trkpt>
      <trkpt lat="45.3125" lon="4.64351">
        <ele>599.79998779297</ele>
        <time>2019-10-30T07:19:46.000Z</time>
      </trkpt>
      <trkpt lat="45.3125" lon="4.64354">
        <ele>599.59997558594</ele>
        <time>2019-10-30T07:19:47.000Z</time>
      </trkpt>
      <trkpt lat="45.31251" lon="4.64357">
        <ele>600</ele>
        <time>2019-10-30T07:19:48.000Z</time>
      </trkpt>
      <trkpt lat="45.31252" lon="4.6436">
        <ele>600</ele>
        <time>2019-10-30T07:19:49.000Z</time>
      </trkpt>
      <trkpt lat="45.31253" lon="4.64363">
        <ele>600.20001220703</ele>
        <time>2019-10-30T07:19:50.000Z</time>
      </trkpt>
      <trkpt lat="45.31254" lon="4.64366">
        <ele>600.40002441406</ele>
        <time>2019-10-30T07:19:51.000Z</time>
      </trkpt>
      <trkpt lat="45.31255" lon="4.64369">
        <ele>600.59997558594</ele>
        <time>2019-10-30T07:19:52.000Z</time>
      </trkpt>
      <trkpt lat="45.31256" lon="4.64372">
        <ele>600.79998779297</ele>
        <time>2019-10-30T07:19:53.000Z</time>
      </trkpt>
      <trkpt lat="45.31256" lon="4.64375">
        <ele>600.79998779297</ele>
        <time>2019-10-30T07:19:54.000Z</time>
      </trkpt>
      <trkpt lat="45.31257" lon="4.64378">
        <ele>600.79998779297</ele>
        <time>2019-10-30T07:19:55.000Z</time>
      </trkpt>
      <trkpt lat="45.31258" lon="4.64381">
        <ele>601</ele>
        <time>2019-10-30T07:19:56.000Z</time>
      </trkpt>
      <trkpt lat="45.31259" lon="4.64384">
        <ele>601</ele>
        <time>2019-10-30T07:19:57.000Z</time>
      </trkpt>
      <trkpt lat="45.3126" lon="4.64388">
        <ele>601.20001220703</ele>
        <time>2019-10-30T07:19:58.000Z</time>
      </trkpt>
      <trkpt lat="45.3126" lon="4.64391">
        <ele>601.40002441406</ele>
        <time>2019-10-30T07:19:59.000Z</time>
      </trkpt>
      <trkpt lat="45.31261" lon="4.64394">
        <ele>601.40002441406</ele>
        <time>2019-10-30T07:20:00.000Z</time>
      </trkpt>
      <trkpt lat="45.31262" lon="4.64396">
        <ele>601.40002441406</ele>
        <time>2019-10-30T07:20:01.000Z</time>
      </trkpt>
      <trkpt lat="45.31262" lon="4.64399">
        <ele>601.79998779297</ele>
        <time>2019-10-30T07:20:02.000Z</time>
      </trkpt>
      <trkpt lat="45.31263" lon="4.64402">
        <ele>601.79998779297</ele>
        <time>2019-10-30T07:20:03.000Z</time>
      </trkpt>
      <trkpt lat="45.31263" lon="4.64405">
        <ele>602.20001220703</ele>
        <time>2019-10-30T07:20:04.000Z</time>
      </trkpt>
      <trkpt lat="45.31264" lon="4.64407">
        <ele>602.40002441406</ele>
        <time>2019-10-30T07:20:05.000Z</time>
      </trkpt>
      <trkpt lat="45.31264" lon="4.6441">
        <ele>602.59997558594</ele>
        <time>2019-10-30T07:20:06.000Z</time>
      </trkpt>
      <trkpt lat="45.31265" lon="4.64413">
        <ele>603</ele>
        <time>2019-10-30T07:20:07.000Z</time>
      </trkpt>
      <trkpt lat="45.31265" lon="4.64415">
        <ele>603</ele>
        <time>2019-10-30T07:20:08.000Z</time>
      </trkpt>
      <trkpt lat="45.31265" lon="4.64418">
        <ele>603.20001220703</ele>
        <time>2019-10-30T07:20:09.000Z</time>
      </trkpt>
      <trkpt lat="45.31265" lon="4.64421">
        <ele>603.40002441406</ele>
        <time>2019-10-30T07:20:10.000Z</time>
      </trkpt>
      <trkpt lat="45.31266" lon="4.64424">
        <ele>603.59997558594</ele>
        <time>2019-10-30T07:20:11.000Z</time>
      </trkpt>
      <trkpt lat="45.31266" lon="4.64426">
        <ele>603.59997558594</ele>
        <time>2019-10-30T07:20:12.000Z</time>
      </trkpt>
      <trkpt lat="45.31266" lon="4.64429">
        <ele>604</ele>
        <time>2019-10-30T07:20:13.000Z</time>
      </trkpt>
      <trkpt lat="45.31267" lon="4.64432">
        <ele>604.40002441406</ele>
        <time>2019-10-30T07:20:14.000Z</time>
      </trkpt>
      <trkpt lat="45.31267" lon="4.64434">
        <ele>604.40002441406</ele>
        <time>2019-10-30T07:20:15.000Z</time>
      </trkpt>
      <trkpt lat="45.31267" lon="4.64436">
        <ele>604.59997558594</ele>
        <time>2019-10-30T07:20:16.000Z</time>
      </trkpt>
      <trkpt lat="45.31268" lon="4.64439">
        <ele>604.79998779297</ele>
        <time>2019-10-30T07:20:17.000Z</time>
      </trkpt>
      <trkpt lat="45.31268" lon="4.64441">
        <ele>605.20001220703</ele>
        <time>2019-10-30T07:20:18.000Z</time>
      </trkpt>
      <trkpt lat="45.31268" lon="4.64443">
        <ele>605.40002441406</ele>
        <time>2019-10-30T07:20:19.000Z</time>
      </trkpt>
      <trkpt lat="45.31268" lon="4.64445">
        <ele>605.59997558594</ele>
        <time>2019-10-30T07:20:20.000Z</time>
      </trkpt>
      <trkpt lat="45.31268" lon="4.64448">
        <ele>605.79998779297</ele>
        <time>2019-10-30T07:20:21.000Z</time>
      </trkpt>
      <trkpt lat="45.31268" lon="4.6445">
        <ele>606</ele>
        <time>2019-10-30T07:20:22.000Z</time>
      </trkpt>
      <trkpt lat="45.31268" lon="4.64453">
        <ele>606.20001220703</ele>
        <time>2019-10-30T07:20:23.000Z</time>
      </trkpt>
      <trkpt lat="45.31268" lon="4.64455">
        <ele>606.40002441406</ele>
        <time>2019-10-30T07:20:24.000Z</time>
      </trkpt>
      <trkpt lat="45.31268" lon="4.64458">
        <ele>606.59997558594</ele>
        <time>2019-10-30T07:20:25.000Z</time>
      </trkpt>
      <trkpt lat="45.31269" lon="4.64461">
        <ele>607</ele>
        <time>2019-10-30T07:20:26.000Z</time>
      </trkpt>
      <trkpt lat="45.31269" lon="4.64463">
        <ele>607</ele>
        <time>2019-10-30T07:20:27.000Z</time>
      </trkpt>
      <trkpt lat="45.31269" lon="4.64466">
        <ele>607</ele>
        <time>2019-10-30T07:20:28.000Z</time>
      </trkpt>
      <trkpt lat="45.3127" lon="4.64468">
        <ele>607.20001220703</ele>
        <time>2019-10-30T07:20:29.000Z</time>
      </trkpt>
      <trkpt lat="45.3127" lon="4.6447">
        <ele>607.40002441406</ele>
        <time>2019-10-30T07:20:30.000Z</time>
      </trkpt>
      <trkpt lat="45.31271" lon="4.64472">
        <ele>607.59997558594</ele>
        <time>2019-10-30T07:20:31.000Z</time>
      </trkpt>
      <trkpt lat="45.31271" lon="4.64474">
        <ele>607.79998779297</ele>
        <time>2019-10-30T07:20:32.000Z</time>
      </trkpt>
      <trkpt lat="45.31271" lon="4.64476">
        <ele>607.79998779297</ele>
        <time>2019-10-30T07:20:33.000Z</time>
      </trkpt>
      <trkpt lat="45.31272" lon="4.64478">
        <ele>608</ele>
        <time>2019-10-30T07:20:34.000Z</time>
      </trkpt>
      <trkpt lat="45.31272" lon="4.6448">
        <ele>608.40002441406</ele>
        <time>2019-10-30T07:20:35.000Z</time>
      </trkpt>
      <trkpt lat="45.31273" lon="4.64482">
        <ele>608.59997558594</ele>
        <time>2019-10-30T07:20:36.000Z</time>
      </trkpt>
      <trkpt lat="45.31273" lon="4.64484">
        <ele>608.79998779297</ele>
        <time>2019-10-30T07:20:37.000Z</time>
      </trkpt>
      <trkpt lat="45.31274" lon="4.64486">
        <ele>609</ele>
        <time>2019-10-30T07:20:38.000Z</time>
      </trkpt>
      <trkpt lat="45.31274" lon="4.64488">
        <ele>609.20001220703</ele>
        <time>2019-10-30T07:20:39.000Z</time>
      </trkpt>
      <trkpt lat="45.31275" lon="4.6449">
        <ele>609.59997558594</ele>
        <time>2019-10-30T07:20:40.000Z</time>
      </trkpt>
      <trkpt lat="45.31276" lon="4.64492">
        <ele>610</ele>
        <time>2019-10-30T07:20:41.000Z</time>
      </trkpt>
      <trkpt lat="45.31276" lon="4.64494">
        <ele>610.20001220703</ele>
        <time>2019-10-30T07:20:42.000Z</time>
      </trkpt>
      <trkpt lat="45.31283" lon="4.64499">
        <ele>611</ele>
        <time>2019-10-30T07:20:45.000Z</time>
      </trkpt>
      <trkpt lat="45.31283" lon="4.645">
        <ele>611.40002441406</ele>
        <time>2019-10-30T07:20:46.000Z</time>
      </trkpt>
      <trkpt lat="45.31284" lon="4.64505">
        <ele>612.40002441406</ele>
        <time>2019-10-30T07:20:48.000Z</time>
      </trkpt>
      <trkpt lat="45.31284" lon="4.64507">
        <ele>612.79998779297</ele>
        <time>2019-10-30T07:20:49.000Z</time>
      </trkpt>
      <trkpt lat="45.31286" lon="4.64508">
        <ele>613</ele>
        <time>2019-10-30T07:20:50.000Z</time>
      </trkpt>
      <trkpt lat="45.31287" lon="4.6451">
        <ele>613</ele>
        <time>2019-10-30T07:20:51.000Z</time>
      </trkpt>
      <trkpt lat="45.31289" lon="4.64512">
        <ele>613.20001220703</ele>
        <time>2019-10-30T07:20:52.000Z</time>
      </trkpt>
      <trkpt lat="45.31291" lon="4.64513">
        <ele>613.20001220703</ele>
        <time>2019-10-30T07:20:53.000Z</time>
      </trkpt>
      <trkpt lat="45.31293" lon="4.64514">
        <ele>613.20001220703</ele>
        <time>2019-10-30T07:20:54.000Z</time>
      </trkpt>
      <trkpt lat="45.31295" lon="4.64515">
        <ele>613</ele>
        <time>2019-10-30T07:20:55.000Z</time>
      </trkpt>
      <trkpt lat="45.31297" lon="4.64516">
        <ele>613</ele>
        <time>2019-10-30T07:20:56.000Z</time>
      </trkpt>
      <trkpt lat="45.31299" lon="4.64518">
        <ele>613.20001220703</ele>
        <time>2019-10-30T07:20:57.000Z</time>
      </trkpt>
      <trkpt lat="45.31301" lon="4.6452">
        <ele>613</ele>
        <time>2019-10-30T07:20:58.000Z</time>
      </trkpt>
      <trkpt lat="45.31307" lon="4.64525">
        <ele>613.20001220703</ele>
        <time>2019-10-30T07:21:01.000Z</time>
      </trkpt>
      <trkpt lat="45.31309" lon="4.64526">
        <ele>613</ele>
        <time>2019-10-30T07:21:02.000Z</time>
      </trkpt>
      <trkpt lat="45.31311" lon="4.64528">
        <ele>613.20001220703</ele>
        <time>2019-10-30T07:21:03.000Z</time>
      </trkpt>
      <trkpt lat="45.31315" lon="4.64531">
        <ele>613.20001220703</ele>
        <time>2019-10-30T07:21:05.000Z</time>
      </trkpt>
      <trkpt lat="45.31317" lon="4.64532">
        <ele>613.20001220703</ele>
        <time>2019-10-30T07:21:06.000Z</time>
      </trkpt>
      <trkpt lat="45.31319" lon="4.64534">
        <ele>613</ele>
        <time>2019-10-30T07:21:07.000Z</time>
      </trkpt>
      <trkpt lat="45.3132" lon="4.64536">
        <ele>613.20001220703</ele>
        <time>2019-10-30T07:21:08.000Z</time>
      </trkpt>
      <trkpt lat="45.31322" lon="4.64538">
        <ele>613</ele>
        <time>2019-10-30T07:21:09.000Z</time>
      </trkpt>
      <trkpt lat="45.31324" lon="4.64539">
        <ele>613</ele>
        <time>2019-10-30T07:21:10.000Z</time>
      </trkpt>
      <trkpt lat="45.31325" lon="4.64541">
        <ele>613</ele>
        <time>2019-10-30T07:21:11.000Z</time>
      </trkpt>
      <trkpt lat="45.31327" lon="4.64543">
        <ele>613</ele>
        <time>2019-10-30T07:21:12.000Z</time>
      </trkpt>
      <trkpt lat="45.31328" lon="4.64544">
        <ele>613.20001220703</ele>
        <time>2019-10-30T07:21:13.000Z</time>
      </trkpt>
      <trkpt lat="45.31329" lon="4.64546">
        <ele>613.20001220703</ele>
        <time>2019-10-30T07:21:14.000Z</time>
      </trkpt>
      <trkpt lat="45.31331" lon="4.64548">
        <ele>613.20001220703</ele>
        <time>2019-10-30T07:21:15.000Z</time>
      </trkpt>
      <trkpt lat="45.31333" lon="4.6455">
        <ele>613</ele>
        <time>2019-10-30T07:21:16.000Z</time>
      </trkpt>
      <trkpt lat="45.31335" lon="4.64552">
        <ele>613</ele>
        <time>2019-10-30T07:21:17.000Z</time>
      </trkpt>
      <trkpt lat="45.31336" lon="4.64554">
        <ele>613</ele>
        <time>2019-10-30T07:21:18.000Z</time>
      </trkpt>
      <trkpt lat="45.31338" lon="4.64557">
        <ele>613</ele>
        <time>2019-10-30T07:21:19.000Z</time>
      </trkpt>
      <trkpt lat="45.31339" lon="4.64559">
        <ele>612.79998779297</ele>
        <time>2019-10-30T07:21:20.000Z</time>
      </trkpt>
      <trkpt lat="45.3134" lon="4.64563">
        <ele>613</ele>
        <time>2019-10-30T07:21:21.000Z</time>
      </trkpt>
      <trkpt lat="45.31342" lon="4.64569">
        <ele>612.79998779297</ele>
        <time>2019-10-30T07:21:23.000Z</time>
      </trkpt>
      <trkpt lat="45.31343" lon="4.64571">
        <ele>612.79998779297</ele>
        <time>2019-10-30T07:21:24.000Z</time>
      </trkpt>
      <trkpt lat="45.31344" lon="4.64573">
        <ele>612.79998779297</ele>
        <time>2019-10-30T07:21:25.000Z</time>
      </trkpt>
      <trkpt lat="45.31345" lon="4.64576">
        <ele>612.59997558594</ele>
        <time>2019-10-30T07:21:26.000Z</time>
      </trkpt>
      <trkpt lat="45.31347" lon="4.64581">
        <ele>612.59997558594</ele>
        <time>2019-10-30T07:21:28.000Z</time>
      </trkpt>
      <trkpt lat="45.31352" lon="4.64594">
        <ele>612.59997558594</ele>
        <time>2019-10-30T07:21:32.000Z</time>
      </trkpt>
      <trkpt lat="45.31353" lon="4.64597">
        <ele>612.59997558594</ele>
        <time>2019-10-30T07:21:33.000Z</time>
      </trkpt>
      <trkpt lat="45.31359" lon="4.64617">
        <ele>613</ele>
        <time>2019-10-30T07:21:39.000Z</time>
      </trkpt>
      <trkpt lat="45.3136" lon="4.64621">
        <ele>612.79998779297</ele>
        <time>2019-10-30T07:21:40.000Z</time>
      </trkpt>
      <trkpt lat="45.31361" lon="4.64624">
        <ele>612.79998779297</ele>
        <time>2019-10-30T07:21:41.000Z</time>
      </trkpt>
      <trkpt lat="45.31362" lon="4.64627">
        <ele>612.79998779297</ele>
        <time>2019-10-30T07:21:42.000Z</time>
      </trkpt>
      <trkpt lat="45.31363" lon="4.6463">
        <ele>613</ele>
        <time>2019-10-30T07:21:43.000Z</time>
      </trkpt>
      <trkpt lat="45.31363" lon="4.64633">
        <ele>613</ele>
        <time>2019-10-30T07:21:44.000Z</time>
      </trkpt>
      <trkpt lat="45.31364" lon="4.64635">
        <ele>613</ele>
        <time>2019-10-30T07:21:45.000Z</time>
      </trkpt>
      <trkpt lat="45.31365" lon="4.64638">
        <ele>613</ele>
        <time>2019-10-30T07:21:46.000Z</time>
      </trkpt>
      <trkpt lat="45.31366" lon="4.64641">
        <ele>613.20001220703</ele>
        <time>2019-10-30T07:21:47.000Z</time>
      </trkpt>
      <trkpt lat="45.31367" lon="4.64643">
        <ele>613.40002441406</ele>
        <time>2019-10-30T07:21:48.000Z</time>
      </trkpt>
      <trkpt lat="45.31368" lon="4.64645">
        <ele>613.40002441406</ele>
        <time>2019-10-30T07:21:49.000Z</time>
      </trkpt>
      <trkpt lat="45.31369" lon="4.64648">
        <ele>613.59997558594</ele>
        <time>2019-10-30T07:21:50.000Z</time>
      </trkpt>
      <trkpt lat="45.31369" lon="4.6465">
        <ele>613.59997558594</ele>
        <time>2019-10-30T07:21:51.000Z</time>
      </trkpt>
      <trkpt lat="45.3137" lon="4.64653">
        <ele>613.79998779297</ele>
        <time>2019-10-30T07:21:52.000Z</time>
      </trkpt>
      <trkpt lat="45.3137" lon="4.64655">
        <ele>614</ele>
        <time>2019-10-30T07:21:53.000Z</time>
      </trkpt>
      <trkpt lat="45.31371" lon="4.64657">
        <ele>614</ele>
        <time>2019-10-30T07:21:54.000Z</time>
      </trkpt>
      <trkpt lat="45.31372" lon="4.64659">
        <ele>614.40002441406</ele>
        <time>2019-10-30T07:21:55.000Z</time>
      </trkpt>
      <trkpt lat="45.31373" lon="4.64662">
        <ele>614.59997558594</ele>
        <time>2019-10-30T07:21:56.000Z</time>
      </trkpt>
      <trkpt lat="45.31373" lon="4.64664">
        <ele>615</ele>
        <time>2019-10-30T07:21:57.000Z</time>
      </trkpt>
      <trkpt lat="45.31374" lon="4.64666">
        <ele>615.40002441406</ele>
        <time>2019-10-30T07:21:58.000Z</time>
      </trkpt>
      <trkpt lat="45.31374" lon="4.64668">
        <ele>615.59997558594</ele>
        <time>2019-10-30T07:21:59.000Z</time>
      </trkpt>
      <trkpt lat="45.31375" lon="4.64671">
        <ele>615.79998779297</ele>
        <time>2019-10-30T07:22:00.000Z</time>
      </trkpt>
      <trkpt lat="45.31376" lon="4.64673">
        <ele>616</ele>
        <time>2019-10-30T07:22:01.000Z</time>
      </trkpt>
      <trkpt lat="45.31377" lon="4.64675">
        <ele>616.20001220703</ele>
        <time>2019-10-30T07:22:02.000Z</time>
      </trkpt>
      <trkpt lat="45.31378" lon="4.64678">
        <ele>616.20001220703</ele>
        <time>2019-10-30T07:22:03.000Z</time>
      </trkpt>
      <trkpt lat="45.31379" lon="4.6468">
        <ele>616.59997558594</ele>
        <time>2019-10-30T07:22:04.000Z</time>
      </trkpt>
      <trkpt lat="45.3138" lon="4.64682">
        <ele>616.79998779297</ele>
        <time>2019-10-30T07:22:05.000Z</time>
      </trkpt>
      <trkpt lat="45.31381" lon="4.64684">
        <ele>617</ele>
        <time>2019-10-30T07:22:06.000Z</time>
      </trkpt>
      <trkpt lat="45.31382" lon="4.64687">
        <ele>617.20001220703</ele>
        <time>2019-10-30T07:22:07.000Z</time>
      </trkpt>
      <trkpt lat="45.31383" lon="4.64689">
        <ele>617.40002441406</ele>
        <time>2019-10-30T07:22:08.000Z</time>
      </trkpt>
      <trkpt lat="45.31384" lon="4.64691">
        <ele>618</ele>
        <time>2019-10-30T07:22:09.000Z</time>
      </trkpt>
      <trkpt lat="45.31385" lon="4.64693">
        <ele>618</ele>
        <time>2019-10-30T07:22:10.000Z</time>
      </trkpt>
      <trkpt lat="45.31386" lon="4.64695">
        <ele>618.20001220703</ele>
        <time>2019-10-30T07:22:11.000Z</time>
      </trkpt>
      <trkpt lat="45.31387" lon="4.64697">
        <ele>618.20001220703</ele>
        <time>2019-10-30T07:22:12.000Z</time>
      </trkpt>
      <trkpt lat="45.31388" lon="4.64699">
        <ele>618.59997558594</ele>
        <time>2019-10-30T07:22:13.000Z</time>
      </trkpt>
      <trkpt lat="45.31389" lon="4.64702">
        <ele>619</ele>
        <time>2019-10-30T07:22:14.000Z</time>
      </trkpt>
      <trkpt lat="45.3139" lon="4.64705">
        <ele>619.20001220703</ele>
        <time>2019-10-30T07:22:15.000Z</time>
      </trkpt>
      <trkpt lat="45.31391" lon="4.64707">
        <ele>619.59997558594</ele>
        <time>2019-10-30T07:22:16.000Z</time>
      </trkpt>
      <trkpt lat="45.31392" lon="4.64709">
        <ele>619.79998779297</ele>
        <time>2019-10-30T07:22:17.000Z</time>
      </trkpt>
      <trkpt lat="45.31393" lon="4.64711">
        <ele>620.40002441406</ele>
        <time>2019-10-30T07:22:18.000Z</time>
      </trkpt>
      <trkpt lat="45.31394" lon="4.64713">
        <ele>620.40002441406</ele>
        <time>2019-10-30T07:22:19.000Z</time>
      </trkpt>
      <trkpt lat="45.31395" lon="4.64715">
        <ele>620.79998779297</ele>
        <time>2019-10-30T07:22:20.000Z</time>
      </trkpt>
      <trkpt lat="45.31395" lon="4.64717">
        <ele>621</ele>
        <time>2019-10-30T07:22:21.000Z</time>
      </trkpt>
      <trkpt lat="45.31396" lon="4.6472">
        <ele>621.40002441406</ele>
        <time>2019-10-30T07:22:22.000Z</time>
      </trkpt>
      <trkpt lat="45.31396" lon="4.64722">
        <ele>621.40002441406</ele>
        <time>2019-10-30T07:22:23.000Z</time>
      </trkpt>
      <trkpt lat="45.31396" lon="4.64725">
        <ele>621.59997558594</ele>
        <time>2019-10-30T07:22:24.000Z</time>
      </trkpt>
      <trkpt lat="45.31397" lon="4.64728">
        <ele>622</ele>
        <time>2019-10-30T07:22:25.000Z</time>
      </trkpt>
      <trkpt lat="45.31397" lon="4.64731">
        <ele>622.59997558594</ele>
        <time>2019-10-30T07:22:26.000Z</time>
      </trkpt>
      <trkpt lat="45.31397" lon="4.64733">
        <ele>622.59997558594</ele>
        <time>2019-10-30T07:22:27.000Z</time>
      </trkpt>
      <trkpt lat="45.31398" lon="4.64736">
        <ele>623</ele>
        <time>2019-10-30T07:22:28.000Z</time>
      </trkpt>
      <trkpt lat="45.31398" lon="4.64739">
        <ele>623</ele>
        <time>2019-10-30T07:22:29.000Z</time>
      </trkpt>
      <trkpt lat="45.31398" lon="4.64742">
        <ele>623.20001220703</ele>
        <time>2019-10-30T07:22:30.000Z</time>
      </trkpt>
      <trkpt lat="45.31398" lon="4.64745">
        <ele>623.20001220703</ele>
        <time>2019-10-30T07:22:31.000Z</time>
      </trkpt>
      <trkpt lat="45.31398" lon="4.64748">
        <ele>623.40002441406</ele>
        <time>2019-10-30T07:22:32.000Z</time>
      </trkpt>
      <trkpt lat="45.31397" lon="4.6475">
        <ele>623.40002441406</ele>
        <time>2019-10-30T07:22:33.000Z</time>
      </trkpt>
      <trkpt lat="45.31397" lon="4.64753">
        <ele>623.59997558594</ele>
        <time>2019-10-30T07:22:34.000Z</time>
      </trkpt>
      <trkpt lat="45.31396" lon="4.64756">
        <ele>623.59997558594</ele>
        <time>2019-10-30T07:22:35.000Z</time>
      </trkpt>
      <trkpt lat="45.31395" lon="4.64758">
        <ele>623.79998779297</ele>
        <time>2019-10-30T07:22:36.000Z</time>
      </trkpt>
      <trkpt lat="45.31388" lon="4.64782">
        <ele>624.79998779297</ele>
        <time>2019-10-30T07:22:44.000Z</time>
      </trkpt>
      <trkpt lat="45.31382" lon="4.64798">
        <ele>624.79998779297</ele>
        <time>2019-10-30T07:22:49.000Z</time>
      </trkpt>
      <trkpt lat="45.3138" lon="4.64802">
        <ele>625</ele>
        <time>2019-10-30T07:22:50.000Z</time>
      </trkpt>
      <trkpt lat="45.31377" lon="4.64808">
        <ele>625.20001220703</ele>
        <time>2019-10-30T07:22:52.000Z</time>
      </trkpt>
      <trkpt lat="45.31376" lon="4.64811">
        <ele>625.20001220703</ele>
        <time>2019-10-30T07:22:53.000Z</time>
      </trkpt>
      <trkpt lat="45.31375" lon="4.64814">
        <ele>625.20001220703</ele>
        <time>2019-10-30T07:22:54.000Z</time>
      </trkpt>
      <trkpt lat="45.31373" lon="4.64817">
        <ele>625.40002441406</ele>
        <time>2019-10-30T07:22:55.000Z</time>
      </trkpt>
      <trkpt lat="45.31362" lon="4.64843">
        <ele>625.40002441406</ele>
        <time>2019-10-30T07:23:03.000Z</time>
      </trkpt>
      <trkpt lat="45.3136" lon="4.64846">
        <ele>625.20001220703</ele>
        <time>2019-10-30T07:23:04.000Z</time>
      </trkpt>
      <trkpt lat="45.31359" lon="4.64849">
        <ele>625.40002441406</ele>
        <time>2019-10-30T07:23:05.000Z</time>
      </trkpt>
      <trkpt lat="45.31357" lon="4.64853">
        <ele>625.40002441406</ele>
        <time>2019-10-30T07:23:06.000Z</time>
      </trkpt>
      <trkpt lat="45.31353" lon="4.64863">
        <ele>625.20001220703</ele>
        <time>2019-10-30T07:23:09.000Z</time>
      </trkpt>
      <trkpt lat="45.31349" lon="4.64871">
        <ele>625.20001220703</ele>
        <time>2019-10-30T07:23:11.000Z</time>
      </trkpt>
      <trkpt lat="45.31348" lon="4.64874">
        <ele>625.40002441406</ele>
        <time>2019-10-30T07:23:12.000Z</time>
      </trkpt>
      <trkpt lat="45.31344" lon="4.64882">
        <ele>625.40002441406</ele>
        <time>2019-10-30T07:23:14.000Z</time>
      </trkpt>
      <trkpt lat="45.31343" lon="4.64885">
        <ele>625.40002441406</ele>
        <time>2019-10-30T07:23:15.000Z</time>
      </trkpt>
      <trkpt lat="45.3134" lon="4.64893">
        <ele>625.40002441406</ele>
        <time>2019-10-30T07:23:17.000Z</time>
      </trkpt>
      <trkpt lat="45.31338" lon="4.64897">
        <ele>625.40002441406</ele>
        <time>2019-10-30T07:23:18.000Z</time>
      </trkpt>
      <trkpt lat="45.31336" lon="4.64901">
        <ele>625.59997558594</ele>
        <time>2019-10-30T07:23:19.000Z</time>
      </trkpt>
      <trkpt lat="45.31335" lon="4.64904">
        <ele>625.59997558594</ele>
        <time>2019-10-30T07:23:20.000Z</time>
      </trkpt>
      <trkpt lat="45.31326" lon="4.64922">
        <ele>625.59997558594</ele>
        <time>2019-10-30T07:23:25.000Z</time>
      </trkpt>
      <trkpt lat="45.31324" lon="4.64926">
        <ele>625.59997558594</ele>
        <time>2019-10-30T07:23:26.000Z</time>
      </trkpt>
      <trkpt lat="45.31323" lon="4.64929">
        <ele>625.59997558594</ele>
        <time>2019-10-30T07:23:27.000Z</time>
      </trkpt>
      <trkpt lat="45.31321" lon="4.64932">
        <ele>625.79998779297</ele>
        <time>2019-10-30T07:23:28.000Z</time>
      </trkpt>
      <trkpt lat="45.31319" lon="4.64935">
        <ele>625.79998779297</ele>
        <time>2019-10-30T07:23:29.000Z</time>
      </trkpt>
      <trkpt lat="45.31318" lon="4.64938">
        <ele>625.79998779297</ele>
        <time>2019-10-30T07:23:30.000Z</time>
      </trkpt>
      <trkpt lat="45.3131" lon="4.64951">
        <ele>625.79998779297</ele>
        <time>2019-10-30T07:23:34.000Z</time>
      </trkpt>
      <trkpt lat="45.31306" lon="4.64957">
        <ele>626</ele>
        <time>2019-10-30T07:23:36.000Z</time>
      </trkpt>
      <trkpt lat="45.31304" lon="4.6496">
        <ele>626</ele>
        <time>2019-10-30T07:23:37.000Z</time>
      </trkpt>
      <trkpt lat="45.31298" lon="4.64969">
        <ele>626.20001220703</ele>
        <time>2019-10-30T07:23:40.000Z</time>
      </trkpt>
      <trkpt lat="45.31291" lon="4.64978">
        <ele>626.40002441406</ele>
        <time>2019-10-30T07:23:43.000Z</time>
      </trkpt>
      <trkpt lat="45.31285" lon="4.64988">
        <ele>626.59997558594</ele>
        <time>2019-10-30T07:23:46.000Z</time>
      </trkpt>
      <trkpt lat="45.31284" lon="4.64992">
        <ele>626.59997558594</ele>
        <time>2019-10-30T07:23:47.000Z</time>
      </trkpt>
      <trkpt lat="45.31278" lon="4.65003">
        <ele>626.79998779297</ele>
        <time>2019-10-30T07:23:50.000Z</time>
      </trkpt>
      <trkpt lat="45.31277" lon="4.65007">
        <ele>626.79998779297</ele>
        <time>2019-10-30T07:23:51.000Z</time>
      </trkpt>
      <trkpt lat="45.31275" lon="4.6501">
        <ele>626.79998779297</ele>
        <time>2019-10-30T07:23:52.000Z</time>
      </trkpt>
      <trkpt lat="45.31274" lon="4.65014">
        <ele>626.79998779297</ele>
        <time>2019-10-30T07:23:53.000Z</time>
      </trkpt>
      <trkpt lat="45.31272" lon="4.65017">
        <ele>626.79998779297</ele>
        <time>2019-10-30T07:23:54.000Z</time>
      </trkpt>
      <trkpt lat="45.31269" lon="4.65025">
        <ele>627</ele>
        <time>2019-10-30T07:23:56.000Z</time>
      </trkpt>
      <trkpt lat="45.31268" lon="4.65028">
        <ele>627.20001220703</ele>
        <time>2019-10-30T07:23:57.000Z</time>
      </trkpt>
      <trkpt lat="45.31266" lon="4.65032">
        <ele>627.40002441406</ele>
        <time>2019-10-30T07:23:58.000Z</time>
      </trkpt>
      <trkpt lat="45.31265" lon="4.65036">
        <ele>627.40002441406</ele>
        <time>2019-10-30T07:23:59.000Z</time>
      </trkpt>
      <trkpt lat="45.31264" lon="4.6504">
        <ele>627.20001220703</ele>
        <time>2019-10-30T07:24:00.000Z</time>
      </trkpt>
      <trkpt lat="45.31263" lon="4.65043">
        <ele>627.40002441406</ele>
        <time>2019-10-30T07:24:01.000Z</time>
      </trkpt>
      <trkpt lat="45.31261" lon="4.65047">
        <ele>627.40002441406</ele>
        <time>2019-10-30T07:24:02.000Z</time>
      </trkpt>
      <trkpt lat="45.31259" lon="4.65054">
        <ele>627.79998779297</ele>
        <time>2019-10-30T07:24:04.000Z</time>
      </trkpt>
      <trkpt lat="45.31258" lon="4.65057">
        <ele>628</ele>
        <time>2019-10-30T07:24:05.000Z</time>
      </trkpt>
      <trkpt lat="45.31257" lon="4.6506">
        <ele>628</ele>
        <time>2019-10-30T07:24:06.000Z</time>
      </trkpt>
      <trkpt lat="45.31256" lon="4.65063">
        <ele>628</ele>
        <time>2019-10-30T07:24:07.000Z</time>
      </trkpt>
      <trkpt lat="45.31255" lon="4.65066">
        <ele>628.40002441406</ele>
        <time>2019-10-30T07:24:08.000Z</time>
      </trkpt>
      <trkpt lat="45.31254" lon="4.65069">
        <ele>628.40002441406</ele>
        <time>2019-10-30T07:24:09.000Z</time>
      </trkpt>
      <trkpt lat="45.31253" lon="4.65072">
        <ele>628.40002441406</ele>
        <time>2019-10-30T07:24:10.000Z</time>
      </trkpt>
      <trkpt lat="45.31253" lon="4.65075">
        <ele>628.59997558594</ele>
        <time>2019-10-30T07:24:11.000Z</time>
      </trkpt>
      <trkpt lat="45.31252" lon="4.65078">
        <ele>628.59997558594</ele>
        <time>2019-10-30T07:24:12.000Z</time>
      </trkpt>
      <trkpt lat="45.31253" lon="4.6508">
        <ele>629</ele>
        <time>2019-10-30T07:24:13.000Z</time>
      </trkpt>
      <trkpt lat="45.31255" lon="4.65083">
        <ele>629.20001220703</ele>
        <time>2019-10-30T07:24:14.000Z</time>
      </trkpt>
      <trkpt lat="45.31256" lon="4.65084">
        <ele>629.40002441406</ele>
        <time>2019-10-30T07:24:15.000Z</time>
      </trkpt>
      <trkpt lat="45.31258" lon="4.65085">
        <ele>629.59997558594</ele>
        <time>2019-10-30T07:24:16.000Z</time>
      </trkpt>
      <trkpt lat="45.31259" lon="4.65086">
        <ele>629.59997558594</ele>
        <time>2019-10-30T07:24:17.000Z</time>
      </trkpt>
      <trkpt lat="45.31261" lon="4.65086">
        <ele>629.79998779297</ele>
        <time>2019-10-30T07:24:18.000Z</time>
      </trkpt>
      <trkpt lat="45.31262" lon="4.65086">
        <ele>629.79998779297</ele>
        <time>2019-10-30T07:24:19.000Z</time>
      </trkpt>
      <trkpt lat="45.31264" lon="4.65086">
        <ele>630</ele>
        <time>2019-10-30T07:24:20.000Z</time>
      </trkpt>
      <trkpt lat="45.31266" lon="4.65086">
        <ele>629.79998779297</ele>
        <time>2019-10-30T07:24:21.000Z</time>
      </trkpt>
      <trkpt lat="45.31268" lon="4.65086">
        <ele>630</ele>
        <time>2019-10-30T07:24:22.000Z</time>
      </trkpt>
      <trkpt lat="45.31271" lon="4.65087">
        <ele>630.20001220703</ele>
        <time>2019-10-30T07:24:23.000Z</time>
      </trkpt>
      <trkpt lat="45.31273" lon="4.65087">
        <ele>630.20001220703</ele>
        <time>2019-10-30T07:24:24.000Z</time>
      </trkpt>
      <trkpt lat="45.31275" lon="4.65087">
        <ele>630.59997558594</ele>
        <time>2019-10-30T07:24:25.000Z</time>
      </trkpt>
      <trkpt lat="45.31278" lon="4.65087">
        <ele>630.79998779297</ele>
        <time>2019-10-30T07:24:26.000Z</time>
      </trkpt>
      <trkpt lat="45.3128" lon="4.65088">
        <ele>631</ele>
        <time>2019-10-30T07:24:27.000Z</time>
      </trkpt>
      <trkpt lat="45.31282" lon="4.65088">
        <ele>631.40002441406</ele>
        <time>2019-10-30T07:24:28.000Z</time>
      </trkpt>
      <trkpt lat="45.31285" lon="4.65088">
        <ele>631.59997558594</ele>
        <time>2019-10-30T07:24:29.000Z</time>
      </trkpt>
      <trkpt lat="45.31287" lon="4.65088">
        <ele>632</ele>
        <time>2019-10-30T07:24:30.000Z</time>
      </trkpt>
      <trkpt lat="45.31289" lon="4.65089">
        <ele>632</ele>
        <time>2019-10-30T07:24:31.000Z</time>
      </trkpt>
      <trkpt lat="45.31291" lon="4.65088">
        <ele>632.20001220703</ele>
        <time>2019-10-30T07:24:32.000Z</time>
      </trkpt>
      <trkpt lat="45.31293" lon="4.65089">
        <ele>632.20001220703</ele>
        <time>2019-10-30T07:24:33.000Z</time>
      </trkpt>
      <trkpt lat="45.31296" lon="4.65089">
        <ele>632.20001220703</ele>
        <time>2019-10-30T07:24:34.000Z</time>
      </trkpt>
      <trkpt lat="45.31298" lon="4.65089">
        <ele>632.40002441406</ele>
        <time>2019-10-30T07:24:35.000Z</time>
      </trkpt>
      <trkpt lat="45.313" lon="4.65089">
        <ele>632.59997558594</ele>
        <time>2019-10-30T07:24:36.000Z</time>
      </trkpt>
      <trkpt lat="45.31302" lon="4.65089">
        <ele>633</ele>
        <time>2019-10-30T07:24:37.000Z</time>
      </trkpt>
      <trkpt lat="45.31304" lon="4.6509">
        <ele>633.20001220703</ele>
        <time>2019-10-30T07:24:38.000Z</time>
      </trkpt>
      <trkpt lat="45.31306" lon="4.6509">
        <ele>633.20001220703</ele>
        <time>2019-10-30T07:24:39.000Z</time>
      </trkpt>
      <trkpt lat="45.31308" lon="4.6509">
        <ele>633.20001220703</ele>
        <time>2019-10-30T07:24:40.000Z</time>
      </trkpt>
      <trkpt lat="45.3131" lon="4.6509">
        <ele>633.40002441406</ele>
        <time>2019-10-30T07:24:41.000Z</time>
      </trkpt>
      <trkpt lat="45.31311" lon="4.6509">
        <ele>633.59997558594</ele>
        <time>2019-10-30T07:24:42.000Z</time>
      </trkpt>
      <trkpt lat="45.31313" lon="4.65091">
        <ele>633.59997558594</ele>
        <time>2019-10-30T07:24:43.000Z</time>
      </trkpt>
      <trkpt lat="45.31315" lon="4.65091">
        <ele>634</ele>
        <time>2019-10-30T07:24:44.000Z</time>
      </trkpt>
      <trkpt lat="45.31317" lon="4.65091">
        <ele>634</ele>
        <time>2019-10-30T07:24:45.000Z</time>
      </trkpt>
      <trkpt lat="45.31319" lon="4.65091">
        <ele>634</ele>
        <time>2019-10-30T07:24:46.000Z</time>
      </trkpt>
      <trkpt lat="45.31321" lon="4.65091">
        <ele>634.20001220703</ele>
        <time>2019-10-30T07:24:47.000Z</time>
      </trkpt>
      <trkpt lat="45.31323" lon="4.65091">
        <ele>634.20001220703</ele>
        <time>2019-10-30T07:24:48.000Z</time>
      </trkpt>
      <trkpt lat="45.31325" lon="4.65091">
        <ele>634.40002441406</ele>
        <time>2019-10-30T07:24:49.000Z</time>
      </trkpt>
      <trkpt lat="45.31327" lon="4.65091">
        <ele>634.59997558594</ele>
        <time>2019-10-30T07:24:50.000Z</time>
      </trkpt>
      <trkpt lat="45.31329" lon="4.65091">
        <ele>634.79998779297</ele>
        <time>2019-10-30T07:24:51.000Z</time>
      </trkpt>
      <trkpt lat="45.31331" lon="4.65092">
        <ele>634.79998779297</ele>
        <time>2019-10-30T07:24:52.000Z</time>
      </trkpt>
      <trkpt lat="45.31333" lon="4.65092">
        <ele>635.20001220703</ele>
        <time>2019-10-30T07:24:53.000Z</time>
      </trkpt>
      <trkpt lat="45.31335" lon="4.65092">
        <ele>635.40002441406</ele>
        <time>2019-10-30T07:24:54.000Z</time>
      </trkpt>
      <trkpt lat="45.31337" lon="4.65092">
        <ele>635.40002441406</ele>
        <time>2019-10-30T07:24:55.000Z</time>
      </trkpt>
      <trkpt lat="45.31339" lon="4.65092">
        <ele>635.59997558594</ele>
        <time>2019-10-30T07:24:56.000Z</time>
      </trkpt>
      <trkpt lat="45.31341" lon="4.65093">
        <ele>635.79998779297</ele>
        <time>2019-10-30T07:24:57.000Z</time>
      </trkpt>
      <trkpt lat="45.31344" lon="4.65093">
        <ele>636</ele>
        <time>2019-10-30T07:24:58.000Z</time>
      </trkpt>
      <trkpt lat="45.31346" lon="4.65093">
        <ele>636</ele>
        <time>2019-10-30T07:24:59.000Z</time>
      </trkpt>
      <trkpt lat="45.31348" lon="4.65093">
        <ele>636.20001220703</ele>
        <time>2019-10-30T07:25:00.000Z</time>
      </trkpt>
      <trkpt lat="45.3135" lon="4.65092">
        <ele>636.20001220703</ele>
        <time>2019-10-30T07:25:01.000Z</time>
      </trkpt>
      <trkpt lat="45.31352" lon="4.65092">
        <ele>636.59997558594</ele>
        <time>2019-10-30T07:25:02.000Z</time>
      </trkpt>
      <trkpt lat="45.31354" lon="4.65091">
        <ele>636.59997558594</ele>
        <time>2019-10-30T07:25:03.000Z</time>
      </trkpt>
      <trkpt lat="45.31356" lon="4.65091">
        <ele>637</ele>
        <time>2019-10-30T07:25:04.000Z</time>
      </trkpt>
      <trkpt lat="45.31358" lon="4.6509">
        <ele>637</ele>
        <time>2019-10-30T07:25:05.000Z</time>
      </trkpt>
      <trkpt lat="45.31359" lon="4.65089">
        <ele>637</ele>
        <time>2019-10-30T07:25:06.000Z</time>
      </trkpt>
      <trkpt lat="45.31361" lon="4.65088">
        <ele>637.20001220703</ele>
        <time>2019-10-30T07:25:07.000Z</time>
      </trkpt>
      <trkpt lat="45.31363" lon="4.65087">
        <ele>637.59997558594</ele>
        <time>2019-10-30T07:25:08.000Z</time>
      </trkpt>
      <trkpt lat="45.31365" lon="4.65086">
        <ele>637.79998779297</ele>
        <time>2019-10-30T07:25:09.000Z</time>
      </trkpt>
      <trkpt lat="45.31367" lon="4.65085">
        <ele>637.59997558594</ele>
        <time>2019-10-30T07:25:10.000Z</time>
      </trkpt>
      <trkpt lat="45.31369" lon="4.65084">
        <ele>637.59997558594</ele>
        <time>2019-10-30T07:25:11.000Z</time>
      </trkpt>
      <trkpt lat="45.31371" lon="4.65084">
        <ele>637.79998779297</ele>
        <time>2019-10-30T07:25:12.000Z</time>
      </trkpt>
      <trkpt lat="45.31372" lon="4.65083">
        <ele>638</ele>
        <time>2019-10-30T07:25:13.000Z</time>
      </trkpt>
      <trkpt lat="45.31374" lon="4.65082">
        <ele>638.20001220703</ele>
        <time>2019-10-30T07:25:14.000Z</time>
      </trkpt>
      <trkpt lat="45.31375" lon="4.65081">
        <ele>638.40002441406</ele>
        <time>2019-10-30T07:25:15.000Z</time>
      </trkpt>
      <trkpt lat="45.31377" lon="4.65079">
        <ele>638.59997558594</ele>
        <time>2019-10-30T07:25:16.000Z</time>
      </trkpt>
      <trkpt lat="45.31381" lon="4.65075">
        <ele>638.79998779297</ele>
        <time>2019-10-30T07:25:18.000Z</time>
      </trkpt>
      <trkpt lat="45.31389" lon="4.65068">
        <ele>639.20001220703</ele>
        <time>2019-10-30T07:25:22.000Z</time>
      </trkpt>
      <trkpt lat="45.31391" lon="4.65066">
        <ele>639.40002441406</ele>
        <time>2019-10-30T07:25:23.000Z</time>
      </trkpt>
      <trkpt lat="45.31393" lon="4.65064">
        <ele>639.20001220703</ele>
        <time>2019-10-30T07:25:24.000Z</time>
      </trkpt>
      <trkpt lat="45.31397" lon="4.6506">
        <ele>639.59997558594</ele>
        <time>2019-10-30T07:25:26.000Z</time>
      </trkpt>
      <trkpt lat="45.31398" lon="4.65058">
        <ele>639.59997558594</ele>
        <time>2019-10-30T07:25:27.000Z</time>
      </trkpt>
      <trkpt lat="45.314" lon="4.65056">
        <ele>639.79998779297</ele>
        <time>2019-10-30T07:25:28.000Z</time>
      </trkpt>
      <trkpt lat="45.31402" lon="4.65054">
        <ele>639.59997558594</ele>
        <time>2019-10-30T07:25:29.000Z</time>
      </trkpt>
      <trkpt lat="45.31404" lon="4.65051">
        <ele>639.79998779297</ele>
        <time>2019-10-30T07:25:30.000Z</time>
      </trkpt>
      <trkpt lat="45.31406" lon="4.65049">
        <ele>639.79998779297</ele>
        <time>2019-10-30T07:25:31.000Z</time>
      </trkpt>
      <trkpt lat="45.31408" lon="4.65047">
        <ele>639.79998779297</ele>
        <time>2019-10-30T07:25:32.000Z</time>
      </trkpt>
      <trkpt lat="45.3141" lon="4.65045">
        <ele>640</ele>
        <time>2019-10-30T07:25:33.000Z</time>
      </trkpt>
      <trkpt lat="45.31413" lon="4.6504">
        <ele>640.40002441406</ele>
        <time>2019-10-30T07:25:35.000Z</time>
      </trkpt>
      <trkpt lat="45.31415" lon="4.65038">
        <ele>640.40002441406</ele>
        <time>2019-10-30T07:25:36.000Z</time>
      </trkpt>
      <trkpt lat="45.31417" lon="4.65036">
        <ele>640.40002441406</ele>
        <time>2019-10-30T07:25:37.000Z</time>
      </trkpt>
      <trkpt lat="45.31419" lon="4.65034">
        <ele>640.40002441406</ele>
        <time>2019-10-30T07:25:38.000Z</time>
      </trkpt>
      <trkpt lat="45.31421" lon="4.65031">
        <ele>640.59997558594</ele>
        <time>2019-10-30T07:25:39.000Z</time>
      </trkpt>
      <trkpt lat="45.31423" lon="4.65029">
        <ele>640.40002441406</ele>
        <time>2019-10-30T07:25:40.000Z</time>
      </trkpt>
      <trkpt lat="45.31425" lon="4.65027">
        <ele>640.59997558594</ele>
        <time>2019-10-30T07:25:41.000Z</time>
      </trkpt>
      <trkpt lat="45.31427" lon="4.65025">
        <ele>640.79998779297</ele>
        <time>2019-10-30T07:25:42.000Z</time>
      </trkpt>
      <trkpt lat="45.31428" lon="4.65023">
        <ele>640.79998779297</ele>
        <time>2019-10-30T07:25:43.000Z</time>
      </trkpt>
      <trkpt lat="45.3143" lon="4.65021">
        <ele>641.20001220703</ele>
        <time>2019-10-30T07:25:44.000Z</time>
      </trkpt>
      <trkpt lat="45.31432" lon="4.65018">
        <ele>641.20001220703</ele>
        <time>2019-10-30T07:25:45.000Z</time>
      </trkpt>
      <trkpt lat="45.31434" lon="4.65016">
        <ele>641.20001220703</ele>
        <time>2019-10-30T07:25:46.000Z</time>
      </trkpt>
      <trkpt lat="45.31436" lon="4.65014">
        <ele>641.40002441406</ele>
        <time>2019-10-30T07:25:47.000Z</time>
      </trkpt>
      <trkpt lat="45.31438" lon="4.65012">
        <ele>641.59997558594</ele>
        <time>2019-10-30T07:25:48.000Z</time>
      </trkpt>
      <trkpt lat="45.31439" lon="4.6501">
        <ele>642</ele>
        <time>2019-10-30T07:25:49.000Z</time>
      </trkpt>
      <trkpt lat="45.31441" lon="4.65008">
        <ele>642</ele>
        <time>2019-10-30T07:25:50.000Z</time>
      </trkpt>
      <trkpt lat="45.31443" lon="4.65006">
        <ele>642</ele>
        <time>2019-10-30T07:25:51.000Z</time>
      </trkpt>
      <trkpt lat="45.31445" lon="4.65004">
        <ele>642.20001220703</ele>
        <time>2019-10-30T07:25:52.000Z</time>
      </trkpt>
      <trkpt lat="45.31447" lon="4.65002">
        <ele>642.40002441406</ele>
        <time>2019-10-30T07:25:53.000Z</time>
      </trkpt>
      <trkpt lat="45.31449" lon="4.65">
        <ele>642.59997558594</ele>
        <time>2019-10-30T07:25:54.000Z</time>
      </trkpt>
      <trkpt lat="45.31451" lon="4.64999">
        <ele>642.79998779297</ele>
        <time>2019-10-30T07:25:55.000Z</time>
      </trkpt>
      <trkpt lat="45.31453" lon="4.64998">
        <ele>642.79998779297</ele>
        <time>2019-10-30T07:25:56.000Z</time>
      </trkpt>
      <trkpt lat="45.31455" lon="4.64997">
        <ele>643</ele>
        <time>2019-10-30T07:25:57.000Z</time>
      </trkpt>
      <trkpt lat="45.31457" lon="4.64997">
        <ele>643</ele>
        <time>2019-10-30T07:25:58.000Z</time>
      </trkpt>
      <trkpt lat="45.31459" lon="4.64997">
        <ele>643.20001220703</ele>
        <time>2019-10-30T07:25:59.000Z</time>
      </trkpt>
      <trkpt lat="45.31461" lon="4.64998">
        <ele>643.20001220703</ele>
        <time>2019-10-30T07:26:00.000Z</time>
      </trkpt>
      <trkpt lat="45.31462" lon="4.64999">
        <ele>643.40002441406</ele>
        <time>2019-10-30T07:26:01.000Z</time>
      </trkpt>
      <trkpt lat="45.31464" lon="4.65">
        <ele>643.59997558594</ele>
        <time>2019-10-30T07:26:02.000Z</time>
      </trkpt>
      <trkpt lat="45.31466" lon="4.65001">
        <ele>643.59997558594</ele>
        <time>2019-10-30T07:26:03.000Z</time>
      </trkpt>
      <trkpt lat="45.31468" lon="4.65002">
        <ele>643.59997558594</ele>
        <time>2019-10-30T07:26:04.000Z</time>
      </trkpt>
      <trkpt lat="45.3147" lon="4.65004">
        <ele>643.79998779297</ele>
        <time>2019-10-30T07:26:05.000Z</time>
      </trkpt>
      <trkpt lat="45.31472" lon="4.65005">
        <ele>644</ele>
        <time>2019-10-30T07:26:06.000Z</time>
      </trkpt>
      <trkpt lat="45.31474" lon="4.65007">
        <ele>644.40002441406</ele>
        <time>2019-10-30T07:26:07.000Z</time>
      </trkpt>
      <trkpt lat="45.31476" lon="4.65008">
        <ele>644.79998779297</ele>
        <time>2019-10-30T07:26:08.000Z</time>
      </trkpt>
      <trkpt lat="45.31477" lon="4.6501">
        <ele>645</ele>
        <time>2019-10-30T07:26:09.000Z</time>
      </trkpt>
      <trkpt lat="45.31479" lon="4.65011">
        <ele>645.20001220703</ele>
        <time>2019-10-30T07:26:10.000Z</time>
      </trkpt>
      <trkpt lat="45.31481" lon="4.65012">
        <ele>645.59997558594</ele>
        <time>2019-10-30T07:26:11.000Z</time>
      </trkpt>
      <trkpt lat="45.31483" lon="4.65014">
        <ele>645.59997558594</ele>
        <time>2019-10-30T07:26:12.000Z</time>
      </trkpt>
      <trkpt lat="45.31485" lon="4.65015">
        <ele>646</ele>
        <time>2019-10-30T07:26:13.000Z</time>
      </trkpt>
      <trkpt lat="45.31487" lon="4.65016">
        <ele>646.20001220703</ele>
        <time>2019-10-30T07:26:14.000Z</time>
      </trkpt>
      <trkpt lat="45.31489" lon="4.65017">
        <ele>646.20001220703</ele>
        <time>2019-10-30T07:26:15.000Z</time>
      </trkpt>
      <trkpt lat="45.31491" lon="4.65017">
        <ele>646.59997558594</ele>
        <time>2019-10-30T07:26:16.000Z</time>
      </trkpt>
      <trkpt lat="45.31493" lon="4.65017">
        <ele>646.59997558594</ele>
        <time>2019-10-30T07:26:17.000Z</time>
      </trkpt>
      <trkpt lat="45.31494" lon="4.65016">
        <ele>647</ele>
        <time>2019-10-30T07:26:18.000Z</time>
      </trkpt>
      <trkpt lat="45.31496" lon="4.65015">
        <ele>647.20001220703</ele>
        <time>2019-10-30T07:26:19.000Z</time>
      </trkpt>
      <trkpt lat="45.31498" lon="4.65013">
        <ele>647.40002441406</ele>
        <time>2019-10-30T07:26:20.000Z</time>
      </trkpt>
      <trkpt lat="45.31499" lon="4.6501">
        <ele>647.59997558594</ele>
        <time>2019-10-30T07:26:21.000Z</time>
      </trkpt>
      <trkpt lat="45.31502" lon="4.65004">
        <ele>647.79998779297</ele>
        <time>2019-10-30T07:26:23.000Z</time>
      </trkpt>
      <trkpt lat="45.31504" lon="4.65">
        <ele>648</ele>
        <time>2019-10-30T07:26:24.000Z</time>
      </trkpt>
      <trkpt lat="45.31509" lon="4.6499">
        <ele>648.20001220703</ele>
        <time>2019-10-30T07:26:27.000Z</time>
      </trkpt>
      <trkpt lat="45.3151" lon="4.64986">
        <ele>648.20001220703</ele>
        <time>2019-10-30T07:26:28.000Z</time>
      </trkpt>
      <trkpt lat="45.31518" lon="4.64973">
        <ele>648.20001220703</ele>
        <time>2019-10-30T07:26:32.000Z</time>
      </trkpt>
      <trkpt lat="45.3152" lon="4.64971">
        <ele>648.40002441406</ele>
        <time>2019-10-30T07:26:33.000Z</time>
      </trkpt>
      <trkpt lat="45.31522" lon="4.6497">
        <ele>648.20001220703</ele>
        <time>2019-10-30T07:26:34.000Z</time>
      </trkpt>
      <trkpt lat="45.31524" lon="4.6497">
        <ele>648.20001220703</ele>
        <time>2019-10-30T07:26:35.000Z</time>
      </trkpt>
      <trkpt lat="45.31526" lon="4.6497">
        <ele>648.20001220703</ele>
        <time>2019-10-30T07:26:36.000Z</time>
      </trkpt>
      <trkpt lat="45.31528" lon="4.64971">
        <ele>648.40002441406</ele>
        <time>2019-10-30T07:26:37.000Z</time>
      </trkpt>
      <trkpt lat="45.3153" lon="4.64972">
        <ele>648.20001220703</ele>
        <time>2019-10-30T07:26:38.000Z</time>
      </trkpt>
      <trkpt lat="45.31532" lon="4.64974">
        <ele>648.20001220703</ele>
        <time>2019-10-30T07:26:39.000Z</time>
      </trkpt>
      <trkpt lat="45.31534" lon="4.64975">
        <ele>648.20001220703</ele>
        <time>2019-10-30T07:26:40.000Z</time>
      </trkpt>
      <trkpt lat="45.31536" lon="4.64976">
        <ele>648.40002441406</ele>
        <time>2019-10-30T07:26:41.000Z</time>
      </trkpt>
      <trkpt lat="45.31538" lon="4.64977">
        <ele>648.40002441406</ele>
        <time>2019-10-30T07:26:42.000Z</time>
      </trkpt>
      <trkpt lat="45.3154" lon="4.64978">
        <ele>648.20001220703</ele>
        <time>2019-10-30T07:26:43.000Z</time>
      </trkpt>
      <trkpt lat="45.31542" lon="4.64979">
        <ele>648.59997558594</ele>
        <time>2019-10-30T07:26:44.000Z</time>
      </trkpt>
      <trkpt lat="45.31544" lon="4.64979">
        <ele>648.59997558594</ele>
        <time>2019-10-30T07:26:45.000Z</time>
      </trkpt>
      <trkpt lat="45.31546" lon="4.6498">
        <ele>648.79998779297</ele>
        <time>2019-10-30T07:26:46.000Z</time>
      </trkpt>
      <trkpt lat="45.31548" lon="4.6498">
        <ele>649</ele>
        <time>2019-10-30T07:26:47.000Z</time>
      </trkpt>
      <trkpt lat="45.31551" lon="4.6498">
        <ele>649</ele>
        <time>2019-10-30T07:26:48.000Z</time>
      </trkpt>
      <trkpt lat="45.31553" lon="4.6498">
        <ele>649.20001220703</ele>
        <time>2019-10-30T07:26:49.000Z</time>
      </trkpt>
      <trkpt lat="45.31555" lon="4.6498">
        <ele>649.40002441406</ele>
        <time>2019-10-30T07:26:50.000Z</time>
      </trkpt>
      <trkpt lat="45.31558" lon="4.6498">
        <ele>649.40002441406</ele>
        <time>2019-10-30T07:26:51.000Z</time>
      </trkpt>
      <trkpt lat="45.3156" lon="4.6498">
        <ele>649.59997558594</ele>
        <time>2019-10-30T07:26:52.000Z</time>
      </trkpt>
      <trkpt lat="45.31562" lon="4.6498">
        <ele>649.79998779297</ele>
        <time>2019-10-30T07:26:53.000Z</time>
      </trkpt>
      <trkpt lat="45.31564" lon="4.64979">
        <ele>649.79998779297</ele>
        <time>2019-10-30T07:26:54.000Z</time>
      </trkpt>
      <trkpt lat="45.31566" lon="4.64979">
        <ele>649.79998779297</ele>
        <time>2019-10-30T07:26:55.000Z</time>
      </trkpt>
      <trkpt lat="45.31568" lon="4.64979">
        <ele>650.20001220703</ele>
        <time>2019-10-30T07:26:56.000Z</time>
      </trkpt>
      <trkpt lat="45.3157" lon="4.64979">
        <ele>650.40002441406</ele>
        <time>2019-10-30T07:26:57.000Z</time>
      </trkpt>
      <trkpt lat="45.31573" lon="4.64979">
        <ele>650.59997558594</ele>
        <time>2019-10-30T07:26:58.000Z</time>
      </trkpt>
      <trkpt lat="45.31575" lon="4.64979">
        <ele>650.59997558594</ele>
        <time>2019-10-30T07:26:59.000Z</time>
      </trkpt>
      <trkpt lat="45.31577" lon="4.64979">
        <ele>651</ele>
        <time>2019-10-30T07:27:00.000Z</time>
      </trkpt>
      <trkpt lat="45.31579" lon="4.64979">
        <ele>651.20001220703</ele>
        <time>2019-10-30T07:27:01.000Z</time>
      </trkpt>
      <trkpt lat="45.31581" lon="4.64979">
        <ele>651.40002441406</ele>
        <time>2019-10-30T07:27:02.000Z</time>
      </trkpt>
      <trkpt lat="45.31584" lon="4.64979">
        <ele>651.59997558594</ele>
        <time>2019-10-30T07:27:03.000Z</time>
      </trkpt>
      <trkpt lat="45.31586" lon="4.64978">
        <ele>651.79998779297</ele>
        <time>2019-10-30T07:27:04.000Z</time>
      </trkpt>
      <trkpt lat="45.31588" lon="4.64978">
        <ele>652</ele>
        <time>2019-10-30T07:27:05.000Z</time>
      </trkpt>
      <trkpt lat="45.3159" lon="4.64978">
        <ele>652.20001220703</ele>
        <time>2019-10-30T07:27:06.000Z</time>
      </trkpt>
      <trkpt lat="45.31592" lon="4.64978">
        <ele>652.40002441406</ele>
        <time>2019-10-30T07:27:07.000Z</time>
      </trkpt>
      <trkpt lat="45.31594" lon="4.64977">
        <ele>652.40002441406</ele>
        <time>2019-10-30T07:27:08.000Z</time>
      </trkpt>
      <trkpt lat="45.31596" lon="4.64977">
        <ele>652.59997558594</ele>
        <time>2019-10-30T07:27:09.000Z</time>
      </trkpt>
      <trkpt lat="45.31598" lon="4.64977">
        <ele>653</ele>
        <time>2019-10-30T07:27:10.000Z</time>
      </trkpt>
      <trkpt lat="45.316" lon="4.64977">
        <ele>653</ele>
        <time>2019-10-30T07:27:11.000Z</time>
      </trkpt>
      <trkpt lat="45.31602" lon="4.64977">
        <ele>653.20001220703</ele>
        <time>2019-10-30T07:27:12.000Z</time>
      </trkpt>
      <trkpt lat="45.31604" lon="4.64976">
        <ele>653.40002441406</ele>
        <time>2019-10-30T07:27:13.000Z</time>
      </trkpt>
      <trkpt lat="45.31606" lon="4.64976">
        <ele>653.59997558594</ele>
        <time>2019-10-30T07:27:14.000Z</time>
      </trkpt>
      <trkpt lat="45.31607" lon="4.64975">
        <ele>653.79998779297</ele>
        <time>2019-10-30T07:27:15.000Z</time>
      </trkpt>
      <trkpt lat="45.31609" lon="4.64974">
        <ele>653.79998779297</ele>
        <time>2019-10-30T07:27:16.000Z</time>
      </trkpt>
      <trkpt lat="45.31611" lon="4.64972">
        <ele>653.79998779297</ele>
        <time>2019-10-30T07:27:17.000Z</time>
      </trkpt>
      <trkpt lat="45.31613" lon="4.6497">
        <ele>654</ele>
        <time>2019-10-30T07:27:18.000Z</time>
      </trkpt>
      <trkpt lat="45.31614" lon="4.64968">
        <ele>654.20001220703</ele>
        <time>2019-10-30T07:27:19.000Z</time>
      </trkpt>
      <trkpt lat="45.31616" lon="4.64965">
        <ele>654.40002441406</ele>
        <time>2019-10-30T07:27:20.000Z</time>
      </trkpt>
      <trkpt lat="45.31617" lon="4.64962">
        <ele>654.40002441406</ele>
        <time>2019-10-30T07:27:21.000Z</time>
      </trkpt>
      <trkpt lat="45.31618" lon="4.6496">
        <ele>654.59997558594</ele>
        <time>2019-10-30T07:27:22.000Z</time>
      </trkpt>
      <trkpt lat="45.31624" lon="4.64947">
        <ele>655</ele>
        <time>2019-10-30T07:27:26.000Z</time>
      </trkpt>
      <trkpt lat="45.31626" lon="4.64944">
        <ele>655</ele>
        <time>2019-10-30T07:27:27.000Z</time>
      </trkpt>
      <trkpt lat="45.31632" lon="4.64934">
        <ele>655</ele>
        <time>2019-10-30T07:27:30.000Z</time>
      </trkpt>
      <trkpt lat="45.31634" lon="4.64932">
        <ele>655</ele>
        <time>2019-10-30T07:27:31.000Z</time>
      </trkpt>
      <trkpt lat="45.31636" lon="4.64931">
        <ele>654.79998779297</ele>
        <time>2019-10-30T07:27:32.000Z</time>
      </trkpt>
      <trkpt lat="45.31638" lon="4.6493">
        <ele>655</ele>
        <time>2019-10-30T07:27:33.000Z</time>
      </trkpt>
      <trkpt lat="45.3164" lon="4.64931">
        <ele>655</ele>
        <time>2019-10-30T07:27:34.000Z</time>
      </trkpt>
      <trkpt lat="45.31642" lon="4.64932">
        <ele>655.20001220703</ele>
        <time>2019-10-30T07:27:35.000Z</time>
      </trkpt>
      <trkpt lat="45.31646" lon="4.64934">
        <ele>655</ele>
        <time>2019-10-30T07:27:37.000Z</time>
      </trkpt>
      <trkpt lat="45.31648" lon="4.64936">
        <ele>655.20001220703</ele>
        <time>2019-10-30T07:27:38.000Z</time>
      </trkpt>
      <trkpt lat="45.31652" lon="4.64939">
        <ele>655.20001220703</ele>
        <time>2019-10-30T07:27:40.000Z</time>
      </trkpt>
      <trkpt lat="45.31654" lon="4.6494">
        <ele>655.20001220703</ele>
        <time>2019-10-30T07:27:41.000Z</time>
      </trkpt>
      <trkpt lat="45.31658" lon="4.64944">
        <ele>655.40002441406</ele>
        <time>2019-10-30T07:27:43.000Z</time>
      </trkpt>
      <trkpt lat="45.3166" lon="4.64945">
        <ele>655.20001220703</ele>
        <time>2019-10-30T07:27:44.000Z</time>
      </trkpt>
      <trkpt lat="45.31662" lon="4.64947">
        <ele>655.40002441406</ele>
        <time>2019-10-30T07:27:45.000Z</time>
      </trkpt>
      <trkpt lat="45.31664" lon="4.64948">
        <ele>655.40002441406</ele>
        <time>2019-10-30T07:27:46.000Z</time>
      </trkpt>
      <trkpt lat="45.31666" lon="4.6495">
        <ele>655.40002441406</ele>
        <time>2019-10-30T07:27:47.000Z</time>
      </trkpt>
      <trkpt lat="45.31668" lon="4.64952">
        <ele>655.59997558594</ele>
        <time>2019-10-30T07:27:48.000Z</time>
      </trkpt>
      <trkpt lat="45.3167" lon="4.64953">
        <ele>655.59997558594</ele>
        <time>2019-10-30T07:27:49.000Z</time>
      </trkpt>
      <trkpt lat="45.31672" lon="4.64954">
        <ele>655.59997558594</ele>
        <time>2019-10-30T07:27:50.000Z</time>
      </trkpt>
      <trkpt lat="45.31674" lon="4.64955">
        <ele>655.59997558594</ele>
        <time>2019-10-30T07:27:51.000Z</time>
      </trkpt>
      <trkpt lat="45.31676" lon="4.64956">
        <ele>655.79998779297</ele>
        <time>2019-10-30T07:27:52.000Z</time>
      </trkpt>
      <trkpt lat="45.31678" lon="4.64957">
        <ele>655.79998779297</ele>
        <time>2019-10-30T07:27:53.000Z</time>
      </trkpt>
      <trkpt lat="45.3168" lon="4.64956">
        <ele>656</ele>
        <time>2019-10-30T07:27:54.000Z</time>
      </trkpt>
      <trkpt lat="45.31682" lon="4.64955">
        <ele>656</ele>
        <time>2019-10-30T07:27:55.000Z</time>
      </trkpt>
      <trkpt lat="45.31685" lon="4.64953">
        <ele>656.20001220703</ele>
        <time>2019-10-30T07:27:56.000Z</time>
      </trkpt>
      <trkpt lat="45.31687" lon="4.6495">
        <ele>656.40002441406</ele>
        <time>2019-10-30T07:27:57.000Z</time>
      </trkpt>
      <trkpt lat="45.31688" lon="4.64948">
        <ele>656.40002441406</ele>
        <time>2019-10-30T07:27:58.000Z</time>
      </trkpt>
      <trkpt lat="45.3169" lon="4.64944">
        <ele>656.59997558594</ele>
        <time>2019-10-30T07:27:59.000Z</time>
      </trkpt>
      <trkpt lat="45.31697" lon="4.64927">
        <ele>657</ele>
        <time>2019-10-30T07:28:04.000Z</time>
      </trkpt>
      <trkpt lat="45.31699" lon="4.64923">
        <ele>656.79998779297</ele>
        <time>2019-10-30T07:28:05.000Z</time>
      </trkpt>
      <trkpt lat="45.317" lon="4.6492">
        <ele>656.79998779297</ele>
        <time>2019-10-30T07:28:06.000Z</time>
      </trkpt>
      <trkpt lat="45.31701" lon="4.64917">
        <ele>656.79998779297</ele>
        <time>2019-10-30T07:28:07.000Z</time>
      </trkpt>
      <trkpt lat="45.31708" lon="4.64904">
        <ele>657</ele>
        <time>2019-10-30T07:28:11.000Z</time>
      </trkpt>
      <trkpt lat="45.31711" lon="4.64898">
        <ele>657</ele>
        <time>2019-10-30T07:28:13.000Z</time>
      </trkpt>
      <trkpt lat="45.31713" lon="4.64895">
        <ele>657</ele>
        <time>2019-10-30T07:28:14.000Z</time>
      </trkpt>
      <trkpt lat="45.31715" lon="4.64892">
        <ele>657.20001220703</ele>
        <time>2019-10-30T07:28:15.000Z</time>
      </trkpt>
      <trkpt lat="45.31717" lon="4.64889">
        <ele>657.20001220703</ele>
        <time>2019-10-30T07:28:16.000Z</time>
      </trkpt>
      <trkpt lat="45.31719" lon="4.64887">
        <ele>657.20001220703</ele>
        <time>2019-10-30T07:28:17.000Z</time>
      </trkpt>
      <trkpt lat="45.31721" lon="4.64884">
        <ele>657.40002441406</ele>
        <time>2019-10-30T07:28:18.000Z</time>
      </trkpt>
      <trkpt lat="45.31725" lon="4.64879">
        <ele>657.59997558594</ele>
        <time>2019-10-30T07:28:20.000Z</time>
      </trkpt>
      <trkpt lat="45.31727" lon="4.64877">
        <ele>657.59997558594</ele>
        <time>2019-10-30T07:28:21.000Z</time>
      </trkpt>
      <trkpt lat="45.31733" lon="4.64869">
        <ele>658</ele>
        <time>2019-10-30T07:28:24.000Z</time>
      </trkpt>
      <trkpt lat="45.31735" lon="4.64867">
        <ele>658.20001220703</ele>
        <time>2019-10-30T07:28:25.000Z</time>
      </trkpt>
      <trkpt lat="45.31737" lon="4.64865">
        <ele>658.20001220703</ele>
        <time>2019-10-30T07:28:26.000Z</time>
      </trkpt>
      <trkpt lat="45.31739" lon="4.64863">
        <ele>658.20001220703</ele>
        <time>2019-10-30T07:28:27.000Z</time>
      </trkpt>
      <trkpt lat="45.31747" lon="4.64857">
        <ele>658.20001220703</ele>
        <time>2019-10-30T07:28:30.000Z</time>
      </trkpt>
      <trkpt lat="45.31759" lon="4.6485">
        <ele>658.40002441406</ele>
        <time>2019-10-30T07:28:34.000Z</time>
      </trkpt>
      <trkpt lat="45.3177" lon="4.64844">
        <ele>658.20001220703</ele>
        <time>2019-10-30T07:28:37.000Z</time>
      </trkpt>
      <trkpt lat="45.31773" lon="4.64843">
        <ele>657.79998779297</ele>
        <time>2019-10-30T07:28:38.000Z</time>
      </trkpt>
      <trkpt lat="45.31777" lon="4.64841">
        <ele>657.79998779297</ele>
        <time>2019-10-30T07:28:39.000Z</time>
      </trkpt>
      <trkpt lat="45.3178" lon="4.6484">
        <ele>657.59997558594</ele>
        <time>2019-10-30T07:28:40.000Z</time>
      </trkpt>
      <trkpt lat="45.31783" lon="4.64839">
        <ele>657.59997558594</ele>
        <time>2019-10-30T07:28:41.000Z</time>
      </trkpt>
      <trkpt lat="45.31786" lon="4.64838">
        <ele>657.59997558594</ele>
        <time>2019-10-30T07:28:42.000Z</time>
      </trkpt>
      <trkpt lat="45.31789" lon="4.64837">
        <ele>657.40002441406</ele>
        <time>2019-10-30T07:28:43.000Z</time>
      </trkpt>
      <trkpt lat="45.31795" lon="4.64834">
        <ele>656.59997558594</ele>
        <time>2019-10-30T07:28:45.000Z</time>
      </trkpt>
      <trkpt lat="45.31798" lon="4.64833">
        <ele>656.59997558594</ele>
        <time>2019-10-30T07:28:46.000Z</time>
      </trkpt>
      <trkpt lat="45.31801" lon="4.64832">
        <ele>656.40002441406</ele>
        <time>2019-10-30T07:28:47.000Z</time>
      </trkpt>
      <trkpt lat="45.31803" lon="4.64831">
        <ele>656.40002441406</ele>
        <time>2019-10-30T07:28:48.000Z</time>
      </trkpt>
      <trkpt lat="45.31806" lon="4.6483">
        <ele>656.20001220703</ele>
        <time>2019-10-30T07:28:49.000Z</time>
      </trkpt>
      <trkpt lat="45.31812" lon="4.64828">
        <ele>656.20001220703</ele>
        <time>2019-10-30T07:28:51.000Z</time>
      </trkpt>
      <trkpt lat="45.31815" lon="4.64827">
        <ele>656.40002441406</ele>
        <time>2019-10-30T07:28:52.000Z</time>
      </trkpt>
      <trkpt lat="45.31818" lon="4.64826">
        <ele>656.40002441406</ele>
        <time>2019-10-30T07:28:53.000Z</time>
      </trkpt>
      <trkpt lat="45.3182" lon="4.64826">
        <ele>656.20001220703</ele>
        <time>2019-10-30T07:28:54.000Z</time>
      </trkpt>
      <trkpt lat="45.31823" lon="4.64825">
        <ele>656.40002441406</ele>
        <time>2019-10-30T07:28:55.000Z</time>
      </trkpt>
      <trkpt lat="45.31825" lon="4.64824">
        <ele>656.20001220703</ele>
        <time>2019-10-30T07:28:56.000Z</time>
      </trkpt>
      <trkpt lat="45.31827" lon="4.64824">
        <ele>656.40002441406</ele>
        <time>2019-10-30T07:28:57.000Z</time>
      </trkpt>
      <trkpt lat="45.31829" lon="4.64823">
        <ele>656.40002441406</ele>
        <time>2019-10-30T07:28:58.000Z</time>
      </trkpt>
      <trkpt lat="45.31838" lon="4.64821">
        <ele>656.59997558594</ele>
        <time>2019-10-30T07:29:02.000Z</time>
      </trkpt>
      <trkpt lat="45.31842" lon="4.64819">
        <ele>656.59997558594</ele>
        <time>2019-10-30T07:29:04.000Z</time>
      </trkpt>
      <trkpt lat="45.31862" lon="4.64815">
        <ele>656.79998779297</ele>
        <time>2019-10-30T07:29:12.000Z</time>
      </trkpt>
      <trkpt lat="45.31865" lon="4.64814">
        <ele>656.79998779297</ele>
        <time>2019-10-30T07:29:13.000Z</time>
      </trkpt>
      <trkpt lat="45.31867" lon="4.64814">
        <ele>656.79998779297</ele>
        <time>2019-10-30T07:29:14.000Z</time>
      </trkpt>
      <trkpt lat="45.31869" lon="4.64814">
        <ele>656.79998779297</ele>
        <time>2019-10-30T07:29:15.000Z</time>
      </trkpt>
      <trkpt lat="45.31871" lon="4.64815">
        <ele>656.79998779297</ele>
        <time>2019-10-30T07:29:16.000Z</time>
      </trkpt>
      <trkpt lat="45.31873" lon="4.64815">
        <ele>657</ele>
        <time>2019-10-30T07:29:17.000Z</time>
      </trkpt>
      <trkpt lat="45.31875" lon="4.64817">
        <ele>657</ele>
        <time>2019-10-30T07:29:18.000Z</time>
      </trkpt>
      <trkpt lat="45.31876" lon="4.64818">
        <ele>657</ele>
        <time>2019-10-30T07:29:19.000Z</time>
      </trkpt>
      <trkpt lat="45.31877" lon="4.6482">
        <ele>657</ele>
        <time>2019-10-30T07:29:20.000Z</time>
      </trkpt>
      <trkpt lat="45.31878" lon="4.6482">
        <ele>657</ele>
        <time>2019-10-30T07:29:21.000Z</time>
      </trkpt>
      <trkpt lat="45.31879" lon="4.6482">
        <ele>657</ele>
        <time>2019-10-30T07:29:22.000Z</time>
      </trkpt>
      <trkpt lat="45.31881" lon="4.64819">
        <ele>657.20001220703</ele>
        <time>2019-10-30T07:29:23.000Z</time>
      </trkpt>
      <trkpt lat="45.31882" lon="4.64816">
        <ele>657.20001220703</ele>
        <time>2019-10-30T07:29:24.000Z</time>
      </trkpt>
      <trkpt lat="45.31883" lon="4.64813">
        <ele>657.40002441406</ele>
        <time>2019-10-30T07:29:25.000Z</time>
      </trkpt>
      <trkpt lat="45.31883" lon="4.64809">
        <ele>657.40002441406</ele>
        <time>2019-10-30T07:29:26.000Z</time>
      </trkpt>
      <trkpt lat="45.31884" lon="4.64806">
        <ele>657.40002441406</ele>
        <time>2019-10-30T07:29:27.000Z</time>
      </trkpt>
      <trkpt lat="45.31884" lon="4.64798">
        <ele>657.40002441406</ele>
        <time>2019-10-30T07:29:29.000Z</time>
      </trkpt>
      <trkpt lat="45.31884" lon="4.64793">
        <ele>657.40002441406</ele>
        <time>2019-10-30T07:29:30.000Z</time>
      </trkpt>
      <trkpt lat="45.31886" lon="4.64785">
        <ele>657.40002441406</ele>
        <time>2019-10-30T07:29:32.000Z</time>
      </trkpt>
      <trkpt lat="45.31888" lon="4.6478">
        <ele>657.20001220703</ele>
        <time>2019-10-30T07:29:33.000Z</time>
      </trkpt>
      <trkpt lat="45.31892" lon="4.64772">
        <ele>657.20001220703</ele>
        <time>2019-10-30T07:29:35.000Z</time>
      </trkpt>
      <trkpt lat="45.31898" lon="4.64759">
        <ele>656.79998779297</ele>
        <time>2019-10-30T07:29:38.000Z</time>
      </trkpt>
      <trkpt lat="45.319" lon="4.64755">
        <ele>656.59997558594</ele>
        <time>2019-10-30T07:29:39.000Z</time>
      </trkpt>
      <trkpt lat="45.31903" lon="4.64752">
        <ele>656.40002441406</ele>
        <time>2019-10-30T07:29:40.000Z</time>
      </trkpt>
      <trkpt lat="45.31908" lon="4.64746">
        <ele>655.79998779297</ele>
        <time>2019-10-30T07:29:42.000Z</time>
      </trkpt>
      <trkpt lat="45.31911" lon="4.64743">
        <ele>655.59997558594</ele>
        <time>2019-10-30T07:29:43.000Z</time>
      </trkpt>
      <trkpt lat="45.31917" lon="4.64737">
        <ele>655.40002441406</ele>
        <time>2019-10-30T07:29:45.000Z</time>
      </trkpt>
      <trkpt lat="45.3192" lon="4.64734">
        <ele>654.79998779297</ele>
        <time>2019-10-30T07:29:46.000Z</time>
      </trkpt>
      <trkpt lat="45.31935" lon="4.64718">
        <ele>653.79998779297</ele>
        <time>2019-10-30T07:29:50.000Z</time>
      </trkpt>
      <trkpt lat="45.31942" lon="4.6471">
        <ele>653.79998779297</ele>
        <time>2019-10-30T07:29:52.000Z</time>
      </trkpt>
      <trkpt lat="45.3195" lon="4.64701">
        <ele>653.59997558594</ele>
        <time>2019-10-30T07:29:54.000Z</time>
      </trkpt>
      <trkpt lat="45.31971" lon="4.64678">
        <ele>652</ele>
        <time>2019-10-30T07:29:59.000Z</time>
      </trkpt>
      <trkpt lat="45.31975" lon="4.64674">
        <ele>651.59997558594</ele>
        <time>2019-10-30T07:30:00.000Z</time>
      </trkpt>
      <trkpt lat="45.31979" lon="4.6467">
        <ele>651.40002441406</ele>
        <time>2019-10-30T07:30:01.000Z</time>
      </trkpt>
      <trkpt lat="45.31983" lon="4.64666">
        <ele>651.40002441406</ele>
        <time>2019-10-30T07:30:02.000Z</time>
      </trkpt>
      <trkpt lat="45.31987" lon="4.64663">
        <ele>651</ele>
        <time>2019-10-30T07:30:03.000Z</time>
      </trkpt>
      <trkpt lat="45.31991" lon="4.64659">
        <ele>650.59997558594</ele>
        <time>2019-10-30T07:30:04.000Z</time>
      </trkpt>
      <trkpt lat="45.31995" lon="4.64656">
        <ele>650</ele>
        <time>2019-10-30T07:30:05.000Z</time>
      </trkpt>
      <trkpt lat="45.31999" lon="4.64653">
        <ele>649.79998779297</ele>
        <time>2019-10-30T07:30:06.000Z</time>
      </trkpt>
      <trkpt lat="45.32003" lon="4.64652">
        <ele>649.59997558594</ele>
        <time>2019-10-30T07:30:07.000Z</time>
      </trkpt>
      <trkpt lat="45.32007" lon="4.6465">
        <ele>649.40002441406</ele>
        <time>2019-10-30T07:30:08.000Z</time>
      </trkpt>
      <trkpt lat="45.32011" lon="4.64649">
        <ele>649</ele>
        <time>2019-10-30T07:30:09.000Z</time>
      </trkpt>
      <trkpt lat="45.32014" lon="4.64648">
        <ele>648.79998779297</ele>
        <time>2019-10-30T07:30:10.000Z</time>
      </trkpt>
      <trkpt lat="45.32016" lon="4.64647">
        <ele>648.40002441406</ele>
        <time>2019-10-30T07:30:11.000Z</time>
      </trkpt>
      <trkpt lat="45.32019" lon="4.64645">
        <ele>648.20001220703</ele>
        <time>2019-10-30T07:30:12.000Z</time>
      </trkpt>
      <trkpt lat="45.32021" lon="4.64644">
        <ele>648</ele>
        <time>2019-10-30T07:30:13.000Z</time>
      </trkpt>
      <trkpt lat="45.32023" lon="4.64643">
        <ele>647.79998779297</ele>
        <time>2019-10-30T07:30:14.000Z</time>
      </trkpt>
      <trkpt lat="45.32025" lon="4.64642">
        <ele>647.59997558594</ele>
        <time>2019-10-30T07:30:15.000Z</time>
      </trkpt>
      <trkpt lat="45.32027" lon="4.6464">
        <ele>647.40002441406</ele>
        <time>2019-10-30T07:30:16.000Z</time>
      </trkpt>
      <trkpt lat="45.32032" lon="4.64637">
        <ele>647.40002441406</ele>
        <time>2019-10-30T07:30:18.000Z</time>
      </trkpt>
      <trkpt lat="45.32035" lon="4.64636">
        <ele>647.40002441406</ele>
        <time>2019-10-30T07:30:19.000Z</time>
      </trkpt>
      <trkpt lat="45.32041" lon="4.64633">
        <ele>647.20001220703</ele>
        <time>2019-10-30T07:30:21.000Z</time>
      </trkpt>
      <trkpt lat="45.32043" lon="4.64631">
        <ele>647.20001220703</ele>
        <time>2019-10-30T07:30:22.000Z</time>
      </trkpt>
      <trkpt lat="45.32045" lon="4.64628">
        <ele>647.20001220703</ele>
        <time>2019-10-30T07:30:23.000Z</time>
      </trkpt>
      <trkpt lat="45.32045" lon="4.64626">
        <ele>647</ele>
        <time>2019-10-30T07:30:24.000Z</time>
      </trkpt>
      <trkpt lat="45.32044" lon="4.64622">
        <ele>647</ele>
        <time>2019-10-30T07:30:25.000Z</time>
      </trkpt>
      <trkpt lat="45.32043" lon="4.6462">
        <ele>647</ele>
        <time>2019-10-30T07:30:26.000Z</time>
      </trkpt>
      <trkpt lat="45.3204" lon="4.64617">
        <ele>647</ele>
        <time>2019-10-30T07:30:27.000Z</time>
      </trkpt>
      <trkpt lat="45.3203" lon="4.64609">
        <ele>645.79998779297</ele>
        <time>2019-10-30T07:30:30.000Z</time>
      </trkpt>
      <trkpt lat="45.32027" lon="4.64606">
        <ele>645.59997558594</ele>
        <time>2019-10-30T07:30:31.000Z</time>
      </trkpt>
      <trkpt lat="45.32019" lon="4.646">
        <ele>645.20001220703</ele>
        <time>2019-10-30T07:30:33.000Z</time>
      </trkpt>
      <trkpt lat="45.32016" lon="4.64596">
        <ele>645</ele>
        <time>2019-10-30T07:30:34.000Z</time>
      </trkpt>
      <trkpt lat="45.32012" lon="4.64591">
        <ele>644.59997558594</ele>
        <time>2019-10-30T07:30:35.000Z</time>
      </trkpt>
      <trkpt lat="45.32009" lon="4.64586">
        <ele>644.20001220703</ele>
        <time>2019-10-30T07:30:36.000Z</time>
      </trkpt>
      <trkpt lat="45.32006" lon="4.6458">
        <ele>643.79998779297</ele>
        <time>2019-10-30T07:30:37.000Z</time>
      </trkpt>
      <trkpt lat="45.32003" lon="4.64572">
        <ele>643.20001220703</ele>
        <time>2019-10-30T07:30:38.000Z</time>
      </trkpt>
      <trkpt lat="45.32001" lon="4.64565">
        <ele>642.59997558594</ele>
        <time>2019-10-30T07:30:39.000Z</time>
      </trkpt>
      <trkpt lat="45.31996" lon="4.64552">
        <ele>641.20001220703</ele>
        <time>2019-10-30T07:30:41.000Z</time>
      </trkpt>
      <trkpt lat="45.31993" lon="4.64547">
        <ele>640.79998779297</ele>
        <time>2019-10-30T07:30:42.000Z</time>
      </trkpt>
      <trkpt lat="45.31992" lon="4.64543">
        <ele>640.40002441406</ele>
        <time>2019-10-30T07:30:43.000Z</time>
      </trkpt>
      <trkpt lat="45.3199" lon="4.6454">
        <ele>638.59997558594</ele>
        <time>2019-10-30T07:30:44.000Z</time>
      </trkpt>
      <trkpt lat="45.31989" lon="4.64537">
        <ele>637.79998779297</ele>
        <time>2019-10-30T07:30:45.000Z</time>
      </trkpt>
      <trkpt lat="45.31988" lon="4.64534">
        <ele>637</ele>
        <time>2019-10-30T07:30:46.000Z</time>
      </trkpt>
      <trkpt lat="45.31987" lon="4.64532">
        <ele>636.20001220703</ele>
        <time>2019-10-30T07:30:47.000Z</time>
      </trkpt>
      <trkpt lat="45.31985" lon="4.64529">
        <ele>635.79998779297</ele>
        <time>2019-10-30T07:30:48.000Z</time>
      </trkpt>
      <trkpt lat="45.31978" lon="4.64516">
        <ele>634.20001220703</ele>
        <time>2019-10-30T07:30:51.000Z</time>
      </trkpt>
      <trkpt lat="45.31972" lon="4.64505">
        <ele>633.79998779297</ele>
        <time>2019-10-30T07:30:53.000Z</time>
      </trkpt>
      <trkpt lat="45.31967" lon="4.64494">
        <ele>633.40002441406</ele>
        <time>2019-10-30T07:30:55.000Z</time>
      </trkpt>
      <trkpt lat="45.31964" lon="4.64489">
        <ele>633.20001220703</ele>
        <time>2019-10-30T07:30:56.000Z</time>
      </trkpt>
      <trkpt lat="45.31961" lon="4.64484">
        <ele>632.79998779297</ele>
        <time>2019-10-30T07:30:57.000Z</time>
      </trkpt>
      <trkpt lat="45.31959" lon="4.6448">
        <ele>633</ele>
        <time>2019-10-30T07:30:58.000Z</time>
      </trkpt>
      <trkpt lat="45.31956" lon="4.64476">
        <ele>632.20001220703</ele>
        <time>2019-10-30T07:30:59.000Z</time>
      </trkpt>
      <trkpt lat="45.31954" lon="4.64472">
        <ele>631.59997558594</ele>
        <time>2019-10-30T07:31:00.000Z</time>
      </trkpt>
      <trkpt lat="45.31952" lon="4.64468">
        <ele>631.20001220703</ele>
        <time>2019-10-30T07:31:01.000Z</time>
      </trkpt>
      <trkpt lat="45.3195" lon="4.64465">
        <ele>630.40002441406</ele>
        <time>2019-10-30T07:31:02.000Z</time>
      </trkpt>
      <trkpt lat="45.31947" lon="4.64462">
        <ele>630</ele>
        <time>2019-10-30T07:31:03.000Z</time>
      </trkpt>
      <trkpt lat="45.31945" lon="4.64457">
        <ele>629.40002441406</ele>
        <time>2019-10-30T07:31:04.000Z</time>
      </trkpt>
      <trkpt lat="45.31943" lon="4.64453">
        <ele>629</ele>
        <time>2019-10-30T07:31:05.000Z</time>
      </trkpt>
      <trkpt lat="45.31941" lon="4.64448">
        <ele>628.59997558594</ele>
        <time>2019-10-30T07:31:06.000Z</time>
      </trkpt>
      <trkpt lat="45.31934" lon="4.64432">
        <ele>627.79998779297</ele>
        <time>2019-10-30T07:31:09.000Z</time>
      </trkpt>
      <trkpt lat="45.31932" lon="4.64427">
        <ele>627.59997558594</ele>
        <time>2019-10-30T07:31:10.000Z</time>
      </trkpt>
      <trkpt lat="45.3193" lon="4.64423">
        <ele>627.40002441406</ele>
        <time>2019-10-30T07:31:11.000Z</time>
      </trkpt>
      <trkpt lat="45.31928" lon="4.64418">
        <ele>626.79998779297</ele>
        <time>2019-10-30T07:31:12.000Z</time>
      </trkpt>
      <trkpt lat="45.31927" lon="4.64414">
        <ele>626.40002441406</ele>
        <time>2019-10-30T07:31:13.000Z</time>
      </trkpt>
      <trkpt lat="45.31924" lon="4.64409">
        <ele>626</ele>
        <time>2019-10-30T07:31:14.000Z</time>
      </trkpt>
      <trkpt lat="45.31917" lon="4.64396">
        <ele>625.40002441406</ele>
        <time>2019-10-30T07:31:17.000Z</time>
      </trkpt>
      <trkpt lat="45.31915" lon="4.64392">
        <ele>625</ele>
        <time>2019-10-30T07:31:18.000Z</time>
      </trkpt>
      <trkpt lat="45.31913" lon="4.64387">
        <ele>624.59997558594</ele>
        <time>2019-10-30T07:31:19.000Z</time>
      </trkpt>
      <trkpt lat="45.31911" lon="4.64383">
        <ele>624</ele>
        <time>2019-10-30T07:31:20.000Z</time>
      </trkpt>
      <trkpt lat="45.31909" lon="4.64378">
        <ele>623.79998779297</ele>
        <time>2019-10-30T07:31:21.000Z</time>
      </trkpt>
      <trkpt lat="45.31907" lon="4.64374">
        <ele>623.59997558594</ele>
        <time>2019-10-30T07:31:22.000Z</time>
      </trkpt>
      <trkpt lat="45.31905" lon="4.6437">
        <ele>623.20001220703</ele>
        <time>2019-10-30T07:31:23.000Z</time>
      </trkpt>
      <trkpt lat="45.31894" lon="4.64348">
        <ele>622.59997558594</ele>
        <time>2019-10-30T07:31:28.000Z</time>
      </trkpt>
      <trkpt lat="45.31894" lon="4.64344">
        <ele>622.40002441406</ele>
        <time>2019-10-30T07:31:29.000Z</time>
      </trkpt>
      <trkpt lat="45.31894" lon="4.64342">
        <ele>622.40002441406</ele>
        <time>2019-10-30T07:31:30.000Z</time>
      </trkpt>
      <trkpt lat="45.31894" lon="4.64341">
        <ele>622</ele>
        <time>2019-10-30T07:31:31.000Z</time>
      </trkpt>
      <trkpt lat="45.31894" lon="4.6434">
        <ele>622</ele>
        <time>2019-10-30T07:31:32.000Z</time>
      </trkpt>
      <trkpt lat="45.31893" lon="4.6434">
        <ele>622</ele>
        <time>2019-10-30T07:31:33.000Z</time>
      </trkpt>
      <trkpt lat="45.31894" lon="4.64339">
        <ele>621.79998779297</ele>
        <time>2019-10-30T07:31:41.000Z</time>
      </trkpt>
      <trkpt lat="45.31895" lon="4.64339">
        <ele>621.79998779297</ele>
        <time>2019-10-30T07:31:42.000Z</time>
      </trkpt>
      <trkpt lat="45.31897" lon="4.64338">
        <ele>621.79998779297</ele>
        <time>2019-10-30T07:31:43.000Z</time>
      </trkpt>
      <trkpt lat="45.31898" lon="4.64338">
        <ele>621.79998779297</ele>
        <time>2019-10-30T07:31:44.000Z</time>
      </trkpt>
      <trkpt lat="45.31899" lon="4.64337">
        <ele>621.79998779297</ele>
        <time>2019-10-30T07:31:45.000Z</time>
      </trkpt>
      <trkpt lat="45.31907" lon="4.64333">
        <ele>621.79998779297</ele>
        <time>2019-10-30T07:31:49.000Z</time>
      </trkpt>
      <trkpt lat="45.31909" lon="4.64332">
        <ele>621.79998779297</ele>
        <time>2019-10-30T07:31:50.000Z</time>
      </trkpt>
      <trkpt lat="45.31911" lon="4.64331">
        <ele>621.79998779297</ele>
        <time>2019-10-30T07:31:51.000Z</time>
      </trkpt>
      <trkpt lat="45.31913" lon="4.6433">
        <ele>621.79998779297</ele>
        <time>2019-10-30T07:31:52.000Z</time>
      </trkpt>
      <trkpt lat="45.31914" lon="4.64329">
        <ele>621.59997558594</ele>
        <time>2019-10-30T07:31:53.000Z</time>
      </trkpt>
      <trkpt lat="45.31916" lon="4.64329">
        <ele>621.59997558594</ele>
        <time>2019-10-30T07:31:54.000Z</time>
      </trkpt>
      <trkpt lat="45.31918" lon="4.64328">
        <ele>621.59997558594</ele>
        <time>2019-10-30T07:31:55.000Z</time>
      </trkpt>
      <trkpt lat="45.3192" lon="4.64327">
        <ele>621.59997558594</ele>
        <time>2019-10-30T07:31:56.000Z</time>
      </trkpt>
      <trkpt lat="45.31929" lon="4.64323">
        <ele>620.79998779297</ele>
        <time>2019-10-30T07:32:00.000Z</time>
      </trkpt>
      <trkpt lat="45.31932" lon="4.64321">
        <ele>621</ele>
        <time>2019-10-30T07:32:01.000Z</time>
      </trkpt>
      <trkpt lat="45.31935" lon="4.6432">
        <ele>620.79998779297</ele>
        <time>2019-10-30T07:32:02.000Z</time>
      </trkpt>
      <trkpt lat="45.31938" lon="4.64318">
        <ele>620.79998779297</ele>
        <time>2019-10-30T07:32:03.000Z</time>
      </trkpt>
      <trkpt lat="45.31948" lon="4.64315">
        <ele>620.59997558594</ele>
        <time>2019-10-30T07:32:06.000Z</time>
      </trkpt>
      <trkpt lat="45.31951" lon="4.64315">
        <ele>620.59997558594</ele>
        <time>2019-10-30T07:32:07.000Z</time>
      </trkpt>
      <trkpt lat="45.31955" lon="4.64316">
        <ele>620.40002441406</ele>
        <time>2019-10-30T07:32:08.000Z</time>
      </trkpt>
      <trkpt lat="45.31958" lon="4.64316">
        <ele>620.59997558594</ele>
        <time>2019-10-30T07:32:09.000Z</time>
      </trkpt>
      <trkpt lat="45.31969" lon="4.64319">
        <ele>619.79998779297</ele>
        <time>2019-10-30T07:32:12.000Z</time>
      </trkpt>
      <trkpt lat="45.3198" lon="4.64324">
        <ele>619.20001220703</ele>
        <time>2019-10-30T07:32:15.000Z</time>
      </trkpt>
      <trkpt lat="45.31983" lon="4.64326">
        <ele>618.79998779297</ele>
        <time>2019-10-30T07:32:16.000Z</time>
      </trkpt>
      <trkpt lat="45.31986" lon="4.64327">
        <ele>618.79998779297</ele>
        <time>2019-10-30T07:32:17.000Z</time>
      </trkpt>
      <trkpt lat="45.31989" lon="4.64329">
        <ele>618.59997558594</ele>
        <time>2019-10-30T07:32:18.000Z</time>
      </trkpt>
      <trkpt lat="45.31992" lon="4.64331">
        <ele>618.59997558594</ele>
        <time>2019-10-30T07:32:19.000Z</time>
      </trkpt>
      <trkpt lat="45.31995" lon="4.64332">
        <ele>618.20001220703</ele>
        <time>2019-10-30T07:32:20.000Z</time>
      </trkpt>
      <trkpt lat="45.32004" lon="4.64338">
        <ele>617.79998779297</ele>
        <time>2019-10-30T07:32:23.000Z</time>
      </trkpt>
      <trkpt lat="45.32011" lon="4.64342">
        <ele>617.79998779297</ele>
        <time>2019-10-30T07:32:25.000Z</time>
      </trkpt>
      <trkpt lat="45.32022" lon="4.64348">
        <ele>617.59997558594</ele>
        <time>2019-10-30T07:32:28.000Z</time>
      </trkpt>
      <trkpt lat="45.32032" lon="4.64353">
        <ele>617.40002441406</ele>
        <time>2019-10-30T07:32:30.000Z</time>
      </trkpt>
      <trkpt lat="45.32044" lon="4.64359">
        <ele>617</ele>
        <time>2019-10-30T07:32:32.000Z</time>
      </trkpt>
      <trkpt lat="45.32051" lon="4.64361">
        <ele>617</ele>
        <time>2019-10-30T07:32:33.000Z</time>
      </trkpt>
      <trkpt lat="45.32057" lon="4.64364">
        <ele>616.79998779297</ele>
        <time>2019-10-30T07:32:34.000Z</time>
      </trkpt>
      <trkpt lat="45.32071" lon="4.6437">
        <ele>616.40002441406</ele>
        <time>2019-10-30T07:32:36.000Z</time>
      </trkpt>
      <trkpt lat="45.32077" lon="4.64373">
        <ele>616.20001220703</ele>
        <time>2019-10-30T07:32:37.000Z</time>
      </trkpt>
      <trkpt lat="45.32083" lon="4.64376">
        <ele>616</ele>
        <time>2019-10-30T07:32:38.000Z</time>
      </trkpt>
      <trkpt lat="45.32088" lon="4.64379">
        <ele>615.79998779297</ele>
        <time>2019-10-30T07:32:39.000Z</time>
      </trkpt>
      <trkpt lat="45.32092" lon="4.64383">
        <ele>614.79998779297</ele>
        <time>2019-10-30T07:32:40.000Z</time>
      </trkpt>
      <trkpt lat="45.32095" lon="4.64387">
        <ele>614</ele>
        <time>2019-10-30T07:32:41.000Z</time>
      </trkpt>
      <trkpt lat="45.32096" lon="4.64391">
        <ele>613.20001220703</ele>
        <time>2019-10-30T07:32:42.000Z</time>
      </trkpt>
      <trkpt lat="45.32097" lon="4.64396">
        <ele>612.79998779297</ele>
        <time>2019-10-30T07:32:43.000Z</time>
      </trkpt>
      <trkpt lat="45.32099" lon="4.64401">
        <ele>612.40002441406</ele>
        <time>2019-10-30T07:32:44.000Z</time>
      </trkpt>
      <trkpt lat="45.321" lon="4.64407">
        <ele>612</ele>
        <time>2019-10-30T07:32:45.000Z</time>
      </trkpt>
      <trkpt lat="45.32104" lon="4.64424">
        <ele>611.40002441406</ele>
        <time>2019-10-30T07:32:47.000Z</time>
      </trkpt>
      <trkpt lat="45.32109" lon="4.64442">
        <ele>611.40002441406</ele>
        <time>2019-10-30T07:32:49.000Z</time>
      </trkpt>
      <trkpt lat="45.32112" lon="4.64449">
        <ele>611.20001220703</ele>
        <time>2019-10-30T07:32:50.000Z</time>
      </trkpt>
      <trkpt lat="45.32115" lon="4.64455">
        <ele>611</ele>
        <time>2019-10-30T07:32:51.000Z</time>
      </trkpt>
      <trkpt lat="45.32118" lon="4.64459">
        <ele>611</ele>
        <time>2019-10-30T07:32:52.000Z</time>
      </trkpt>
      <trkpt lat="45.32121" lon="4.64462">
        <ele>610.40002441406</ele>
        <time>2019-10-30T07:32:53.000Z</time>
      </trkpt>
      <trkpt lat="45.32123" lon="4.64463">
        <ele>608.79998779297</ele>
        <time>2019-10-30T07:32:54.000Z</time>
      </trkpt>
      <trkpt lat="45.32126" lon="4.64462">
        <ele>607.79998779297</ele>
        <time>2019-10-30T07:32:55.000Z</time>
      </trkpt>
      <trkpt lat="45.32128" lon="4.6446">
        <ele>607.20001220703</ele>
        <time>2019-10-30T07:32:56.000Z</time>
      </trkpt>
      <trkpt lat="45.32129" lon="4.64458">
        <ele>607</ele>
        <time>2019-10-30T07:32:57.000Z</time>
      </trkpt>
      <trkpt lat="45.32131" lon="4.64456">
        <ele>606.79998779297</ele>
        <time>2019-10-30T07:32:58.000Z</time>
      </trkpt>
      <trkpt lat="45.32133" lon="4.64454">
        <ele>606.79998779297</ele>
        <time>2019-10-30T07:32:59.000Z</time>
      </trkpt>
      <trkpt lat="45.32135" lon="4.64452">
        <ele>606.59997558594</ele>
        <time>2019-10-30T07:33:00.000Z</time>
      </trkpt>
      <trkpt lat="45.32137" lon="4.6445">
        <ele>606.59997558594</ele>
        <time>2019-10-30T07:33:01.000Z</time>
      </trkpt>
      <trkpt lat="45.3214" lon="4.64449">
        <ele>606.40002441406</ele>
        <time>2019-10-30T07:33:02.000Z</time>
      </trkpt>
      <trkpt lat="45.32142" lon="4.64448">
        <ele>606.59997558594</ele>
        <time>2019-10-30T07:33:03.000Z</time>
      </trkpt>
      <trkpt lat="45.32147" lon="4.64446">
        <ele>606.40002441406</ele>
        <time>2019-10-30T07:33:05.000Z</time>
      </trkpt>
      <trkpt lat="45.32148" lon="4.64446">
        <ele>606.40002441406</ele>
        <time>2019-10-30T07:33:06.000Z</time>
      </trkpt>
      <trkpt lat="45.32149" lon="4.64446">
        <ele>606.20001220703</ele>
        <time>2019-10-30T07:33:07.000Z</time>
      </trkpt>
      <trkpt lat="45.32149" lon="4.64446">
        <ele>606.40002441406</ele>
        <time>2019-10-30T07:33:08.000Z</time>
      </trkpt>
      <trkpt lat="45.32154" lon="4.64443">
        <ele>606.40002441406</ele>
        <time>2019-10-30T07:33:13.000Z</time>
      </trkpt>
      <trkpt lat="45.32157" lon="4.64442">
        <ele>606.40002441406</ele>
        <time>2019-10-30T07:33:14.000Z</time>
      </trkpt>
      <trkpt lat="45.3216" lon="4.6444">
        <ele>606.40002441406</ele>
        <time>2019-10-30T07:33:15.000Z</time>
      </trkpt>
      <trkpt lat="45.32163" lon="4.64437">
        <ele>606.40002441406</ele>
        <time>2019-10-30T07:33:16.000Z</time>
      </trkpt>
      <trkpt lat="45.32167" lon="4.64435">
        <ele>606.40002441406</ele>
        <time>2019-10-30T07:33:17.000Z</time>
      </trkpt>
      <trkpt lat="45.32171" lon="4.64432">
        <ele>606.40002441406</ele>
        <time>2019-10-30T07:33:18.000Z</time>
      </trkpt>
      <trkpt lat="45.32176" lon="4.64428">
        <ele>606.20001220703</ele>
        <time>2019-10-30T07:33:19.000Z</time>
      </trkpt>
      <trkpt lat="45.32189" lon="4.64418">
        <ele>606</ele>
        <time>2019-10-30T07:33:21.000Z</time>
      </trkpt>
      <trkpt lat="45.32195" lon="4.64414">
        <ele>605.79998779297</ele>
        <time>2019-10-30T07:33:22.000Z</time>
      </trkpt>
      <trkpt lat="45.3222" lon="4.64391">
        <ele>605</ele>
        <time>2019-10-30T07:33:26.000Z</time>
      </trkpt>
      <trkpt lat="45.32227" lon="4.64385">
        <ele>604.40002441406</ele>
        <time>2019-10-30T07:33:27.000Z</time>
      </trkpt>
      <trkpt lat="45.32233" lon="4.64379">
        <ele>603.40002441406</ele>
        <time>2019-10-30T07:33:28.000Z</time>
      </trkpt>
      <trkpt lat="45.32238" lon="4.64373">
        <ele>602.40002441406</ele>
        <time>2019-10-30T07:33:29.000Z</time>
      </trkpt>
      <trkpt lat="45.32244" lon="4.64368">
        <ele>601.59997558594</ele>
        <time>2019-10-30T07:33:30.000Z</time>
      </trkpt>
      <trkpt lat="45.3225" lon="4.64364">
        <ele>600.79998779297</ele>
        <time>2019-10-30T07:33:31.000Z</time>
      </trkpt>
      <trkpt lat="45.32255" lon="4.64359">
        <ele>599.40002441406</ele>
        <time>2019-10-30T07:33:32.000Z</time>
      </trkpt>
      <trkpt lat="45.32259" lon="4.64355">
        <ele>598.79998779297</ele>
        <time>2019-10-30T07:33:33.000Z</time>
      </trkpt>
      <trkpt lat="45.32264" lon="4.6435">
        <ele>598.20001220703</ele>
        <time>2019-10-30T07:33:34.000Z</time>
      </trkpt>
      <trkpt lat="45.32269" lon="4.64346">
        <ele>597.20001220703</ele>
        <time>2019-10-30T07:33:35.000Z</time>
      </trkpt>
      <trkpt lat="45.32273" lon="4.64342">
        <ele>596.40002441406</ele>
        <time>2019-10-30T07:33:36.000Z</time>
      </trkpt>
      <trkpt lat="45.32277" lon="4.64339">
        <ele>595.20001220703</ele>
        <time>2019-10-30T07:33:37.000Z</time>
      </trkpt>
      <trkpt lat="45.32282" lon="4.64335">
        <ele>594.59997558594</ele>
        <time>2019-10-30T07:33:38.000Z</time>
      </trkpt>
      <trkpt lat="45.32286" lon="4.64332">
        <ele>593.79998779297</ele>
        <time>2019-10-30T07:33:39.000Z</time>
      </trkpt>
      <trkpt lat="45.32291" lon="4.64329">
        <ele>593</ele>
        <time>2019-10-30T07:33:40.000Z</time>
      </trkpt>
      <trkpt lat="45.32296" lon="4.64326">
        <ele>592.59997558594</ele>
        <time>2019-10-30T07:33:41.000Z</time>
      </trkpt>
      <trkpt lat="45.32301" lon="4.64323">
        <ele>591.59997558594</ele>
        <time>2019-10-30T07:33:42.000Z</time>
      </trkpt>
      <trkpt lat="45.32307" lon="4.64321">
        <ele>591</ele>
        <time>2019-10-30T07:33:43.000Z</time>
      </trkpt>
      <trkpt lat="45.32318" lon="4.64317">
        <ele>589</ele>
        <time>2019-10-30T07:33:45.000Z</time>
      </trkpt>
      <trkpt lat="45.32324" lon="4.64314">
        <ele>588.20001220703</ele>
        <time>2019-10-30T07:33:46.000Z</time>
      </trkpt>
      <trkpt lat="45.3233" lon="4.64311">
        <ele>587.59997558594</ele>
        <time>2019-10-30T07:33:47.000Z</time>
      </trkpt>
      <trkpt lat="45.32336" lon="4.64309">
        <ele>587</ele>
        <time>2019-10-30T07:33:48.000Z</time>
      </trkpt>
      <trkpt lat="45.32341" lon="4.64306">
        <ele>586</ele>
        <time>2019-10-30T07:33:49.000Z</time>
      </trkpt>
      <trkpt lat="45.32345" lon="4.64303">
        <ele>585.40002441406</ele>
        <time>2019-10-30T07:33:50.000Z</time>
      </trkpt>
      <trkpt lat="45.32349" lon="4.64301">
        <ele>585.40002441406</ele>
        <time>2019-10-30T07:33:51.000Z</time>
      </trkpt>
      <trkpt lat="45.32354" lon="4.64299">
        <ele>584.79998779297</ele>
        <time>2019-10-30T07:33:52.000Z</time>
      </trkpt>
      <trkpt lat="45.32357" lon="4.64297">
        <ele>584</ele>
        <time>2019-10-30T07:33:53.000Z</time>
      </trkpt>
      <trkpt lat="45.32361" lon="4.64296">
        <ele>583.40002441406</ele>
        <time>2019-10-30T07:33:54.000Z</time>
      </trkpt>
      <trkpt lat="45.32365" lon="4.64295">
        <ele>583.20001220703</ele>
        <time>2019-10-30T07:33:55.000Z</time>
      </trkpt>
      <trkpt lat="45.32369" lon="4.64294">
        <ele>582.20001220703</ele>
        <time>2019-10-30T07:33:56.000Z</time>
      </trkpt>
      <trkpt lat="45.32373" lon="4.64293">
        <ele>581.20001220703</ele>
        <time>2019-10-30T07:33:57.000Z</time>
      </trkpt>
      <trkpt lat="45.32377" lon="4.64291">
        <ele>580.59997558594</ele>
        <time>2019-10-30T07:33:58.000Z</time>
      </trkpt>
      <trkpt lat="45.32381" lon="4.64289">
        <ele>579.79998779297</ele>
        <time>2019-10-30T07:33:59.000Z</time>
      </trkpt>
      <trkpt lat="45.32386" lon="4.64287">
        <ele>579.40002441406</ele>
        <time>2019-10-30T07:34:00.000Z</time>
      </trkpt>
      <trkpt lat="45.32391" lon="4.64286">
        <ele>578.40002441406</ele>
        <time>2019-10-30T07:34:01.000Z</time>
      </trkpt>
      <trkpt lat="45.32397" lon="4.64285">
        <ele>577.79998779297</ele>
        <time>2019-10-30T07:34:02.000Z</time>
      </trkpt>
      <trkpt lat="45.32402" lon="4.64284">
        <ele>577.40002441406</ele>
        <time>2019-10-30T07:34:03.000Z</time>
      </trkpt>
      <trkpt lat="45.32407" lon="4.64283">
        <ele>577.20001220703</ele>
        <time>2019-10-30T07:34:04.000Z</time>
      </trkpt>
      <trkpt lat="45.32424" lon="4.6428">
        <ele>574.59997558594</ele>
        <time>2019-10-30T07:34:07.000Z</time>
      </trkpt>
      <trkpt lat="45.32436" lon="4.6428">
        <ele>573.40002441406</ele>
        <time>2019-10-30T07:34:09.000Z</time>
      </trkpt>
      <trkpt lat="45.32442" lon="4.64279">
        <ele>572</ele>
        <time>2019-10-30T07:34:10.000Z</time>
      </trkpt>
      <trkpt lat="45.32447" lon="4.64279">
        <ele>570.59997558594</ele>
        <time>2019-10-30T07:34:11.000Z</time>
      </trkpt>
      <trkpt lat="45.32452" lon="4.64279">
        <ele>569.79998779297</ele>
        <time>2019-10-30T07:34:12.000Z</time>
      </trkpt>
      <trkpt lat="45.32457" lon="4.64279">
        <ele>568.40002441406</ele>
        <time>2019-10-30T07:34:13.000Z</time>
      </trkpt>
      <trkpt lat="45.32462" lon="4.64279">
        <ele>567.79998779297</ele>
        <time>2019-10-30T07:34:14.000Z</time>
      </trkpt>
      <trkpt lat="45.32466" lon="4.64279">
        <ele>566.79998779297</ele>
        <time>2019-10-30T07:34:15.000Z</time>
      </trkpt>
      <trkpt lat="45.3247" lon="4.64279">
        <ele>566</ele>
        <time>2019-10-30T07:34:16.000Z</time>
      </trkpt>
      <trkpt lat="45.32473" lon="4.64279">
        <ele>566</ele>
        <time>2019-10-30T07:34:17.000Z</time>
      </trkpt>
      <trkpt lat="45.32476" lon="4.64279">
        <ele>565.59997558594</ele>
        <time>2019-10-30T07:34:18.000Z</time>
      </trkpt>
      <trkpt lat="45.32478" lon="4.64277">
        <ele>565.40002441406</ele>
        <time>2019-10-30T07:34:19.000Z</time>
      </trkpt>
      <trkpt lat="45.32479" lon="4.64275">
        <ele>564.20001220703</ele>
        <time>2019-10-30T07:34:20.000Z</time>
      </trkpt>
      <trkpt lat="45.3248" lon="4.64273">
        <ele>563.20001220703</ele>
        <time>2019-10-30T07:34:21.000Z</time>
      </trkpt>
      <trkpt lat="45.3248" lon="4.64269">
        <ele>562.59997558594</ele>
        <time>2019-10-30T07:34:22.000Z</time>
      </trkpt>
      <trkpt lat="45.32479" lon="4.6426">
        <ele>561.79998779297</ele>
        <time>2019-10-30T07:34:24.000Z</time>
      </trkpt>
      <trkpt lat="45.32478" lon="4.64251">
        <ele>560.40002441406</ele>
        <time>2019-10-30T07:34:26.000Z</time>
      </trkpt>
      <trkpt lat="45.32477" lon="4.64247">
        <ele>559.59997558594</ele>
        <time>2019-10-30T07:34:27.000Z</time>
      </trkpt>
      <trkpt lat="45.32476" lon="4.64241">
        <ele>559.20001220703</ele>
        <time>2019-10-30T07:34:28.000Z</time>
      </trkpt>
      <trkpt lat="45.32475" lon="4.6423">
        <ele>558.59997558594</ele>
        <time>2019-10-30T07:34:30.000Z</time>
      </trkpt>
      <trkpt lat="45.32476" lon="4.64224">
        <ele>558</ele>
        <time>2019-10-30T07:34:31.000Z</time>
      </trkpt>
      <trkpt lat="45.32477" lon="4.64218">
        <ele>557.79998779297</ele>
        <time>2019-10-30T07:34:32.000Z</time>
      </trkpt>
      <trkpt lat="45.32478" lon="4.64212">
        <ele>556.79998779297</ele>
        <time>2019-10-30T07:34:33.000Z</time>
      </trkpt>
      <trkpt lat="45.32478" lon="4.64205">
        <ele>556.40002441406</ele>
        <time>2019-10-30T07:34:34.000Z</time>
      </trkpt>
      <trkpt lat="45.32478" lon="4.64199">
        <ele>556.20001220703</ele>
        <time>2019-10-30T07:34:35.000Z</time>
      </trkpt>
      <trkpt lat="45.32478" lon="4.64192">
        <ele>555.79998779297</ele>
        <time>2019-10-30T07:34:36.000Z</time>
      </trkpt>
      <trkpt lat="45.32478" lon="4.64185">
        <ele>555.20001220703</ele>
        <time>2019-10-30T07:34:37.000Z</time>
      </trkpt>
      <trkpt lat="45.32477" lon="4.6418">
        <ele>554.59997558594</ele>
        <time>2019-10-30T07:34:38.000Z</time>
      </trkpt>
      <trkpt lat="45.32475" lon="4.64175">
        <ele>553.79998779297</ele>
        <time>2019-10-30T07:34:39.000Z</time>
      </trkpt>
      <trkpt lat="45.32473" lon="4.64171">
        <ele>552.79998779297</ele>
        <time>2019-10-30T07:34:40.000Z</time>
      </trkpt>
      <trkpt lat="45.3247" lon="4.64168">
        <ele>551.59997558594</ele>
        <time>2019-10-30T07:34:41.000Z</time>
      </trkpt>
      <trkpt lat="45.32467" lon="4.64166">
        <ele>551</ele>
        <time>2019-10-30T07:34:42.000Z</time>
      </trkpt>
      <trkpt lat="45.32464" lon="4.64165">
        <ele>551</ele>
        <time>2019-10-30T07:34:43.000Z</time>
      </trkpt>
      <trkpt lat="45.3246" lon="4.64163">
        <ele>550.20001220703</ele>
        <time>2019-10-30T07:34:44.000Z</time>
      </trkpt>
      <trkpt lat="45.32458" lon="4.64161">
        <ele>549.59997558594</ele>
        <time>2019-10-30T07:34:45.000Z</time>
      </trkpt>
      <trkpt lat="45.32455" lon="4.6416">
        <ele>548.79998779297</ele>
        <time>2019-10-30T07:34:46.000Z</time>
      </trkpt>
      <trkpt lat="45.32452" lon="4.64159">
        <ele>548.40002441406</ele>
        <time>2019-10-30T07:34:47.000Z</time>
      </trkpt>
      <trkpt lat="45.3245" lon="4.64157">
        <ele>548</ele>
        <time>2019-10-30T07:34:48.000Z</time>
      </trkpt>
      <trkpt lat="45.32447" lon="4.64156">
        <ele>547.79998779297</ele>
        <time>2019-10-30T07:34:49.000Z</time>
      </trkpt>
      <trkpt lat="45.32444" lon="4.64155">
        <ele>547.59997558594</ele>
        <time>2019-10-30T07:34:50.000Z</time>
      </trkpt>
      <trkpt lat="45.32439" lon="4.64152">
        <ele>547.40002441406</ele>
        <time>2019-10-30T07:34:52.000Z</time>
      </trkpt>
      <trkpt lat="45.32434" lon="4.64149">
        <ele>547.59997558594</ele>
        <time>2019-10-30T07:34:54.000Z</time>
      </trkpt>
      <trkpt lat="45.32431" lon="4.64148">
        <ele>547.40002441406</ele>
        <time>2019-10-30T07:34:55.000Z</time>
      </trkpt>
      <trkpt lat="45.32425" lon="4.64145">
        <ele>547.40002441406</ele>
        <time>2019-10-30T07:34:57.000Z</time>
      </trkpt>
      <trkpt lat="45.32406" lon="4.64133">
        <ele>547.40002441406</ele>
        <time>2019-10-30T07:35:03.000Z</time>
      </trkpt>
      <trkpt lat="45.32395" lon="4.64126">
        <ele>547.40002441406</ele>
        <time>2019-10-30T07:35:06.000Z</time>
      </trkpt>
      <trkpt lat="45.32388" lon="4.64122">
        <ele>547.20001220703</ele>
        <time>2019-10-30T07:35:08.000Z</time>
      </trkpt>
      <trkpt lat="45.32385" lon="4.6412">
        <ele>547.20001220703</ele>
        <time>2019-10-30T07:35:09.000Z</time>
      </trkpt>
      <trkpt lat="45.32381" lon="4.64118">
        <ele>547.20001220703</ele>
        <time>2019-10-30T07:35:10.000Z</time>
      </trkpt>
      <trkpt lat="45.32373" lon="4.64114">
        <ele>546.79998779297</ele>
        <time>2019-10-30T07:35:12.000Z</time>
      </trkpt>
      <trkpt lat="45.32368" lon="4.64112">
        <ele>546.59997558594</ele>
        <time>2019-10-30T07:35:13.000Z</time>
      </trkpt>
      <trkpt lat="45.32362" lon="4.6411">
        <ele>546.59997558594</ele>
        <time>2019-10-30T07:35:14.000Z</time>
      </trkpt>
      <trkpt lat="45.32355" lon="4.6411">
        <ele>546.20001220703</ele>
        <time>2019-10-30T07:35:15.000Z</time>
      </trkpt>
      <trkpt lat="45.32348" lon="4.6411">
        <ele>545.79998779297</ele>
        <time>2019-10-30T07:35:16.000Z</time>
      </trkpt>
      <trkpt lat="45.32335" lon="4.64113">
        <ele>545.40002441406</ele>
        <time>2019-10-30T07:35:18.000Z</time>
      </trkpt>
      <trkpt lat="45.32329" lon="4.64116">
        <ele>545</ele>
        <time>2019-10-30T07:35:19.000Z</time>
      </trkpt>
      <trkpt lat="45.32324" lon="4.64119">
        <ele>544.59997558594</ele>
        <time>2019-10-30T07:35:20.000Z</time>
      </trkpt>
      <trkpt lat="45.32319" lon="4.64123">
        <ele>544.20001220703</ele>
        <time>2019-10-30T07:35:21.000Z</time>
      </trkpt>
      <trkpt lat="45.32315" lon="4.64127">
        <ele>543.40002441406</ele>
        <time>2019-10-30T07:35:22.000Z</time>
      </trkpt>
      <trkpt lat="45.32312" lon="4.64129">
        <ele>543</ele>
        <time>2019-10-30T07:35:23.000Z</time>
      </trkpt>
      <trkpt lat="45.3231" lon="4.6413">
        <ele>541.59997558594</ele>
        <time>2019-10-30T07:35:24.000Z</time>
      </trkpt>
      <trkpt lat="45.32308" lon="4.6413">
        <ele>540.40002441406</ele>
        <time>2019-10-30T07:35:25.000Z</time>
      </trkpt>
      <trkpt lat="45.32307" lon="4.64129">
        <ele>539.40002441406</ele>
        <time>2019-10-30T07:35:26.000Z</time>
      </trkpt>
      <trkpt lat="45.32306" lon="4.64127">
        <ele>538.59997558594</ele>
        <time>2019-10-30T07:35:27.000Z</time>
      </trkpt>
      <trkpt lat="45.32305" lon="4.64125">
        <ele>538</ele>
        <time>2019-10-30T07:35:28.000Z</time>
      </trkpt>
      <trkpt lat="45.32306" lon="4.64123">
        <ele>537.20001220703</ele>
        <time>2019-10-30T07:35:29.000Z</time>
      </trkpt>
      <trkpt lat="45.32306" lon="4.64121">
        <ele>537</ele>
        <time>2019-10-30T07:35:30.000Z</time>
      </trkpt>
      <trkpt lat="45.32308" lon="4.64118">
        <ele>536.59997558594</ele>
        <time>2019-10-30T07:35:31.000Z</time>
      </trkpt>
      <trkpt lat="45.32308" lon="4.64115">
        <ele>536.40002441406</ele>
        <time>2019-10-30T07:35:32.000Z</time>
      </trkpt>
      <trkpt lat="45.32311" lon="4.64109">
        <ele>536.40002441406</ele>
        <time>2019-10-30T07:35:34.000Z</time>
      </trkpt>
      <trkpt lat="45.32312" lon="4.64106">
        <ele>536.40002441406</ele>
        <time>2019-10-30T07:35:35.000Z</time>
      </trkpt>
      <trkpt lat="45.32313" lon="4.64103">
        <ele>536.20001220703</ele>
        <time>2019-10-30T07:35:36.000Z</time>
      </trkpt>
      <trkpt lat="45.32319" lon="4.64089">
        <ele>536</ele>
        <time>2019-10-30T07:35:40.000Z</time>
      </trkpt>
      <trkpt lat="45.3232" lon="4.64085">
        <ele>536.20001220703</ele>
        <time>2019-10-30T07:35:41.000Z</time>
      </trkpt>
      <trkpt lat="45.32322" lon="4.64081">
        <ele>536.20001220703</ele>
        <time>2019-10-30T07:35:42.000Z</time>
      </trkpt>
      <trkpt lat="45.32324" lon="4.64077">
        <ele>536.20001220703</ele>
        <time>2019-10-30T07:35:43.000Z</time>
      </trkpt>
      <trkpt lat="45.32326" lon="4.64073">
        <ele>536</ele>
        <time>2019-10-30T07:35:44.000Z</time>
      </trkpt>
      <trkpt lat="45.32328" lon="4.64069">
        <ele>536</ele>
        <time>2019-10-30T07:35:45.000Z</time>
      </trkpt>
      <trkpt lat="45.32329" lon="4.64066">
        <ele>535.79998779297</ele>
        <time>2019-10-30T07:35:46.000Z</time>
      </trkpt>
      <trkpt lat="45.3233" lon="4.64063">
        <ele>535.59997558594</ele>
        <time>2019-10-30T07:35:47.000Z</time>
      </trkpt>
      <trkpt lat="45.32332" lon="4.6406">
        <ele>535.40002441406</ele>
        <time>2019-10-30T07:35:48.000Z</time>
      </trkpt>
      <trkpt lat="45.32333" lon="4.64057">
        <ele>535.40002441406</ele>
        <time>2019-10-30T07:35:49.000Z</time>
      </trkpt>
      <trkpt lat="45.32335" lon="4.64054">
        <ele>535.20001220703</ele>
        <time>2019-10-30T07:35:50.000Z</time>
      </trkpt>
      <trkpt lat="45.32337" lon="4.64051">
        <ele>535.20001220703</ele>
        <time>2019-10-30T07:35:51.000Z</time>
      </trkpt>
      <trkpt lat="45.32339" lon="4.64047">
        <ele>535.20001220703</ele>
        <time>2019-10-30T07:35:52.000Z</time>
      </trkpt>
      <trkpt lat="45.32341" lon="4.64044">
        <ele>535</ele>
        <time>2019-10-30T07:35:53.000Z</time>
      </trkpt>
      <trkpt lat="45.32347" lon="4.64033">
        <ele>535.20001220703</ele>
        <time>2019-10-30T07:35:56.000Z</time>
      </trkpt>
      <trkpt lat="45.32349" lon="4.64024">
        <ele>535</ele>
        <time>2019-10-30T07:35:58.000Z</time>
      </trkpt>
      <trkpt lat="45.3235" lon="4.64019">
        <ele>535.20001220703</ele>
        <time>2019-10-30T07:35:59.000Z</time>
      </trkpt>
      <trkpt lat="45.3235" lon="4.64014">
        <ele>535</ele>
        <time>2019-10-30T07:36:00.000Z</time>
      </trkpt>
      <trkpt lat="45.32351" lon="4.6401">
        <ele>535</ele>
        <time>2019-10-30T07:36:01.000Z</time>
      </trkpt>
      <trkpt lat="45.32351" lon="4.63994">
        <ele>535.20001220703</ele>
        <time>2019-10-30T07:36:04.000Z</time>
      </trkpt>
      <trkpt lat="45.32351" lon="4.6399">
        <ele>535.20001220703</ele>
        <time>2019-10-30T07:36:05.000Z</time>
      </trkpt>
      <trkpt lat="45.32351" lon="4.63985">
        <ele>535.20001220703</ele>
        <time>2019-10-30T07:36:06.000Z</time>
      </trkpt>
      <trkpt lat="45.32351" lon="4.6397">
        <ele>535.20001220703</ele>
        <time>2019-10-30T07:36:09.000Z</time>
      </trkpt>
      <trkpt lat="45.3235" lon="4.6396">
        <ele>535.20001220703</ele>
        <time>2019-10-30T07:36:11.000Z</time>
      </trkpt>
      <trkpt lat="45.3235" lon="4.63956">
        <ele>535.20001220703</ele>
        <time>2019-10-30T07:36:12.000Z</time>
      </trkpt>
      <trkpt lat="45.32349" lon="4.63951">
        <ele>535.40002441406</ele>
        <time>2019-10-30T07:36:13.000Z</time>
      </trkpt>
      <trkpt lat="45.32349" lon="4.63946">
        <ele>535.40002441406</ele>
        <time>2019-10-30T07:36:14.000Z</time>
      </trkpt>
      <trkpt lat="45.32348" lon="4.63915">
        <ele>535.79998779297</ele>
        <time>2019-10-30T07:36:20.000Z</time>
      </trkpt>
      <trkpt lat="45.32348" lon="4.63909">
        <ele>535.79998779297</ele>
        <time>2019-10-30T07:36:21.000Z</time>
      </trkpt>
      <trkpt lat="45.32343" lon="4.63868">
        <ele>536</ele>
        <time>2019-10-30T07:36:29.000Z</time>
      </trkpt>
      <trkpt lat="45.32342" lon="4.63863">
        <ele>536.20001220703</ele>
        <time>2019-10-30T07:36:30.000Z</time>
      </trkpt>
      <trkpt lat="45.32339" lon="4.63842">
        <ele>536.40002441406</ele>
        <time>2019-10-30T07:36:34.000Z</time>
      </trkpt>
      <trkpt lat="45.32338" lon="4.63837">
        <ele>536.40002441406</ele>
        <time>2019-10-30T07:36:35.000Z</time>
      </trkpt>
      <trkpt lat="45.32337" lon="4.63833">
        <ele>536.40002441406</ele>
        <time>2019-10-30T07:36:36.000Z</time>
      </trkpt>
      <trkpt lat="45.32336" lon="4.63828">
        <ele>536.40002441406</ele>
        <time>2019-10-30T07:36:37.000Z</time>
      </trkpt>
      <trkpt lat="45.32334" lon="4.63823">
        <ele>536.40002441406</ele>
        <time>2019-10-30T07:36:38.000Z</time>
      </trkpt>
      <trkpt lat="45.32333" lon="4.63818">
        <ele>536.40002441406</ele>
        <time>2019-10-30T07:36:39.000Z</time>
      </trkpt>
      <trkpt lat="45.32332" lon="4.63814">
        <ele>536.40002441406</ele>
        <time>2019-10-30T07:36:40.000Z</time>
      </trkpt>
      <trkpt lat="45.32331" lon="4.63809">
        <ele>536.40002441406</ele>
        <time>2019-10-30T07:36:41.000Z</time>
      </trkpt>
      <trkpt lat="45.3233" lon="4.63805">
        <ele>536.59997558594</ele>
        <time>2019-10-30T07:36:42.000Z</time>
      </trkpt>
      <trkpt lat="45.32329" lon="4.63801">
        <ele>536.59997558594</ele>
        <time>2019-10-30T07:36:43.000Z</time>
      </trkpt>
      <trkpt lat="45.32328" lon="4.63797">
        <ele>536.79998779297</ele>
        <time>2019-10-30T07:36:44.000Z</time>
      </trkpt>
      <trkpt lat="45.32327" lon="4.63793">
        <ele>536.79998779297</ele>
        <time>2019-10-30T07:36:45.000Z</time>
      </trkpt>
      <trkpt lat="45.32326" lon="4.63788">
        <ele>537</ele>
        <time>2019-10-30T07:36:46.000Z</time>
      </trkpt>
      <trkpt lat="45.32324" lon="4.63784">
        <ele>537</ele>
        <time>2019-10-30T07:36:47.000Z</time>
      </trkpt>
      <trkpt lat="45.32319" lon="4.63761">
        <ele>537.40002441406</ele>
        <time>2019-10-30T07:36:52.000Z</time>
      </trkpt>
      <trkpt lat="45.32313" lon="4.6374">
        <ele>537.59997558594</ele>
        <time>2019-10-30T07:36:56.000Z</time>
      </trkpt>
      <trkpt lat="45.3231" lon="4.6373">
        <ele>537.59997558594</ele>
        <time>2019-10-30T07:36:58.000Z</time>
      </trkpt>
      <trkpt lat="45.32308" lon="4.63726">
        <ele>537.59997558594</ele>
        <time>2019-10-30T07:36:59.000Z</time>
      </trkpt>
      <trkpt lat="45.32306" lon="4.63721">
        <ele>537.59997558594</ele>
        <time>2019-10-30T07:37:00.000Z</time>
      </trkpt>
      <trkpt lat="45.32305" lon="4.63716">
        <ele>537.40002441406</ele>
        <time>2019-10-30T07:37:01.000Z</time>
      </trkpt>
      <trkpt lat="45.32299" lon="4.63702">
        <ele>537.40002441406</ele>
        <time>2019-10-30T07:37:04.000Z</time>
      </trkpt>
      <trkpt lat="45.32298" lon="4.63697">
        <ele>537.40002441406</ele>
        <time>2019-10-30T07:37:05.000Z</time>
      </trkpt>
      <trkpt lat="45.32296" lon="4.63692">
        <ele>537.20001220703</ele>
        <time>2019-10-30T07:37:06.000Z</time>
      </trkpt>
      <trkpt lat="45.32294" lon="4.63688">
        <ele>537.20001220703</ele>
        <time>2019-10-30T07:37:07.000Z</time>
      </trkpt>
      <trkpt lat="45.32293" lon="4.63684">
        <ele>537.40002441406</ele>
        <time>2019-10-30T07:37:08.000Z</time>
      </trkpt>
      <trkpt lat="45.32291" lon="4.6368">
        <ele>537.20001220703</ele>
        <time>2019-10-30T07:37:09.000Z</time>
      </trkpt>
      <trkpt lat="45.3229" lon="4.63676">
        <ele>537.20001220703</ele>
        <time>2019-10-30T07:37:10.000Z</time>
      </trkpt>
      <trkpt lat="45.32288" lon="4.63673">
        <ele>537.20001220703</ele>
        <time>2019-10-30T07:37:11.000Z</time>
      </trkpt>
      <trkpt lat="45.32287" lon="4.63669">
        <ele>537.20001220703</ele>
        <time>2019-10-30T07:37:12.000Z</time>
      </trkpt>
      <trkpt lat="45.32286" lon="4.63664">
        <ele>537</ele>
        <time>2019-10-30T07:37:13.000Z</time>
      </trkpt>
      <trkpt lat="45.32279" lon="4.63643">
        <ele>536.79998779297</ele>
        <time>2019-10-30T07:37:17.000Z</time>
      </trkpt>
      <trkpt lat="45.32277" lon="4.63637">
        <ele>537</ele>
        <time>2019-10-30T07:37:18.000Z</time>
      </trkpt>
      <trkpt lat="45.32273" lon="4.63626">
        <ele>537</ele>
        <time>2019-10-30T07:37:20.000Z</time>
      </trkpt>
      <trkpt lat="45.32271" lon="4.63619">
        <ele>536.79998779297</ele>
        <time>2019-10-30T07:37:21.000Z</time>
      </trkpt>
      <trkpt lat="45.32269" lon="4.63612">
        <ele>536.79998779297</ele>
        <time>2019-10-30T07:37:22.000Z</time>
      </trkpt>
      <trkpt lat="45.32265" lon="4.63596">
        <ele>536.40002441406</ele>
        <time>2019-10-30T07:37:24.000Z</time>
      </trkpt>
      <trkpt lat="45.32256" lon="4.63563">
        <ele>535.59997558594</ele>
        <time>2019-10-30T07:37:28.000Z</time>
      </trkpt>
      <trkpt lat="45.32254" lon="4.63555">
        <ele>535.59997558594</ele>
        <time>2019-10-30T07:37:29.000Z</time>
      </trkpt>
      <trkpt lat="45.32252" lon="4.63547">
        <ele>535</ele>
        <time>2019-10-30T07:37:30.000Z</time>
      </trkpt>
      <trkpt lat="45.3225" lon="4.63539">
        <ele>534.40002441406</ele>
        <time>2019-10-30T07:37:31.000Z</time>
      </trkpt>
      <trkpt lat="45.32247" lon="4.63532">
        <ele>533.59997558594</ele>
        <time>2019-10-30T07:37:32.000Z</time>
      </trkpt>
      <trkpt lat="45.32246" lon="4.63526">
        <ele>533</ele>
        <time>2019-10-30T07:37:33.000Z</time>
      </trkpt>
      <trkpt lat="45.32245" lon="4.63519">
        <ele>532.40002441406</ele>
        <time>2019-10-30T07:37:34.000Z</time>
      </trkpt>
      <trkpt lat="45.32245" lon="4.63513">
        <ele>532</ele>
        <time>2019-10-30T07:37:35.000Z</time>
      </trkpt>
      <trkpt lat="45.32247" lon="4.63507">
        <ele>531.79998779297</ele>
        <time>2019-10-30T07:37:36.000Z</time>
      </trkpt>
      <trkpt lat="45.32248" lon="4.63502">
        <ele>531.79998779297</ele>
        <time>2019-10-30T07:37:37.000Z</time>
      </trkpt>
      <trkpt lat="45.3225" lon="4.63497">
        <ele>531.59997558594</ele>
        <time>2019-10-30T07:37:38.000Z</time>
      </trkpt>
      <trkpt lat="45.32251" lon="4.63492">
        <ele>531.79998779297</ele>
        <time>2019-10-30T07:37:39.000Z</time>
      </trkpt>
      <trkpt lat="45.32253" lon="4.63487">
        <ele>531.59997558594</ele>
        <time>2019-10-30T07:37:40.000Z</time>
      </trkpt>
      <trkpt lat="45.32254" lon="4.63482">
        <ele>531.59997558594</ele>
        <time>2019-10-30T07:37:41.000Z</time>
      </trkpt>
      <trkpt lat="45.32255" lon="4.63477">
        <ele>531.59997558594</ele>
        <time>2019-10-30T07:37:42.000Z</time>
      </trkpt>
      <trkpt lat="45.32257" lon="4.63472">
        <ele>531.59997558594</ele>
        <time>2019-10-30T07:37:43.000Z</time>
      </trkpt>
      <trkpt lat="45.32257" lon="4.63467">
        <ele>531.59997558594</ele>
        <time>2019-10-30T07:37:44.000Z</time>
      </trkpt>
      <trkpt lat="45.32258" lon="4.63462">
        <ele>531.59997558594</ele>
        <time>2019-10-30T07:37:45.000Z</time>
      </trkpt>
      <trkpt lat="45.32259" lon="4.63457">
        <ele>531.79998779297</ele>
        <time>2019-10-30T07:37:46.000Z</time>
      </trkpt>
      <trkpt lat="45.3226" lon="4.63452">
        <ele>531.79998779297</ele>
        <time>2019-10-30T07:37:47.000Z</time>
      </trkpt>
      <trkpt lat="45.32261" lon="4.63447">
        <ele>532.20001220703</ele>
        <time>2019-10-30T07:37:48.000Z</time>
      </trkpt>
      <trkpt lat="45.32262" lon="4.63443">
        <ele>532.20001220703</ele>
        <time>2019-10-30T07:37:49.000Z</time>
      </trkpt>
      <trkpt lat="45.32263" lon="4.63438">
        <ele>532.20001220703</ele>
        <time>2019-10-30T07:37:50.000Z</time>
      </trkpt>
      <trkpt lat="45.32263" lon="4.63434">
        <ele>532.40002441406</ele>
        <time>2019-10-30T07:37:51.000Z</time>
      </trkpt>
      <trkpt lat="45.32264" lon="4.6343">
        <ele>532.79998779297</ele>
        <time>2019-10-30T07:37:52.000Z</time>
      </trkpt>
      <trkpt lat="45.32265" lon="4.63425">
        <ele>532.79998779297</ele>
        <time>2019-10-30T07:37:53.000Z</time>
      </trkpt>
      <trkpt lat="45.32266" lon="4.63421">
        <ele>533</ele>
        <time>2019-10-30T07:37:54.000Z</time>
      </trkpt>
      <trkpt lat="45.32267" lon="4.63416">
        <ele>533</ele>
        <time>2019-10-30T07:37:55.000Z</time>
      </trkpt>
      <trkpt lat="45.32269" lon="4.63412">
        <ele>533.20001220703</ele>
        <time>2019-10-30T07:37:56.000Z</time>
      </trkpt>
      <trkpt lat="45.3227" lon="4.63408">
        <ele>533.40002441406</ele>
        <time>2019-10-30T07:37:57.000Z</time>
      </trkpt>
      <trkpt lat="45.32271" lon="4.63405">
        <ele>533.40002441406</ele>
        <time>2019-10-30T07:37:58.000Z</time>
      </trkpt>
      <trkpt lat="45.32272" lon="4.63401">
        <ele>533.79998779297</ele>
        <time>2019-10-30T07:37:59.000Z</time>
      </trkpt>
      <trkpt lat="45.32274" lon="4.63397">
        <ele>534</ele>
        <time>2019-10-30T07:38:00.000Z</time>
      </trkpt>
      <trkpt lat="45.32275" lon="4.63393">
        <ele>534.20001220703</ele>
        <time>2019-10-30T07:38:01.000Z</time>
      </trkpt>
      <trkpt lat="45.32277" lon="4.63389">
        <ele>534.40002441406</ele>
        <time>2019-10-30T07:38:02.000Z</time>
      </trkpt>
      <trkpt lat="45.32279" lon="4.63386">
        <ele>534.59997558594</ele>
        <time>2019-10-30T07:38:03.000Z</time>
      </trkpt>
      <trkpt lat="45.3228" lon="4.63382">
        <ele>535</ele>
        <time>2019-10-30T07:38:04.000Z</time>
      </trkpt>
      <trkpt lat="45.32282" lon="4.63378">
        <ele>535.20001220703</ele>
        <time>2019-10-30T07:38:05.000Z</time>
      </trkpt>
      <trkpt lat="45.32284" lon="4.63375">
        <ele>535.59997558594</ele>
        <time>2019-10-30T07:38:06.000Z</time>
      </trkpt>
      <trkpt lat="45.32286" lon="4.63371">
        <ele>535.79998779297</ele>
        <time>2019-10-30T07:38:07.000Z</time>
      </trkpt>
      <trkpt lat="45.32288" lon="4.63367">
        <ele>535.79998779297</ele>
        <time>2019-10-30T07:38:08.000Z</time>
      </trkpt>
      <trkpt lat="45.32294" lon="4.63355">
        <ele>536.20001220703</ele>
        <time>2019-10-30T07:38:11.000Z</time>
      </trkpt>
      <trkpt lat="45.32299" lon="4.63347">
        <ele>536.40002441406</ele>
        <time>2019-10-30T07:38:13.000Z</time>
      </trkpt>
      <trkpt lat="45.32301" lon="4.63343">
        <ele>536.59997558594</ele>
        <time>2019-10-30T07:38:14.000Z</time>
      </trkpt>
      <trkpt lat="45.32303" lon="4.63339">
        <ele>536.59997558594</ele>
        <time>2019-10-30T07:38:15.000Z</time>
      </trkpt>
      <trkpt lat="45.32304" lon="4.63335">
        <ele>536.59997558594</ele>
        <time>2019-10-30T07:38:16.000Z</time>
      </trkpt>
      <trkpt lat="45.32306" lon="4.63331">
        <ele>536.79998779297</ele>
        <time>2019-10-30T07:38:17.000Z</time>
      </trkpt>
      <trkpt lat="45.32307" lon="4.63326">
        <ele>536.79998779297</ele>
        <time>2019-10-30T07:38:18.000Z</time>
      </trkpt>
      <trkpt lat="45.32317" lon="4.63282">
        <ele>536.79998779297</ele>
        <time>2019-10-30T07:38:27.000Z</time>
      </trkpt>
      <trkpt lat="45.32321" lon="4.63255">
        <ele>536.79998779297</ele>
        <time>2019-10-30T07:38:32.000Z</time>
      </trkpt>
      <trkpt lat="45.32321" lon="4.63249">
        <ele>536.79998779297</ele>
        <time>2019-10-30T07:38:33.000Z</time>
      </trkpt>
      <trkpt lat="45.32321" lon="4.63244">
        <ele>536.59997558594</ele>
        <time>2019-10-30T07:38:34.000Z</time>
      </trkpt>
      <trkpt lat="45.32321" lon="4.63219">
        <ele>536.59997558594</ele>
        <time>2019-10-30T07:38:38.000Z</time>
      </trkpt>
      <trkpt lat="45.32319" lon="4.63198">
        <ele>536.40002441406</ele>
        <time>2019-10-30T07:38:41.000Z</time>
      </trkpt>
      <trkpt lat="45.32318" lon="4.63177">
        <ele>536.20001220703</ele>
        <time>2019-10-30T07:38:44.000Z</time>
      </trkpt>
      <trkpt lat="45.32317" lon="4.6317">
        <ele>536</ele>
        <time>2019-10-30T07:38:45.000Z</time>
      </trkpt>
      <trkpt lat="45.32316" lon="4.63164">
        <ele>536</ele>
        <time>2019-10-30T07:38:46.000Z</time>
      </trkpt>
      <trkpt lat="45.32316" lon="4.63157">
        <ele>535.59997558594</ele>
        <time>2019-10-30T07:38:47.000Z</time>
      </trkpt>
      <trkpt lat="45.32315" lon="4.63151">
        <ele>535.59997558594</ele>
        <time>2019-10-30T07:38:48.000Z</time>
      </trkpt>
      <trkpt lat="45.32315" lon="4.63145">
        <ele>535.20001220703</ele>
        <time>2019-10-30T07:38:49.000Z</time>
      </trkpt>
      <trkpt lat="45.32314" lon="4.63139">
        <ele>535</ele>
        <time>2019-10-30T07:38:50.000Z</time>
      </trkpt>
      <trkpt lat="45.32314" lon="4.63133">
        <ele>535</ele>
        <time>2019-10-30T07:38:51.000Z</time>
      </trkpt>
      <trkpt lat="45.32314" lon="4.63127">
        <ele>534.79998779297</ele>
        <time>2019-10-30T07:38:52.000Z</time>
      </trkpt>
      <trkpt lat="45.32314" lon="4.63121">
        <ele>534.79998779297</ele>
        <time>2019-10-30T07:38:53.000Z</time>
      </trkpt>
      <trkpt lat="45.32314" lon="4.63116">
        <ele>534.79998779297</ele>
        <time>2019-10-30T07:38:54.000Z</time>
      </trkpt>
      <trkpt lat="45.32314" lon="4.6311">
        <ele>534.79998779297</ele>
        <time>2019-10-30T07:38:55.000Z</time>
      </trkpt>
      <trkpt lat="45.32314" lon="4.63105">
        <ele>534.79998779297</ele>
        <time>2019-10-30T07:38:56.000Z</time>
      </trkpt>
      <trkpt lat="45.32314" lon="4.63099">
        <ele>534.79998779297</ele>
        <time>2019-10-30T07:38:57.000Z</time>
      </trkpt>
      <trkpt lat="45.32314" lon="4.63094">
        <ele>534.59997558594</ele>
        <time>2019-10-30T07:38:58.000Z</time>
      </trkpt>
      <trkpt lat="45.32315" lon="4.6309">
        <ele>534.79998779297</ele>
        <time>2019-10-30T07:38:59.000Z</time>
      </trkpt>
      <trkpt lat="45.32315" lon="4.63086">
        <ele>535</ele>
        <time>2019-10-30T07:39:00.000Z</time>
      </trkpt>
      <trkpt lat="45.32315" lon="4.63082">
        <ele>535</ele>
        <time>2019-10-30T07:39:01.000Z</time>
      </trkpt>
      <trkpt lat="45.32315" lon="4.63078">
        <ele>535</ele>
        <time>2019-10-30T07:39:02.000Z</time>
      </trkpt>
      <trkpt lat="45.32315" lon="4.63074">
        <ele>535</ele>
        <time>2019-10-30T07:39:03.000Z</time>
      </trkpt>
      <trkpt lat="45.32315" lon="4.6307">
        <ele>535</ele>
        <time>2019-10-30T07:39:04.000Z</time>
      </trkpt>
      <trkpt lat="45.32315" lon="4.63066">
        <ele>535</ele>
        <time>2019-10-30T07:39:05.000Z</time>
      </trkpt>
      <trkpt lat="45.32315" lon="4.63062">
        <ele>535.20001220703</ele>
        <time>2019-10-30T07:39:06.000Z</time>
      </trkpt>
      <trkpt lat="45.32315" lon="4.63059">
        <ele>535.40002441406</ele>
        <time>2019-10-30T07:39:07.000Z</time>
      </trkpt>
      <trkpt lat="45.32316" lon="4.63055">
        <ele>535.40002441406</ele>
        <time>2019-10-30T07:39:08.000Z</time>
      </trkpt>
      <trkpt lat="45.32316" lon="4.63051">
        <ele>535.59997558594</ele>
        <time>2019-10-30T07:39:09.000Z</time>
      </trkpt>
      <trkpt lat="45.32316" lon="4.63048">
        <ele>535.79998779297</ele>
        <time>2019-10-30T07:39:10.000Z</time>
      </trkpt>
      <trkpt lat="45.32317" lon="4.63044">
        <ele>536</ele>
        <time>2019-10-30T07:39:11.000Z</time>
      </trkpt>
      <trkpt lat="45.32317" lon="4.6304">
        <ele>536</ele>
        <time>2019-10-30T07:39:12.000Z</time>
      </trkpt>
      <trkpt lat="45.32318" lon="4.63036">
        <ele>536</ele>
        <time>2019-10-30T07:39:13.000Z</time>
      </trkpt>
      <trkpt lat="45.32318" lon="4.63033">
        <ele>536.20001220703</ele>
        <time>2019-10-30T07:39:14.000Z</time>
      </trkpt>
      <trkpt lat="45.32319" lon="4.63029">
        <ele>536.40002441406</ele>
        <time>2019-10-30T07:39:15.000Z</time>
      </trkpt>
      <trkpt lat="45.32321" lon="4.63026">
        <ele>536.59997558594</ele>
        <time>2019-10-30T07:39:16.000Z</time>
      </trkpt>
      <trkpt lat="45.32322" lon="4.63022">
        <ele>536.59997558594</ele>
        <time>2019-10-30T07:39:17.000Z</time>
      </trkpt>
      <trkpt lat="45.32323" lon="4.63018">
        <ele>536.79998779297</ele>
        <time>2019-10-30T07:39:18.000Z</time>
      </trkpt>
      <trkpt lat="45.32324" lon="4.63015">
        <ele>537</ele>
        <time>2019-10-30T07:39:19.000Z</time>
      </trkpt>
      <trkpt lat="45.32325" lon="4.63012">
        <ele>537</ele>
        <time>2019-10-30T07:39:20.000Z</time>
      </trkpt>
      <trkpt lat="45.32326" lon="4.6301">
        <ele>537.20001220703</ele>
        <time>2019-10-30T07:39:21.000Z</time>
      </trkpt>
      <trkpt lat="45.32327" lon="4.63007">
        <ele>537.40002441406</ele>
        <time>2019-10-30T07:39:22.000Z</time>
      </trkpt>
      <trkpt lat="45.32329" lon="4.63004">
        <ele>537.59997558594</ele>
        <time>2019-10-30T07:39:23.000Z</time>
      </trkpt>
      <trkpt lat="45.3233" lon="4.63001">
        <ele>537.79998779297</ele>
        <time>2019-10-30T07:39:24.000Z</time>
      </trkpt>
      <trkpt lat="45.32332" lon="4.62998">
        <ele>538</ele>
        <time>2019-10-30T07:39:25.000Z</time>
      </trkpt>
      <trkpt lat="45.32333" lon="4.62995">
        <ele>538.20001220703</ele>
        <time>2019-10-30T07:39:26.000Z</time>
      </trkpt>
      <trkpt lat="45.32335" lon="4.62992">
        <ele>538.40002441406</ele>
        <time>2019-10-30T07:39:27.000Z</time>
      </trkpt>
      <trkpt lat="45.32337" lon="4.62988">
        <ele>538.59997558594</ele>
        <time>2019-10-30T07:39:28.000Z</time>
      </trkpt>
      <trkpt lat="45.32339" lon="4.62985">
        <ele>538.59997558594</ele>
        <time>2019-10-30T07:39:29.000Z</time>
      </trkpt>
      <trkpt lat="45.32341" lon="4.62981">
        <ele>539</ele>
        <time>2019-10-30T07:39:30.000Z</time>
      </trkpt>
      <trkpt lat="45.32343" lon="4.62978">
        <ele>539.40002441406</ele>
        <time>2019-10-30T07:39:31.000Z</time>
      </trkpt>
      <trkpt lat="45.32345" lon="4.62974">
        <ele>539.79998779297</ele>
        <time>2019-10-30T07:39:32.000Z</time>
      </trkpt>
      <trkpt lat="45.32347" lon="4.62971">
        <ele>540</ele>
        <time>2019-10-30T07:39:33.000Z</time>
      </trkpt>
      <trkpt lat="45.32349" lon="4.62967">
        <ele>540.20001220703</ele>
        <time>2019-10-30T07:39:34.000Z</time>
      </trkpt>
      <trkpt lat="45.32351" lon="4.62964">
        <ele>540.40002441406</ele>
        <time>2019-10-30T07:39:35.000Z</time>
      </trkpt>
      <trkpt lat="45.32353" lon="4.6296">
        <ele>540.59997558594</ele>
        <time>2019-10-30T07:39:36.000Z</time>
      </trkpt>
      <trkpt lat="45.32355" lon="4.62957">
        <ele>540.79998779297</ele>
        <time>2019-10-30T07:39:37.000Z</time>
      </trkpt>
      <trkpt lat="45.32357" lon="4.62953">
        <ele>541</ele>
        <time>2019-10-30T07:39:38.000Z</time>
      </trkpt>
      <trkpt lat="45.32358" lon="4.62949">
        <ele>541</ele>
        <time>2019-10-30T07:39:39.000Z</time>
      </trkpt>
      <trkpt lat="45.3236" lon="4.62946">
        <ele>541.20001220703</ele>
        <time>2019-10-30T07:39:40.000Z</time>
      </trkpt>
      <trkpt lat="45.32362" lon="4.62943">
        <ele>541.59997558594</ele>
        <time>2019-10-30T07:39:41.000Z</time>
      </trkpt>
      <trkpt lat="45.32364" lon="4.62939">
        <ele>541.59997558594</ele>
        <time>2019-10-30T07:39:42.000Z</time>
      </trkpt>
      <trkpt lat="45.32366" lon="4.62936">
        <ele>541.79998779297</ele>
        <time>2019-10-30T07:39:43.000Z</time>
      </trkpt>
      <trkpt lat="45.32368" lon="4.62932">
        <ele>542</ele>
        <time>2019-10-30T07:39:44.000Z</time>
      </trkpt>
      <trkpt lat="45.3237" lon="4.62929">
        <ele>542</ele>
        <time>2019-10-30T07:39:45.000Z</time>
      </trkpt>
      <trkpt lat="45.32372" lon="4.62926">
        <ele>542.40002441406</ele>
        <time>2019-10-30T07:39:46.000Z</time>
      </trkpt>
      <trkpt lat="45.32374" lon="4.62924">
        <ele>542.40002441406</ele>
        <time>2019-10-30T07:39:47.000Z</time>
      </trkpt>
      <trkpt lat="45.32376" lon="4.62921">
        <ele>542.59997558594</ele>
        <time>2019-10-30T07:39:48.000Z</time>
      </trkpt>
      <trkpt lat="45.32378" lon="4.62918">
        <ele>542.79998779297</ele>
        <time>2019-10-30T07:39:49.000Z</time>
      </trkpt>
      <trkpt lat="45.3238" lon="4.62915">
        <ele>542.79998779297</ele>
        <time>2019-10-30T07:39:50.000Z</time>
      </trkpt>
      <trkpt lat="45.32383" lon="4.62912">
        <ele>542.79998779297</ele>
        <time>2019-10-30T07:39:51.000Z</time>
      </trkpt>
      <trkpt lat="45.32385" lon="4.62909">
        <ele>543</ele>
        <time>2019-10-30T07:39:52.000Z</time>
      </trkpt>
      <trkpt lat="45.32387" lon="4.62907">
        <ele>543.20001220703</ele>
        <time>2019-10-30T07:39:53.000Z</time>
      </trkpt>
      <trkpt lat="45.32389" lon="4.62905">
        <ele>543.20001220703</ele>
        <time>2019-10-30T07:39:54.000Z</time>
      </trkpt>
      <trkpt lat="45.32391" lon="4.62903">
        <ele>543.20001220703</ele>
        <time>2019-10-30T07:39:55.000Z</time>
      </trkpt>
      <trkpt lat="45.32393" lon="4.62901">
        <ele>543.20001220703</ele>
        <time>2019-10-30T07:39:56.000Z</time>
      </trkpt>
      <trkpt lat="45.32395" lon="4.62899">
        <ele>543.59997558594</ele>
        <time>2019-10-30T07:39:57.000Z</time>
      </trkpt>
      <trkpt lat="45.32398" lon="4.62896">
        <ele>543.79998779297</ele>
        <time>2019-10-30T07:39:58.000Z</time>
      </trkpt>
      <trkpt lat="45.324" lon="4.62894">
        <ele>543.79998779297</ele>
        <time>2019-10-30T07:39:59.000Z</time>
      </trkpt>
      <trkpt lat="45.32402" lon="4.62891">
        <ele>543.79998779297</ele>
        <time>2019-10-30T07:40:00.000Z</time>
      </trkpt>
      <trkpt lat="45.32404" lon="4.62889">
        <ele>544</ele>
        <time>2019-10-30T07:40:01.000Z</time>
      </trkpt>
      <trkpt lat="45.32406" lon="4.62887">
        <ele>544.20001220703</ele>
        <time>2019-10-30T07:40:02.000Z</time>
      </trkpt>
      <trkpt lat="45.32407" lon="4.62884">
        <ele>544.40002441406</ele>
        <time>2019-10-30T07:40:03.000Z</time>
      </trkpt>
      <trkpt lat="45.32409" lon="4.62881">
        <ele>544.79998779297</ele>
        <time>2019-10-30T07:40:04.000Z</time>
      </trkpt>
      <trkpt lat="45.32412" lon="4.62879">
        <ele>545</ele>
        <time>2019-10-30T07:40:05.000Z</time>
      </trkpt>
      <trkpt lat="45.32414" lon="4.62877">
        <ele>545.20001220703</ele>
        <time>2019-10-30T07:40:06.000Z</time>
      </trkpt>
      <trkpt lat="45.32416" lon="4.62874">
        <ele>545.40002441406</ele>
        <time>2019-10-30T07:40:07.000Z</time>
      </trkpt>
      <trkpt lat="45.32418" lon="4.62871">
        <ele>545.40002441406</ele>
        <time>2019-10-30T07:40:08.000Z</time>
      </trkpt>
      <trkpt lat="45.3242" lon="4.62869">
        <ele>545.40002441406</ele>
        <time>2019-10-30T07:40:09.000Z</time>
      </trkpt>
      <trkpt lat="45.32422" lon="4.62866">
        <ele>545.59997558594</ele>
        <time>2019-10-30T07:40:10.000Z</time>
      </trkpt>
      <trkpt lat="45.32424" lon="4.62863">
        <ele>545.79998779297</ele>
        <time>2019-10-30T07:40:11.000Z</time>
      </trkpt>
      <trkpt lat="45.32426" lon="4.62861">
        <ele>545.79998779297</ele>
        <time>2019-10-30T07:40:12.000Z</time>
      </trkpt>
      <trkpt lat="45.32427" lon="4.62858">
        <ele>546.20001220703</ele>
        <time>2019-10-30T07:40:13.000Z</time>
      </trkpt>
      <trkpt lat="45.32429" lon="4.62856">
        <ele>546</ele>
        <time>2019-10-30T07:40:14.000Z</time>
      </trkpt>
      <trkpt lat="45.32431" lon="4.62854">
        <ele>546.20001220703</ele>
        <time>2019-10-30T07:40:15.000Z</time>
      </trkpt>
      <trkpt lat="45.32433" lon="4.62851">
        <ele>546.40002441406</ele>
        <time>2019-10-30T07:40:16.000Z</time>
      </trkpt>
      <trkpt lat="45.32435" lon="4.62848">
        <ele>546.20001220703</ele>
        <time>2019-10-30T07:40:17.000Z</time>
      </trkpt>
      <trkpt lat="45.32438" lon="4.62846">
        <ele>546.79998779297</ele>
        <time>2019-10-30T07:40:18.000Z</time>
      </trkpt>
      <trkpt lat="45.3244" lon="4.62843">
        <ele>547</ele>
        <time>2019-10-30T07:40:19.000Z</time>
      </trkpt>
      <trkpt lat="45.32442" lon="4.6284">
        <ele>547</ele>
        <time>2019-10-30T07:40:20.000Z</time>
      </trkpt>
      <trkpt lat="45.32443" lon="4.62837">
        <ele>547</ele>
        <time>2019-10-30T07:40:21.000Z</time>
      </trkpt>
      <trkpt lat="45.32445" lon="4.62835">
        <ele>547.20001220703</ele>
        <time>2019-10-30T07:40:22.000Z</time>
      </trkpt>
      <trkpt lat="45.32446" lon="4.62832">
        <ele>547.40002441406</ele>
        <time>2019-10-30T07:40:23.000Z</time>
      </trkpt>
      <trkpt lat="45.32448" lon="4.6283">
        <ele>547.40002441406</ele>
        <time>2019-10-30T07:40:24.000Z</time>
      </trkpt>
      <trkpt lat="45.32449" lon="4.62827">
        <ele>547.59997558594</ele>
        <time>2019-10-30T07:40:25.000Z</time>
      </trkpt>
      <trkpt lat="45.32451" lon="4.62824">
        <ele>547.79998779297</ele>
        <time>2019-10-30T07:40:26.000Z</time>
      </trkpt>
      <trkpt lat="45.32452" lon="4.62822">
        <ele>547.79998779297</ele>
        <time>2019-10-30T07:40:27.000Z</time>
      </trkpt>
      <trkpt lat="45.32454" lon="4.62819">
        <ele>548</ele>
        <time>2019-10-30T07:40:28.000Z</time>
      </trkpt>
      <trkpt lat="45.32455" lon="4.62815">
        <ele>548</ele>
        <time>2019-10-30T07:40:29.000Z</time>
      </trkpt>
      <trkpt lat="45.32457" lon="4.62812">
        <ele>548.20001220703</ele>
        <time>2019-10-30T07:40:30.000Z</time>
      </trkpt>
      <trkpt lat="45.32458" lon="4.62809">
        <ele>548.40002441406</ele>
        <time>2019-10-30T07:40:31.000Z</time>
      </trkpt>
      <trkpt lat="45.3246" lon="4.62806">
        <ele>548.79998779297</ele>
        <time>2019-10-30T07:40:32.000Z</time>
      </trkpt>
      <trkpt lat="45.32461" lon="4.62803">
        <ele>549</ele>
        <time>2019-10-30T07:40:33.000Z</time>
      </trkpt>
      <trkpt lat="45.32462" lon="4.628">
        <ele>549.40002441406</ele>
        <time>2019-10-30T07:40:34.000Z</time>
      </trkpt>
      <trkpt lat="45.32464" lon="4.62797">
        <ele>549.59997558594</ele>
        <time>2019-10-30T07:40:35.000Z</time>
      </trkpt>
      <trkpt lat="45.32465" lon="4.62793">
        <ele>549.79998779297</ele>
        <time>2019-10-30T07:40:36.000Z</time>
      </trkpt>
      <trkpt lat="45.32466" lon="4.6279">
        <ele>550.20001220703</ele>
        <time>2019-10-30T07:40:37.000Z</time>
      </trkpt>
      <trkpt lat="45.32467" lon="4.62786">
        <ele>550.20001220703</ele>
        <time>2019-10-30T07:40:38.000Z</time>
      </trkpt>
      <trkpt lat="45.32469" lon="4.62783">
        <ele>550.20001220703</ele>
        <time>2019-10-30T07:40:39.000Z</time>
      </trkpt>
      <trkpt lat="45.3247" lon="4.6278">
        <ele>550.40002441406</ele>
        <time>2019-10-30T07:40:40.000Z</time>
      </trkpt>
      <trkpt lat="45.32471" lon="4.62777">
        <ele>550.59997558594</ele>
        <time>2019-10-30T07:40:41.000Z</time>
      </trkpt>
      <trkpt lat="45.32472" lon="4.62774">
        <ele>550.79998779297</ele>
        <time>2019-10-30T07:40:42.000Z</time>
      </trkpt>
      <trkpt lat="45.32474" lon="4.62771">
        <ele>551</ele>
        <time>2019-10-30T07:40:43.000Z</time>
      </trkpt>
      <trkpt lat="45.32475" lon="4.62768">
        <ele>551</ele>
        <time>2019-10-30T07:40:44.000Z</time>
      </trkpt>
      <trkpt lat="45.32476" lon="4.62765">
        <ele>551.20001220703</ele>
        <time>2019-10-30T07:40:45.000Z</time>
      </trkpt>
      <trkpt lat="45.32477" lon="4.62761">
        <ele>551.40002441406</ele>
        <time>2019-10-30T07:40:46.000Z</time>
      </trkpt>
      <trkpt lat="45.32478" lon="4.62758">
        <ele>551.40002441406</ele>
        <time>2019-10-30T07:40:47.000Z</time>
      </trkpt>
      <trkpt lat="45.32479" lon="4.62755">
        <ele>551.40002441406</ele>
        <time>2019-10-30T07:40:48.000Z</time>
      </trkpt>
      <trkpt lat="45.3248" lon="4.62751">
        <ele>551.59997558594</ele>
        <time>2019-10-30T07:40:49.000Z</time>
      </trkpt>
      <trkpt lat="45.32481" lon="4.62748">
        <ele>551.79998779297</ele>
        <time>2019-10-30T07:40:50.000Z</time>
      </trkpt>
      <trkpt lat="45.32482" lon="4.62744">
        <ele>552</ele>
        <time>2019-10-30T07:40:51.000Z</time>
      </trkpt>
      <trkpt lat="45.32484" lon="4.62741">
        <ele>552</ele>
        <time>2019-10-30T07:40:52.000Z</time>
      </trkpt>
      <trkpt lat="45.32485" lon="4.62738">
        <ele>552.40002441406</ele>
        <time>2019-10-30T07:40:53.000Z</time>
      </trkpt>
      <trkpt lat="45.32486" lon="4.62734">
        <ele>552.59997558594</ele>
        <time>2019-10-30T07:40:54.000Z</time>
      </trkpt>
      <trkpt lat="45.32488" lon="4.6273">
        <ele>552.79998779297</ele>
        <time>2019-10-30T07:40:55.000Z</time>
      </trkpt>
      <trkpt lat="45.32489" lon="4.62726">
        <ele>553</ele>
        <time>2019-10-30T07:40:56.000Z</time>
      </trkpt>
      <trkpt lat="45.32491" lon="4.62723">
        <ele>553.40002441406</ele>
        <time>2019-10-30T07:40:57.000Z</time>
      </trkpt>
      <trkpt lat="45.32492" lon="4.6272">
        <ele>553.59997558594</ele>
        <time>2019-10-30T07:40:58.000Z</time>
      </trkpt>
      <trkpt lat="45.32494" lon="4.62718">
        <ele>553.79998779297</ele>
        <time>2019-10-30T07:40:59.000Z</time>
      </trkpt>
      <trkpt lat="45.32496" lon="4.62715">
        <ele>554</ele>
        <time>2019-10-30T07:41:00.000Z</time>
      </trkpt>
      <trkpt lat="45.32498" lon="4.62712">
        <ele>554</ele>
        <time>2019-10-30T07:41:01.000Z</time>
      </trkpt>
      <trkpt lat="45.325" lon="4.6271">
        <ele>554.20001220703</ele>
        <time>2019-10-30T07:41:02.000Z</time>
      </trkpt>
      <trkpt lat="45.32502" lon="4.62707">
        <ele>554.20001220703</ele>
        <time>2019-10-30T07:41:03.000Z</time>
      </trkpt>
      <trkpt lat="45.32504" lon="4.62705">
        <ele>554.20001220703</ele>
        <time>2019-10-30T07:41:04.000Z</time>
      </trkpt>
      <trkpt lat="45.32506" lon="4.62703">
        <ele>554.40002441406</ele>
        <time>2019-10-30T07:41:05.000Z</time>
      </trkpt>
      <trkpt lat="45.32508" lon="4.62701">
        <ele>554.40002441406</ele>
        <time>2019-10-30T07:41:06.000Z</time>
      </trkpt>
      <trkpt lat="45.3251" lon="4.627">
        <ele>554.59997558594</ele>
        <time>2019-10-30T07:41:07.000Z</time>
      </trkpt>
      <trkpt lat="45.32512" lon="4.62698">
        <ele>555</ele>
        <time>2019-10-30T07:41:08.000Z</time>
      </trkpt>
      <trkpt lat="45.32514" lon="4.62696">
        <ele>555</ele>
        <time>2019-10-30T07:41:09.000Z</time>
      </trkpt>
      <trkpt lat="45.32516" lon="4.62695">
        <ele>555.20001220703</ele>
        <time>2019-10-30T07:41:10.000Z</time>
      </trkpt>
      <trkpt lat="45.32518" lon="4.62694">
        <ele>555.20001220703</ele>
        <time>2019-10-30T07:41:11.000Z</time>
      </trkpt>
      <trkpt lat="45.32521" lon="4.62693">
        <ele>555.40002441406</ele>
        <time>2019-10-30T07:41:12.000Z</time>
      </trkpt>
      <trkpt lat="45.32523" lon="4.62693">
        <ele>555.40002441406</ele>
        <time>2019-10-30T07:41:13.000Z</time>
      </trkpt>
      <trkpt lat="45.32525" lon="4.62692">
        <ele>555.59997558594</ele>
        <time>2019-10-30T07:41:14.000Z</time>
      </trkpt>
      <trkpt lat="45.32527" lon="4.62692">
        <ele>555.79998779297</ele>
        <time>2019-10-30T07:41:15.000Z</time>
      </trkpt>
      <trkpt lat="45.3253" lon="4.62692">
        <ele>556</ele>
        <time>2019-10-30T07:41:16.000Z</time>
      </trkpt>
      <trkpt lat="45.32532" lon="4.62692">
        <ele>556.40002441406</ele>
        <time>2019-10-30T07:41:17.000Z</time>
      </trkpt>
      <trkpt lat="45.32534" lon="4.62692">
        <ele>556.59997558594</ele>
        <time>2019-10-30T07:41:18.000Z</time>
      </trkpt>
      <trkpt lat="45.32536" lon="4.62692">
        <ele>556.79998779297</ele>
        <time>2019-10-30T07:41:19.000Z</time>
      </trkpt>
      <trkpt lat="45.32538" lon="4.62692">
        <ele>556.79998779297</ele>
        <time>2019-10-30T07:41:20.000Z</time>
      </trkpt>
      <trkpt lat="45.3254" lon="4.62693">
        <ele>557</ele>
        <time>2019-10-30T07:41:21.000Z</time>
      </trkpt>
      <trkpt lat="45.32542" lon="4.62693">
        <ele>557.20001220703</ele>
        <time>2019-10-30T07:41:22.000Z</time>
      </trkpt>
      <trkpt lat="45.32544" lon="4.62693">
        <ele>557.40002441406</ele>
        <time>2019-10-30T07:41:23.000Z</time>
      </trkpt>
      <trkpt lat="45.32546" lon="4.62693">
        <ele>557.40002441406</ele>
        <time>2019-10-30T07:41:24.000Z</time>
      </trkpt>
      <trkpt lat="45.32548" lon="4.62693">
        <ele>557.59997558594</ele>
        <time>2019-10-30T07:41:25.000Z</time>
      </trkpt>
      <trkpt lat="45.32552" lon="4.62692">
        <ele>557.79998779297</ele>
        <time>2019-10-30T07:41:27.000Z</time>
      </trkpt>
      <trkpt lat="45.32553" lon="4.62691">
        <ele>558</ele>
        <time>2019-10-30T07:41:28.000Z</time>
      </trkpt>
      <trkpt lat="45.32554" lon="4.62689">
        <ele>558.20001220703</ele>
        <time>2019-10-30T07:41:29.000Z</time>
      </trkpt>
      <trkpt lat="45.32554" lon="4.62687">
        <ele>558.20001220703</ele>
        <time>2019-10-30T07:41:30.000Z</time>
      </trkpt>
      <trkpt lat="45.32554" lon="4.62685">
        <ele>558.40002441406</ele>
        <time>2019-10-30T07:41:31.000Z</time>
      </trkpt>
      <trkpt lat="45.32554" lon="4.62682">
        <ele>558.20001220703</ele>
        <time>2019-10-30T07:41:32.000Z</time>
      </trkpt>
      <trkpt lat="45.32552" lon="4.6268">
        <ele>558.40002441406</ele>
        <time>2019-10-30T07:41:33.000Z</time>
      </trkpt>
      <trkpt lat="45.3255" lon="4.62677">
        <ele>558.40002441406</ele>
        <time>2019-10-30T07:41:34.000Z</time>
      </trkpt>
      <trkpt lat="45.32548" lon="4.62676">
        <ele>558.40002441406</ele>
        <time>2019-10-30T07:41:35.000Z</time>
      </trkpt>
      <trkpt lat="45.32546" lon="4.62674">
        <ele>558.59997558594</ele>
        <time>2019-10-30T07:41:36.000Z</time>
      </trkpt>
      <trkpt lat="45.32543" lon="4.62672">
        <ele>558.40002441406</ele>
        <time>2019-10-30T07:41:37.000Z</time>
      </trkpt>
      <trkpt lat="45.32541" lon="4.62671">
        <ele>558.59997558594</ele>
        <time>2019-10-30T07:41:38.000Z</time>
      </trkpt>
      <trkpt lat="45.32539" lon="4.62669">
        <ele>558.59997558594</ele>
        <time>2019-10-30T07:41:39.000Z</time>
      </trkpt>
      <trkpt lat="45.32537" lon="4.62668">
        <ele>558.79998779297</ele>
        <time>2019-10-30T07:41:40.000Z</time>
      </trkpt>
      <trkpt lat="45.32535" lon="4.62667">
        <ele>558.79998779297</ele>
        <time>2019-10-30T07:41:41.000Z</time>
      </trkpt>
      <trkpt lat="45.32533" lon="4.62666">
        <ele>558.79998779297</ele>
        <time>2019-10-30T07:41:42.000Z</time>
      </trkpt>
      <trkpt lat="45.32531" lon="4.62666">
        <ele>559</ele>
        <time>2019-10-30T07:41:43.000Z</time>
      </trkpt>
      <trkpt lat="45.32529" lon="4.62665">
        <ele>559.20001220703</ele>
        <time>2019-10-30T07:41:44.000Z</time>
      </trkpt>
      <trkpt lat="45.32527" lon="4.62664">
        <ele>559.20001220703</ele>
        <time>2019-10-30T07:41:45.000Z</time>
      </trkpt>
      <trkpt lat="45.32525" lon="4.62663">
        <ele>559.59997558594</ele>
        <time>2019-10-30T07:41:46.000Z</time>
      </trkpt>
      <trkpt lat="45.32523" lon="4.62662">
        <ele>559.79998779297</ele>
        <time>2019-10-30T07:41:47.000Z</time>
      </trkpt>
      <trkpt lat="45.32521" lon="4.62661">
        <ele>559.79998779297</ele>
        <time>2019-10-30T07:41:48.000Z</time>
      </trkpt>
      <trkpt lat="45.32519" lon="4.62661">
        <ele>560</ele>
        <time>2019-10-30T07:41:49.000Z</time>
      </trkpt>
      <trkpt lat="45.32517" lon="4.6266">
        <ele>560.40002441406</ele>
        <time>2019-10-30T07:41:50.000Z</time>
      </trkpt>
      <trkpt lat="45.32515" lon="4.62659">
        <ele>560.40002441406</ele>
        <time>2019-10-30T07:41:51.000Z</time>
      </trkpt>
      <trkpt lat="45.32513" lon="4.62657">
        <ele>560.79998779297</ele>
        <time>2019-10-30T07:41:52.000Z</time>
      </trkpt>
      <trkpt lat="45.3251" lon="4.62657">
        <ele>561</ele>
        <time>2019-10-30T07:41:53.000Z</time>
      </trkpt>
      <trkpt lat="45.32508" lon="4.62656">
        <ele>561</ele>
        <time>2019-10-30T07:41:54.000Z</time>
      </trkpt>
      <trkpt lat="45.32506" lon="4.62655">
        <ele>561.20001220703</ele>
        <time>2019-10-30T07:41:55.000Z</time>
      </trkpt>
      <trkpt lat="45.32504" lon="4.62655">
        <ele>561.40002441406</ele>
        <time>2019-10-30T07:41:56.000Z</time>
      </trkpt>
      <trkpt lat="45.32503" lon="4.62654">
        <ele>561.59997558594</ele>
        <time>2019-10-30T07:41:57.000Z</time>
      </trkpt>
      <trkpt lat="45.32501" lon="4.62653">
        <ele>561.79998779297</ele>
        <time>2019-10-30T07:41:58.000Z</time>
      </trkpt>
      <trkpt lat="45.325" lon="4.62652">
        <ele>561.79998779297</ele>
        <time>2019-10-30T07:41:59.000Z</time>
      </trkpt>
      <trkpt lat="45.325" lon="4.6265">
        <ele>562</ele>
        <time>2019-10-30T07:42:00.000Z</time>
      </trkpt>
      <trkpt lat="45.32501" lon="4.62649">
        <ele>562</ele>
        <time>2019-10-30T07:42:01.000Z</time>
      </trkpt>
      <trkpt lat="45.32502" lon="4.62647">
        <ele>562.40002441406</ele>
        <time>2019-10-30T07:42:02.000Z</time>
      </trkpt>
      <trkpt lat="45.32503" lon="4.62647">
        <ele>562.40002441406</ele>
        <time>2019-10-30T07:42:03.000Z</time>
      </trkpt>
      <trkpt lat="45.32505" lon="4.62647">
        <ele>562.79998779297</ele>
        <time>2019-10-30T07:42:04.000Z</time>
      </trkpt>
      <trkpt lat="45.32507" lon="4.62647">
        <ele>562.79998779297</ele>
        <time>2019-10-30T07:42:05.000Z</time>
      </trkpt>
      <trkpt lat="45.32508" lon="4.62647">
        <ele>562.79998779297</ele>
        <time>2019-10-30T07:42:06.000Z</time>
      </trkpt>
      <trkpt lat="45.3251" lon="4.62646">
        <ele>562.79998779297</ele>
        <time>2019-10-30T07:42:07.000Z</time>
      </trkpt>
      <trkpt lat="45.32512" lon="4.62646">
        <ele>563</ele>
        <time>2019-10-30T07:42:08.000Z</time>
      </trkpt>
      <trkpt lat="45.32513" lon="4.62645">
        <ele>563</ele>
        <time>2019-10-30T07:42:09.000Z</time>
      </trkpt>
      <trkpt lat="45.32515" lon="4.62645">
        <ele>563.20001220703</ele>
        <time>2019-10-30T07:42:10.000Z</time>
      </trkpt>
      <trkpt lat="45.32516" lon="4.62644">
        <ele>563.40002441406</ele>
        <time>2019-10-30T07:42:11.000Z</time>
      </trkpt>
      <trkpt lat="45.32518" lon="4.62643">
        <ele>563.40002441406</ele>
        <time>2019-10-30T07:42:12.000Z</time>
      </trkpt>
      <trkpt lat="45.32519" lon="4.62642">
        <ele>563.59997558594</ele>
        <time>2019-10-30T07:42:13.000Z</time>
      </trkpt>
      <trkpt lat="45.32521" lon="4.62641">
        <ele>563.79998779297</ele>
        <time>2019-10-30T07:42:14.000Z</time>
      </trkpt>
      <trkpt lat="45.32522" lon="4.6264">
        <ele>563.79998779297</ele>
        <time>2019-10-30T07:42:15.000Z</time>
      </trkpt>
      <trkpt lat="45.32523" lon="4.62639">
        <ele>564.20001220703</ele>
        <time>2019-10-30T07:42:16.000Z</time>
      </trkpt>
      <trkpt lat="45.32524" lon="4.62638">
        <ele>564.40002441406</ele>
        <time>2019-10-30T07:42:17.000Z</time>
      </trkpt>
      <trkpt lat="45.32526" lon="4.62637">
        <ele>564.40002441406</ele>
        <time>2019-10-30T07:42:18.000Z</time>
      </trkpt>
      <trkpt lat="45.32527" lon="4.62635">
        <ele>564.79998779297</ele>
        <time>2019-10-30T07:42:19.000Z</time>
      </trkpt>
      <trkpt lat="45.32528" lon="4.62634">
        <ele>565</ele>
        <time>2019-10-30T07:42:20.000Z</time>
      </trkpt>
      <trkpt lat="45.32528" lon="4.62632">
        <ele>565.20001220703</ele>
        <time>2019-10-30T07:42:21.000Z</time>
      </trkpt>
      <trkpt lat="45.32529" lon="4.62631">
        <ele>565.40002441406</ele>
        <time>2019-10-30T07:42:22.000Z</time>
      </trkpt>
      <trkpt lat="45.3253" lon="4.62629">
        <ele>565.59997558594</ele>
        <time>2019-10-30T07:42:23.000Z</time>
      </trkpt>
      <trkpt lat="45.32531" lon="4.62627">
        <ele>565.79998779297</ele>
        <time>2019-10-30T07:42:24.000Z</time>
      </trkpt>
      <trkpt lat="45.32532" lon="4.62624">
        <ele>566</ele>
        <time>2019-10-30T07:42:25.000Z</time>
      </trkpt>
      <trkpt lat="45.32532" lon="4.62623">
        <ele>566.20001220703</ele>
        <time>2019-10-30T07:42:26.000Z</time>
      </trkpt>
      <trkpt lat="45.32533" lon="4.62621">
        <ele>566.20001220703</ele>
        <time>2019-10-30T07:42:27.000Z</time>
      </trkpt>
      <trkpt lat="45.32533" lon="4.62619">
        <ele>566.40002441406</ele>
        <time>2019-10-30T07:42:28.000Z</time>
      </trkpt>
      <trkpt lat="45.32533" lon="4.62618">
        <ele>566.59997558594</ele>
        <time>2019-10-30T07:42:29.000Z</time>
      </trkpt>
      <trkpt lat="45.32534" lon="4.62616">
        <ele>566.79998779297</ele>
        <time>2019-10-30T07:42:30.000Z</time>
      </trkpt>
      <trkpt lat="45.32534" lon="4.62614">
        <ele>566.79998779297</ele>
        <time>2019-10-30T07:42:31.000Z</time>
      </trkpt>
      <trkpt lat="45.32534" lon="4.62612">
        <ele>566.79998779297</ele>
        <time>2019-10-30T07:42:32.000Z</time>
      </trkpt>
      <trkpt lat="45.32534" lon="4.6261">
        <ele>567.20001220703</ele>
        <time>2019-10-30T07:42:33.000Z</time>
      </trkpt>
      <trkpt lat="45.32535" lon="4.62608">
        <ele>567.40002441406</ele>
        <time>2019-10-30T07:42:34.000Z</time>
      </trkpt>
      <trkpt lat="45.32535" lon="4.62607">
        <ele>567.59997558594</ele>
        <time>2019-10-30T07:42:35.000Z</time>
      </trkpt>
      <trkpt lat="45.32535" lon="4.62605">
        <ele>567.59997558594</ele>
        <time>2019-10-30T07:42:36.000Z</time>
      </trkpt>
      <trkpt lat="45.32535" lon="4.62603">
        <ele>567.79998779297</ele>
        <time>2019-10-30T07:42:37.000Z</time>
      </trkpt>
      <trkpt lat="45.32535" lon="4.62602">
        <ele>568</ele>
        <time>2019-10-30T07:42:38.000Z</time>
      </trkpt>
      <trkpt lat="45.32535" lon="4.626">
        <ele>568.20001220703</ele>
        <time>2019-10-30T07:42:39.000Z</time>
      </trkpt>
      <trkpt lat="45.32535" lon="4.62598">
        <ele>568.40002441406</ele>
        <time>2019-10-30T07:42:40.000Z</time>
      </trkpt>
      <trkpt lat="45.32535" lon="4.62596">
        <ele>568.59997558594</ele>
        <time>2019-10-30T07:42:41.000Z</time>
      </trkpt>
      <trkpt lat="45.32535" lon="4.62594">
        <ele>568.59997558594</ele>
        <time>2019-10-30T07:42:42.000Z</time>
      </trkpt>
      <trkpt lat="45.32534" lon="4.62593">
        <ele>569</ele>
        <time>2019-10-30T07:42:43.000Z</time>
      </trkpt>
      <trkpt lat="45.32534" lon="4.62591">
        <ele>569</ele>
        <time>2019-10-30T07:42:44.000Z</time>
      </trkpt>
      <trkpt lat="45.32534" lon="4.62589">
        <ele>569</ele>
        <time>2019-10-30T07:42:45.000Z</time>
      </trkpt>
      <trkpt lat="45.32534" lon="4.62587">
        <ele>569.20001220703</ele>
        <time>2019-10-30T07:42:46.000Z</time>
      </trkpt>
      <trkpt lat="45.32534" lon="4.62586">
        <ele>569.40002441406</ele>
        <time>2019-10-30T07:42:47.000Z</time>
      </trkpt>
      <trkpt lat="45.32534" lon="4.62584">
        <ele>569.79998779297</ele>
        <time>2019-10-30T07:42:48.000Z</time>
      </trkpt>
      <trkpt lat="45.32534" lon="4.62583">
        <ele>570</ele>
        <time>2019-10-30T07:42:49.000Z</time>
      </trkpt>
      <trkpt lat="45.32534" lon="4.62581">
        <ele>570.40002441406</ele>
        <time>2019-10-30T07:42:50.000Z</time>
      </trkpt>
      <trkpt lat="45.32533" lon="4.6258">
        <ele>570.40002441406</ele>
        <time>2019-10-30T07:42:51.000Z</time>
      </trkpt>
      <trkpt lat="45.32533" lon="4.62578">
        <ele>570.59997558594</ele>
        <time>2019-10-30T07:42:52.000Z</time>
      </trkpt>
      <trkpt lat="45.32533" lon="4.62576">
        <ele>570.79998779297</ele>
        <time>2019-10-30T07:42:53.000Z</time>
      </trkpt>
      <trkpt lat="45.32533" lon="4.62574">
        <ele>571</ele>
        <time>2019-10-30T07:42:54.000Z</time>
      </trkpt>
      <trkpt lat="45.32533" lon="4.62573">
        <ele>571</ele>
        <time>2019-10-30T07:42:55.000Z</time>
      </trkpt>
      <trkpt lat="45.32532" lon="4.62571">
        <ele>571</ele>
        <time>2019-10-30T07:42:56.000Z</time>
      </trkpt>
      <trkpt lat="45.32532" lon="4.6257">
        <ele>571</ele>
        <time>2019-10-30T07:42:57.000Z</time>
      </trkpt>
      <trkpt lat="45.32532" lon="4.62568">
        <ele>571.20001220703</ele>
        <time>2019-10-30T07:42:58.000Z</time>
      </trkpt>
      <trkpt lat="45.32532" lon="4.62566">
        <ele>571.20001220703</ele>
        <time>2019-10-30T07:42:59.000Z</time>
      </trkpt>
      <trkpt lat="45.32532" lon="4.62564">
        <ele>571.20001220703</ele>
        <time>2019-10-30T07:43:00.000Z</time>
      </trkpt>
      <trkpt lat="45.32532" lon="4.62562">
        <ele>571.59997558594</ele>
        <time>2019-10-30T07:43:01.000Z</time>
      </trkpt>
      <trkpt lat="45.32532" lon="4.62561">
        <ele>571.79998779297</ele>
        <time>2019-10-30T07:43:02.000Z</time>
      </trkpt>
      <trkpt lat="45.32532" lon="4.62559">
        <ele>572</ele>
        <time>2019-10-30T07:43:03.000Z</time>
      </trkpt>
      <trkpt lat="45.32532" lon="4.62557">
        <ele>572.20001220703</ele>
        <time>2019-10-30T07:43:04.000Z</time>
      </trkpt>
      <trkpt lat="45.32532" lon="4.62555">
        <ele>572.40002441406</ele>
        <time>2019-10-30T07:43:05.000Z</time>
      </trkpt>
      <trkpt lat="45.32532" lon="4.62554">
        <ele>572.59997558594</ele>
        <time>2019-10-30T07:43:06.000Z</time>
      </trkpt>
      <trkpt lat="45.32531" lon="4.62552">
        <ele>572.59997558594</ele>
        <time>2019-10-30T07:43:07.000Z</time>
      </trkpt>
      <trkpt lat="45.32531" lon="4.62551">
        <ele>572.79998779297</ele>
        <time>2019-10-30T07:43:08.000Z</time>
      </trkpt>
      <trkpt lat="45.32531" lon="4.62549">
        <ele>573</ele>
        <time>2019-10-30T07:43:09.000Z</time>
      </trkpt>
      <trkpt lat="45.32531" lon="4.62548">
        <ele>573.20001220703</ele>
        <time>2019-10-30T07:43:10.000Z</time>
      </trkpt>
      <trkpt lat="45.32531" lon="4.62546">
        <ele>573.40002441406</ele>
        <time>2019-10-30T07:43:11.000Z</time>
      </trkpt>
      <trkpt lat="45.32531" lon="4.62544">
        <ele>573.40002441406</ele>
        <time>2019-10-30T07:43:12.000Z</time>
      </trkpt>
      <trkpt lat="45.3253" lon="4.62542">
        <ele>573.59997558594</ele>
        <time>2019-10-30T07:43:13.000Z</time>
      </trkpt>
      <trkpt lat="45.3253" lon="4.6254">
        <ele>573.79998779297</ele>
        <time>2019-10-30T07:43:14.000Z</time>
      </trkpt>
      <trkpt lat="45.3253" lon="4.62538">
        <ele>574</ele>
        <time>2019-10-30T07:43:15.000Z</time>
      </trkpt>
      <trkpt lat="45.3253" lon="4.62536">
        <ele>574.20001220703</ele>
        <time>2019-10-30T07:43:16.000Z</time>
      </trkpt>
      <trkpt lat="45.3253" lon="4.62534">
        <ele>574.20001220703</ele>
        <time>2019-10-30T07:43:17.000Z</time>
      </trkpt>
      <trkpt lat="45.3253" lon="4.62532">
        <ele>574.40002441406</ele>
        <time>2019-10-30T07:43:18.000Z</time>
      </trkpt>
      <trkpt lat="45.3253" lon="4.62531">
        <ele>574.40002441406</ele>
        <time>2019-10-30T07:43:19.000Z</time>
      </trkpt>
      <trkpt lat="45.3253" lon="4.62529">
        <ele>574.59997558594</ele>
        <time>2019-10-30T07:43:20.000Z</time>
      </trkpt>
      <trkpt lat="45.3253" lon="4.62528">
        <ele>574.79998779297</ele>
        <time>2019-10-30T07:43:21.000Z</time>
      </trkpt>
      <trkpt lat="45.32531" lon="4.62526">
        <ele>575.20001220703</ele>
        <time>2019-10-30T07:43:22.000Z</time>
      </trkpt>
      <trkpt lat="45.32531" lon="4.62524">
        <ele>575.20001220703</ele>
        <time>2019-10-30T07:43:23.000Z</time>
      </trkpt>
      <trkpt lat="45.32532" lon="4.62522">
        <ele>575.20001220703</ele>
        <time>2019-10-30T07:43:24.000Z</time>
      </trkpt>
      <trkpt lat="45.32532" lon="4.6252">
        <ele>575.40002441406</ele>
        <time>2019-10-30T07:43:25.000Z</time>
      </trkpt>
      <trkpt lat="45.32532" lon="4.62518">
        <ele>575.79998779297</ele>
        <time>2019-10-30T07:43:26.000Z</time>
      </trkpt>
      <trkpt lat="45.32532" lon="4.62516">
        <ele>576</ele>
        <time>2019-10-30T07:43:27.000Z</time>
      </trkpt>
      <trkpt lat="45.32533" lon="4.62515">
        <ele>576.20001220703</ele>
        <time>2019-10-30T07:43:28.000Z</time>
      </trkpt>
      <trkpt lat="45.32533" lon="4.62514">
        <ele>576.40002441406</ele>
        <time>2019-10-30T07:43:29.000Z</time>
      </trkpt>
      <trkpt lat="45.32533" lon="4.62512">
        <ele>576.79998779297</ele>
        <time>2019-10-30T07:43:30.000Z</time>
      </trkpt>
      <trkpt lat="45.32534" lon="4.6251">
        <ele>577</ele>
        <time>2019-10-30T07:43:31.000Z</time>
      </trkpt>
      <trkpt lat="45.32534" lon="4.62508">
        <ele>577</ele>
        <time>2019-10-30T07:43:32.000Z</time>
      </trkpt>
      <trkpt lat="45.32535" lon="4.62507">
        <ele>577.20001220703</ele>
        <time>2019-10-30T07:43:33.000Z</time>
      </trkpt>
      <trkpt lat="45.32536" lon="4.62505">
        <ele>577.40002441406</ele>
        <time>2019-10-30T07:43:34.000Z</time>
      </trkpt>
      <trkpt lat="45.32537" lon="4.62503">
        <ele>577.59997558594</ele>
        <time>2019-10-30T07:43:35.000Z</time>
      </trkpt>
      <trkpt lat="45.32538" lon="4.62502">
        <ele>577.59997558594</ele>
        <time>2019-10-30T07:43:36.000Z</time>
      </trkpt>
      <trkpt lat="45.32538" lon="4.625">
        <ele>578</ele>
        <time>2019-10-30T07:43:37.000Z</time>
      </trkpt>
      <trkpt lat="45.32538" lon="4.62498">
        <ele>578</ele>
        <time>2019-10-30T07:43:38.000Z</time>
      </trkpt>
      <trkpt lat="45.32539" lon="4.62496">
        <ele>578.40002441406</ele>
        <time>2019-10-30T07:43:39.000Z</time>
      </trkpt>
      <trkpt lat="45.32539" lon="4.62494">
        <ele>578.59997558594</ele>
        <time>2019-10-30T07:43:40.000Z</time>
      </trkpt>
      <trkpt lat="45.32539" lon="4.62492">
        <ele>578.79998779297</ele>
        <time>2019-10-30T07:43:41.000Z</time>
      </trkpt>
      <trkpt lat="45.3254" lon="4.6249">
        <ele>578.79998779297</ele>
        <time>2019-10-30T07:43:42.000Z</time>
      </trkpt>
      <trkpt lat="45.3254" lon="4.62488">
        <ele>579</ele>
        <time>2019-10-30T07:43:43.000Z</time>
      </trkpt>
      <trkpt lat="45.3254" lon="4.62486">
        <ele>579.59997558594</ele>
        <time>2019-10-30T07:43:44.000Z</time>
      </trkpt>
      <trkpt lat="45.3254" lon="4.62484">
        <ele>579.79998779297</ele>
        <time>2019-10-30T07:43:45.000Z</time>
      </trkpt>
      <trkpt lat="45.32541" lon="4.62483">
        <ele>580.20001220703</ele>
        <time>2019-10-30T07:43:46.000Z</time>
      </trkpt>
      <trkpt lat="45.32541" lon="4.62481">
        <ele>580.40002441406</ele>
        <time>2019-10-30T07:43:47.000Z</time>
      </trkpt>
      <trkpt lat="45.32541" lon="4.6248">
        <ele>580.59997558594</ele>
        <time>2019-10-30T07:43:48.000Z</time>
      </trkpt>
      <trkpt lat="45.32541" lon="4.62478">
        <ele>580.59997558594</ele>
        <time>2019-10-30T07:43:49.000Z</time>
      </trkpt>
      <trkpt lat="45.32542" lon="4.62476">
        <ele>580.79998779297</ele>
        <time>2019-10-30T07:43:50.000Z</time>
      </trkpt>
      <trkpt lat="45.32542" lon="4.62474">
        <ele>580.79998779297</ele>
        <time>2019-10-30T07:43:51.000Z</time>
      </trkpt>
      <trkpt lat="45.32542" lon="4.62472">
        <ele>581</ele>
        <time>2019-10-30T07:43:52.000Z</time>
      </trkpt>
      <trkpt lat="45.32542" lon="4.6247">
        <ele>581.40002441406</ele>
        <time>2019-10-30T07:43:53.000Z</time>
      </trkpt>
      <trkpt lat="45.32543" lon="4.62468">
        <ele>581.59997558594</ele>
        <time>2019-10-30T07:43:54.000Z</time>
      </trkpt>
      <trkpt lat="45.32543" lon="4.62467">
        <ele>581.79998779297</ele>
        <time>2019-10-30T07:43:55.000Z</time>
      </trkpt>
      <trkpt lat="45.32543" lon="4.62465">
        <ele>582</ele>
        <time>2019-10-30T07:43:56.000Z</time>
      </trkpt>
      <trkpt lat="45.32543" lon="4.62463">
        <ele>582.20001220703</ele>
        <time>2019-10-30T07:43:57.000Z</time>
      </trkpt>
      <trkpt lat="45.32544" lon="4.62461">
        <ele>582.40002441406</ele>
        <time>2019-10-30T07:43:58.000Z</time>
      </trkpt>
      <trkpt lat="45.32545" lon="4.62459">
        <ele>582.59997558594</ele>
        <time>2019-10-30T07:43:59.000Z</time>
      </trkpt>
      <trkpt lat="45.32545" lon="4.62457">
        <ele>582.79998779297</ele>
        <time>2019-10-30T07:44:00.000Z</time>
      </trkpt>
      <trkpt lat="45.32546" lon="4.62455">
        <ele>583</ele>
        <time>2019-10-30T07:44:01.000Z</time>
      </trkpt>
      <trkpt lat="45.32546" lon="4.62452">
        <ele>583.20001220703</ele>
        <time>2019-10-30T07:44:02.000Z</time>
      </trkpt>
      <trkpt lat="45.32546" lon="4.62451">
        <ele>583.79998779297</ele>
        <time>2019-10-30T07:44:03.000Z</time>
      </trkpt>
      <trkpt lat="45.32547" lon="4.62449">
        <ele>584.20001220703</ele>
        <time>2019-10-30T07:44:04.000Z</time>
      </trkpt>
      <trkpt lat="45.32547" lon="4.62447">
        <ele>584.20001220703</ele>
        <time>2019-10-30T07:44:05.000Z</time>
      </trkpt>
      <trkpt lat="45.32547" lon="4.62445">
        <ele>584.40002441406</ele>
        <time>2019-10-30T07:44:06.000Z</time>
      </trkpt>
      <trkpt lat="45.32548" lon="4.62444">
        <ele>584.59997558594</ele>
        <time>2019-10-30T07:44:07.000Z</time>
      </trkpt>
      <trkpt lat="45.32548" lon="4.62442">
        <ele>585</ele>
        <time>2019-10-30T07:44:08.000Z</time>
      </trkpt>
      <trkpt lat="45.32548" lon="4.62439">
        <ele>585.20001220703</ele>
        <time>2019-10-30T07:44:09.000Z</time>
      </trkpt>
      <trkpt lat="45.32549" lon="4.62438">
        <ele>585.40002441406</ele>
        <time>2019-10-30T07:44:10.000Z</time>
      </trkpt>
      <trkpt lat="45.32549" lon="4.62436">
        <ele>585.40002441406</ele>
        <time>2019-10-30T07:44:11.000Z</time>
      </trkpt>
      <trkpt lat="45.32549" lon="4.62434">
        <ele>585.79998779297</ele>
        <time>2019-10-30T07:44:12.000Z</time>
      </trkpt>
      <trkpt lat="45.32549" lon="4.62432">
        <ele>586.20001220703</ele>
        <time>2019-10-30T07:44:13.000Z</time>
      </trkpt>
      <trkpt lat="45.3255" lon="4.6243">
        <ele>586.20001220703</ele>
        <time>2019-10-30T07:44:14.000Z</time>
      </trkpt>
      <trkpt lat="45.3255" lon="4.62428">
        <ele>586.20001220703</ele>
        <time>2019-10-30T07:44:15.000Z</time>
      </trkpt>
      <trkpt lat="45.3255" lon="4.62426">
        <ele>586.40002441406</ele>
        <time>2019-10-30T07:44:16.000Z</time>
      </trkpt>
      <trkpt lat="45.32551" lon="4.62424">
        <ele>586.59997558594</ele>
        <time>2019-10-30T07:44:17.000Z</time>
      </trkpt>
      <trkpt lat="45.32551" lon="4.62423">
        <ele>586.79998779297</ele>
        <time>2019-10-30T07:44:18.000Z</time>
      </trkpt>
      <trkpt lat="45.32551" lon="4.62421">
        <ele>587</ele>
        <time>2019-10-30T07:44:19.000Z</time>
      </trkpt>
      <trkpt lat="45.32552" lon="4.6242">
        <ele>587.20001220703</ele>
        <time>2019-10-30T07:44:20.000Z</time>
      </trkpt>
      <trkpt lat="45.32552" lon="4.62419">
        <ele>587.40002441406</ele>
        <time>2019-10-30T07:44:21.000Z</time>
      </trkpt>
      <trkpt lat="45.32552" lon="4.62418">
        <ele>587.59997558594</ele>
        <time>2019-10-30T07:44:22.000Z</time>
      </trkpt>
      <trkpt lat="45.32552" lon="4.62417">
        <ele>589.20001220703</ele>
        <time>2019-10-30T07:44:32.000Z</time>
      </trkpt>
      <trkpt lat="45.32553" lon="4.62417">
        <ele>589.40002441406</ele>
        <time>2019-10-30T07:44:44.000Z</time>
      </trkpt>
      <trkpt lat="45.32554" lon="4.62413">
        <ele>589.59997558594</ele>
        <time>2019-10-30T07:45:05.000Z</time>
      </trkpt>
      <trkpt lat="45.32555" lon="4.62411">
        <ele>589.40002441406</ele>
        <time>2019-10-30T07:45:06.000Z</time>
      </trkpt>
      <trkpt lat="45.32556" lon="4.6241">
        <ele>589.40002441406</ele>
        <time>2019-10-30T07:45:07.000Z</time>
      </trkpt>
      <trkpt lat="45.32557" lon="4.62407">
        <ele>589.59997558594</ele>
        <time>2019-10-30T07:45:08.000Z</time>
      </trkpt>
      <trkpt lat="45.32558" lon="4.62404">
        <ele>589.40002441406</ele>
        <time>2019-10-30T07:45:09.000Z</time>
      </trkpt>
      <trkpt lat="45.32559" lon="4.62402">
        <ele>589.59997558594</ele>
        <time>2019-10-30T07:45:10.000Z</time>
      </trkpt>
      <trkpt lat="45.3256" lon="4.624">
        <ele>589.59997558594</ele>
        <time>2019-10-30T07:45:11.000Z</time>
      </trkpt>
      <trkpt lat="45.32561" lon="4.62397">
        <ele>589.79998779297</ele>
        <time>2019-10-30T07:45:12.000Z</time>
      </trkpt>
      <trkpt lat="45.32562" lon="4.62394">
        <ele>589.79998779297</ele>
        <time>2019-10-30T07:45:13.000Z</time>
      </trkpt>
      <trkpt lat="45.32563" lon="4.62392">
        <ele>590</ele>
        <time>2019-10-30T07:45:14.000Z</time>
      </trkpt>
      <trkpt lat="45.32565" lon="4.62389">
        <ele>590.20001220703</ele>
        <time>2019-10-30T07:45:15.000Z</time>
      </trkpt>
      <trkpt lat="45.32567" lon="4.62386">
        <ele>590.40002441406</ele>
        <time>2019-10-30T07:45:16.000Z</time>
      </trkpt>
      <trkpt lat="45.32568" lon="4.62382">
        <ele>590.59997558594</ele>
        <time>2019-10-30T07:45:17.000Z</time>
      </trkpt>
      <trkpt lat="45.32569" lon="4.62379">
        <ele>590.79998779297</ele>
        <time>2019-10-30T07:45:18.000Z</time>
      </trkpt>
      <trkpt lat="45.32571" lon="4.62375">
        <ele>591.40002441406</ele>
        <time>2019-10-30T07:45:19.000Z</time>
      </trkpt>
      <trkpt lat="45.32573" lon="4.62371">
        <ele>592</ele>
        <time>2019-10-30T07:45:20.000Z</time>
      </trkpt>
      <trkpt lat="45.32575" lon="4.62369">
        <ele>592.59997558594</ele>
        <time>2019-10-30T07:45:21.000Z</time>
      </trkpt>
      <trkpt lat="45.32576" lon="4.62366">
        <ele>593</ele>
        <time>2019-10-30T07:45:22.000Z</time>
      </trkpt>
      <trkpt lat="45.32578" lon="4.62363">
        <ele>593.59997558594</ele>
        <time>2019-10-30T07:45:23.000Z</time>
      </trkpt>
      <trkpt lat="45.32579" lon="4.62361">
        <ele>594</ele>
        <time>2019-10-30T07:45:24.000Z</time>
      </trkpt>
      <trkpt lat="45.3258" lon="4.62358">
        <ele>594.20001220703</ele>
        <time>2019-10-30T07:45:25.000Z</time>
      </trkpt>
      <trkpt lat="45.3258" lon="4.62356">
        <ele>594.59997558594</ele>
        <time>2019-10-30T07:45:26.000Z</time>
      </trkpt>
      <trkpt lat="45.32581" lon="4.62355">
        <ele>595</ele>
        <time>2019-10-30T07:45:27.000Z</time>
      </trkpt>
      <trkpt lat="45.32582" lon="4.62353">
        <ele>595.59997558594</ele>
        <time>2019-10-30T07:45:28.000Z</time>
      </trkpt>
      <trkpt lat="45.32585" lon="4.62349">
        <ele>596</ele>
        <time>2019-10-30T07:45:29.000Z</time>
      </trkpt>
      <trkpt lat="45.32587" lon="4.62347">
        <ele>596.59997558594</ele>
        <time>2019-10-30T07:45:30.000Z</time>
      </trkpt>
      <trkpt lat="45.32589" lon="4.62344">
        <ele>597</ele>
        <time>2019-10-30T07:45:31.000Z</time>
      </trkpt>
      <trkpt lat="45.32591" lon="4.62341">
        <ele>597.40002441406</ele>
        <time>2019-10-30T07:45:32.000Z</time>
      </trkpt>
      <trkpt lat="45.32592" lon="4.62337">
        <ele>597.40002441406</ele>
        <time>2019-10-30T07:45:33.000Z</time>
      </trkpt>
      <trkpt lat="45.32594" lon="4.62333">
        <ele>597.79998779297</ele>
        <time>2019-10-30T07:45:34.000Z</time>
      </trkpt>
      <trkpt lat="45.32596" lon="4.62329">
        <ele>598.40002441406</ele>
        <time>2019-10-30T07:45:35.000Z</time>
      </trkpt>
      <trkpt lat="45.32597" lon="4.62326">
        <ele>598.79998779297</ele>
        <time>2019-10-30T07:45:36.000Z</time>
      </trkpt>
      <trkpt lat="45.32599" lon="4.62323">
        <ele>599.20001220703</ele>
        <time>2019-10-30T07:45:37.000Z</time>
      </trkpt>
      <trkpt lat="45.32601" lon="4.6232">
        <ele>599.40002441406</ele>
        <time>2019-10-30T07:45:38.000Z</time>
      </trkpt>
      <trkpt lat="45.32603" lon="4.62317">
        <ele>599.59997558594</ele>
        <time>2019-10-30T07:45:39.000Z</time>
      </trkpt>
      <trkpt lat="45.32605" lon="4.62315">
        <ele>599.79998779297</ele>
        <time>2019-10-30T07:45:40.000Z</time>
      </trkpt>
      <trkpt lat="45.32607" lon="4.62312">
        <ele>600.59997558594</ele>
        <time>2019-10-30T07:45:41.000Z</time>
      </trkpt>
      <trkpt lat="45.32608" lon="4.6231">
        <ele>601.20001220703</ele>
        <time>2019-10-30T07:45:42.000Z</time>
      </trkpt>
      <trkpt lat="45.3261" lon="4.62308">
        <ele>602</ele>
        <time>2019-10-30T07:45:43.000Z</time>
      </trkpt>
      <trkpt lat="45.32612" lon="4.62307">
        <ele>602.40002441406</ele>
        <time>2019-10-30T07:45:44.000Z</time>
      </trkpt>
      <trkpt lat="45.32614" lon="4.62305">
        <ele>602.59997558594</ele>
        <time>2019-10-30T07:45:45.000Z</time>
      </trkpt>
      <trkpt lat="45.32616" lon="4.62303">
        <ele>603</ele>
        <time>2019-10-30T07:45:46.000Z</time>
      </trkpt>
      <trkpt lat="45.32618" lon="4.62301">
        <ele>603.40002441406</ele>
        <time>2019-10-30T07:45:47.000Z</time>
      </trkpt>
      <trkpt lat="45.32619" lon="4.62298">
        <ele>603.40002441406</ele>
        <time>2019-10-30T07:45:48.000Z</time>
      </trkpt>
      <trkpt lat="45.32621" lon="4.62297">
        <ele>603.79998779297</ele>
        <time>2019-10-30T07:45:49.000Z</time>
      </trkpt>
      <trkpt lat="45.32622" lon="4.62295">
        <ele>604.20001220703</ele>
        <time>2019-10-30T07:45:50.000Z</time>
      </trkpt>
      <trkpt lat="45.32624" lon="4.62293">
        <ele>604.20001220703</ele>
        <time>2019-10-30T07:45:51.000Z</time>
      </trkpt>
      <trkpt lat="45.32625" lon="4.62291">
        <ele>604.79998779297</ele>
        <time>2019-10-30T07:45:52.000Z</time>
      </trkpt>
      <trkpt lat="45.32627" lon="4.62289">
        <ele>605.20001220703</ele>
        <time>2019-10-30T07:45:53.000Z</time>
      </trkpt>
      <trkpt lat="45.32629" lon="4.62287">
        <ele>605.20001220703</ele>
        <time>2019-10-30T07:45:54.000Z</time>
      </trkpt>
      <trkpt lat="45.3263" lon="4.62286">
        <ele>605.59997558594</ele>
        <time>2019-10-30T07:45:55.000Z</time>
      </trkpt>
      <trkpt lat="45.32632" lon="4.62284">
        <ele>606.40002441406</ele>
        <time>2019-10-30T07:45:56.000Z</time>
      </trkpt>
      <trkpt lat="45.32632" lon="4.62282">
        <ele>606.59997558594</ele>
        <time>2019-10-30T07:45:57.000Z</time>
      </trkpt>
      <trkpt lat="45.32633" lon="4.62281">
        <ele>607.20001220703</ele>
        <time>2019-10-30T07:45:58.000Z</time>
      </trkpt>
      <trkpt lat="45.32633" lon="4.6228">
        <ele>607.59997558594</ele>
        <time>2019-10-30T07:46:00.000Z</time>
      </trkpt>
      <trkpt lat="45.32636" lon="4.62274">
        <ele>610</ele>
        <time>2019-10-30T07:46:10.000Z</time>
      </trkpt>
      <trkpt lat="45.32637" lon="4.62273">
        <ele>610</ele>
        <time>2019-10-30T07:46:11.000Z</time>
      </trkpt>
      <trkpt lat="45.32638" lon="4.62272">
        <ele>610</ele>
        <time>2019-10-30T07:46:12.000Z</time>
      </trkpt>
      <trkpt lat="45.3264" lon="4.62271">
        <ele>610</ele>
        <time>2019-10-30T07:46:13.000Z</time>
      </trkpt>
      <trkpt lat="45.32642" lon="4.62268">
        <ele>610</ele>
        <time>2019-10-30T07:46:15.000Z</time>
      </trkpt>
      <trkpt lat="45.32643" lon="4.62267">
        <ele>610</ele>
        <time>2019-10-30T07:46:16.000Z</time>
      </trkpt>
      <trkpt lat="45.32644" lon="4.62265">
        <ele>610.20001220703</ele>
        <time>2019-10-30T07:46:17.000Z</time>
      </trkpt>
      <trkpt lat="45.32646" lon="4.62264">
        <ele>610.20001220703</ele>
        <time>2019-10-30T07:46:18.000Z</time>
      </trkpt>
      <trkpt lat="45.32648" lon="4.62262">
        <ele>610.20001220703</ele>
        <time>2019-10-30T07:46:19.000Z</time>
      </trkpt>
      <trkpt lat="45.32649" lon="4.62261">
        <ele>610.20001220703</ele>
        <time>2019-10-30T07:46:20.000Z</time>
      </trkpt>
      <trkpt lat="45.3265" lon="4.6226">
        <ele>610.20001220703</ele>
        <time>2019-10-30T07:46:21.000Z</time>
      </trkpt>
      <trkpt lat="45.32651" lon="4.62259">
        <ele>610.59997558594</ele>
        <time>2019-10-30T07:46:22.000Z</time>
      </trkpt>
      <trkpt lat="45.32652" lon="4.62258">
        <ele>610.59997558594</ele>
        <time>2019-10-30T07:46:23.000Z</time>
      </trkpt>
      <trkpt lat="45.32654" lon="4.62257">
        <ele>611</ele>
        <time>2019-10-30T07:46:24.000Z</time>
      </trkpt>
      <trkpt lat="45.32655" lon="4.62256">
        <ele>611</ele>
        <time>2019-10-30T07:46:25.000Z</time>
      </trkpt>
      <trkpt lat="45.32656" lon="4.62254">
        <ele>611.20001220703</ele>
        <time>2019-10-30T07:46:26.000Z</time>
      </trkpt>
      <trkpt lat="45.32658" lon="4.62254">
        <ele>611.59997558594</ele>
        <time>2019-10-30T07:46:27.000Z</time>
      </trkpt>
      <trkpt lat="45.32659" lon="4.62253">
        <ele>611.59997558594</ele>
        <time>2019-10-30T07:46:28.000Z</time>
      </trkpt>
      <trkpt lat="45.3266" lon="4.62252">
        <ele>611.79998779297</ele>
        <time>2019-10-30T07:46:29.000Z</time>
      </trkpt>
      <trkpt lat="45.32661" lon="4.62251">
        <ele>612.20001220703</ele>
        <time>2019-10-30T07:46:30.000Z</time>
      </trkpt>
      <trkpt lat="45.32662" lon="4.6225">
        <ele>612.40002441406</ele>
        <time>2019-10-30T07:46:31.000Z</time>
      </trkpt>
      <trkpt lat="45.32663" lon="4.62249">
        <ele>612.79998779297</ele>
        <time>2019-10-30T07:46:32.000Z</time>
      </trkpt>
      <trkpt lat="45.32664" lon="4.62248">
        <ele>613</ele>
        <time>2019-10-30T07:46:33.000Z</time>
      </trkpt>
      <trkpt lat="45.32665" lon="4.62247">
        <ele>613.20001220703</ele>
        <time>2019-10-30T07:46:34.000Z</time>
      </trkpt>
      <trkpt lat="45.32665" lon="4.62247">
        <ele>613.59997558594</ele>
        <time>2019-10-30T07:46:35.000Z</time>
      </trkpt>
      <trkpt lat="45.32665" lon="4.62246">
        <ele>614</ele>
        <time>2019-10-30T07:46:36.000Z</time>
      </trkpt>
      <trkpt lat="45.32667" lon="4.62245">
        <ele>615.59997558594</ele>
        <time>2019-10-30T07:46:47.000Z</time>
      </trkpt>
      <trkpt lat="45.32668" lon="4.62244">
        <ele>615.40002441406</ele>
        <time>2019-10-30T07:46:48.000Z</time>
      </trkpt>
      <trkpt lat="45.32672" lon="4.62238">
        <ele>615.59997558594</ele>
        <time>2019-10-30T07:46:51.000Z</time>
      </trkpt>
      <trkpt lat="45.32674" lon="4.62236">
        <ele>615.59997558594</ele>
        <time>2019-10-30T07:46:52.000Z</time>
      </trkpt>
      <trkpt lat="45.32675" lon="4.62234">
        <ele>615.59997558594</ele>
        <time>2019-10-30T07:46:53.000Z</time>
      </trkpt>
      <trkpt lat="45.32676" lon="4.62232">
        <ele>615.79998779297</ele>
        <time>2019-10-30T07:46:54.000Z</time>
      </trkpt>
      <trkpt lat="45.32677" lon="4.6223">
        <ele>615.79998779297</ele>
        <time>2019-10-30T07:46:55.000Z</time>
      </trkpt>
      <trkpt lat="45.32679" lon="4.62228">
        <ele>615.59997558594</ele>
        <time>2019-10-30T07:46:56.000Z</time>
      </trkpt>
      <trkpt lat="45.3268" lon="4.62227">
        <ele>615.59997558594</ele>
        <time>2019-10-30T07:46:57.000Z</time>
      </trkpt>
      <trkpt lat="45.32681" lon="4.62225">
        <ele>615.59997558594</ele>
        <time>2019-10-30T07:46:58.000Z</time>
      </trkpt>
      <trkpt lat="45.32683" lon="4.62224">
        <ele>615.79998779297</ele>
        <time>2019-10-30T07:46:59.000Z</time>
      </trkpt>
      <trkpt lat="45.32684" lon="4.62222">
        <ele>615.79998779297</ele>
        <time>2019-10-30T07:47:00.000Z</time>
      </trkpt>
      <trkpt lat="45.32684" lon="4.62221">
        <ele>616.20001220703</ele>
        <time>2019-10-30T07:47:01.000Z</time>
      </trkpt>
      <trkpt lat="45.32684" lon="4.6222">
        <ele>616.59997558594</ele>
        <time>2019-10-30T07:47:02.000Z</time>
      </trkpt>
      <trkpt lat="45.32685" lon="4.62219">
        <ele>617.59997558594</ele>
        <time>2019-10-30T07:47:04.000Z</time>
      </trkpt>
      <trkpt lat="45.32685" lon="4.62218">
        <ele>618</ele>
        <time>2019-10-30T07:47:05.000Z</time>
      </trkpt>
      <trkpt lat="45.32688" lon="4.62216">
        <ele>619.59997558594</ele>
        <time>2019-10-30T07:47:13.000Z</time>
      </trkpt>
      <trkpt lat="45.32689" lon="4.62215">
        <ele>619.59997558594</ele>
        <time>2019-10-30T07:47:14.000Z</time>
      </trkpt>
      <trkpt lat="45.32689" lon="4.62215">
        <ele>619.79998779297</ele>
        <time>2019-10-30T07:47:15.000Z</time>
      </trkpt>
      <trkpt lat="45.32689" lon="4.62214">
        <ele>620</ele>
        <time>2019-10-30T07:47:19.000Z</time>
      </trkpt>
      <trkpt lat="45.32689" lon="4.62214">
        <ele>620.20001220703</ele>
        <time>2019-10-30T07:47:24.000Z</time>
      </trkpt>
      <trkpt lat="45.32689" lon="4.62214">
        <ele>620.20001220703</ele>
        <time>2019-10-30T07:47:36.000Z</time>
      </trkpt>
      <trkpt lat="45.32689" lon="4.62213">
        <ele>620.20001220703</ele>
        <time>2019-10-30T07:47:48.000Z</time>
      </trkpt>
      <trkpt lat="45.3269" lon="4.62213">
        <ele>620.20001220703</ele>
        <time>2019-10-30T07:47:54.000Z</time>
      </trkpt>
      <trkpt lat="45.3269" lon="4.62214">
        <ele>620.20001220703</ele>
        <time>2019-10-30T07:48:06.000Z</time>
      </trkpt>
      <trkpt lat="45.3269" lon="4.62214">
        <ele>620.20001220703</ele>
        <time>2019-10-30T07:48:28.000Z</time>
      </trkpt>
      <trkpt lat="45.3269" lon="4.62214">
        <ele>620.20001220703</ele>
        <time>2019-10-30T07:48:36.000Z</time>
      </trkpt>
      <trkpt lat="45.32689" lon="4.62213">
        <ele>620.40002441406</ele>
        <time>2019-10-30T07:48:38.000Z</time>
      </trkpt>
      <trkpt lat="45.32689" lon="4.62214">
        <ele>620.40002441406</ele>
        <time>2019-10-30T07:48:39.000Z</time>
      </trkpt>
      <trkpt lat="45.32688" lon="4.62214">
        <ele>620.20001220703</ele>
        <time>2019-10-30T07:48:50.000Z</time>
      </trkpt>
      <trkpt lat="45.32689" lon="4.62213">
        <ele>620.20001220703</ele>
        <time>2019-10-30T07:49:03.000Z</time>
      </trkpt>
      <trkpt lat="45.32691" lon="4.62213">
        <ele>620.20001220703</ele>
        <time>2019-10-30T07:49:05.000Z</time>
      </trkpt>
      <trkpt lat="45.32693" lon="4.62213">
        <ele>620.20001220703</ele>
        <time>2019-10-30T07:49:06.000Z</time>
      </trkpt>
      <trkpt lat="45.32695" lon="4.62213">
        <ele>620.20001220703</ele>
        <time>2019-10-30T07:49:07.000Z</time>
      </trkpt>
      <trkpt lat="45.32698" lon="4.62213">
        <ele>620.40002441406</ele>
        <time>2019-10-30T07:49:09.000Z</time>
      </trkpt>
      <trkpt lat="45.32699" lon="4.62213">
        <ele>620.20001220703</ele>
        <time>2019-10-30T07:49:10.000Z</time>
      </trkpt>
      <trkpt lat="45.32701" lon="4.62213">
        <ele>620.40002441406</ele>
        <time>2019-10-30T07:49:11.000Z</time>
      </trkpt>
      <trkpt lat="45.32702" lon="4.62213">
        <ele>620.40002441406</ele>
        <time>2019-10-30T07:49:12.000Z</time>
      </trkpt>
      <trkpt lat="45.32705" lon="4.62214">
        <ele>620.20001220703</ele>
        <time>2019-10-30T07:49:14.000Z</time>
      </trkpt>
      <trkpt lat="45.32706" lon="4.62215">
        <ele>620.20001220703</ele>
        <time>2019-10-30T07:49:15.000Z</time>
      </trkpt>
      <trkpt lat="45.32707" lon="4.62216">
        <ele>620.40002441406</ele>
        <time>2019-10-30T07:49:16.000Z</time>
      </trkpt>
      <trkpt lat="45.3271" lon="4.62219">
        <ele>620.20001220703</ele>
        <time>2019-10-30T07:49:18.000Z</time>
      </trkpt>
      <trkpt lat="45.32712" lon="4.6222">
        <ele>620.20001220703</ele>
        <time>2019-10-30T07:49:19.000Z</time>
      </trkpt>
      <trkpt lat="45.32713" lon="4.62221">
        <ele>620.40002441406</ele>
        <time>2019-10-30T07:49:20.000Z</time>
      </trkpt>
      <trkpt lat="45.32714" lon="4.62222">
        <ele>620.40002441406</ele>
        <time>2019-10-30T07:49:21.000Z</time>
      </trkpt>
      <trkpt lat="45.32715" lon="4.62224">
        <ele>620.59997558594</ele>
        <time>2019-10-30T07:49:22.000Z</time>
      </trkpt>
      <trkpt lat="45.32716" lon="4.62226">
        <ele>620.40002441406</ele>
        <time>2019-10-30T07:49:23.000Z</time>
      </trkpt>
      <trkpt lat="45.32717" lon="4.62228">
        <ele>620.59997558594</ele>
        <time>2019-10-30T07:49:24.000Z</time>
      </trkpt>
      <trkpt lat="45.32717" lon="4.6223">
        <ele>620.79998779297</ele>
        <time>2019-10-30T07:49:25.000Z</time>
      </trkpt>
      <trkpt lat="45.32718" lon="4.62232">
        <ele>620.59997558594</ele>
        <time>2019-10-30T07:49:26.000Z</time>
      </trkpt>
      <trkpt lat="45.32719" lon="4.62234">
        <ele>620.59997558594</ele>
        <time>2019-10-30T07:49:27.000Z</time>
      </trkpt>
      <trkpt lat="45.32721" lon="4.62236">
        <ele>621</ele>
        <time>2019-10-30T07:49:28.000Z</time>
      </trkpt>
      <trkpt lat="45.32722" lon="4.62239">
        <ele>621</ele>
        <time>2019-10-30T07:49:29.000Z</time>
      </trkpt>
      <trkpt lat="45.32723" lon="4.62241">
        <ele>621.20001220703</ele>
        <time>2019-10-30T07:49:30.000Z</time>
      </trkpt>
      <trkpt lat="45.32724" lon="4.62244">
        <ele>621.40002441406</ele>
        <time>2019-10-30T07:49:31.000Z</time>
      </trkpt>
      <trkpt lat="45.32725" lon="4.62246">
        <ele>621.20001220703</ele>
        <time>2019-10-30T07:49:32.000Z</time>
      </trkpt>
      <trkpt lat="45.32728" lon="4.62251">
        <ele>621.79998779297</ele>
        <time>2019-10-30T07:49:34.000Z</time>
      </trkpt>
      <trkpt lat="45.32729" lon="4.62254">
        <ele>621.79998779297</ele>
        <time>2019-10-30T07:49:35.000Z</time>
      </trkpt>
      <trkpt lat="45.3273" lon="4.62256">
        <ele>622</ele>
        <time>2019-10-30T07:49:36.000Z</time>
      </trkpt>
      <trkpt lat="45.32731" lon="4.62258">
        <ele>622.20001220703</ele>
        <time>2019-10-30T07:49:37.000Z</time>
      </trkpt>
      <trkpt lat="45.32732" lon="4.6226">
        <ele>622.40002441406</ele>
        <time>2019-10-30T07:49:38.000Z</time>
      </trkpt>
      <trkpt lat="45.32733" lon="4.62262">
        <ele>622.20001220703</ele>
        <time>2019-10-30T07:49:39.000Z</time>
      </trkpt>
      <trkpt lat="45.32734" lon="4.62265">
        <ele>622.40002441406</ele>
        <time>2019-10-30T07:49:40.000Z</time>
      </trkpt>
      <trkpt lat="45.32735" lon="4.62268">
        <ele>622.59997558594</ele>
        <time>2019-10-30T07:49:41.000Z</time>
      </trkpt>
      <trkpt lat="45.32736" lon="4.6227">
        <ele>622.59997558594</ele>
        <time>2019-10-30T07:49:42.000Z</time>
      </trkpt>
      <trkpt lat="45.32738" lon="4.62273">
        <ele>622.59997558594</ele>
        <time>2019-10-30T07:49:43.000Z</time>
      </trkpt>
      <trkpt lat="45.32739" lon="4.62276">
        <ele>622.59997558594</ele>
        <time>2019-10-30T07:49:44.000Z</time>
      </trkpt>
      <trkpt lat="45.3274" lon="4.62278">
        <ele>622.79998779297</ele>
        <time>2019-10-30T07:49:45.000Z</time>
      </trkpt>
      <trkpt lat="45.32741" lon="4.62281">
        <ele>623</ele>
        <time>2019-10-30T07:49:46.000Z</time>
      </trkpt>
      <trkpt lat="45.32742" lon="4.62284">
        <ele>623</ele>
        <time>2019-10-30T07:49:47.000Z</time>
      </trkpt>
      <trkpt lat="45.32744" lon="4.62286">
        <ele>623.20001220703</ele>
        <time>2019-10-30T07:49:48.000Z</time>
      </trkpt>
      <trkpt lat="45.32745" lon="4.62288">
        <ele>623.40002441406</ele>
        <time>2019-10-30T07:49:49.000Z</time>
      </trkpt>
      <trkpt lat="45.32746" lon="4.6229">
        <ele>623.59997558594</ele>
        <time>2019-10-30T07:49:50.000Z</time>
      </trkpt>
      <trkpt lat="45.32748" lon="4.62292">
        <ele>623.79998779297</ele>
        <time>2019-10-30T07:49:51.000Z</time>
      </trkpt>
      <trkpt lat="45.32749" lon="4.62295">
        <ele>623.79998779297</ele>
        <time>2019-10-30T07:49:52.000Z</time>
      </trkpt>
      <trkpt lat="45.32751" lon="4.62296">
        <ele>623.79998779297</ele>
        <time>2019-10-30T07:49:53.000Z</time>
      </trkpt>
      <trkpt lat="45.32752" lon="4.62298">
        <ele>624</ele>
        <time>2019-10-30T07:49:54.000Z</time>
      </trkpt>
      <trkpt lat="45.32753" lon="4.623">
        <ele>624.20001220703</ele>
        <time>2019-10-30T07:49:55.000Z</time>
      </trkpt>
      <trkpt lat="45.32755" lon="4.62302">
        <ele>624.40002441406</ele>
        <time>2019-10-30T07:49:56.000Z</time>
      </trkpt>
      <trkpt lat="45.32757" lon="4.62304">
        <ele>624.59997558594</ele>
        <time>2019-10-30T07:49:57.000Z</time>
      </trkpt>
      <trkpt lat="45.32758" lon="4.62306">
        <ele>624.79998779297</ele>
        <time>2019-10-30T07:49:58.000Z</time>
      </trkpt>
      <trkpt lat="45.3276" lon="4.62308">
        <ele>625</ele>
        <time>2019-10-30T07:49:59.000Z</time>
      </trkpt>
      <trkpt lat="45.32762" lon="4.6231">
        <ele>625</ele>
        <time>2019-10-30T07:50:00.000Z</time>
      </trkpt>
      <trkpt lat="45.32764" lon="4.62312">
        <ele>625.20001220703</ele>
        <time>2019-10-30T07:50:01.000Z</time>
      </trkpt>
      <trkpt lat="45.32766" lon="4.62313">
        <ele>625.40002441406</ele>
        <time>2019-10-30T07:50:02.000Z</time>
      </trkpt>
      <trkpt lat="45.32768" lon="4.62315">
        <ele>625.59997558594</ele>
        <time>2019-10-30T07:50:03.000Z</time>
      </trkpt>
      <trkpt lat="45.3277" lon="4.62317">
        <ele>625.59997558594</ele>
        <time>2019-10-30T07:50:04.000Z</time>
      </trkpt>
      <trkpt lat="45.32772" lon="4.62319">
        <ele>625.59997558594</ele>
        <time>2019-10-30T07:50:05.000Z</time>
      </trkpt>
      <trkpt lat="45.32774" lon="4.6232">
        <ele>625.79998779297</ele>
        <time>2019-10-30T07:50:06.000Z</time>
      </trkpt>
      <trkpt lat="45.32776" lon="4.62322">
        <ele>626</ele>
        <time>2019-10-30T07:50:07.000Z</time>
      </trkpt>
      <trkpt lat="45.32778" lon="4.62323">
        <ele>626.20001220703</ele>
        <time>2019-10-30T07:50:08.000Z</time>
      </trkpt>
      <trkpt lat="45.3278" lon="4.62325">
        <ele>626.20001220703</ele>
        <time>2019-10-30T07:50:09.000Z</time>
      </trkpt>
      <trkpt lat="45.32782" lon="4.62326">
        <ele>626.59997558594</ele>
        <time>2019-10-30T07:50:10.000Z</time>
      </trkpt>
      <trkpt lat="45.32784" lon="4.62328">
        <ele>626.79998779297</ele>
        <time>2019-10-30T07:50:11.000Z</time>
      </trkpt>
      <trkpt lat="45.32786" lon="4.62329">
        <ele>626.79998779297</ele>
        <time>2019-10-30T07:50:12.000Z</time>
      </trkpt>
      <trkpt lat="45.32788" lon="4.6233">
        <ele>627</ele>
        <time>2019-10-30T07:50:13.000Z</time>
      </trkpt>
      <trkpt lat="45.3279" lon="4.62331">
        <ele>627.20001220703</ele>
        <time>2019-10-30T07:50:14.000Z</time>
      </trkpt>
      <trkpt lat="45.32792" lon="4.62332">
        <ele>627.20001220703</ele>
        <time>2019-10-30T07:50:15.000Z</time>
      </trkpt>
      <trkpt lat="45.32795" lon="4.62333">
        <ele>627.40002441406</ele>
        <time>2019-10-30T07:50:16.000Z</time>
      </trkpt>
      <trkpt lat="45.32797" lon="4.62335">
        <ele>627.59997558594</ele>
        <time>2019-10-30T07:50:17.000Z</time>
      </trkpt>
      <trkpt lat="45.32799" lon="4.62335">
        <ele>627.59997558594</ele>
        <time>2019-10-30T07:50:18.000Z</time>
      </trkpt>
      <trkpt lat="45.32801" lon="4.62336">
        <ele>627.59997558594</ele>
        <time>2019-10-30T07:50:19.000Z</time>
      </trkpt>
      <trkpt lat="45.32803" lon="4.62337">
        <ele>627.79998779297</ele>
        <time>2019-10-30T07:50:20.000Z</time>
      </trkpt>
      <trkpt lat="45.32805" lon="4.62338">
        <ele>628</ele>
        <time>2019-10-30T07:50:21.000Z</time>
      </trkpt>
      <trkpt lat="45.32807" lon="4.62339">
        <ele>628</ele>
        <time>2019-10-30T07:50:22.000Z</time>
      </trkpt>
      <trkpt lat="45.32809" lon="4.62341">
        <ele>628.20001220703</ele>
        <time>2019-10-30T07:50:23.000Z</time>
      </trkpt>
      <trkpt lat="45.3281" lon="4.62342">
        <ele>628.40002441406</ele>
        <time>2019-10-30T07:50:24.000Z</time>
      </trkpt>
      <trkpt lat="45.32811" lon="4.62344">
        <ele>628.59997558594</ele>
        <time>2019-10-30T07:50:25.000Z</time>
      </trkpt>
      <trkpt lat="45.32812" lon="4.62347">
        <ele>628.59997558594</ele>
        <time>2019-10-30T07:50:26.000Z</time>
      </trkpt>
      <trkpt lat="45.32814" lon="4.62352">
        <ele>628.59997558594</ele>
        <time>2019-10-30T07:50:27.000Z</time>
      </trkpt>
      <trkpt lat="45.32816" lon="4.62358">
        <ele>628.59997558594</ele>
        <time>2019-10-30T07:50:28.000Z</time>
      </trkpt>
      <trkpt lat="45.32818" lon="4.62365">
        <ele>628.59997558594</ele>
        <time>2019-10-30T07:50:29.000Z</time>
      </trkpt>
      <trkpt lat="45.32823" lon="4.62378">
        <ele>628.59997558594</ele>
        <time>2019-10-30T07:50:31.000Z</time>
      </trkpt>
      <trkpt lat="45.32826" lon="4.62383">
        <ele>628.59997558594</ele>
        <time>2019-10-30T07:50:32.000Z</time>
      </trkpt>
      <trkpt lat="45.32829" lon="4.62388">
        <ele>628.79998779297</ele>
        <time>2019-10-30T07:50:33.000Z</time>
      </trkpt>
      <trkpt lat="45.32833" lon="4.62393">
        <ele>628.59997558594</ele>
        <time>2019-10-30T07:50:34.000Z</time>
      </trkpt>
      <trkpt lat="45.32838" lon="4.62399">
        <ele>628.79998779297</ele>
        <time>2019-10-30T07:50:35.000Z</time>
      </trkpt>
      <trkpt lat="45.32844" lon="4.62404">
        <ele>628.40002441406</ele>
        <time>2019-10-30T07:50:36.000Z</time>
      </trkpt>
      <trkpt lat="45.32856" lon="4.62417">
        <ele>626.79998779297</ele>
        <time>2019-10-30T07:50:38.000Z</time>
      </trkpt>
      <trkpt lat="45.32868" lon="4.62428">
        <ele>625.79998779297</ele>
        <time>2019-10-30T07:50:40.000Z</time>
      </trkpt>
      <trkpt lat="45.32881" lon="4.62437">
        <ele>624.79998779297</ele>
        <time>2019-10-30T07:50:42.000Z</time>
      </trkpt>
      <trkpt lat="45.32888" lon="4.62441">
        <ele>624.40002441406</ele>
        <time>2019-10-30T07:50:43.000Z</time>
      </trkpt>
      <trkpt lat="45.32896" lon="4.62444">
        <ele>623.79998779297</ele>
        <time>2019-10-30T07:50:44.000Z</time>
      </trkpt>
      <trkpt lat="45.32904" lon="4.62446">
        <ele>623.79998779297</ele>
        <time>2019-10-30T07:50:45.000Z</time>
      </trkpt>
      <trkpt lat="45.32928" lon="4.62451">
        <ele>621.20001220703</ele>
        <time>2019-10-30T07:50:48.000Z</time>
      </trkpt>
      <trkpt lat="45.32935" lon="4.62452">
        <ele>620.79998779297</ele>
        <time>2019-10-30T07:50:49.000Z</time>
      </trkpt>
      <trkpt lat="45.32943" lon="4.62453">
        <ele>620.20001220703</ele>
        <time>2019-10-30T07:50:50.000Z</time>
      </trkpt>
      <trkpt lat="45.32959" lon="4.62454">
        <ele>619.40002441406</ele>
        <time>2019-10-30T07:50:52.000Z</time>
      </trkpt>
      <trkpt lat="45.32974" lon="4.62455">
        <ele>618.40002441406</ele>
        <time>2019-10-30T07:50:54.000Z</time>
      </trkpt>
      <trkpt lat="45.32982" lon="4.62455">
        <ele>617.79998779297</ele>
        <time>2019-10-30T07:50:55.000Z</time>
      </trkpt>
      <trkpt lat="45.3299" lon="4.62455">
        <ele>617.20001220703</ele>
        <time>2019-10-30T07:50:56.000Z</time>
      </trkpt>
      <trkpt lat="45.32997" lon="4.62455">
        <ele>617</ele>
        <time>2019-10-30T07:50:57.000Z</time>
      </trkpt>
      <trkpt lat="45.33002" lon="4.62457">
        <ele>616.59997558594</ele>
        <time>2019-10-30T07:50:58.000Z</time>
      </trkpt>
      <trkpt lat="45.33007" lon="4.6246">
        <ele>616.59997558594</ele>
        <time>2019-10-30T07:50:59.000Z</time>
      </trkpt>
      <trkpt lat="45.33011" lon="4.62465">
        <ele>616.40002441406</ele>
        <time>2019-10-30T07:51:00.000Z</time>
      </trkpt>
      <trkpt lat="45.33014" lon="4.62472">
        <ele>616.20001220703</ele>
        <time>2019-10-30T07:51:01.000Z</time>
      </trkpt>
      <trkpt lat="45.33017" lon="4.62478">
        <ele>616.20001220703</ele>
        <time>2019-10-30T07:51:02.000Z</time>
      </trkpt>
      <trkpt lat="45.33019" lon="4.62484">
        <ele>615.79998779297</ele>
        <time>2019-10-30T07:51:03.000Z</time>
      </trkpt>
      <trkpt lat="45.33021" lon="4.62489">
        <ele>615.79998779297</ele>
        <time>2019-10-30T07:51:04.000Z</time>
      </trkpt>
      <trkpt lat="45.33023" lon="4.62494">
        <ele>615.79998779297</ele>
        <time>2019-10-30T07:51:05.000Z</time>
      </trkpt>
      <trkpt lat="45.33025" lon="4.62499">
        <ele>615.79998779297</ele>
        <time>2019-10-30T07:51:06.000Z</time>
      </trkpt>
      <trkpt lat="45.33026" lon="4.62503">
        <ele>615.79998779297</ele>
        <time>2019-10-30T07:51:07.000Z</time>
      </trkpt>
      <trkpt lat="45.33028" lon="4.62507">
        <ele>615.79998779297</ele>
        <time>2019-10-30T07:51:08.000Z</time>
      </trkpt>
      <trkpt lat="45.33029" lon="4.62511">
        <ele>615.79998779297</ele>
        <time>2019-10-30T07:51:09.000Z</time>
      </trkpt>
      <trkpt lat="45.33031" lon="4.62514">
        <ele>615.79998779297</ele>
        <time>2019-10-30T07:51:10.000Z</time>
      </trkpt>
      <trkpt lat="45.33033" lon="4.62518">
        <ele>615.79998779297</ele>
        <time>2019-10-30T07:51:11.000Z</time>
      </trkpt>
      <trkpt lat="45.33035" lon="4.62522">
        <ele>615.79998779297</ele>
        <time>2019-10-30T07:51:12.000Z</time>
      </trkpt>
      <trkpt lat="45.33045" lon="4.62543">
        <ele>616</ele>
        <time>2019-10-30T07:51:17.000Z</time>
      </trkpt>
      <trkpt lat="45.33053" lon="4.62557">
        <ele>616.20001220703</ele>
        <time>2019-10-30T07:51:20.000Z</time>
      </trkpt>
      <trkpt lat="45.33063" lon="4.62571">
        <ele>616.20001220703</ele>
        <time>2019-10-30T07:51:24.000Z</time>
      </trkpt>
      <trkpt lat="45.33067" lon="4.62573">
        <ele>616.20001220703</ele>
        <time>2019-10-30T07:51:25.000Z</time>
      </trkpt>
      <trkpt lat="45.3307" lon="4.62574">
        <ele>616</ele>
        <time>2019-10-30T07:51:26.000Z</time>
      </trkpt>
      <trkpt lat="45.33074" lon="4.62575">
        <ele>616</ele>
        <time>2019-10-30T07:51:27.000Z</time>
      </trkpt>
      <trkpt lat="45.33079" lon="4.62574">
        <ele>615.79998779297</ele>
        <time>2019-10-30T07:51:28.000Z</time>
      </trkpt>
      <trkpt lat="45.33085" lon="4.62572">
        <ele>615.40002441406</ele>
        <time>2019-10-30T07:51:29.000Z</time>
      </trkpt>
      <trkpt lat="45.33091" lon="4.6257">
        <ele>615.40002441406</ele>
        <time>2019-10-30T07:51:30.000Z</time>
      </trkpt>
      <trkpt lat="45.33096" lon="4.62568">
        <ele>615.20001220703</ele>
        <time>2019-10-30T07:51:31.000Z</time>
      </trkpt>
      <trkpt lat="45.33107" lon="4.62564">
        <ele>614.79998779297</ele>
        <time>2019-10-30T07:51:33.000Z</time>
      </trkpt>
      <trkpt lat="45.33112" lon="4.62564">
        <ele>614.79998779297</ele>
        <time>2019-10-30T07:51:34.000Z</time>
      </trkpt>
      <trkpt lat="45.33116" lon="4.62565">
        <ele>614.20001220703</ele>
        <time>2019-10-30T07:51:35.000Z</time>
      </trkpt>
      <trkpt lat="45.33118" lon="4.62567">
        <ele>614.20001220703</ele>
        <time>2019-10-30T07:51:36.000Z</time>
      </trkpt>
      <trkpt lat="45.33119" lon="4.6257">
        <ele>613.40002441406</ele>
        <time>2019-10-30T07:51:37.000Z</time>
      </trkpt>
      <trkpt lat="45.3312" lon="4.62572">
        <ele>613</ele>
        <time>2019-10-30T07:51:38.000Z</time>
      </trkpt>
      <trkpt lat="45.33121" lon="4.62575">
        <ele>612.79998779297</ele>
        <time>2019-10-30T07:51:39.000Z</time>
      </trkpt>
      <trkpt lat="45.33122" lon="4.62578">
        <ele>612.59997558594</ele>
        <time>2019-10-30T07:51:40.000Z</time>
      </trkpt>
      <trkpt lat="45.33123" lon="4.6258">
        <ele>612.40002441406</ele>
        <time>2019-10-30T07:51:41.000Z</time>
      </trkpt>
      <trkpt lat="45.33124" lon="4.62582">
        <ele>612.59997558594</ele>
        <time>2019-10-30T07:51:42.000Z</time>
      </trkpt>
      <trkpt lat="45.33124" lon="4.62584">
        <ele>612.59997558594</ele>
        <time>2019-10-30T07:51:43.000Z</time>
      </trkpt>
      <trkpt lat="45.33125" lon="4.62586">
        <ele>612.40002441406</ele>
        <time>2019-10-30T07:51:44.000Z</time>
      </trkpt>
      <trkpt lat="45.33126" lon="4.62588">
        <ele>612.40002441406</ele>
        <time>2019-10-30T07:51:45.000Z</time>
      </trkpt>
      <trkpt lat="45.33126" lon="4.6259">
        <ele>612.40002441406</ele>
        <time>2019-10-30T07:51:46.000Z</time>
      </trkpt>
      <trkpt lat="45.33127" lon="4.62592">
        <ele>612.59997558594</ele>
        <time>2019-10-30T07:51:47.000Z</time>
      </trkpt>
      <trkpt lat="45.33128" lon="4.62594">
        <ele>612.59997558594</ele>
        <time>2019-10-30T07:51:48.000Z</time>
      </trkpt>
      <trkpt lat="45.33128" lon="4.62596">
        <ele>612.79998779297</ele>
        <time>2019-10-30T07:51:49.000Z</time>
      </trkpt>
      <trkpt lat="45.33129" lon="4.62598">
        <ele>613.20001220703</ele>
        <time>2019-10-30T07:51:50.000Z</time>
      </trkpt>
      <trkpt lat="45.3313" lon="4.626">
        <ele>613.40002441406</ele>
        <time>2019-10-30T07:51:51.000Z</time>
      </trkpt>
      <trkpt lat="45.33131" lon="4.62602">
        <ele>613.59997558594</ele>
        <time>2019-10-30T07:51:52.000Z</time>
      </trkpt>
      <trkpt lat="45.33132" lon="4.62604">
        <ele>614</ele>
        <time>2019-10-30T07:51:53.000Z</time>
      </trkpt>
      <trkpt lat="45.33133" lon="4.62605">
        <ele>614</ele>
        <time>2019-10-30T07:51:54.000Z</time>
      </trkpt>
      <trkpt lat="45.33133" lon="4.62607">
        <ele>614.20001220703</ele>
        <time>2019-10-30T07:51:55.000Z</time>
      </trkpt>
      <trkpt lat="45.33134" lon="4.62609">
        <ele>614.40002441406</ele>
        <time>2019-10-30T07:51:56.000Z</time>
      </trkpt>
      <trkpt lat="45.33135" lon="4.6261">
        <ele>614.59997558594</ele>
        <time>2019-10-30T07:51:57.000Z</time>
      </trkpt>
      <trkpt lat="45.33136" lon="4.62612">
        <ele>614.79998779297</ele>
        <time>2019-10-30T07:51:58.000Z</time>
      </trkpt>
      <trkpt lat="45.33137" lon="4.62613">
        <ele>615</ele>
        <time>2019-10-30T07:51:59.000Z</time>
      </trkpt>
      <trkpt lat="45.33138" lon="4.62615">
        <ele>615</ele>
        <time>2019-10-30T07:52:00.000Z</time>
      </trkpt>
      <trkpt lat="45.33139" lon="4.62617">
        <ele>615.40002441406</ele>
        <time>2019-10-30T07:52:01.000Z</time>
      </trkpt>
      <trkpt lat="45.3314" lon="4.62619">
        <ele>615.40002441406</ele>
        <time>2019-10-30T07:52:02.000Z</time>
      </trkpt>
      <trkpt lat="45.33141" lon="4.6262">
        <ele>615.59997558594</ele>
        <time>2019-10-30T07:52:03.000Z</time>
      </trkpt>
      <trkpt lat="45.33142" lon="4.62621">
        <ele>616</ele>
        <time>2019-10-30T07:52:04.000Z</time>
      </trkpt>
      <trkpt lat="45.33143" lon="4.62622">
        <ele>616.20001220703</ele>
        <time>2019-10-30T07:52:05.000Z</time>
      </trkpt>
      <trkpt lat="45.33145" lon="4.62623">
        <ele>616.40002441406</ele>
        <time>2019-10-30T07:52:06.000Z</time>
      </trkpt>
      <trkpt lat="45.33146" lon="4.62625">
        <ele>616.59997558594</ele>
        <time>2019-10-30T07:52:07.000Z</time>
      </trkpt>
      <trkpt lat="45.33147" lon="4.62626">
        <ele>616.79998779297</ele>
        <time>2019-10-30T07:52:08.000Z</time>
      </trkpt>
      <trkpt lat="45.33149" lon="4.62627">
        <ele>617.20001220703</ele>
        <time>2019-10-30T07:52:09.000Z</time>
      </trkpt>
      <trkpt lat="45.3315" lon="4.62628">
        <ele>617.59997558594</ele>
        <time>2019-10-30T07:52:10.000Z</time>
      </trkpt>
      <trkpt lat="45.33151" lon="4.62629">
        <ele>617.59997558594</ele>
        <time>2019-10-30T07:52:11.000Z</time>
      </trkpt>
      <trkpt lat="45.33153" lon="4.6263">
        <ele>618</ele>
        <time>2019-10-30T07:52:12.000Z</time>
      </trkpt>
      <trkpt lat="45.33154" lon="4.62632">
        <ele>618.20001220703</ele>
        <time>2019-10-30T07:52:13.000Z</time>
      </trkpt>
      <trkpt lat="45.33155" lon="4.62632">
        <ele>618.40002441406</ele>
        <time>2019-10-30T07:52:14.000Z</time>
      </trkpt>
      <trkpt lat="45.33157" lon="4.62633">
        <ele>618.59997558594</ele>
        <time>2019-10-30T07:52:15.000Z</time>
      </trkpt>
      <trkpt lat="45.33159" lon="4.62634">
        <ele>619</ele>
        <time>2019-10-30T07:52:16.000Z</time>
      </trkpt>
      <trkpt lat="45.33161" lon="4.62635">
        <ele>619.20001220703</ele>
        <time>2019-10-30T07:52:17.000Z</time>
      </trkpt>
      <trkpt lat="45.33163" lon="4.62636">
        <ele>619.40002441406</ele>
        <time>2019-10-30T07:52:18.000Z</time>
      </trkpt>
      <trkpt lat="45.33166" lon="4.62637">
        <ele>619.79998779297</ele>
        <time>2019-10-30T07:52:19.000Z</time>
      </trkpt>
      <trkpt lat="45.33168" lon="4.62637">
        <ele>620.20001220703</ele>
        <time>2019-10-30T07:52:20.000Z</time>
      </trkpt>
      <trkpt lat="45.33171" lon="4.62638">
        <ele>620.20001220703</ele>
        <time>2019-10-30T07:52:21.000Z</time>
      </trkpt>
      <trkpt lat="45.33173" lon="4.62638">
        <ele>620.40002441406</ele>
        <time>2019-10-30T07:52:22.000Z</time>
      </trkpt>
      <trkpt lat="45.33176" lon="4.62639">
        <ele>620.40002441406</ele>
        <time>2019-10-30T07:52:23.000Z</time>
      </trkpt>
      <trkpt lat="45.33179" lon="4.6264">
        <ele>620.59997558594</ele>
        <time>2019-10-30T07:52:24.000Z</time>
      </trkpt>
      <trkpt lat="45.33186" lon="4.62643">
        <ele>621</ele>
        <time>2019-10-30T07:52:27.000Z</time>
      </trkpt>
      <trkpt lat="45.33189" lon="4.62643">
        <ele>621</ele>
        <time>2019-10-30T07:52:28.000Z</time>
      </trkpt>
      <trkpt lat="45.33191" lon="4.62644">
        <ele>621</ele>
        <time>2019-10-30T07:52:29.000Z</time>
      </trkpt>
      <trkpt lat="45.33194" lon="4.62644">
        <ele>621</ele>
        <time>2019-10-30T07:52:30.000Z</time>
      </trkpt>
      <trkpt lat="45.33209" lon="4.62647">
        <ele>621.20001220703</ele>
        <time>2019-10-30T07:52:36.000Z</time>
      </trkpt>
      <trkpt lat="45.33212" lon="4.62648">
        <ele>621.20001220703</ele>
        <time>2019-10-30T07:52:37.000Z</time>
      </trkpt>
      <trkpt lat="45.33214" lon="4.62649">
        <ele>621.20001220703</ele>
        <time>2019-10-30T07:52:38.000Z</time>
      </trkpt>
      <trkpt lat="45.33216" lon="4.62649">
        <ele>621.20001220703</ele>
        <time>2019-10-30T07:52:39.000Z</time>
      </trkpt>
      <trkpt lat="45.33218" lon="4.6265">
        <ele>621.20001220703</ele>
        <time>2019-10-30T07:52:40.000Z</time>
      </trkpt>
      <trkpt lat="45.3322" lon="4.62651">
        <ele>621.20001220703</ele>
        <time>2019-10-30T07:52:41.000Z</time>
      </trkpt>
      <trkpt lat="45.33223" lon="4.62652">
        <ele>621.20001220703</ele>
        <time>2019-10-30T07:52:42.000Z</time>
      </trkpt>
      <trkpt lat="45.33225" lon="4.62652">
        <ele>621.20001220703</ele>
        <time>2019-10-30T07:52:43.000Z</time>
      </trkpt>
      <trkpt lat="45.33227" lon="4.62653">
        <ele>621.20001220703</ele>
        <time>2019-10-30T07:52:44.000Z</time>
      </trkpt>
      <trkpt lat="45.33229" lon="4.62654">
        <ele>621.20001220703</ele>
        <time>2019-10-30T07:52:45.000Z</time>
      </trkpt>
      <trkpt lat="45.33231" lon="4.62655">
        <ele>621.40002441406</ele>
        <time>2019-10-30T07:52:46.000Z</time>
      </trkpt>
      <trkpt lat="45.33233" lon="4.62655">
        <ele>621.40002441406</ele>
        <time>2019-10-30T07:52:47.000Z</time>
      </trkpt>
      <trkpt lat="45.33235" lon="4.62656">
        <ele>621.40002441406</ele>
        <time>2019-10-30T07:52:48.000Z</time>
      </trkpt>
      <trkpt lat="45.33237" lon="4.62657">
        <ele>621.40002441406</ele>
        <time>2019-10-30T07:52:49.000Z</time>
      </trkpt>
      <trkpt lat="45.33239" lon="4.62657">
        <ele>621.59997558594</ele>
        <time>2019-10-30T07:52:50.000Z</time>
      </trkpt>
      <trkpt lat="45.33241" lon="4.62658">
        <ele>622</ele>
        <time>2019-10-30T07:52:51.000Z</time>
      </trkpt>
      <trkpt lat="45.33243" lon="4.62659">
        <ele>622</ele>
        <time>2019-10-30T07:52:52.000Z</time>
      </trkpt>
      <trkpt lat="45.33245" lon="4.62659">
        <ele>622.20001220703</ele>
        <time>2019-10-30T07:52:53.000Z</time>
      </trkpt>
      <trkpt lat="45.33248" lon="4.62659">
        <ele>622.20001220703</ele>
        <time>2019-10-30T07:52:54.000Z</time>
      </trkpt>
      <trkpt lat="45.3325" lon="4.6266">
        <ele>622.40002441406</ele>
        <time>2019-10-30T07:52:55.000Z</time>
      </trkpt>
      <trkpt lat="45.33253" lon="4.6266">
        <ele>622.59997558594</ele>
        <time>2019-10-30T07:52:56.000Z</time>
      </trkpt>
      <trkpt lat="45.33255" lon="4.6266">
        <ele>622.59997558594</ele>
        <time>2019-10-30T07:52:57.000Z</time>
      </trkpt>
      <trkpt lat="45.33257" lon="4.6266">
        <ele>622.59997558594</ele>
        <time>2019-10-30T07:52:58.000Z</time>
      </trkpt>
      <trkpt lat="45.3326" lon="4.62661">
        <ele>622.79998779297</ele>
        <time>2019-10-30T07:52:59.000Z</time>
      </trkpt>
      <trkpt lat="45.33262" lon="4.62661">
        <ele>623</ele>
        <time>2019-10-30T07:53:00.000Z</time>
      </trkpt>
      <trkpt lat="45.33265" lon="4.62661">
        <ele>623.40002441406</ele>
        <time>2019-10-30T07:53:01.000Z</time>
      </trkpt>
      <trkpt lat="45.33267" lon="4.62661">
        <ele>623.40002441406</ele>
        <time>2019-10-30T07:53:02.000Z</time>
      </trkpt>
      <trkpt lat="45.33275" lon="4.62663">
        <ele>623.79998779297</ele>
        <time>2019-10-30T07:53:05.000Z</time>
      </trkpt>
      <trkpt lat="45.3329" lon="4.62665">
        <ele>624.20001220703</ele>
        <time>2019-10-30T07:53:10.000Z</time>
      </trkpt>
      <trkpt lat="45.33293" lon="4.62666">
        <ele>624.40002441406</ele>
        <time>2019-10-30T07:53:11.000Z</time>
      </trkpt>
      <trkpt lat="45.33296" lon="4.62667">
        <ele>624.40002441406</ele>
        <time>2019-10-30T07:53:12.000Z</time>
      </trkpt>
      <trkpt lat="45.33302" lon="4.62669">
        <ele>624.40002441406</ele>
        <time>2019-10-30T07:53:14.000Z</time>
      </trkpt>
      <trkpt lat="45.33305" lon="4.6267">
        <ele>624.59997558594</ele>
        <time>2019-10-30T07:53:15.000Z</time>
      </trkpt>
      <trkpt lat="45.33311" lon="4.62671">
        <ele>624.59997558594</ele>
        <time>2019-10-30T07:53:17.000Z</time>
      </trkpt>
      <trkpt lat="45.33314" lon="4.62671">
        <ele>624.79998779297</ele>
        <time>2019-10-30T07:53:18.000Z</time>
      </trkpt>
      <trkpt lat="45.33316" lon="4.62672">
        <ele>624.79998779297</ele>
        <time>2019-10-30T07:53:19.000Z</time>
      </trkpt>
      <trkpt lat="45.33319" lon="4.62672">
        <ele>624.79998779297</ele>
        <time>2019-10-30T07:53:20.000Z</time>
      </trkpt>
      <trkpt lat="45.33322" lon="4.62673">
        <ele>624.79998779297</ele>
        <time>2019-10-30T07:53:21.000Z</time>
      </trkpt>
      <trkpt lat="45.33326" lon="4.62673">
        <ele>625</ele>
        <time>2019-10-30T07:53:22.000Z</time>
      </trkpt>
      <trkpt lat="45.33331" lon="4.62675">
        <ele>624.79998779297</ele>
        <time>2019-10-30T07:53:24.000Z</time>
      </trkpt>
      <trkpt lat="45.33333" lon="4.62677">
        <ele>625</ele>
        <time>2019-10-30T07:53:25.000Z</time>
      </trkpt>
      <trkpt lat="45.33335" lon="4.62679">
        <ele>625.20001220703</ele>
        <time>2019-10-30T07:53:26.000Z</time>
      </trkpt>
      <trkpt lat="45.33337" lon="4.62682">
        <ele>625.20001220703</ele>
        <time>2019-10-30T07:53:27.000Z</time>
      </trkpt>
      <trkpt lat="45.33338" lon="4.62685">
        <ele>625.20001220703</ele>
        <time>2019-10-30T07:53:28.000Z</time>
      </trkpt>
      <trkpt lat="45.3334" lon="4.62689">
        <ele>625.20001220703</ele>
        <time>2019-10-30T07:53:29.000Z</time>
      </trkpt>
      <trkpt lat="45.33341" lon="4.62692">
        <ele>625.20001220703</ele>
        <time>2019-10-30T07:53:30.000Z</time>
      </trkpt>
      <trkpt lat="45.33343" lon="4.62696">
        <ele>625.20001220703</ele>
        <time>2019-10-30T07:53:31.000Z</time>
      </trkpt>
      <trkpt lat="45.33344" lon="4.627">
        <ele>625.40002441406</ele>
        <time>2019-10-30T07:53:32.000Z</time>
      </trkpt>
      <trkpt lat="45.33346" lon="4.62703">
        <ele>625.59997558594</ele>
        <time>2019-10-30T07:53:33.000Z</time>
      </trkpt>
      <trkpt lat="45.33347" lon="4.62706">
        <ele>625.40002441406</ele>
        <time>2019-10-30T07:53:34.000Z</time>
      </trkpt>
      <trkpt lat="45.33349" lon="4.62709">
        <ele>625.59997558594</ele>
        <time>2019-10-30T07:53:35.000Z</time>
      </trkpt>
      <trkpt lat="45.33351" lon="4.62712">
        <ele>625.79998779297</ele>
        <time>2019-10-30T07:53:36.000Z</time>
      </trkpt>
      <trkpt lat="45.33354" lon="4.62715">
        <ele>626</ele>
        <time>2019-10-30T07:53:37.000Z</time>
      </trkpt>
      <trkpt lat="45.33356" lon="4.62717">
        <ele>626</ele>
        <time>2019-10-30T07:53:38.000Z</time>
      </trkpt>
      <trkpt lat="45.33358" lon="4.62719">
        <ele>626</ele>
        <time>2019-10-30T07:53:39.000Z</time>
      </trkpt>
      <trkpt lat="45.33363" lon="4.62722">
        <ele>626.20001220703</ele>
        <time>2019-10-30T07:53:41.000Z</time>
      </trkpt>
      <trkpt lat="45.33366" lon="4.62724">
        <ele>626.20001220703</ele>
        <time>2019-10-30T07:53:42.000Z</time>
      </trkpt>
      <trkpt lat="45.33368" lon="4.62725">
        <ele>626</ele>
        <time>2019-10-30T07:53:43.000Z</time>
      </trkpt>
      <trkpt lat="45.33371" lon="4.62726">
        <ele>626</ele>
        <time>2019-10-30T07:53:44.000Z</time>
      </trkpt>
      <trkpt lat="45.33372" lon="4.62726">
        <ele>626.20001220703</ele>
        <time>2019-10-30T07:53:45.000Z</time>
      </trkpt>
      <trkpt lat="45.33374" lon="4.62726">
        <ele>626.20001220703</ele>
        <time>2019-10-30T07:53:46.000Z</time>
      </trkpt>
      <trkpt lat="45.33375" lon="4.62727">
        <ele>626.20001220703</ele>
        <time>2019-10-30T07:53:47.000Z</time>
      </trkpt>
      <trkpt lat="45.33378" lon="4.62727">
        <ele>626</ele>
        <time>2019-10-30T07:53:48.000Z</time>
      </trkpt>
      <trkpt lat="45.3338" lon="4.62728">
        <ele>626</ele>
        <time>2019-10-30T07:53:49.000Z</time>
      </trkpt>
      <trkpt lat="45.33382" lon="4.62728">
        <ele>625.79998779297</ele>
        <time>2019-10-30T07:53:50.000Z</time>
      </trkpt>
      <trkpt lat="45.33385" lon="4.62728">
        <ele>626</ele>
        <time>2019-10-30T07:53:51.000Z</time>
      </trkpt>
      <trkpt lat="45.33389" lon="4.62727">
        <ele>625.79998779297</ele>
        <time>2019-10-30T07:53:53.000Z</time>
      </trkpt>
      <trkpt lat="45.33391" lon="4.62727">
        <ele>625.59997558594</ele>
        <time>2019-10-30T07:53:54.000Z</time>
      </trkpt>
      <trkpt lat="45.33393" lon="4.62727">
        <ele>625.40002441406</ele>
        <time>2019-10-30T07:53:55.000Z</time>
      </trkpt>
      <trkpt lat="45.33395" lon="4.62726">
        <ele>625.40002441406</ele>
        <time>2019-10-30T07:53:56.000Z</time>
      </trkpt>
      <trkpt lat="45.33397" lon="4.62726">
        <ele>625.40002441406</ele>
        <time>2019-10-30T07:53:57.000Z</time>
      </trkpt>
      <trkpt lat="45.33399" lon="4.62725">
        <ele>625.20001220703</ele>
        <time>2019-10-30T07:53:58.000Z</time>
      </trkpt>
      <trkpt lat="45.33401" lon="4.62725">
        <ele>625.40002441406</ele>
        <time>2019-10-30T07:53:59.000Z</time>
      </trkpt>
      <trkpt lat="45.33404" lon="4.62724">
        <ele>625.40002441406</ele>
        <time>2019-10-30T07:54:00.000Z</time>
      </trkpt>
      <trkpt lat="45.33405" lon="4.62723">
        <ele>625.20001220703</ele>
        <time>2019-10-30T07:54:01.000Z</time>
      </trkpt>
      <trkpt lat="45.33407" lon="4.62722">
        <ele>625.20001220703</ele>
        <time>2019-10-30T07:54:02.000Z</time>
      </trkpt>
      <trkpt lat="45.33409" lon="4.62721">
        <ele>625.20001220703</ele>
        <time>2019-10-30T07:54:03.000Z</time>
      </trkpt>
      <trkpt lat="45.33411" lon="4.6272">
        <ele>625.20001220703</ele>
        <time>2019-10-30T07:54:04.000Z</time>
      </trkpt>
      <trkpt lat="45.33413" lon="4.62719">
        <ele>625.20001220703</ele>
        <time>2019-10-30T07:54:05.000Z</time>
      </trkpt>
      <trkpt lat="45.33415" lon="4.62718">
        <ele>625.40002441406</ele>
        <time>2019-10-30T07:54:06.000Z</time>
      </trkpt>
      <trkpt lat="45.33417" lon="4.62717">
        <ele>625.40002441406</ele>
        <time>2019-10-30T07:54:07.000Z</time>
      </trkpt>
      <trkpt lat="45.33418" lon="4.62716">
        <ele>625.59997558594</ele>
        <time>2019-10-30T07:54:08.000Z</time>
      </trkpt>
      <trkpt lat="45.3342" lon="4.62715">
        <ele>625.79998779297</ele>
        <time>2019-10-30T07:54:09.000Z</time>
      </trkpt>
      <trkpt lat="45.33421" lon="4.62714">
        <ele>626</ele>
        <time>2019-10-30T07:54:10.000Z</time>
      </trkpt>
      <trkpt lat="45.33423" lon="4.62713">
        <ele>626</ele>
        <time>2019-10-30T07:54:11.000Z</time>
      </trkpt>
      <trkpt lat="45.33424" lon="4.62713">
        <ele>626</ele>
        <time>2019-10-30T07:54:12.000Z</time>
      </trkpt>
      <trkpt lat="45.33425" lon="4.62712">
        <ele>626.40002441406</ele>
        <time>2019-10-30T07:54:13.000Z</time>
      </trkpt>
      <trkpt lat="45.33426" lon="4.62711">
        <ele>626.40002441406</ele>
        <time>2019-10-30T07:54:14.000Z</time>
      </trkpt>
      <trkpt lat="45.33427" lon="4.6271">
        <ele>626.79998779297</ele>
        <time>2019-10-30T07:54:15.000Z</time>
      </trkpt>
      <trkpt lat="45.33428" lon="4.6271">
        <ele>627</ele>
        <time>2019-10-30T07:54:16.000Z</time>
      </trkpt>
      <trkpt lat="45.3343" lon="4.62709">
        <ele>627</ele>
        <time>2019-10-30T07:54:17.000Z</time>
      </trkpt>
      <trkpt lat="45.33431" lon="4.62708">
        <ele>627.40002441406</ele>
        <time>2019-10-30T07:54:18.000Z</time>
      </trkpt>
      <trkpt lat="45.33432" lon="4.62708">
        <ele>627.59997558594</ele>
        <time>2019-10-30T07:54:19.000Z</time>
      </trkpt>
      <trkpt lat="45.33433" lon="4.62707">
        <ele>628</ele>
        <time>2019-10-30T07:54:20.000Z</time>
      </trkpt>
      <trkpt lat="45.33435" lon="4.62706">
        <ele>628.20001220703</ele>
        <time>2019-10-30T07:54:21.000Z</time>
      </trkpt>
      <trkpt lat="45.33437" lon="4.62706">
        <ele>628.40002441406</ele>
        <time>2019-10-30T07:54:22.000Z</time>
      </trkpt>
      <trkpt lat="45.33438" lon="4.62706">
        <ele>628.59997558594</ele>
        <time>2019-10-30T07:54:23.000Z</time>
      </trkpt>
      <trkpt lat="45.3344" lon="4.62706">
        <ele>628.79998779297</ele>
        <time>2019-10-30T07:54:24.000Z</time>
      </trkpt>
      <trkpt lat="45.33442" lon="4.62705">
        <ele>629.20001220703</ele>
        <time>2019-10-30T07:54:25.000Z</time>
      </trkpt>
      <trkpt lat="45.33444" lon="4.62704">
        <ele>629.59997558594</ele>
        <time>2019-10-30T07:54:26.000Z</time>
      </trkpt>
      <trkpt lat="45.33445" lon="4.62704">
        <ele>629.79998779297</ele>
        <time>2019-10-30T07:54:27.000Z</time>
      </trkpt>
      <trkpt lat="45.33447" lon="4.62704">
        <ele>630</ele>
        <time>2019-10-30T07:54:28.000Z</time>
      </trkpt>
      <trkpt lat="45.33448" lon="4.62703">
        <ele>630.20001220703</ele>
        <time>2019-10-30T07:54:29.000Z</time>
      </trkpt>
      <trkpt lat="45.33449" lon="4.62702">
        <ele>630.59997558594</ele>
        <time>2019-10-30T07:54:30.000Z</time>
      </trkpt>
      <trkpt lat="45.3345" lon="4.62702">
        <ele>630.79998779297</ele>
        <time>2019-10-30T07:54:31.000Z</time>
      </trkpt>
      <trkpt lat="45.33452" lon="4.62701">
        <ele>631.20001220703</ele>
        <time>2019-10-30T07:54:32.000Z</time>
      </trkpt>
      <trkpt lat="45.33453" lon="4.62699">
        <ele>631.20001220703</ele>
        <time>2019-10-30T07:54:33.000Z</time>
      </trkpt>
      <trkpt lat="45.33454" lon="4.62699">
        <ele>631.59997558594</ele>
        <time>2019-10-30T07:54:34.000Z</time>
      </trkpt>
      <trkpt lat="45.33455" lon="4.62698">
        <ele>631.79998779297</ele>
        <time>2019-10-30T07:54:35.000Z</time>
      </trkpt>
      <trkpt lat="45.33457" lon="4.62698">
        <ele>632</ele>
        <time>2019-10-30T07:54:36.000Z</time>
      </trkpt>
      <trkpt lat="45.33458" lon="4.62698">
        <ele>632.20001220703</ele>
        <time>2019-10-30T07:54:37.000Z</time>
      </trkpt>
      <trkpt lat="45.33459" lon="4.62697">
        <ele>632.20001220703</ele>
        <time>2019-10-30T07:54:38.000Z</time>
      </trkpt>
      <trkpt lat="45.33461" lon="4.62697">
        <ele>632.40002441406</ele>
        <time>2019-10-30T07:54:39.000Z</time>
      </trkpt>
      <trkpt lat="45.33462" lon="4.62696">
        <ele>632.59997558594</ele>
        <time>2019-10-30T07:54:40.000Z</time>
      </trkpt>
      <trkpt lat="45.33464" lon="4.62695">
        <ele>632.79998779297</ele>
        <time>2019-10-30T07:54:41.000Z</time>
      </trkpt>
      <trkpt lat="45.33465" lon="4.62695">
        <ele>633.20001220703</ele>
        <time>2019-10-30T07:54:42.000Z</time>
      </trkpt>
      <trkpt lat="45.33467" lon="4.62695">
        <ele>633.59997558594</ele>
        <time>2019-10-30T07:54:43.000Z</time>
      </trkpt>
      <trkpt lat="45.33469" lon="4.62694">
        <ele>633.59997558594</ele>
        <time>2019-10-30T07:54:44.000Z</time>
      </trkpt>
      <trkpt lat="45.33471" lon="4.62694">
        <ele>633.79998779297</ele>
        <time>2019-10-30T07:54:45.000Z</time>
      </trkpt>
      <trkpt lat="45.33472" lon="4.62693">
        <ele>634</ele>
        <time>2019-10-30T07:54:46.000Z</time>
      </trkpt>
      <trkpt lat="45.33474" lon="4.62692">
        <ele>634.40002441406</ele>
        <time>2019-10-30T07:54:47.000Z</time>
      </trkpt>
      <trkpt lat="45.33475" lon="4.62692">
        <ele>634.59997558594</ele>
        <time>2019-10-30T07:54:48.000Z</time>
      </trkpt>
      <trkpt lat="45.33477" lon="4.62691">
        <ele>634.79998779297</ele>
        <time>2019-10-30T07:54:49.000Z</time>
      </trkpt>
      <trkpt lat="45.33478" lon="4.62691">
        <ele>635</ele>
        <time>2019-10-30T07:54:50.000Z</time>
      </trkpt>
      <trkpt lat="45.3348" lon="4.62691">
        <ele>635</ele>
        <time>2019-10-30T07:54:51.000Z</time>
      </trkpt>
      <trkpt lat="45.33481" lon="4.6269">
        <ele>635.20001220703</ele>
        <time>2019-10-30T07:54:52.000Z</time>
      </trkpt>
      <trkpt lat="45.33483" lon="4.6269">
        <ele>635.40002441406</ele>
        <time>2019-10-30T07:54:53.000Z</time>
      </trkpt>
      <trkpt lat="45.33484" lon="4.62689">
        <ele>635.40002441406</ele>
        <time>2019-10-30T07:54:54.000Z</time>
      </trkpt>
      <trkpt lat="45.33485" lon="4.62689">
        <ele>635.40002441406</ele>
        <time>2019-10-30T07:54:55.000Z</time>
      </trkpt>
      <trkpt lat="45.33486" lon="4.62689">
        <ele>635.59997558594</ele>
        <time>2019-10-30T07:54:56.000Z</time>
      </trkpt>
      <trkpt lat="45.33488" lon="4.62688">
        <ele>635.59997558594</ele>
        <time>2019-10-30T07:54:57.000Z</time>
      </trkpt>
      <trkpt lat="45.33489" lon="4.62688">
        <ele>635.79998779297</ele>
        <time>2019-10-30T07:54:58.000Z</time>
      </trkpt>
      <trkpt lat="45.33491" lon="4.62687">
        <ele>636</ele>
        <time>2019-10-30T07:54:59.000Z</time>
      </trkpt>
      <trkpt lat="45.33493" lon="4.62687">
        <ele>636</ele>
        <time>2019-10-30T07:55:00.000Z</time>
      </trkpt>
      <trkpt lat="45.33495" lon="4.62686">
        <ele>636.20001220703</ele>
        <time>2019-10-30T07:55:01.000Z</time>
      </trkpt>
      <trkpt lat="45.33497" lon="4.62686">
        <ele>636.40002441406</ele>
        <time>2019-10-30T07:55:02.000Z</time>
      </trkpt>
      <trkpt lat="45.33498" lon="4.62686">
        <ele>636.59997558594</ele>
        <time>2019-10-30T07:55:03.000Z</time>
      </trkpt>
      <trkpt lat="45.335" lon="4.62685">
        <ele>636.59997558594</ele>
        <time>2019-10-30T07:55:04.000Z</time>
      </trkpt>
      <trkpt lat="45.33501" lon="4.62685">
        <ele>636.59997558594</ele>
        <time>2019-10-30T07:55:05.000Z</time>
      </trkpt>
      <trkpt lat="45.33502" lon="4.62685">
        <ele>637</ele>
        <time>2019-10-30T07:55:06.000Z</time>
      </trkpt>
      <trkpt lat="45.33504" lon="4.62684">
        <ele>637.20001220703</ele>
        <time>2019-10-30T07:55:07.000Z</time>
      </trkpt>
      <trkpt lat="45.33505" lon="4.62683">
        <ele>637.40002441406</ele>
        <time>2019-10-30T07:55:08.000Z</time>
      </trkpt>
      <trkpt lat="45.33506" lon="4.62683">
        <ele>637.40002441406</ele>
        <time>2019-10-30T07:55:09.000Z</time>
      </trkpt>
      <trkpt lat="45.33508" lon="4.62682">
        <ele>637.40002441406</ele>
        <time>2019-10-30T07:55:10.000Z</time>
      </trkpt>
      <trkpt lat="45.3351" lon="4.62682">
        <ele>637.59997558594</ele>
        <time>2019-10-30T07:55:11.000Z</time>
      </trkpt>
      <trkpt lat="45.33511" lon="4.62682">
        <ele>637.79998779297</ele>
        <time>2019-10-30T07:55:12.000Z</time>
      </trkpt>
      <trkpt lat="45.33512" lon="4.62682">
        <ele>637.79998779297</ele>
        <time>2019-10-30T07:55:13.000Z</time>
      </trkpt>
      <trkpt lat="45.33514" lon="4.62682">
        <ele>638</ele>
        <time>2019-10-30T07:55:14.000Z</time>
      </trkpt>
      <trkpt lat="45.33515" lon="4.62681">
        <ele>638.20001220703</ele>
        <time>2019-10-30T07:55:15.000Z</time>
      </trkpt>
      <trkpt lat="45.33516" lon="4.6268">
        <ele>638.40002441406</ele>
        <time>2019-10-30T07:55:16.000Z</time>
      </trkpt>
      <trkpt lat="45.33518" lon="4.62679">
        <ele>638.59997558594</ele>
        <time>2019-10-30T07:55:17.000Z</time>
      </trkpt>
      <trkpt lat="45.33519" lon="4.62679">
        <ele>638.59997558594</ele>
        <time>2019-10-30T07:55:18.000Z</time>
      </trkpt>
      <trkpt lat="45.33521" lon="4.62678">
        <ele>638.79998779297</ele>
        <time>2019-10-30T07:55:19.000Z</time>
      </trkpt>
      <trkpt lat="45.33523" lon="4.62677">
        <ele>639</ele>
        <time>2019-10-30T07:55:20.000Z</time>
      </trkpt>
      <trkpt lat="45.33524" lon="4.62676">
        <ele>639.20001220703</ele>
        <time>2019-10-30T07:55:21.000Z</time>
      </trkpt>
      <trkpt lat="45.33526" lon="4.62676">
        <ele>639.20001220703</ele>
        <time>2019-10-30T07:55:22.000Z</time>
      </trkpt>
      <trkpt lat="45.33527" lon="4.62675">
        <ele>639.40002441406</ele>
        <time>2019-10-30T07:55:23.000Z</time>
      </trkpt>
      <trkpt lat="45.33529" lon="4.62675">
        <ele>639.59997558594</ele>
        <time>2019-10-30T07:55:24.000Z</time>
      </trkpt>
      <trkpt lat="45.3353" lon="4.62675">
        <ele>639.79998779297</ele>
        <time>2019-10-30T07:55:25.000Z</time>
      </trkpt>
      <trkpt lat="45.33532" lon="4.62674">
        <ele>640</ele>
        <time>2019-10-30T07:55:26.000Z</time>
      </trkpt>
      <trkpt lat="45.33534" lon="4.62674">
        <ele>640.20001220703</ele>
        <time>2019-10-30T07:55:27.000Z</time>
      </trkpt>
      <trkpt lat="45.33536" lon="4.62674">
        <ele>640</ele>
        <time>2019-10-30T07:55:28.000Z</time>
      </trkpt>
      <trkpt lat="45.33538" lon="4.62674">
        <ele>640.40002441406</ele>
        <time>2019-10-30T07:55:29.000Z</time>
      </trkpt>
      <trkpt lat="45.3354" lon="4.62674">
        <ele>640.40002441406</ele>
        <time>2019-10-30T07:55:30.000Z</time>
      </trkpt>
      <trkpt lat="45.33541" lon="4.62674">
        <ele>640.40002441406</ele>
        <time>2019-10-30T07:55:31.000Z</time>
      </trkpt>
      <trkpt lat="45.33543" lon="4.62674">
        <ele>640.40002441406</ele>
        <time>2019-10-30T07:55:32.000Z</time>
      </trkpt>
      <trkpt lat="45.33546" lon="4.62674">
        <ele>640.59997558594</ele>
        <time>2019-10-30T07:55:33.000Z</time>
      </trkpt>
      <trkpt lat="45.33548" lon="4.62675">
        <ele>640.59997558594</ele>
        <time>2019-10-30T07:55:34.000Z</time>
      </trkpt>
      <trkpt lat="45.33549" lon="4.62675">
        <ele>640.59997558594</ele>
        <time>2019-10-30T07:55:35.000Z</time>
      </trkpt>
      <trkpt lat="45.33551" lon="4.62675">
        <ele>641</ele>
        <time>2019-10-30T07:55:36.000Z</time>
      </trkpt>
      <trkpt lat="45.33553" lon="4.62676">
        <ele>641.20001220703</ele>
        <time>2019-10-30T07:55:37.000Z</time>
      </trkpt>
      <trkpt lat="45.33555" lon="4.62676">
        <ele>641.20001220703</ele>
        <time>2019-10-30T07:55:38.000Z</time>
      </trkpt>
      <trkpt lat="45.33557" lon="4.62676">
        <ele>641.40002441406</ele>
        <time>2019-10-30T07:55:39.000Z</time>
      </trkpt>
      <trkpt lat="45.33558" lon="4.62676">
        <ele>641.40002441406</ele>
        <time>2019-10-30T07:55:40.000Z</time>
      </trkpt>
      <trkpt lat="45.33561" lon="4.62676">
        <ele>641.59997558594</ele>
        <time>2019-10-30T07:55:41.000Z</time>
      </trkpt>
      <trkpt lat="45.33565" lon="4.62678">
        <ele>642</ele>
        <time>2019-10-30T07:55:43.000Z</time>
      </trkpt>
      <trkpt lat="45.33566" lon="4.62678">
        <ele>642</ele>
        <time>2019-10-30T07:55:44.000Z</time>
      </trkpt>
      <trkpt lat="45.3357" lon="4.6268">
        <ele>642.20001220703</ele>
        <time>2019-10-30T07:55:46.000Z</time>
      </trkpt>
      <trkpt lat="45.33572" lon="4.62681">
        <ele>642.40002441406</ele>
        <time>2019-10-30T07:55:47.000Z</time>
      </trkpt>
      <trkpt lat="45.33574" lon="4.62681">
        <ele>642.40002441406</ele>
        <time>2019-10-30T07:55:48.000Z</time>
      </trkpt>
      <trkpt lat="45.3358" lon="4.62683">
        <ele>642.59997558594</ele>
        <time>2019-10-30T07:55:51.000Z</time>
      </trkpt>
      <trkpt lat="45.33581" lon="4.62683">
        <ele>642.59997558594</ele>
        <time>2019-10-30T07:55:52.000Z</time>
      </trkpt>
      <trkpt lat="45.33582" lon="4.62683">
        <ele>642.59997558594</ele>
        <time>2019-10-30T07:55:53.000Z</time>
      </trkpt>
      <trkpt lat="45.33584" lon="4.62683">
        <ele>642.79998779297</ele>
        <time>2019-10-30T07:55:54.000Z</time>
      </trkpt>
      <trkpt lat="45.33585" lon="4.62683">
        <ele>642.59997558594</ele>
        <time>2019-10-30T07:55:55.000Z</time>
      </trkpt>
      <trkpt lat="45.33586" lon="4.62683">
        <ele>642.59997558594</ele>
        <time>2019-10-30T07:55:56.000Z</time>
      </trkpt>
      <trkpt lat="45.33587" lon="4.62684">
        <ele>642.59997558594</ele>
        <time>2019-10-30T07:55:57.000Z</time>
      </trkpt>
      <trkpt lat="45.33588" lon="4.62684">
        <ele>642.79998779297</ele>
        <time>2019-10-30T07:55:58.000Z</time>
      </trkpt>
      <trkpt lat="45.33589" lon="4.62684">
        <ele>642.79998779297</ele>
        <time>2019-10-30T07:55:59.000Z</time>
      </trkpt>
      <trkpt lat="45.33589" lon="4.62684">
        <ele>643</ele>
        <time>2019-10-30T07:56:00.000Z</time>
      </trkpt>
      <trkpt lat="45.3359" lon="4.62685">
        <ele>644</ele>
        <time>2019-10-30T07:56:10.000Z</time>
      </trkpt>
      <trkpt lat="45.33592" lon="4.62687">
        <ele>644.20001220703</ele>
        <time>2019-10-30T07:56:16.000Z</time>
      </trkpt>
      <trkpt lat="45.33594" lon="4.62689">
        <ele>644.40002441406</ele>
        <time>2019-10-30T07:56:22.000Z</time>
      </trkpt>
      <trkpt lat="45.33595" lon="4.62689">
        <ele>644.59997558594</ele>
        <time>2019-10-30T07:56:25.000Z</time>
      </trkpt>
      <trkpt lat="45.33595" lon="4.62687">
        <ele>645.79998779297</ele>
        <time>2019-10-30T07:56:32.000Z</time>
      </trkpt>
      <trkpt lat="45.336" lon="4.62687">
        <ele>646.59997558594</ele>
        <time>2019-10-30T07:56:42.000Z</time>
      </trkpt>
      <trkpt lat="45.33603" lon="4.62689">
        <ele>647</ele>
        <time>2019-10-30T07:56:51.000Z</time>
      </trkpt>
      <trkpt lat="45.33604" lon="4.6269">
        <ele>647</ele>
        <time>2019-10-30T07:56:54.000Z</time>
      </trkpt>
      <trkpt lat="45.33604" lon="4.62691">
        <ele>646.79998779297</ele>
        <time>2019-10-30T07:57:04.000Z</time>
      </trkpt>
      <trkpt lat="45.33606" lon="4.62692">
        <ele>646.79998779297</ele>
        <time>2019-10-30T07:57:09.000Z</time>
      </trkpt>
      <trkpt lat="45.33606" lon="4.62692">
        <ele>646.79998779297</ele>
        <time>2019-10-30T07:57:10.000Z</time>
      </trkpt>
      <trkpt lat="45.33608" lon="4.62691">
        <ele>646.79998779297</ele>
        <time>2019-10-30T07:57:12.000Z</time>
      </trkpt>
      <trkpt lat="45.33609" lon="4.62691">
        <ele>646.79998779297</ele>
        <time>2019-10-30T07:57:13.000Z</time>
      </trkpt>
      <trkpt lat="45.3361" lon="4.62691">
        <ele>646.79998779297</ele>
        <time>2019-10-30T07:57:14.000Z</time>
      </trkpt>
      <trkpt lat="45.33611" lon="4.62691">
        <ele>646.79998779297</ele>
        <time>2019-10-30T07:57:15.000Z</time>
      </trkpt>
      <trkpt lat="45.33611" lon="4.6269">
        <ele>646.59997558594</ele>
        <time>2019-10-30T07:57:16.000Z</time>
      </trkpt>
      <trkpt lat="45.33612" lon="4.6269">
        <ele>646.79998779297</ele>
        <time>2019-10-30T07:57:17.000Z</time>
      </trkpt>
      <trkpt lat="45.33614" lon="4.62691">
        <ele>646.79998779297</ele>
        <time>2019-10-30T07:57:18.000Z</time>
      </trkpt>
      <trkpt lat="45.33615" lon="4.62691">
        <ele>646.79998779297</ele>
        <time>2019-10-30T07:57:19.000Z</time>
      </trkpt>
      <trkpt lat="45.33616" lon="4.62691">
        <ele>646.79998779297</ele>
        <time>2019-10-30T07:57:20.000Z</time>
      </trkpt>
      <trkpt lat="45.33618" lon="4.62692">
        <ele>646.79998779297</ele>
        <time>2019-10-30T07:57:21.000Z</time>
      </trkpt>
      <trkpt lat="45.33619" lon="4.62692">
        <ele>647.20001220703</ele>
        <time>2019-10-30T07:57:22.000Z</time>
      </trkpt>
      <trkpt lat="45.3362" lon="4.62693">
        <ele>647.40002441406</ele>
        <time>2019-10-30T07:57:23.000Z</time>
      </trkpt>
      <trkpt lat="45.33622" lon="4.62693">
        <ele>647.40002441406</ele>
        <time>2019-10-30T07:57:24.000Z</time>
      </trkpt>
      <trkpt lat="45.33623" lon="4.62694">
        <ele>647.79998779297</ele>
        <time>2019-10-30T07:57:25.000Z</time>
      </trkpt>
      <trkpt lat="45.33625" lon="4.62695">
        <ele>647.79998779297</ele>
        <time>2019-10-30T07:57:26.000Z</time>
      </trkpt>
      <trkpt lat="45.33626" lon="4.62696">
        <ele>648</ele>
        <time>2019-10-30T07:57:27.000Z</time>
      </trkpt>
      <trkpt lat="45.33627" lon="4.62696">
        <ele>648</ele>
        <time>2019-10-30T07:57:28.000Z</time>
      </trkpt>
      <trkpt lat="45.33629" lon="4.62697">
        <ele>648.40002441406</ele>
        <time>2019-10-30T07:57:29.000Z</time>
      </trkpt>
      <trkpt lat="45.3363" lon="4.62699">
        <ele>648.59997558594</ele>
        <time>2019-10-30T07:57:30.000Z</time>
      </trkpt>
      <trkpt lat="45.33632" lon="4.627">
        <ele>648.59997558594</ele>
        <time>2019-10-30T07:57:31.000Z</time>
      </trkpt>
      <trkpt lat="45.33633" lon="4.62701">
        <ele>649</ele>
        <time>2019-10-30T07:57:32.000Z</time>
      </trkpt>
      <trkpt lat="45.33635" lon="4.62701">
        <ele>649.20001220703</ele>
        <time>2019-10-30T07:57:33.000Z</time>
      </trkpt>
      <trkpt lat="45.33636" lon="4.62702">
        <ele>649.59997558594</ele>
        <time>2019-10-30T07:57:34.000Z</time>
      </trkpt>
      <trkpt lat="45.33638" lon="4.62702">
        <ele>649.79998779297</ele>
        <time>2019-10-30T07:57:35.000Z</time>
      </trkpt>
      <trkpt lat="45.33639" lon="4.62702">
        <ele>650.20001220703</ele>
        <time>2019-10-30T07:57:36.000Z</time>
      </trkpt>
      <trkpt lat="45.3364" lon="4.62702">
        <ele>650.40002441406</ele>
        <time>2019-10-30T07:57:37.000Z</time>
      </trkpt>
      <trkpt lat="45.33641" lon="4.62701">
        <ele>650.59997558594</ele>
        <time>2019-10-30T07:57:38.000Z</time>
      </trkpt>
      <trkpt lat="45.33641" lon="4.627">
        <ele>650.79998779297</ele>
        <time>2019-10-30T07:57:39.000Z</time>
      </trkpt>
      <trkpt lat="45.33641" lon="4.62699">
        <ele>650.79998779297</ele>
        <time>2019-10-30T07:57:40.000Z</time>
      </trkpt>
      <trkpt lat="45.33641" lon="4.62698">
        <ele>651.20001220703</ele>
        <time>2019-10-30T07:57:41.000Z</time>
      </trkpt>
      <trkpt lat="45.33641" lon="4.62697">
        <ele>651.40002441406</ele>
        <time>2019-10-30T07:57:42.000Z</time>
      </trkpt>
      <trkpt lat="45.33641" lon="4.62696">
        <ele>651.79998779297</ele>
        <time>2019-10-30T07:57:43.000Z</time>
      </trkpt>
      <trkpt lat="45.3364" lon="4.62695">
        <ele>651.79998779297</ele>
        <time>2019-10-30T07:57:44.000Z</time>
      </trkpt>
      <trkpt lat="45.3364" lon="4.62695">
        <ele>652.40002441406</ele>
        <time>2019-10-30T07:57:45.000Z</time>
      </trkpt>
      <trkpt lat="45.33639" lon="4.62694">
        <ele>652.59997558594</ele>
        <time>2019-10-30T07:57:46.000Z</time>
      </trkpt>
      <trkpt lat="45.33639" lon="4.62693">
        <ele>653</ele>
        <time>2019-10-30T07:57:47.000Z</time>
      </trkpt>
      <trkpt lat="45.33638" lon="4.62692">
        <ele>653.40002441406</ele>
        <time>2019-10-30T07:57:48.000Z</time>
      </trkpt>
      <trkpt lat="45.33638" lon="4.62691">
        <ele>653.59997558594</ele>
        <time>2019-10-30T07:57:49.000Z</time>
      </trkpt>
      <trkpt lat="45.33637" lon="4.6269">
        <ele>653.79998779297</ele>
        <time>2019-10-30T07:57:50.000Z</time>
      </trkpt>
      <trkpt lat="45.33637" lon="4.62689">
        <ele>654.20001220703</ele>
        <time>2019-10-30T07:57:51.000Z</time>
      </trkpt>
      <trkpt lat="45.33637" lon="4.62688">
        <ele>654.40002441406</ele>
        <time>2019-10-30T07:57:52.000Z</time>
      </trkpt>
      <trkpt lat="45.33636" lon="4.62688">
        <ele>654.59997558594</ele>
        <time>2019-10-30T07:57:53.000Z</time>
      </trkpt>
      <trkpt lat="45.33635" lon="4.62686">
        <ele>654.79998779297</ele>
        <time>2019-10-30T07:57:54.000Z</time>
      </trkpt>
      <trkpt lat="45.33634" lon="4.62686">
        <ele>654.79998779297</ele>
        <time>2019-10-30T07:57:55.000Z</time>
      </trkpt>
      <trkpt lat="45.33634" lon="4.62685">
        <ele>654.79998779297</ele>
        <time>2019-10-30T07:57:56.000Z</time>
      </trkpt>
      <trkpt lat="45.33633" lon="4.62684">
        <ele>655.20001220703</ele>
        <time>2019-10-30T07:57:57.000Z</time>
      </trkpt>
      <trkpt lat="45.33632" lon="4.62683">
        <ele>655.40002441406</ele>
        <time>2019-10-30T07:57:58.000Z</time>
      </trkpt>
      <trkpt lat="45.33632" lon="4.62682">
        <ele>655.20001220703</ele>
        <time>2019-10-30T07:57:59.000Z</time>
      </trkpt>
      <trkpt lat="45.33631" lon="4.62681">
        <ele>655.59997558594</ele>
        <time>2019-10-30T07:58:00.000Z</time>
      </trkpt>
      <trkpt lat="45.3363" lon="4.62679">
        <ele>656</ele>
        <time>2019-10-30T07:58:01.000Z</time>
      </trkpt>
      <trkpt lat="45.33629" lon="4.62678">
        <ele>656</ele>
        <time>2019-10-30T07:58:02.000Z</time>
      </trkpt>
      <trkpt lat="45.33629" lon="4.62677">
        <ele>656.20001220703</ele>
        <time>2019-10-30T07:58:03.000Z</time>
      </trkpt>
      <trkpt lat="45.33628" lon="4.62675">
        <ele>656.40002441406</ele>
        <time>2019-10-30T07:58:04.000Z</time>
      </trkpt>
      <trkpt lat="45.33628" lon="4.62674">
        <ele>656.59997558594</ele>
        <time>2019-10-30T07:58:05.000Z</time>
      </trkpt>
      <trkpt lat="45.33627" lon="4.62673">
        <ele>656.59997558594</ele>
        <time>2019-10-30T07:58:06.000Z</time>
      </trkpt>
      <trkpt lat="45.33626" lon="4.62673">
        <ele>656.79998779297</ele>
        <time>2019-10-30T07:58:07.000Z</time>
      </trkpt>
      <trkpt lat="45.33625" lon="4.62671">
        <ele>657</ele>
        <time>2019-10-30T07:58:08.000Z</time>
      </trkpt>
      <trkpt lat="45.33624" lon="4.6267">
        <ele>657.40002441406</ele>
        <time>2019-10-30T07:58:09.000Z</time>
      </trkpt>
      <trkpt lat="45.33622" lon="4.62667">
        <ele>657.59997558594</ele>
        <time>2019-10-30T07:58:11.000Z</time>
      </trkpt>
      <trkpt lat="45.33622" lon="4.62666">
        <ele>657.59997558594</ele>
        <time>2019-10-30T07:58:12.000Z</time>
      </trkpt>
      <trkpt lat="45.33621" lon="4.62665">
        <ele>657.79998779297</ele>
        <time>2019-10-30T07:58:13.000Z</time>
      </trkpt>
      <trkpt lat="45.3362" lon="4.62663">
        <ele>657.59997558594</ele>
        <time>2019-10-30T07:58:14.000Z</time>
      </trkpt>
      <trkpt lat="45.33619" lon="4.62662">
        <ele>657.79998779297</ele>
        <time>2019-10-30T07:58:15.000Z</time>
      </trkpt>
      <trkpt lat="45.33618" lon="4.62661">
        <ele>658</ele>
        <time>2019-10-30T07:58:16.000Z</time>
      </trkpt>
      <trkpt lat="45.33617" lon="4.6266">
        <ele>658</ele>
        <time>2019-10-30T07:58:17.000Z</time>
      </trkpt>
      <trkpt lat="45.33616" lon="4.62659">
        <ele>658</ele>
        <time>2019-10-30T07:58:18.000Z</time>
      </trkpt>
      <trkpt lat="45.33615" lon="4.62658">
        <ele>658.20001220703</ele>
        <time>2019-10-30T07:58:19.000Z</time>
      </trkpt>
      <trkpt lat="45.33613" lon="4.62656">
        <ele>658.40002441406</ele>
        <time>2019-10-30T07:58:20.000Z</time>
      </trkpt>
      <trkpt lat="45.33612" lon="4.62654">
        <ele>658.59997558594</ele>
        <time>2019-10-30T07:58:21.000Z</time>
      </trkpt>
      <trkpt lat="45.33611" lon="4.62653">
        <ele>658.79998779297</ele>
        <time>2019-10-30T07:58:22.000Z</time>
      </trkpt>
      <trkpt lat="45.3361" lon="4.62652">
        <ele>659</ele>
        <time>2019-10-30T07:58:23.000Z</time>
      </trkpt>
      <trkpt lat="45.33608" lon="4.62651">
        <ele>659.20001220703</ele>
        <time>2019-10-30T07:58:24.000Z</time>
      </trkpt>
      <trkpt lat="45.33607" lon="4.62649">
        <ele>659.40002441406</ele>
        <time>2019-10-30T07:58:25.000Z</time>
      </trkpt>
      <trkpt lat="45.33606" lon="4.62647">
        <ele>659.40002441406</ele>
        <time>2019-10-30T07:58:26.000Z</time>
      </trkpt>
      <trkpt lat="45.33605" lon="4.62646">
        <ele>659.59997558594</ele>
        <time>2019-10-30T07:58:27.000Z</time>
      </trkpt>
      <trkpt lat="45.33604" lon="4.62644">
        <ele>659.59997558594</ele>
        <time>2019-10-30T07:58:28.000Z</time>
      </trkpt>
      <trkpt lat="45.33603" lon="4.62642">
        <ele>659.79998779297</ele>
        <time>2019-10-30T07:58:29.000Z</time>
      </trkpt>
      <trkpt lat="45.33602" lon="4.62641">
        <ele>660</ele>
        <time>2019-10-30T07:58:30.000Z</time>
      </trkpt>
      <trkpt lat="45.33601" lon="4.6264">
        <ele>660</ele>
        <time>2019-10-30T07:58:31.000Z</time>
      </trkpt>
      <trkpt lat="45.33599" lon="4.62638">
        <ele>660</ele>
        <time>2019-10-30T07:58:32.000Z</time>
      </trkpt>
      <trkpt lat="45.33597" lon="4.62636">
        <ele>660</ele>
        <time>2019-10-30T07:58:33.000Z</time>
      </trkpt>
      <trkpt lat="45.33596" lon="4.62635">
        <ele>660.20001220703</ele>
        <time>2019-10-30T07:58:34.000Z</time>
      </trkpt>
      <trkpt lat="45.33595" lon="4.62634">
        <ele>660.40002441406</ele>
        <time>2019-10-30T07:58:35.000Z</time>
      </trkpt>
      <trkpt lat="45.33593" lon="4.62633">
        <ele>660.20001220703</ele>
        <time>2019-10-30T07:58:36.000Z</time>
      </trkpt>
      <trkpt lat="45.33592" lon="4.62631">
        <ele>660.40002441406</ele>
        <time>2019-10-30T07:58:37.000Z</time>
      </trkpt>
      <trkpt lat="45.3359" lon="4.62629">
        <ele>660.59997558594</ele>
        <time>2019-10-30T07:58:38.000Z</time>
      </trkpt>
      <trkpt lat="45.33589" lon="4.62627">
        <ele>660.59997558594</ele>
        <time>2019-10-30T07:58:39.000Z</time>
      </trkpt>
      <trkpt lat="45.33587" lon="4.62625">
        <ele>660.79998779297</ele>
        <time>2019-10-30T07:58:40.000Z</time>
      </trkpt>
      <trkpt lat="45.33586" lon="4.62625">
        <ele>660.79998779297</ele>
        <time>2019-10-30T07:58:41.000Z</time>
      </trkpt>
      <trkpt lat="45.33585" lon="4.62624">
        <ele>661</ele>
        <time>2019-10-30T07:58:42.000Z</time>
      </trkpt>
      <trkpt lat="45.33585" lon="4.62624">
        <ele>661.20001220703</ele>
        <time>2019-10-30T07:58:43.000Z</time>
      </trkpt>
      <trkpt lat="45.33585" lon="4.62623">
        <ele>661.40002441406</ele>
        <time>2019-10-30T07:58:44.000Z</time>
      </trkpt>
      <trkpt lat="45.33583" lon="4.62622">
        <ele>661.59997558594</ele>
        <time>2019-10-30T07:58:47.000Z</time>
      </trkpt>
      <trkpt lat="45.33582" lon="4.62622">
        <ele>662</ele>
        <time>2019-10-30T07:58:48.000Z</time>
      </trkpt>
      <trkpt lat="45.33582" lon="4.62621">
        <ele>662</ele>
        <time>2019-10-30T07:58:49.000Z</time>
      </trkpt>
      <trkpt lat="45.33581" lon="4.62621">
        <ele>662.20001220703</ele>
        <time>2019-10-30T07:58:50.000Z</time>
      </trkpt>
      <trkpt lat="45.3358" lon="4.62621">
        <ele>662</ele>
        <time>2019-10-30T07:58:51.000Z</time>
      </trkpt>
      <trkpt lat="45.33579" lon="4.62621">
        <ele>662.40002441406</ele>
        <time>2019-10-30T07:58:55.000Z</time>
      </trkpt>
      <trkpt lat="45.33578" lon="4.6262">
        <ele>662.40002441406</ele>
        <time>2019-10-30T07:58:57.000Z</time>
      </trkpt>
      <trkpt lat="45.33578" lon="4.62619">
        <ele>662.40002441406</ele>
        <time>2019-10-30T07:58:58.000Z</time>
      </trkpt>
      <trkpt lat="45.33577" lon="4.62618">
        <ele>662.40002441406</ele>
        <time>2019-10-30T07:58:59.000Z</time>
      </trkpt>
      <trkpt lat="45.33577" lon="4.62618">
        <ele>662.40002441406</ele>
        <time>2019-10-30T07:59:00.000Z</time>
      </trkpt>
      <trkpt lat="45.33576" lon="4.62617">
        <ele>662.40002441406</ele>
        <time>2019-10-30T07:59:01.000Z</time>
      </trkpt>
      <trkpt lat="45.33575" lon="4.62617">
        <ele>662.59997558594</ele>
        <time>2019-10-30T07:59:02.000Z</time>
      </trkpt>
      <trkpt lat="45.33574" lon="4.62616">
        <ele>662.59997558594</ele>
        <time>2019-10-30T07:59:03.000Z</time>
      </trkpt>
      <trkpt lat="45.33574" lon="4.62616">
        <ele>662.40002441406</ele>
        <time>2019-10-30T07:59:04.000Z</time>
      </trkpt>
      <trkpt lat="45.33574" lon="4.62614">
        <ele>662.59997558594</ele>
        <time>2019-10-30T07:59:05.000Z</time>
      </trkpt>
      <trkpt lat="45.33574" lon="4.62613">
        <ele>662.59997558594</ele>
        <time>2019-10-30T07:59:06.000Z</time>
      </trkpt>
      <trkpt lat="45.33574" lon="4.62613">
        <ele>662.79998779297</ele>
        <time>2019-10-30T07:59:07.000Z</time>
      </trkpt>
      <trkpt lat="45.33575" lon="4.62613">
        <ele>663.20001220703</ele>
        <time>2019-10-30T07:59:08.000Z</time>
      </trkpt>
      <trkpt lat="45.33575" lon="4.62612">
        <ele>663.40002441406</ele>
        <time>2019-10-30T07:59:10.000Z</time>
      </trkpt>
      <trkpt lat="45.33575" lon="4.62612">
        <ele>664</ele>
        <time>2019-10-30T07:59:19.000Z</time>
      </trkpt>
      <trkpt lat="45.33575" lon="4.62612">
        <ele>664</ele>
        <time>2019-10-30T07:59:29.000Z</time>
      </trkpt>
      <trkpt lat="45.33575" lon="4.62612">
        <ele>664</ele>
        <time>2019-10-30T07:59:42.000Z</time>
      </trkpt>
      <trkpt lat="45.33575" lon="4.62612">
        <ele>664.20001220703</ele>
        <time>2019-10-30T08:00:04.000Z</time>
      </trkpt>
      <trkpt lat="45.33576" lon="4.62611">
        <ele>664.20001220703</ele>
        <time>2019-10-30T08:00:12.000Z</time>
      </trkpt>
      <trkpt lat="45.3358" lon="4.62611">
        <ele>664.20001220703</ele>
        <time>2019-10-30T08:00:20.000Z</time>
      </trkpt>
      <trkpt lat="45.33581" lon="4.62611">
        <ele>664.20001220703</ele>
        <time>2019-10-30T08:00:21.000Z</time>
      </trkpt>
      <trkpt lat="45.33583" lon="4.62611">
        <ele>664</ele>
        <time>2019-10-30T08:00:22.000Z</time>
      </trkpt>
      <trkpt lat="45.33584" lon="4.62612">
        <ele>664.20001220703</ele>
        <time>2019-10-30T08:00:23.000Z</time>
      </trkpt>
      <trkpt lat="45.33587" lon="4.62612">
        <ele>664.20001220703</ele>
        <time>2019-10-30T08:00:25.000Z</time>
      </trkpt>
      <trkpt lat="45.33589" lon="4.62613">
        <ele>664.20001220703</ele>
        <time>2019-10-30T08:00:26.000Z</time>
      </trkpt>
      <trkpt lat="45.3359" lon="4.62613">
        <ele>664.20001220703</ele>
        <time>2019-10-30T08:00:27.000Z</time>
      </trkpt>
      <trkpt lat="45.33593" lon="4.62615">
        <ele>664.20001220703</ele>
        <time>2019-10-30T08:00:29.000Z</time>
      </trkpt>
      <trkpt lat="45.33594" lon="4.62615">
        <ele>664.20001220703</ele>
        <time>2019-10-30T08:00:30.000Z</time>
      </trkpt>
      <trkpt lat="45.33595" lon="4.62616">
        <ele>664.40002441406</ele>
        <time>2019-10-30T08:00:31.000Z</time>
      </trkpt>
      <trkpt lat="45.33596" lon="4.62617">
        <ele>664.40002441406</ele>
        <time>2019-10-30T08:00:32.000Z</time>
      </trkpt>
      <trkpt lat="45.33597" lon="4.62618">
        <ele>664.40002441406</ele>
        <time>2019-10-30T08:00:33.000Z</time>
      </trkpt>
      <trkpt lat="45.336" lon="4.62621">
        <ele>664.79998779297</ele>
        <time>2019-10-30T08:00:36.000Z</time>
      </trkpt>
      <trkpt lat="45.33602" lon="4.62623">
        <ele>665</ele>
        <time>2019-10-30T08:00:37.000Z</time>
      </trkpt>
      <trkpt lat="45.33603" lon="4.62623">
        <ele>665</ele>
        <time>2019-10-30T08:00:38.000Z</time>
      </trkpt>
      <trkpt lat="45.33605" lon="4.62624">
        <ele>665.20001220703</ele>
        <time>2019-10-30T08:00:39.000Z</time>
      </trkpt>
      <trkpt lat="45.33606" lon="4.62625">
        <ele>665.20001220703</ele>
        <time>2019-10-30T08:00:40.000Z</time>
      </trkpt>
      <trkpt lat="45.33607" lon="4.62627">
        <ele>665.20001220703</ele>
        <time>2019-10-30T08:00:41.000Z</time>
      </trkpt>
      <trkpt lat="45.33611" lon="4.62629">
        <ele>665.40002441406</ele>
        <time>2019-10-30T08:00:43.000Z</time>
      </trkpt>
      <trkpt lat="45.33612" lon="4.6263">
        <ele>665.59997558594</ele>
        <time>2019-10-30T08:00:44.000Z</time>
      </trkpt>
      <trkpt lat="45.33613" lon="4.62631">
        <ele>665.59997558594</ele>
        <time>2019-10-30T08:00:45.000Z</time>
      </trkpt>
      <trkpt lat="45.33615" lon="4.62633">
        <ele>665.59997558594</ele>
        <time>2019-10-30T08:00:46.000Z</time>
      </trkpt>
      <trkpt lat="45.33617" lon="4.62634">
        <ele>665.79998779297</ele>
        <time>2019-10-30T08:00:47.000Z</time>
      </trkpt>
      <trkpt lat="45.33619" lon="4.62635">
        <ele>665.79998779297</ele>
        <time>2019-10-30T08:00:48.000Z</time>
      </trkpt>
      <trkpt lat="45.3362" lon="4.62637">
        <ele>666</ele>
        <time>2019-10-30T08:00:49.000Z</time>
      </trkpt>
      <trkpt lat="45.33622" lon="4.62639">
        <ele>666</ele>
        <time>2019-10-30T08:00:50.000Z</time>
      </trkpt>
      <trkpt lat="45.33623" lon="4.6264">
        <ele>666</ele>
        <time>2019-10-30T08:00:51.000Z</time>
      </trkpt>
      <trkpt lat="45.33625" lon="4.62641">
        <ele>666.20001220703</ele>
        <time>2019-10-30T08:00:52.000Z</time>
      </trkpt>
      <trkpt lat="45.33627" lon="4.62641">
        <ele>666.40002441406</ele>
        <time>2019-10-30T08:00:53.000Z</time>
      </trkpt>
      <trkpt lat="45.33629" lon="4.62641">
        <ele>666.59997558594</ele>
        <time>2019-10-30T08:00:54.000Z</time>
      </trkpt>
      <trkpt lat="45.33631" lon="4.62642">
        <ele>666.59997558594</ele>
        <time>2019-10-30T08:00:55.000Z</time>
      </trkpt>
      <trkpt lat="45.33633" lon="4.62641">
        <ele>667</ele>
        <time>2019-10-30T08:00:56.000Z</time>
      </trkpt>
      <trkpt lat="45.33636" lon="4.62641">
        <ele>667</ele>
        <time>2019-10-30T08:00:57.000Z</time>
      </trkpt>
      <trkpt lat="45.33638" lon="4.62641">
        <ele>667.20001220703</ele>
        <time>2019-10-30T08:00:58.000Z</time>
      </trkpt>
      <trkpt lat="45.3364" lon="4.62641">
        <ele>667.40002441406</ele>
        <time>2019-10-30T08:00:59.000Z</time>
      </trkpt>
      <trkpt lat="45.33643" lon="4.62641">
        <ele>667.40002441406</ele>
        <time>2019-10-30T08:01:00.000Z</time>
      </trkpt>
      <trkpt lat="45.33645" lon="4.6264">
        <ele>667.40002441406</ele>
        <time>2019-10-30T08:01:01.000Z</time>
      </trkpt>
      <trkpt lat="45.33647" lon="4.6264">
        <ele>667.59997558594</ele>
        <time>2019-10-30T08:01:02.000Z</time>
      </trkpt>
      <trkpt lat="45.33649" lon="4.62639">
        <ele>667.79998779297</ele>
        <time>2019-10-30T08:01:03.000Z</time>
      </trkpt>
      <trkpt lat="45.33652" lon="4.62639">
        <ele>668.20001220703</ele>
        <time>2019-10-30T08:01:04.000Z</time>
      </trkpt>
      <trkpt lat="45.33654" lon="4.62638">
        <ele>668.40002441406</ele>
        <time>2019-10-30T08:01:05.000Z</time>
      </trkpt>
      <trkpt lat="45.33656" lon="4.62637">
        <ele>668.40002441406</ele>
        <time>2019-10-30T08:01:06.000Z</time>
      </trkpt>
      <trkpt lat="45.33658" lon="4.62636">
        <ele>668.40002441406</ele>
        <time>2019-10-30T08:01:07.000Z</time>
      </trkpt>
      <trkpt lat="45.33659" lon="4.62635">
        <ele>668.40002441406</ele>
        <time>2019-10-30T08:01:08.000Z</time>
      </trkpt>
      <trkpt lat="45.33661" lon="4.62633">
        <ele>668.59997558594</ele>
        <time>2019-10-30T08:01:09.000Z</time>
      </trkpt>
      <trkpt lat="45.33663" lon="4.62631">
        <ele>668.79998779297</ele>
        <time>2019-10-30T08:01:10.000Z</time>
      </trkpt>
      <trkpt lat="45.33664" lon="4.62629">
        <ele>668.79998779297</ele>
        <time>2019-10-30T08:01:11.000Z</time>
      </trkpt>
      <trkpt lat="45.33666" lon="4.62628">
        <ele>669</ele>
        <time>2019-10-30T08:01:12.000Z</time>
      </trkpt>
      <trkpt lat="45.33667" lon="4.62626">
        <ele>669</ele>
        <time>2019-10-30T08:01:13.000Z</time>
      </trkpt>
      <trkpt lat="45.33669" lon="4.62624">
        <ele>669.20001220703</ele>
        <time>2019-10-30T08:01:14.000Z</time>
      </trkpt>
      <trkpt lat="45.33671" lon="4.62622">
        <ele>669.40002441406</ele>
        <time>2019-10-30T08:01:15.000Z</time>
      </trkpt>
      <trkpt lat="45.33672" lon="4.6262">
        <ele>669.40002441406</ele>
        <time>2019-10-30T08:01:16.000Z</time>
      </trkpt>
      <trkpt lat="45.33676" lon="4.62615">
        <ele>669.59997558594</ele>
        <time>2019-10-30T08:01:18.000Z</time>
      </trkpt>
      <trkpt lat="45.33679" lon="4.6261">
        <ele>669.79998779297</ele>
        <time>2019-10-30T08:01:20.000Z</time>
      </trkpt>
      <trkpt lat="45.33681" lon="4.62608">
        <ele>670</ele>
        <time>2019-10-30T08:01:21.000Z</time>
      </trkpt>
      <trkpt lat="45.33683" lon="4.62606">
        <ele>670.20001220703</ele>
        <time>2019-10-30T08:01:22.000Z</time>
      </trkpt>
      <trkpt lat="45.33684" lon="4.62604">
        <ele>670.20001220703</ele>
        <time>2019-10-30T08:01:23.000Z</time>
      </trkpt>
      <trkpt lat="45.33685" lon="4.62602">
        <ele>670.20001220703</ele>
        <time>2019-10-30T08:01:24.000Z</time>
      </trkpt>
      <trkpt lat="45.33687" lon="4.626">
        <ele>670.40002441406</ele>
        <time>2019-10-30T08:01:25.000Z</time>
      </trkpt>
      <trkpt lat="45.33688" lon="4.62598">
        <ele>670.59997558594</ele>
        <time>2019-10-30T08:01:26.000Z</time>
      </trkpt>
      <trkpt lat="45.3369" lon="4.62596">
        <ele>670.59997558594</ele>
        <time>2019-10-30T08:01:27.000Z</time>
      </trkpt>
      <trkpt lat="45.33691" lon="4.62594">
        <ele>670.79998779297</ele>
        <time>2019-10-30T08:01:28.000Z</time>
      </trkpt>
      <trkpt lat="45.33692" lon="4.62592">
        <ele>671</ele>
        <time>2019-10-30T08:01:29.000Z</time>
      </trkpt>
      <trkpt lat="45.33693" lon="4.6259">
        <ele>671.20001220703</ele>
        <time>2019-10-30T08:01:30.000Z</time>
      </trkpt>
      <trkpt lat="45.33694" lon="4.62587">
        <ele>671.20001220703</ele>
        <time>2019-10-30T08:01:31.000Z</time>
      </trkpt>
      <trkpt lat="45.33695" lon="4.62585">
        <ele>671.40002441406</ele>
        <time>2019-10-30T08:01:32.000Z</time>
      </trkpt>
      <trkpt lat="45.33696" lon="4.62583">
        <ele>671.40002441406</ele>
        <time>2019-10-30T08:01:33.000Z</time>
      </trkpt>
      <trkpt lat="45.33696" lon="4.62581">
        <ele>671.59997558594</ele>
        <time>2019-10-30T08:01:34.000Z</time>
      </trkpt>
      <trkpt lat="45.33697" lon="4.62579">
        <ele>671.79998779297</ele>
        <time>2019-10-30T08:01:35.000Z</time>
      </trkpt>
      <trkpt lat="45.33698" lon="4.62577">
        <ele>671.79998779297</ele>
        <time>2019-10-30T08:01:36.000Z</time>
      </trkpt>
      <trkpt lat="45.33699" lon="4.62574">
        <ele>672</ele>
        <time>2019-10-30T08:01:37.000Z</time>
      </trkpt>
      <trkpt lat="45.33701" lon="4.62572">
        <ele>672</ele>
        <time>2019-10-30T08:01:38.000Z</time>
      </trkpt>
      <trkpt lat="45.33702" lon="4.6257">
        <ele>672.20001220703</ele>
        <time>2019-10-30T08:01:39.000Z</time>
      </trkpt>
      <trkpt lat="45.33703" lon="4.62567">
        <ele>672.40002441406</ele>
        <time>2019-10-30T08:01:40.000Z</time>
      </trkpt>
      <trkpt lat="45.33704" lon="4.62565">
        <ele>672.40002441406</ele>
        <time>2019-10-30T08:01:41.000Z</time>
      </trkpt>
      <trkpt lat="45.33705" lon="4.62563">
        <ele>672.59997558594</ele>
        <time>2019-10-30T08:01:42.000Z</time>
      </trkpt>
      <trkpt lat="45.33706" lon="4.6256">
        <ele>672.59997558594</ele>
        <time>2019-10-30T08:01:43.000Z</time>
      </trkpt>
      <trkpt lat="45.33708" lon="4.62558">
        <ele>672.79998779297</ele>
        <time>2019-10-30T08:01:44.000Z</time>
      </trkpt>
      <trkpt lat="45.33709" lon="4.62556">
        <ele>672.79998779297</ele>
        <time>2019-10-30T08:01:45.000Z</time>
      </trkpt>
      <trkpt lat="45.3371" lon="4.62553">
        <ele>673</ele>
        <time>2019-10-30T08:01:46.000Z</time>
      </trkpt>
      <trkpt lat="45.3371" lon="4.62551">
        <ele>673.20001220703</ele>
        <time>2019-10-30T08:01:47.000Z</time>
      </trkpt>
      <trkpt lat="45.33712" lon="4.62549">
        <ele>673.40002441406</ele>
        <time>2019-10-30T08:01:48.000Z</time>
      </trkpt>
      <trkpt lat="45.33713" lon="4.62546">
        <ele>673.59997558594</ele>
        <time>2019-10-30T08:01:49.000Z</time>
      </trkpt>
      <trkpt lat="45.33714" lon="4.62544">
        <ele>673.59997558594</ele>
        <time>2019-10-30T08:01:50.000Z</time>
      </trkpt>
      <trkpt lat="45.33714" lon="4.62541">
        <ele>673.79998779297</ele>
        <time>2019-10-30T08:01:51.000Z</time>
      </trkpt>
      <trkpt lat="45.33715" lon="4.62538">
        <ele>674</ele>
        <time>2019-10-30T08:01:52.000Z</time>
      </trkpt>
      <trkpt lat="45.33716" lon="4.62535">
        <ele>673.79998779297</ele>
        <time>2019-10-30T08:01:53.000Z</time>
      </trkpt>
      <trkpt lat="45.33717" lon="4.62532">
        <ele>674.20001220703</ele>
        <time>2019-10-30T08:01:54.000Z</time>
      </trkpt>
      <trkpt lat="45.33717" lon="4.62529">
        <ele>674.40002441406</ele>
        <time>2019-10-30T08:01:55.000Z</time>
      </trkpt>
      <trkpt lat="45.33718" lon="4.62526">
        <ele>674.40002441406</ele>
        <time>2019-10-30T08:01:56.000Z</time>
      </trkpt>
      <trkpt lat="45.33718" lon="4.62523">
        <ele>674.59997558594</ele>
        <time>2019-10-30T08:01:57.000Z</time>
      </trkpt>
      <trkpt lat="45.33719" lon="4.6252">
        <ele>674.79998779297</ele>
        <time>2019-10-30T08:01:58.000Z</time>
      </trkpt>
      <trkpt lat="45.33719" lon="4.62517">
        <ele>674.79998779297</ele>
        <time>2019-10-30T08:01:59.000Z</time>
      </trkpt>
      <trkpt lat="45.33719" lon="4.62513">
        <ele>675</ele>
        <time>2019-10-30T08:02:00.000Z</time>
      </trkpt>
      <trkpt lat="45.3372" lon="4.6251">
        <ele>675</ele>
        <time>2019-10-30T08:02:01.000Z</time>
      </trkpt>
      <trkpt lat="45.33721" lon="4.62508">
        <ele>675</ele>
        <time>2019-10-30T08:02:02.000Z</time>
      </trkpt>
      <trkpt lat="45.33723" lon="4.62505">
        <ele>675.20001220703</ele>
        <time>2019-10-30T08:02:03.000Z</time>
      </trkpt>
      <trkpt lat="45.33724" lon="4.62502">
        <ele>675.40002441406</ele>
        <time>2019-10-30T08:02:04.000Z</time>
      </trkpt>
      <trkpt lat="45.33725" lon="4.625">
        <ele>675.59997558594</ele>
        <time>2019-10-30T08:02:05.000Z</time>
      </trkpt>
      <trkpt lat="45.33726" lon="4.62497">
        <ele>675.79998779297</ele>
        <time>2019-10-30T08:02:06.000Z</time>
      </trkpt>
      <trkpt lat="45.33727" lon="4.62495">
        <ele>675.79998779297</ele>
        <time>2019-10-30T08:02:07.000Z</time>
      </trkpt>
      <trkpt lat="45.33728" lon="4.62492">
        <ele>675.79998779297</ele>
        <time>2019-10-30T08:02:08.000Z</time>
      </trkpt>
      <trkpt lat="45.33729" lon="4.62489">
        <ele>676.20001220703</ele>
        <time>2019-10-30T08:02:09.000Z</time>
      </trkpt>
      <trkpt lat="45.33734" lon="4.62484">
        <ele>676.40002441406</ele>
        <time>2019-10-30T08:02:11.000Z</time>
      </trkpt>
      <trkpt lat="45.33737" lon="4.62479">
        <ele>676.59997558594</ele>
        <time>2019-10-30T08:02:13.000Z</time>
      </trkpt>
      <trkpt lat="45.3374" lon="4.62477">
        <ele>676.79998779297</ele>
        <time>2019-10-30T08:02:14.000Z</time>
      </trkpt>
      <trkpt lat="45.33744" lon="4.62473">
        <ele>677.20001220703</ele>
        <time>2019-10-30T08:02:16.000Z</time>
      </trkpt>
      <trkpt lat="45.33746" lon="4.62471">
        <ele>677</ele>
        <time>2019-10-30T08:02:17.000Z</time>
      </trkpt>
      <trkpt lat="45.33748" lon="4.62469">
        <ele>677.20001220703</ele>
        <time>2019-10-30T08:02:18.000Z</time>
      </trkpt>
      <trkpt lat="45.33749" lon="4.62468">
        <ele>677.20001220703</ele>
        <time>2019-10-30T08:02:19.000Z</time>
      </trkpt>
      <trkpt lat="45.33751" lon="4.62467">
        <ele>677.20001220703</ele>
        <time>2019-10-30T08:02:20.000Z</time>
      </trkpt>
      <trkpt lat="45.33752" lon="4.62467">
        <ele>677.40002441406</ele>
        <time>2019-10-30T08:02:21.000Z</time>
      </trkpt>
      <trkpt lat="45.33754" lon="4.62466">
        <ele>677.40002441406</ele>
        <time>2019-10-30T08:02:22.000Z</time>
      </trkpt>
      <trkpt lat="45.33755" lon="4.62464">
        <ele>677.79998779297</ele>
        <time>2019-10-30T08:02:23.000Z</time>
      </trkpt>
      <trkpt lat="45.33755" lon="4.62462">
        <ele>677.59997558594</ele>
        <time>2019-10-30T08:02:24.000Z</time>
      </trkpt>
      <trkpt lat="45.33755" lon="4.62461">
        <ele>677.59997558594</ele>
        <time>2019-10-30T08:02:25.000Z</time>
      </trkpt>
      <trkpt lat="45.33755" lon="4.62459">
        <ele>677.79998779297</ele>
        <time>2019-10-30T08:02:26.000Z</time>
      </trkpt>
      <trkpt lat="45.33754" lon="4.62458">
        <ele>677.79998779297</ele>
        <time>2019-10-30T08:02:27.000Z</time>
      </trkpt>
      <trkpt lat="45.33752" lon="4.62458">
        <ele>678</ele>
        <time>2019-10-30T08:02:28.000Z</time>
      </trkpt>
      <trkpt lat="45.33751" lon="4.62458">
        <ele>678</ele>
        <time>2019-10-30T08:02:29.000Z</time>
      </trkpt>
      <trkpt lat="45.33749" lon="4.62458">
        <ele>678</ele>
        <time>2019-10-30T08:02:30.000Z</time>
      </trkpt>
      <trkpt lat="45.33748" lon="4.62458">
        <ele>678.20001220703</ele>
        <time>2019-10-30T08:02:31.000Z</time>
      </trkpt>
      <trkpt lat="45.33747" lon="4.62458">
        <ele>678.20001220703</ele>
        <time>2019-10-30T08:02:32.000Z</time>
      </trkpt>
      <trkpt lat="45.33745" lon="4.62459">
        <ele>678.20001220703</ele>
        <time>2019-10-30T08:02:33.000Z</time>
      </trkpt>
      <trkpt lat="45.33744" lon="4.62459">
        <ele>678.20001220703</ele>
        <time>2019-10-30T08:02:34.000Z</time>
      </trkpt>
      <trkpt lat="45.33742" lon="4.6246">
        <ele>678.59997558594</ele>
        <time>2019-10-30T08:02:35.000Z</time>
      </trkpt>
      <trkpt lat="45.33741" lon="4.62461">
        <ele>678.59997558594</ele>
        <time>2019-10-30T08:02:36.000Z</time>
      </trkpt>
      <trkpt lat="45.33739" lon="4.62462">
        <ele>679</ele>
        <time>2019-10-30T08:02:37.000Z</time>
      </trkpt>
      <trkpt lat="45.33738" lon="4.62463">
        <ele>679.40002441406</ele>
        <time>2019-10-30T08:02:38.000Z</time>
      </trkpt>
      <trkpt lat="45.33737" lon="4.62463">
        <ele>679.59997558594</ele>
        <time>2019-10-30T08:02:39.000Z</time>
      </trkpt>
      <trkpt lat="45.33736" lon="4.62465">
        <ele>679.79998779297</ele>
        <time>2019-10-30T08:02:40.000Z</time>
      </trkpt>
      <trkpt lat="45.33735" lon="4.62465">
        <ele>680.20001220703</ele>
        <time>2019-10-30T08:02:41.000Z</time>
      </trkpt>
      <trkpt lat="45.33734" lon="4.62466">
        <ele>680.79998779297</ele>
        <time>2019-10-30T08:02:42.000Z</time>
      </trkpt>
      <trkpt lat="45.33733" lon="4.62466">
        <ele>681.20001220703</ele>
        <time>2019-10-30T08:02:43.000Z</time>
      </trkpt>
      <trkpt lat="45.33732" lon="4.62467">
        <ele>681.40002441406</ele>
        <time>2019-10-30T08:02:44.000Z</time>
      </trkpt>
      <trkpt lat="45.33731" lon="4.62468">
        <ele>681.79998779297</ele>
        <time>2019-10-30T08:02:45.000Z</time>
      </trkpt>
      <trkpt lat="45.3373" lon="4.62468">
        <ele>682.20001220703</ele>
        <time>2019-10-30T08:02:46.000Z</time>
      </trkpt>
      <trkpt lat="45.33729" lon="4.62469">
        <ele>682.40002441406</ele>
        <time>2019-10-30T08:02:47.000Z</time>
      </trkpt>
      <trkpt lat="45.33728" lon="4.6247">
        <ele>683</ele>
        <time>2019-10-30T08:02:48.000Z</time>
      </trkpt>
      <trkpt lat="45.33727" lon="4.62471">
        <ele>683.40002441406</ele>
        <time>2019-10-30T08:02:49.000Z</time>
      </trkpt>
      <trkpt lat="45.33726" lon="4.62471">
        <ele>683.79998779297</ele>
        <time>2019-10-30T08:02:50.000Z</time>
      </trkpt>
      <trkpt lat="45.33725" lon="4.62472">
        <ele>683.79998779297</ele>
        <time>2019-10-30T08:02:51.000Z</time>
      </trkpt>
      <trkpt lat="45.33724" lon="4.62472">
        <ele>683.79998779297</ele>
        <time>2019-10-30T08:02:52.000Z</time>
      </trkpt>
      <trkpt lat="45.33723" lon="4.62473">
        <ele>684</ele>
        <time>2019-10-30T08:02:53.000Z</time>
      </trkpt>
      <trkpt lat="45.33722" lon="4.62473">
        <ele>684.20001220703</ele>
        <time>2019-10-30T08:02:54.000Z</time>
      </trkpt>
      <trkpt lat="45.33721" lon="4.62473">
        <ele>684.40002441406</ele>
        <time>2019-10-30T08:02:55.000Z</time>
      </trkpt>
      <trkpt lat="45.3372" lon="4.62474">
        <ele>684.59997558594</ele>
        <time>2019-10-30T08:02:56.000Z</time>
      </trkpt>
      <trkpt lat="45.33719" lon="4.62474">
        <ele>684.79998779297</ele>
        <time>2019-10-30T08:02:57.000Z</time>
      </trkpt>
      <trkpt lat="45.33718" lon="4.62475">
        <ele>685</ele>
        <time>2019-10-30T08:02:58.000Z</time>
      </trkpt>
      <trkpt lat="45.33717" lon="4.62476">
        <ele>685.20001220703</ele>
        <time>2019-10-30T08:02:59.000Z</time>
      </trkpt>
      <trkpt lat="45.33716" lon="4.62477">
        <ele>685.59997558594</ele>
        <time>2019-10-30T08:03:00.000Z</time>
      </trkpt>
      <trkpt lat="45.33715" lon="4.62478">
        <ele>685.79998779297</ele>
        <time>2019-10-30T08:03:01.000Z</time>
      </trkpt>
      <trkpt lat="45.33714" lon="4.62479">
        <ele>686.20001220703</ele>
        <time>2019-10-30T08:03:02.000Z</time>
      </trkpt>
      <trkpt lat="45.33714" lon="4.6248">
        <ele>686.59997558594</ele>
        <time>2019-10-30T08:03:03.000Z</time>
      </trkpt>
      <trkpt lat="45.33713" lon="4.62481">
        <ele>686.59997558594</ele>
        <time>2019-10-30T08:03:04.000Z</time>
      </trkpt>
      <trkpt lat="45.33712" lon="4.62481">
        <ele>687.20001220703</ele>
        <time>2019-10-30T08:03:05.000Z</time>
      </trkpt>
      <trkpt lat="45.33711" lon="4.62482">
        <ele>687.40002441406</ele>
        <time>2019-10-30T08:03:06.000Z</time>
      </trkpt>
      <trkpt lat="45.3371" lon="4.62483">
        <ele>687.79998779297</ele>
        <time>2019-10-30T08:03:07.000Z</time>
      </trkpt>
      <trkpt lat="45.33709" lon="4.62484">
        <ele>688</ele>
        <time>2019-10-30T08:03:08.000Z</time>
      </trkpt>
      <trkpt lat="45.33708" lon="4.62484">
        <ele>688.40002441406</ele>
        <time>2019-10-30T08:03:09.000Z</time>
      </trkpt>
      <trkpt lat="45.33707" lon="4.62485">
        <ele>688.59997558594</ele>
        <time>2019-10-30T08:03:10.000Z</time>
      </trkpt>
      <trkpt lat="45.33706" lon="4.62486">
        <ele>688.79998779297</ele>
        <time>2019-10-30T08:03:11.000Z</time>
      </trkpt>
      <trkpt lat="45.33704" lon="4.62487">
        <ele>689.20001220703</ele>
        <time>2019-10-30T08:03:12.000Z</time>
      </trkpt>
      <trkpt lat="45.33703" lon="4.62488">
        <ele>689.59997558594</ele>
        <time>2019-10-30T08:03:13.000Z</time>
      </trkpt>
      <trkpt lat="45.33702" lon="4.62489">
        <ele>690</ele>
        <time>2019-10-30T08:03:14.000Z</time>
      </trkpt>
      <trkpt lat="45.33701" lon="4.6249">
        <ele>690.20001220703</ele>
        <time>2019-10-30T08:03:15.000Z</time>
      </trkpt>
      <trkpt lat="45.337" lon="4.62491">
        <ele>690.79998779297</ele>
        <time>2019-10-30T08:03:16.000Z</time>
      </trkpt>
      <trkpt lat="45.33698" lon="4.62492">
        <ele>690.79998779297</ele>
        <time>2019-10-30T08:03:17.000Z</time>
      </trkpt>
      <trkpt lat="45.33697" lon="4.62493">
        <ele>691.20001220703</ele>
        <time>2019-10-30T08:03:18.000Z</time>
      </trkpt>
      <trkpt lat="45.33696" lon="4.62494">
        <ele>691.20001220703</ele>
        <time>2019-10-30T08:03:19.000Z</time>
      </trkpt>
      <trkpt lat="45.33695" lon="4.62495">
        <ele>691.59997558594</ele>
        <time>2019-10-30T08:03:20.000Z</time>
      </trkpt>
      <trkpt lat="45.33694" lon="4.62496">
        <ele>692</ele>
        <time>2019-10-30T08:03:21.000Z</time>
      </trkpt>
      <trkpt lat="45.33694" lon="4.62498">
        <ele>692.40002441406</ele>
        <time>2019-10-30T08:03:22.000Z</time>
      </trkpt>
      <trkpt lat="45.33692" lon="4.62499">
        <ele>692.79998779297</ele>
        <time>2019-10-30T08:03:23.000Z</time>
      </trkpt>
      <trkpt lat="45.3369" lon="4.625">
        <ele>693.20001220703</ele>
        <time>2019-10-30T08:03:24.000Z</time>
      </trkpt>
      <trkpt lat="45.33689" lon="4.62501">
        <ele>693.59997558594</ele>
        <time>2019-10-30T08:03:25.000Z</time>
      </trkpt>
      <trkpt lat="45.33687" lon="4.62502">
        <ele>693.79998779297</ele>
        <time>2019-10-30T08:03:26.000Z</time>
      </trkpt>
      <trkpt lat="45.33686" lon="4.62503">
        <ele>694</ele>
        <time>2019-10-30T08:03:27.000Z</time>
      </trkpt>
      <trkpt lat="45.33684" lon="4.62504">
        <ele>694.59997558594</ele>
        <time>2019-10-30T08:03:28.000Z</time>
      </trkpt>
      <trkpt lat="45.33683" lon="4.62506">
        <ele>694.79998779297</ele>
        <time>2019-10-30T08:03:29.000Z</time>
      </trkpt>
      <trkpt lat="45.33683" lon="4.62507">
        <ele>695</ele>
        <time>2019-10-30T08:03:30.000Z</time>
      </trkpt>
      <trkpt lat="45.33682" lon="4.62509">
        <ele>695.59997558594</ele>
        <time>2019-10-30T08:03:31.000Z</time>
      </trkpt>
      <trkpt lat="45.33681" lon="4.62511">
        <ele>695.79998779297</ele>
        <time>2019-10-30T08:03:32.000Z</time>
      </trkpt>
      <trkpt lat="45.3368" lon="4.62513">
        <ele>695.79998779297</ele>
        <time>2019-10-30T08:03:33.000Z</time>
      </trkpt>
      <trkpt lat="45.33679" lon="4.62514">
        <ele>696.20001220703</ele>
        <time>2019-10-30T08:03:34.000Z</time>
      </trkpt>
      <trkpt lat="45.33678" lon="4.62516">
        <ele>696.59997558594</ele>
        <time>2019-10-30T08:03:35.000Z</time>
      </trkpt>
      <trkpt lat="45.33677" lon="4.62517">
        <ele>697.20001220703</ele>
        <time>2019-10-30T08:03:36.000Z</time>
      </trkpt>
      <trkpt lat="45.33675" lon="4.62519">
        <ele>697.59997558594</ele>
        <time>2019-10-30T08:03:37.000Z</time>
      </trkpt>
      <trkpt lat="45.33674" lon="4.6252">
        <ele>698</ele>
        <time>2019-10-30T08:03:38.000Z</time>
      </trkpt>
      <trkpt lat="45.33673" lon="4.62521">
        <ele>698.40002441406</ele>
        <time>2019-10-30T08:03:39.000Z</time>
      </trkpt>
      <trkpt lat="45.33671" lon="4.62522">
        <ele>698.79998779297</ele>
        <time>2019-10-30T08:03:40.000Z</time>
      </trkpt>
      <trkpt lat="45.3367" lon="4.62523">
        <ele>699.20001220703</ele>
        <time>2019-10-30T08:03:41.000Z</time>
      </trkpt>
      <trkpt lat="45.33668" lon="4.62523">
        <ele>699.40002441406</ele>
        <time>2019-10-30T08:03:42.000Z</time>
      </trkpt>
      <trkpt lat="45.33666" lon="4.62524">
        <ele>699.40002441406</ele>
        <time>2019-10-30T08:03:43.000Z</time>
      </trkpt>
      <trkpt lat="45.33664" lon="4.62526">
        <ele>699.59997558594</ele>
        <time>2019-10-30T08:03:44.000Z</time>
      </trkpt>
      <trkpt lat="45.33662" lon="4.62527">
        <ele>700</ele>
        <time>2019-10-30T08:03:45.000Z</time>
      </trkpt>
      <trkpt lat="45.3366" lon="4.62527">
        <ele>700.20001220703</ele>
        <time>2019-10-30T08:03:46.000Z</time>
      </trkpt>
      <trkpt lat="45.33658" lon="4.62528">
        <ele>700.59997558594</ele>
        <time>2019-10-30T08:03:47.000Z</time>
      </trkpt>
      <trkpt lat="45.33656" lon="4.62529">
        <ele>701</ele>
        <time>2019-10-30T08:03:48.000Z</time>
      </trkpt>
      <trkpt lat="45.33655" lon="4.6253">
        <ele>701.20001220703</ele>
        <time>2019-10-30T08:03:49.000Z</time>
      </trkpt>
      <trkpt lat="45.33653" lon="4.62531">
        <ele>701.40002441406</ele>
        <time>2019-10-30T08:03:50.000Z</time>
      </trkpt>
      <trkpt lat="45.33651" lon="4.62531">
        <ele>701.59997558594</ele>
        <time>2019-10-30T08:03:51.000Z</time>
      </trkpt>
      <trkpt lat="45.33649" lon="4.62532">
        <ele>702</ele>
        <time>2019-10-30T08:03:52.000Z</time>
      </trkpt>
      <trkpt lat="45.33648" lon="4.62532">
        <ele>702.40002441406</ele>
        <time>2019-10-30T08:03:53.000Z</time>
      </trkpt>
      <trkpt lat="45.33646" lon="4.62532">
        <ele>702.59997558594</ele>
        <time>2019-10-30T08:03:54.000Z</time>
      </trkpt>
      <trkpt lat="45.33644" lon="4.62532">
        <ele>702.79998779297</ele>
        <time>2019-10-30T08:03:55.000Z</time>
      </trkpt>
      <trkpt lat="45.33643" lon="4.62531">
        <ele>703</ele>
        <time>2019-10-30T08:03:56.000Z</time>
      </trkpt>
      <trkpt lat="45.33642" lon="4.62531">
        <ele>703.20001220703</ele>
        <time>2019-10-30T08:03:57.000Z</time>
      </trkpt>
      <trkpt lat="45.3364" lon="4.6253">
        <ele>703.40002441406</ele>
        <time>2019-10-30T08:03:58.000Z</time>
      </trkpt>
      <trkpt lat="45.3364" lon="4.62529">
        <ele>703.40002441406</ele>
        <time>2019-10-30T08:03:59.000Z</time>
      </trkpt>
      <trkpt lat="45.33639" lon="4.62527">
        <ele>703.40002441406</ele>
        <time>2019-10-30T08:04:00.000Z</time>
      </trkpt>
      <trkpt lat="45.33638" lon="4.62526">
        <ele>703.59997558594</ele>
        <time>2019-10-30T08:04:01.000Z</time>
      </trkpt>
      <trkpt lat="45.33637" lon="4.62524">
        <ele>704</ele>
        <time>2019-10-30T08:04:02.000Z</time>
      </trkpt>
      <trkpt lat="45.33635" lon="4.62523">
        <ele>704.20001220703</ele>
        <time>2019-10-30T08:04:03.000Z</time>
      </trkpt>
      <trkpt lat="45.33634" lon="4.62522">
        <ele>704.40002441406</ele>
        <time>2019-10-30T08:04:04.000Z</time>
      </trkpt>
      <trkpt lat="45.33633" lon="4.62521">
        <ele>704.79998779297</ele>
        <time>2019-10-30T08:04:05.000Z</time>
      </trkpt>
      <trkpt lat="45.33631" lon="4.62519">
        <ele>705</ele>
        <time>2019-10-30T08:04:06.000Z</time>
      </trkpt>
      <trkpt lat="45.3363" lon="4.62518">
        <ele>705</ele>
        <time>2019-10-30T08:04:07.000Z</time>
      </trkpt>
      <trkpt lat="45.33629" lon="4.62516">
        <ele>705.40002441406</ele>
        <time>2019-10-30T08:04:08.000Z</time>
      </trkpt>
      <trkpt lat="45.33627" lon="4.62515">
        <ele>705.40002441406</ele>
        <time>2019-10-30T08:04:09.000Z</time>
      </trkpt>
      <trkpt lat="45.33626" lon="4.62513">
        <ele>705.40002441406</ele>
        <time>2019-10-30T08:04:10.000Z</time>
      </trkpt>
      <trkpt lat="45.33625" lon="4.62512">
        <ele>705.79998779297</ele>
        <time>2019-10-30T08:04:11.000Z</time>
      </trkpt>
      <trkpt lat="45.33624" lon="4.6251">
        <ele>706.20001220703</ele>
        <time>2019-10-30T08:04:12.000Z</time>
      </trkpt>
      <trkpt lat="45.33623" lon="4.62508">
        <ele>706.40002441406</ele>
        <time>2019-10-30T08:04:13.000Z</time>
      </trkpt>
      <trkpt lat="45.33622" lon="4.62506">
        <ele>706.79998779297</ele>
        <time>2019-10-30T08:04:14.000Z</time>
      </trkpt>
      <trkpt lat="45.33621" lon="4.62505">
        <ele>707.20001220703</ele>
        <time>2019-10-30T08:04:15.000Z</time>
      </trkpt>
      <trkpt lat="45.33621" lon="4.62502">
        <ele>707.20001220703</ele>
        <time>2019-10-30T08:04:16.000Z</time>
      </trkpt>
      <trkpt lat="45.3362" lon="4.625">
        <ele>707.40002441406</ele>
        <time>2019-10-30T08:04:17.000Z</time>
      </trkpt>
      <trkpt lat="45.3362" lon="4.62498">
        <ele>707.40002441406</ele>
        <time>2019-10-30T08:04:18.000Z</time>
      </trkpt>
      <trkpt lat="45.3362" lon="4.62495">
        <ele>707.59997558594</ele>
        <time>2019-10-30T08:04:19.000Z</time>
      </trkpt>
      <trkpt lat="45.3362" lon="4.62493">
        <ele>707.59997558594</ele>
        <time>2019-10-30T08:04:20.000Z</time>
      </trkpt>
      <trkpt lat="45.3362" lon="4.62491">
        <ele>707.79998779297</ele>
        <time>2019-10-30T08:04:21.000Z</time>
      </trkpt>
      <trkpt lat="45.3362" lon="4.62489">
        <ele>707.79998779297</ele>
        <time>2019-10-30T08:04:22.000Z</time>
      </trkpt>
      <trkpt lat="45.3362" lon="4.62487">
        <ele>707.59997558594</ele>
        <time>2019-10-30T08:04:23.000Z</time>
      </trkpt>
      <trkpt lat="45.3362" lon="4.62484">
        <ele>708</ele>
        <time>2019-10-30T08:04:24.000Z</time>
      </trkpt>
      <trkpt lat="45.3362" lon="4.62482">
        <ele>708.40002441406</ele>
        <time>2019-10-30T08:04:25.000Z</time>
      </trkpt>
      <trkpt lat="45.3362" lon="4.6248">
        <ele>708.59997558594</ele>
        <time>2019-10-30T08:04:26.000Z</time>
      </trkpt>
      <trkpt lat="45.3362" lon="4.62478">
        <ele>708.79998779297</ele>
        <time>2019-10-30T08:04:27.000Z</time>
      </trkpt>
      <trkpt lat="45.3362" lon="4.62476">
        <ele>708.79998779297</ele>
        <time>2019-10-30T08:04:28.000Z</time>
      </trkpt>
      <trkpt lat="45.3362" lon="4.62475">
        <ele>709.20001220703</ele>
        <time>2019-10-30T08:04:29.000Z</time>
      </trkpt>
      <trkpt lat="45.3362" lon="4.62473">
        <ele>709.79998779297</ele>
        <time>2019-10-30T08:04:30.000Z</time>
      </trkpt>
      <trkpt lat="45.3362" lon="4.62471">
        <ele>710.20001220703</ele>
        <time>2019-10-30T08:04:31.000Z</time>
      </trkpt>
      <trkpt lat="45.3362" lon="4.62469">
        <ele>710.79998779297</ele>
        <time>2019-10-30T08:04:32.000Z</time>
      </trkpt>
      <trkpt lat="45.3362" lon="4.62467">
        <ele>711</ele>
        <time>2019-10-30T08:04:33.000Z</time>
      </trkpt>
      <trkpt lat="45.3362" lon="4.62466">
        <ele>711.79998779297</ele>
        <time>2019-10-30T08:04:34.000Z</time>
      </trkpt>
      <trkpt lat="45.3362" lon="4.62463">
        <ele>711.79998779297</ele>
        <time>2019-10-30T08:04:35.000Z</time>
      </trkpt>
      <trkpt lat="45.33621" lon="4.62461">
        <ele>712.20001220703</ele>
        <time>2019-10-30T08:04:36.000Z</time>
      </trkpt>
      <trkpt lat="45.33621" lon="4.62459">
        <ele>712.40002441406</ele>
        <time>2019-10-30T08:04:37.000Z</time>
      </trkpt>
      <trkpt lat="45.33621" lon="4.62456">
        <ele>712.79998779297</ele>
        <time>2019-10-30T08:04:38.000Z</time>
      </trkpt>
      <trkpt lat="45.33621" lon="4.62454">
        <ele>713.20001220703</ele>
        <time>2019-10-30T08:04:39.000Z</time>
      </trkpt>
      <trkpt lat="45.33621" lon="4.62451">
        <ele>713.40002441406</ele>
        <time>2019-10-30T08:04:40.000Z</time>
      </trkpt>
      <trkpt lat="45.33621" lon="4.62449">
        <ele>713.59997558594</ele>
        <time>2019-10-30T08:04:41.000Z</time>
      </trkpt>
      <trkpt lat="45.33621" lon="4.62448">
        <ele>714</ele>
        <time>2019-10-30T08:04:42.000Z</time>
      </trkpt>
      <trkpt lat="45.33621" lon="4.62448">
        <ele>714.40002441406</ele>
        <time>2019-10-30T08:04:43.000Z</time>
      </trkpt>
      <trkpt lat="45.33621" lon="4.62446">
        <ele>714.59997558594</ele>
        <time>2019-10-30T08:04:45.000Z</time>
      </trkpt>
      <trkpt lat="45.33621" lon="4.62446">
        <ele>716.40002441406</ele>
        <time>2019-10-30T08:04:58.000Z</time>
      </trkpt>
      <trkpt lat="45.33621" lon="4.62446">
        <ele>716.40002441406</ele>
        <time>2019-10-30T08:05:11.000Z</time>
      </trkpt>
      <trkpt lat="45.33621" lon="4.62445">
        <ele>716.40002441406</ele>
        <time>2019-10-30T08:05:24.000Z</time>
      </trkpt>
      <trkpt lat="45.33621" lon="4.62444">
        <ele>716.20001220703</ele>
        <time>2019-10-30T08:05:34.000Z</time>
      </trkpt>
      <trkpt lat="45.33621" lon="4.62444">
        <ele>716</ele>
        <time>2019-10-30T08:05:48.000Z</time>
      </trkpt>
      <trkpt lat="45.33621" lon="4.62444">
        <ele>716.20001220703</ele>
        <time>2019-10-30T08:05:58.000Z</time>
      </trkpt>
      <trkpt lat="45.3362" lon="4.62444">
        <ele>716.20001220703</ele>
        <time>2019-10-30T08:06:11.000Z</time>
      </trkpt>
      <trkpt lat="45.3362" lon="4.62441">
        <ele>716.20001220703</ele>
        <time>2019-10-30T08:06:20.000Z</time>
      </trkpt>
      <trkpt lat="45.3362" lon="4.6244">
        <ele>716.20001220703</ele>
        <time>2019-10-30T08:06:21.000Z</time>
      </trkpt>
      <trkpt lat="45.3362" lon="4.62438">
        <ele>716.20001220703</ele>
        <time>2019-10-30T08:06:22.000Z</time>
      </trkpt>
      <trkpt lat="45.3362" lon="4.62436">
        <ele>716</ele>
        <time>2019-10-30T08:06:23.000Z</time>
      </trkpt>
      <trkpt lat="45.3362" lon="4.62433">
        <ele>716.20001220703</ele>
        <time>2019-10-30T08:06:24.000Z</time>
      </trkpt>
      <trkpt lat="45.33621" lon="4.6243">
        <ele>716.20001220703</ele>
        <time>2019-10-30T08:06:25.000Z</time>
      </trkpt>
      <trkpt lat="45.33621" lon="4.62428">
        <ele>716.20001220703</ele>
        <time>2019-10-30T08:06:26.000Z</time>
      </trkpt>
      <trkpt lat="45.33621" lon="4.62425">
        <ele>716.40002441406</ele>
        <time>2019-10-30T08:06:27.000Z</time>
      </trkpt>
      <trkpt lat="45.33621" lon="4.62422">
        <ele>716.40002441406</ele>
        <time>2019-10-30T08:06:28.000Z</time>
      </trkpt>
      <trkpt lat="45.33621" lon="4.62418">
        <ele>716.59997558594</ele>
        <time>2019-10-30T08:06:29.000Z</time>
      </trkpt>
      <trkpt lat="45.33621" lon="4.62415">
        <ele>716.59997558594</ele>
        <time>2019-10-30T08:06:30.000Z</time>
      </trkpt>
      <trkpt lat="45.33621" lon="4.62411">
        <ele>716.79998779297</ele>
        <time>2019-10-30T08:06:31.000Z</time>
      </trkpt>
      <trkpt lat="45.33621" lon="4.62408">
        <ele>716.79998779297</ele>
        <time>2019-10-30T08:06:32.000Z</time>
      </trkpt>
      <trkpt lat="45.33621" lon="4.62405">
        <ele>717.20001220703</ele>
        <time>2019-10-30T08:06:33.000Z</time>
      </trkpt>
      <trkpt lat="45.33622" lon="4.62402">
        <ele>717.20001220703</ele>
        <time>2019-10-30T08:06:34.000Z</time>
      </trkpt>
      <trkpt lat="45.33622" lon="4.624">
        <ele>717.59997558594</ele>
        <time>2019-10-30T08:06:35.000Z</time>
      </trkpt>
      <trkpt lat="45.33622" lon="4.62397">
        <ele>717.59997558594</ele>
        <time>2019-10-30T08:06:36.000Z</time>
      </trkpt>
      <trkpt lat="45.33622" lon="4.62395">
        <ele>717.59997558594</ele>
        <time>2019-10-30T08:06:37.000Z</time>
      </trkpt>
      <trkpt lat="45.33622" lon="4.62392">
        <ele>718</ele>
        <time>2019-10-30T08:06:38.000Z</time>
      </trkpt>
      <trkpt lat="45.33622" lon="4.62389">
        <ele>717.79998779297</ele>
        <time>2019-10-30T08:06:39.000Z</time>
      </trkpt>
      <trkpt lat="45.33622" lon="4.62387">
        <ele>718</ele>
        <time>2019-10-30T08:06:40.000Z</time>
      </trkpt>
      <trkpt lat="45.33622" lon="4.62385">
        <ele>718.20001220703</ele>
        <time>2019-10-30T08:06:41.000Z</time>
      </trkpt>
      <trkpt lat="45.33623" lon="4.62382">
        <ele>718.20001220703</ele>
        <time>2019-10-30T08:06:42.000Z</time>
      </trkpt>
      <trkpt lat="45.33623" lon="4.6238">
        <ele>718.20001220703</ele>
        <time>2019-10-30T08:06:43.000Z</time>
      </trkpt>
      <trkpt lat="45.33624" lon="4.62378">
        <ele>718.59997558594</ele>
        <time>2019-10-30T08:06:44.000Z</time>
      </trkpt>
      <trkpt lat="45.33624" lon="4.62376">
        <ele>718.59997558594</ele>
        <time>2019-10-30T08:06:45.000Z</time>
      </trkpt>
      <trkpt lat="45.33624" lon="4.62373">
        <ele>718.59997558594</ele>
        <time>2019-10-30T08:06:46.000Z</time>
      </trkpt>
      <trkpt lat="45.33624" lon="4.6237">
        <ele>718.79998779297</ele>
        <time>2019-10-30T08:06:47.000Z</time>
      </trkpt>
      <trkpt lat="45.33624" lon="4.62367">
        <ele>719</ele>
        <time>2019-10-30T08:06:48.000Z</time>
      </trkpt>
      <trkpt lat="45.33624" lon="4.62364">
        <ele>719.20001220703</ele>
        <time>2019-10-30T08:06:49.000Z</time>
      </trkpt>
      <trkpt lat="45.33624" lon="4.6236">
        <ele>719.40002441406</ele>
        <time>2019-10-30T08:06:50.000Z</time>
      </trkpt>
      <trkpt lat="45.33623" lon="4.62357">
        <ele>719.59997558594</ele>
        <time>2019-10-30T08:06:51.000Z</time>
      </trkpt>
      <trkpt lat="45.33623" lon="4.62354">
        <ele>719.79998779297</ele>
        <time>2019-10-30T08:06:52.000Z</time>
      </trkpt>
      <trkpt lat="45.33623" lon="4.62352">
        <ele>720</ele>
        <time>2019-10-30T08:06:53.000Z</time>
      </trkpt>
      <trkpt lat="45.33623" lon="4.62349">
        <ele>720.20001220703</ele>
        <time>2019-10-30T08:06:54.000Z</time>
      </trkpt>
      <trkpt lat="45.33623" lon="4.62347">
        <ele>720.59997558594</ele>
        <time>2019-10-30T08:06:55.000Z</time>
      </trkpt>
      <trkpt lat="45.33623" lon="4.62344">
        <ele>720.59997558594</ele>
        <time>2019-10-30T08:06:56.000Z</time>
      </trkpt>
      <trkpt lat="45.33624" lon="4.62341">
        <ele>721</ele>
        <time>2019-10-30T08:06:57.000Z</time>
      </trkpt>
      <trkpt lat="45.33624" lon="4.62338">
        <ele>721</ele>
        <time>2019-10-30T08:06:58.000Z</time>
      </trkpt>
      <trkpt lat="45.33624" lon="4.62335">
        <ele>721.20001220703</ele>
        <time>2019-10-30T08:06:59.000Z</time>
      </trkpt>
      <trkpt lat="45.33624" lon="4.62333">
        <ele>721.40002441406</ele>
        <time>2019-10-30T08:07:00.000Z</time>
      </trkpt>
      <trkpt lat="45.33625" lon="4.6233">
        <ele>721.59997558594</ele>
        <time>2019-10-30T08:07:01.000Z</time>
      </trkpt>
      <trkpt lat="45.33626" lon="4.62327">
        <ele>721.79998779297</ele>
        <time>2019-10-30T08:07:02.000Z</time>
      </trkpt>
      <trkpt lat="45.33626" lon="4.62325">
        <ele>722.20001220703</ele>
        <time>2019-10-30T08:07:03.000Z</time>
      </trkpt>
      <trkpt lat="45.33626" lon="4.62322">
        <ele>722.40002441406</ele>
        <time>2019-10-30T08:07:04.000Z</time>
      </trkpt>
      <trkpt lat="45.33626" lon="4.62319">
        <ele>722.59997558594</ele>
        <time>2019-10-30T08:07:05.000Z</time>
      </trkpt>
      <trkpt lat="45.33626" lon="4.62317">
        <ele>722.59997558594</ele>
        <time>2019-10-30T08:07:06.000Z</time>
      </trkpt>
      <trkpt lat="45.33626" lon="4.62315">
        <ele>723</ele>
        <time>2019-10-30T08:07:07.000Z</time>
      </trkpt>
      <trkpt lat="45.33626" lon="4.62313">
        <ele>723.59997558594</ele>
        <time>2019-10-30T08:07:08.000Z</time>
      </trkpt>
      <trkpt lat="45.33626" lon="4.62311">
        <ele>723.79998779297</ele>
        <time>2019-10-30T08:07:09.000Z</time>
      </trkpt>
      <trkpt lat="45.33627" lon="4.6231">
        <ele>724</ele>
        <time>2019-10-30T08:07:10.000Z</time>
      </trkpt>
      <trkpt lat="45.33627" lon="4.6231">
        <ele>724</ele>
        <time>2019-10-30T08:07:11.000Z</time>
      </trkpt>
      <trkpt lat="45.33627" lon="4.62307">
        <ele>726.20001220703</ele>
        <time>2019-10-30T08:07:26.000Z</time>
      </trkpt>
      <trkpt lat="45.33627" lon="4.62307">
        <ele>726.40002441406</ele>
        <time>2019-10-30T08:07:57.000Z</time>
      </trkpt>
      <trkpt lat="45.33627" lon="4.62306">
        <ele>726.40002441406</ele>
        <time>2019-10-30T08:08:27.000Z</time>
      </trkpt>
      <trkpt lat="45.33626" lon="4.62305">
        <ele>726.20001220703</ele>
        <time>2019-10-30T08:08:30.000Z</time>
      </trkpt>
      <trkpt lat="45.33625" lon="4.62304">
        <ele>726.20001220703</ele>
        <time>2019-10-30T08:08:31.000Z</time>
      </trkpt>
      <trkpt lat="45.33624" lon="4.62303">
        <ele>726.20001220703</ele>
        <time>2019-10-30T08:08:32.000Z</time>
      </trkpt>
      <trkpt lat="45.33623" lon="4.62301">
        <ele>726.20001220703</ele>
        <time>2019-10-30T08:08:33.000Z</time>
      </trkpt>
      <trkpt lat="45.33622" lon="4.623">
        <ele>726.20001220703</ele>
        <time>2019-10-30T08:08:34.000Z</time>
      </trkpt>
      <trkpt lat="45.33621" lon="4.62299">
        <ele>726.20001220703</ele>
        <time>2019-10-30T08:08:35.000Z</time>
      </trkpt>
      <trkpt lat="45.3362" lon="4.62297">
        <ele>726.20001220703</ele>
        <time>2019-10-30T08:08:36.000Z</time>
      </trkpt>
      <trkpt lat="45.33619" lon="4.62296">
        <ele>726.20001220703</ele>
        <time>2019-10-30T08:08:37.000Z</time>
      </trkpt>
      <trkpt lat="45.33618" lon="4.62293">
        <ele>726.20001220703</ele>
        <time>2019-10-30T08:08:39.000Z</time>
      </trkpt>
      <trkpt lat="45.33617" lon="4.62292">
        <ele>726.20001220703</ele>
        <time>2019-10-30T08:08:40.000Z</time>
      </trkpt>
      <trkpt lat="45.33616" lon="4.6229">
        <ele>726.40002441406</ele>
        <time>2019-10-30T08:08:41.000Z</time>
      </trkpt>
      <trkpt lat="45.33616" lon="4.62288">
        <ele>726.79998779297</ele>
        <time>2019-10-30T08:08:42.000Z</time>
      </trkpt>
      <trkpt lat="45.33615" lon="4.62287">
        <ele>726.79998779297</ele>
        <time>2019-10-30T08:08:43.000Z</time>
      </trkpt>
      <trkpt lat="45.33614" lon="4.62284">
        <ele>727</ele>
        <time>2019-10-30T08:08:44.000Z</time>
      </trkpt>
      <trkpt lat="45.33613" lon="4.62283">
        <ele>727</ele>
        <time>2019-10-30T08:08:45.000Z</time>
      </trkpt>
      <trkpt lat="45.33612" lon="4.6228">
        <ele>727</ele>
        <time>2019-10-30T08:08:46.000Z</time>
      </trkpt>
      <trkpt lat="45.33611" lon="4.62278">
        <ele>727.20001220703</ele>
        <time>2019-10-30T08:08:47.000Z</time>
      </trkpt>
      <trkpt lat="45.3361" lon="4.62276">
        <ele>727.20001220703</ele>
        <time>2019-10-30T08:08:48.000Z</time>
      </trkpt>
      <trkpt lat="45.33609" lon="4.62274">
        <ele>727.40002441406</ele>
        <time>2019-10-30T08:08:49.000Z</time>
      </trkpt>
      <trkpt lat="45.33609" lon="4.62272">
        <ele>727.40002441406</ele>
        <time>2019-10-30T08:08:50.000Z</time>
      </trkpt>
      <trkpt lat="45.33607" lon="4.62268">
        <ele>727.79998779297</ele>
        <time>2019-10-30T08:08:52.000Z</time>
      </trkpt>
      <trkpt lat="45.33606" lon="4.62266">
        <ele>728</ele>
        <time>2019-10-30T08:08:53.000Z</time>
      </trkpt>
      <trkpt lat="45.33605" lon="4.62264">
        <ele>728</ele>
        <time>2019-10-30T08:08:54.000Z</time>
      </trkpt>
      <trkpt lat="45.33603" lon="4.62262">
        <ele>728</ele>
        <time>2019-10-30T08:08:55.000Z</time>
      </trkpt>
      <trkpt lat="45.33602" lon="4.6226">
        <ele>728</ele>
        <time>2019-10-30T08:08:56.000Z</time>
      </trkpt>
      <trkpt lat="45.33601" lon="4.62257">
        <ele>728.20001220703</ele>
        <time>2019-10-30T08:08:57.000Z</time>
      </trkpt>
      <trkpt lat="45.336" lon="4.62255">
        <ele>728.20001220703</ele>
        <time>2019-10-30T08:08:58.000Z</time>
      </trkpt>
      <trkpt lat="45.33599" lon="4.62253">
        <ele>728.20001220703</ele>
        <time>2019-10-30T08:08:59.000Z</time>
      </trkpt>
      <trkpt lat="45.33596" lon="4.62248">
        <ele>728.40002441406</ele>
        <time>2019-10-30T08:09:01.000Z</time>
      </trkpt>
      <trkpt lat="45.33594" lon="4.62245">
        <ele>728.40002441406</ele>
        <time>2019-10-30T08:09:02.000Z</time>
      </trkpt>
      <trkpt lat="45.33593" lon="4.62242">
        <ele>728.40002441406</ele>
        <time>2019-10-30T08:09:03.000Z</time>
      </trkpt>
      <trkpt lat="45.33592" lon="4.62238">
        <ele>728.40002441406</ele>
        <time>2019-10-30T08:09:04.000Z</time>
      </trkpt>
      <trkpt lat="45.3359" lon="4.62236">
        <ele>728.40002441406</ele>
        <time>2019-10-30T08:09:05.000Z</time>
      </trkpt>
      <trkpt lat="45.33589" lon="4.62234">
        <ele>728.59997558594</ele>
        <time>2019-10-30T08:09:06.000Z</time>
      </trkpt>
      <trkpt lat="45.33588" lon="4.62232">
        <ele>728.40002441406</ele>
        <time>2019-10-30T08:09:07.000Z</time>
      </trkpt>
      <trkpt lat="45.33587" lon="4.6223">
        <ele>728.59997558594</ele>
        <time>2019-10-30T08:09:08.000Z</time>
      </trkpt>
      <trkpt lat="45.33585" lon="4.62227">
        <ele>728.40002441406</ele>
        <time>2019-10-30T08:09:09.000Z</time>
      </trkpt>
      <trkpt lat="45.33583" lon="4.62224">
        <ele>728.59997558594</ele>
        <time>2019-10-30T08:09:11.000Z</time>
      </trkpt>
      <trkpt lat="45.33582" lon="4.62222">
        <ele>728.59997558594</ele>
        <time>2019-10-30T08:09:12.000Z</time>
      </trkpt>
      <trkpt lat="45.33581" lon="4.6222">
        <ele>728.40002441406</ele>
        <time>2019-10-30T08:09:13.000Z</time>
      </trkpt>
      <trkpt lat="45.33579" lon="4.62218">
        <ele>728.40002441406</ele>
        <time>2019-10-30T08:09:14.000Z</time>
      </trkpt>
      <trkpt lat="45.33578" lon="4.62216">
        <ele>728.59997558594</ele>
        <time>2019-10-30T08:09:15.000Z</time>
      </trkpt>
      <trkpt lat="45.33576" lon="4.62215">
        <ele>728.59997558594</ele>
        <time>2019-10-30T08:09:16.000Z</time>
      </trkpt>
      <trkpt lat="45.33575" lon="4.62214">
        <ele>728.59997558594</ele>
        <time>2019-10-30T08:09:17.000Z</time>
      </trkpt>
      <trkpt lat="45.33574" lon="4.62212">
        <ele>728.59997558594</ele>
        <time>2019-10-30T08:09:18.000Z</time>
      </trkpt>
      <trkpt lat="45.33572" lon="4.6221">
        <ele>728.59997558594</ele>
        <time>2019-10-30T08:09:19.000Z</time>
      </trkpt>
      <trkpt lat="45.33571" lon="4.62208">
        <ele>728.59997558594</ele>
        <time>2019-10-30T08:09:20.000Z</time>
      </trkpt>
      <trkpt lat="45.33569" lon="4.62206">
        <ele>728.59997558594</ele>
        <time>2019-10-30T08:09:21.000Z</time>
      </trkpt>
      <trkpt lat="45.33568" lon="4.62205">
        <ele>728.59997558594</ele>
        <time>2019-10-30T08:09:22.000Z</time>
      </trkpt>
      <trkpt lat="45.33567" lon="4.62202">
        <ele>728.59997558594</ele>
        <time>2019-10-30T08:09:23.000Z</time>
      </trkpt>
      <trkpt lat="45.33566" lon="4.62201">
        <ele>728.40002441406</ele>
        <time>2019-10-30T08:09:24.000Z</time>
      </trkpt>
      <trkpt lat="45.33565" lon="4.622">
        <ele>728.59997558594</ele>
        <time>2019-10-30T08:09:25.000Z</time>
      </trkpt>
      <trkpt lat="45.33565" lon="4.62199">
        <ele>728.79998779297</ele>
        <time>2019-10-30T08:09:26.000Z</time>
      </trkpt>
      <trkpt lat="45.33563" lon="4.62198">
        <ele>728.79998779297</ele>
        <time>2019-10-30T08:09:28.000Z</time>
      </trkpt>
      <trkpt lat="45.33561" lon="4.62196">
        <ele>728.79998779297</ele>
        <time>2019-10-30T08:09:31.000Z</time>
      </trkpt>
      <trkpt lat="45.3356" lon="4.62196">
        <ele>728.59997558594</ele>
        <time>2019-10-30T08:09:33.000Z</time>
      </trkpt>
      <trkpt lat="45.3356" lon="4.62196">
        <ele>728.59997558594</ele>
        <time>2019-10-30T08:09:34.000Z</time>
      </trkpt>
      <trkpt lat="45.3356" lon="4.62196">
        <ele>728.79998779297</ele>
        <time>2019-10-30T08:09:35.000Z</time>
      </trkpt>
      <trkpt lat="45.3356" lon="4.62196">
        <ele>728.79998779297</ele>
        <time>2019-10-30T08:09:36.000Z</time>
      </trkpt>
      <trkpt lat="45.3356" lon="4.62196">
        <ele>728.79998779297</ele>
        <time>2019-10-30T08:09:37.000Z</time>
      </trkpt>
      <trkpt lat="45.3356" lon="4.62196">
        <ele>729</ele>
        <time>2019-10-30T08:09:49.000Z</time>
      </trkpt>
      <trkpt lat="45.3356" lon="4.62195">
        <ele>729</ele>
        <time>2019-10-30T08:10:00.000Z</time>
      </trkpt>
      <trkpt lat="45.3356" lon="4.62195">
        <ele>728.79998779297</ele>
        <time>2019-10-30T08:10:01.000Z</time>
      </trkpt>
      <trkpt lat="45.3356" lon="4.62195">
        <ele>729</ele>
        <time>2019-10-30T08:10:02.000Z</time>
      </trkpt>
      <trkpt lat="45.33559" lon="4.62195">
        <ele>728.79998779297</ele>
        <time>2019-10-30T08:10:04.000Z</time>
      </trkpt>
      <trkpt lat="45.33559" lon="4.62194">
        <ele>729</ele>
        <time>2019-10-30T08:10:06.000Z</time>
      </trkpt>
      <trkpt lat="45.33559" lon="4.62194">
        <ele>729</ele>
        <time>2019-10-30T08:10:07.000Z</time>
      </trkpt>
      <trkpt lat="45.3356" lon="4.62195">
        <ele>729</ele>
        <time>2019-10-30T08:10:11.000Z</time>
      </trkpt>
      <trkpt lat="45.33561" lon="4.62195">
        <ele>728.79998779297</ele>
        <time>2019-10-30T08:10:12.000Z</time>
      </trkpt>
      <trkpt lat="45.33562" lon="4.62195">
        <ele>728.79998779297</ele>
        <time>2019-10-30T08:10:13.000Z</time>
      </trkpt>
      <trkpt lat="45.33563" lon="4.62195">
        <ele>728.79998779297</ele>
        <time>2019-10-30T08:10:14.000Z</time>
      </trkpt>
      <trkpt lat="45.33564" lon="4.62196">
        <ele>728.79998779297</ele>
        <time>2019-10-30T08:10:15.000Z</time>
      </trkpt>
      <trkpt lat="45.33566" lon="4.62196">
        <ele>728.79998779297</ele>
        <time>2019-10-30T08:10:17.000Z</time>
      </trkpt>
      <trkpt lat="45.33568" lon="4.62196">
        <ele>729</ele>
        <time>2019-10-30T08:10:19.000Z</time>
      </trkpt>
      <trkpt lat="45.3357" lon="4.62196">
        <ele>729</ele>
        <time>2019-10-30T08:10:20.000Z</time>
      </trkpt>
      <trkpt lat="45.33571" lon="4.62196">
        <ele>728.79998779297</ele>
        <time>2019-10-30T08:10:21.000Z</time>
      </trkpt>
      <trkpt lat="45.33572" lon="4.62195">
        <ele>728.79998779297</ele>
        <time>2019-10-30T08:10:22.000Z</time>
      </trkpt>
      <trkpt lat="45.33573" lon="4.62195">
        <ele>728.79998779297</ele>
        <time>2019-10-30T08:10:23.000Z</time>
      </trkpt>
      <trkpt lat="45.33574" lon="4.62195">
        <ele>728.79998779297</ele>
        <time>2019-10-30T08:10:24.000Z</time>
      </trkpt>
      <trkpt lat="45.33574" lon="4.62195">
        <ele>729</ele>
        <time>2019-10-30T08:10:25.000Z</time>
      </trkpt>
      <trkpt lat="45.33575" lon="4.62195">
        <ele>729</ele>
        <time>2019-10-30T08:10:26.000Z</time>
      </trkpt>
      <trkpt lat="45.33575" lon="4.62194">
        <ele>730.79998779297</ele>
        <time>2019-10-30T08:10:33.000Z</time>
      </trkpt>
      <trkpt lat="45.33575" lon="4.62193">
        <ele>731.20001220703</ele>
        <time>2019-10-30T08:10:42.000Z</time>
      </trkpt>
      <trkpt lat="45.33574" lon="4.62192">
        <ele>731.20001220703</ele>
        <time>2019-10-30T08:10:51.000Z</time>
      </trkpt>
      <trkpt lat="45.33574" lon="4.62192">
        <ele>731.20001220703</ele>
        <time>2019-10-30T08:10:52.000Z</time>
      </trkpt>
      <trkpt lat="45.33575" lon="4.62192">
        <ele>731.40002441406</ele>
        <time>2019-10-30T08:11:03.000Z</time>
      </trkpt>
      <trkpt lat="45.33576" lon="4.62192">
        <ele>731.40002441406</ele>
        <time>2019-10-30T08:11:05.000Z</time>
      </trkpt>
      <trkpt lat="45.33577" lon="4.62193">
        <ele>731.40002441406</ele>
        <time>2019-10-30T08:11:06.000Z</time>
      </trkpt>
      <trkpt lat="45.33578" lon="4.62193">
        <ele>731.40002441406</ele>
        <time>2019-10-30T08:11:07.000Z</time>
      </trkpt>
      <trkpt lat="45.33579" lon="4.62194">
        <ele>731.40002441406</ele>
        <time>2019-10-30T08:11:08.000Z</time>
      </trkpt>
      <trkpt lat="45.3358" lon="4.62194">
        <ele>731.59997558594</ele>
        <time>2019-10-30T08:11:09.000Z</time>
      </trkpt>
      <trkpt lat="45.33581" lon="4.62194">
        <ele>731.40002441406</ele>
        <time>2019-10-30T08:11:10.000Z</time>
      </trkpt>
      <trkpt lat="45.33582" lon="4.62194">
        <ele>731.40002441406</ele>
        <time>2019-10-30T08:11:11.000Z</time>
      </trkpt>
      <trkpt lat="45.33583" lon="4.62194">
        <ele>731.59997558594</ele>
        <time>2019-10-30T08:11:12.000Z</time>
      </trkpt>
      <trkpt lat="45.33584" lon="4.62194">
        <ele>731.59997558594</ele>
        <time>2019-10-30T08:11:13.000Z</time>
      </trkpt>
      <trkpt lat="45.33585" lon="4.62194">
        <ele>731.59997558594</ele>
        <time>2019-10-30T08:11:14.000Z</time>
      </trkpt>
      <trkpt lat="45.33587" lon="4.62194">
        <ele>731.79998779297</ele>
        <time>2019-10-30T08:11:15.000Z</time>
      </trkpt>
      <trkpt lat="45.33588" lon="4.62194">
        <ele>732</ele>
        <time>2019-10-30T08:11:16.000Z</time>
      </trkpt>
      <trkpt lat="45.33589" lon="4.62195">
        <ele>732</ele>
        <time>2019-10-30T08:11:17.000Z</time>
      </trkpt>
      <trkpt lat="45.33591" lon="4.62195">
        <ele>732</ele>
        <time>2019-10-30T08:11:18.000Z</time>
      </trkpt>
      <trkpt lat="45.33592" lon="4.62195">
        <ele>732.20001220703</ele>
        <time>2019-10-30T08:11:19.000Z</time>
      </trkpt>
      <trkpt lat="45.33594" lon="4.62196">
        <ele>732.59997558594</ele>
        <time>2019-10-30T08:11:20.000Z</time>
      </trkpt>
      <trkpt lat="45.33595" lon="4.62196">
        <ele>732.79998779297</ele>
        <time>2019-10-30T08:11:21.000Z</time>
      </trkpt>
      <trkpt lat="45.33597" lon="4.62196">
        <ele>732.79998779297</ele>
        <time>2019-10-30T08:11:22.000Z</time>
      </trkpt>
      <trkpt lat="45.33598" lon="4.62196">
        <ele>733</ele>
        <time>2019-10-30T08:11:23.000Z</time>
      </trkpt>
      <trkpt lat="45.336" lon="4.62197">
        <ele>733.20001220703</ele>
        <time>2019-10-30T08:11:24.000Z</time>
      </trkpt>
      <trkpt lat="45.33601" lon="4.62197">
        <ele>733.40002441406</ele>
        <time>2019-10-30T08:11:25.000Z</time>
      </trkpt>
      <trkpt lat="45.33602" lon="4.62198">
        <ele>733.79998779297</ele>
        <time>2019-10-30T08:11:26.000Z</time>
      </trkpt>
      <trkpt lat="45.33603" lon="4.62199">
        <ele>733.79998779297</ele>
        <time>2019-10-30T08:11:27.000Z</time>
      </trkpt>
      <trkpt lat="45.33604" lon="4.622">
        <ele>733.79998779297</ele>
        <time>2019-10-30T08:11:28.000Z</time>
      </trkpt>
      <trkpt lat="45.33606" lon="4.622">
        <ele>734.20001220703</ele>
        <time>2019-10-30T08:11:29.000Z</time>
      </trkpt>
      <trkpt lat="45.33607" lon="4.622">
        <ele>734.20001220703</ele>
        <time>2019-10-30T08:11:30.000Z</time>
      </trkpt>
      <trkpt lat="45.33608" lon="4.62201">
        <ele>734.20001220703</ele>
        <time>2019-10-30T08:11:31.000Z</time>
      </trkpt>
      <trkpt lat="45.3361" lon="4.62201">
        <ele>734.40002441406</ele>
        <time>2019-10-30T08:11:32.000Z</time>
      </trkpt>
      <trkpt lat="45.33611" lon="4.62202">
        <ele>734.59997558594</ele>
        <time>2019-10-30T08:11:33.000Z</time>
      </trkpt>
      <trkpt lat="45.33613" lon="4.62202">
        <ele>734.79998779297</ele>
        <time>2019-10-30T08:11:34.000Z</time>
      </trkpt>
      <trkpt lat="45.33615" lon="4.62202">
        <ele>735</ele>
        <time>2019-10-30T08:11:35.000Z</time>
      </trkpt>
      <trkpt lat="45.33617" lon="4.62202">
        <ele>735.20001220703</ele>
        <time>2019-10-30T08:11:36.000Z</time>
      </trkpt>
      <trkpt lat="45.33618" lon="4.62201">
        <ele>735.59997558594</ele>
        <time>2019-10-30T08:11:37.000Z</time>
      </trkpt>
      <trkpt lat="45.3362" lon="4.62201">
        <ele>735.79998779297</ele>
        <time>2019-10-30T08:11:38.000Z</time>
      </trkpt>
      <trkpt lat="45.33622" lon="4.622">
        <ele>735.79998779297</ele>
        <time>2019-10-30T08:11:39.000Z</time>
      </trkpt>
      <trkpt lat="45.33623" lon="4.62199">
        <ele>736.20001220703</ele>
        <time>2019-10-30T08:11:40.000Z</time>
      </trkpt>
      <trkpt lat="45.33625" lon="4.62198">
        <ele>736.20001220703</ele>
        <time>2019-10-30T08:11:41.000Z</time>
      </trkpt>
      <trkpt lat="45.33627" lon="4.62198">
        <ele>736.40002441406</ele>
        <time>2019-10-30T08:11:42.000Z</time>
      </trkpt>
      <trkpt lat="45.33629" lon="4.62197">
        <ele>736.79998779297</ele>
        <time>2019-10-30T08:11:43.000Z</time>
      </trkpt>
      <trkpt lat="45.33631" lon="4.62196">
        <ele>736.79998779297</ele>
        <time>2019-10-30T08:11:44.000Z</time>
      </trkpt>
      <trkpt lat="45.33633" lon="4.62195">
        <ele>737</ele>
        <time>2019-10-30T08:11:45.000Z</time>
      </trkpt>
      <trkpt lat="45.33634" lon="4.62194">
        <ele>737.40002441406</ele>
        <time>2019-10-30T08:11:46.000Z</time>
      </trkpt>
      <trkpt lat="45.33636" lon="4.62193">
        <ele>737.59997558594</ele>
        <time>2019-10-30T08:11:47.000Z</time>
      </trkpt>
      <trkpt lat="45.33638" lon="4.62192">
        <ele>737.79998779297</ele>
        <time>2019-10-30T08:11:48.000Z</time>
      </trkpt>
      <trkpt lat="45.33639" lon="4.62191">
        <ele>738</ele>
        <time>2019-10-30T08:11:49.000Z</time>
      </trkpt>
      <trkpt lat="45.33641" lon="4.6219">
        <ele>738.20001220703</ele>
        <time>2019-10-30T08:11:50.000Z</time>
      </trkpt>
      <trkpt lat="45.33642" lon="4.62189">
        <ele>738.59997558594</ele>
        <time>2019-10-30T08:11:51.000Z</time>
      </trkpt>
      <trkpt lat="45.33643" lon="4.62188">
        <ele>738.79998779297</ele>
        <time>2019-10-30T08:11:52.000Z</time>
      </trkpt>
      <trkpt lat="45.33645" lon="4.62188">
        <ele>739.40002441406</ele>
        <time>2019-10-30T08:11:53.000Z</time>
      </trkpt>
      <trkpt lat="45.33646" lon="4.62187">
        <ele>739.40002441406</ele>
        <time>2019-10-30T08:11:54.000Z</time>
      </trkpt>
      <trkpt lat="45.33648" lon="4.62186">
        <ele>739.59997558594</ele>
        <time>2019-10-30T08:11:55.000Z</time>
      </trkpt>
      <trkpt lat="45.33649" lon="4.62185">
        <ele>739.79998779297</ele>
        <time>2019-10-30T08:11:56.000Z</time>
      </trkpt>
      <trkpt lat="45.3365" lon="4.62183">
        <ele>739.79998779297</ele>
        <time>2019-10-30T08:11:57.000Z</time>
      </trkpt>
      <trkpt lat="45.33652" lon="4.62182">
        <ele>740</ele>
        <time>2019-10-30T08:11:58.000Z</time>
      </trkpt>
      <trkpt lat="45.33653" lon="4.6218">
        <ele>740.20001220703</ele>
        <time>2019-10-30T08:11:59.000Z</time>
      </trkpt>
      <trkpt lat="45.33654" lon="4.62179">
        <ele>740.40002441406</ele>
        <time>2019-10-30T08:12:00.000Z</time>
      </trkpt>
      <trkpt lat="45.33655" lon="4.62178">
        <ele>740.79998779297</ele>
        <time>2019-10-30T08:12:01.000Z</time>
      </trkpt>
      <trkpt lat="45.33657" lon="4.62177">
        <ele>741</ele>
        <time>2019-10-30T08:12:02.000Z</time>
      </trkpt>
      <trkpt lat="45.33658" lon="4.62175">
        <ele>741.20001220703</ele>
        <time>2019-10-30T08:12:03.000Z</time>
      </trkpt>
      <trkpt lat="45.33658" lon="4.62173">
        <ele>741.59997558594</ele>
        <time>2019-10-30T08:12:04.000Z</time>
      </trkpt>
      <trkpt lat="45.33659" lon="4.62172">
        <ele>741.79998779297</ele>
        <time>2019-10-30T08:12:05.000Z</time>
      </trkpt>
      <trkpt lat="45.3366" lon="4.6217">
        <ele>742</ele>
        <time>2019-10-30T08:12:06.000Z</time>
      </trkpt>
      <trkpt lat="45.33661" lon="4.62168">
        <ele>742.40002441406</ele>
        <time>2019-10-30T08:12:07.000Z</time>
      </trkpt>
      <trkpt lat="45.33662" lon="4.62166">
        <ele>742.59997558594</ele>
        <time>2019-10-30T08:12:08.000Z</time>
      </trkpt>
      <trkpt lat="45.33663" lon="4.62165">
        <ele>742.59997558594</ele>
        <time>2019-10-30T08:12:09.000Z</time>
      </trkpt>
      <trkpt lat="45.33664" lon="4.62163">
        <ele>743</ele>
        <time>2019-10-30T08:12:10.000Z</time>
      </trkpt>
      <trkpt lat="45.33665" lon="4.62161">
        <ele>743.20001220703</ele>
        <time>2019-10-30T08:12:11.000Z</time>
      </trkpt>
      <trkpt lat="45.33666" lon="4.62159">
        <ele>743.40002441406</ele>
        <time>2019-10-30T08:12:12.000Z</time>
      </trkpt>
      <trkpt lat="45.33667" lon="4.62157">
        <ele>743.40002441406</ele>
        <time>2019-10-30T08:12:13.000Z</time>
      </trkpt>
      <trkpt lat="45.33668" lon="4.62155">
        <ele>743.59997558594</ele>
        <time>2019-10-30T08:12:14.000Z</time>
      </trkpt>
      <trkpt lat="45.33669" lon="4.62152">
        <ele>744</ele>
        <time>2019-10-30T08:12:15.000Z</time>
      </trkpt>
      <trkpt lat="45.3367" lon="4.6215">
        <ele>744.20001220703</ele>
        <time>2019-10-30T08:12:16.000Z</time>
      </trkpt>
      <trkpt lat="45.33671" lon="4.62149">
        <ele>744.40002441406</ele>
        <time>2019-10-30T08:12:17.000Z</time>
      </trkpt>
      <trkpt lat="45.33672" lon="4.62147">
        <ele>744.59997558594</ele>
        <time>2019-10-30T08:12:18.000Z</time>
      </trkpt>
      <trkpt lat="45.33673" lon="4.62145">
        <ele>744.79998779297</ele>
        <time>2019-10-30T08:12:19.000Z</time>
      </trkpt>
      <trkpt lat="45.33674" lon="4.62142">
        <ele>745</ele>
        <time>2019-10-30T08:12:20.000Z</time>
      </trkpt>
      <trkpt lat="45.33675" lon="4.6214">
        <ele>745.40002441406</ele>
        <time>2019-10-30T08:12:21.000Z</time>
      </trkpt>
      <trkpt lat="45.33676" lon="4.62138">
        <ele>745.40002441406</ele>
        <time>2019-10-30T08:12:22.000Z</time>
      </trkpt>
      <trkpt lat="45.33677" lon="4.62136">
        <ele>745.40002441406</ele>
        <time>2019-10-30T08:12:23.000Z</time>
      </trkpt>
      <trkpt lat="45.33678" lon="4.62134">
        <ele>745.59997558594</ele>
        <time>2019-10-30T08:12:24.000Z</time>
      </trkpt>
      <trkpt lat="45.33679" lon="4.62133">
        <ele>745.79998779297</ele>
        <time>2019-10-30T08:12:25.000Z</time>
      </trkpt>
      <trkpt lat="45.3368" lon="4.62131">
        <ele>745.79998779297</ele>
        <time>2019-10-30T08:12:26.000Z</time>
      </trkpt>
      <trkpt lat="45.33681" lon="4.62129">
        <ele>746.20001220703</ele>
        <time>2019-10-30T08:12:27.000Z</time>
      </trkpt>
      <trkpt lat="45.33682" lon="4.62127">
        <ele>746.59997558594</ele>
        <time>2019-10-30T08:12:28.000Z</time>
      </trkpt>
      <trkpt lat="45.33683" lon="4.62125">
        <ele>746.59997558594</ele>
        <time>2019-10-30T08:12:29.000Z</time>
      </trkpt>
      <trkpt lat="45.33684" lon="4.62123">
        <ele>747</ele>
        <time>2019-10-30T08:12:30.000Z</time>
      </trkpt>
      <trkpt lat="45.33684" lon="4.62122">
        <ele>747.20001220703</ele>
        <time>2019-10-30T08:12:31.000Z</time>
      </trkpt>
      <trkpt lat="45.33685" lon="4.6212">
        <ele>747.20001220703</ele>
        <time>2019-10-30T08:12:32.000Z</time>
      </trkpt>
      <trkpt lat="45.33686" lon="4.62118">
        <ele>747.40002441406</ele>
        <time>2019-10-30T08:12:33.000Z</time>
      </trkpt>
      <trkpt lat="45.33687" lon="4.62116">
        <ele>747.59997558594</ele>
        <time>2019-10-30T08:12:34.000Z</time>
      </trkpt>
      <trkpt lat="45.33688" lon="4.62115">
        <ele>748</ele>
        <time>2019-10-30T08:12:35.000Z</time>
      </trkpt>
      <trkpt lat="45.33689" lon="4.62113">
        <ele>747.79998779297</ele>
        <time>2019-10-30T08:12:36.000Z</time>
      </trkpt>
      <trkpt lat="45.3369" lon="4.62111">
        <ele>748.20001220703</ele>
        <time>2019-10-30T08:12:37.000Z</time>
      </trkpt>
      <trkpt lat="45.33691" lon="4.62109">
        <ele>748.20001220703</ele>
        <time>2019-10-30T08:12:38.000Z</time>
      </trkpt>
      <trkpt lat="45.33691" lon="4.62107">
        <ele>748.40002441406</ele>
        <time>2019-10-30T08:12:39.000Z</time>
      </trkpt>
      <trkpt lat="45.33692" lon="4.62105">
        <ele>748.59997558594</ele>
        <time>2019-10-30T08:12:40.000Z</time>
      </trkpt>
      <trkpt lat="45.33693" lon="4.62104">
        <ele>748.79998779297</ele>
        <time>2019-10-30T08:12:41.000Z</time>
      </trkpt>
      <trkpt lat="45.33693" lon="4.62102">
        <ele>748.79998779297</ele>
        <time>2019-10-30T08:12:42.000Z</time>
      </trkpt>
      <trkpt lat="45.33694" lon="4.621">
        <ele>749</ele>
        <time>2019-10-30T08:12:43.000Z</time>
      </trkpt>
      <trkpt lat="45.33695" lon="4.62098">
        <ele>749.40002441406</ele>
        <time>2019-10-30T08:12:44.000Z</time>
      </trkpt>
      <trkpt lat="45.33695" lon="4.62096">
        <ele>749.40002441406</ele>
        <time>2019-10-30T08:12:45.000Z</time>
      </trkpt>
      <trkpt lat="45.33697" lon="4.62094">
        <ele>749.79998779297</ele>
        <time>2019-10-30T08:12:46.000Z</time>
      </trkpt>
      <trkpt lat="45.33698" lon="4.62092">
        <ele>750</ele>
        <time>2019-10-30T08:12:47.000Z</time>
      </trkpt>
      <trkpt lat="45.33699" lon="4.6209">
        <ele>750</ele>
        <time>2019-10-30T08:12:48.000Z</time>
      </trkpt>
      <trkpt lat="45.337" lon="4.62089">
        <ele>750</ele>
        <time>2019-10-30T08:12:49.000Z</time>
      </trkpt>
      <trkpt lat="45.337" lon="4.62088">
        <ele>750.40002441406</ele>
        <time>2019-10-30T08:12:50.000Z</time>
      </trkpt>
      <trkpt lat="45.33701" lon="4.62086">
        <ele>750.59997558594</ele>
        <time>2019-10-30T08:12:51.000Z</time>
      </trkpt>
      <trkpt lat="45.33701" lon="4.62084">
        <ele>750.79998779297</ele>
        <time>2019-10-30T08:12:52.000Z</time>
      </trkpt>
      <trkpt lat="45.33702" lon="4.62082">
        <ele>751</ele>
        <time>2019-10-30T08:12:53.000Z</time>
      </trkpt>
      <trkpt lat="45.33702" lon="4.6208">
        <ele>751.20001220703</ele>
        <time>2019-10-30T08:12:54.000Z</time>
      </trkpt>
      <trkpt lat="45.33703" lon="4.62078">
        <ele>751.40002441406</ele>
        <time>2019-10-30T08:12:55.000Z</time>
      </trkpt>
      <trkpt lat="45.33704" lon="4.62076">
        <ele>751.40002441406</ele>
        <time>2019-10-30T08:12:56.000Z</time>
      </trkpt>
      <trkpt lat="45.33705" lon="4.62075">
        <ele>751.59997558594</ele>
        <time>2019-10-30T08:12:57.000Z</time>
      </trkpt>
      <trkpt lat="45.33706" lon="4.62073">
        <ele>751.79998779297</ele>
        <time>2019-10-30T08:12:58.000Z</time>
      </trkpt>
      <trkpt lat="45.33706" lon="4.6207">
        <ele>751.79998779297</ele>
        <time>2019-10-30T08:12:59.000Z</time>
      </trkpt>
      <trkpt lat="45.33707" lon="4.62068">
        <ele>752.20001220703</ele>
        <time>2019-10-30T08:13:00.000Z</time>
      </trkpt>
      <trkpt lat="45.33708" lon="4.62066">
        <ele>752.40002441406</ele>
        <time>2019-10-30T08:13:01.000Z</time>
      </trkpt>
      <trkpt lat="45.33709" lon="4.62064">
        <ele>752.40002441406</ele>
        <time>2019-10-30T08:13:02.000Z</time>
      </trkpt>
      <trkpt lat="45.3371" lon="4.62062">
        <ele>752.79998779297</ele>
        <time>2019-10-30T08:13:03.000Z</time>
      </trkpt>
      <trkpt lat="45.33711" lon="4.6206">
        <ele>753</ele>
        <time>2019-10-30T08:13:04.000Z</time>
      </trkpt>
      <trkpt lat="45.33712" lon="4.62058">
        <ele>753</ele>
        <time>2019-10-30T08:13:05.000Z</time>
      </trkpt>
      <trkpt lat="45.33713" lon="4.62056">
        <ele>753.40002441406</ele>
        <time>2019-10-30T08:13:06.000Z</time>
      </trkpt>
      <trkpt lat="45.33714" lon="4.62054">
        <ele>753.20001220703</ele>
        <time>2019-10-30T08:13:07.000Z</time>
      </trkpt>
      <trkpt lat="45.33715" lon="4.62051">
        <ele>753.59997558594</ele>
        <time>2019-10-30T08:13:08.000Z</time>
      </trkpt>
      <trkpt lat="45.33716" lon="4.62048">
        <ele>753.59997558594</ele>
        <time>2019-10-30T08:13:09.000Z</time>
      </trkpt>
      <trkpt lat="45.33717" lon="4.62046">
        <ele>754</ele>
        <time>2019-10-30T08:13:10.000Z</time>
      </trkpt>
      <trkpt lat="45.33719" lon="4.62044">
        <ele>754</ele>
        <time>2019-10-30T08:13:11.000Z</time>
      </trkpt>
      <trkpt lat="45.3372" lon="4.62041">
        <ele>754.20001220703</ele>
        <time>2019-10-30T08:13:12.000Z</time>
      </trkpt>
      <trkpt lat="45.33721" lon="4.62038">
        <ele>754.40002441406</ele>
        <time>2019-10-30T08:13:13.000Z</time>
      </trkpt>
      <trkpt lat="45.33722" lon="4.62036">
        <ele>754.59997558594</ele>
        <time>2019-10-30T08:13:14.000Z</time>
      </trkpt>
      <trkpt lat="45.33723" lon="4.62033">
        <ele>754.59997558594</ele>
        <time>2019-10-30T08:13:15.000Z</time>
      </trkpt>
      <trkpt lat="45.33724" lon="4.62031">
        <ele>754.79998779297</ele>
        <time>2019-10-30T08:13:16.000Z</time>
      </trkpt>
      <trkpt lat="45.33725" lon="4.62029">
        <ele>754.79998779297</ele>
        <time>2019-10-30T08:13:17.000Z</time>
      </trkpt>
      <trkpt lat="45.33726" lon="4.62027">
        <ele>755.20001220703</ele>
        <time>2019-10-30T08:13:18.000Z</time>
      </trkpt>
      <trkpt lat="45.33727" lon="4.62025">
        <ele>755.20001220703</ele>
        <time>2019-10-30T08:13:19.000Z</time>
      </trkpt>
      <trkpt lat="45.33728" lon="4.62023">
        <ele>755.40002441406</ele>
        <time>2019-10-30T08:13:20.000Z</time>
      </trkpt>
      <trkpt lat="45.33729" lon="4.62021">
        <ele>755.59997558594</ele>
        <time>2019-10-30T08:13:21.000Z</time>
      </trkpt>
      <trkpt lat="45.3373" lon="4.62019">
        <ele>755.59997558594</ele>
        <time>2019-10-30T08:13:22.000Z</time>
      </trkpt>
      <trkpt lat="45.33731" lon="4.62017">
        <ele>755.79998779297</ele>
        <time>2019-10-30T08:13:23.000Z</time>
      </trkpt>
      <trkpt lat="45.33732" lon="4.62015">
        <ele>756</ele>
        <time>2019-10-30T08:13:24.000Z</time>
      </trkpt>
      <trkpt lat="45.33733" lon="4.62013">
        <ele>756.20001220703</ele>
        <time>2019-10-30T08:13:25.000Z</time>
      </trkpt>
      <trkpt lat="45.33734" lon="4.62011">
        <ele>756.40002441406</ele>
        <time>2019-10-30T08:13:26.000Z</time>
      </trkpt>
      <trkpt lat="45.33735" lon="4.6201">
        <ele>756.59997558594</ele>
        <time>2019-10-30T08:13:27.000Z</time>
      </trkpt>
      <trkpt lat="45.33735" lon="4.62008">
        <ele>756.79998779297</ele>
        <time>2019-10-30T08:13:28.000Z</time>
      </trkpt>
      <trkpt lat="45.33736" lon="4.62006">
        <ele>757</ele>
        <time>2019-10-30T08:13:29.000Z</time>
      </trkpt>
      <trkpt lat="45.33737" lon="4.62004">
        <ele>757</ele>
        <time>2019-10-30T08:13:30.000Z</time>
      </trkpt>
      <trkpt lat="45.33737" lon="4.62002">
        <ele>757.40002441406</ele>
        <time>2019-10-30T08:13:31.000Z</time>
      </trkpt>
      <trkpt lat="45.33738" lon="4.62">
        <ele>757.59997558594</ele>
        <time>2019-10-30T08:13:32.000Z</time>
      </trkpt>
      <trkpt lat="45.33739" lon="4.61999">
        <ele>758</ele>
        <time>2019-10-30T08:13:33.000Z</time>
      </trkpt>
      <trkpt lat="45.3374" lon="4.61997">
        <ele>758.20001220703</ele>
        <time>2019-10-30T08:13:34.000Z</time>
      </trkpt>
      <trkpt lat="45.33741" lon="4.61995">
        <ele>758.40002441406</ele>
        <time>2019-10-30T08:13:35.000Z</time>
      </trkpt>
      <trkpt lat="45.33743" lon="4.61993">
        <ele>758.59997558594</ele>
        <time>2019-10-30T08:13:36.000Z</time>
      </trkpt>
      <trkpt lat="45.33744" lon="4.61991">
        <ele>758.79998779297</ele>
        <time>2019-10-30T08:13:37.000Z</time>
      </trkpt>
      <trkpt lat="45.33745" lon="4.61989">
        <ele>758.79998779297</ele>
        <time>2019-10-30T08:13:38.000Z</time>
      </trkpt>
      <trkpt lat="45.33746" lon="4.61987">
        <ele>759</ele>
        <time>2019-10-30T08:13:39.000Z</time>
      </trkpt>
      <trkpt lat="45.33747" lon="4.61985">
        <ele>759.20001220703</ele>
        <time>2019-10-30T08:13:40.000Z</time>
      </trkpt>
      <trkpt lat="45.33748" lon="4.61984">
        <ele>759.20001220703</ele>
        <time>2019-10-30T08:13:41.000Z</time>
      </trkpt>
      <trkpt lat="45.33749" lon="4.61982">
        <ele>759.40002441406</ele>
        <time>2019-10-30T08:13:42.000Z</time>
      </trkpt>
      <trkpt lat="45.3375" lon="4.6198">
        <ele>759.79998779297</ele>
        <time>2019-10-30T08:13:43.000Z</time>
      </trkpt>
      <trkpt lat="45.33751" lon="4.61978">
        <ele>760</ele>
        <time>2019-10-30T08:13:44.000Z</time>
      </trkpt>
      <trkpt lat="45.33751" lon="4.61976">
        <ele>760.20001220703</ele>
        <time>2019-10-30T08:13:45.000Z</time>
      </trkpt>
      <trkpt lat="45.33752" lon="4.61974">
        <ele>760.40002441406</ele>
        <time>2019-10-30T08:13:46.000Z</time>
      </trkpt>
      <trkpt lat="45.33753" lon="4.61971">
        <ele>760.59997558594</ele>
        <time>2019-10-30T08:13:47.000Z</time>
      </trkpt>
      <trkpt lat="45.33754" lon="4.61969">
        <ele>760.79998779297</ele>
        <time>2019-10-30T08:13:48.000Z</time>
      </trkpt>
      <trkpt lat="45.33755" lon="4.61966">
        <ele>760.79998779297</ele>
        <time>2019-10-30T08:13:49.000Z</time>
      </trkpt>
      <trkpt lat="45.33756" lon="4.61965">
        <ele>761</ele>
        <time>2019-10-30T08:13:50.000Z</time>
      </trkpt>
      <trkpt lat="45.33757" lon="4.61963">
        <ele>761.20001220703</ele>
        <time>2019-10-30T08:13:51.000Z</time>
      </trkpt>
      <trkpt lat="45.33758" lon="4.61961">
        <ele>761.40002441406</ele>
        <time>2019-10-30T08:13:52.000Z</time>
      </trkpt>
      <trkpt lat="45.33759" lon="4.61959">
        <ele>761.59997558594</ele>
        <time>2019-10-30T08:13:53.000Z</time>
      </trkpt>
      <trkpt lat="45.3376" lon="4.61958">
        <ele>761.79998779297</ele>
        <time>2019-10-30T08:13:54.000Z</time>
      </trkpt>
      <trkpt lat="45.33761" lon="4.61956">
        <ele>762</ele>
        <time>2019-10-30T08:13:55.000Z</time>
      </trkpt>
      <trkpt lat="45.33763" lon="4.61954">
        <ele>762.20001220703</ele>
        <time>2019-10-30T08:13:56.000Z</time>
      </trkpt>
      <trkpt lat="45.33764" lon="4.61952">
        <ele>762.20001220703</ele>
        <time>2019-10-30T08:13:57.000Z</time>
      </trkpt>
      <trkpt lat="45.33766" lon="4.6195">
        <ele>762.59997558594</ele>
        <time>2019-10-30T08:13:58.000Z</time>
      </trkpt>
      <trkpt lat="45.33767" lon="4.61948">
        <ele>762.79998779297</ele>
        <time>2019-10-30T08:13:59.000Z</time>
      </trkpt>
      <trkpt lat="45.33769" lon="4.61947">
        <ele>763</ele>
        <time>2019-10-30T08:14:00.000Z</time>
      </trkpt>
      <trkpt lat="45.3377" lon="4.61945">
        <ele>763.20001220703</ele>
        <time>2019-10-30T08:14:01.000Z</time>
      </trkpt>
      <trkpt lat="45.33772" lon="4.61944">
        <ele>763.59997558594</ele>
        <time>2019-10-30T08:14:02.000Z</time>
      </trkpt>
      <trkpt lat="45.33774" lon="4.61943">
        <ele>763.79998779297</ele>
        <time>2019-10-30T08:14:03.000Z</time>
      </trkpt>
      <trkpt lat="45.33776" lon="4.61942">
        <ele>764</ele>
        <time>2019-10-30T08:14:04.000Z</time>
      </trkpt>
      <trkpt lat="45.33777" lon="4.61941">
        <ele>764.20001220703</ele>
        <time>2019-10-30T08:14:05.000Z</time>
      </trkpt>
      <trkpt lat="45.33779" lon="4.6194">
        <ele>764.40002441406</ele>
        <time>2019-10-30T08:14:06.000Z</time>
      </trkpt>
      <trkpt lat="45.33781" lon="4.61939">
        <ele>764.40002441406</ele>
        <time>2019-10-30T08:14:07.000Z</time>
      </trkpt>
      <trkpt lat="45.33782" lon="4.61938">
        <ele>764.59997558594</ele>
        <time>2019-10-30T08:14:08.000Z</time>
      </trkpt>
      <trkpt lat="45.33784" lon="4.61938">
        <ele>765</ele>
        <time>2019-10-30T08:14:09.000Z</time>
      </trkpt>
      <trkpt lat="45.33786" lon="4.61938">
        <ele>765.20001220703</ele>
        <time>2019-10-30T08:14:10.000Z</time>
      </trkpt>
      <trkpt lat="45.33787" lon="4.61938">
        <ele>765.59997558594</ele>
        <time>2019-10-30T08:14:11.000Z</time>
      </trkpt>
      <trkpt lat="45.33789" lon="4.61938">
        <ele>765.59997558594</ele>
        <time>2019-10-30T08:14:12.000Z</time>
      </trkpt>
      <trkpt lat="45.3379" lon="4.61938">
        <ele>766</ele>
        <time>2019-10-30T08:14:13.000Z</time>
      </trkpt>
      <trkpt lat="45.33792" lon="4.61938">
        <ele>766.20001220703</ele>
        <time>2019-10-30T08:14:14.000Z</time>
      </trkpt>
      <trkpt lat="45.33793" lon="4.61938">
        <ele>766.20001220703</ele>
        <time>2019-10-30T08:14:15.000Z</time>
      </trkpt>
      <trkpt lat="45.33795" lon="4.61937">
        <ele>766.40002441406</ele>
        <time>2019-10-30T08:14:16.000Z</time>
      </trkpt>
      <trkpt lat="45.33796" lon="4.61938">
        <ele>766.79998779297</ele>
        <time>2019-10-30T08:14:17.000Z</time>
      </trkpt>
      <trkpt lat="45.33798" lon="4.61938">
        <ele>766.79998779297</ele>
        <time>2019-10-30T08:14:18.000Z</time>
      </trkpt>
      <trkpt lat="45.33799" lon="4.61938">
        <ele>767</ele>
        <time>2019-10-30T08:14:19.000Z</time>
      </trkpt>
      <trkpt lat="45.33801" lon="4.61938">
        <ele>767.20001220703</ele>
        <time>2019-10-30T08:14:20.000Z</time>
      </trkpt>
      <trkpt lat="45.33803" lon="4.61938">
        <ele>767.40002441406</ele>
        <time>2019-10-30T08:14:21.000Z</time>
      </trkpt>
      <trkpt lat="45.33804" lon="4.61938">
        <ele>767.59997558594</ele>
        <time>2019-10-30T08:14:22.000Z</time>
      </trkpt>
      <trkpt lat="45.33806" lon="4.61938">
        <ele>767.79998779297</ele>
        <time>2019-10-30T08:14:23.000Z</time>
      </trkpt>
      <trkpt lat="45.33807" lon="4.61937">
        <ele>768</ele>
        <time>2019-10-30T08:14:24.000Z</time>
      </trkpt>
      <trkpt lat="45.33809" lon="4.61937">
        <ele>768.20001220703</ele>
        <time>2019-10-30T08:14:25.000Z</time>
      </trkpt>
      <trkpt lat="45.33811" lon="4.61936">
        <ele>768.59997558594</ele>
        <time>2019-10-30T08:14:26.000Z</time>
      </trkpt>
      <trkpt lat="45.33812" lon="4.61936">
        <ele>768.79998779297</ele>
        <time>2019-10-30T08:14:27.000Z</time>
      </trkpt>
      <trkpt lat="45.33814" lon="4.61935">
        <ele>769</ele>
        <time>2019-10-30T08:14:28.000Z</time>
      </trkpt>
      <trkpt lat="45.33816" lon="4.61935">
        <ele>769.40002441406</ele>
        <time>2019-10-30T08:14:29.000Z</time>
      </trkpt>
      <trkpt lat="45.33817" lon="4.61934">
        <ele>769.40002441406</ele>
        <time>2019-10-30T08:14:30.000Z</time>
      </trkpt>
      <trkpt lat="45.33819" lon="4.61933">
        <ele>769.79998779297</ele>
        <time>2019-10-30T08:14:31.000Z</time>
      </trkpt>
      <trkpt lat="45.3382" lon="4.61932">
        <ele>770</ele>
        <time>2019-10-30T08:14:32.000Z</time>
      </trkpt>
      <trkpt lat="45.33822" lon="4.61931">
        <ele>770</ele>
        <time>2019-10-30T08:14:33.000Z</time>
      </trkpt>
      <trkpt lat="45.33823" lon="4.6193">
        <ele>770.20001220703</ele>
        <time>2019-10-30T08:14:34.000Z</time>
      </trkpt>
      <trkpt lat="45.33825" lon="4.61929">
        <ele>770.40002441406</ele>
        <time>2019-10-30T08:14:35.000Z</time>
      </trkpt>
      <trkpt lat="45.33826" lon="4.61928">
        <ele>770.59997558594</ele>
        <time>2019-10-30T08:14:36.000Z</time>
      </trkpt>
      <trkpt lat="45.33828" lon="4.61927">
        <ele>770.79998779297</ele>
        <time>2019-10-30T08:14:37.000Z</time>
      </trkpt>
      <trkpt lat="45.33829" lon="4.61926">
        <ele>770.79998779297</ele>
        <time>2019-10-30T08:14:38.000Z</time>
      </trkpt>
      <trkpt lat="45.3383" lon="4.61924">
        <ele>771</ele>
        <time>2019-10-30T08:14:39.000Z</time>
      </trkpt>
      <trkpt lat="45.33832" lon="4.61923">
        <ele>771.20001220703</ele>
        <time>2019-10-30T08:14:40.000Z</time>
      </trkpt>
      <trkpt lat="45.33833" lon="4.61922">
        <ele>771.20001220703</ele>
        <time>2019-10-30T08:14:41.000Z</time>
      </trkpt>
      <trkpt lat="45.33835" lon="4.61921">
        <ele>771.59997558594</ele>
        <time>2019-10-30T08:14:42.000Z</time>
      </trkpt>
      <trkpt lat="45.33837" lon="4.6192">
        <ele>771.59997558594</ele>
        <time>2019-10-30T08:14:43.000Z</time>
      </trkpt>
      <trkpt lat="45.33839" lon="4.61919">
        <ele>771.79998779297</ele>
        <time>2019-10-30T08:14:44.000Z</time>
      </trkpt>
      <trkpt lat="45.3384" lon="4.61918">
        <ele>772</ele>
        <time>2019-10-30T08:14:45.000Z</time>
      </trkpt>
      <trkpt lat="45.33842" lon="4.61917">
        <ele>772.20001220703</ele>
        <time>2019-10-30T08:14:46.000Z</time>
      </trkpt>
      <trkpt lat="45.33844" lon="4.61915">
        <ele>772.40002441406</ele>
        <time>2019-10-30T08:14:47.000Z</time>
      </trkpt>
      <trkpt lat="45.33845" lon="4.61914">
        <ele>772.79998779297</ele>
        <time>2019-10-30T08:14:48.000Z</time>
      </trkpt>
      <trkpt lat="45.33847" lon="4.61913">
        <ele>772.79998779297</ele>
        <time>2019-10-30T08:14:49.000Z</time>
      </trkpt>
      <trkpt lat="45.33849" lon="4.61912">
        <ele>773</ele>
        <time>2019-10-30T08:14:50.000Z</time>
      </trkpt>
      <trkpt lat="45.33851" lon="4.6191">
        <ele>773</ele>
        <time>2019-10-30T08:14:51.000Z</time>
      </trkpt>
      <trkpt lat="45.33852" lon="4.61909">
        <ele>773.40002441406</ele>
        <time>2019-10-30T08:14:52.000Z</time>
      </trkpt>
      <trkpt lat="45.33854" lon="4.61908">
        <ele>773.59997558594</ele>
        <time>2019-10-30T08:14:53.000Z</time>
      </trkpt>
      <trkpt lat="45.33855" lon="4.61907">
        <ele>773.40002441406</ele>
        <time>2019-10-30T08:14:54.000Z</time>
      </trkpt>
      <trkpt lat="45.33857" lon="4.61906">
        <ele>773.59997558594</ele>
        <time>2019-10-30T08:14:55.000Z</time>
      </trkpt>
      <trkpt lat="45.33859" lon="4.61905">
        <ele>774</ele>
        <time>2019-10-30T08:14:56.000Z</time>
      </trkpt>
      <trkpt lat="45.3386" lon="4.61903">
        <ele>774.20001220703</ele>
        <time>2019-10-30T08:14:57.000Z</time>
      </trkpt>
      <trkpt lat="45.33862" lon="4.61902">
        <ele>774.20001220703</ele>
        <time>2019-10-30T08:14:58.000Z</time>
      </trkpt>
      <trkpt lat="45.33863" lon="4.61901">
        <ele>774.20001220703</ele>
        <time>2019-10-30T08:14:59.000Z</time>
      </trkpt>
      <trkpt lat="45.33864" lon="4.61899">
        <ele>774.40002441406</ele>
        <time>2019-10-30T08:15:00.000Z</time>
      </trkpt>
      <trkpt lat="45.33866" lon="4.61898">
        <ele>774.40002441406</ele>
        <time>2019-10-30T08:15:01.000Z</time>
      </trkpt>
      <trkpt lat="45.33867" lon="4.61897">
        <ele>774.79998779297</ele>
        <time>2019-10-30T08:15:02.000Z</time>
      </trkpt>
      <trkpt lat="45.33869" lon="4.61896">
        <ele>774.79998779297</ele>
        <time>2019-10-30T08:15:03.000Z</time>
      </trkpt>
      <trkpt lat="45.33871" lon="4.61895">
        <ele>775.20001220703</ele>
        <time>2019-10-30T08:15:04.000Z</time>
      </trkpt>
      <trkpt lat="45.33872" lon="4.61895">
        <ele>775.40002441406</ele>
        <time>2019-10-30T08:15:05.000Z</time>
      </trkpt>
      <trkpt lat="45.33874" lon="4.61894">
        <ele>775.59997558594</ele>
        <time>2019-10-30T08:15:06.000Z</time>
      </trkpt>
      <trkpt lat="45.33876" lon="4.61893">
        <ele>775.79998779297</ele>
        <time>2019-10-30T08:15:07.000Z</time>
      </trkpt>
      <trkpt lat="45.33877" lon="4.61892">
        <ele>776</ele>
        <time>2019-10-30T08:15:08.000Z</time>
      </trkpt>
      <trkpt lat="45.33879" lon="4.6189">
        <ele>776</ele>
        <time>2019-10-30T08:15:09.000Z</time>
      </trkpt>
      <trkpt lat="45.33881" lon="4.6189">
        <ele>776.20001220703</ele>
        <time>2019-10-30T08:15:10.000Z</time>
      </trkpt>
      <trkpt lat="45.33882" lon="4.61889">
        <ele>776.40002441406</ele>
        <time>2019-10-30T08:15:11.000Z</time>
      </trkpt>
      <trkpt lat="45.33884" lon="4.61889">
        <ele>776.59997558594</ele>
        <time>2019-10-30T08:15:12.000Z</time>
      </trkpt>
      <trkpt lat="45.33886" lon="4.61888">
        <ele>776.79998779297</ele>
        <time>2019-10-30T08:15:13.000Z</time>
      </trkpt>
      <trkpt lat="45.33888" lon="4.61888">
        <ele>776.79998779297</ele>
        <time>2019-10-30T08:15:14.000Z</time>
      </trkpt>
      <trkpt lat="45.33889" lon="4.61887">
        <ele>777.20001220703</ele>
        <time>2019-10-30T08:15:15.000Z</time>
      </trkpt>
      <trkpt lat="45.33891" lon="4.61887">
        <ele>777.20001220703</ele>
        <time>2019-10-30T08:15:16.000Z</time>
      </trkpt>
      <trkpt lat="45.33893" lon="4.61887">
        <ele>777.40002441406</ele>
        <time>2019-10-30T08:15:17.000Z</time>
      </trkpt>
      <trkpt lat="45.33895" lon="4.61887">
        <ele>777.59997558594</ele>
        <time>2019-10-30T08:15:18.000Z</time>
      </trkpt>
      <trkpt lat="45.33897" lon="4.61887">
        <ele>777.59997558594</ele>
        <time>2019-10-30T08:15:19.000Z</time>
      </trkpt>
      <trkpt lat="45.33898" lon="4.61887">
        <ele>778</ele>
        <time>2019-10-30T08:15:20.000Z</time>
      </trkpt>
      <trkpt lat="45.339" lon="4.61887">
        <ele>778.20001220703</ele>
        <time>2019-10-30T08:15:21.000Z</time>
      </trkpt>
      <trkpt lat="45.33901" lon="4.61887">
        <ele>778.20001220703</ele>
        <time>2019-10-30T08:15:22.000Z</time>
      </trkpt>
      <trkpt lat="45.33903" lon="4.61887">
        <ele>778.40002441406</ele>
        <time>2019-10-30T08:15:23.000Z</time>
      </trkpt>
      <trkpt lat="45.33905" lon="4.61887">
        <ele>778.59997558594</ele>
        <time>2019-10-30T08:15:24.000Z</time>
      </trkpt>
      <trkpt lat="45.33907" lon="4.61887">
        <ele>778.59997558594</ele>
        <time>2019-10-30T08:15:25.000Z</time>
      </trkpt>
      <trkpt lat="45.33908" lon="4.61888">
        <ele>778.59997558594</ele>
        <time>2019-10-30T08:15:26.000Z</time>
      </trkpt>
      <trkpt lat="45.33909" lon="4.61887">
        <ele>779</ele>
        <time>2019-10-30T08:15:27.000Z</time>
      </trkpt>
      <trkpt lat="45.33911" lon="4.61887">
        <ele>779</ele>
        <time>2019-10-30T08:15:28.000Z</time>
      </trkpt>
      <trkpt lat="45.33913" lon="4.61887">
        <ele>779.20001220703</ele>
        <time>2019-10-30T08:15:29.000Z</time>
      </trkpt>
      <trkpt lat="45.33914" lon="4.61887">
        <ele>779.59997558594</ele>
        <time>2019-10-30T08:15:30.000Z</time>
      </trkpt>
      <trkpt lat="45.33916" lon="4.61887">
        <ele>779.59997558594</ele>
        <time>2019-10-30T08:15:31.000Z</time>
      </trkpt>
      <trkpt lat="45.33918" lon="4.61887">
        <ele>779.79998779297</ele>
        <time>2019-10-30T08:15:32.000Z</time>
      </trkpt>
      <trkpt lat="45.33919" lon="4.61887">
        <ele>779.79998779297</ele>
        <time>2019-10-30T08:15:33.000Z</time>
      </trkpt>
      <trkpt lat="45.33921" lon="4.61888">
        <ele>780</ele>
        <time>2019-10-30T08:15:34.000Z</time>
      </trkpt>
      <trkpt lat="45.33922" lon="4.61888">
        <ele>780.20001220703</ele>
        <time>2019-10-30T08:15:35.000Z</time>
      </trkpt>
      <trkpt lat="45.33924" lon="4.61889">
        <ele>780.59997558594</ele>
        <time>2019-10-30T08:15:36.000Z</time>
      </trkpt>
      <trkpt lat="45.33926" lon="4.61889">
        <ele>780.59997558594</ele>
        <time>2019-10-30T08:15:37.000Z</time>
      </trkpt>
      <trkpt lat="45.33927" lon="4.6189">
        <ele>780.79998779297</ele>
        <time>2019-10-30T08:15:38.000Z</time>
      </trkpt>
      <trkpt lat="45.33929" lon="4.6189">
        <ele>781</ele>
        <time>2019-10-30T08:15:39.000Z</time>
      </trkpt>
      <trkpt lat="45.3393" lon="4.6189">
        <ele>781.20001220703</ele>
        <time>2019-10-30T08:15:40.000Z</time>
      </trkpt>
      <trkpt lat="45.33932" lon="4.61891">
        <ele>781.40002441406</ele>
        <time>2019-10-30T08:15:41.000Z</time>
      </trkpt>
      <trkpt lat="45.33933" lon="4.61891">
        <ele>781.79998779297</ele>
        <time>2019-10-30T08:15:42.000Z</time>
      </trkpt>
      <trkpt lat="45.33935" lon="4.61892">
        <ele>781.79998779297</ele>
        <time>2019-10-30T08:15:43.000Z</time>
      </trkpt>
      <trkpt lat="45.33936" lon="4.61893">
        <ele>782</ele>
        <time>2019-10-30T08:15:44.000Z</time>
      </trkpt>
      <trkpt lat="45.33938" lon="4.61894">
        <ele>782.20001220703</ele>
        <time>2019-10-30T08:15:45.000Z</time>
      </trkpt>
      <trkpt lat="45.3394" lon="4.61894">
        <ele>782.20001220703</ele>
        <time>2019-10-30T08:15:46.000Z</time>
      </trkpt>
      <trkpt lat="45.33941" lon="4.61895">
        <ele>782.40002441406</ele>
        <time>2019-10-30T08:15:47.000Z</time>
      </trkpt>
      <trkpt lat="45.33943" lon="4.61897">
        <ele>782.59997558594</ele>
        <time>2019-10-30T08:15:48.000Z</time>
      </trkpt>
      <trkpt lat="45.33945" lon="4.61899">
        <ele>782.59997558594</ele>
        <time>2019-10-30T08:15:49.000Z</time>
      </trkpt>
      <trkpt lat="45.33946" lon="4.619">
        <ele>782.79998779297</ele>
        <time>2019-10-30T08:15:50.000Z</time>
      </trkpt>
      <trkpt lat="45.33948" lon="4.61902">
        <ele>782.79998779297</ele>
        <time>2019-10-30T08:15:51.000Z</time>
      </trkpt>
      <trkpt lat="45.3395" lon="4.61904">
        <ele>782.79998779297</ele>
        <time>2019-10-30T08:15:52.000Z</time>
      </trkpt>
      <trkpt lat="45.33952" lon="4.61905">
        <ele>783</ele>
        <time>2019-10-30T08:15:53.000Z</time>
      </trkpt>
      <trkpt lat="45.33953" lon="4.61906">
        <ele>783.20001220703</ele>
        <time>2019-10-30T08:15:54.000Z</time>
      </trkpt>
      <trkpt lat="45.33955" lon="4.61908">
        <ele>783.40002441406</ele>
        <time>2019-10-30T08:15:55.000Z</time>
      </trkpt>
      <trkpt lat="45.33957" lon="4.6191">
        <ele>783.59997558594</ele>
        <time>2019-10-30T08:15:56.000Z</time>
      </trkpt>
      <trkpt lat="45.33958" lon="4.61912">
        <ele>783.59997558594</ele>
        <time>2019-10-30T08:15:57.000Z</time>
      </trkpt>
      <trkpt lat="45.3396" lon="4.61914">
        <ele>783.59997558594</ele>
        <time>2019-10-30T08:15:58.000Z</time>
      </trkpt>
      <trkpt lat="45.33961" lon="4.61916">
        <ele>784</ele>
        <time>2019-10-30T08:15:59.000Z</time>
      </trkpt>
      <trkpt lat="45.33963" lon="4.61918">
        <ele>784.20001220703</ele>
        <time>2019-10-30T08:16:00.000Z</time>
      </trkpt>
      <trkpt lat="45.33964" lon="4.6192">
        <ele>784.20001220703</ele>
        <time>2019-10-30T08:16:01.000Z</time>
      </trkpt>
      <trkpt lat="45.33965" lon="4.61921">
        <ele>784.40002441406</ele>
        <time>2019-10-30T08:16:02.000Z</time>
      </trkpt>
      <trkpt lat="45.33967" lon="4.61923">
        <ele>784.79998779297</ele>
        <time>2019-10-30T08:16:03.000Z</time>
      </trkpt>
      <trkpt lat="45.33968" lon="4.61924">
        <ele>784.79998779297</ele>
        <time>2019-10-30T08:16:04.000Z</time>
      </trkpt>
      <trkpt lat="45.3397" lon="4.61925">
        <ele>785</ele>
        <time>2019-10-30T08:16:05.000Z</time>
      </trkpt>
      <trkpt lat="45.33971" lon="4.61926">
        <ele>785.40002441406</ele>
        <time>2019-10-30T08:16:06.000Z</time>
      </trkpt>
      <trkpt lat="45.33972" lon="4.61926">
        <ele>785.40002441406</ele>
        <time>2019-10-30T08:16:07.000Z</time>
      </trkpt>
      <trkpt lat="45.33974" lon="4.61925">
        <ele>785.59997558594</ele>
        <time>2019-10-30T08:16:08.000Z</time>
      </trkpt>
      <trkpt lat="45.33974" lon="4.61924">
        <ele>786</ele>
        <time>2019-10-30T08:16:09.000Z</time>
      </trkpt>
      <trkpt lat="45.33975" lon="4.61923">
        <ele>786.20001220703</ele>
        <time>2019-10-30T08:16:10.000Z</time>
      </trkpt>
      <trkpt lat="45.33976" lon="4.61921">
        <ele>786.79998779297</ele>
        <time>2019-10-30T08:16:11.000Z</time>
      </trkpt>
      <trkpt lat="45.33977" lon="4.6192">
        <ele>787</ele>
        <time>2019-10-30T08:16:12.000Z</time>
      </trkpt>
      <trkpt lat="45.33978" lon="4.61919">
        <ele>787.20001220703</ele>
        <time>2019-10-30T08:16:13.000Z</time>
      </trkpt>
      <trkpt lat="45.33978" lon="4.61917">
        <ele>787.40002441406</ele>
        <time>2019-10-30T08:16:14.000Z</time>
      </trkpt>
      <trkpt lat="45.33979" lon="4.61916">
        <ele>787.79998779297</ele>
        <time>2019-10-30T08:16:15.000Z</time>
      </trkpt>
      <trkpt lat="45.33979" lon="4.61917">
        <ele>787.79998779297</ele>
        <time>2019-10-30T08:16:16.000Z</time>
      </trkpt>
      <trkpt lat="45.33979" lon="4.61916">
        <ele>787.79998779297</ele>
        <time>2019-10-30T08:16:17.000Z</time>
      </trkpt>
      <trkpt lat="45.33979" lon="4.61917">
        <ele>788</ele>
        <time>2019-10-30T08:16:19.000Z</time>
      </trkpt>
      <trkpt lat="45.3398" lon="4.61918">
        <ele>789</ele>
        <time>2019-10-30T08:16:30.000Z</time>
      </trkpt>
      <trkpt lat="45.3398" lon="4.61918">
        <ele>789.20001220703</ele>
        <time>2019-10-30T08:16:36.000Z</time>
      </trkpt>
      <trkpt lat="45.3398" lon="4.61918">
        <ele>789.40002441406</ele>
        <time>2019-10-30T08:16:37.000Z</time>
      </trkpt>
      <trkpt lat="45.3398" lon="4.61917">
        <ele>789.20001220703</ele>
        <time>2019-10-30T08:16:38.000Z</time>
      </trkpt>
      <trkpt lat="45.3398" lon="4.61917">
        <ele>789.20001220703</ele>
        <time>2019-10-30T08:16:43.000Z</time>
      </trkpt>
      <trkpt lat="45.33978" lon="4.61915">
        <ele>789.20001220703</ele>
        <time>2019-10-30T08:16:55.000Z</time>
      </trkpt>
      <trkpt lat="45.33977" lon="4.61916">
        <ele>789.20001220703</ele>
        <time>2019-10-30T08:17:05.000Z</time>
      </trkpt>
      <trkpt lat="45.33977" lon="4.61916">
        <ele>789.20001220703</ele>
        <time>2019-10-30T08:17:06.000Z</time>
      </trkpt>
      <trkpt lat="45.33977" lon="4.61916">
        <ele>789.20001220703</ele>
        <time>2019-10-30T08:17:08.000Z</time>
      </trkpt>
      <trkpt lat="45.33976" lon="4.61917">
        <ele>789.40002441406</ele>
        <time>2019-10-30T08:17:15.000Z</time>
      </trkpt>
      <trkpt lat="45.33976" lon="4.61918">
        <ele>789.20001220703</ele>
        <time>2019-10-30T08:17:20.000Z</time>
      </trkpt>
      <trkpt lat="45.33976" lon="4.61918">
        <ele>789.20001220703</ele>
        <time>2019-10-30T08:17:25.000Z</time>
      </trkpt>
      <trkpt lat="45.33976" lon="4.61918">
        <ele>789.20001220703</ele>
        <time>2019-10-30T08:17:27.000Z</time>
      </trkpt>
      <trkpt lat="45.33976" lon="4.61918">
        <ele>789.20001220703</ele>
        <time>2019-10-30T08:17:28.000Z</time>
      </trkpt>
      <trkpt lat="45.33976" lon="4.61918">
        <ele>789.20001220703</ele>
        <time>2019-10-30T08:17:30.000Z</time>
      </trkpt>
      <trkpt lat="45.33976" lon="4.61918">
        <ele>789.20001220703</ele>
        <time>2019-10-30T08:17:32.000Z</time>
      </trkpt>
      <trkpt lat="45.33976" lon="4.61918">
        <ele>789.20001220703</ele>
        <time>2019-10-30T08:17:33.000Z</time>
      </trkpt>
      <trkpt lat="45.33976" lon="4.61918">
        <ele>789.40002441406</ele>
        <time>2019-10-30T08:17:34.000Z</time>
      </trkpt>
      <trkpt lat="45.33976" lon="4.61918">
        <ele>789.20001220703</ele>
        <time>2019-10-30T08:17:37.000Z</time>
      </trkpt>
      <trkpt lat="45.33976" lon="4.61919">
        <ele>789.40002441406</ele>
        <time>2019-10-30T08:17:38.000Z</time>
      </trkpt>
      <trkpt lat="45.33976" lon="4.61919">
        <ele>789.40002441406</ele>
        <time>2019-10-30T08:17:42.000Z</time>
      </trkpt>
      <trkpt lat="45.33976" lon="4.61919">
        <ele>789.40002441406</ele>
        <time>2019-10-30T08:17:43.000Z</time>
      </trkpt>
      <trkpt lat="45.33976" lon="4.61919">
        <ele>789.40002441406</ele>
        <time>2019-10-30T08:17:44.000Z</time>
      </trkpt>
      <trkpt lat="45.33976" lon="4.61918">
        <ele>789.20001220703</ele>
        <time>2019-10-30T08:17:45.000Z</time>
      </trkpt>
      <trkpt lat="45.33976" lon="4.61919">
        <ele>789.40002441406</ele>
        <time>2019-10-30T08:17:47.000Z</time>
      </trkpt>
      <trkpt lat="45.33976" lon="4.61919">
        <ele>789.20001220703</ele>
        <time>2019-10-30T08:17:51.000Z</time>
      </trkpt>
      <trkpt lat="45.33976" lon="4.61919">
        <ele>789.20001220703</ele>
        <time>2019-10-30T08:17:52.000Z</time>
      </trkpt>
      <trkpt lat="45.33976" lon="4.61919">
        <ele>789.20001220703</ele>
        <time>2019-10-30T08:17:53.000Z</time>
      </trkpt>
      <trkpt lat="45.33976" lon="4.61919">
        <ele>789.20001220703</ele>
        <time>2019-10-30T08:17:54.000Z</time>
      </trkpt>
      <trkpt lat="45.33976" lon="4.61919">
        <ele>789.20001220703</ele>
        <time>2019-10-30T08:17:57.000Z</time>
      </trkpt>
      <trkpt lat="45.33976" lon="4.61919">
        <ele>789.20001220703</ele>
        <time>2019-10-30T08:18:07.000Z</time>
      </trkpt>
      <trkpt lat="45.33976" lon="4.61919">
        <ele>789.20001220703</ele>
        <time>2019-10-30T08:18:09.000Z</time>
      </trkpt>
      <trkpt lat="45.33977" lon="4.61917">
        <ele>789.20001220703</ele>
        <time>2019-10-30T08:18:26.000Z</time>
      </trkpt>
      <trkpt lat="45.33978" lon="4.61916">
        <ele>789</ele>
        <time>2019-10-30T08:18:41.000Z</time>
      </trkpt>
      <trkpt lat="45.33974" lon="4.61921">
        <ele>789</ele>
        <time>2019-10-30T08:18:57.000Z</time>
      </trkpt>
      <trkpt lat="45.33979" lon="4.61918">
        <ele>789.20001220703</ele>
        <time>2019-10-30T08:19:08.000Z</time>
      </trkpt>
      <trkpt lat="45.33976" lon="4.61919">
        <ele>788.79998779297</ele>
        <time>2019-10-30T08:19:24.000Z</time>
      </trkpt>
      <trkpt lat="45.33974" lon="4.61919">
        <ele>788.79998779297</ele>
        <time>2019-10-30T08:19:39.000Z</time>
      </trkpt>
      <trkpt lat="45.33974" lon="4.61919">
        <ele>789</ele>
        <time>2019-10-30T08:19:40.000Z</time>
      </trkpt>
      <trkpt lat="45.33975" lon="4.61918">
        <ele>788.79998779297</ele>
        <time>2019-10-30T08:20:17.000Z</time>
      </trkpt>
      <trkpt lat="45.33975" lon="4.61919">
        <ele>789.40002441406</ele>
        <time>2019-10-30T08:21:21.000Z</time>
      </trkpt>
      <trkpt lat="45.33975" lon="4.61918">
        <ele>789.40002441406</ele>
        <time>2019-10-30T08:21:34.000Z</time>
      </trkpt>
      <trkpt lat="45.33974" lon="4.61918">
        <ele>789.59997558594</ele>
        <time>2019-10-30T08:21:38.000Z</time>
      </trkpt>
      <trkpt lat="45.33976" lon="4.61923">
        <ele>789.79998779297</ele>
        <time>2019-10-30T08:21:51.000Z</time>
      </trkpt>
      <trkpt lat="45.33976" lon="4.61923">
        <ele>789.79998779297</ele>
        <time>2019-10-30T08:21:52.000Z</time>
      </trkpt>
      <trkpt lat="45.33977" lon="4.61924">
        <ele>789.79998779297</ele>
        <time>2019-10-30T08:21:53.000Z</time>
      </trkpt>
      <trkpt lat="45.33978" lon="4.61925">
        <ele>789.79998779297</ele>
        <time>2019-10-30T08:21:54.000Z</time>
      </trkpt>
      <trkpt lat="45.33978" lon="4.61925">
        <ele>789.79998779297</ele>
        <time>2019-10-30T08:21:55.000Z</time>
      </trkpt>
      <trkpt lat="45.33979" lon="4.61927">
        <ele>789.79998779297</ele>
        <time>2019-10-30T08:21:56.000Z</time>
      </trkpt>
      <trkpt lat="45.3398" lon="4.61928">
        <ele>789.79998779297</ele>
        <time>2019-10-30T08:21:57.000Z</time>
      </trkpt>
      <trkpt lat="45.3398" lon="4.61929">
        <ele>789.79998779297</ele>
        <time>2019-10-30T08:21:58.000Z</time>
      </trkpt>
      <trkpt lat="45.33981" lon="4.6193">
        <ele>789.79998779297</ele>
        <time>2019-10-30T08:21:59.000Z</time>
      </trkpt>
      <trkpt lat="45.33983" lon="4.61931">
        <ele>789.79998779297</ele>
        <time>2019-10-30T08:22:00.000Z</time>
      </trkpt>
      <trkpt lat="45.33984" lon="4.61932">
        <ele>789.79998779297</ele>
        <time>2019-10-30T08:22:01.000Z</time>
      </trkpt>
      <trkpt lat="45.33986" lon="4.61933">
        <ele>789.79998779297</ele>
        <time>2019-10-30T08:22:02.000Z</time>
      </trkpt>
      <trkpt lat="45.33987" lon="4.61933">
        <ele>790.20001220703</ele>
        <time>2019-10-30T08:22:03.000Z</time>
      </trkpt>
      <trkpt lat="45.33988" lon="4.61934">
        <ele>790.40002441406</ele>
        <time>2019-10-30T08:22:04.000Z</time>
      </trkpt>
      <trkpt lat="45.33989" lon="4.61935">
        <ele>790.79998779297</ele>
        <time>2019-10-30T08:22:05.000Z</time>
      </trkpt>
      <trkpt lat="45.3399" lon="4.61936">
        <ele>790.79998779297</ele>
        <time>2019-10-30T08:22:06.000Z</time>
      </trkpt>
      <trkpt lat="45.33992" lon="4.61937">
        <ele>791.20001220703</ele>
        <time>2019-10-30T08:22:07.000Z</time>
      </trkpt>
      <trkpt lat="45.33993" lon="4.61938">
        <ele>791.20001220703</ele>
        <time>2019-10-30T08:22:08.000Z</time>
      </trkpt>
      <trkpt lat="45.33994" lon="4.61938">
        <ele>791.59997558594</ele>
        <time>2019-10-30T08:22:09.000Z</time>
      </trkpt>
      <trkpt lat="45.33995" lon="4.61939">
        <ele>791.59997558594</ele>
        <time>2019-10-30T08:22:10.000Z</time>
      </trkpt>
      <trkpt lat="45.33996" lon="4.6194">
        <ele>792</ele>
        <time>2019-10-30T08:22:11.000Z</time>
      </trkpt>
      <trkpt lat="45.33997" lon="4.61941">
        <ele>792.40002441406</ele>
        <time>2019-10-30T08:22:12.000Z</time>
      </trkpt>
      <trkpt lat="45.33998" lon="4.61942">
        <ele>792.79998779297</ele>
        <time>2019-10-30T08:22:13.000Z</time>
      </trkpt>
      <trkpt lat="45.33999" lon="4.61943">
        <ele>793</ele>
        <time>2019-10-30T08:22:14.000Z</time>
      </trkpt>
      <trkpt lat="45.34" lon="4.61944">
        <ele>793.40002441406</ele>
        <time>2019-10-30T08:22:15.000Z</time>
      </trkpt>
      <trkpt lat="45.34001" lon="4.61945">
        <ele>793.59997558594</ele>
        <time>2019-10-30T08:22:16.000Z</time>
      </trkpt>
      <trkpt lat="45.34003" lon="4.61946">
        <ele>794</ele>
        <time>2019-10-30T08:22:17.000Z</time>
      </trkpt>
      <trkpt lat="45.34004" lon="4.61948">
        <ele>794</ele>
        <time>2019-10-30T08:22:18.000Z</time>
      </trkpt>
      <trkpt lat="45.34005" lon="4.6195">
        <ele>794.20001220703</ele>
        <time>2019-10-30T08:22:19.000Z</time>
      </trkpt>
      <trkpt lat="45.34006" lon="4.61951">
        <ele>794.59997558594</ele>
        <time>2019-10-30T08:22:20.000Z</time>
      </trkpt>
      <trkpt lat="45.34007" lon="4.61952">
        <ele>794.79998779297</ele>
        <time>2019-10-30T08:22:21.000Z</time>
      </trkpt>
      <trkpt lat="45.34008" lon="4.61953">
        <ele>795.20001220703</ele>
        <time>2019-10-30T08:22:22.000Z</time>
      </trkpt>
      <trkpt lat="45.3401" lon="4.61955">
        <ele>795.40002441406</ele>
        <time>2019-10-30T08:22:23.000Z</time>
      </trkpt>
      <trkpt lat="45.34011" lon="4.61956">
        <ele>795.40002441406</ele>
        <time>2019-10-30T08:22:24.000Z</time>
      </trkpt>
      <trkpt lat="45.34012" lon="4.61957">
        <ele>796</ele>
        <time>2019-10-30T08:22:25.000Z</time>
      </trkpt>
      <trkpt lat="45.34013" lon="4.61958">
        <ele>796.20001220703</ele>
        <time>2019-10-30T08:22:26.000Z</time>
      </trkpt>
      <trkpt lat="45.34014" lon="4.61959">
        <ele>796.59997558594</ele>
        <time>2019-10-30T08:22:27.000Z</time>
      </trkpt>
      <trkpt lat="45.34015" lon="4.6196">
        <ele>796.59997558594</ele>
        <time>2019-10-30T08:22:28.000Z</time>
      </trkpt>
      <trkpt lat="45.34016" lon="4.61961">
        <ele>797</ele>
        <time>2019-10-30T08:22:29.000Z</time>
      </trkpt>
      <trkpt lat="45.34017" lon="4.61962">
        <ele>797.20001220703</ele>
        <time>2019-10-30T08:22:30.000Z</time>
      </trkpt>
      <trkpt lat="45.34019" lon="4.61964">
        <ele>797.59997558594</ele>
        <time>2019-10-30T08:22:31.000Z</time>
      </trkpt>
      <trkpt lat="45.3402" lon="4.61965">
        <ele>798</ele>
        <time>2019-10-30T08:22:32.000Z</time>
      </trkpt>
      <trkpt lat="45.34021" lon="4.61966">
        <ele>798.20001220703</ele>
        <time>2019-10-30T08:22:33.000Z</time>
      </trkpt>
      <trkpt lat="45.34022" lon="4.61967">
        <ele>798.40002441406</ele>
        <time>2019-10-30T08:22:34.000Z</time>
      </trkpt>
      <trkpt lat="45.34023" lon="4.61968">
        <ele>798.79998779297</ele>
        <time>2019-10-30T08:22:35.000Z</time>
      </trkpt>
      <trkpt lat="45.34023" lon="4.61969">
        <ele>799</ele>
        <time>2019-10-30T08:22:36.000Z</time>
      </trkpt>
      <trkpt lat="45.34024" lon="4.6197">
        <ele>799</ele>
        <time>2019-10-30T08:22:37.000Z</time>
      </trkpt>
      <trkpt lat="45.34025" lon="4.61972">
        <ele>799.40002441406</ele>
        <time>2019-10-30T08:22:38.000Z</time>
      </trkpt>
      <trkpt lat="45.34026" lon="4.61974">
        <ele>799.59997558594</ele>
        <time>2019-10-30T08:22:39.000Z</time>
      </trkpt>
      <trkpt lat="45.34027" lon="4.61975">
        <ele>800</ele>
        <time>2019-10-30T08:22:40.000Z</time>
      </trkpt>
      <trkpt lat="45.34028" lon="4.61976">
        <ele>800</ele>
        <time>2019-10-30T08:22:41.000Z</time>
      </trkpt>
      <trkpt lat="45.34029" lon="4.61977">
        <ele>800.20001220703</ele>
        <time>2019-10-30T08:22:42.000Z</time>
      </trkpt>
      <trkpt lat="45.3403" lon="4.61978">
        <ele>800.40002441406</ele>
        <time>2019-10-30T08:22:43.000Z</time>
      </trkpt>
      <trkpt lat="45.34032" lon="4.6198">
        <ele>800.40002441406</ele>
        <time>2019-10-30T08:22:44.000Z</time>
      </trkpt>
      <trkpt lat="45.34033" lon="4.61981">
        <ele>800.59997558594</ele>
        <time>2019-10-30T08:22:45.000Z</time>
      </trkpt>
      <trkpt lat="45.34035" lon="4.61982">
        <ele>800.79998779297</ele>
        <time>2019-10-30T08:22:46.000Z</time>
      </trkpt>
      <trkpt lat="45.34036" lon="4.61984">
        <ele>800.79998779297</ele>
        <time>2019-10-30T08:22:47.000Z</time>
      </trkpt>
      <trkpt lat="45.34036" lon="4.61985">
        <ele>800.79998779297</ele>
        <time>2019-10-30T08:22:48.000Z</time>
      </trkpt>
      <trkpt lat="45.34038" lon="4.61987">
        <ele>800.79998779297</ele>
        <time>2019-10-30T08:22:49.000Z</time>
      </trkpt>
      <trkpt lat="45.34039" lon="4.61988">
        <ele>801.20001220703</ele>
        <time>2019-10-30T08:22:50.000Z</time>
      </trkpt>
      <trkpt lat="45.3404" lon="4.61989">
        <ele>801.40002441406</ele>
        <time>2019-10-30T08:22:51.000Z</time>
      </trkpt>
      <trkpt lat="45.34041" lon="4.6199">
        <ele>801.40002441406</ele>
        <time>2019-10-30T08:22:52.000Z</time>
      </trkpt>
      <trkpt lat="45.34042" lon="4.61992">
        <ele>801.59997558594</ele>
        <time>2019-10-30T08:22:53.000Z</time>
      </trkpt>
      <trkpt lat="45.34043" lon="4.61993">
        <ele>801.79998779297</ele>
        <time>2019-10-30T08:22:54.000Z</time>
      </trkpt>
      <trkpt lat="45.34044" lon="4.61994">
        <ele>801.79998779297</ele>
        <time>2019-10-30T08:22:55.000Z</time>
      </trkpt>
      <trkpt lat="45.34045" lon="4.61995">
        <ele>802.20001220703</ele>
        <time>2019-10-30T08:22:56.000Z</time>
      </trkpt>
      <trkpt lat="45.34046" lon="4.61997">
        <ele>802.40002441406</ele>
        <time>2019-10-30T08:22:57.000Z</time>
      </trkpt>
      <trkpt lat="45.34048" lon="4.61999">
        <ele>802.59997558594</ele>
        <time>2019-10-30T08:22:58.000Z</time>
      </trkpt>
      <trkpt lat="45.34049" lon="4.62">
        <ele>803</ele>
        <time>2019-10-30T08:22:59.000Z</time>
      </trkpt>
      <trkpt lat="45.3405" lon="4.62001">
        <ele>803.20001220703</ele>
        <time>2019-10-30T08:23:00.000Z</time>
      </trkpt>
      <trkpt lat="45.34051" lon="4.62003">
        <ele>803.40002441406</ele>
        <time>2019-10-30T08:23:01.000Z</time>
      </trkpt>
      <trkpt lat="45.34052" lon="4.62005">
        <ele>803.59997558594</ele>
        <time>2019-10-30T08:23:02.000Z</time>
      </trkpt>
      <trkpt lat="45.34053" lon="4.62008">
        <ele>803.79998779297</ele>
        <time>2019-10-30T08:23:03.000Z</time>
      </trkpt>
      <trkpt lat="45.34054" lon="4.6201">
        <ele>804</ele>
        <time>2019-10-30T08:23:04.000Z</time>
      </trkpt>
      <trkpt lat="45.34055" lon="4.62012">
        <ele>804.40002441406</ele>
        <time>2019-10-30T08:23:05.000Z</time>
      </trkpt>
      <trkpt lat="45.34056" lon="4.62014">
        <ele>804.59997558594</ele>
        <time>2019-10-30T08:23:06.000Z</time>
      </trkpt>
      <trkpt lat="45.34057" lon="4.62016">
        <ele>805</ele>
        <time>2019-10-30T08:23:07.000Z</time>
      </trkpt>
      <trkpt lat="45.34058" lon="4.62017">
        <ele>805</ele>
        <time>2019-10-30T08:23:08.000Z</time>
      </trkpt>
      <trkpt lat="45.34059" lon="4.62019">
        <ele>805.20001220703</ele>
        <time>2019-10-30T08:23:09.000Z</time>
      </trkpt>
      <trkpt lat="45.3406" lon="4.6202">
        <ele>805.20001220703</ele>
        <time>2019-10-30T08:23:10.000Z</time>
      </trkpt>
      <trkpt lat="45.34061" lon="4.62022">
        <ele>805.59997558594</ele>
        <time>2019-10-30T08:23:11.000Z</time>
      </trkpt>
      <trkpt lat="45.34062" lon="4.62023">
        <ele>806</ele>
        <time>2019-10-30T08:23:12.000Z</time>
      </trkpt>
      <trkpt lat="45.34063" lon="4.62025">
        <ele>806</ele>
        <time>2019-10-30T08:23:13.000Z</time>
      </trkpt>
      <trkpt lat="45.34065" lon="4.62026">
        <ele>806.20001220703</ele>
        <time>2019-10-30T08:23:14.000Z</time>
      </trkpt>
      <trkpt lat="45.34066" lon="4.62028">
        <ele>806.20001220703</ele>
        <time>2019-10-30T08:23:15.000Z</time>
      </trkpt>
      <trkpt lat="45.34067" lon="4.62029">
        <ele>806.59997558594</ele>
        <time>2019-10-30T08:23:16.000Z</time>
      </trkpt>
      <trkpt lat="45.34068" lon="4.62031">
        <ele>806.59997558594</ele>
        <time>2019-10-30T08:23:17.000Z</time>
      </trkpt>
      <trkpt lat="45.34069" lon="4.62032">
        <ele>807</ele>
        <time>2019-10-30T08:23:18.000Z</time>
      </trkpt>
      <trkpt lat="45.3407" lon="4.62034">
        <ele>807</ele>
        <time>2019-10-30T08:23:19.000Z</time>
      </trkpt>
      <trkpt lat="45.34071" lon="4.62036">
        <ele>807</ele>
        <time>2019-10-30T08:23:20.000Z</time>
      </trkpt>
      <trkpt lat="45.34072" lon="4.62038">
        <ele>807.20001220703</ele>
        <time>2019-10-30T08:23:21.000Z</time>
      </trkpt>
      <trkpt lat="45.34073" lon="4.62039">
        <ele>807.59997558594</ele>
        <time>2019-10-30T08:23:22.000Z</time>
      </trkpt>
      <trkpt lat="45.34074" lon="4.62041">
        <ele>807.59997558594</ele>
        <time>2019-10-30T08:23:23.000Z</time>
      </trkpt>
      <trkpt lat="45.34075" lon="4.62043">
        <ele>807.59997558594</ele>
        <time>2019-10-30T08:23:24.000Z</time>
      </trkpt>
      <trkpt lat="45.34076" lon="4.62044">
        <ele>808</ele>
        <time>2019-10-30T08:23:25.000Z</time>
      </trkpt>
      <trkpt lat="45.34077" lon="4.62046">
        <ele>808.20001220703</ele>
        <time>2019-10-30T08:23:26.000Z</time>
      </trkpt>
      <trkpt lat="45.34078" lon="4.62047">
        <ele>808.40002441406</ele>
        <time>2019-10-30T08:23:27.000Z</time>
      </trkpt>
      <trkpt lat="45.34079" lon="4.62049">
        <ele>808.59997558594</ele>
        <time>2019-10-30T08:23:28.000Z</time>
      </trkpt>
      <trkpt lat="45.3408" lon="4.6205">
        <ele>808.59997558594</ele>
        <time>2019-10-30T08:23:29.000Z</time>
      </trkpt>
      <trkpt lat="45.34082" lon="4.62051">
        <ele>808.79998779297</ele>
        <time>2019-10-30T08:23:30.000Z</time>
      </trkpt>
      <trkpt lat="45.34083" lon="4.62052">
        <ele>809</ele>
        <time>2019-10-30T08:23:31.000Z</time>
      </trkpt>
      <trkpt lat="45.34084" lon="4.62054">
        <ele>808.79998779297</ele>
        <time>2019-10-30T08:23:32.000Z</time>
      </trkpt>
      <trkpt lat="45.34085" lon="4.62055">
        <ele>809.20001220703</ele>
        <time>2019-10-30T08:23:33.000Z</time>
      </trkpt>
      <trkpt lat="45.34087" lon="4.62056">
        <ele>809.40002441406</ele>
        <time>2019-10-30T08:23:34.000Z</time>
      </trkpt>
      <trkpt lat="45.34088" lon="4.62057">
        <ele>809.40002441406</ele>
        <time>2019-10-30T08:23:35.000Z</time>
      </trkpt>
      <trkpt lat="45.34089" lon="4.62058">
        <ele>809.40002441406</ele>
        <time>2019-10-30T08:23:36.000Z</time>
      </trkpt>
      <trkpt lat="45.34091" lon="4.62058">
        <ele>809.59997558594</ele>
        <time>2019-10-30T08:23:37.000Z</time>
      </trkpt>
      <trkpt lat="45.34092" lon="4.62059">
        <ele>809.59997558594</ele>
        <time>2019-10-30T08:23:38.000Z</time>
      </trkpt>
      <trkpt lat="45.34093" lon="4.6206">
        <ele>809.79998779297</ele>
        <time>2019-10-30T08:23:39.000Z</time>
      </trkpt>
      <trkpt lat="45.34094" lon="4.62061">
        <ele>810</ele>
        <time>2019-10-30T08:23:40.000Z</time>
      </trkpt>
      <trkpt lat="45.34095" lon="4.62062">
        <ele>810.40002441406</ele>
        <time>2019-10-30T08:23:41.000Z</time>
      </trkpt>
      <trkpt lat="45.34096" lon="4.62063">
        <ele>810.40002441406</ele>
        <time>2019-10-30T08:23:42.000Z</time>
      </trkpt>
      <trkpt lat="45.34097" lon="4.62064">
        <ele>810.40002441406</ele>
        <time>2019-10-30T08:23:43.000Z</time>
      </trkpt>
      <trkpt lat="45.34098" lon="4.62064">
        <ele>810.79998779297</ele>
        <time>2019-10-30T08:23:44.000Z</time>
      </trkpt>
      <trkpt lat="45.34099" lon="4.62066">
        <ele>811</ele>
        <time>2019-10-30T08:23:45.000Z</time>
      </trkpt>
      <trkpt lat="45.341" lon="4.62067">
        <ele>811.20001220703</ele>
        <time>2019-10-30T08:23:46.000Z</time>
      </trkpt>
      <trkpt lat="45.34101" lon="4.62068">
        <ele>811.40002441406</ele>
        <time>2019-10-30T08:23:47.000Z</time>
      </trkpt>
      <trkpt lat="45.34103" lon="4.62069">
        <ele>811.59997558594</ele>
        <time>2019-10-30T08:23:48.000Z</time>
      </trkpt>
      <trkpt lat="45.34104" lon="4.62069">
        <ele>811.79998779297</ele>
        <time>2019-10-30T08:23:49.000Z</time>
      </trkpt>
      <trkpt lat="45.34105" lon="4.6207">
        <ele>812</ele>
        <time>2019-10-30T08:23:50.000Z</time>
      </trkpt>
      <trkpt lat="45.34106" lon="4.62071">
        <ele>812.40002441406</ele>
        <time>2019-10-30T08:23:51.000Z</time>
      </trkpt>
      <trkpt lat="45.34107" lon="4.62072">
        <ele>812.40002441406</ele>
        <time>2019-10-30T08:23:52.000Z</time>
      </trkpt>
      <trkpt lat="45.34108" lon="4.62073">
        <ele>812.79998779297</ele>
        <time>2019-10-30T08:23:53.000Z</time>
      </trkpt>
      <trkpt lat="45.34109" lon="4.62073">
        <ele>812.79998779297</ele>
        <time>2019-10-30T08:23:54.000Z</time>
      </trkpt>
      <trkpt lat="45.3411" lon="4.62074">
        <ele>813.20001220703</ele>
        <time>2019-10-30T08:23:55.000Z</time>
      </trkpt>
      <trkpt lat="45.34111" lon="4.62075">
        <ele>813.20001220703</ele>
        <time>2019-10-30T08:23:56.000Z</time>
      </trkpt>
      <trkpt lat="45.34113" lon="4.62076">
        <ele>813.59997558594</ele>
        <time>2019-10-30T08:23:57.000Z</time>
      </trkpt>
      <trkpt lat="45.34114" lon="4.62077">
        <ele>813.59997558594</ele>
        <time>2019-10-30T08:23:58.000Z</time>
      </trkpt>
      <trkpt lat="45.34115" lon="4.62078">
        <ele>814</ele>
        <time>2019-10-30T08:23:59.000Z</time>
      </trkpt>
      <trkpt lat="45.34116" lon="4.62079">
        <ele>814.20001220703</ele>
        <time>2019-10-30T08:24:00.000Z</time>
      </trkpt>
      <trkpt lat="45.34117" lon="4.62079">
        <ele>814.59997558594</ele>
        <time>2019-10-30T08:24:01.000Z</time>
      </trkpt>
      <trkpt lat="45.34118" lon="4.6208">
        <ele>814.59997558594</ele>
        <time>2019-10-30T08:24:02.000Z</time>
      </trkpt>
      <trkpt lat="45.34119" lon="4.62081">
        <ele>814.59997558594</ele>
        <time>2019-10-30T08:24:03.000Z</time>
      </trkpt>
      <trkpt lat="45.3412" lon="4.62082">
        <ele>815</ele>
        <time>2019-10-30T08:24:04.000Z</time>
      </trkpt>
      <trkpt lat="45.3412" lon="4.62084">
        <ele>815.20001220703</ele>
        <time>2019-10-30T08:24:05.000Z</time>
      </trkpt>
      <trkpt lat="45.34121" lon="4.62085">
        <ele>815.59997558594</ele>
        <time>2019-10-30T08:24:06.000Z</time>
      </trkpt>
      <trkpt lat="45.34122" lon="4.62086">
        <ele>815.59997558594</ele>
        <time>2019-10-30T08:24:07.000Z</time>
      </trkpt>
      <trkpt lat="45.34123" lon="4.62086">
        <ele>816</ele>
        <time>2019-10-30T08:24:08.000Z</time>
      </trkpt>
      <trkpt lat="45.34124" lon="4.62087">
        <ele>816.20001220703</ele>
        <time>2019-10-30T08:24:09.000Z</time>
      </trkpt>
      <trkpt lat="45.34126" lon="4.62088">
        <ele>816.59997558594</ele>
        <time>2019-10-30T08:24:10.000Z</time>
      </trkpt>
      <trkpt lat="45.34126" lon="4.62089">
        <ele>816.79998779297</ele>
        <time>2019-10-30T08:24:11.000Z</time>
      </trkpt>
      <trkpt lat="45.34127" lon="4.62091">
        <ele>817</ele>
        <time>2019-10-30T08:24:12.000Z</time>
      </trkpt>
      <trkpt lat="45.34128" lon="4.62092">
        <ele>817.40002441406</ele>
        <time>2019-10-30T08:24:13.000Z</time>
      </trkpt>
      <trkpt lat="45.3413" lon="4.62093">
        <ele>817.59997558594</ele>
        <time>2019-10-30T08:24:14.000Z</time>
      </trkpt>
      <trkpt lat="45.34131" lon="4.62094">
        <ele>817.59997558594</ele>
        <time>2019-10-30T08:24:15.000Z</time>
      </trkpt>
      <trkpt lat="45.34132" lon="4.62094">
        <ele>817.79998779297</ele>
        <time>2019-10-30T08:24:16.000Z</time>
      </trkpt>
      <trkpt lat="45.34133" lon="4.62096">
        <ele>818</ele>
        <time>2019-10-30T08:24:17.000Z</time>
      </trkpt>
      <trkpt lat="45.34134" lon="4.62097">
        <ele>818.20001220703</ele>
        <time>2019-10-30T08:24:18.000Z</time>
      </trkpt>
      <trkpt lat="45.34135" lon="4.62099">
        <ele>818.59997558594</ele>
        <time>2019-10-30T08:24:19.000Z</time>
      </trkpt>
      <trkpt lat="45.34136" lon="4.621">
        <ele>818.59997558594</ele>
        <time>2019-10-30T08:24:20.000Z</time>
      </trkpt>
      <trkpt lat="45.34138" lon="4.621">
        <ele>818.79998779297</ele>
        <time>2019-10-30T08:24:21.000Z</time>
      </trkpt>
      <trkpt lat="45.34139" lon="4.62101">
        <ele>819.20001220703</ele>
        <time>2019-10-30T08:24:22.000Z</time>
      </trkpt>
      <trkpt lat="45.3414" lon="4.62102">
        <ele>819.20001220703</ele>
        <time>2019-10-30T08:24:23.000Z</time>
      </trkpt>
      <trkpt lat="45.34141" lon="4.62103">
        <ele>819.59997558594</ele>
        <time>2019-10-30T08:24:24.000Z</time>
      </trkpt>
      <trkpt lat="45.34142" lon="4.62104">
        <ele>819.79998779297</ele>
        <time>2019-10-30T08:24:25.000Z</time>
      </trkpt>
      <trkpt lat="45.34143" lon="4.62104">
        <ele>820.20001220703</ele>
        <time>2019-10-30T08:24:26.000Z</time>
      </trkpt>
      <trkpt lat="45.34144" lon="4.62105">
        <ele>820.40002441406</ele>
        <time>2019-10-30T08:24:27.000Z</time>
      </trkpt>
      <trkpt lat="45.34145" lon="4.62105">
        <ele>820.40002441406</ele>
        <time>2019-10-30T08:24:28.000Z</time>
      </trkpt>
      <trkpt lat="45.34146" lon="4.62106">
        <ele>820.59997558594</ele>
        <time>2019-10-30T08:24:29.000Z</time>
      </trkpt>
      <trkpt lat="45.34147" lon="4.62107">
        <ele>821</ele>
        <time>2019-10-30T08:24:30.000Z</time>
      </trkpt>
      <trkpt lat="45.34148" lon="4.62108">
        <ele>821.20001220703</ele>
        <time>2019-10-30T08:24:31.000Z</time>
      </trkpt>
      <trkpt lat="45.34149" lon="4.62109">
        <ele>821.40002441406</ele>
        <time>2019-10-30T08:24:32.000Z</time>
      </trkpt>
      <trkpt lat="45.3415" lon="4.6211">
        <ele>821.59997558594</ele>
        <time>2019-10-30T08:24:33.000Z</time>
      </trkpt>
      <trkpt lat="45.34151" lon="4.62111">
        <ele>821.59997558594</ele>
        <time>2019-10-30T08:24:34.000Z</time>
      </trkpt>
      <trkpt lat="45.34152" lon="4.62111">
        <ele>822</ele>
        <time>2019-10-30T08:24:35.000Z</time>
      </trkpt>
      <trkpt lat="45.34153" lon="4.62112">
        <ele>822.20001220703</ele>
        <time>2019-10-30T08:24:36.000Z</time>
      </trkpt>
      <trkpt lat="45.34154" lon="4.62113">
        <ele>822.40002441406</ele>
        <time>2019-10-30T08:24:37.000Z</time>
      </trkpt>
      <trkpt lat="45.34155" lon="4.62114">
        <ele>822.59997558594</ele>
        <time>2019-10-30T08:24:38.000Z</time>
      </trkpt>
      <trkpt lat="45.34156" lon="4.62116">
        <ele>822.79998779297</ele>
        <time>2019-10-30T08:24:39.000Z</time>
      </trkpt>
      <trkpt lat="45.34157" lon="4.62117">
        <ele>822.79998779297</ele>
        <time>2019-10-30T08:24:40.000Z</time>
      </trkpt>
      <trkpt lat="45.34158" lon="4.62117">
        <ele>823</ele>
        <time>2019-10-30T08:24:41.000Z</time>
      </trkpt>
      <trkpt lat="45.34159" lon="4.62118">
        <ele>823.20001220703</ele>
        <time>2019-10-30T08:24:42.000Z</time>
      </trkpt>
      <trkpt lat="45.3416" lon="4.62119">
        <ele>823.20001220703</ele>
        <time>2019-10-30T08:24:43.000Z</time>
      </trkpt>
      <trkpt lat="45.34161" lon="4.6212">
        <ele>823.40002441406</ele>
        <time>2019-10-30T08:24:44.000Z</time>
      </trkpt>
      <trkpt lat="45.34162" lon="4.62121">
        <ele>823.59997558594</ele>
        <time>2019-10-30T08:24:45.000Z</time>
      </trkpt>
      <trkpt lat="45.34163" lon="4.62121">
        <ele>823.79998779297</ele>
        <time>2019-10-30T08:24:46.000Z</time>
      </trkpt>
      <trkpt lat="45.34163" lon="4.62122">
        <ele>824</ele>
        <time>2019-10-30T08:24:47.000Z</time>
      </trkpt>
      <trkpt lat="45.34163" lon="4.62121">
        <ele>824.79998779297</ele>
        <time>2019-10-30T08:24:51.000Z</time>
      </trkpt>
      <trkpt lat="45.34164" lon="4.62122">
        <ele>826</ele>
        <time>2019-10-30T08:24:59.000Z</time>
      </trkpt>
      <trkpt lat="45.34164" lon="4.62122">
        <ele>825.79998779297</ele>
        <time>2019-10-30T08:25:00.000Z</time>
      </trkpt>
      <trkpt lat="45.34164" lon="4.62122">
        <ele>825.79998779297</ele>
        <time>2019-10-30T08:25:01.000Z</time>
      </trkpt>
      <trkpt lat="45.34164" lon="4.62122">
        <ele>826</ele>
        <time>2019-10-30T08:25:02.000Z</time>
      </trkpt>
      <trkpt lat="45.34164" lon="4.62122">
        <ele>826.40002441406</ele>
        <time>2019-10-30T08:25:23.000Z</time>
      </trkpt>
      <trkpt lat="45.34164" lon="4.62122">
        <ele>826.59997558594</ele>
        <time>2019-10-30T08:25:40.000Z</time>
      </trkpt>
      <trkpt lat="45.34164" lon="4.62122">
        <ele>826.59997558594</ele>
        <time>2019-10-30T08:25:43.000Z</time>
      </trkpt>
      <trkpt lat="45.34164" lon="4.6212">
        <ele>826.40002441406</ele>
        <time>2019-10-30T08:25:59.000Z</time>
      </trkpt>
      <trkpt lat="45.34164" lon="4.62119">
        <ele>826.40002441406</ele>
        <time>2019-10-30T08:26:00.000Z</time>
      </trkpt>
      <trkpt lat="45.34164" lon="4.62116">
        <ele>826.59997558594</ele>
        <time>2019-10-30T08:26:01.000Z</time>
      </trkpt>
      <trkpt lat="45.34165" lon="4.62114">
        <ele>826.59997558594</ele>
        <time>2019-10-30T08:26:02.000Z</time>
      </trkpt>
      <trkpt lat="45.34166" lon="4.62111">
        <ele>826.40002441406</ele>
        <time>2019-10-30T08:26:03.000Z</time>
      </trkpt>
      <trkpt lat="45.34168" lon="4.62107">
        <ele>826.59997558594</ele>
        <time>2019-10-30T08:26:05.000Z</time>
      </trkpt>
      <trkpt lat="45.34169" lon="4.62105">
        <ele>826.59997558594</ele>
        <time>2019-10-30T08:26:06.000Z</time>
      </trkpt>
      <trkpt lat="45.3417" lon="4.62103">
        <ele>826.40002441406</ele>
        <time>2019-10-30T08:26:07.000Z</time>
      </trkpt>
      <trkpt lat="45.34172" lon="4.62101">
        <ele>826.40002441406</ele>
        <time>2019-10-30T08:26:08.000Z</time>
      </trkpt>
      <trkpt lat="45.34173" lon="4.62099">
        <ele>826.40002441406</ele>
        <time>2019-10-30T08:26:09.000Z</time>
      </trkpt>
      <trkpt lat="45.34173" lon="4.62097">
        <ele>826.59997558594</ele>
        <time>2019-10-30T08:26:10.000Z</time>
      </trkpt>
      <trkpt lat="45.34174" lon="4.62095">
        <ele>826.59997558594</ele>
        <time>2019-10-30T08:26:11.000Z</time>
      </trkpt>
      <trkpt lat="45.34174" lon="4.62093">
        <ele>826.59997558594</ele>
        <time>2019-10-30T08:26:12.000Z</time>
      </trkpt>
      <trkpt lat="45.34174" lon="4.62091">
        <ele>827</ele>
        <time>2019-10-30T08:26:13.000Z</time>
      </trkpt>
      <trkpt lat="45.34174" lon="4.62088">
        <ele>827.40002441406</ele>
        <time>2019-10-30T08:26:14.000Z</time>
      </trkpt>
      <trkpt lat="45.34174" lon="4.62086">
        <ele>827.79998779297</ele>
        <time>2019-10-30T08:26:15.000Z</time>
      </trkpt>
      <trkpt lat="45.34175" lon="4.62084">
        <ele>828.20001220703</ele>
        <time>2019-10-30T08:26:16.000Z</time>
      </trkpt>
      <trkpt lat="45.34176" lon="4.62083">
        <ele>828.79998779297</ele>
        <time>2019-10-30T08:26:17.000Z</time>
      </trkpt>
      <trkpt lat="45.34178" lon="4.62082">
        <ele>829</ele>
        <time>2019-10-30T08:26:18.000Z</time>
      </trkpt>
      <trkpt lat="45.34179" lon="4.62082">
        <ele>829.40002441406</ele>
        <time>2019-10-30T08:26:19.000Z</time>
      </trkpt>
      <trkpt lat="45.3418" lon="4.62084">
        <ele>829.79998779297</ele>
        <time>2019-10-30T08:26:20.000Z</time>
      </trkpt>
      <trkpt lat="45.34181" lon="4.62086">
        <ele>830</ele>
        <time>2019-10-30T08:26:21.000Z</time>
      </trkpt>
      <trkpt lat="45.34182" lon="4.62088">
        <ele>830.40002441406</ele>
        <time>2019-10-30T08:26:22.000Z</time>
      </trkpt>
      <trkpt lat="45.34184" lon="4.62089">
        <ele>830.59997558594</ele>
        <time>2019-10-30T08:26:23.000Z</time>
      </trkpt>
      <trkpt lat="45.34186" lon="4.62091">
        <ele>831</ele>
        <time>2019-10-30T08:26:24.000Z</time>
      </trkpt>
      <trkpt lat="45.34188" lon="4.62091">
        <ele>831.40002441406</ele>
        <time>2019-10-30T08:26:25.000Z</time>
      </trkpt>
      <trkpt lat="45.34189" lon="4.62091">
        <ele>831.59997558594</ele>
        <time>2019-10-30T08:26:26.000Z</time>
      </trkpt>
      <trkpt lat="45.34191" lon="4.62091">
        <ele>831.79998779297</ele>
        <time>2019-10-30T08:26:27.000Z</time>
      </trkpt>
      <trkpt lat="45.34193" lon="4.62092">
        <ele>832</ele>
        <time>2019-10-30T08:26:28.000Z</time>
      </trkpt>
      <trkpt lat="45.34195" lon="4.62093">
        <ele>832.20001220703</ele>
        <time>2019-10-30T08:26:29.000Z</time>
      </trkpt>
      <trkpt lat="45.34196" lon="4.62094">
        <ele>832.40002441406</ele>
        <time>2019-10-30T08:26:30.000Z</time>
      </trkpt>
      <trkpt lat="45.34197" lon="4.62094">
        <ele>832.59997558594</ele>
        <time>2019-10-30T08:26:31.000Z</time>
      </trkpt>
      <trkpt lat="45.34199" lon="4.62095">
        <ele>833</ele>
        <time>2019-10-30T08:26:32.000Z</time>
      </trkpt>
      <trkpt lat="45.342" lon="4.62096">
        <ele>833</ele>
        <time>2019-10-30T08:26:33.000Z</time>
      </trkpt>
      <trkpt lat="45.34201" lon="4.62097">
        <ele>833.59997558594</ele>
        <time>2019-10-30T08:26:34.000Z</time>
      </trkpt>
      <trkpt lat="45.34202" lon="4.62099">
        <ele>834</ele>
        <time>2019-10-30T08:26:35.000Z</time>
      </trkpt>
      <trkpt lat="45.34203" lon="4.621">
        <ele>834.40002441406</ele>
        <time>2019-10-30T08:26:36.000Z</time>
      </trkpt>
      <trkpt lat="45.34205" lon="4.62102">
        <ele>834.59997558594</ele>
        <time>2019-10-30T08:26:37.000Z</time>
      </trkpt>
      <trkpt lat="45.34206" lon="4.62103">
        <ele>834.59997558594</ele>
        <time>2019-10-30T08:26:38.000Z</time>
      </trkpt>
      <trkpt lat="45.34207" lon="4.62104">
        <ele>834.79998779297</ele>
        <time>2019-10-30T08:26:39.000Z</time>
      </trkpt>
      <trkpt lat="45.34208" lon="4.62106">
        <ele>835.20001220703</ele>
        <time>2019-10-30T08:26:40.000Z</time>
      </trkpt>
      <trkpt lat="45.34209" lon="4.62107">
        <ele>835.59997558594</ele>
        <time>2019-10-30T08:26:41.000Z</time>
      </trkpt>
      <trkpt lat="45.3421" lon="4.62108">
        <ele>835.79998779297</ele>
        <time>2019-10-30T08:26:42.000Z</time>
      </trkpt>
      <trkpt lat="45.34211" lon="4.6211">
        <ele>836</ele>
        <time>2019-10-30T08:26:43.000Z</time>
      </trkpt>
      <trkpt lat="45.34212" lon="4.62112">
        <ele>836</ele>
        <time>2019-10-30T08:26:44.000Z</time>
      </trkpt>
      <trkpt lat="45.34213" lon="4.62113">
        <ele>836</ele>
        <time>2019-10-30T08:26:45.000Z</time>
      </trkpt>
      <trkpt lat="45.34213" lon="4.62115">
        <ele>836.40002441406</ele>
        <time>2019-10-30T08:26:46.000Z</time>
      </trkpt>
      <trkpt lat="45.34213" lon="4.62115">
        <ele>836.40002441406</ele>
        <time>2019-10-30T08:26:47.000Z</time>
      </trkpt>
      <trkpt lat="45.34213" lon="4.62114">
        <ele>837</ele>
        <time>2019-10-30T08:26:54.000Z</time>
      </trkpt>
      <trkpt lat="45.34213" lon="4.62114">
        <ele>837.40002441406</ele>
        <time>2019-10-30T08:27:03.000Z</time>
      </trkpt>
      <trkpt lat="45.34214" lon="4.62117">
        <ele>837.59997558594</ele>
        <time>2019-10-30T08:27:16.000Z</time>
      </trkpt>
      <trkpt lat="45.34216" lon="4.62119">
        <ele>837.79998779297</ele>
        <time>2019-10-30T08:27:17.000Z</time>
      </trkpt>
      <trkpt lat="45.34217" lon="4.62121">
        <ele>837.79998779297</ele>
        <time>2019-10-30T08:27:18.000Z</time>
      </trkpt>
      <trkpt lat="45.34219" lon="4.62124">
        <ele>837.79998779297</ele>
        <time>2019-10-30T08:27:19.000Z</time>
      </trkpt>
      <trkpt lat="45.34221" lon="4.62127">
        <ele>837.79998779297</ele>
        <time>2019-10-30T08:27:20.000Z</time>
      </trkpt>
      <trkpt lat="45.34227" lon="4.62133">
        <ele>837.59997558594</ele>
        <time>2019-10-30T08:27:23.000Z</time>
      </trkpt>
      <trkpt lat="45.34229" lon="4.62135">
        <ele>837.40002441406</ele>
        <time>2019-10-30T08:27:24.000Z</time>
      </trkpt>
      <trkpt lat="45.3423" lon="4.62137">
        <ele>837.59997558594</ele>
        <time>2019-10-30T08:27:25.000Z</time>
      </trkpt>
      <trkpt lat="45.34232" lon="4.62138">
        <ele>837.20001220703</ele>
        <time>2019-10-30T08:27:26.000Z</time>
      </trkpt>
      <trkpt lat="45.34233" lon="4.62139">
        <ele>837.20001220703</ele>
        <time>2019-10-30T08:27:27.000Z</time>
      </trkpt>
      <trkpt lat="45.34234" lon="4.6214">
        <ele>837</ele>
        <time>2019-10-30T08:27:28.000Z</time>
      </trkpt>
      <trkpt lat="45.34236" lon="4.62142">
        <ele>837</ele>
        <time>2019-10-30T08:27:29.000Z</time>
      </trkpt>
      <trkpt lat="45.34238" lon="4.62143">
        <ele>837</ele>
        <time>2019-10-30T08:27:30.000Z</time>
      </trkpt>
      <trkpt lat="45.3424" lon="4.62145">
        <ele>837</ele>
        <time>2019-10-30T08:27:31.000Z</time>
      </trkpt>
      <trkpt lat="45.34242" lon="4.62147">
        <ele>836.79998779297</ele>
        <time>2019-10-30T08:27:32.000Z</time>
      </trkpt>
      <trkpt lat="45.34244" lon="4.62149">
        <ele>837</ele>
        <time>2019-10-30T08:27:33.000Z</time>
      </trkpt>
      <trkpt lat="45.34246" lon="4.6215">
        <ele>837</ele>
        <time>2019-10-30T08:27:34.000Z</time>
      </trkpt>
      <trkpt lat="45.34248" lon="4.62152">
        <ele>836.79998779297</ele>
        <time>2019-10-30T08:27:35.000Z</time>
      </trkpt>
      <trkpt lat="45.34251" lon="4.62154">
        <ele>836.59997558594</ele>
        <time>2019-10-30T08:27:36.000Z</time>
      </trkpt>
      <trkpt lat="45.34255" lon="4.62156">
        <ele>836.59997558594</ele>
        <time>2019-10-30T08:27:37.000Z</time>
      </trkpt>
      <trkpt lat="45.34259" lon="4.62159">
        <ele>836.40002441406</ele>
        <time>2019-10-30T08:27:38.000Z</time>
      </trkpt>
      <trkpt lat="45.34267" lon="4.62164">
        <ele>836.20001220703</ele>
        <time>2019-10-30T08:27:40.000Z</time>
      </trkpt>
      <trkpt lat="45.34271" lon="4.62167">
        <ele>836.20001220703</ele>
        <time>2019-10-30T08:27:41.000Z</time>
      </trkpt>
      <trkpt lat="45.34284" lon="4.62175">
        <ele>836</ele>
        <time>2019-10-30T08:27:44.000Z</time>
      </trkpt>
      <trkpt lat="45.34294" lon="4.6218">
        <ele>835.79998779297</ele>
        <time>2019-10-30T08:27:46.000Z</time>
      </trkpt>
      <trkpt lat="45.34298" lon="4.62182">
        <ele>835.40002441406</ele>
        <time>2019-10-30T08:27:47.000Z</time>
      </trkpt>
      <trkpt lat="45.34303" lon="4.62183">
        <ele>835.20001220703</ele>
        <time>2019-10-30T08:27:48.000Z</time>
      </trkpt>
      <trkpt lat="45.34308" lon="4.62185">
        <ele>834.79998779297</ele>
        <time>2019-10-30T08:27:49.000Z</time>
      </trkpt>
      <trkpt lat="45.34313" lon="4.62186">
        <ele>834.40002441406</ele>
        <time>2019-10-30T08:27:50.000Z</time>
      </trkpt>
      <trkpt lat="45.34317" lon="4.62188">
        <ele>834.20001220703</ele>
        <time>2019-10-30T08:27:51.000Z</time>
      </trkpt>
      <trkpt lat="45.34321" lon="4.62189">
        <ele>834</ele>
        <time>2019-10-30T08:27:52.000Z</time>
      </trkpt>
      <trkpt lat="45.34324" lon="4.62189">
        <ele>833.59997558594</ele>
        <time>2019-10-30T08:27:53.000Z</time>
      </trkpt>
      <trkpt lat="45.34327" lon="4.62189">
        <ele>833.40002441406</ele>
        <time>2019-10-30T08:27:54.000Z</time>
      </trkpt>
      <trkpt lat="45.3433" lon="4.62189">
        <ele>833.20001220703</ele>
        <time>2019-10-30T08:27:55.000Z</time>
      </trkpt>
      <trkpt lat="45.34332" lon="4.6219">
        <ele>833.20001220703</ele>
        <time>2019-10-30T08:27:56.000Z</time>
      </trkpt>
      <trkpt lat="45.34334" lon="4.6219">
        <ele>833</ele>
        <time>2019-10-30T08:27:57.000Z</time>
      </trkpt>
      <trkpt lat="45.34336" lon="4.62192">
        <ele>833</ele>
        <time>2019-10-30T08:27:58.000Z</time>
      </trkpt>
      <trkpt lat="45.34339" lon="4.62193">
        <ele>833.20001220703</ele>
        <time>2019-10-30T08:27:59.000Z</time>
      </trkpt>
      <trkpt lat="45.34341" lon="4.62194">
        <ele>833.20001220703</ele>
        <time>2019-10-30T08:28:00.000Z</time>
      </trkpt>
      <trkpt lat="45.34343" lon="4.62195">
        <ele>833</ele>
        <time>2019-10-30T08:28:01.000Z</time>
      </trkpt>
      <trkpt lat="45.34345" lon="4.62196">
        <ele>833.20001220703</ele>
        <time>2019-10-30T08:28:02.000Z</time>
      </trkpt>
      <trkpt lat="45.34347" lon="4.62197">
        <ele>833</ele>
        <time>2019-10-30T08:28:03.000Z</time>
      </trkpt>
      <trkpt lat="45.34349" lon="4.62199">
        <ele>833.20001220703</ele>
        <time>2019-10-30T08:28:04.000Z</time>
      </trkpt>
      <trkpt lat="45.34351" lon="4.62201">
        <ele>833.20001220703</ele>
        <time>2019-10-30T08:28:05.000Z</time>
      </trkpt>
      <trkpt lat="45.34353" lon="4.62202">
        <ele>833.59997558594</ele>
        <time>2019-10-30T08:28:06.000Z</time>
      </trkpt>
      <trkpt lat="45.34355" lon="4.62204">
        <ele>834</ele>
        <time>2019-10-30T08:28:07.000Z</time>
      </trkpt>
      <trkpt lat="45.34358" lon="4.62205">
        <ele>834</ele>
        <time>2019-10-30T08:28:08.000Z</time>
      </trkpt>
      <trkpt lat="45.3436" lon="4.62207">
        <ele>834.20001220703</ele>
        <time>2019-10-30T08:28:09.000Z</time>
      </trkpt>
      <trkpt lat="45.34364" lon="4.62209">
        <ele>834.79998779297</ele>
        <time>2019-10-30T08:28:11.000Z</time>
      </trkpt>
      <trkpt lat="45.34366" lon="4.62211">
        <ele>835</ele>
        <time>2019-10-30T08:28:12.000Z</time>
      </trkpt>
      <trkpt lat="45.3437" lon="4.62215">
        <ele>835.20001220703</ele>
        <time>2019-10-30T08:28:14.000Z</time>
      </trkpt>
      <trkpt lat="45.34372" lon="4.62217">
        <ele>835.20001220703</ele>
        <time>2019-10-30T08:28:15.000Z</time>
      </trkpt>
      <trkpt lat="45.34375" lon="4.6222">
        <ele>835.40002441406</ele>
        <time>2019-10-30T08:28:16.000Z</time>
      </trkpt>
      <trkpt lat="45.34387" lon="4.6223">
        <ele>835.40002441406</ele>
        <time>2019-10-30T08:28:20.000Z</time>
      </trkpt>
      <trkpt lat="45.3439" lon="4.62232">
        <ele>835.40002441406</ele>
        <time>2019-10-30T08:28:21.000Z</time>
      </trkpt>
      <trkpt lat="45.34396" lon="4.62236">
        <ele>835.20001220703</ele>
        <time>2019-10-30T08:28:23.000Z</time>
      </trkpt>
      <trkpt lat="45.344" lon="4.62237">
        <ele>835.20001220703</ele>
        <time>2019-10-30T08:28:24.000Z</time>
      </trkpt>
      <trkpt lat="45.34403" lon="4.62238">
        <ele>835.40002441406</ele>
        <time>2019-10-30T08:28:25.000Z</time>
      </trkpt>
      <trkpt lat="45.34406" lon="4.62239">
        <ele>835.20001220703</ele>
        <time>2019-10-30T08:28:26.000Z</time>
      </trkpt>
      <trkpt lat="45.34409" lon="4.6224">
        <ele>835.20001220703</ele>
        <time>2019-10-30T08:28:27.000Z</time>
      </trkpt>
      <trkpt lat="45.34412" lon="4.6224">
        <ele>835</ele>
        <time>2019-10-30T08:28:28.000Z</time>
      </trkpt>
      <trkpt lat="45.34417" lon="4.6224">
        <ele>834.59997558594</ele>
        <time>2019-10-30T08:28:30.000Z</time>
      </trkpt>
      <trkpt lat="45.34419" lon="4.6224">
        <ele>834.79998779297</ele>
        <time>2019-10-30T08:28:31.000Z</time>
      </trkpt>
      <trkpt lat="45.34422" lon="4.6224">
        <ele>834.59997558594</ele>
        <time>2019-10-30T08:28:32.000Z</time>
      </trkpt>
      <trkpt lat="45.34425" lon="4.6224">
        <ele>834.79998779297</ele>
        <time>2019-10-30T08:28:33.000Z</time>
      </trkpt>
      <trkpt lat="45.34427" lon="4.6224">
        <ele>834.59997558594</ele>
        <time>2019-10-30T08:28:34.000Z</time>
      </trkpt>
      <trkpt lat="45.34434" lon="4.62239">
        <ele>834.59997558594</ele>
        <time>2019-10-30T08:28:36.000Z</time>
      </trkpt>
      <trkpt lat="45.34437" lon="4.62238">
        <ele>834.59997558594</ele>
        <time>2019-10-30T08:28:37.000Z</time>
      </trkpt>
      <trkpt lat="45.3444" lon="4.62238">
        <ele>834.59997558594</ele>
        <time>2019-10-30T08:28:38.000Z</time>
      </trkpt>
      <trkpt lat="45.34446" lon="4.62237">
        <ele>834.59997558594</ele>
        <time>2019-10-30T08:28:40.000Z</time>
      </trkpt>
      <trkpt lat="45.34449" lon="4.62237">
        <ele>834.59997558594</ele>
        <time>2019-10-30T08:28:41.000Z</time>
      </trkpt>
      <trkpt lat="45.34452" lon="4.62236">
        <ele>834.59997558594</ele>
        <time>2019-10-30T08:28:42.000Z</time>
      </trkpt>
      <trkpt lat="45.34456" lon="4.62235">
        <ele>834.59997558594</ele>
        <time>2019-10-30T08:28:43.000Z</time>
      </trkpt>
      <trkpt lat="45.34463" lon="4.62235">
        <ele>834.79998779297</ele>
        <time>2019-10-30T08:28:45.000Z</time>
      </trkpt>
      <trkpt lat="45.34466" lon="4.62235">
        <ele>834.79998779297</ele>
        <time>2019-10-30T08:28:46.000Z</time>
      </trkpt>
      <trkpt lat="45.34469" lon="4.62235">
        <ele>834.79998779297</ele>
        <time>2019-10-30T08:28:47.000Z</time>
      </trkpt>
      <trkpt lat="45.34472" lon="4.62234">
        <ele>834.79998779297</ele>
        <time>2019-10-30T08:28:48.000Z</time>
      </trkpt>
      <trkpt lat="45.34475" lon="4.62234">
        <ele>835</ele>
        <time>2019-10-30T08:28:49.000Z</time>
      </trkpt>
      <trkpt lat="45.34478" lon="4.62235">
        <ele>835</ele>
        <time>2019-10-30T08:28:50.000Z</time>
      </trkpt>
      <trkpt lat="45.3448" lon="4.62236">
        <ele>835</ele>
        <time>2019-10-30T08:28:51.000Z</time>
      </trkpt>
      <trkpt lat="45.34483" lon="4.62237">
        <ele>835.20001220703</ele>
        <time>2019-10-30T08:28:52.000Z</time>
      </trkpt>
      <trkpt lat="45.34486" lon="4.62239">
        <ele>835.20001220703</ele>
        <time>2019-10-30T08:28:53.000Z</time>
      </trkpt>
      <trkpt lat="45.34493" lon="4.6224">
        <ele>835.40002441406</ele>
        <time>2019-10-30T08:28:55.000Z</time>
      </trkpt>
      <trkpt lat="45.34499" lon="4.62241">
        <ele>835.59997558594</ele>
        <time>2019-10-30T08:28:57.000Z</time>
      </trkpt>
      <trkpt lat="45.34502" lon="4.62242">
        <ele>835.59997558594</ele>
        <time>2019-10-30T08:28:58.000Z</time>
      </trkpt>
      <trkpt lat="45.34505" lon="4.62242">
        <ele>835.59997558594</ele>
        <time>2019-10-30T08:28:59.000Z</time>
      </trkpt>
      <trkpt lat="45.34508" lon="4.62242">
        <ele>835.79998779297</ele>
        <time>2019-10-30T08:29:00.000Z</time>
      </trkpt>
      <trkpt lat="45.3451" lon="4.62242">
        <ele>835.79998779297</ele>
        <time>2019-10-30T08:29:01.000Z</time>
      </trkpt>
      <trkpt lat="45.34514" lon="4.62242">
        <ele>835.79998779297</ele>
        <time>2019-10-30T08:29:02.000Z</time>
      </trkpt>
      <trkpt lat="45.34519" lon="4.62243">
        <ele>835.79998779297</ele>
        <time>2019-10-30T08:29:04.000Z</time>
      </trkpt>
      <trkpt lat="45.34521" lon="4.62243">
        <ele>835.79998779297</ele>
        <time>2019-10-30T08:29:05.000Z</time>
      </trkpt>
      <trkpt lat="45.34523" lon="4.62243">
        <ele>836</ele>
        <time>2019-10-30T08:29:06.000Z</time>
      </trkpt>
      <trkpt lat="45.34525" lon="4.62243">
        <ele>836</ele>
        <time>2019-10-30T08:29:07.000Z</time>
      </trkpt>
      <trkpt lat="45.34527" lon="4.62243">
        <ele>836</ele>
        <time>2019-10-30T08:29:08.000Z</time>
      </trkpt>
      <trkpt lat="45.34533" lon="4.62244">
        <ele>836.20001220703</ele>
        <time>2019-10-30T08:29:11.000Z</time>
      </trkpt>
      <trkpt lat="45.34536" lon="4.62244">
        <ele>836</ele>
        <time>2019-10-30T08:29:12.000Z</time>
      </trkpt>
      <trkpt lat="45.34538" lon="4.62244">
        <ele>836.20001220703</ele>
        <time>2019-10-30T08:29:13.000Z</time>
      </trkpt>
      <trkpt lat="45.34547" lon="4.62244">
        <ele>836</ele>
        <time>2019-10-30T08:29:16.000Z</time>
      </trkpt>
      <trkpt lat="45.34552" lon="4.62244">
        <ele>836</ele>
        <time>2019-10-30T08:29:18.000Z</time>
      </trkpt>
      <trkpt lat="45.34554" lon="4.62245">
        <ele>836</ele>
        <time>2019-10-30T08:29:19.000Z</time>
      </trkpt>
      <trkpt lat="45.34556" lon="4.62245">
        <ele>836</ele>
        <time>2019-10-30T08:29:20.000Z</time>
      </trkpt>
      <trkpt lat="45.34559" lon="4.62245">
        <ele>836</ele>
        <time>2019-10-30T08:29:21.000Z</time>
      </trkpt>
      <trkpt lat="45.34563" lon="4.62245">
        <ele>836.20001220703</ele>
        <time>2019-10-30T08:29:23.000Z</time>
      </trkpt>
      <trkpt lat="45.34566" lon="4.62245">
        <ele>836.20001220703</ele>
        <time>2019-10-30T08:29:24.000Z</time>
      </trkpt>
      <trkpt lat="45.34571" lon="4.62246">
        <ele>836.20001220703</ele>
        <time>2019-10-30T08:29:26.000Z</time>
      </trkpt>
      <trkpt lat="45.34574" lon="4.62246">
        <ele>836.20001220703</ele>
        <time>2019-10-30T08:29:27.000Z</time>
      </trkpt>
      <trkpt lat="45.34576" lon="4.62246">
        <ele>836</ele>
        <time>2019-10-30T08:29:28.000Z</time>
      </trkpt>
      <trkpt lat="45.34578" lon="4.62247">
        <ele>836.40002441406</ele>
        <time>2019-10-30T08:29:29.000Z</time>
      </trkpt>
      <trkpt lat="45.34581" lon="4.62247">
        <ele>836.40002441406</ele>
        <time>2019-10-30T08:29:30.000Z</time>
      </trkpt>
      <trkpt lat="45.34583" lon="4.62248">
        <ele>836.40002441406</ele>
        <time>2019-10-30T08:29:31.000Z</time>
      </trkpt>
      <trkpt lat="45.34586" lon="4.62249">
        <ele>836.40002441406</ele>
        <time>2019-10-30T08:29:32.000Z</time>
      </trkpt>
      <trkpt lat="45.34589" lon="4.62249">
        <ele>836.40002441406</ele>
        <time>2019-10-30T08:29:33.000Z</time>
      </trkpt>
      <trkpt lat="45.34591" lon="4.6225">
        <ele>836.40002441406</ele>
        <time>2019-10-30T08:29:34.000Z</time>
      </trkpt>
      <trkpt lat="45.34594" lon="4.62251">
        <ele>836.59997558594</ele>
        <time>2019-10-30T08:29:35.000Z</time>
      </trkpt>
      <trkpt lat="45.34597" lon="4.62251">
        <ele>836.79998779297</ele>
        <time>2019-10-30T08:29:36.000Z</time>
      </trkpt>
      <trkpt lat="45.346" lon="4.62252">
        <ele>836.79998779297</ele>
        <time>2019-10-30T08:29:37.000Z</time>
      </trkpt>
      <trkpt lat="45.34603" lon="4.62252">
        <ele>837.20001220703</ele>
        <time>2019-10-30T08:29:38.000Z</time>
      </trkpt>
      <trkpt lat="45.34606" lon="4.62252">
        <ele>837.40002441406</ele>
        <time>2019-10-30T08:29:39.000Z</time>
      </trkpt>
      <trkpt lat="45.34609" lon="4.62252">
        <ele>837.40002441406</ele>
        <time>2019-10-30T08:29:40.000Z</time>
      </trkpt>
      <trkpt lat="45.34612" lon="4.62251">
        <ele>837.40002441406</ele>
        <time>2019-10-30T08:29:41.000Z</time>
      </trkpt>
      <trkpt lat="45.34615" lon="4.6225">
        <ele>837.59997558594</ele>
        <time>2019-10-30T08:29:42.000Z</time>
      </trkpt>
      <trkpt lat="45.34618" lon="4.62249">
        <ele>837.59997558594</ele>
        <time>2019-10-30T08:29:43.000Z</time>
      </trkpt>
      <trkpt lat="45.3462" lon="4.62248">
        <ele>837.79998779297</ele>
        <time>2019-10-30T08:29:44.000Z</time>
      </trkpt>
      <trkpt lat="45.34623" lon="4.62246">
        <ele>838</ele>
        <time>2019-10-30T08:29:45.000Z</time>
      </trkpt>
      <trkpt lat="45.34627" lon="4.62245">
        <ele>838</ele>
        <time>2019-10-30T08:29:46.000Z</time>
      </trkpt>
      <trkpt lat="45.34634" lon="4.62242">
        <ele>838</ele>
        <time>2019-10-30T08:29:48.000Z</time>
      </trkpt>
      <trkpt lat="45.34641" lon="4.62241">
        <ele>838</ele>
        <time>2019-10-30T08:29:50.000Z</time>
      </trkpt>
      <trkpt lat="45.34643" lon="4.62242">
        <ele>838</ele>
        <time>2019-10-30T08:29:51.000Z</time>
      </trkpt>
      <trkpt lat="45.34646" lon="4.62243">
        <ele>838.20001220703</ele>
        <time>2019-10-30T08:29:52.000Z</time>
      </trkpt>
      <trkpt lat="45.34648" lon="4.62244">
        <ele>838.20001220703</ele>
        <time>2019-10-30T08:29:53.000Z</time>
      </trkpt>
      <trkpt lat="45.3465" lon="4.62247">
        <ele>838.20001220703</ele>
        <time>2019-10-30T08:29:54.000Z</time>
      </trkpt>
      <trkpt lat="45.34653" lon="4.6225">
        <ele>838.20001220703</ele>
        <time>2019-10-30T08:29:55.000Z</time>
      </trkpt>
      <trkpt lat="45.34657" lon="4.62252">
        <ele>838.20001220703</ele>
        <time>2019-10-30T08:29:56.000Z</time>
      </trkpt>
      <trkpt lat="45.34664" lon="4.62258">
        <ele>838</ele>
        <time>2019-10-30T08:29:58.000Z</time>
      </trkpt>
      <trkpt lat="45.34667" lon="4.6226">
        <ele>838.20001220703</ele>
        <time>2019-10-30T08:29:59.000Z</time>
      </trkpt>
      <trkpt lat="45.34669" lon="4.62261">
        <ele>838.20001220703</ele>
        <time>2019-10-30T08:30:00.000Z</time>
      </trkpt>
      <trkpt lat="45.34672" lon="4.62263">
        <ele>838</ele>
        <time>2019-10-30T08:30:01.000Z</time>
      </trkpt>
      <trkpt lat="45.34675" lon="4.62264">
        <ele>838.20001220703</ele>
        <time>2019-10-30T08:30:02.000Z</time>
      </trkpt>
      <trkpt lat="45.34677" lon="4.62266">
        <ele>838.20001220703</ele>
        <time>2019-10-30T08:30:03.000Z</time>
      </trkpt>
      <trkpt lat="45.34679" lon="4.62267">
        <ele>838</ele>
        <time>2019-10-30T08:30:04.000Z</time>
      </trkpt>
      <trkpt lat="45.34681" lon="4.62269">
        <ele>838.20001220703</ele>
        <time>2019-10-30T08:30:05.000Z</time>
      </trkpt>
      <trkpt lat="45.34683" lon="4.62272">
        <ele>838.20001220703</ele>
        <time>2019-10-30T08:30:06.000Z</time>
      </trkpt>
      <trkpt lat="45.34686" lon="4.62274">
        <ele>838.20001220703</ele>
        <time>2019-10-30T08:30:07.000Z</time>
      </trkpt>
      <trkpt lat="45.34692" lon="4.62276">
        <ele>838</ele>
        <time>2019-10-30T08:30:09.000Z</time>
      </trkpt>
      <trkpt lat="45.34695" lon="4.62276">
        <ele>838.20001220703</ele>
        <time>2019-10-30T08:30:10.000Z</time>
      </trkpt>
      <trkpt lat="45.34698" lon="4.62277">
        <ele>838</ele>
        <time>2019-10-30T08:30:11.000Z</time>
      </trkpt>
      <trkpt lat="45.34701" lon="4.62277">
        <ele>838.20001220703</ele>
        <time>2019-10-30T08:30:12.000Z</time>
      </trkpt>
      <trkpt lat="45.34704" lon="4.62277">
        <ele>838.20001220703</ele>
        <time>2019-10-30T08:30:13.000Z</time>
      </trkpt>
      <trkpt lat="45.34707" lon="4.62276">
        <ele>838</ele>
        <time>2019-10-30T08:30:14.000Z</time>
      </trkpt>
      <trkpt lat="45.34713" lon="4.62276">
        <ele>838.20001220703</ele>
        <time>2019-10-30T08:30:16.000Z</time>
      </trkpt>
      <trkpt lat="45.34715" lon="4.62276">
        <ele>838.20001220703</ele>
        <time>2019-10-30T08:30:17.000Z</time>
      </trkpt>
      <trkpt lat="45.34718" lon="4.62276">
        <ele>838.20001220703</ele>
        <time>2019-10-30T08:30:18.000Z</time>
      </trkpt>
      <trkpt lat="45.3472" lon="4.62277">
        <ele>838.40002441406</ele>
        <time>2019-10-30T08:30:19.000Z</time>
      </trkpt>
      <trkpt lat="45.34723" lon="4.62279">
        <ele>838.40002441406</ele>
        <time>2019-10-30T08:30:20.000Z</time>
      </trkpt>
      <trkpt lat="45.34725" lon="4.6228">
        <ele>838.20001220703</ele>
        <time>2019-10-30T08:30:21.000Z</time>
      </trkpt>
      <trkpt lat="45.3473" lon="4.62284">
        <ele>838.20001220703</ele>
        <time>2019-10-30T08:30:23.000Z</time>
      </trkpt>
      <trkpt lat="45.34733" lon="4.6229">
        <ele>838.20001220703</ele>
        <time>2019-10-30T08:30:25.000Z</time>
      </trkpt>
      <trkpt lat="45.34735" lon="4.62293">
        <ele>838.20001220703</ele>
        <time>2019-10-30T08:30:26.000Z</time>
      </trkpt>
      <trkpt lat="45.34737" lon="4.62296">
        <ele>838.20001220703</ele>
        <time>2019-10-30T08:30:27.000Z</time>
      </trkpt>
      <trkpt lat="45.34738" lon="4.62299">
        <ele>838.40002441406</ele>
        <time>2019-10-30T08:30:28.000Z</time>
      </trkpt>
      <trkpt lat="45.3474" lon="4.62302">
        <ele>838.40002441406</ele>
        <time>2019-10-30T08:30:29.000Z</time>
      </trkpt>
      <trkpt lat="45.34742" lon="4.62309">
        <ele>838.20001220703</ele>
        <time>2019-10-30T08:30:31.000Z</time>
      </trkpt>
      <trkpt lat="45.34743" lon="4.62313">
        <ele>838.20001220703</ele>
        <time>2019-10-30T08:30:32.000Z</time>
      </trkpt>
      <trkpt lat="45.34744" lon="4.62316">
        <ele>838.40002441406</ele>
        <time>2019-10-30T08:30:33.000Z</time>
      </trkpt>
      <trkpt lat="45.34744" lon="4.62321">
        <ele>838.20001220703</ele>
        <time>2019-10-30T08:30:34.000Z</time>
      </trkpt>
      <trkpt lat="45.34745" lon="4.6233">
        <ele>838.20001220703</ele>
        <time>2019-10-30T08:30:36.000Z</time>
      </trkpt>
      <trkpt lat="45.34745" lon="4.62335">
        <ele>838.20001220703</ele>
        <time>2019-10-30T08:30:37.000Z</time>
      </trkpt>
      <trkpt lat="45.34746" lon="4.6234">
        <ele>838.20001220703</ele>
        <time>2019-10-30T08:30:38.000Z</time>
      </trkpt>
      <trkpt lat="45.34746" lon="4.62345">
        <ele>838.20001220703</ele>
        <time>2019-10-30T08:30:39.000Z</time>
      </trkpt>
      <trkpt lat="45.34745" lon="4.6235">
        <ele>838.20001220703</ele>
        <time>2019-10-30T08:30:40.000Z</time>
      </trkpt>
      <trkpt lat="45.34744" lon="4.62355">
        <ele>838</ele>
        <time>2019-10-30T08:30:41.000Z</time>
      </trkpt>
      <trkpt lat="45.34744" lon="4.6236">
        <ele>838</ele>
        <time>2019-10-30T08:30:42.000Z</time>
      </trkpt>
      <trkpt lat="45.34744" lon="4.62365">
        <ele>837.79998779297</ele>
        <time>2019-10-30T08:30:43.000Z</time>
      </trkpt>
      <trkpt lat="45.34744" lon="4.6237">
        <ele>837.79998779297</ele>
        <time>2019-10-30T08:30:44.000Z</time>
      </trkpt>
      <trkpt lat="45.34744" lon="4.62374">
        <ele>837.79998779297</ele>
        <time>2019-10-30T08:30:45.000Z</time>
      </trkpt>
      <trkpt lat="45.34744" lon="4.62378">
        <ele>837.59997558594</ele>
        <time>2019-10-30T08:30:46.000Z</time>
      </trkpt>
      <trkpt lat="45.34744" lon="4.62382">
        <ele>837.40002441406</ele>
        <time>2019-10-30T08:30:47.000Z</time>
      </trkpt>
      <trkpt lat="45.34745" lon="4.62385">
        <ele>837.40002441406</ele>
        <time>2019-10-30T08:30:48.000Z</time>
      </trkpt>
      <trkpt lat="45.34745" lon="4.62389">
        <ele>837.20001220703</ele>
        <time>2019-10-30T08:30:49.000Z</time>
      </trkpt>
      <trkpt lat="45.34745" lon="4.62393">
        <ele>836.79998779297</ele>
        <time>2019-10-30T08:30:50.000Z</time>
      </trkpt>
      <trkpt lat="45.34746" lon="4.62397">
        <ele>837</ele>
        <time>2019-10-30T08:30:51.000Z</time>
      </trkpt>
      <trkpt lat="45.34746" lon="4.62408">
        <ele>836.79998779297</ele>
        <time>2019-10-30T08:30:53.000Z</time>
      </trkpt>
      <trkpt lat="45.34747" lon="4.62429">
        <ele>836.40002441406</ele>
        <time>2019-10-30T08:30:57.000Z</time>
      </trkpt>
      <trkpt lat="45.34747" lon="4.62433">
        <ele>836.40002441406</ele>
        <time>2019-10-30T08:30:58.000Z</time>
      </trkpt>
      <trkpt lat="45.34747" lon="4.62437">
        <ele>836.59997558594</ele>
        <time>2019-10-30T08:30:59.000Z</time>
      </trkpt>
      <trkpt lat="45.34747" lon="4.6244">
        <ele>836.59997558594</ele>
        <time>2019-10-30T08:31:00.000Z</time>
      </trkpt>
      <trkpt lat="45.34747" lon="4.62443">
        <ele>836.59997558594</ele>
        <time>2019-10-30T08:31:01.000Z</time>
      </trkpt>
      <trkpt lat="45.34747" lon="4.62445">
        <ele>836.59997558594</ele>
        <time>2019-10-30T08:31:02.000Z</time>
      </trkpt>
      <trkpt lat="45.34747" lon="4.62446">
        <ele>836.79998779297</ele>
        <time>2019-10-30T08:31:03.000Z</time>
      </trkpt>
      <trkpt lat="45.34747" lon="4.62447">
        <ele>836.79998779297</ele>
        <time>2019-10-30T08:31:04.000Z</time>
      </trkpt>
      <trkpt lat="45.34747" lon="4.62447">
        <ele>836.59997558594</ele>
        <time>2019-10-30T08:31:05.000Z</time>
      </trkpt>
      <trkpt lat="45.34747" lon="4.62447">
        <ele>838</ele>
        <time>2019-10-30T08:31:19.000Z</time>
      </trkpt>
      <trkpt lat="45.34747" lon="4.6245">
        <ele>838</ele>
        <time>2019-10-30T08:31:26.000Z</time>
      </trkpt>
      <trkpt lat="45.34747" lon="4.62455">
        <ele>837.79998779297</ele>
        <time>2019-10-30T08:31:28.000Z</time>
      </trkpt>
      <trkpt lat="45.34747" lon="4.62459">
        <ele>837.79998779297</ele>
        <time>2019-10-30T08:31:29.000Z</time>
      </trkpt>
      <trkpt lat="45.34746" lon="4.62463">
        <ele>837.79998779297</ele>
        <time>2019-10-30T08:31:30.000Z</time>
      </trkpt>
      <trkpt lat="45.34742" lon="4.62481">
        <ele>837.79998779297</ele>
        <time>2019-10-30T08:31:34.000Z</time>
      </trkpt>
      <trkpt lat="45.34741" lon="4.62491">
        <ele>837.59997558594</ele>
        <time>2019-10-30T08:31:36.000Z</time>
      </trkpt>
      <trkpt lat="45.3474" lon="4.62495">
        <ele>837.40002441406</ele>
        <time>2019-10-30T08:31:37.000Z</time>
      </trkpt>
      <trkpt lat="45.34737" lon="4.6251">
        <ele>836.79998779297</ele>
        <time>2019-10-30T08:31:40.000Z</time>
      </trkpt>
      <trkpt lat="45.34736" lon="4.62514">
        <ele>836.79998779297</ele>
        <time>2019-10-30T08:31:41.000Z</time>
      </trkpt>
      <trkpt lat="45.34735" lon="4.62519">
        <ele>836.59997558594</ele>
        <time>2019-10-30T08:31:42.000Z</time>
      </trkpt>
      <trkpt lat="45.34735" lon="4.62524">
        <ele>836.40002441406</ele>
        <time>2019-10-30T08:31:43.000Z</time>
      </trkpt>
      <trkpt lat="45.34734" lon="4.62528">
        <ele>836.20001220703</ele>
        <time>2019-10-30T08:31:44.000Z</time>
      </trkpt>
      <trkpt lat="45.34733" lon="4.62533">
        <ele>836.20001220703</ele>
        <time>2019-10-30T08:31:45.000Z</time>
      </trkpt>
      <trkpt lat="45.34728" lon="4.62558">
        <ele>836</ele>
        <time>2019-10-30T08:31:50.000Z</time>
      </trkpt>
      <trkpt lat="45.34724" lon="4.6258">
        <ele>835.79998779297</ele>
        <time>2019-10-30T08:31:54.000Z</time>
      </trkpt>
      <trkpt lat="45.34723" lon="4.62585">
        <ele>835.79998779297</ele>
        <time>2019-10-30T08:31:55.000Z</time>
      </trkpt>
      <trkpt lat="45.34722" lon="4.62591">
        <ele>835.79998779297</ele>
        <time>2019-10-30T08:31:56.000Z</time>
      </trkpt>
      <trkpt lat="45.3472" lon="4.62596">
        <ele>835.59997558594</ele>
        <time>2019-10-30T08:31:57.000Z</time>
      </trkpt>
      <trkpt lat="45.3472" lon="4.62601">
        <ele>835.59997558594</ele>
        <time>2019-10-30T08:31:58.000Z</time>
      </trkpt>
      <trkpt lat="45.34719" lon="4.62607">
        <ele>835.59997558594</ele>
        <time>2019-10-30T08:31:59.000Z</time>
      </trkpt>
      <trkpt lat="45.34719" lon="4.62613">
        <ele>835.59997558594</ele>
        <time>2019-10-30T08:32:00.000Z</time>
      </trkpt>
      <trkpt lat="45.34719" lon="4.62619">
        <ele>835.59997558594</ele>
        <time>2019-10-30T08:32:01.000Z</time>
      </trkpt>
      <trkpt lat="45.3472" lon="4.62624">
        <ele>835.59997558594</ele>
        <time>2019-10-30T08:32:02.000Z</time>
      </trkpt>
      <trkpt lat="45.34721" lon="4.62629">
        <ele>835.59997558594</ele>
        <time>2019-10-30T08:32:03.000Z</time>
      </trkpt>
      <trkpt lat="45.34722" lon="4.62633">
        <ele>835.40002441406</ele>
        <time>2019-10-30T08:32:04.000Z</time>
      </trkpt>
      <trkpt lat="45.34723" lon="4.62635">
        <ele>835.59997558594</ele>
        <time>2019-10-30T08:32:05.000Z</time>
      </trkpt>
      <trkpt lat="45.34725" lon="4.62637">
        <ele>835.40002441406</ele>
        <time>2019-10-30T08:32:06.000Z</time>
      </trkpt>
      <trkpt lat="45.34726" lon="4.62639">
        <ele>835.40002441406</ele>
        <time>2019-10-30T08:32:07.000Z</time>
      </trkpt>
      <trkpt lat="45.34728" lon="4.6264">
        <ele>835.59997558594</ele>
        <time>2019-10-30T08:32:08.000Z</time>
      </trkpt>
      <trkpt lat="45.34729" lon="4.62641">
        <ele>835.40002441406</ele>
        <time>2019-10-30T08:32:09.000Z</time>
      </trkpt>
      <trkpt lat="45.34731" lon="4.62642">
        <ele>835.59997558594</ele>
        <time>2019-10-30T08:32:10.000Z</time>
      </trkpt>
      <trkpt lat="45.34733" lon="4.62643">
        <ele>835.59997558594</ele>
        <time>2019-10-30T08:32:11.000Z</time>
      </trkpt>
      <trkpt lat="45.34734" lon="4.62644">
        <ele>835.59997558594</ele>
        <time>2019-10-30T08:32:12.000Z</time>
      </trkpt>
      <trkpt lat="45.34736" lon="4.62645">
        <ele>835.79998779297</ele>
        <time>2019-10-30T08:32:13.000Z</time>
      </trkpt>
      <trkpt lat="45.34737" lon="4.62646">
        <ele>836.40002441406</ele>
        <time>2019-10-30T08:32:14.000Z</time>
      </trkpt>
      <trkpt lat="45.34738" lon="4.62646">
        <ele>836.40002441406</ele>
        <time>2019-10-30T08:32:15.000Z</time>
      </trkpt>
      <trkpt lat="45.3474" lon="4.62648">
        <ele>836.79998779297</ele>
        <time>2019-10-30T08:32:16.000Z</time>
      </trkpt>
      <trkpt lat="45.34741" lon="4.62649">
        <ele>837</ele>
        <time>2019-10-30T08:32:17.000Z</time>
      </trkpt>
      <trkpt lat="45.34741" lon="4.6265">
        <ele>837.40002441406</ele>
        <time>2019-10-30T08:32:18.000Z</time>
      </trkpt>
      <trkpt lat="45.34742" lon="4.62651">
        <ele>837.79998779297</ele>
        <time>2019-10-30T08:32:19.000Z</time>
      </trkpt>
      <trkpt lat="45.34742" lon="4.62653">
        <ele>838.20001220703</ele>
        <time>2019-10-30T08:32:20.000Z</time>
      </trkpt>
      <trkpt lat="45.34742" lon="4.62655">
        <ele>838.59997558594</ele>
        <time>2019-10-30T08:32:21.000Z</time>
      </trkpt>
      <trkpt lat="45.34743" lon="4.62656">
        <ele>839.20001220703</ele>
        <time>2019-10-30T08:32:22.000Z</time>
      </trkpt>
      <trkpt lat="45.34744" lon="4.62658">
        <ele>839.20001220703</ele>
        <time>2019-10-30T08:32:23.000Z</time>
      </trkpt>
      <trkpt lat="45.34745" lon="4.62659">
        <ele>839.40002441406</ele>
        <time>2019-10-30T08:32:24.000Z</time>
      </trkpt>
      <trkpt lat="45.34746" lon="4.6266">
        <ele>839.59997558594</ele>
        <time>2019-10-30T08:32:25.000Z</time>
      </trkpt>
      <trkpt lat="45.34747" lon="4.62661">
        <ele>839.79998779297</ele>
        <time>2019-10-30T08:32:26.000Z</time>
      </trkpt>
      <trkpt lat="45.34748" lon="4.62663">
        <ele>840</ele>
        <time>2019-10-30T08:32:27.000Z</time>
      </trkpt>
      <trkpt lat="45.34749" lon="4.62664">
        <ele>840</ele>
        <time>2019-10-30T08:32:28.000Z</time>
      </trkpt>
      <trkpt lat="45.34749" lon="4.62666">
        <ele>840.20001220703</ele>
        <time>2019-10-30T08:32:29.000Z</time>
      </trkpt>
      <trkpt lat="45.34749" lon="4.62668">
        <ele>840.40002441406</ele>
        <time>2019-10-30T08:32:30.000Z</time>
      </trkpt>
      <trkpt lat="45.3475" lon="4.6267">
        <ele>840.59997558594</ele>
        <time>2019-10-30T08:32:31.000Z</time>
      </trkpt>
      <trkpt lat="45.3475" lon="4.62672">
        <ele>840.79998779297</ele>
        <time>2019-10-30T08:32:32.000Z</time>
      </trkpt>
      <trkpt lat="45.3475" lon="4.62674">
        <ele>841</ele>
        <time>2019-10-30T08:32:33.000Z</time>
      </trkpt>
      <trkpt lat="45.34751" lon="4.62676">
        <ele>841.20001220703</ele>
        <time>2019-10-30T08:32:34.000Z</time>
      </trkpt>
      <trkpt lat="45.34751" lon="4.62679">
        <ele>841.20001220703</ele>
        <time>2019-10-30T08:32:35.000Z</time>
      </trkpt>
      <trkpt lat="45.34752" lon="4.62681">
        <ele>841.59997558594</ele>
        <time>2019-10-30T08:32:36.000Z</time>
      </trkpt>
      <trkpt lat="45.34752" lon="4.62683">
        <ele>841.79998779297</ele>
        <time>2019-10-30T08:32:37.000Z</time>
      </trkpt>
      <trkpt lat="45.34752" lon="4.62685">
        <ele>842</ele>
        <time>2019-10-30T08:32:38.000Z</time>
      </trkpt>
      <trkpt lat="45.34753" lon="4.62688">
        <ele>842.20001220703</ele>
        <time>2019-10-30T08:32:39.000Z</time>
      </trkpt>
      <trkpt lat="45.34754" lon="4.6269">
        <ele>842.40002441406</ele>
        <time>2019-10-30T08:32:40.000Z</time>
      </trkpt>
      <trkpt lat="45.34755" lon="4.62692">
        <ele>842.40002441406</ele>
        <time>2019-10-30T08:32:41.000Z</time>
      </trkpt>
      <trkpt lat="45.34756" lon="4.62694">
        <ele>842.59997558594</ele>
        <time>2019-10-30T08:32:42.000Z</time>
      </trkpt>
      <trkpt lat="45.34757" lon="4.62695">
        <ele>842.59997558594</ele>
        <time>2019-10-30T08:32:43.000Z</time>
      </trkpt>
      <trkpt lat="45.34758" lon="4.62697">
        <ele>842.59997558594</ele>
        <time>2019-10-30T08:32:44.000Z</time>
      </trkpt>
      <trkpt lat="45.34759" lon="4.62699">
        <ele>842.79998779297</ele>
        <time>2019-10-30T08:32:45.000Z</time>
      </trkpt>
      <trkpt lat="45.34759" lon="4.627">
        <ele>843</ele>
        <time>2019-10-30T08:32:46.000Z</time>
      </trkpt>
      <trkpt lat="45.3476" lon="4.62702">
        <ele>843</ele>
        <time>2019-10-30T08:32:47.000Z</time>
      </trkpt>
      <trkpt lat="45.34761" lon="4.62703">
        <ele>843</ele>
        <time>2019-10-30T08:32:48.000Z</time>
      </trkpt>
      <trkpt lat="45.34762" lon="4.62705">
        <ele>843.20001220703</ele>
        <time>2019-10-30T08:32:49.000Z</time>
      </trkpt>
      <trkpt lat="45.34763" lon="4.62706">
        <ele>843.40002441406</ele>
        <time>2019-10-30T08:32:50.000Z</time>
      </trkpt>
      <trkpt lat="45.34764" lon="4.62707">
        <ele>843.40002441406</ele>
        <time>2019-10-30T08:32:51.000Z</time>
      </trkpt>
      <trkpt lat="45.34765" lon="4.62709">
        <ele>843.40002441406</ele>
        <time>2019-10-30T08:32:52.000Z</time>
      </trkpt>
      <trkpt lat="45.34766" lon="4.62711">
        <ele>843.59997558594</ele>
        <time>2019-10-30T08:32:53.000Z</time>
      </trkpt>
      <trkpt lat="45.34766" lon="4.62712">
        <ele>843.79998779297</ele>
        <time>2019-10-30T08:32:54.000Z</time>
      </trkpt>
      <trkpt lat="45.34767" lon="4.62713">
        <ele>844.20001220703</ele>
        <time>2019-10-30T08:32:55.000Z</time>
      </trkpt>
      <trkpt lat="45.34767" lon="4.62715">
        <ele>844.40002441406</ele>
        <time>2019-10-30T08:32:56.000Z</time>
      </trkpt>
      <trkpt lat="45.34768" lon="4.62717">
        <ele>844.59997558594</ele>
        <time>2019-10-30T08:32:57.000Z</time>
      </trkpt>
      <trkpt lat="45.34769" lon="4.62719">
        <ele>844.59997558594</ele>
        <time>2019-10-30T08:32:58.000Z</time>
      </trkpt>
      <trkpt lat="45.3477" lon="4.62721">
        <ele>845</ele>
        <time>2019-10-30T08:32:59.000Z</time>
      </trkpt>
      <trkpt lat="45.34771" lon="4.62723">
        <ele>845</ele>
        <time>2019-10-30T08:33:00.000Z</time>
      </trkpt>
      <trkpt lat="45.34772" lon="4.62726">
        <ele>845.40002441406</ele>
        <time>2019-10-30T08:33:01.000Z</time>
      </trkpt>
      <trkpt lat="45.34773" lon="4.62728">
        <ele>845.59997558594</ele>
        <time>2019-10-30T08:33:02.000Z</time>
      </trkpt>
      <trkpt lat="45.34774" lon="4.6273">
        <ele>845.79998779297</ele>
        <time>2019-10-30T08:33:03.000Z</time>
      </trkpt>
      <trkpt lat="45.34775" lon="4.62733">
        <ele>846</ele>
        <time>2019-10-30T08:33:04.000Z</time>
      </trkpt>
      <trkpt lat="45.34776" lon="4.62735">
        <ele>846.40002441406</ele>
        <time>2019-10-30T08:33:05.000Z</time>
      </trkpt>
      <trkpt lat="45.34777" lon="4.62736">
        <ele>846.59997558594</ele>
        <time>2019-10-30T08:33:06.000Z</time>
      </trkpt>
      <trkpt lat="45.34778" lon="4.62738">
        <ele>846.59997558594</ele>
        <time>2019-10-30T08:33:07.000Z</time>
      </trkpt>
      <trkpt lat="45.34779" lon="4.62739">
        <ele>846.79998779297</ele>
        <time>2019-10-30T08:33:08.000Z</time>
      </trkpt>
      <trkpt lat="45.34779" lon="4.6274">
        <ele>847</ele>
        <time>2019-10-30T08:33:09.000Z</time>
      </trkpt>
      <trkpt lat="45.3478" lon="4.62741">
        <ele>847</ele>
        <time>2019-10-30T08:33:10.000Z</time>
      </trkpt>
      <trkpt lat="45.34781" lon="4.62743">
        <ele>847.40002441406</ele>
        <time>2019-10-30T08:33:11.000Z</time>
      </trkpt>
      <trkpt lat="45.34782" lon="4.62744">
        <ele>847.59997558594</ele>
        <time>2019-10-30T08:33:12.000Z</time>
      </trkpt>
      <trkpt lat="45.34783" lon="4.62745">
        <ele>847.79998779297</ele>
        <time>2019-10-30T08:33:13.000Z</time>
      </trkpt>
      <trkpt lat="45.34784" lon="4.62747">
        <ele>848</ele>
        <time>2019-10-30T08:33:14.000Z</time>
      </trkpt>
      <trkpt lat="45.34784" lon="4.62748">
        <ele>848.40002441406</ele>
        <time>2019-10-30T08:33:15.000Z</time>
      </trkpt>
      <trkpt lat="45.34785" lon="4.6275">
        <ele>848.59997558594</ele>
        <time>2019-10-30T08:33:16.000Z</time>
      </trkpt>
      <trkpt lat="45.34786" lon="4.62752">
        <ele>848.79998779297</ele>
        <time>2019-10-30T08:33:17.000Z</time>
      </trkpt>
      <trkpt lat="45.34786" lon="4.62754">
        <ele>849</ele>
        <time>2019-10-30T08:33:18.000Z</time>
      </trkpt>
      <trkpt lat="45.34787" lon="4.62756">
        <ele>849.20001220703</ele>
        <time>2019-10-30T08:33:19.000Z</time>
      </trkpt>
      <trkpt lat="45.34788" lon="4.62758">
        <ele>849.59997558594</ele>
        <time>2019-10-30T08:33:20.000Z</time>
      </trkpt>
      <trkpt lat="45.34789" lon="4.6276">
        <ele>849.79998779297</ele>
        <time>2019-10-30T08:33:21.000Z</time>
      </trkpt>
      <trkpt lat="45.3479" lon="4.62762">
        <ele>850</ele>
        <time>2019-10-30T08:33:22.000Z</time>
      </trkpt>
      <trkpt lat="45.34791" lon="4.62764">
        <ele>850</ele>
        <time>2019-10-30T08:33:23.000Z</time>
      </trkpt>
      <trkpt lat="45.34792" lon="4.62766">
        <ele>850.40002441406</ele>
        <time>2019-10-30T08:33:24.000Z</time>
      </trkpt>
      <trkpt lat="45.34792" lon="4.62768">
        <ele>850.59997558594</ele>
        <time>2019-10-30T08:33:25.000Z</time>
      </trkpt>
      <trkpt lat="45.34793" lon="4.6277">
        <ele>851</ele>
        <time>2019-10-30T08:33:26.000Z</time>
      </trkpt>
      <trkpt lat="45.34794" lon="4.62772">
        <ele>851.40002441406</ele>
        <time>2019-10-30T08:33:27.000Z</time>
      </trkpt>
      <trkpt lat="45.34795" lon="4.62774">
        <ele>851.59997558594</ele>
        <time>2019-10-30T08:33:28.000Z</time>
      </trkpt>
      <trkpt lat="45.34795" lon="4.62776">
        <ele>851.59997558594</ele>
        <time>2019-10-30T08:33:29.000Z</time>
      </trkpt>
      <trkpt lat="45.34796" lon="4.62779">
        <ele>852</ele>
        <time>2019-10-30T08:33:30.000Z</time>
      </trkpt>
      <trkpt lat="45.34797" lon="4.62781">
        <ele>852</ele>
        <time>2019-10-30T08:33:31.000Z</time>
      </trkpt>
      <trkpt lat="45.34798" lon="4.62783">
        <ele>852.40002441406</ele>
        <time>2019-10-30T08:33:32.000Z</time>
      </trkpt>
      <trkpt lat="45.34799" lon="4.62785">
        <ele>852.40002441406</ele>
        <time>2019-10-30T08:33:33.000Z</time>
      </trkpt>
      <trkpt lat="45.348" lon="4.62786">
        <ele>852.59997558594</ele>
        <time>2019-10-30T08:33:34.000Z</time>
      </trkpt>
      <trkpt lat="45.34802" lon="4.62788">
        <ele>852.79998779297</ele>
        <time>2019-10-30T08:33:35.000Z</time>
      </trkpt>
      <trkpt lat="45.34804" lon="4.6279">
        <ele>853</ele>
        <time>2019-10-30T08:33:36.000Z</time>
      </trkpt>
      <trkpt lat="45.34809" lon="4.62795">
        <ele>852.79998779297</ele>
        <time>2019-10-30T08:33:38.000Z</time>
      </trkpt>
      <trkpt lat="45.34812" lon="4.62799">
        <ele>853</ele>
        <time>2019-10-30T08:33:39.000Z</time>
      </trkpt>
      <trkpt lat="45.34817" lon="4.62806">
        <ele>852.79998779297</ele>
        <time>2019-10-30T08:33:41.000Z</time>
      </trkpt>
      <trkpt lat="45.3482" lon="4.62808">
        <ele>853</ele>
        <time>2019-10-30T08:33:42.000Z</time>
      </trkpt>
      <trkpt lat="45.34822" lon="4.62811">
        <ele>853</ele>
        <time>2019-10-30T08:33:43.000Z</time>
      </trkpt>
      <trkpt lat="45.34824" lon="4.62815">
        <ele>852.79998779297</ele>
        <time>2019-10-30T08:33:44.000Z</time>
      </trkpt>
      <trkpt lat="45.34826" lon="4.62818">
        <ele>852.79998779297</ele>
        <time>2019-10-30T08:33:45.000Z</time>
      </trkpt>
      <trkpt lat="45.3483" lon="4.62825">
        <ele>852.40002441406</ele>
        <time>2019-10-30T08:33:47.000Z</time>
      </trkpt>
      <trkpt lat="45.34832" lon="4.62828">
        <ele>852.59997558594</ele>
        <time>2019-10-30T08:33:48.000Z</time>
      </trkpt>
      <trkpt lat="45.34835" lon="4.62831">
        <ele>852.40002441406</ele>
        <time>2019-10-30T08:33:49.000Z</time>
      </trkpt>
      <trkpt lat="45.34837" lon="4.62835">
        <ele>852.40002441406</ele>
        <time>2019-10-30T08:33:50.000Z</time>
      </trkpt>
      <trkpt lat="45.34839" lon="4.62838">
        <ele>852.40002441406</ele>
        <time>2019-10-30T08:33:51.000Z</time>
      </trkpt>
      <trkpt lat="45.34844" lon="4.62843">
        <ele>852.40002441406</ele>
        <time>2019-10-30T08:33:53.000Z</time>
      </trkpt>
      <trkpt lat="45.34846" lon="4.62846">
        <ele>852.59997558594</ele>
        <time>2019-10-30T08:33:54.000Z</time>
      </trkpt>
      <trkpt lat="45.34848" lon="4.62849">
        <ele>852.40002441406</ele>
        <time>2019-10-30T08:33:55.000Z</time>
      </trkpt>
      <trkpt lat="45.3485" lon="4.62851">
        <ele>852.40002441406</ele>
        <time>2019-10-30T08:33:56.000Z</time>
      </trkpt>
      <trkpt lat="45.34852" lon="4.62854">
        <ele>852.40002441406</ele>
        <time>2019-10-30T08:33:57.000Z</time>
      </trkpt>
      <trkpt lat="45.34854" lon="4.62856">
        <ele>852.59997558594</ele>
        <time>2019-10-30T08:33:58.000Z</time>
      </trkpt>
      <trkpt lat="45.34856" lon="4.62858">
        <ele>852.59997558594</ele>
        <time>2019-10-30T08:33:59.000Z</time>
      </trkpt>
      <trkpt lat="45.34858" lon="4.62861">
        <ele>852.79998779297</ele>
        <time>2019-10-30T08:34:00.000Z</time>
      </trkpt>
      <trkpt lat="45.3486" lon="4.62863">
        <ele>852.79998779297</ele>
        <time>2019-10-30T08:34:01.000Z</time>
      </trkpt>
      <trkpt lat="45.34861" lon="4.62865">
        <ele>853</ele>
        <time>2019-10-30T08:34:02.000Z</time>
      </trkpt>
      <trkpt lat="45.34863" lon="4.62867">
        <ele>853.20001220703</ele>
        <time>2019-10-30T08:34:03.000Z</time>
      </trkpt>
      <trkpt lat="45.34864" lon="4.62869">
        <ele>853.20001220703</ele>
        <time>2019-10-30T08:34:04.000Z</time>
      </trkpt>
      <trkpt lat="45.34866" lon="4.62871">
        <ele>853.59997558594</ele>
        <time>2019-10-30T08:34:05.000Z</time>
      </trkpt>
      <trkpt lat="45.34867" lon="4.62872">
        <ele>853.59997558594</ele>
        <time>2019-10-30T08:34:06.000Z</time>
      </trkpt>
      <trkpt lat="45.34869" lon="4.62874">
        <ele>854</ele>
        <time>2019-10-30T08:34:07.000Z</time>
      </trkpt>
      <trkpt lat="45.3487" lon="4.62875">
        <ele>854</ele>
        <time>2019-10-30T08:34:08.000Z</time>
      </trkpt>
      <trkpt lat="45.34872" lon="4.62876">
        <ele>854.20001220703</ele>
        <time>2019-10-30T08:34:09.000Z</time>
      </trkpt>
      <trkpt lat="45.34874" lon="4.62878">
        <ele>854.20001220703</ele>
        <time>2019-10-30T08:34:10.000Z</time>
      </trkpt>
      <trkpt lat="45.34875" lon="4.62879">
        <ele>854.20001220703</ele>
        <time>2019-10-30T08:34:11.000Z</time>
      </trkpt>
      <trkpt lat="45.34877" lon="4.62879">
        <ele>854.40002441406</ele>
        <time>2019-10-30T08:34:12.000Z</time>
      </trkpt>
      <trkpt lat="45.34878" lon="4.6288">
        <ele>854.59997558594</ele>
        <time>2019-10-30T08:34:13.000Z</time>
      </trkpt>
      <trkpt lat="45.3488" lon="4.62881">
        <ele>854.79998779297</ele>
        <time>2019-10-30T08:34:14.000Z</time>
      </trkpt>
      <trkpt lat="45.34881" lon="4.62882">
        <ele>855</ele>
        <time>2019-10-30T08:34:15.000Z</time>
      </trkpt>
      <trkpt lat="45.34883" lon="4.62882">
        <ele>855.40002441406</ele>
        <time>2019-10-30T08:34:16.000Z</time>
      </trkpt>
      <trkpt lat="45.34885" lon="4.62884">
        <ele>855.59997558594</ele>
        <time>2019-10-30T08:34:17.000Z</time>
      </trkpt>
      <trkpt lat="45.34887" lon="4.62885">
        <ele>856</ele>
        <time>2019-10-30T08:34:18.000Z</time>
      </trkpt>
      <trkpt lat="45.34889" lon="4.62886">
        <ele>856.40002441406</ele>
        <time>2019-10-30T08:34:19.000Z</time>
      </trkpt>
      <trkpt lat="45.3489" lon="4.62887">
        <ele>856.59997558594</ele>
        <time>2019-10-30T08:34:20.000Z</time>
      </trkpt>
      <trkpt lat="45.34892" lon="4.62889">
        <ele>856.79998779297</ele>
        <time>2019-10-30T08:34:21.000Z</time>
      </trkpt>
      <trkpt lat="45.34894" lon="4.6289">
        <ele>857.20001220703</ele>
        <time>2019-10-30T08:34:22.000Z</time>
      </trkpt>
      <trkpt lat="45.34896" lon="4.62892">
        <ele>857.20001220703</ele>
        <time>2019-10-30T08:34:23.000Z</time>
      </trkpt>
      <trkpt lat="45.34899" lon="4.62893">
        <ele>857.59997558594</ele>
        <time>2019-10-30T08:34:24.000Z</time>
      </trkpt>
      <trkpt lat="45.34901" lon="4.62895">
        <ele>857.59997558594</ele>
        <time>2019-10-30T08:34:25.000Z</time>
      </trkpt>
      <trkpt lat="45.34905" lon="4.62897">
        <ele>857.59997558594</ele>
        <time>2019-10-30T08:34:27.000Z</time>
      </trkpt>
      <trkpt lat="45.34907" lon="4.62899">
        <ele>857.79998779297</ele>
        <time>2019-10-30T08:34:28.000Z</time>
      </trkpt>
      <trkpt lat="45.34908" lon="4.629">
        <ele>857.79998779297</ele>
        <time>2019-10-30T08:34:29.000Z</time>
      </trkpt>
      <trkpt lat="45.3491" lon="4.62901">
        <ele>858</ele>
        <time>2019-10-30T08:34:30.000Z</time>
      </trkpt>
      <trkpt lat="45.34912" lon="4.62902">
        <ele>858</ele>
        <time>2019-10-30T08:34:31.000Z</time>
      </trkpt>
      <trkpt lat="45.34913" lon="4.62902">
        <ele>858</ele>
        <time>2019-10-30T08:34:32.000Z</time>
      </trkpt>
      <trkpt lat="45.34914" lon="4.62901">
        <ele>858.20001220703</ele>
        <time>2019-10-30T08:34:33.000Z</time>
      </trkpt>
      <trkpt lat="45.34916" lon="4.629">
        <ele>858.40002441406</ele>
        <time>2019-10-30T08:34:34.000Z</time>
      </trkpt>
      <trkpt lat="45.34917" lon="4.62898">
        <ele>858.40002441406</ele>
        <time>2019-10-30T08:34:35.000Z</time>
      </trkpt>
      <trkpt lat="45.34917" lon="4.62896">
        <ele>858.40002441406</ele>
        <time>2019-10-30T08:34:36.000Z</time>
      </trkpt>
      <trkpt lat="45.34918" lon="4.62894">
        <ele>858.59997558594</ele>
        <time>2019-10-30T08:34:37.000Z</time>
      </trkpt>
      <trkpt lat="45.34918" lon="4.62891">
        <ele>858.59997558594</ele>
        <time>2019-10-30T08:34:38.000Z</time>
      </trkpt>
      <trkpt lat="45.34919" lon="4.62889">
        <ele>859</ele>
        <time>2019-10-30T08:34:39.000Z</time>
      </trkpt>
      <trkpt lat="45.34919" lon="4.62887">
        <ele>859</ele>
        <time>2019-10-30T08:34:40.000Z</time>
      </trkpt>
      <trkpt lat="45.34919" lon="4.62885">
        <ele>859.20001220703</ele>
        <time>2019-10-30T08:34:41.000Z</time>
      </trkpt>
      <trkpt lat="45.34919" lon="4.62883">
        <ele>859.20001220703</ele>
        <time>2019-10-30T08:34:42.000Z</time>
      </trkpt>
      <trkpt lat="45.34919" lon="4.62882">
        <ele>859.59997558594</ele>
        <time>2019-10-30T08:34:43.000Z</time>
      </trkpt>
      <trkpt lat="45.34919" lon="4.6288">
        <ele>859.59997558594</ele>
        <time>2019-10-30T08:34:44.000Z</time>
      </trkpt>
      <trkpt lat="45.34919" lon="4.62878">
        <ele>859.79998779297</ele>
        <time>2019-10-30T08:34:45.000Z</time>
      </trkpt>
      <trkpt lat="45.3492" lon="4.62876">
        <ele>860.20001220703</ele>
        <time>2019-10-30T08:34:46.000Z</time>
      </trkpt>
      <trkpt lat="45.3492" lon="4.62874">
        <ele>860.40002441406</ele>
        <time>2019-10-30T08:34:47.000Z</time>
      </trkpt>
      <trkpt lat="45.3492" lon="4.62872">
        <ele>860.40002441406</ele>
        <time>2019-10-30T08:34:48.000Z</time>
      </trkpt>
      <trkpt lat="45.3492" lon="4.6287">
        <ele>860.59997558594</ele>
        <time>2019-10-30T08:34:49.000Z</time>
      </trkpt>
      <trkpt lat="45.3492" lon="4.62869">
        <ele>860.79998779297</ele>
        <time>2019-10-30T08:34:50.000Z</time>
      </trkpt>
      <trkpt lat="45.3492" lon="4.62867">
        <ele>860.79998779297</ele>
        <time>2019-10-30T08:34:51.000Z</time>
      </trkpt>
      <trkpt lat="45.3492" lon="4.62865">
        <ele>860.79998779297</ele>
        <time>2019-10-30T08:34:52.000Z</time>
      </trkpt>
      <trkpt lat="45.34921" lon="4.62863">
        <ele>861.20001220703</ele>
        <time>2019-10-30T08:34:53.000Z</time>
      </trkpt>
      <trkpt lat="45.3492" lon="4.62861">
        <ele>861.20001220703</ele>
        <time>2019-10-30T08:34:54.000Z</time>
      </trkpt>
      <trkpt lat="45.3492" lon="4.62859">
        <ele>861.79998779297</ele>
        <time>2019-10-30T08:34:55.000Z</time>
      </trkpt>
      <trkpt lat="45.3492" lon="4.62857">
        <ele>862</ele>
        <time>2019-10-30T08:34:56.000Z</time>
      </trkpt>
      <trkpt lat="45.3492" lon="4.62855">
        <ele>862.20001220703</ele>
        <time>2019-10-30T08:34:57.000Z</time>
      </trkpt>
      <trkpt lat="45.3492" lon="4.62853">
        <ele>862.20001220703</ele>
        <time>2019-10-30T08:34:58.000Z</time>
      </trkpt>
      <trkpt lat="45.34919" lon="4.62851">
        <ele>862.59997558594</ele>
        <time>2019-10-30T08:34:59.000Z</time>
      </trkpt>
      <trkpt lat="45.34918" lon="4.62849">
        <ele>862.79998779297</ele>
        <time>2019-10-30T08:35:00.000Z</time>
      </trkpt>
      <trkpt lat="45.34918" lon="4.62846">
        <ele>862.79998779297</ele>
        <time>2019-10-30T08:35:01.000Z</time>
      </trkpt>
      <trkpt lat="45.34917" lon="4.62844">
        <ele>862.79998779297</ele>
        <time>2019-10-30T08:35:02.000Z</time>
      </trkpt>
      <trkpt lat="45.34916" lon="4.62841">
        <ele>863.20001220703</ele>
        <time>2019-10-30T08:35:03.000Z</time>
      </trkpt>
      <trkpt lat="45.34915" lon="4.62839">
        <ele>863.40002441406</ele>
        <time>2019-10-30T08:35:04.000Z</time>
      </trkpt>
      <trkpt lat="45.34913" lon="4.62836">
        <ele>863.59997558594</ele>
        <time>2019-10-30T08:35:05.000Z</time>
      </trkpt>
      <trkpt lat="45.34913" lon="4.62834">
        <ele>863.79998779297</ele>
        <time>2019-10-30T08:35:06.000Z</time>
      </trkpt>
      <trkpt lat="45.34912" lon="4.62832">
        <ele>864.20001220703</ele>
        <time>2019-10-30T08:35:07.000Z</time>
      </trkpt>
      <trkpt lat="45.34911" lon="4.62829">
        <ele>864.40002441406</ele>
        <time>2019-10-30T08:35:08.000Z</time>
      </trkpt>
      <trkpt lat="45.34909" lon="4.62827">
        <ele>864.59997558594</ele>
        <time>2019-10-30T08:35:09.000Z</time>
      </trkpt>
      <trkpt lat="45.34908" lon="4.62824">
        <ele>864.59997558594</ele>
        <time>2019-10-30T08:35:10.000Z</time>
      </trkpt>
      <trkpt lat="45.34907" lon="4.62821">
        <ele>864.59997558594</ele>
        <time>2019-10-30T08:35:11.000Z</time>
      </trkpt>
      <trkpt lat="45.34906" lon="4.62819">
        <ele>864.79998779297</ele>
        <time>2019-10-30T08:35:12.000Z</time>
      </trkpt>
      <trkpt lat="45.34905" lon="4.62816">
        <ele>865</ele>
        <time>2019-10-30T08:35:13.000Z</time>
      </trkpt>
      <trkpt lat="45.34904" lon="4.62814">
        <ele>865.20001220703</ele>
        <time>2019-10-30T08:35:14.000Z</time>
      </trkpt>
      <trkpt lat="45.34903" lon="4.62811">
        <ele>865.20001220703</ele>
        <time>2019-10-30T08:35:15.000Z</time>
      </trkpt>
      <trkpt lat="45.34902" lon="4.62809">
        <ele>865.20001220703</ele>
        <time>2019-10-30T08:35:16.000Z</time>
      </trkpt>
      <trkpt lat="45.34901" lon="4.62806">
        <ele>865.20001220703</ele>
        <time>2019-10-30T08:35:17.000Z</time>
      </trkpt>
      <trkpt lat="45.349" lon="4.62803">
        <ele>865.40002441406</ele>
        <time>2019-10-30T08:35:18.000Z</time>
      </trkpt>
      <trkpt lat="45.34899" lon="4.62801">
        <ele>865.59997558594</ele>
        <time>2019-10-30T08:35:19.000Z</time>
      </trkpt>
      <trkpt lat="45.34899" lon="4.62798">
        <ele>865.59997558594</ele>
        <time>2019-10-30T08:35:20.000Z</time>
      </trkpt>
      <trkpt lat="45.34898" lon="4.62796">
        <ele>865.59997558594</ele>
        <time>2019-10-30T08:35:21.000Z</time>
      </trkpt>
      <trkpt lat="45.34897" lon="4.62793">
        <ele>865.59997558594</ele>
        <time>2019-10-30T08:35:22.000Z</time>
      </trkpt>
      <trkpt lat="45.34897" lon="4.62791">
        <ele>866</ele>
        <time>2019-10-30T08:35:23.000Z</time>
      </trkpt>
      <trkpt lat="45.34897" lon="4.62788">
        <ele>866.40002441406</ele>
        <time>2019-10-30T08:35:24.000Z</time>
      </trkpt>
      <trkpt lat="45.34897" lon="4.62786">
        <ele>866.79998779297</ele>
        <time>2019-10-30T08:35:25.000Z</time>
      </trkpt>
      <trkpt lat="45.34896" lon="4.62783">
        <ele>867.20001220703</ele>
        <time>2019-10-30T08:35:26.000Z</time>
      </trkpt>
      <trkpt lat="45.34896" lon="4.62781">
        <ele>867.40002441406</ele>
        <time>2019-10-30T08:35:27.000Z</time>
      </trkpt>
      <trkpt lat="45.34895" lon="4.62778">
        <ele>867.40002441406</ele>
        <time>2019-10-30T08:35:28.000Z</time>
      </trkpt>
      <trkpt lat="45.34895" lon="4.62776">
        <ele>867.59997558594</ele>
        <time>2019-10-30T08:35:29.000Z</time>
      </trkpt>
      <trkpt lat="45.34895" lon="4.62773">
        <ele>867.59997558594</ele>
        <time>2019-10-30T08:35:30.000Z</time>
      </trkpt>
      <trkpt lat="45.34895" lon="4.62771">
        <ele>867.59997558594</ele>
        <time>2019-10-30T08:35:31.000Z</time>
      </trkpt>
      <trkpt lat="45.34895" lon="4.62768">
        <ele>868</ele>
        <time>2019-10-30T08:35:32.000Z</time>
      </trkpt>
      <trkpt lat="45.34894" lon="4.62766">
        <ele>868</ele>
        <time>2019-10-30T08:35:33.000Z</time>
      </trkpt>
      <trkpt lat="45.34894" lon="4.62763">
        <ele>868.40002441406</ele>
        <time>2019-10-30T08:35:34.000Z</time>
      </trkpt>
      <trkpt lat="45.34894" lon="4.6276">
        <ele>868.79998779297</ele>
        <time>2019-10-30T08:35:35.000Z</time>
      </trkpt>
      <trkpt lat="45.34894" lon="4.62757">
        <ele>869</ele>
        <time>2019-10-30T08:35:36.000Z</time>
      </trkpt>
      <trkpt lat="45.34893" lon="4.62755">
        <ele>869.20001220703</ele>
        <time>2019-10-30T08:35:37.000Z</time>
      </trkpt>
      <trkpt lat="45.34893" lon="4.62752">
        <ele>869.59997558594</ele>
        <time>2019-10-30T08:35:38.000Z</time>
      </trkpt>
      <trkpt lat="45.34893" lon="4.62749">
        <ele>869.79998779297</ele>
        <time>2019-10-30T08:35:39.000Z</time>
      </trkpt>
      <trkpt lat="45.34892" lon="4.62743">
        <ele>870.20001220703</ele>
        <time>2019-10-30T08:35:41.000Z</time>
      </trkpt>
      <trkpt lat="45.34892" lon="4.62739">
        <ele>870.20001220703</ele>
        <time>2019-10-30T08:35:42.000Z</time>
      </trkpt>
      <trkpt lat="45.34892" lon="4.62736">
        <ele>870.20001220703</ele>
        <time>2019-10-30T08:35:43.000Z</time>
      </trkpt>
      <trkpt lat="45.34893" lon="4.6273">
        <ele>870.40002441406</ele>
        <time>2019-10-30T08:35:45.000Z</time>
      </trkpt>
      <trkpt lat="45.34893" lon="4.62727">
        <ele>870.40002441406</ele>
        <time>2019-10-30T08:35:46.000Z</time>
      </trkpt>
      <trkpt lat="45.34893" lon="4.62725">
        <ele>870.59997558594</ele>
        <time>2019-10-30T08:35:47.000Z</time>
      </trkpt>
      <trkpt lat="45.34894" lon="4.62723">
        <ele>870.59997558594</ele>
        <time>2019-10-30T08:35:48.000Z</time>
      </trkpt>
      <trkpt lat="45.34894" lon="4.6272">
        <ele>870.59997558594</ele>
        <time>2019-10-30T08:35:49.000Z</time>
      </trkpt>
      <trkpt lat="45.34893" lon="4.62717">
        <ele>870.79998779297</ele>
        <time>2019-10-30T08:35:50.000Z</time>
      </trkpt>
      <trkpt lat="45.34893" lon="4.62715">
        <ele>870.79998779297</ele>
        <time>2019-10-30T08:35:51.000Z</time>
      </trkpt>
      <trkpt lat="45.34893" lon="4.62713">
        <ele>871</ele>
        <time>2019-10-30T08:35:52.000Z</time>
      </trkpt>
      <trkpt lat="45.34893" lon="4.6271">
        <ele>871</ele>
        <time>2019-10-30T08:35:53.000Z</time>
      </trkpt>
      <trkpt lat="45.34893" lon="4.62708">
        <ele>871</ele>
        <time>2019-10-30T08:35:54.000Z</time>
      </trkpt>
      <trkpt lat="45.34893" lon="4.62705">
        <ele>871.20001220703</ele>
        <time>2019-10-30T08:35:55.000Z</time>
      </trkpt>
      <trkpt lat="45.34894" lon="4.62701">
        <ele>871.40002441406</ele>
        <time>2019-10-30T08:35:56.000Z</time>
      </trkpt>
      <trkpt lat="45.34894" lon="4.62697">
        <ele>871.20001220703</ele>
        <time>2019-10-30T08:35:57.000Z</time>
      </trkpt>
      <trkpt lat="45.34894" lon="4.62687">
        <ele>871.59997558594</ele>
        <time>2019-10-30T08:35:59.000Z</time>
      </trkpt>
      <trkpt lat="45.34894" lon="4.62683">
        <ele>871.59997558594</ele>
        <time>2019-10-30T08:36:00.000Z</time>
      </trkpt>
      <trkpt lat="45.34893" lon="4.62674">
        <ele>871.40002441406</ele>
        <time>2019-10-30T08:36:02.000Z</time>
      </trkpt>
      <trkpt lat="45.34892" lon="4.6266">
        <ele>871.20001220703</ele>
        <time>2019-10-30T08:36:05.000Z</time>
      </trkpt>
      <trkpt lat="45.34892" lon="4.62655">
        <ele>870.79998779297</ele>
        <time>2019-10-30T08:36:06.000Z</time>
      </trkpt>
      <trkpt lat="45.34892" lon="4.62651">
        <ele>870.40002441406</ele>
        <time>2019-10-30T08:36:07.000Z</time>
      </trkpt>
      <trkpt lat="45.34891" lon="4.62637">
        <ele>870.20001220703</ele>
        <time>2019-10-30T08:36:10.000Z</time>
      </trkpt>
      <trkpt lat="45.34891" lon="4.62632">
        <ele>869.79998779297</ele>
        <time>2019-10-30T08:36:11.000Z</time>
      </trkpt>
      <trkpt lat="45.3489" lon="4.62627">
        <ele>869.59997558594</ele>
        <time>2019-10-30T08:36:12.000Z</time>
      </trkpt>
      <trkpt lat="45.34888" lon="4.62617">
        <ele>869.20001220703</ele>
        <time>2019-10-30T08:36:14.000Z</time>
      </trkpt>
      <trkpt lat="45.34887" lon="4.62607">
        <ele>869.20001220703</ele>
        <time>2019-10-30T08:36:16.000Z</time>
      </trkpt>
      <trkpt lat="45.34886" lon="4.62602">
        <ele>869</ele>
        <time>2019-10-30T08:36:17.000Z</time>
      </trkpt>
      <trkpt lat="45.34886" lon="4.62597">
        <ele>869</ele>
        <time>2019-10-30T08:36:18.000Z</time>
      </trkpt>
      <trkpt lat="45.34885" lon="4.62591">
        <ele>869</ele>
        <time>2019-10-30T08:36:19.000Z</time>
      </trkpt>
      <trkpt lat="45.34884" lon="4.62579">
        <ele>868.59997558594</ele>
        <time>2019-10-30T08:36:21.000Z</time>
      </trkpt>
      <trkpt lat="45.34881" lon="4.62553">
        <ele>868</ele>
        <time>2019-10-30T08:36:25.000Z</time>
      </trkpt>
      <trkpt lat="45.34881" lon="4.62546">
        <ele>868</ele>
        <time>2019-10-30T08:36:26.000Z</time>
      </trkpt>
      <trkpt lat="45.34881" lon="4.62541">
        <ele>867.59997558594</ele>
        <time>2019-10-30T08:36:27.000Z</time>
      </trkpt>
      <trkpt lat="45.3488" lon="4.62535">
        <ele>867</ele>
        <time>2019-10-30T08:36:28.000Z</time>
      </trkpt>
      <trkpt lat="45.3488" lon="4.62529">
        <ele>866.59997558594</ele>
        <time>2019-10-30T08:36:29.000Z</time>
      </trkpt>
      <trkpt lat="45.34879" lon="4.62504">
        <ele>865.59997558594</ele>
        <time>2019-10-30T08:36:33.000Z</time>
      </trkpt>
      <trkpt lat="45.3488" lon="4.62487">
        <ele>865.40002441406</ele>
        <time>2019-10-30T08:36:36.000Z</time>
      </trkpt>
      <trkpt lat="45.34881" lon="4.62482">
        <ele>865.40002441406</ele>
        <time>2019-10-30T08:36:37.000Z</time>
      </trkpt>
      <trkpt lat="45.34882" lon="4.62477">
        <ele>865.40002441406</ele>
        <time>2019-10-30T08:36:38.000Z</time>
      </trkpt>
      <trkpt lat="45.34883" lon="4.62472">
        <ele>865.20001220703</ele>
        <time>2019-10-30T08:36:39.000Z</time>
      </trkpt>
      <trkpt lat="45.34884" lon="4.62467">
        <ele>865</ele>
        <time>2019-10-30T08:36:40.000Z</time>
      </trkpt>
      <trkpt lat="45.34885" lon="4.62462">
        <ele>865</ele>
        <time>2019-10-30T08:36:41.000Z</time>
      </trkpt>
      <trkpt lat="45.34886" lon="4.62458">
        <ele>864.79998779297</ele>
        <time>2019-10-30T08:36:42.000Z</time>
      </trkpt>
      <trkpt lat="45.34887" lon="4.62454">
        <ele>864.79998779297</ele>
        <time>2019-10-30T08:36:43.000Z</time>
      </trkpt>
      <trkpt lat="45.34888" lon="4.62449">
        <ele>864.79998779297</ele>
        <time>2019-10-30T08:36:44.000Z</time>
      </trkpt>
      <trkpt lat="45.34889" lon="4.62444">
        <ele>864.40002441406</ele>
        <time>2019-10-30T08:36:45.000Z</time>
      </trkpt>
      <trkpt lat="45.34892" lon="4.6243">
        <ele>864.20001220703</ele>
        <time>2019-10-30T08:36:48.000Z</time>
      </trkpt>
      <trkpt lat="45.34894" lon="4.62421">
        <ele>864</ele>
        <time>2019-10-30T08:36:50.000Z</time>
      </trkpt>
      <trkpt lat="45.34896" lon="4.62412">
        <ele>863.79998779297</ele>
        <time>2019-10-30T08:36:52.000Z</time>
      </trkpt>
      <trkpt lat="45.34896" lon="4.62408">
        <ele>863.59997558594</ele>
        <time>2019-10-30T08:36:53.000Z</time>
      </trkpt>
      <trkpt lat="45.34897" lon="4.62405">
        <ele>863.40002441406</ele>
        <time>2019-10-30T08:36:54.000Z</time>
      </trkpt>
      <trkpt lat="45.34898" lon="4.62402">
        <ele>863.20001220703</ele>
        <time>2019-10-30T08:36:55.000Z</time>
      </trkpt>
      <trkpt lat="45.34899" lon="4.62398">
        <ele>863.20001220703</ele>
        <time>2019-10-30T08:36:56.000Z</time>
      </trkpt>
      <trkpt lat="45.34901" lon="4.62391">
        <ele>862.79998779297</ele>
        <time>2019-10-30T08:36:58.000Z</time>
      </trkpt>
      <trkpt lat="45.34901" lon="4.62389">
        <ele>862.79998779297</ele>
        <time>2019-10-30T08:36:59.000Z</time>
      </trkpt>
      <trkpt lat="45.34902" lon="4.62386">
        <ele>862.59997558594</ele>
        <time>2019-10-30T08:37:00.000Z</time>
      </trkpt>
      <trkpt lat="45.34902" lon="4.62385">
        <ele>862.59997558594</ele>
        <time>2019-10-30T08:37:01.000Z</time>
      </trkpt>
      <trkpt lat="45.34902" lon="4.62382">
        <ele>862.59997558594</ele>
        <time>2019-10-30T08:37:02.000Z</time>
      </trkpt>
      <trkpt lat="45.34902" lon="4.6238">
        <ele>862.59997558594</ele>
        <time>2019-10-30T08:37:03.000Z</time>
      </trkpt>
      <trkpt lat="45.34902" lon="4.62377">
        <ele>862.59997558594</ele>
        <time>2019-10-30T08:37:04.000Z</time>
      </trkpt>
      <trkpt lat="45.34904" lon="4.62371">
        <ele>862.79998779297</ele>
        <time>2019-10-30T08:37:06.000Z</time>
      </trkpt>
      <trkpt lat="45.34906" lon="4.62359">
        <ele>862.40002441406</ele>
        <time>2019-10-30T08:37:09.000Z</time>
      </trkpt>
      <trkpt lat="45.34907" lon="4.62355">
        <ele>862.59997558594</ele>
        <time>2019-10-30T08:37:10.000Z</time>
      </trkpt>
      <trkpt lat="45.34908" lon="4.62348">
        <ele>862.40002441406</ele>
        <time>2019-10-30T08:37:12.000Z</time>
      </trkpt>
      <trkpt lat="45.34908" lon="4.62344">
        <ele>862.40002441406</ele>
        <time>2019-10-30T08:37:13.000Z</time>
      </trkpt>
      <trkpt lat="45.34909" lon="4.6234">
        <ele>862.20001220703</ele>
        <time>2019-10-30T08:37:14.000Z</time>
      </trkpt>
      <trkpt lat="45.34909" lon="4.62336">
        <ele>862.20001220703</ele>
        <time>2019-10-30T08:37:15.000Z</time>
      </trkpt>
      <trkpt lat="45.34911" lon="4.62329">
        <ele>862</ele>
        <time>2019-10-30T08:37:17.000Z</time>
      </trkpt>
      <trkpt lat="45.34912" lon="4.62325">
        <ele>862</ele>
        <time>2019-10-30T08:37:18.000Z</time>
      </trkpt>
      <trkpt lat="45.34915" lon="4.62314">
        <ele>861.59997558594</ele>
        <time>2019-10-30T08:37:21.000Z</time>
      </trkpt>
      <trkpt lat="45.34915" lon="4.62311">
        <ele>861.59997558594</ele>
        <time>2019-10-30T08:37:22.000Z</time>
      </trkpt>
      <trkpt lat="45.34915" lon="4.62308">
        <ele>861.59997558594</ele>
        <time>2019-10-30T08:37:23.000Z</time>
      </trkpt>
      <trkpt lat="45.34915" lon="4.62304">
        <ele>861.59997558594</ele>
        <time>2019-10-30T08:37:24.000Z</time>
      </trkpt>
      <trkpt lat="45.34916" lon="4.62301">
        <ele>861.40002441406</ele>
        <time>2019-10-30T08:37:25.000Z</time>
      </trkpt>
      <trkpt lat="45.34916" lon="4.62297">
        <ele>861.40002441406</ele>
        <time>2019-10-30T08:37:26.000Z</time>
      </trkpt>
      <trkpt lat="45.34917" lon="4.62293">
        <ele>861.40002441406</ele>
        <time>2019-10-30T08:37:27.000Z</time>
      </trkpt>
      <trkpt lat="45.34919" lon="4.62281">
        <ele>861.40002441406</ele>
        <time>2019-10-30T08:37:30.000Z</time>
      </trkpt>
      <trkpt lat="45.3492" lon="4.62272">
        <ele>861.40002441406</ele>
        <time>2019-10-30T08:37:32.000Z</time>
      </trkpt>
      <trkpt lat="45.34921" lon="4.62268">
        <ele>861.40002441406</ele>
        <time>2019-10-30T08:37:33.000Z</time>
      </trkpt>
      <trkpt lat="45.34922" lon="4.62264">
        <ele>861.40002441406</ele>
        <time>2019-10-30T08:37:34.000Z</time>
      </trkpt>
      <trkpt lat="45.34923" lon="4.62254">
        <ele>861.20001220703</ele>
        <time>2019-10-30T08:37:36.000Z</time>
      </trkpt>
      <trkpt lat="45.34923" lon="4.62245">
        <ele>861.20001220703</ele>
        <time>2019-10-30T08:37:38.000Z</time>
      </trkpt>
      <trkpt lat="45.34923" lon="4.62241">
        <ele>861.40002441406</ele>
        <time>2019-10-30T08:37:39.000Z</time>
      </trkpt>
      <trkpt lat="45.34923" lon="4.62237">
        <ele>861.40002441406</ele>
        <time>2019-10-30T08:37:40.000Z</time>
      </trkpt>
      <trkpt lat="45.34923" lon="4.62233">
        <ele>861.40002441406</ele>
        <time>2019-10-30T08:37:41.000Z</time>
      </trkpt>
      <trkpt lat="45.34923" lon="4.62224">
        <ele>861.20001220703</ele>
        <time>2019-10-30T08:37:43.000Z</time>
      </trkpt>
      <trkpt lat="45.34923" lon="4.6222">
        <ele>861.20001220703</ele>
        <time>2019-10-30T08:37:44.000Z</time>
      </trkpt>
      <trkpt lat="45.34923" lon="4.62216">
        <ele>861.20001220703</ele>
        <time>2019-10-30T08:37:45.000Z</time>
      </trkpt>
      <trkpt lat="45.34923" lon="4.62212">
        <ele>861.40002441406</ele>
        <time>2019-10-30T08:37:46.000Z</time>
      </trkpt>
      <trkpt lat="45.34923" lon="4.62208">
        <ele>861.40002441406</ele>
        <time>2019-10-30T08:37:47.000Z</time>
      </trkpt>
      <trkpt lat="45.34923" lon="4.62204">
        <ele>861.40002441406</ele>
        <time>2019-10-30T08:37:48.000Z</time>
      </trkpt>
      <trkpt lat="45.34924" lon="4.622">
        <ele>861.40002441406</ele>
        <time>2019-10-30T08:37:49.000Z</time>
      </trkpt>
      <trkpt lat="45.34924" lon="4.62197">
        <ele>861.59997558594</ele>
        <time>2019-10-30T08:37:50.000Z</time>
      </trkpt>
      <trkpt lat="45.34924" lon="4.62192">
        <ele>861.59997558594</ele>
        <time>2019-10-30T08:37:51.000Z</time>
      </trkpt>
      <trkpt lat="45.34924" lon="4.62188">
        <ele>861.59997558594</ele>
        <time>2019-10-30T08:37:52.000Z</time>
      </trkpt>
      <trkpt lat="45.34924" lon="4.62185">
        <ele>861.59997558594</ele>
        <time>2019-10-30T08:37:53.000Z</time>
      </trkpt>
      <trkpt lat="45.34924" lon="4.62181">
        <ele>861.59997558594</ele>
        <time>2019-10-30T08:37:54.000Z</time>
      </trkpt>
      <trkpt lat="45.34924" lon="4.62178">
        <ele>861.79998779297</ele>
        <time>2019-10-30T08:37:55.000Z</time>
      </trkpt>
      <trkpt lat="45.34924" lon="4.62174">
        <ele>862</ele>
        <time>2019-10-30T08:37:56.000Z</time>
      </trkpt>
      <trkpt lat="45.34924" lon="4.62171">
        <ele>862.20001220703</ele>
        <time>2019-10-30T08:37:57.000Z</time>
      </trkpt>
      <trkpt lat="45.34924" lon="4.62164">
        <ele>862.20001220703</ele>
        <time>2019-10-30T08:37:59.000Z</time>
      </trkpt>
      <trkpt lat="45.34924" lon="4.6216">
        <ele>862.20001220703</ele>
        <time>2019-10-30T08:38:00.000Z</time>
      </trkpt>
      <trkpt lat="45.34924" lon="4.62156">
        <ele>862.40002441406</ele>
        <time>2019-10-30T08:38:01.000Z</time>
      </trkpt>
      <trkpt lat="45.34926" lon="4.6214">
        <ele>862.59997558594</ele>
        <time>2019-10-30T08:38:05.000Z</time>
      </trkpt>
      <trkpt lat="45.34927" lon="4.62136">
        <ele>862.79998779297</ele>
        <time>2019-10-30T08:38:06.000Z</time>
      </trkpt>
      <trkpt lat="45.34927" lon="4.62129">
        <ele>862.79998779297</ele>
        <time>2019-10-30T08:38:08.000Z</time>
      </trkpt>
      <trkpt lat="45.34928" lon="4.62125">
        <ele>863</ele>
        <time>2019-10-30T08:38:09.000Z</time>
      </trkpt>
      <trkpt lat="45.34929" lon="4.62122">
        <ele>863</ele>
        <time>2019-10-30T08:38:10.000Z</time>
      </trkpt>
      <trkpt lat="45.34929" lon="4.6212">
        <ele>863.20001220703</ele>
        <time>2019-10-30T08:38:11.000Z</time>
      </trkpt>
      <trkpt lat="45.34929" lon="4.62117">
        <ele>863.20001220703</ele>
        <time>2019-10-30T08:38:12.000Z</time>
      </trkpt>
      <trkpt lat="45.34929" lon="4.62115">
        <ele>863.40002441406</ele>
        <time>2019-10-30T08:38:13.000Z</time>
      </trkpt>
      <trkpt lat="45.34929" lon="4.62113">
        <ele>863.40002441406</ele>
        <time>2019-10-30T08:38:14.000Z</time>
      </trkpt>
      <trkpt lat="45.34929" lon="4.6211">
        <ele>863.59997558594</ele>
        <time>2019-10-30T08:38:15.000Z</time>
      </trkpt>
      <trkpt lat="45.34929" lon="4.62103">
        <ele>863.59997558594</ele>
        <time>2019-10-30T08:38:17.000Z</time>
      </trkpt>
      <trkpt lat="45.34929" lon="4.621">
        <ele>863.59997558594</ele>
        <time>2019-10-30T08:38:18.000Z</time>
      </trkpt>
      <trkpt lat="45.34929" lon="4.621">
        <ele>863.59997558594</ele>
        <time>2019-10-30T08:38:19.000Z</time>
      </trkpt>
      <trkpt lat="45.34929" lon="4.621">
        <ele>863.59997558594</ele>
        <time>2019-10-30T08:38:20.000Z</time>
      </trkpt>
      <trkpt lat="45.34929" lon="4.621">
        <ele>863.59997558594</ele>
        <time>2019-10-30T08:38:22.000Z</time>
      </trkpt>
      <trkpt lat="45.34929" lon="4.621">
        <ele>863.59997558594</ele>
        <time>2019-10-30T08:38:23.000Z</time>
      </trkpt>
      <trkpt lat="45.34929" lon="4.621">
        <ele>863.79998779297</ele>
        <time>2019-10-30T08:38:24.000Z</time>
      </trkpt>
      <trkpt lat="45.34929" lon="4.621">
        <ele>863.40002441406</ele>
        <time>2019-10-30T08:38:29.000Z</time>
      </trkpt>
      <trkpt lat="45.34929" lon="4.621">
        <ele>863.40002441406</ele>
        <time>2019-10-30T08:38:30.000Z</time>
      </trkpt>
      <trkpt lat="45.34929" lon="4.621">
        <ele>863.59997558594</ele>
        <time>2019-10-30T08:38:35.000Z</time>
      </trkpt>
      <trkpt lat="45.34929" lon="4.62099">
        <ele>863.59997558594</ele>
        <time>2019-10-30T08:38:45.000Z</time>
      </trkpt>
      <trkpt lat="45.34928" lon="4.62097">
        <ele>863.59997558594</ele>
        <time>2019-10-30T08:38:46.000Z</time>
      </trkpt>
      <trkpt lat="45.34927" lon="4.62096">
        <ele>863.59997558594</ele>
        <time>2019-10-30T08:38:47.000Z</time>
      </trkpt>
      <trkpt lat="45.34927" lon="4.62095">
        <ele>863.59997558594</ele>
        <time>2019-10-30T08:38:48.000Z</time>
      </trkpt>
      <trkpt lat="45.34927" lon="4.62094">
        <ele>863.59997558594</ele>
        <time>2019-10-30T08:38:49.000Z</time>
      </trkpt>
      <trkpt lat="45.34928" lon="4.62094">
        <ele>863.59997558594</ele>
        <time>2019-10-30T08:38:50.000Z</time>
      </trkpt>
      <trkpt lat="45.34928" lon="4.62095">
        <ele>863.40002441406</ele>
        <time>2019-10-30T08:38:51.000Z</time>
      </trkpt>
      <trkpt lat="45.34929" lon="4.62096">
        <ele>863.59997558594</ele>
        <time>2019-10-30T08:38:52.000Z</time>
      </trkpt>
      <trkpt lat="45.34928" lon="4.62098">
        <ele>863.40002441406</ele>
        <time>2019-10-30T08:38:53.000Z</time>
      </trkpt>
      <trkpt lat="45.34928" lon="4.621">
        <ele>863.59997558594</ele>
        <time>2019-10-30T08:38:54.000Z</time>
      </trkpt>
      <trkpt lat="45.34927" lon="4.62102">
        <ele>863.59997558594</ele>
        <time>2019-10-30T08:38:55.000Z</time>
      </trkpt>
      <trkpt lat="45.34927" lon="4.62104">
        <ele>863.40002441406</ele>
        <time>2019-10-30T08:38:56.000Z</time>
      </trkpt>
      <trkpt lat="45.34928" lon="4.62106">
        <ele>863.40002441406</ele>
        <time>2019-10-30T08:38:57.000Z</time>
      </trkpt>
      <trkpt lat="45.34928" lon="4.62109">
        <ele>863.40002441406</ele>
        <time>2019-10-30T08:38:58.000Z</time>
      </trkpt>
      <trkpt lat="45.34929" lon="4.62111">
        <ele>863.40002441406</ele>
        <time>2019-10-30T08:38:59.000Z</time>
      </trkpt>
      <trkpt lat="45.3493" lon="4.62113">
        <ele>863.40002441406</ele>
        <time>2019-10-30T08:39:00.000Z</time>
      </trkpt>
      <trkpt lat="45.34931" lon="4.62115">
        <ele>863.59997558594</ele>
        <time>2019-10-30T08:39:01.000Z</time>
      </trkpt>
      <trkpt lat="45.34933" lon="4.62116">
        <ele>863.40002441406</ele>
        <time>2019-10-30T08:39:02.000Z</time>
      </trkpt>
      <trkpt lat="45.34935" lon="4.62117">
        <ele>863.40002441406</ele>
        <time>2019-10-30T08:39:03.000Z</time>
      </trkpt>
      <trkpt lat="45.34937" lon="4.62116">
        <ele>863.59997558594</ele>
        <time>2019-10-30T08:39:04.000Z</time>
      </trkpt>
      <trkpt lat="45.34939" lon="4.62116">
        <ele>863.40002441406</ele>
        <time>2019-10-30T08:39:05.000Z</time>
      </trkpt>
      <trkpt lat="45.34941" lon="4.62114">
        <ele>863.59997558594</ele>
        <time>2019-10-30T08:39:06.000Z</time>
      </trkpt>
      <trkpt lat="45.34943" lon="4.62112">
        <ele>863.79998779297</ele>
        <time>2019-10-30T08:39:07.000Z</time>
      </trkpt>
      <trkpt lat="45.34944" lon="4.62111">
        <ele>863.59997558594</ele>
        <time>2019-10-30T08:39:08.000Z</time>
      </trkpt>
      <trkpt lat="45.34946" lon="4.62109">
        <ele>863.79998779297</ele>
        <time>2019-10-30T08:39:09.000Z</time>
      </trkpt>
      <trkpt lat="45.34951" lon="4.62107">
        <ele>864</ele>
        <time>2019-10-30T08:39:11.000Z</time>
      </trkpt>
      <trkpt lat="45.34955" lon="4.62104">
        <ele>864.20001220703</ele>
        <time>2019-10-30T08:39:13.000Z</time>
      </trkpt>
      <trkpt lat="45.3496" lon="4.62101">
        <ele>864.40002441406</ele>
        <time>2019-10-30T08:39:15.000Z</time>
      </trkpt>
      <trkpt lat="45.34966" lon="4.62096">
        <ele>865</ele>
        <time>2019-10-30T08:39:18.000Z</time>
      </trkpt>
      <trkpt lat="45.34968" lon="4.62094">
        <ele>864.79998779297</ele>
        <time>2019-10-30T08:39:19.000Z</time>
      </trkpt>
      <trkpt lat="45.3497" lon="4.62092">
        <ele>865</ele>
        <time>2019-10-30T08:39:20.000Z</time>
      </trkpt>
      <trkpt lat="45.34972" lon="4.62091">
        <ele>865.20001220703</ele>
        <time>2019-10-30T08:39:21.000Z</time>
      </trkpt>
      <trkpt lat="45.34976" lon="4.62088">
        <ele>865.20001220703</ele>
        <time>2019-10-30T08:39:23.000Z</time>
      </trkpt>
      <trkpt lat="45.34978" lon="4.62086">
        <ele>865.20001220703</ele>
        <time>2019-10-30T08:39:24.000Z</time>
      </trkpt>
      <trkpt lat="45.3498" lon="4.62084">
        <ele>865.40002441406</ele>
        <time>2019-10-30T08:39:25.000Z</time>
      </trkpt>
      <trkpt lat="45.34981" lon="4.62082">
        <ele>865.40002441406</ele>
        <time>2019-10-30T08:39:26.000Z</time>
      </trkpt>
      <trkpt lat="45.34983" lon="4.62081">
        <ele>865.40002441406</ele>
        <time>2019-10-30T08:39:27.000Z</time>
      </trkpt>
      <trkpt lat="45.34984" lon="4.62079">
        <ele>865.20001220703</ele>
        <time>2019-10-30T08:39:28.000Z</time>
      </trkpt>
      <trkpt lat="45.34986" lon="4.62079">
        <ele>865.40002441406</ele>
        <time>2019-10-30T08:39:29.000Z</time>
      </trkpt>
      <trkpt lat="45.34988" lon="4.62077">
        <ele>865.59997558594</ele>
        <time>2019-10-30T08:39:30.000Z</time>
      </trkpt>
      <trkpt lat="45.34989" lon="4.62076">
        <ele>865.59997558594</ele>
        <time>2019-10-30T08:39:31.000Z</time>
      </trkpt>
      <trkpt lat="45.34991" lon="4.62074">
        <ele>865.79998779297</ele>
        <time>2019-10-30T08:39:32.000Z</time>
      </trkpt>
      <trkpt lat="45.34992" lon="4.62073">
        <ele>865.79998779297</ele>
        <time>2019-10-30T08:39:33.000Z</time>
      </trkpt>
      <trkpt lat="45.34994" lon="4.62072">
        <ele>866</ele>
        <time>2019-10-30T08:39:34.000Z</time>
      </trkpt>
      <trkpt lat="45.34995" lon="4.6207">
        <ele>866.40002441406</ele>
        <time>2019-10-30T08:39:35.000Z</time>
      </trkpt>
      <trkpt lat="45.34997" lon="4.62069">
        <ele>866.40002441406</ele>
        <time>2019-10-30T08:39:36.000Z</time>
      </trkpt>
      <trkpt lat="45.34999" lon="4.62069">
        <ele>866.40002441406</ele>
        <time>2019-10-30T08:39:37.000Z</time>
      </trkpt>
      <trkpt lat="45.35001" lon="4.62068">
        <ele>866.59997558594</ele>
        <time>2019-10-30T08:39:38.000Z</time>
      </trkpt>
      <trkpt lat="45.35002" lon="4.62066">
        <ele>866.59997558594</ele>
        <time>2019-10-30T08:39:39.000Z</time>
      </trkpt>
      <trkpt lat="45.35004" lon="4.62066">
        <ele>867.40002441406</ele>
        <time>2019-10-30T08:39:40.000Z</time>
      </trkpt>
      <trkpt lat="45.35006" lon="4.62065">
        <ele>867.79998779297</ele>
        <time>2019-10-30T08:39:41.000Z</time>
      </trkpt>
      <trkpt lat="45.35008" lon="4.62063">
        <ele>868</ele>
        <time>2019-10-30T08:39:42.000Z</time>
      </trkpt>
      <trkpt lat="45.35009" lon="4.62062">
        <ele>868.20001220703</ele>
        <time>2019-10-30T08:39:43.000Z</time>
      </trkpt>
      <trkpt lat="45.35009" lon="4.62062">
        <ele>868.20001220703</ele>
        <time>2019-10-30T08:39:44.000Z</time>
      </trkpt>
      <trkpt lat="45.35008" lon="4.62062">
        <ele>868.59997558594</ele>
        <time>2019-10-30T08:39:46.000Z</time>
      </trkpt>
      <trkpt lat="45.35008" lon="4.62062">
        <ele>869.20001220703</ele>
        <time>2019-10-30T08:39:47.000Z</time>
      </trkpt>
      <trkpt lat="45.35007" lon="4.62062">
        <ele>869.40002441406</ele>
        <time>2019-10-30T08:39:48.000Z</time>
      </trkpt>
      <trkpt lat="45.35004" lon="4.62063">
        <ele>869.59997558594</ele>
        <time>2019-10-30T08:39:49.000Z</time>
      </trkpt>
      <trkpt lat="45.35002" lon="4.62064">
        <ele>869.59997558594</ele>
        <time>2019-10-30T08:39:50.000Z</time>
      </trkpt>
      <trkpt lat="45.34999" lon="4.62065">
        <ele>869.59997558594</ele>
        <time>2019-10-30T08:39:51.000Z</time>
      </trkpt>
      <trkpt lat="45.34997" lon="4.62065">
        <ele>869.59997558594</ele>
        <time>2019-10-30T08:39:52.000Z</time>
      </trkpt>
      <trkpt lat="45.34996" lon="4.62063">
        <ele>869.59997558594</ele>
        <time>2019-10-30T08:39:53.000Z</time>
      </trkpt>
      <trkpt lat="45.34996" lon="4.6206">
        <ele>869.59997558594</ele>
        <time>2019-10-30T08:39:54.000Z</time>
      </trkpt>
      <trkpt lat="45.34997" lon="4.62051">
        <ele>869.40002441406</ele>
        <time>2019-10-30T08:39:56.000Z</time>
      </trkpt>
      <trkpt lat="45.34999" lon="4.62045">
        <ele>869.40002441406</ele>
        <time>2019-10-30T08:39:57.000Z</time>
      </trkpt>
      <trkpt lat="45.35001" lon="4.62039">
        <ele>869.40002441406</ele>
        <time>2019-10-30T08:39:58.000Z</time>
      </trkpt>
      <trkpt lat="45.35007" lon="4.62017">
        <ele>868.59997558594</ele>
        <time>2019-10-30T08:40:01.000Z</time>
      </trkpt>
      <trkpt lat="45.35015" lon="4.61992">
        <ele>868</ele>
        <time>2019-10-30T08:40:04.000Z</time>
      </trkpt>
      <trkpt lat="45.35018" lon="4.61983">
        <ele>868</ele>
        <time>2019-10-30T08:40:05.000Z</time>
      </trkpt>
      <trkpt lat="45.35021" lon="4.61975">
        <ele>867.79998779297</ele>
        <time>2019-10-30T08:40:06.000Z</time>
      </trkpt>
      <trkpt lat="45.35023" lon="4.61968">
        <ele>867.59997558594</ele>
        <time>2019-10-30T08:40:07.000Z</time>
      </trkpt>
      <trkpt lat="45.35026" lon="4.61961">
        <ele>867.40002441406</ele>
        <time>2019-10-30T08:40:08.000Z</time>
      </trkpt>
      <trkpt lat="45.35028" lon="4.61955">
        <ele>867.59997558594</ele>
        <time>2019-10-30T08:40:09.000Z</time>
      </trkpt>
      <trkpt lat="45.3503" lon="4.61949">
        <ele>867.59997558594</ele>
        <time>2019-10-30T08:40:10.000Z</time>
      </trkpt>
      <trkpt lat="45.35032" lon="4.61944">
        <ele>867.59997558594</ele>
        <time>2019-10-30T08:40:11.000Z</time>
      </trkpt>
      <trkpt lat="45.35034" lon="4.61939">
        <ele>867.40002441406</ele>
        <time>2019-10-30T08:40:12.000Z</time>
      </trkpt>
      <trkpt lat="45.35035" lon="4.61934">
        <ele>867.40002441406</ele>
        <time>2019-10-30T08:40:13.000Z</time>
      </trkpt>
      <trkpt lat="45.35037" lon="4.61928">
        <ele>867.40002441406</ele>
        <time>2019-10-30T08:40:14.000Z</time>
      </trkpt>
      <trkpt lat="45.35038" lon="4.61923">
        <ele>867.40002441406</ele>
        <time>2019-10-30T08:40:15.000Z</time>
      </trkpt>
      <trkpt lat="45.35039" lon="4.61917">
        <ele>867.59997558594</ele>
        <time>2019-10-30T08:40:16.000Z</time>
      </trkpt>
      <trkpt lat="45.3504" lon="4.61912">
        <ele>867.79998779297</ele>
        <time>2019-10-30T08:40:17.000Z</time>
      </trkpt>
      <trkpt lat="45.3504" lon="4.61907">
        <ele>867.79998779297</ele>
        <time>2019-10-30T08:40:18.000Z</time>
      </trkpt>
      <trkpt lat="45.35041" lon="4.61902">
        <ele>868</ele>
        <time>2019-10-30T08:40:19.000Z</time>
      </trkpt>
      <trkpt lat="45.35041" lon="4.61898">
        <ele>867.79998779297</ele>
        <time>2019-10-30T08:40:20.000Z</time>
      </trkpt>
      <trkpt lat="45.35041" lon="4.61894">
        <ele>868</ele>
        <time>2019-10-30T08:40:21.000Z</time>
      </trkpt>
      <trkpt lat="45.35042" lon="4.61889">
        <ele>868</ele>
        <time>2019-10-30T08:40:22.000Z</time>
      </trkpt>
      <trkpt lat="45.35043" lon="4.61876">
        <ele>868.20001220703</ele>
        <time>2019-10-30T08:40:25.000Z</time>
      </trkpt>
      <trkpt lat="45.35044" lon="4.61872">
        <ele>868.20001220703</ele>
        <time>2019-10-30T08:40:26.000Z</time>
      </trkpt>
      <trkpt lat="45.35045" lon="4.61868">
        <ele>868.20001220703</ele>
        <time>2019-10-30T08:40:27.000Z</time>
      </trkpt>
      <trkpt lat="45.35047" lon="4.61865">
        <ele>868.20001220703</ele>
        <time>2019-10-30T08:40:28.000Z</time>
      </trkpt>
      <trkpt lat="45.35048" lon="4.61862">
        <ele>868.20001220703</ele>
        <time>2019-10-30T08:40:29.000Z</time>
      </trkpt>
      <trkpt lat="45.3505" lon="4.61859">
        <ele>868.20001220703</ele>
        <time>2019-10-30T08:40:30.000Z</time>
      </trkpt>
      <trkpt lat="45.35051" lon="4.61856">
        <ele>868.40002441406</ele>
        <time>2019-10-30T08:40:31.000Z</time>
      </trkpt>
      <trkpt lat="45.35053" lon="4.61852">
        <ele>868.40002441406</ele>
        <time>2019-10-30T08:40:32.000Z</time>
      </trkpt>
      <trkpt lat="45.35055" lon="4.61848">
        <ele>868.40002441406</ele>
        <time>2019-10-30T08:40:33.000Z</time>
      </trkpt>
      <trkpt lat="45.35056" lon="4.61845">
        <ele>868.59997558594</ele>
        <time>2019-10-30T08:40:34.000Z</time>
      </trkpt>
      <trkpt lat="45.35058" lon="4.61842">
        <ele>868.59997558594</ele>
        <time>2019-10-30T08:40:35.000Z</time>
      </trkpt>
      <trkpt lat="45.35059" lon="4.61839">
        <ele>868.59997558594</ele>
        <time>2019-10-30T08:40:36.000Z</time>
      </trkpt>
      <trkpt lat="45.3506" lon="4.61836">
        <ele>868.59997558594</ele>
        <time>2019-10-30T08:40:37.000Z</time>
      </trkpt>
      <trkpt lat="45.35062" lon="4.61833">
        <ele>868.59997558594</ele>
        <time>2019-10-30T08:40:38.000Z</time>
      </trkpt>
      <trkpt lat="45.35064" lon="4.6183">
        <ele>869</ele>
        <time>2019-10-30T08:40:39.000Z</time>
      </trkpt>
      <trkpt lat="45.35065" lon="4.61827">
        <ele>869.40002441406</ele>
        <time>2019-10-30T08:40:40.000Z</time>
      </trkpt>
      <trkpt lat="45.35067" lon="4.61824">
        <ele>869.40002441406</ele>
        <time>2019-10-30T08:40:41.000Z</time>
      </trkpt>
      <trkpt lat="45.35069" lon="4.61821">
        <ele>869.79998779297</ele>
        <time>2019-10-30T08:40:42.000Z</time>
      </trkpt>
      <trkpt lat="45.3507" lon="4.61818">
        <ele>870</ele>
        <time>2019-10-30T08:40:43.000Z</time>
      </trkpt>
      <trkpt lat="45.35072" lon="4.61815">
        <ele>870.40002441406</ele>
        <time>2019-10-30T08:40:44.000Z</time>
      </trkpt>
      <trkpt lat="45.35073" lon="4.61813">
        <ele>870.79998779297</ele>
        <time>2019-10-30T08:40:45.000Z</time>
      </trkpt>
      <trkpt lat="45.35074" lon="4.61811">
        <ele>870.79998779297</ele>
        <time>2019-10-30T08:40:46.000Z</time>
      </trkpt>
      <trkpt lat="45.35076" lon="4.61809">
        <ele>871</ele>
        <time>2019-10-30T08:40:47.000Z</time>
      </trkpt>
      <trkpt lat="45.35078" lon="4.61807">
        <ele>871</ele>
        <time>2019-10-30T08:40:48.000Z</time>
      </trkpt>
      <trkpt lat="45.3508" lon="4.61806">
        <ele>871</ele>
        <time>2019-10-30T08:40:49.000Z</time>
      </trkpt>
      <trkpt lat="45.35081" lon="4.61804">
        <ele>871.40002441406</ele>
        <time>2019-10-30T08:40:50.000Z</time>
      </trkpt>
      <trkpt lat="45.35083" lon="4.61803">
        <ele>871.59997558594</ele>
        <time>2019-10-30T08:40:51.000Z</time>
      </trkpt>
      <trkpt lat="45.35084" lon="4.61801">
        <ele>871.59997558594</ele>
        <time>2019-10-30T08:40:52.000Z</time>
      </trkpt>
      <trkpt lat="45.35086" lon="4.618">
        <ele>871.79998779297</ele>
        <time>2019-10-30T08:40:53.000Z</time>
      </trkpt>
      <trkpt lat="45.35087" lon="4.61798">
        <ele>871.79998779297</ele>
        <time>2019-10-30T08:40:54.000Z</time>
      </trkpt>
      <trkpt lat="45.35088" lon="4.61796">
        <ele>872.20001220703</ele>
        <time>2019-10-30T08:40:55.000Z</time>
      </trkpt>
      <trkpt lat="45.35089" lon="4.61795">
        <ele>872.40002441406</ele>
        <time>2019-10-30T08:40:56.000Z</time>
      </trkpt>
      <trkpt lat="45.35091" lon="4.61793">
        <ele>872.40002441406</ele>
        <time>2019-10-30T08:40:57.000Z</time>
      </trkpt>
      <trkpt lat="45.35091" lon="4.61791">
        <ele>872.40002441406</ele>
        <time>2019-10-30T08:40:58.000Z</time>
      </trkpt>
      <trkpt lat="45.35092" lon="4.61788">
        <ele>872.40002441406</ele>
        <time>2019-10-30T08:40:59.000Z</time>
      </trkpt>
      <trkpt lat="45.35093" lon="4.61786">
        <ele>873</ele>
        <time>2019-10-30T08:41:00.000Z</time>
      </trkpt>
      <trkpt lat="45.35094" lon="4.61784">
        <ele>873</ele>
        <time>2019-10-30T08:41:01.000Z</time>
      </trkpt>
      <trkpt lat="45.35095" lon="4.61782">
        <ele>873.20001220703</ele>
        <time>2019-10-30T08:41:02.000Z</time>
      </trkpt>
      <trkpt lat="45.35096" lon="4.61779">
        <ele>873.40002441406</ele>
        <time>2019-10-30T08:41:03.000Z</time>
      </trkpt>
      <trkpt lat="45.35096" lon="4.61777">
        <ele>873.59997558594</ele>
        <time>2019-10-30T08:41:04.000Z</time>
      </trkpt>
      <trkpt lat="45.35097" lon="4.61775">
        <ele>873.79998779297</ele>
        <time>2019-10-30T08:41:05.000Z</time>
      </trkpt>
      <trkpt lat="45.35097" lon="4.61773">
        <ele>873.79998779297</ele>
        <time>2019-10-30T08:41:06.000Z</time>
      </trkpt>
      <trkpt lat="45.35097" lon="4.61771">
        <ele>873.79998779297</ele>
        <time>2019-10-30T08:41:07.000Z</time>
      </trkpt>
      <trkpt lat="45.35098" lon="4.61769">
        <ele>874</ele>
        <time>2019-10-30T08:41:08.000Z</time>
      </trkpt>
      <trkpt lat="45.35098" lon="4.61768">
        <ele>874.20001220703</ele>
        <time>2019-10-30T08:41:09.000Z</time>
      </trkpt>
      <trkpt lat="45.35098" lon="4.61767">
        <ele>874.59997558594</ele>
        <time>2019-10-30T08:41:10.000Z</time>
      </trkpt>
      <trkpt lat="45.35097" lon="4.61765">
        <ele>874.59997558594</ele>
        <time>2019-10-30T08:41:11.000Z</time>
      </trkpt>
      <trkpt lat="45.35096" lon="4.61764">
        <ele>874.79998779297</ele>
        <time>2019-10-30T08:41:12.000Z</time>
      </trkpt>
      <trkpt lat="45.35095" lon="4.61762">
        <ele>874.79998779297</ele>
        <time>2019-10-30T08:41:13.000Z</time>
      </trkpt>
      <trkpt lat="45.35093" lon="4.6176">
        <ele>875.40002441406</ele>
        <time>2019-10-30T08:41:14.000Z</time>
      </trkpt>
      <trkpt lat="45.35092" lon="4.61757">
        <ele>875.79998779297</ele>
        <time>2019-10-30T08:41:15.000Z</time>
      </trkpt>
      <trkpt lat="45.3509" lon="4.61754">
        <ele>875.79998779297</ele>
        <time>2019-10-30T08:41:16.000Z</time>
      </trkpt>
      <trkpt lat="45.35089" lon="4.61751">
        <ele>876</ele>
        <time>2019-10-30T08:41:17.000Z</time>
      </trkpt>
      <trkpt lat="45.35088" lon="4.61748">
        <ele>876.20001220703</ele>
        <time>2019-10-30T08:41:18.000Z</time>
      </trkpt>
      <trkpt lat="45.35087" lon="4.61745">
        <ele>876.20001220703</ele>
        <time>2019-10-30T08:41:19.000Z</time>
      </trkpt>
      <trkpt lat="45.35085" lon="4.61742">
        <ele>876.20001220703</ele>
        <time>2019-10-30T08:41:20.000Z</time>
      </trkpt>
      <trkpt lat="45.35075" lon="4.61732">
        <ele>876</ele>
        <time>2019-10-30T08:41:23.000Z</time>
      </trkpt>
      <trkpt lat="45.35071" lon="4.61729">
        <ele>875.59997558594</ele>
        <time>2019-10-30T08:41:24.000Z</time>
      </trkpt>
      <trkpt lat="45.35067" lon="4.61726">
        <ele>875.20001220703</ele>
        <time>2019-10-30T08:41:25.000Z</time>
      </trkpt>
      <trkpt lat="45.35062" lon="4.61724">
        <ele>874.59997558594</ele>
        <time>2019-10-30T08:41:26.000Z</time>
      </trkpt>
      <trkpt lat="45.35057" lon="4.61723">
        <ele>874.40002441406</ele>
        <time>2019-10-30T08:41:27.000Z</time>
      </trkpt>
      <trkpt lat="45.35051" lon="4.61722">
        <ele>874</ele>
        <time>2019-10-30T08:41:28.000Z</time>
      </trkpt>
      <trkpt lat="45.35046" lon="4.61721">
        <ele>873.59997558594</ele>
        <time>2019-10-30T08:41:29.000Z</time>
      </trkpt>
      <trkpt lat="45.35037" lon="4.6172">
        <ele>872.79998779297</ele>
        <time>2019-10-30T08:41:31.000Z</time>
      </trkpt>
      <trkpt lat="45.35033" lon="4.6172">
        <ele>872.59997558594</ele>
        <time>2019-10-30T08:41:32.000Z</time>
      </trkpt>
      <trkpt lat="45.35029" lon="4.61718">
        <ele>872.20001220703</ele>
        <time>2019-10-30T08:41:33.000Z</time>
      </trkpt>
      <trkpt lat="45.35025" lon="4.61715">
        <ele>871.59997558594</ele>
        <time>2019-10-30T08:41:34.000Z</time>
      </trkpt>
      <trkpt lat="45.35021" lon="4.61711">
        <ele>871.20001220703</ele>
        <time>2019-10-30T08:41:35.000Z</time>
      </trkpt>
      <trkpt lat="45.35017" lon="4.61707">
        <ele>870.79998779297</ele>
        <time>2019-10-30T08:41:36.000Z</time>
      </trkpt>
      <trkpt lat="45.3501" lon="4.61697">
        <ele>869.40002441406</ele>
        <time>2019-10-30T08:41:38.000Z</time>
      </trkpt>
      <trkpt lat="45.35007" lon="4.61691">
        <ele>869</ele>
        <time>2019-10-30T08:41:39.000Z</time>
      </trkpt>
      <trkpt lat="45.35003" lon="4.61686">
        <ele>868.59997558594</ele>
        <time>2019-10-30T08:41:40.000Z</time>
      </trkpt>
      <trkpt lat="45.34999" lon="4.61683">
        <ele>868.20001220703</ele>
        <time>2019-10-30T08:41:41.000Z</time>
      </trkpt>
      <trkpt lat="45.34994" lon="4.6168">
        <ele>867.79998779297</ele>
        <time>2019-10-30T08:41:42.000Z</time>
      </trkpt>
      <trkpt lat="45.3499" lon="4.61679">
        <ele>867.20001220703</ele>
        <time>2019-10-30T08:41:43.000Z</time>
      </trkpt>
      <trkpt lat="45.34985" lon="4.6168">
        <ele>867</ele>
        <time>2019-10-30T08:41:44.000Z</time>
      </trkpt>
      <trkpt lat="45.3498" lon="4.6168">
        <ele>866.59997558594</ele>
        <time>2019-10-30T08:41:45.000Z</time>
      </trkpt>
      <trkpt lat="45.34974" lon="4.6168">
        <ele>866.59997558594</ele>
        <time>2019-10-30T08:41:46.000Z</time>
      </trkpt>
      <trkpt lat="45.34969" lon="4.6168">
        <ele>866.40002441406</ele>
        <time>2019-10-30T08:41:47.000Z</time>
      </trkpt>
      <trkpt lat="45.34957" lon="4.61678">
        <ele>865.20001220703</ele>
        <time>2019-10-30T08:41:49.000Z</time>
      </trkpt>
      <trkpt lat="45.34952" lon="4.61675">
        <ele>864.79998779297</ele>
        <time>2019-10-30T08:41:50.000Z</time>
      </trkpt>
      <trkpt lat="45.34946" lon="4.61673">
        <ele>864.59997558594</ele>
        <time>2019-10-30T08:41:51.000Z</time>
      </trkpt>
      <trkpt lat="45.34942" lon="4.61672">
        <ele>864.20001220703</ele>
        <time>2019-10-30T08:41:52.000Z</time>
      </trkpt>
      <trkpt lat="45.34937" lon="4.61673">
        <ele>863.79998779297</ele>
        <time>2019-10-30T08:41:53.000Z</time>
      </trkpt>
      <trkpt lat="45.34932" lon="4.61675">
        <ele>863.20001220703</ele>
        <time>2019-10-30T08:41:54.000Z</time>
      </trkpt>
      <trkpt lat="45.34927" lon="4.61677">
        <ele>862.79998779297</ele>
        <time>2019-10-30T08:41:55.000Z</time>
      </trkpt>
      <trkpt lat="45.34918" lon="4.61681">
        <ele>862</ele>
        <time>2019-10-30T08:41:57.000Z</time>
      </trkpt>
      <trkpt lat="45.34914" lon="4.61683">
        <ele>861.79998779297</ele>
        <time>2019-10-30T08:41:58.000Z</time>
      </trkpt>
      <trkpt lat="45.3491" lon="4.61684">
        <ele>861.59997558594</ele>
        <time>2019-10-30T08:41:59.000Z</time>
      </trkpt>
      <trkpt lat="45.34906" lon="4.61684">
        <ele>860.79998779297</ele>
        <time>2019-10-30T08:42:00.000Z</time>
      </trkpt>
      <trkpt lat="45.34903" lon="4.61684">
        <ele>860.79998779297</ele>
        <time>2019-10-30T08:42:01.000Z</time>
      </trkpt>
      <trkpt lat="45.34899" lon="4.61683">
        <ele>860.40002441406</ele>
        <time>2019-10-30T08:42:02.000Z</time>
      </trkpt>
      <trkpt lat="45.34896" lon="4.61683">
        <ele>860.20001220703</ele>
        <time>2019-10-30T08:42:03.000Z</time>
      </trkpt>
      <trkpt lat="45.34893" lon="4.61684">
        <ele>860</ele>
        <time>2019-10-30T08:42:04.000Z</time>
      </trkpt>
      <trkpt lat="45.34891" lon="4.61684">
        <ele>860</ele>
        <time>2019-10-30T08:42:05.000Z</time>
      </trkpt>
      <trkpt lat="45.34888" lon="4.61684">
        <ele>860</ele>
        <time>2019-10-30T08:42:06.000Z</time>
      </trkpt>
      <trkpt lat="45.34887" lon="4.61685">
        <ele>859.59997558594</ele>
        <time>2019-10-30T08:42:07.000Z</time>
      </trkpt>
      <trkpt lat="45.34887" lon="4.61685">
        <ele>859.40002441406</ele>
        <time>2019-10-30T08:42:08.000Z</time>
      </trkpt>
      <trkpt lat="45.34887" lon="4.61685">
        <ele>859.20001220703</ele>
        <time>2019-10-30T08:42:10.000Z</time>
      </trkpt>
      <trkpt lat="45.34887" lon="4.61685">
        <ele>858.79998779297</ele>
        <time>2019-10-30T08:42:22.000Z</time>
      </trkpt>
      <trkpt lat="45.34887" lon="4.61685">
        <ele>858.59997558594</ele>
        <time>2019-10-30T08:42:31.000Z</time>
      </trkpt>
      <trkpt lat="45.34886" lon="4.61684">
        <ele>858.59997558594</ele>
        <time>2019-10-30T08:42:35.000Z</time>
      </trkpt>
      <trkpt lat="45.34885" lon="4.61683">
        <ele>858.40002441406</ele>
        <time>2019-10-30T08:42:36.000Z</time>
      </trkpt>
      <trkpt lat="45.34885" lon="4.61681">
        <ele>858.40002441406</ele>
        <time>2019-10-30T08:42:37.000Z</time>
      </trkpt>
      <trkpt lat="45.34885" lon="4.61679">
        <ele>858.40002441406</ele>
        <time>2019-10-30T08:42:38.000Z</time>
      </trkpt>
      <trkpt lat="45.34885" lon="4.61676">
        <ele>858.59997558594</ele>
        <time>2019-10-30T08:42:39.000Z</time>
      </trkpt>
      <trkpt lat="45.34886" lon="4.61653">
        <ele>858.40002441406</ele>
        <time>2019-10-30T08:42:45.000Z</time>
      </trkpt>
      <trkpt lat="45.34889" lon="4.6162">
        <ele>857.59997558594</ele>
        <time>2019-10-30T08:42:52.000Z</time>
      </trkpt>
      <trkpt lat="45.3489" lon="4.61616">
        <ele>857.20001220703</ele>
        <time>2019-10-30T08:42:53.000Z</time>
      </trkpt>
      <trkpt lat="45.3489" lon="4.61612">
        <ele>857.20001220703</ele>
        <time>2019-10-30T08:42:54.000Z</time>
      </trkpt>
      <trkpt lat="45.34891" lon="4.61608">
        <ele>857</ele>
        <time>2019-10-30T08:42:55.000Z</time>
      </trkpt>
      <trkpt lat="45.34891" lon="4.61604">
        <ele>856.79998779297</ele>
        <time>2019-10-30T08:42:56.000Z</time>
      </trkpt>
      <trkpt lat="45.34892" lon="4.61594">
        <ele>856.79998779297</ele>
        <time>2019-10-30T08:42:58.000Z</time>
      </trkpt>
      <trkpt lat="45.34893" lon="4.61583">
        <ele>856.59997558594</ele>
        <time>2019-10-30T08:43:00.000Z</time>
      </trkpt>
      <trkpt lat="45.34894" lon="4.61572">
        <ele>856.59997558594</ele>
        <time>2019-10-30T08:43:02.000Z</time>
      </trkpt>
      <trkpt lat="45.34895" lon="4.61567">
        <ele>856.59997558594</ele>
        <time>2019-10-30T08:43:03.000Z</time>
      </trkpt>
      <trkpt lat="45.34895" lon="4.61562">
        <ele>856.59997558594</ele>
        <time>2019-10-30T08:43:04.000Z</time>
      </trkpt>
      <trkpt lat="45.34895" lon="4.61557">
        <ele>856.20001220703</ele>
        <time>2019-10-30T08:43:05.000Z</time>
      </trkpt>
      <trkpt lat="45.34895" lon="4.61554">
        <ele>856.20001220703</ele>
        <time>2019-10-30T08:43:06.000Z</time>
      </trkpt>
      <trkpt lat="45.34895" lon="4.61551">
        <ele>856</ele>
        <time>2019-10-30T08:43:07.000Z</time>
      </trkpt>
      <trkpt lat="45.34895" lon="4.61548">
        <ele>855.59997558594</ele>
        <time>2019-10-30T08:43:08.000Z</time>
      </trkpt>
      <trkpt lat="45.34895" lon="4.61547">
        <ele>855.79998779297</ele>
        <time>2019-10-30T08:43:09.000Z</time>
      </trkpt>
      <trkpt lat="45.34895" lon="4.61545">
        <ele>855.40002441406</ele>
        <time>2019-10-30T08:43:10.000Z</time>
      </trkpt>
      <trkpt lat="45.34895" lon="4.61545">
        <ele>855.20001220703</ele>
        <time>2019-10-30T08:43:11.000Z</time>
      </trkpt>
      <trkpt lat="45.34896" lon="4.61543">
        <ele>855</ele>
        <time>2019-10-30T08:43:12.000Z</time>
      </trkpt>
      <trkpt lat="45.34896" lon="4.61538">
        <ele>855</ele>
        <time>2019-10-30T08:43:15.000Z</time>
      </trkpt>
      <trkpt lat="45.34897" lon="4.61536">
        <ele>855</ele>
        <time>2019-10-30T08:43:16.000Z</time>
      </trkpt>
      <trkpt lat="45.34897" lon="4.61534">
        <ele>854.79998779297</ele>
        <time>2019-10-30T08:43:17.000Z</time>
      </trkpt>
      <trkpt lat="45.34897" lon="4.61528">
        <ele>854.79998779297</ele>
        <time>2019-10-30T08:43:19.000Z</time>
      </trkpt>
      <trkpt lat="45.34897" lon="4.61522">
        <ele>854.79998779297</ele>
        <time>2019-10-30T08:43:21.000Z</time>
      </trkpt>
      <trkpt lat="45.34899" lon="4.61515">
        <ele>854.59997558594</ele>
        <time>2019-10-30T08:43:23.000Z</time>
      </trkpt>
      <trkpt lat="45.34899" lon="4.61512">
        <ele>854.59997558594</ele>
        <time>2019-10-30T08:43:24.000Z</time>
      </trkpt>
      <trkpt lat="45.349" lon="4.6151">
        <ele>854.79998779297</ele>
        <time>2019-10-30T08:43:25.000Z</time>
      </trkpt>
      <trkpt lat="45.34902" lon="4.61502">
        <ele>854.59997558594</ele>
        <time>2019-10-30T08:43:28.000Z</time>
      </trkpt>
      <trkpt lat="45.34902" lon="4.61499">
        <ele>854.59997558594</ele>
        <time>2019-10-30T08:43:29.000Z</time>
      </trkpt>
      <trkpt lat="45.34903" lon="4.61495">
        <ele>854.59997558594</ele>
        <time>2019-10-30T08:43:30.000Z</time>
      </trkpt>
      <trkpt lat="45.34903" lon="4.61491">
        <ele>854.40002441406</ele>
        <time>2019-10-30T08:43:31.000Z</time>
      </trkpt>
      <trkpt lat="45.34905" lon="4.61476">
        <ele>854</ele>
        <time>2019-10-30T08:43:34.000Z</time>
      </trkpt>
      <trkpt lat="45.34905" lon="4.61472">
        <ele>854</ele>
        <time>2019-10-30T08:43:35.000Z</time>
      </trkpt>
      <trkpt lat="45.34906" lon="4.61469">
        <ele>854</ele>
        <time>2019-10-30T08:43:36.000Z</time>
      </trkpt>
      <trkpt lat="45.34906" lon="4.61465">
        <ele>854</ele>
        <time>2019-10-30T08:43:37.000Z</time>
      </trkpt>
      <trkpt lat="45.34907" lon="4.61462">
        <ele>853.79998779297</ele>
        <time>2019-10-30T08:43:38.000Z</time>
      </trkpt>
      <trkpt lat="45.34909" lon="4.61452">
        <ele>853.40002441406</ele>
        <time>2019-10-30T08:43:41.000Z</time>
      </trkpt>
      <trkpt lat="45.34909" lon="4.61449">
        <ele>853.20001220703</ele>
        <time>2019-10-30T08:43:42.000Z</time>
      </trkpt>
      <trkpt lat="45.3491" lon="4.61446">
        <ele>853</ele>
        <time>2019-10-30T08:43:43.000Z</time>
      </trkpt>
      <trkpt lat="45.34911" lon="4.61439">
        <ele>852.79998779297</ele>
        <time>2019-10-30T08:43:45.000Z</time>
      </trkpt>
      <trkpt lat="45.34912" lon="4.61428">
        <ele>852.79998779297</ele>
        <time>2019-10-30T08:43:48.000Z</time>
      </trkpt>
      <trkpt lat="45.34913" lon="4.61425">
        <ele>852.79998779297</ele>
        <time>2019-10-30T08:43:49.000Z</time>
      </trkpt>
      <trkpt lat="45.34915" lon="4.61418">
        <ele>852.59997558594</ele>
        <time>2019-10-30T08:43:51.000Z</time>
      </trkpt>
      <trkpt lat="45.34916" lon="4.6141">
        <ele>852.40002441406</ele>
        <time>2019-10-30T08:43:53.000Z</time>
      </trkpt>
      <trkpt lat="45.34917" lon="4.61405">
        <ele>852.40002441406</ele>
        <time>2019-10-30T08:43:54.000Z</time>
      </trkpt>
      <trkpt lat="45.34917" lon="4.61401">
        <ele>852.20001220703</ele>
        <time>2019-10-30T08:43:55.000Z</time>
      </trkpt>
      <trkpt lat="45.34917" lon="4.61396">
        <ele>852.20001220703</ele>
        <time>2019-10-30T08:43:56.000Z</time>
      </trkpt>
      <trkpt lat="45.34917" lon="4.61381">
        <ele>851.79998779297</ele>
        <time>2019-10-30T08:43:59.000Z</time>
      </trkpt>
      <trkpt lat="45.34916" lon="4.61377">
        <ele>851.79998779297</ele>
        <time>2019-10-30T08:44:00.000Z</time>
      </trkpt>
      <trkpt lat="45.34914" lon="4.61374">
        <ele>851.79998779297</ele>
        <time>2019-10-30T08:44:01.000Z</time>
      </trkpt>
      <trkpt lat="45.34913" lon="4.61371">
        <ele>851.20001220703</ele>
        <time>2019-10-30T08:44:02.000Z</time>
      </trkpt>
      <trkpt lat="45.34912" lon="4.61368">
        <ele>851</ele>
        <time>2019-10-30T08:44:03.000Z</time>
      </trkpt>
      <trkpt lat="45.34911" lon="4.61365">
        <ele>850.79998779297</ele>
        <time>2019-10-30T08:44:04.000Z</time>
      </trkpt>
      <trkpt lat="45.3491" lon="4.61362">
        <ele>850.79998779297</ele>
        <time>2019-10-30T08:44:05.000Z</time>
      </trkpt>
      <trkpt lat="45.34908" lon="4.61358">
        <ele>850.40002441406</ele>
        <time>2019-10-30T08:44:06.000Z</time>
      </trkpt>
      <trkpt lat="45.34907" lon="4.61355">
        <ele>850</ele>
        <time>2019-10-30T08:44:07.000Z</time>
      </trkpt>
      <trkpt lat="45.34906" lon="4.61351">
        <ele>850</ele>
        <time>2019-10-30T08:44:08.000Z</time>
      </trkpt>
      <trkpt lat="45.34905" lon="4.61348">
        <ele>849.79998779297</ele>
        <time>2019-10-30T08:44:09.000Z</time>
      </trkpt>
      <trkpt lat="45.34904" lon="4.61345">
        <ele>849.59997558594</ele>
        <time>2019-10-30T08:44:10.000Z</time>
      </trkpt>
      <trkpt lat="45.34902" lon="4.61342">
        <ele>849.40002441406</ele>
        <time>2019-10-30T08:44:11.000Z</time>
      </trkpt>
      <trkpt lat="45.349" lon="4.61339">
        <ele>849.59997558594</ele>
        <time>2019-10-30T08:44:12.000Z</time>
      </trkpt>
      <trkpt lat="45.34898" lon="4.61332">
        <ele>849</ele>
        <time>2019-10-30T08:44:14.000Z</time>
      </trkpt>
      <trkpt lat="45.34897" lon="4.61329">
        <ele>848.59997558594</ele>
        <time>2019-10-30T08:44:15.000Z</time>
      </trkpt>
      <trkpt lat="45.34896" lon="4.61327">
        <ele>848.59997558594</ele>
        <time>2019-10-30T08:44:16.000Z</time>
      </trkpt>
      <trkpt lat="45.34894" lon="4.61324">
        <ele>848.40002441406</ele>
        <time>2019-10-30T08:44:17.000Z</time>
      </trkpt>
      <trkpt lat="45.34893" lon="4.61321">
        <ele>848.40002441406</ele>
        <time>2019-10-30T08:44:18.000Z</time>
      </trkpt>
      <trkpt lat="45.3489" lon="4.61315">
        <ele>848</ele>
        <time>2019-10-30T08:44:20.000Z</time>
      </trkpt>
      <trkpt lat="45.34888" lon="4.61312">
        <ele>848</ele>
        <time>2019-10-30T08:44:21.000Z</time>
      </trkpt>
      <trkpt lat="45.34887" lon="4.61309">
        <ele>848</ele>
        <time>2019-10-30T08:44:22.000Z</time>
      </trkpt>
      <trkpt lat="45.34885" lon="4.61306">
        <ele>848</ele>
        <time>2019-10-30T08:44:23.000Z</time>
      </trkpt>
      <trkpt lat="45.34883" lon="4.61303">
        <ele>847.79998779297</ele>
        <time>2019-10-30T08:44:24.000Z</time>
      </trkpt>
      <trkpt lat="45.34882" lon="4.61299">
        <ele>847.59997558594</ele>
        <time>2019-10-30T08:44:25.000Z</time>
      </trkpt>
      <trkpt lat="45.34882" lon="4.61296">
        <ele>847.59997558594</ele>
        <time>2019-10-30T08:44:26.000Z</time>
      </trkpt>
      <trkpt lat="45.34882" lon="4.61293">
        <ele>847.59997558594</ele>
        <time>2019-10-30T08:44:27.000Z</time>
      </trkpt>
      <trkpt lat="45.34882" lon="4.61291">
        <ele>847.79998779297</ele>
        <time>2019-10-30T08:44:28.000Z</time>
      </trkpt>
      <trkpt lat="45.34882" lon="4.61288">
        <ele>847.59997558594</ele>
        <time>2019-10-30T08:44:29.000Z</time>
      </trkpt>
      <trkpt lat="45.34883" lon="4.61287">
        <ele>847.79998779297</ele>
        <time>2019-10-30T08:44:30.000Z</time>
      </trkpt>
      <trkpt lat="45.34884" lon="4.61286">
        <ele>847.79998779297</ele>
        <time>2019-10-30T08:44:31.000Z</time>
      </trkpt>
      <trkpt lat="45.34885" lon="4.61285">
        <ele>847.79998779297</ele>
        <time>2019-10-30T08:44:32.000Z</time>
      </trkpt>
      <trkpt lat="45.34885" lon="4.61285">
        <ele>847.79998779297</ele>
        <time>2019-10-30T08:44:33.000Z</time>
      </trkpt>
      <trkpt lat="45.34886" lon="4.61285">
        <ele>847.59997558594</ele>
        <time>2019-10-30T08:44:34.000Z</time>
      </trkpt>
      <trkpt lat="45.34885" lon="4.61284">
        <ele>848</ele>
        <time>2019-10-30T08:44:38.000Z</time>
      </trkpt>
      <trkpt lat="45.34885" lon="4.61283">
        <ele>848</ele>
        <time>2019-10-30T08:44:39.000Z</time>
      </trkpt>
      <trkpt lat="45.34886" lon="4.61282">
        <ele>848.40002441406</ele>
        <time>2019-10-30T08:44:46.000Z</time>
      </trkpt>
      <trkpt lat="45.34886" lon="4.61281">
        <ele>848.40002441406</ele>
        <time>2019-10-30T08:44:47.000Z</time>
      </trkpt>
      <trkpt lat="45.34887" lon="4.61279">
        <ele>848.40002441406</ele>
        <time>2019-10-30T08:44:48.000Z</time>
      </trkpt>
      <trkpt lat="45.34887" lon="4.61277">
        <ele>848.40002441406</ele>
        <time>2019-10-30T08:44:49.000Z</time>
      </trkpt>
      <trkpt lat="45.34888" lon="4.61275">
        <ele>848.59997558594</ele>
        <time>2019-10-30T08:44:50.000Z</time>
      </trkpt>
      <trkpt lat="45.34889" lon="4.61273">
        <ele>848.59997558594</ele>
        <time>2019-10-30T08:44:51.000Z</time>
      </trkpt>
      <trkpt lat="45.3489" lon="4.61271">
        <ele>848.79998779297</ele>
        <time>2019-10-30T08:44:52.000Z</time>
      </trkpt>
      <trkpt lat="45.3489" lon="4.61269">
        <ele>848.79998779297</ele>
        <time>2019-10-30T08:44:53.000Z</time>
      </trkpt>
      <trkpt lat="45.3489" lon="4.61267">
        <ele>848.79998779297</ele>
        <time>2019-10-30T08:44:54.000Z</time>
      </trkpt>
      <trkpt lat="45.3489" lon="4.61264">
        <ele>848.79998779297</ele>
        <time>2019-10-30T08:44:55.000Z</time>
      </trkpt>
      <trkpt lat="45.34888" lon="4.61262">
        <ele>848.79998779297</ele>
        <time>2019-10-30T08:44:56.000Z</time>
      </trkpt>
      <trkpt lat="45.34886" lon="4.61259">
        <ele>848.79998779297</ele>
        <time>2019-10-30T08:44:57.000Z</time>
      </trkpt>
      <trkpt lat="45.34883" lon="4.61259">
        <ele>848.79998779297</ele>
        <time>2019-10-30T08:44:58.000Z</time>
      </trkpt>
      <trkpt lat="45.34879" lon="4.61259">
        <ele>849</ele>
        <time>2019-10-30T08:44:59.000Z</time>
      </trkpt>
      <trkpt lat="45.34875" lon="4.61261">
        <ele>848.59997558594</ele>
        <time>2019-10-30T08:45:00.000Z</time>
      </trkpt>
      <trkpt lat="45.34867" lon="4.61265">
        <ele>848.79998779297</ele>
        <time>2019-10-30T08:45:02.000Z</time>
      </trkpt>
      <trkpt lat="45.34862" lon="4.61267">
        <ele>848.59997558594</ele>
        <time>2019-10-30T08:45:03.000Z</time>
      </trkpt>
      <trkpt lat="45.34852" lon="4.61271">
        <ele>848.40002441406</ele>
        <time>2019-10-30T08:45:05.000Z</time>
      </trkpt>
      <trkpt lat="45.34844" lon="4.61272">
        <ele>848.20001220703</ele>
        <time>2019-10-30T08:45:07.000Z</time>
      </trkpt>
      <trkpt lat="45.34841" lon="4.61272">
        <ele>847.79998779297</ele>
        <time>2019-10-30T08:45:08.000Z</time>
      </trkpt>
      <trkpt lat="45.34839" lon="4.61269">
        <ele>847.20001220703</ele>
        <time>2019-10-30T08:45:09.000Z</time>
      </trkpt>
      <trkpt lat="45.34838" lon="4.61266">
        <ele>846.59997558594</ele>
        <time>2019-10-30T08:45:10.000Z</time>
      </trkpt>
      <trkpt lat="45.34837" lon="4.61262">
        <ele>846.40002441406</ele>
        <time>2019-10-30T08:45:11.000Z</time>
      </trkpt>
      <trkpt lat="45.34835" lon="4.61259">
        <ele>845.59997558594</ele>
        <time>2019-10-30T08:45:12.000Z</time>
      </trkpt>
      <trkpt lat="45.34832" lon="4.61257">
        <ele>845.20001220703</ele>
        <time>2019-10-30T08:45:13.000Z</time>
      </trkpt>
      <trkpt lat="45.34828" lon="4.61256">
        <ele>845.20001220703</ele>
        <time>2019-10-30T08:45:14.000Z</time>
      </trkpt>
      <trkpt lat="45.34825" lon="4.61256">
        <ele>844.40002441406</ele>
        <time>2019-10-30T08:45:15.000Z</time>
      </trkpt>
      <trkpt lat="45.34821" lon="4.61255">
        <ele>844</ele>
        <time>2019-10-30T08:45:16.000Z</time>
      </trkpt>
      <trkpt lat="45.34817" lon="4.61254">
        <ele>843.79998779297</ele>
        <time>2019-10-30T08:45:17.000Z</time>
      </trkpt>
      <trkpt lat="45.3481" lon="4.61251">
        <ele>843.59997558594</ele>
        <time>2019-10-30T08:45:19.000Z</time>
      </trkpt>
      <trkpt lat="45.34807" lon="4.61248">
        <ele>843.20001220703</ele>
        <time>2019-10-30T08:45:20.000Z</time>
      </trkpt>
      <trkpt lat="45.34803" lon="4.61245">
        <ele>843</ele>
        <time>2019-10-30T08:45:21.000Z</time>
      </trkpt>
      <trkpt lat="45.348" lon="4.61241">
        <ele>843</ele>
        <time>2019-10-30T08:45:22.000Z</time>
      </trkpt>
      <trkpt lat="45.34798" lon="4.61237">
        <ele>842.59997558594</ele>
        <time>2019-10-30T08:45:23.000Z</time>
      </trkpt>
      <trkpt lat="45.34795" lon="4.61233">
        <ele>842.59997558594</ele>
        <time>2019-10-30T08:45:24.000Z</time>
      </trkpt>
      <trkpt lat="45.34792" lon="4.61229">
        <ele>842</ele>
        <time>2019-10-30T08:45:25.000Z</time>
      </trkpt>
      <trkpt lat="45.34789" lon="4.61225">
        <ele>841.79998779297</ele>
        <time>2019-10-30T08:45:26.000Z</time>
      </trkpt>
      <trkpt lat="45.34787" lon="4.61221">
        <ele>841.40002441406</ele>
        <time>2019-10-30T08:45:27.000Z</time>
      </trkpt>
      <trkpt lat="45.34785" lon="4.61218">
        <ele>841</ele>
        <time>2019-10-30T08:45:28.000Z</time>
      </trkpt>
      <trkpt lat="45.34784" lon="4.61216">
        <ele>840</ele>
        <time>2019-10-30T08:45:29.000Z</time>
      </trkpt>
      <trkpt lat="45.34782" lon="4.61214">
        <ele>839.59997558594</ele>
        <time>2019-10-30T08:45:30.000Z</time>
      </trkpt>
      <trkpt lat="45.34781" lon="4.61213">
        <ele>839</ele>
        <time>2019-10-30T08:45:31.000Z</time>
      </trkpt>
      <trkpt lat="45.3478" lon="4.6121">
        <ele>838.79998779297</ele>
        <time>2019-10-30T08:45:32.000Z</time>
      </trkpt>
      <trkpt lat="45.34779" lon="4.61208">
        <ele>838.20001220703</ele>
        <time>2019-10-30T08:45:33.000Z</time>
      </trkpt>
      <trkpt lat="45.34778" lon="4.61205">
        <ele>838</ele>
        <time>2019-10-30T08:45:34.000Z</time>
      </trkpt>
      <trkpt lat="45.34777" lon="4.61204">
        <ele>837.79998779297</ele>
        <time>2019-10-30T08:45:35.000Z</time>
      </trkpt>
      <trkpt lat="45.34777" lon="4.61204">
        <ele>835.79998779297</ele>
        <time>2019-10-30T08:45:57.000Z</time>
      </trkpt>
      <trkpt lat="45.34777" lon="4.61204">
        <ele>835.79998779297</ele>
        <time>2019-10-30T08:46:18.000Z</time>
      </trkpt>
      <trkpt lat="45.34777" lon="4.61204">
        <ele>835.79998779297</ele>
        <time>2019-10-30T08:46:19.000Z</time>
      </trkpt>
      <trkpt lat="45.34777" lon="4.61204">
        <ele>835.40002441406</ele>
        <time>2019-10-30T08:46:55.000Z</time>
      </trkpt>
      <trkpt lat="45.34774" lon="4.61196">
        <ele>835.40002441406</ele>
        <time>2019-10-30T08:47:02.000Z</time>
      </trkpt>
      <trkpt lat="45.34772" lon="4.61192">
        <ele>835.20001220703</ele>
        <time>2019-10-30T08:47:03.000Z</time>
      </trkpt>
      <trkpt lat="45.34771" lon="4.61187">
        <ele>835.40002441406</ele>
        <time>2019-10-30T08:47:04.000Z</time>
      </trkpt>
      <trkpt lat="45.34766" lon="4.61179">
        <ele>835.20001220703</ele>
        <time>2019-10-30T08:47:06.000Z</time>
      </trkpt>
      <trkpt lat="45.34763" lon="4.61175">
        <ele>835.40002441406</ele>
        <time>2019-10-30T08:47:07.000Z</time>
      </trkpt>
      <trkpt lat="45.34757" lon="4.61167">
        <ele>835</ele>
        <time>2019-10-30T08:47:09.000Z</time>
      </trkpt>
      <trkpt lat="45.34749" lon="4.6116">
        <ele>834.59997558594</ele>
        <time>2019-10-30T08:47:11.000Z</time>
      </trkpt>
      <trkpt lat="45.34745" lon="4.61156">
        <ele>834.40002441406</ele>
        <time>2019-10-30T08:47:12.000Z</time>
      </trkpt>
      <trkpt lat="45.34742" lon="4.61153">
        <ele>833.59997558594</ele>
        <time>2019-10-30T08:47:13.000Z</time>
      </trkpt>
      <trkpt lat="45.34738" lon="4.61149">
        <ele>833.40002441406</ele>
        <time>2019-10-30T08:47:14.000Z</time>
      </trkpt>
      <trkpt lat="45.34734" lon="4.61145">
        <ele>833</ele>
        <time>2019-10-30T08:47:15.000Z</time>
      </trkpt>
      <trkpt lat="45.3473" lon="4.6114">
        <ele>832.40002441406</ele>
        <time>2019-10-30T08:47:16.000Z</time>
      </trkpt>
      <trkpt lat="45.34724" lon="4.61136">
        <ele>831.59997558594</ele>
        <time>2019-10-30T08:47:17.000Z</time>
      </trkpt>
      <trkpt lat="45.34719" lon="4.61132">
        <ele>831.20001220703</ele>
        <time>2019-10-30T08:47:18.000Z</time>
      </trkpt>
      <trkpt lat="45.34709" lon="4.61126">
        <ele>830</ele>
        <time>2019-10-30T08:47:20.000Z</time>
      </trkpt>
      <trkpt lat="45.34704" lon="4.61123">
        <ele>829.59997558594</ele>
        <time>2019-10-30T08:47:21.000Z</time>
      </trkpt>
      <trkpt lat="45.347" lon="4.61121">
        <ele>829.40002441406</ele>
        <time>2019-10-30T08:47:22.000Z</time>
      </trkpt>
      <trkpt lat="45.34696" lon="4.61119">
        <ele>828.20001220703</ele>
        <time>2019-10-30T08:47:23.000Z</time>
      </trkpt>
      <trkpt lat="45.34692" lon="4.61117">
        <ele>828.20001220703</ele>
        <time>2019-10-30T08:47:24.000Z</time>
      </trkpt>
      <trkpt lat="45.34688" lon="4.61115">
        <ele>827.20001220703</ele>
        <time>2019-10-30T08:47:25.000Z</time>
      </trkpt>
      <trkpt lat="45.34685" lon="4.61113">
        <ele>826.59997558594</ele>
        <time>2019-10-30T08:47:26.000Z</time>
      </trkpt>
      <trkpt lat="45.34681" lon="4.6111">
        <ele>825.79998779297</ele>
        <time>2019-10-30T08:47:27.000Z</time>
      </trkpt>
      <trkpt lat="45.34678" lon="4.61108">
        <ele>825.40002441406</ele>
        <time>2019-10-30T08:47:28.000Z</time>
      </trkpt>
      <trkpt lat="45.34675" lon="4.61105">
        <ele>824.59997558594</ele>
        <time>2019-10-30T08:47:29.000Z</time>
      </trkpt>
      <trkpt lat="45.34672" lon="4.61102">
        <ele>824.40002441406</ele>
        <time>2019-10-30T08:47:30.000Z</time>
      </trkpt>
      <trkpt lat="45.34669" lon="4.611">
        <ele>824</ele>
        <time>2019-10-30T08:47:31.000Z</time>
      </trkpt>
      <trkpt lat="45.34665" lon="4.61097">
        <ele>823.59997558594</ele>
        <time>2019-10-30T08:47:32.000Z</time>
      </trkpt>
      <trkpt lat="45.34662" lon="4.61095">
        <ele>823.20001220703</ele>
        <time>2019-10-30T08:47:33.000Z</time>
      </trkpt>
      <trkpt lat="45.34659" lon="4.61094">
        <ele>822.79998779297</ele>
        <time>2019-10-30T08:47:34.000Z</time>
      </trkpt>
      <trkpt lat="45.34656" lon="4.61093">
        <ele>822.40002441406</ele>
        <time>2019-10-30T08:47:35.000Z</time>
      </trkpt>
      <trkpt lat="45.34653" lon="4.61091">
        <ele>822</ele>
        <time>2019-10-30T08:47:36.000Z</time>
      </trkpt>
      <trkpt lat="45.3465" lon="4.61089">
        <ele>821.40002441406</ele>
        <time>2019-10-30T08:47:37.000Z</time>
      </trkpt>
      <trkpt lat="45.34648" lon="4.61086">
        <ele>820.59997558594</ele>
        <time>2019-10-30T08:47:38.000Z</time>
      </trkpt>
      <trkpt lat="45.34646" lon="4.61083">
        <ele>820.20001220703</ele>
        <time>2019-10-30T08:47:39.000Z</time>
      </trkpt>
      <trkpt lat="45.34644" lon="4.61079">
        <ele>819.59997558594</ele>
        <time>2019-10-30T08:47:40.000Z</time>
      </trkpt>
      <trkpt lat="45.34639" lon="4.6107">
        <ele>818</ele>
        <time>2019-10-30T08:47:42.000Z</time>
      </trkpt>
      <trkpt lat="45.34631" lon="4.61057">
        <ele>817</ele>
        <time>2019-10-30T08:47:45.000Z</time>
      </trkpt>
      <trkpt lat="45.34629" lon="4.61053">
        <ele>816.59997558594</ele>
        <time>2019-10-30T08:47:46.000Z</time>
      </trkpt>
      <trkpt lat="45.34627" lon="4.6105">
        <ele>816.20001220703</ele>
        <time>2019-10-30T08:47:47.000Z</time>
      </trkpt>
      <trkpt lat="45.34626" lon="4.61047">
        <ele>815.59997558594</ele>
        <time>2019-10-30T08:47:48.000Z</time>
      </trkpt>
      <trkpt lat="45.34624" lon="4.61044">
        <ele>815.20001220703</ele>
        <time>2019-10-30T08:47:49.000Z</time>
      </trkpt>
      <trkpt lat="45.34622" lon="4.6104">
        <ele>815.20001220703</ele>
        <time>2019-10-30T08:47:50.000Z</time>
      </trkpt>
      <trkpt lat="45.3462" lon="4.61035">
        <ele>814.59997558594</ele>
        <time>2019-10-30T08:47:51.000Z</time>
      </trkpt>
      <trkpt lat="45.34619" lon="4.6103">
        <ele>814</ele>
        <time>2019-10-30T08:47:52.000Z</time>
      </trkpt>
      <trkpt lat="45.34618" lon="4.61023">
        <ele>813.40002441406</ele>
        <time>2019-10-30T08:47:53.000Z</time>
      </trkpt>
      <trkpt lat="45.34618" lon="4.61016">
        <ele>813</ele>
        <time>2019-10-30T08:47:54.000Z</time>
      </trkpt>
      <trkpt lat="45.34617" lon="4.61004">
        <ele>812.20001220703</ele>
        <time>2019-10-30T08:47:56.000Z</time>
      </trkpt>
      <trkpt lat="45.34617" lon="4.60999">
        <ele>812</ele>
        <time>2019-10-30T08:47:57.000Z</time>
      </trkpt>
      <trkpt lat="45.34617" lon="4.60994">
        <ele>811.79998779297</ele>
        <time>2019-10-30T08:47:58.000Z</time>
      </trkpt>
      <trkpt lat="45.34618" lon="4.6099">
        <ele>811.59997558594</ele>
        <time>2019-10-30T08:47:59.000Z</time>
      </trkpt>
      <trkpt lat="45.34618" lon="4.60986">
        <ele>810.79998779297</ele>
        <time>2019-10-30T08:48:00.000Z</time>
      </trkpt>
      <trkpt lat="45.34618" lon="4.60982">
        <ele>810</ele>
        <time>2019-10-30T08:48:01.000Z</time>
      </trkpt>
      <trkpt lat="45.34619" lon="4.60978">
        <ele>809</ele>
        <time>2019-10-30T08:48:02.000Z</time>
      </trkpt>
      <trkpt lat="45.34619" lon="4.60974">
        <ele>808.20001220703</ele>
        <time>2019-10-30T08:48:03.000Z</time>
      </trkpt>
      <trkpt lat="45.34619" lon="4.60971">
        <ele>807.79998779297</ele>
        <time>2019-10-30T08:48:04.000Z</time>
      </trkpt>
      <trkpt lat="45.3462" lon="4.60968">
        <ele>806.79998779297</ele>
        <time>2019-10-30T08:48:05.000Z</time>
      </trkpt>
      <trkpt lat="45.34621" lon="4.60964">
        <ele>806.20001220703</ele>
        <time>2019-10-30T08:48:06.000Z</time>
      </trkpt>
      <trkpt lat="45.34623" lon="4.60959">
        <ele>805.79998779297</ele>
        <time>2019-10-30T08:48:08.000Z</time>
      </trkpt>
      <trkpt lat="45.34624" lon="4.60957">
        <ele>804.79998779297</ele>
        <time>2019-10-30T08:48:09.000Z</time>
      </trkpt>
      <trkpt lat="45.34624" lon="4.60956">
        <ele>804.40002441406</ele>
        <time>2019-10-30T08:48:10.000Z</time>
      </trkpt>
      <trkpt lat="45.34625" lon="4.60953">
        <ele>803.59997558594</ele>
        <time>2019-10-30T08:48:11.000Z</time>
      </trkpt>
      <trkpt lat="45.34625" lon="4.6095">
        <ele>803</ele>
        <time>2019-10-30T08:48:12.000Z</time>
      </trkpt>
      <trkpt lat="45.34625" lon="4.60945">
        <ele>802.40002441406</ele>
        <time>2019-10-30T08:48:13.000Z</time>
      </trkpt>
      <trkpt lat="45.34625" lon="4.6094">
        <ele>802</ele>
        <time>2019-10-30T08:48:14.000Z</time>
      </trkpt>
      <trkpt lat="45.34625" lon="4.60933">
        <ele>801.59997558594</ele>
        <time>2019-10-30T08:48:15.000Z</time>
      </trkpt>
      <trkpt lat="45.34627" lon="4.60912">
        <ele>801</ele>
        <time>2019-10-30T08:48:18.000Z</time>
      </trkpt>
      <trkpt lat="45.34628" lon="4.60908">
        <ele>800.79998779297</ele>
        <time>2019-10-30T08:48:19.000Z</time>
      </trkpt>
      <trkpt lat="45.34629" lon="4.60904">
        <ele>800.59997558594</ele>
        <time>2019-10-30T08:48:20.000Z</time>
      </trkpt>
      <trkpt lat="45.34629" lon="4.60901">
        <ele>800.20001220703</ele>
        <time>2019-10-30T08:48:21.000Z</time>
      </trkpt>
      <trkpt lat="45.34629" lon="4.60899">
        <ele>800</ele>
        <time>2019-10-30T08:48:22.000Z</time>
      </trkpt>
      <trkpt lat="45.34629" lon="4.60898">
        <ele>799.40002441406</ele>
        <time>2019-10-30T08:48:23.000Z</time>
      </trkpt>
      <trkpt lat="45.34629" lon="4.60896">
        <ele>798.40002441406</ele>
        <time>2019-10-30T08:48:24.000Z</time>
      </trkpt>
      <trkpt lat="45.34629" lon="4.60893">
        <ele>797.59997558594</ele>
        <time>2019-10-30T08:48:25.000Z</time>
      </trkpt>
      <trkpt lat="45.3463" lon="4.60891">
        <ele>797.40002441406</ele>
        <time>2019-10-30T08:48:26.000Z</time>
      </trkpt>
      <trkpt lat="45.34631" lon="4.6089">
        <ele>797.20001220703</ele>
        <time>2019-10-30T08:48:27.000Z</time>
      </trkpt>
      <trkpt lat="45.34632" lon="4.60889">
        <ele>797.20001220703</ele>
        <time>2019-10-30T08:48:28.000Z</time>
      </trkpt>
      <trkpt lat="45.34633" lon="4.60887">
        <ele>797</ele>
        <time>2019-10-30T08:48:29.000Z</time>
      </trkpt>
      <trkpt lat="45.34635" lon="4.60885">
        <ele>797</ele>
        <time>2019-10-30T08:48:30.000Z</time>
      </trkpt>
      <trkpt lat="45.34636" lon="4.60883">
        <ele>797</ele>
        <time>2019-10-30T08:48:31.000Z</time>
      </trkpt>
      <trkpt lat="45.34637" lon="4.60882">
        <ele>797</ele>
        <time>2019-10-30T08:48:32.000Z</time>
      </trkpt>
      <trkpt lat="45.34639" lon="4.60879">
        <ele>797</ele>
        <time>2019-10-30T08:48:33.000Z</time>
      </trkpt>
      <trkpt lat="45.3464" lon="4.60877">
        <ele>797</ele>
        <time>2019-10-30T08:48:34.000Z</time>
      </trkpt>
      <trkpt lat="45.34641" lon="4.60875">
        <ele>797</ele>
        <time>2019-10-30T08:48:35.000Z</time>
      </trkpt>
      <trkpt lat="45.34642" lon="4.60872">
        <ele>797.40002441406</ele>
        <time>2019-10-30T08:48:36.000Z</time>
      </trkpt>
      <trkpt lat="45.34643" lon="4.6087">
        <ele>797.40002441406</ele>
        <time>2019-10-30T08:48:37.000Z</time>
      </trkpt>
      <trkpt lat="45.34643" lon="4.60869">
        <ele>797.59997558594</ele>
        <time>2019-10-30T08:48:38.000Z</time>
      </trkpt>
      <trkpt lat="45.34644" lon="4.60868">
        <ele>797.79998779297</ele>
        <time>2019-10-30T08:48:39.000Z</time>
      </trkpt>
      <trkpt lat="45.34645" lon="4.60865">
        <ele>801</ele>
        <time>2019-10-30T08:48:49.000Z</time>
      </trkpt>
      <trkpt lat="45.34647" lon="4.60863">
        <ele>801</ele>
        <time>2019-10-30T08:48:54.000Z</time>
      </trkpt>
      <trkpt lat="45.34648" lon="4.60863">
        <ele>801</ele>
        <time>2019-10-30T08:48:55.000Z</time>
      </trkpt>
      <trkpt lat="45.34648" lon="4.60862">
        <ele>801.20001220703</ele>
        <time>2019-10-30T08:48:56.000Z</time>
      </trkpt>
      <trkpt lat="45.34649" lon="4.60861">
        <ele>801</ele>
        <time>2019-10-30T08:48:57.000Z</time>
      </trkpt>
      <trkpt lat="45.3465" lon="4.6086">
        <ele>801</ele>
        <time>2019-10-30T08:48:58.000Z</time>
      </trkpt>
      <trkpt lat="45.3465" lon="4.6086">
        <ele>801.20001220703</ele>
        <time>2019-10-30T08:48:59.000Z</time>
      </trkpt>
      <trkpt lat="45.34651" lon="4.60859">
        <ele>801.20001220703</ele>
        <time>2019-10-30T08:49:00.000Z</time>
      </trkpt>
      <trkpt lat="45.34652" lon="4.60858">
        <ele>801.40002441406</ele>
        <time>2019-10-30T08:49:01.000Z</time>
      </trkpt>
      <trkpt lat="45.34652" lon="4.60857">
        <ele>801.59997558594</ele>
        <time>2019-10-30T08:49:02.000Z</time>
      </trkpt>
      <trkpt lat="45.34653" lon="4.60857">
        <ele>801.79998779297</ele>
        <time>2019-10-30T08:49:03.000Z</time>
      </trkpt>
      <trkpt lat="45.34653" lon="4.60856">
        <ele>802</ele>
        <time>2019-10-30T08:49:04.000Z</time>
      </trkpt>
      <trkpt lat="45.34654" lon="4.60856">
        <ele>802</ele>
        <time>2019-10-30T08:49:05.000Z</time>
      </trkpt>
      <trkpt lat="45.34654" lon="4.60855">
        <ele>802</ele>
        <time>2019-10-30T08:49:06.000Z</time>
      </trkpt>
      <trkpt lat="45.34655" lon="4.60854">
        <ele>802.20001220703</ele>
        <time>2019-10-30T08:49:07.000Z</time>
      </trkpt>
      <trkpt lat="45.34655" lon="4.60854">
        <ele>802.20001220703</ele>
        <time>2019-10-30T08:49:08.000Z</time>
      </trkpt>
      <trkpt lat="45.34656" lon="4.60853">
        <ele>802.40002441406</ele>
        <time>2019-10-30T08:49:09.000Z</time>
      </trkpt>
      <trkpt lat="45.34656" lon="4.60852">
        <ele>802.40002441406</ele>
        <time>2019-10-30T08:49:10.000Z</time>
      </trkpt>
      <trkpt lat="45.34656" lon="4.60851">
        <ele>802.79998779297</ele>
        <time>2019-10-30T08:49:11.000Z</time>
      </trkpt>
      <trkpt lat="45.34657" lon="4.60851">
        <ele>803</ele>
        <time>2019-10-30T08:49:12.000Z</time>
      </trkpt>
      <trkpt lat="45.34657" lon="4.6085">
        <ele>803.40002441406</ele>
        <time>2019-10-30T08:49:13.000Z</time>
      </trkpt>
      <trkpt lat="45.34657" lon="4.6085">
        <ele>803.59997558594</ele>
        <time>2019-10-30T08:49:14.000Z</time>
      </trkpt>
      <trkpt lat="45.34658" lon="4.60849">
        <ele>803.79998779297</ele>
        <time>2019-10-30T08:49:15.000Z</time>
      </trkpt>
      <trkpt lat="45.34658" lon="4.60848">
        <ele>803.79998779297</ele>
        <time>2019-10-30T08:49:16.000Z</time>
      </trkpt>
      <trkpt lat="45.34659" lon="4.60847">
        <ele>804</ele>
        <time>2019-10-30T08:49:17.000Z</time>
      </trkpt>
      <trkpt lat="45.34659" lon="4.60847">
        <ele>804.40002441406</ele>
        <time>2019-10-30T08:49:18.000Z</time>
      </trkpt>
      <trkpt lat="45.3466" lon="4.60846">
        <ele>804.59997558594</ele>
        <time>2019-10-30T08:49:19.000Z</time>
      </trkpt>
      <trkpt lat="45.3466" lon="4.60845">
        <ele>804.79998779297</ele>
        <time>2019-10-30T08:49:20.000Z</time>
      </trkpt>
      <trkpt lat="45.3466" lon="4.60845">
        <ele>804.79998779297</ele>
        <time>2019-10-30T08:49:21.000Z</time>
      </trkpt>
      <trkpt lat="45.34661" lon="4.60844">
        <ele>805</ele>
        <time>2019-10-30T08:49:22.000Z</time>
      </trkpt>
      <trkpt lat="45.34661" lon="4.60843">
        <ele>805.20001220703</ele>
        <time>2019-10-30T08:49:23.000Z</time>
      </trkpt>
      <trkpt lat="45.34661" lon="4.60843">
        <ele>805.40002441406</ele>
        <time>2019-10-30T08:49:24.000Z</time>
      </trkpt>
      <trkpt lat="45.34662" lon="4.60842">
        <ele>805.79998779297</ele>
        <time>2019-10-30T08:49:26.000Z</time>
      </trkpt>
      <trkpt lat="45.34662" lon="4.60841">
        <ele>806</ele>
        <time>2019-10-30T08:49:27.000Z</time>
      </trkpt>
      <trkpt lat="45.34662" lon="4.60839">
        <ele>806.20001220703</ele>
        <time>2019-10-30T08:49:28.000Z</time>
      </trkpt>
      <trkpt lat="45.34662" lon="4.60838">
        <ele>806.40002441406</ele>
        <time>2019-10-30T08:49:29.000Z</time>
      </trkpt>
      <trkpt lat="45.34662" lon="4.60838">
        <ele>806.40002441406</ele>
        <time>2019-10-30T08:49:30.000Z</time>
      </trkpt>
      <trkpt lat="45.34661" lon="4.60838">
        <ele>806.79998779297</ele>
        <time>2019-10-30T08:49:31.000Z</time>
      </trkpt>
      <trkpt lat="45.34662" lon="4.60837">
        <ele>807</ele>
        <time>2019-10-30T08:49:32.000Z</time>
      </trkpt>
      <trkpt lat="45.34661" lon="4.60835">
        <ele>807.79998779297</ele>
        <time>2019-10-30T08:49:45.000Z</time>
      </trkpt>
      <trkpt lat="45.3466" lon="4.60831">
        <ele>808</ele>
        <time>2019-10-30T08:49:49.000Z</time>
      </trkpt>
      <trkpt lat="45.3466" lon="4.6083">
        <ele>807.79998779297</ele>
        <time>2019-10-30T08:49:50.000Z</time>
      </trkpt>
      <trkpt lat="45.3466" lon="4.60829">
        <ele>807.79998779297</ele>
        <time>2019-10-30T08:49:51.000Z</time>
      </trkpt>
      <trkpt lat="45.34659" lon="4.60828">
        <ele>808</ele>
        <time>2019-10-30T08:49:52.000Z</time>
      </trkpt>
      <trkpt lat="45.34659" lon="4.60828">
        <ele>808</ele>
        <time>2019-10-30T08:49:53.000Z</time>
      </trkpt>
      <trkpt lat="45.34659" lon="4.60827">
        <ele>808</ele>
        <time>2019-10-30T08:49:54.000Z</time>
      </trkpt>
      <trkpt lat="45.34659" lon="4.60826">
        <ele>808</ele>
        <time>2019-10-30T08:49:55.000Z</time>
      </trkpt>
      <trkpt lat="45.34659" lon="4.60825">
        <ele>808</ele>
        <time>2019-10-30T08:49:56.000Z</time>
      </trkpt>
      <trkpt lat="45.34659" lon="4.60824">
        <ele>808</ele>
        <time>2019-10-30T08:49:57.000Z</time>
      </trkpt>
      <trkpt lat="45.3466" lon="4.60823">
        <ele>808</ele>
        <time>2019-10-30T08:49:58.000Z</time>
      </trkpt>
      <trkpt lat="45.3466" lon="4.60822">
        <ele>808</ele>
        <time>2019-10-30T08:49:59.000Z</time>
      </trkpt>
      <trkpt lat="45.34661" lon="4.60821">
        <ele>808</ele>
        <time>2019-10-30T08:50:00.000Z</time>
      </trkpt>
      <trkpt lat="45.34661" lon="4.6082">
        <ele>808.20001220703</ele>
        <time>2019-10-30T08:50:01.000Z</time>
      </trkpt>
      <trkpt lat="45.3466" lon="4.60819">
        <ele>808.40002441406</ele>
        <time>2019-10-30T08:50:02.000Z</time>
      </trkpt>
      <trkpt lat="45.3466" lon="4.60818">
        <ele>808.40002441406</ele>
        <time>2019-10-30T08:50:03.000Z</time>
      </trkpt>
      <trkpt lat="45.3466" lon="4.60816">
        <ele>808.40002441406</ele>
        <time>2019-10-30T08:50:04.000Z</time>
      </trkpt>
      <trkpt lat="45.34661" lon="4.60815">
        <ele>808.40002441406</ele>
        <time>2019-10-30T08:50:05.000Z</time>
      </trkpt>
      <trkpt lat="45.34661" lon="4.60814">
        <ele>808.59997558594</ele>
        <time>2019-10-30T08:50:06.000Z</time>
      </trkpt>
      <trkpt lat="45.34662" lon="4.60808">
        <ele>808.59997558594</ele>
        <time>2019-10-30T08:50:09.000Z</time>
      </trkpt>
      <trkpt lat="45.34662" lon="4.60807">
        <ele>808.79998779297</ele>
        <time>2019-10-30T08:50:10.000Z</time>
      </trkpt>
      <trkpt lat="45.34662" lon="4.60805">
        <ele>808.79998779297</ele>
        <time>2019-10-30T08:50:11.000Z</time>
      </trkpt>
      <trkpt lat="45.34662" lon="4.60803">
        <ele>808.79998779297</ele>
        <time>2019-10-30T08:50:12.000Z</time>
      </trkpt>
      <trkpt lat="45.34662" lon="4.60801">
        <ele>808.79998779297</ele>
        <time>2019-10-30T08:50:13.000Z</time>
      </trkpt>
      <trkpt lat="45.34662" lon="4.60799">
        <ele>808.79998779297</ele>
        <time>2019-10-30T08:50:14.000Z</time>
      </trkpt>
      <trkpt lat="45.34663" lon="4.60798">
        <ele>809</ele>
        <time>2019-10-30T08:50:15.000Z</time>
      </trkpt>
      <trkpt lat="45.34663" lon="4.60796">
        <ele>809</ele>
        <time>2019-10-30T08:50:16.000Z</time>
      </trkpt>
      <trkpt lat="45.34662" lon="4.60794">
        <ele>809.20001220703</ele>
        <time>2019-10-30T08:50:17.000Z</time>
      </trkpt>
      <trkpt lat="45.34662" lon="4.60793">
        <ele>809.20001220703</ele>
        <time>2019-10-30T08:50:18.000Z</time>
      </trkpt>
      <trkpt lat="45.34661" lon="4.60791">
        <ele>809.20001220703</ele>
        <time>2019-10-30T08:50:19.000Z</time>
      </trkpt>
      <trkpt lat="45.3466" lon="4.6079">
        <ele>809.20001220703</ele>
        <time>2019-10-30T08:50:20.000Z</time>
      </trkpt>
      <trkpt lat="45.3466" lon="4.60789">
        <ele>809.20001220703</ele>
        <time>2019-10-30T08:50:21.000Z</time>
      </trkpt>
      <trkpt lat="45.34659" lon="4.60788">
        <ele>809.40002441406</ele>
        <time>2019-10-30T08:50:22.000Z</time>
      </trkpt>
      <trkpt lat="45.34657" lon="4.60785">
        <ele>809.79998779297</ele>
        <time>2019-10-30T08:50:24.000Z</time>
      </trkpt>
      <trkpt lat="45.34656" lon="4.60784">
        <ele>810</ele>
        <time>2019-10-30T08:50:25.000Z</time>
      </trkpt>
      <trkpt lat="45.34655" lon="4.60783">
        <ele>810</ele>
        <time>2019-10-30T08:50:26.000Z</time>
      </trkpt>
      <trkpt lat="45.34654" lon="4.60783">
        <ele>810</ele>
        <time>2019-10-30T08:50:27.000Z</time>
      </trkpt>
      <trkpt lat="45.34653" lon="4.60782">
        <ele>810.20001220703</ele>
        <time>2019-10-30T08:50:28.000Z</time>
      </trkpt>
      <trkpt lat="45.34652" lon="4.60781">
        <ele>810</ele>
        <time>2019-10-30T08:50:29.000Z</time>
      </trkpt>
      <trkpt lat="45.34651" lon="4.6078">
        <ele>810.20001220703</ele>
        <time>2019-10-30T08:50:30.000Z</time>
      </trkpt>
      <trkpt lat="45.3465" lon="4.60779">
        <ele>810.20001220703</ele>
        <time>2019-10-30T08:50:31.000Z</time>
      </trkpt>
      <trkpt lat="45.34649" lon="4.60779">
        <ele>810.20001220703</ele>
        <time>2019-10-30T08:50:32.000Z</time>
      </trkpt>
      <trkpt lat="45.34648" lon="4.60778">
        <ele>810.40002441406</ele>
        <time>2019-10-30T08:50:33.000Z</time>
      </trkpt>
      <trkpt lat="45.34647" lon="4.60778">
        <ele>810.59997558594</ele>
        <time>2019-10-30T08:50:34.000Z</time>
      </trkpt>
      <trkpt lat="45.34646" lon="4.60777">
        <ele>810.79998779297</ele>
        <time>2019-10-30T08:50:35.000Z</time>
      </trkpt>
      <trkpt lat="45.34645" lon="4.60776">
        <ele>810.79998779297</ele>
        <time>2019-10-30T08:50:36.000Z</time>
      </trkpt>
      <trkpt lat="45.34644" lon="4.60776">
        <ele>810.79998779297</ele>
        <time>2019-10-30T08:50:37.000Z</time>
      </trkpt>
      <trkpt lat="45.34643" lon="4.60775">
        <ele>811</ele>
        <time>2019-10-30T08:50:38.000Z</time>
      </trkpt>
      <trkpt lat="45.34642" lon="4.60774">
        <ele>811.20001220703</ele>
        <time>2019-10-30T08:50:39.000Z</time>
      </trkpt>
      <trkpt lat="45.34641" lon="4.60774">
        <ele>811.40002441406</ele>
        <time>2019-10-30T08:50:40.000Z</time>
      </trkpt>
      <trkpt lat="45.3464" lon="4.60773">
        <ele>811.59997558594</ele>
        <time>2019-10-30T08:50:41.000Z</time>
      </trkpt>
      <trkpt lat="45.34639" lon="4.60772">
        <ele>811.79998779297</ele>
        <time>2019-10-30T08:50:42.000Z</time>
      </trkpt>
      <trkpt lat="45.34638" lon="4.60771">
        <ele>812</ele>
        <time>2019-10-30T08:50:43.000Z</time>
      </trkpt>
      <trkpt lat="45.34637" lon="4.6077">
        <ele>812.20001220703</ele>
        <time>2019-10-30T08:50:44.000Z</time>
      </trkpt>
      <trkpt lat="45.34636" lon="4.60769">
        <ele>812.40002441406</ele>
        <time>2019-10-30T08:50:45.000Z</time>
      </trkpt>
      <trkpt lat="45.34635" lon="4.60768">
        <ele>812.40002441406</ele>
        <time>2019-10-30T08:50:46.000Z</time>
      </trkpt>
      <trkpt lat="45.34633" lon="4.60768">
        <ele>812.79998779297</ele>
        <time>2019-10-30T08:50:47.000Z</time>
      </trkpt>
      <trkpt lat="45.34632" lon="4.60767">
        <ele>813</ele>
        <time>2019-10-30T08:50:48.000Z</time>
      </trkpt>
      <trkpt lat="45.34631" lon="4.60766">
        <ele>813.20001220703</ele>
        <time>2019-10-30T08:50:49.000Z</time>
      </trkpt>
      <trkpt lat="45.3463" lon="4.60765">
        <ele>813.40002441406</ele>
        <time>2019-10-30T08:50:50.000Z</time>
      </trkpt>
      <trkpt lat="45.34629" lon="4.60764">
        <ele>813.79998779297</ele>
        <time>2019-10-30T08:50:51.000Z</time>
      </trkpt>
      <trkpt lat="45.34628" lon="4.60763">
        <ele>813.79998779297</ele>
        <time>2019-10-30T08:50:52.000Z</time>
      </trkpt>
      <trkpt lat="45.34627" lon="4.60762">
        <ele>814</ele>
        <time>2019-10-30T08:50:53.000Z</time>
      </trkpt>
      <trkpt lat="45.34626" lon="4.60761">
        <ele>814.20001220703</ele>
        <time>2019-10-30T08:50:54.000Z</time>
      </trkpt>
      <trkpt lat="45.34625" lon="4.6076">
        <ele>814.40002441406</ele>
        <time>2019-10-30T08:50:55.000Z</time>
      </trkpt>
      <trkpt lat="45.34624" lon="4.60759">
        <ele>814.59997558594</ele>
        <time>2019-10-30T08:50:56.000Z</time>
      </trkpt>
      <trkpt lat="45.34623" lon="4.60758">
        <ele>814.79998779297</ele>
        <time>2019-10-30T08:50:57.000Z</time>
      </trkpt>
      <trkpt lat="45.34622" lon="4.60757">
        <ele>815</ele>
        <time>2019-10-30T08:50:58.000Z</time>
      </trkpt>
      <trkpt lat="45.3462" lon="4.60756">
        <ele>815.20001220703</ele>
        <time>2019-10-30T08:50:59.000Z</time>
      </trkpt>
      <trkpt lat="45.34619" lon="4.60755">
        <ele>815.59997558594</ele>
        <time>2019-10-30T08:51:00.000Z</time>
      </trkpt>
      <trkpt lat="45.34618" lon="4.60754">
        <ele>816</ele>
        <time>2019-10-30T08:51:01.000Z</time>
      </trkpt>
      <trkpt lat="45.34617" lon="4.60753">
        <ele>816</ele>
        <time>2019-10-30T08:51:02.000Z</time>
      </trkpt>
      <trkpt lat="45.34616" lon="4.60752">
        <ele>816.20001220703</ele>
        <time>2019-10-30T08:51:03.000Z</time>
      </trkpt>
      <trkpt lat="45.34615" lon="4.60751">
        <ele>816.79998779297</ele>
        <time>2019-10-30T08:51:04.000Z</time>
      </trkpt>
      <trkpt lat="45.34613" lon="4.6075">
        <ele>817</ele>
        <time>2019-10-30T08:51:05.000Z</time>
      </trkpt>
      <trkpt lat="45.34612" lon="4.6075">
        <ele>817.20001220703</ele>
        <time>2019-10-30T08:51:06.000Z</time>
      </trkpt>
      <trkpt lat="45.34611" lon="4.60749">
        <ele>817.40002441406</ele>
        <time>2019-10-30T08:51:07.000Z</time>
      </trkpt>
      <trkpt lat="45.3461" lon="4.60748">
        <ele>817.79998779297</ele>
        <time>2019-10-30T08:51:08.000Z</time>
      </trkpt>
      <trkpt lat="45.34608" lon="4.60747">
        <ele>818</ele>
        <time>2019-10-30T08:51:09.000Z</time>
      </trkpt>
      <trkpt lat="45.34607" lon="4.60746">
        <ele>818</ele>
        <time>2019-10-30T08:51:10.000Z</time>
      </trkpt>
      <trkpt lat="45.34606" lon="4.60745">
        <ele>818.20001220703</ele>
        <time>2019-10-30T08:51:11.000Z</time>
      </trkpt>
      <trkpt lat="45.34605" lon="4.60745">
        <ele>818.40002441406</ele>
        <time>2019-10-30T08:51:12.000Z</time>
      </trkpt>
      <trkpt lat="45.34604" lon="4.60744">
        <ele>818.79998779297</ele>
        <time>2019-10-30T08:51:13.000Z</time>
      </trkpt>
      <trkpt lat="45.34602" lon="4.60744">
        <ele>819</ele>
        <time>2019-10-30T08:51:14.000Z</time>
      </trkpt>
      <trkpt lat="45.34601" lon="4.60743">
        <ele>819</ele>
        <time>2019-10-30T08:51:15.000Z</time>
      </trkpt>
      <trkpt lat="45.346" lon="4.60742">
        <ele>819.40002441406</ele>
        <time>2019-10-30T08:51:16.000Z</time>
      </trkpt>
      <trkpt lat="45.34599" lon="4.60742">
        <ele>819.59997558594</ele>
        <time>2019-10-30T08:51:17.000Z</time>
      </trkpt>
      <trkpt lat="45.34598" lon="4.60741">
        <ele>819.59997558594</ele>
        <time>2019-10-30T08:51:18.000Z</time>
      </trkpt>
      <trkpt lat="45.34597" lon="4.6074">
        <ele>819.59997558594</ele>
        <time>2019-10-30T08:51:19.000Z</time>
      </trkpt>
      <trkpt lat="45.34596" lon="4.6074">
        <ele>819.79998779297</ele>
        <time>2019-10-30T08:51:20.000Z</time>
      </trkpt>
      <trkpt lat="45.34595" lon="4.60739">
        <ele>820.59997558594</ele>
        <time>2019-10-30T08:51:21.000Z</time>
      </trkpt>
      <trkpt lat="45.34593" lon="4.60738">
        <ele>821</ele>
        <time>2019-10-30T08:51:22.000Z</time>
      </trkpt>
      <trkpt lat="45.34592" lon="4.60737">
        <ele>821.20001220703</ele>
        <time>2019-10-30T08:51:23.000Z</time>
      </trkpt>
      <trkpt lat="45.34591" lon="4.60736">
        <ele>821.40002441406</ele>
        <time>2019-10-30T08:51:24.000Z</time>
      </trkpt>
      <trkpt lat="45.3459" lon="4.60735">
        <ele>821.79998779297</ele>
        <time>2019-10-30T08:51:25.000Z</time>
      </trkpt>
      <trkpt lat="45.34589" lon="4.60734">
        <ele>822</ele>
        <time>2019-10-30T08:51:26.000Z</time>
      </trkpt>
      <trkpt lat="45.34588" lon="4.60732">
        <ele>822.59997558594</ele>
        <time>2019-10-30T08:51:27.000Z</time>
      </trkpt>
      <trkpt lat="45.34587" lon="4.60731">
        <ele>823.20001220703</ele>
        <time>2019-10-30T08:51:28.000Z</time>
      </trkpt>
      <trkpt lat="45.34586" lon="4.60729">
        <ele>823.40002441406</ele>
        <time>2019-10-30T08:51:29.000Z</time>
      </trkpt>
      <trkpt lat="45.34585" lon="4.60728">
        <ele>823.40002441406</ele>
        <time>2019-10-30T08:51:30.000Z</time>
      </trkpt>
      <trkpt lat="45.34584" lon="4.60727">
        <ele>823.59997558594</ele>
        <time>2019-10-30T08:51:31.000Z</time>
      </trkpt>
      <trkpt lat="45.34583" lon="4.60725">
        <ele>823.79998779297</ele>
        <time>2019-10-30T08:51:32.000Z</time>
      </trkpt>
      <trkpt lat="45.34582" lon="4.60723">
        <ele>823.79998779297</ele>
        <time>2019-10-30T08:51:33.000Z</time>
      </trkpt>
      <trkpt lat="45.34581" lon="4.60722">
        <ele>823.79998779297</ele>
        <time>2019-10-30T08:51:34.000Z</time>
      </trkpt>
      <trkpt lat="45.34581" lon="4.6072">
        <ele>824</ele>
        <time>2019-10-30T08:51:35.000Z</time>
      </trkpt>
      <trkpt lat="45.3458" lon="4.60719">
        <ele>824.20001220703</ele>
        <time>2019-10-30T08:51:36.000Z</time>
      </trkpt>
      <trkpt lat="45.34579" lon="4.60717">
        <ele>824.40002441406</ele>
        <time>2019-10-30T08:51:37.000Z</time>
      </trkpt>
      <trkpt lat="45.34579" lon="4.60716">
        <ele>824.59997558594</ele>
        <time>2019-10-30T08:51:38.000Z</time>
      </trkpt>
      <trkpt lat="45.34578" lon="4.60714">
        <ele>824.79998779297</ele>
        <time>2019-10-30T08:51:39.000Z</time>
      </trkpt>
      <trkpt lat="45.34578" lon="4.60712">
        <ele>824.79998779297</ele>
        <time>2019-10-30T08:51:40.000Z</time>
      </trkpt>
      <trkpt lat="45.34577" lon="4.60711">
        <ele>825</ele>
        <time>2019-10-30T08:51:41.000Z</time>
      </trkpt>
      <trkpt lat="45.34576" lon="4.60709">
        <ele>825.20001220703</ele>
        <time>2019-10-30T08:51:42.000Z</time>
      </trkpt>
      <trkpt lat="45.34575" lon="4.60708">
        <ele>825.40002441406</ele>
        <time>2019-10-30T08:51:43.000Z</time>
      </trkpt>
      <trkpt lat="45.34574" lon="4.60707">
        <ele>825.40002441406</ele>
        <time>2019-10-30T08:51:44.000Z</time>
      </trkpt>
      <trkpt lat="45.34573" lon="4.60706">
        <ele>825.59997558594</ele>
        <time>2019-10-30T08:51:45.000Z</time>
      </trkpt>
      <trkpt lat="45.34572" lon="4.60704">
        <ele>825.79998779297</ele>
        <time>2019-10-30T08:51:46.000Z</time>
      </trkpt>
      <trkpt lat="45.34571" lon="4.60703">
        <ele>826.20001220703</ele>
        <time>2019-10-30T08:51:47.000Z</time>
      </trkpt>
      <trkpt lat="45.3457" lon="4.60702">
        <ele>826.59997558594</ele>
        <time>2019-10-30T08:51:48.000Z</time>
      </trkpt>
      <trkpt lat="45.34569" lon="4.607">
        <ele>826.79998779297</ele>
        <time>2019-10-30T08:51:49.000Z</time>
      </trkpt>
      <trkpt lat="45.34569" lon="4.60699">
        <ele>827</ele>
        <time>2019-10-30T08:51:50.000Z</time>
      </trkpt>
      <trkpt lat="45.34568" lon="4.60698">
        <ele>827.40002441406</ele>
        <time>2019-10-30T08:51:51.000Z</time>
      </trkpt>
      <trkpt lat="45.34567" lon="4.60697">
        <ele>827.59997558594</ele>
        <time>2019-10-30T08:51:52.000Z</time>
      </trkpt>
      <trkpt lat="45.34567" lon="4.60695">
        <ele>827.59997558594</ele>
        <time>2019-10-30T08:51:53.000Z</time>
      </trkpt>
      <trkpt lat="45.34566" lon="4.60694">
        <ele>827.59997558594</ele>
        <time>2019-10-30T08:51:54.000Z</time>
      </trkpt>
      <trkpt lat="45.34566" lon="4.60692">
        <ele>828</ele>
        <time>2019-10-30T08:51:55.000Z</time>
      </trkpt>
      <trkpt lat="45.34565" lon="4.60691">
        <ele>828.20001220703</ele>
        <time>2019-10-30T08:51:56.000Z</time>
      </trkpt>
      <trkpt lat="45.34564" lon="4.6069">
        <ele>828.59997558594</ele>
        <time>2019-10-30T08:51:57.000Z</time>
      </trkpt>
      <trkpt lat="45.34563" lon="4.60689">
        <ele>828.59997558594</ele>
        <time>2019-10-30T08:51:58.000Z</time>
      </trkpt>
      <trkpt lat="45.34562" lon="4.60687">
        <ele>828.59997558594</ele>
        <time>2019-10-30T08:51:59.000Z</time>
      </trkpt>
      <trkpt lat="45.34561" lon="4.60685">
        <ele>828.79998779297</ele>
        <time>2019-10-30T08:52:00.000Z</time>
      </trkpt>
      <trkpt lat="45.34561" lon="4.60684">
        <ele>829</ele>
        <time>2019-10-30T08:52:01.000Z</time>
      </trkpt>
      <trkpt lat="45.3456" lon="4.60682">
        <ele>829.20001220703</ele>
        <time>2019-10-30T08:52:02.000Z</time>
      </trkpt>
      <trkpt lat="45.34559" lon="4.60681">
        <ele>829.40002441406</ele>
        <time>2019-10-30T08:52:03.000Z</time>
      </trkpt>
      <trkpt lat="45.34558" lon="4.60679">
        <ele>829.79998779297</ele>
        <time>2019-10-30T08:52:04.000Z</time>
      </trkpt>
      <trkpt lat="45.34558" lon="4.60678">
        <ele>830</ele>
        <time>2019-10-30T08:52:05.000Z</time>
      </trkpt>
      <trkpt lat="45.34557" lon="4.60676">
        <ele>830.20001220703</ele>
        <time>2019-10-30T08:52:06.000Z</time>
      </trkpt>
      <trkpt lat="45.34556" lon="4.60674">
        <ele>830.40002441406</ele>
        <time>2019-10-30T08:52:07.000Z</time>
      </trkpt>
      <trkpt lat="45.34555" lon="4.60673">
        <ele>830.40002441406</ele>
        <time>2019-10-30T08:52:08.000Z</time>
      </trkpt>
      <trkpt lat="45.34554" lon="4.60671">
        <ele>830.59997558594</ele>
        <time>2019-10-30T08:52:09.000Z</time>
      </trkpt>
      <trkpt lat="45.34553" lon="4.6067">
        <ele>830.59997558594</ele>
        <time>2019-10-30T08:52:10.000Z</time>
      </trkpt>
      <trkpt lat="45.34552" lon="4.60669">
        <ele>830.59997558594</ele>
        <time>2019-10-30T08:52:11.000Z</time>
      </trkpt>
      <trkpt lat="45.34552" lon="4.60667">
        <ele>831.20001220703</ele>
        <time>2019-10-30T08:52:12.000Z</time>
      </trkpt>
      <trkpt lat="45.34551" lon="4.60666">
        <ele>831.59997558594</ele>
        <time>2019-10-30T08:52:13.000Z</time>
      </trkpt>
      <trkpt lat="45.3455" lon="4.60664">
        <ele>831.59997558594</ele>
        <time>2019-10-30T08:52:14.000Z</time>
      </trkpt>
      <trkpt lat="45.34549" lon="4.60663">
        <ele>831.79998779297</ele>
        <time>2019-10-30T08:52:15.000Z</time>
      </trkpt>
      <trkpt lat="45.34548" lon="4.60661">
        <ele>832</ele>
        <time>2019-10-30T08:52:16.000Z</time>
      </trkpt>
      <trkpt lat="45.34548" lon="4.6066">
        <ele>832</ele>
        <time>2019-10-30T08:52:17.000Z</time>
      </trkpt>
      <trkpt lat="45.34547" lon="4.60658">
        <ele>832.20001220703</ele>
        <time>2019-10-30T08:52:18.000Z</time>
      </trkpt>
      <trkpt lat="45.34547" lon="4.60656">
        <ele>832.40002441406</ele>
        <time>2019-10-30T08:52:19.000Z</time>
      </trkpt>
      <trkpt lat="45.34546" lon="4.60654">
        <ele>832.40002441406</ele>
        <time>2019-10-30T08:52:20.000Z</time>
      </trkpt>
      <trkpt lat="45.34546" lon="4.60653">
        <ele>832.40002441406</ele>
        <time>2019-10-30T08:52:21.000Z</time>
      </trkpt>
      <trkpt lat="45.34545" lon="4.60651">
        <ele>833</ele>
        <time>2019-10-30T08:52:22.000Z</time>
      </trkpt>
      <trkpt lat="45.34544" lon="4.60649">
        <ele>833.40002441406</ele>
        <time>2019-10-30T08:52:23.000Z</time>
      </trkpt>
      <trkpt lat="45.34544" lon="4.60648">
        <ele>833.59997558594</ele>
        <time>2019-10-30T08:52:24.000Z</time>
      </trkpt>
      <trkpt lat="45.34543" lon="4.60646">
        <ele>833.59997558594</ele>
        <time>2019-10-30T08:52:25.000Z</time>
      </trkpt>
      <trkpt lat="45.34542" lon="4.60645">
        <ele>833.79998779297</ele>
        <time>2019-10-30T08:52:26.000Z</time>
      </trkpt>
      <trkpt lat="45.34541" lon="4.60643">
        <ele>834</ele>
        <time>2019-10-30T08:52:27.000Z</time>
      </trkpt>
      <trkpt lat="45.34541" lon="4.60642">
        <ele>834</ele>
        <time>2019-10-30T08:52:28.000Z</time>
      </trkpt>
      <trkpt lat="45.3454" lon="4.60641">
        <ele>834.20001220703</ele>
        <time>2019-10-30T08:52:29.000Z</time>
      </trkpt>
      <trkpt lat="45.3454" lon="4.60639">
        <ele>834.20001220703</ele>
        <time>2019-10-30T08:52:30.000Z</time>
      </trkpt>
      <trkpt lat="45.34539" lon="4.60638">
        <ele>834.40002441406</ele>
        <time>2019-10-30T08:52:31.000Z</time>
      </trkpt>
      <trkpt lat="45.34538" lon="4.60636">
        <ele>834.59997558594</ele>
        <time>2019-10-30T08:52:32.000Z</time>
      </trkpt>
      <trkpt lat="45.34538" lon="4.60635">
        <ele>834.79998779297</ele>
        <time>2019-10-30T08:52:33.000Z</time>
      </trkpt>
      <trkpt lat="45.34537" lon="4.60633">
        <ele>834.79998779297</ele>
        <time>2019-10-30T08:52:34.000Z</time>
      </trkpt>
      <trkpt lat="45.34537" lon="4.60631">
        <ele>835</ele>
        <time>2019-10-30T08:52:35.000Z</time>
      </trkpt>
      <trkpt lat="45.34536" lon="4.60629">
        <ele>835</ele>
        <time>2019-10-30T08:52:36.000Z</time>
      </trkpt>
      <trkpt lat="45.34536" lon="4.60628">
        <ele>835.20001220703</ele>
        <time>2019-10-30T08:52:37.000Z</time>
      </trkpt>
      <trkpt lat="45.34536" lon="4.60626">
        <ele>835.20001220703</ele>
        <time>2019-10-30T08:52:38.000Z</time>
      </trkpt>
      <trkpt lat="45.34535" lon="4.60625">
        <ele>835.20001220703</ele>
        <time>2019-10-30T08:52:39.000Z</time>
      </trkpt>
      <trkpt lat="45.34534" lon="4.60624">
        <ele>835.40002441406</ele>
        <time>2019-10-30T08:52:40.000Z</time>
      </trkpt>
      <trkpt lat="45.34533" lon="4.60623">
        <ele>835.59997558594</ele>
        <time>2019-10-30T08:52:41.000Z</time>
      </trkpt>
      <trkpt lat="45.34532" lon="4.60621">
        <ele>835.79998779297</ele>
        <time>2019-10-30T08:52:42.000Z</time>
      </trkpt>
      <trkpt lat="45.34532" lon="4.6062">
        <ele>836</ele>
        <time>2019-10-30T08:52:43.000Z</time>
      </trkpt>
      <trkpt lat="45.34531" lon="4.60618">
        <ele>836.20001220703</ele>
        <time>2019-10-30T08:52:44.000Z</time>
      </trkpt>
      <trkpt lat="45.3453" lon="4.60616">
        <ele>836.20001220703</ele>
        <time>2019-10-30T08:52:45.000Z</time>
      </trkpt>
      <trkpt lat="45.34529" lon="4.60614">
        <ele>836.40002441406</ele>
        <time>2019-10-30T08:52:46.000Z</time>
      </trkpt>
      <trkpt lat="45.34529" lon="4.60613">
        <ele>836.59997558594</ele>
        <time>2019-10-30T08:52:47.000Z</time>
      </trkpt>
      <trkpt lat="45.34528" lon="4.60611">
        <ele>836.79998779297</ele>
        <time>2019-10-30T08:52:48.000Z</time>
      </trkpt>
      <trkpt lat="45.34527" lon="4.60609">
        <ele>837</ele>
        <time>2019-10-30T08:52:49.000Z</time>
      </trkpt>
      <trkpt lat="45.34527" lon="4.60608">
        <ele>837.20001220703</ele>
        <time>2019-10-30T08:52:50.000Z</time>
      </trkpt>
      <trkpt lat="45.34526" lon="4.60607">
        <ele>837.59997558594</ele>
        <time>2019-10-30T08:52:51.000Z</time>
      </trkpt>
      <trkpt lat="45.34525" lon="4.60605">
        <ele>837.59997558594</ele>
        <time>2019-10-30T08:52:52.000Z</time>
      </trkpt>
      <trkpt lat="45.34524" lon="4.60604">
        <ele>838</ele>
        <time>2019-10-30T08:52:53.000Z</time>
      </trkpt>
      <trkpt lat="45.34524" lon="4.60602">
        <ele>838.20001220703</ele>
        <time>2019-10-30T08:52:54.000Z</time>
      </trkpt>
      <trkpt lat="45.34523" lon="4.60601">
        <ele>838.59997558594</ele>
        <time>2019-10-30T08:52:55.000Z</time>
      </trkpt>
      <trkpt lat="45.34522" lon="4.60599">
        <ele>838.79998779297</ele>
        <time>2019-10-30T08:52:56.000Z</time>
      </trkpt>
      <trkpt lat="45.34522" lon="4.60598">
        <ele>839</ele>
        <time>2019-10-30T08:52:57.000Z</time>
      </trkpt>
      <trkpt lat="45.34521" lon="4.60597">
        <ele>839.40002441406</ele>
        <time>2019-10-30T08:52:58.000Z</time>
      </trkpt>
      <trkpt lat="45.3452" lon="4.60596">
        <ele>839.59997558594</ele>
        <time>2019-10-30T08:52:59.000Z</time>
      </trkpt>
      <trkpt lat="45.34519" lon="4.60595">
        <ele>839.79998779297</ele>
        <time>2019-10-30T08:53:00.000Z</time>
      </trkpt>
      <trkpt lat="45.34519" lon="4.60593">
        <ele>840.20001220703</ele>
        <time>2019-10-30T08:53:01.000Z</time>
      </trkpt>
      <trkpt lat="45.34518" lon="4.60592">
        <ele>840.20001220703</ele>
        <time>2019-10-30T08:53:02.000Z</time>
      </trkpt>
      <trkpt lat="45.34518" lon="4.60591">
        <ele>840.20001220703</ele>
        <time>2019-10-30T08:53:03.000Z</time>
      </trkpt>
      <trkpt lat="45.34517" lon="4.60589">
        <ele>840.20001220703</ele>
        <time>2019-10-30T08:53:04.000Z</time>
      </trkpt>
      <trkpt lat="45.34517" lon="4.60587">
        <ele>840.59997558594</ele>
        <time>2019-10-30T08:53:05.000Z</time>
      </trkpt>
      <trkpt lat="45.34516" lon="4.60586">
        <ele>840.79998779297</ele>
        <time>2019-10-30T08:53:06.000Z</time>
      </trkpt>
      <trkpt lat="45.34516" lon="4.60584">
        <ele>841</ele>
        <time>2019-10-30T08:53:07.000Z</time>
      </trkpt>
      <trkpt lat="45.34515" lon="4.60583">
        <ele>841.40002441406</ele>
        <time>2019-10-30T08:53:08.000Z</time>
      </trkpt>
      <trkpt lat="45.34514" lon="4.60582">
        <ele>841.40002441406</ele>
        <time>2019-10-30T08:53:09.000Z</time>
      </trkpt>
      <trkpt lat="45.34514" lon="4.6058">
        <ele>841.59997558594</ele>
        <time>2019-10-30T08:53:10.000Z</time>
      </trkpt>
      <trkpt lat="45.34513" lon="4.60579">
        <ele>841.79998779297</ele>
        <time>2019-10-30T08:53:11.000Z</time>
      </trkpt>
      <trkpt lat="45.34513" lon="4.60578">
        <ele>842</ele>
        <time>2019-10-30T08:53:12.000Z</time>
      </trkpt>
      <trkpt lat="45.34512" lon="4.60577">
        <ele>842.20001220703</ele>
        <time>2019-10-30T08:53:13.000Z</time>
      </trkpt>
      <trkpt lat="45.34511" lon="4.60575">
        <ele>842.20001220703</ele>
        <time>2019-10-30T08:53:14.000Z</time>
      </trkpt>
      <trkpt lat="45.3451" lon="4.60573">
        <ele>842.40002441406</ele>
        <time>2019-10-30T08:53:15.000Z</time>
      </trkpt>
      <trkpt lat="45.3451" lon="4.60572">
        <ele>842.79998779297</ele>
        <time>2019-10-30T08:53:16.000Z</time>
      </trkpt>
      <trkpt lat="45.34509" lon="4.6057">
        <ele>843</ele>
        <time>2019-10-30T08:53:17.000Z</time>
      </trkpt>
      <trkpt lat="45.34508" lon="4.60569">
        <ele>843.20001220703</ele>
        <time>2019-10-30T08:53:18.000Z</time>
      </trkpt>
      <trkpt lat="45.34508" lon="4.60567">
        <ele>843.40002441406</ele>
        <time>2019-10-30T08:53:19.000Z</time>
      </trkpt>
      <trkpt lat="45.34507" lon="4.60566">
        <ele>843.40002441406</ele>
        <time>2019-10-30T08:53:20.000Z</time>
      </trkpt>
      <trkpt lat="45.34506" lon="4.60565">
        <ele>843.79998779297</ele>
        <time>2019-10-30T08:53:21.000Z</time>
      </trkpt>
      <trkpt lat="45.34506" lon="4.60563">
        <ele>844</ele>
        <time>2019-10-30T08:53:22.000Z</time>
      </trkpt>
      <trkpt lat="45.34505" lon="4.60561">
        <ele>844</ele>
        <time>2019-10-30T08:53:23.000Z</time>
      </trkpt>
      <trkpt lat="45.34504" lon="4.6056">
        <ele>844.20001220703</ele>
        <time>2019-10-30T08:53:24.000Z</time>
      </trkpt>
      <trkpt lat="45.34504" lon="4.60559">
        <ele>844.40002441406</ele>
        <time>2019-10-30T08:53:25.000Z</time>
      </trkpt>
      <trkpt lat="45.34503" lon="4.60557">
        <ele>844.59997558594</ele>
        <time>2019-10-30T08:53:26.000Z</time>
      </trkpt>
      <trkpt lat="45.34502" lon="4.60555">
        <ele>844.79998779297</ele>
        <time>2019-10-30T08:53:27.000Z</time>
      </trkpt>
      <trkpt lat="45.34501" lon="4.60553">
        <ele>844.79998779297</ele>
        <time>2019-10-30T08:53:28.000Z</time>
      </trkpt>
      <trkpt lat="45.345" lon="4.60552">
        <ele>845</ele>
        <time>2019-10-30T08:53:29.000Z</time>
      </trkpt>
      <trkpt lat="45.345" lon="4.60551">
        <ele>845</ele>
        <time>2019-10-30T08:53:30.000Z</time>
      </trkpt>
      <trkpt lat="45.34499" lon="4.60549">
        <ele>845.20001220703</ele>
        <time>2019-10-30T08:53:31.000Z</time>
      </trkpt>
      <trkpt lat="45.34498" lon="4.60547">
        <ele>845.40002441406</ele>
        <time>2019-10-30T08:53:32.000Z</time>
      </trkpt>
      <trkpt lat="45.34498" lon="4.60546">
        <ele>845.79998779297</ele>
        <time>2019-10-30T08:53:33.000Z</time>
      </trkpt>
      <trkpt lat="45.34497" lon="4.60544">
        <ele>845.79998779297</ele>
        <time>2019-10-30T08:53:34.000Z</time>
      </trkpt>
      <trkpt lat="45.34496" lon="4.60543">
        <ele>846.20001220703</ele>
        <time>2019-10-30T08:53:35.000Z</time>
      </trkpt>
      <trkpt lat="45.34496" lon="4.60541">
        <ele>846.40002441406</ele>
        <time>2019-10-30T08:53:36.000Z</time>
      </trkpt>
      <trkpt lat="45.34495" lon="4.60539">
        <ele>846.40002441406</ele>
        <time>2019-10-30T08:53:37.000Z</time>
      </trkpt>
      <trkpt lat="45.34494" lon="4.60538">
        <ele>847</ele>
        <time>2019-10-30T08:53:38.000Z</time>
      </trkpt>
      <trkpt lat="45.34494" lon="4.60536">
        <ele>847.20001220703</ele>
        <time>2019-10-30T08:53:39.000Z</time>
      </trkpt>
      <trkpt lat="45.34494" lon="4.60534">
        <ele>847.20001220703</ele>
        <time>2019-10-30T08:53:40.000Z</time>
      </trkpt>
      <trkpt lat="45.34493" lon="4.60533">
        <ele>847.59997558594</ele>
        <time>2019-10-30T08:53:41.000Z</time>
      </trkpt>
      <trkpt lat="45.34492" lon="4.60531">
        <ele>847.59997558594</ele>
        <time>2019-10-30T08:53:42.000Z</time>
      </trkpt>
      <trkpt lat="45.34491" lon="4.6053">
        <ele>847.79998779297</ele>
        <time>2019-10-30T08:53:43.000Z</time>
      </trkpt>
      <trkpt lat="45.3449" lon="4.60528">
        <ele>848.40002441406</ele>
        <time>2019-10-30T08:53:44.000Z</time>
      </trkpt>
      <trkpt lat="45.3449" lon="4.60526">
        <ele>848.59997558594</ele>
        <time>2019-10-30T08:53:45.000Z</time>
      </trkpt>
      <trkpt lat="45.3449" lon="4.60524">
        <ele>848.79998779297</ele>
        <time>2019-10-30T08:53:46.000Z</time>
      </trkpt>
      <trkpt lat="45.34489" lon="4.60523">
        <ele>849</ele>
        <time>2019-10-30T08:53:47.000Z</time>
      </trkpt>
      <trkpt lat="45.34488" lon="4.60521">
        <ele>849.20001220703</ele>
        <time>2019-10-30T08:53:48.000Z</time>
      </trkpt>
      <trkpt lat="45.34487" lon="4.6052">
        <ele>849.40002441406</ele>
        <time>2019-10-30T08:53:49.000Z</time>
      </trkpt>
      <trkpt lat="45.34486" lon="4.60518">
        <ele>849.20001220703</ele>
        <time>2019-10-30T08:53:50.000Z</time>
      </trkpt>
      <trkpt lat="45.34486" lon="4.60516">
        <ele>849.40002441406</ele>
        <time>2019-10-30T08:53:51.000Z</time>
      </trkpt>
      <trkpt lat="45.34484" lon="4.60515">
        <ele>849.59997558594</ele>
        <time>2019-10-30T08:53:52.000Z</time>
      </trkpt>
      <trkpt lat="45.34484" lon="4.60513">
        <ele>849.79998779297</ele>
        <time>2019-10-30T08:53:53.000Z</time>
      </trkpt>
      <trkpt lat="45.34483" lon="4.60511">
        <ele>849.79998779297</ele>
        <time>2019-10-30T08:53:54.000Z</time>
      </trkpt>
      <trkpt lat="45.34482" lon="4.60509">
        <ele>850.20001220703</ele>
        <time>2019-10-30T08:53:55.000Z</time>
      </trkpt>
      <trkpt lat="45.34481" lon="4.60508">
        <ele>850.20001220703</ele>
        <time>2019-10-30T08:53:56.000Z</time>
      </trkpt>
      <trkpt lat="45.34481" lon="4.60506">
        <ele>850.20001220703</ele>
        <time>2019-10-30T08:53:57.000Z</time>
      </trkpt>
      <trkpt lat="45.3448" lon="4.60505">
        <ele>850.40002441406</ele>
        <time>2019-10-30T08:53:58.000Z</time>
      </trkpt>
      <trkpt lat="45.34479" lon="4.60503">
        <ele>850.59997558594</ele>
        <time>2019-10-30T08:53:59.000Z</time>
      </trkpt>
      <trkpt lat="45.34478" lon="4.60501">
        <ele>850.79998779297</ele>
        <time>2019-10-30T08:54:00.000Z</time>
      </trkpt>
      <trkpt lat="45.34477" lon="4.60499">
        <ele>851.20001220703</ele>
        <time>2019-10-30T08:54:01.000Z</time>
      </trkpt>
      <trkpt lat="45.34476" lon="4.60498">
        <ele>851.40002441406</ele>
        <time>2019-10-30T08:54:02.000Z</time>
      </trkpt>
      <trkpt lat="45.34475" lon="4.60496">
        <ele>851.59997558594</ele>
        <time>2019-10-30T08:54:03.000Z</time>
      </trkpt>
      <trkpt lat="45.34474" lon="4.60494">
        <ele>851.79998779297</ele>
        <time>2019-10-30T08:54:04.000Z</time>
      </trkpt>
      <trkpt lat="45.34473" lon="4.60493">
        <ele>852</ele>
        <time>2019-10-30T08:54:05.000Z</time>
      </trkpt>
      <trkpt lat="45.34472" lon="4.60491">
        <ele>852.20001220703</ele>
        <time>2019-10-30T08:54:06.000Z</time>
      </trkpt>
      <trkpt lat="45.34471" lon="4.6049">
        <ele>852.40002441406</ele>
        <time>2019-10-30T08:54:07.000Z</time>
      </trkpt>
      <trkpt lat="45.3447" lon="4.60488">
        <ele>852.59997558594</ele>
        <time>2019-10-30T08:54:08.000Z</time>
      </trkpt>
      <trkpt lat="45.34469" lon="4.60487">
        <ele>852.59997558594</ele>
        <time>2019-10-30T08:54:09.000Z</time>
      </trkpt>
      <trkpt lat="45.34468" lon="4.60485">
        <ele>852.59997558594</ele>
        <time>2019-10-30T08:54:10.000Z</time>
      </trkpt>
      <trkpt lat="45.34466" lon="4.60484">
        <ele>852.59997558594</ele>
        <time>2019-10-30T08:54:11.000Z</time>
      </trkpt>
      <trkpt lat="45.34465" lon="4.60482">
        <ele>852.79998779297</ele>
        <time>2019-10-30T08:54:12.000Z</time>
      </trkpt>
      <trkpt lat="45.34463" lon="4.60481">
        <ele>852.79998779297</ele>
        <time>2019-10-30T08:54:13.000Z</time>
      </trkpt>
      <trkpt lat="45.34462" lon="4.6048">
        <ele>853</ele>
        <time>2019-10-30T08:54:14.000Z</time>
      </trkpt>
      <trkpt lat="45.3446" lon="4.60479">
        <ele>853.20001220703</ele>
        <time>2019-10-30T08:54:15.000Z</time>
      </trkpt>
      <trkpt lat="45.34459" lon="4.60479">
        <ele>853.40002441406</ele>
        <time>2019-10-30T08:54:16.000Z</time>
      </trkpt>
      <trkpt lat="45.34458" lon="4.60478">
        <ele>853.20001220703</ele>
        <time>2019-10-30T08:54:17.000Z</time>
      </trkpt>
      <trkpt lat="45.34456" lon="4.60476">
        <ele>853.59997558594</ele>
        <time>2019-10-30T08:54:18.000Z</time>
      </trkpt>
      <trkpt lat="45.34455" lon="4.60475">
        <ele>853.59997558594</ele>
        <time>2019-10-30T08:54:19.000Z</time>
      </trkpt>
      <trkpt lat="45.34454" lon="4.60473">
        <ele>853.59997558594</ele>
        <time>2019-10-30T08:54:20.000Z</time>
      </trkpt>
      <trkpt lat="45.34453" lon="4.60472">
        <ele>853.59997558594</ele>
        <time>2019-10-30T08:54:21.000Z</time>
      </trkpt>
      <trkpt lat="45.34452" lon="4.60471">
        <ele>853.79998779297</ele>
        <time>2019-10-30T08:54:22.000Z</time>
      </trkpt>
      <trkpt lat="45.34451" lon="4.6047">
        <ele>853.79998779297</ele>
        <time>2019-10-30T08:54:23.000Z</time>
      </trkpt>
      <trkpt lat="45.3445" lon="4.60469">
        <ele>853.79998779297</ele>
        <time>2019-10-30T08:54:24.000Z</time>
      </trkpt>
      <trkpt lat="45.34449" lon="4.60468">
        <ele>854.40002441406</ele>
        <time>2019-10-30T08:54:25.000Z</time>
      </trkpt>
      <trkpt lat="45.34448" lon="4.60467">
        <ele>854.79998779297</ele>
        <time>2019-10-30T08:54:26.000Z</time>
      </trkpt>
      <trkpt lat="45.34447" lon="4.60466">
        <ele>855.20001220703</ele>
        <time>2019-10-30T08:54:27.000Z</time>
      </trkpt>
      <trkpt lat="45.34446" lon="4.60464">
        <ele>855.40002441406</ele>
        <time>2019-10-30T08:54:28.000Z</time>
      </trkpt>
      <trkpt lat="45.34445" lon="4.60462">
        <ele>855.59997558594</ele>
        <time>2019-10-30T08:54:29.000Z</time>
      </trkpt>
      <trkpt lat="45.34444" lon="4.6046">
        <ele>855.79998779297</ele>
        <time>2019-10-30T08:54:30.000Z</time>
      </trkpt>
      <trkpt lat="45.34443" lon="4.60458">
        <ele>856.20001220703</ele>
        <time>2019-10-30T08:54:31.000Z</time>
      </trkpt>
      <trkpt lat="45.34443" lon="4.60457">
        <ele>856.20001220703</ele>
        <time>2019-10-30T08:54:32.000Z</time>
      </trkpt>
      <trkpt lat="45.34442" lon="4.60455">
        <ele>856.40002441406</ele>
        <time>2019-10-30T08:54:33.000Z</time>
      </trkpt>
      <trkpt lat="45.34442" lon="4.60452">
        <ele>856.40002441406</ele>
        <time>2019-10-30T08:54:34.000Z</time>
      </trkpt>
      <trkpt lat="45.34441" lon="4.6045">
        <ele>856.59997558594</ele>
        <time>2019-10-30T08:54:35.000Z</time>
      </trkpt>
      <trkpt lat="45.34441" lon="4.60447">
        <ele>856.79998779297</ele>
        <time>2019-10-30T08:54:36.000Z</time>
      </trkpt>
      <trkpt lat="45.34441" lon="4.60445">
        <ele>857</ele>
        <time>2019-10-30T08:54:37.000Z</time>
      </trkpt>
      <trkpt lat="45.34441" lon="4.60443">
        <ele>857.20001220703</ele>
        <time>2019-10-30T08:54:38.000Z</time>
      </trkpt>
      <trkpt lat="45.34441" lon="4.6044">
        <ele>857.40002441406</ele>
        <time>2019-10-30T08:54:39.000Z</time>
      </trkpt>
      <trkpt lat="45.3444" lon="4.60438">
        <ele>857.59997558594</ele>
        <time>2019-10-30T08:54:40.000Z</time>
      </trkpt>
      <trkpt lat="45.34441" lon="4.60436">
        <ele>857.79998779297</ele>
        <time>2019-10-30T08:54:41.000Z</time>
      </trkpt>
      <trkpt lat="45.34441" lon="4.60433">
        <ele>858.20001220703</ele>
        <time>2019-10-30T08:54:42.000Z</time>
      </trkpt>
      <trkpt lat="45.34441" lon="4.60431">
        <ele>858.40002441406</ele>
        <time>2019-10-30T08:54:43.000Z</time>
      </trkpt>
      <trkpt lat="45.34441" lon="4.60429">
        <ele>858.40002441406</ele>
        <time>2019-10-30T08:54:44.000Z</time>
      </trkpt>
      <trkpt lat="45.34441" lon="4.60426">
        <ele>858.79998779297</ele>
        <time>2019-10-30T08:54:45.000Z</time>
      </trkpt>
      <trkpt lat="45.34441" lon="4.60424">
        <ele>858.79998779297</ele>
        <time>2019-10-30T08:54:46.000Z</time>
      </trkpt>
      <trkpt lat="45.34442" lon="4.60422">
        <ele>859</ele>
        <time>2019-10-30T08:54:47.000Z</time>
      </trkpt>
      <trkpt lat="45.34442" lon="4.60419">
        <ele>859.20001220703</ele>
        <time>2019-10-30T08:54:48.000Z</time>
      </trkpt>
      <trkpt lat="45.34442" lon="4.60417">
        <ele>859.40002441406</ele>
        <time>2019-10-30T08:54:49.000Z</time>
      </trkpt>
      <trkpt lat="45.34443" lon="4.60414">
        <ele>859.40002441406</ele>
        <time>2019-10-30T08:54:50.000Z</time>
      </trkpt>
      <trkpt lat="45.34443" lon="4.60412">
        <ele>859.59997558594</ele>
        <time>2019-10-30T08:54:51.000Z</time>
      </trkpt>
      <trkpt lat="45.34443" lon="4.6041">
        <ele>860</ele>
        <time>2019-10-30T08:54:52.000Z</time>
      </trkpt>
      <trkpt lat="45.34443" lon="4.60408">
        <ele>860.20001220703</ele>
        <time>2019-10-30T08:54:53.000Z</time>
      </trkpt>
      <trkpt lat="45.34444" lon="4.60405">
        <ele>860.20001220703</ele>
        <time>2019-10-30T08:54:54.000Z</time>
      </trkpt>
      <trkpt lat="45.34444" lon="4.60403">
        <ele>860.40002441406</ele>
        <time>2019-10-30T08:54:55.000Z</time>
      </trkpt>
      <trkpt lat="45.34444" lon="4.60401">
        <ele>860.59997558594</ele>
        <time>2019-10-30T08:54:56.000Z</time>
      </trkpt>
      <trkpt lat="45.34444" lon="4.604">
        <ele>861</ele>
        <time>2019-10-30T08:54:57.000Z</time>
      </trkpt>
      <trkpt lat="45.34444" lon="4.60398">
        <ele>861.20001220703</ele>
        <time>2019-10-30T08:54:58.000Z</time>
      </trkpt>
      <trkpt lat="45.34444" lon="4.60397">
        <ele>861.20001220703</ele>
        <time>2019-10-30T08:54:59.000Z</time>
      </trkpt>
      <trkpt lat="45.34444" lon="4.60397">
        <ele>861.40002441406</ele>
        <time>2019-10-30T08:55:00.000Z</time>
      </trkpt>
      <trkpt lat="45.34444" lon="4.60397">
        <ele>861.59997558594</ele>
        <time>2019-10-30T08:55:01.000Z</time>
      </trkpt>
      <trkpt lat="45.34443" lon="4.60397">
        <ele>862.20001220703</ele>
        <time>2019-10-30T08:55:05.000Z</time>
      </trkpt>
      <trkpt lat="45.34443" lon="4.60397">
        <ele>862.20001220703</ele>
        <time>2019-10-30T08:55:06.000Z</time>
      </trkpt>
      <trkpt lat="45.34443" lon="4.60397">
        <ele>862.40002441406</ele>
        <time>2019-10-30T08:55:13.000Z</time>
      </trkpt>
      <trkpt lat="45.34443" lon="4.60397">
        <ele>862.40002441406</ele>
        <time>2019-10-30T08:55:31.000Z</time>
      </trkpt>
      <trkpt lat="45.34443" lon="4.60396">
        <ele>862</ele>
        <time>2019-10-30T08:56:19.000Z</time>
      </trkpt>
      <trkpt lat="45.34444" lon="4.60395">
        <ele>862.20001220703</ele>
        <time>2019-10-30T08:56:20.000Z</time>
      </trkpt>
      <trkpt lat="45.34445" lon="4.60394">
        <ele>862.20001220703</ele>
        <time>2019-10-30T08:56:21.000Z</time>
      </trkpt>
      <trkpt lat="45.34446" lon="4.60395">
        <ele>862.20001220703</ele>
        <time>2019-10-30T08:56:22.000Z</time>
      </trkpt>
      <trkpt lat="45.34447" lon="4.60396">
        <ele>862.20001220703</ele>
        <time>2019-10-30T08:56:23.000Z</time>
      </trkpt>
      <trkpt lat="45.34449" lon="4.60398">
        <ele>862.20001220703</ele>
        <time>2019-10-30T08:56:25.000Z</time>
      </trkpt>
      <trkpt lat="45.34451" lon="4.604">
        <ele>862.20001220703</ele>
        <time>2019-10-30T08:56:26.000Z</time>
      </trkpt>
      <trkpt lat="45.34452" lon="4.60401">
        <ele>862.20001220703</ele>
        <time>2019-10-30T08:56:27.000Z</time>
      </trkpt>
      <trkpt lat="45.34459" lon="4.60405">
        <ele>862.20001220703</ele>
        <time>2019-10-30T08:56:31.000Z</time>
      </trkpt>
      <trkpt lat="45.34461" lon="4.60405">
        <ele>862.20001220703</ele>
        <time>2019-10-30T08:56:32.000Z</time>
      </trkpt>
      <trkpt lat="45.34463" lon="4.60403">
        <ele>862.20001220703</ele>
        <time>2019-10-30T08:56:33.000Z</time>
      </trkpt>
      <trkpt lat="45.34464" lon="4.604">
        <ele>862.20001220703</ele>
        <time>2019-10-30T08:56:34.000Z</time>
      </trkpt>
      <trkpt lat="45.34464" lon="4.60398">
        <ele>862.40002441406</ele>
        <time>2019-10-30T08:56:35.000Z</time>
      </trkpt>
      <trkpt lat="45.34465" lon="4.60396">
        <ele>862.40002441406</ele>
        <time>2019-10-30T08:56:36.000Z</time>
      </trkpt>
      <trkpt lat="45.34465" lon="4.60394">
        <ele>862.40002441406</ele>
        <time>2019-10-30T08:56:37.000Z</time>
      </trkpt>
      <trkpt lat="45.34466" lon="4.60392">
        <ele>862.59997558594</ele>
        <time>2019-10-30T08:56:38.000Z</time>
      </trkpt>
      <trkpt lat="45.34466" lon="4.60391">
        <ele>862.59997558594</ele>
        <time>2019-10-30T08:56:39.000Z</time>
      </trkpt>
      <trkpt lat="45.34466" lon="4.6039">
        <ele>862.59997558594</ele>
        <time>2019-10-30T08:56:40.000Z</time>
      </trkpt>
      <trkpt lat="45.34466" lon="4.60388">
        <ele>862.59997558594</ele>
        <time>2019-10-30T08:56:41.000Z</time>
      </trkpt>
      <trkpt lat="45.34466" lon="4.60387">
        <ele>862.59997558594</ele>
        <time>2019-10-30T08:56:42.000Z</time>
      </trkpt>
      <trkpt lat="45.34466" lon="4.60387">
        <ele>862.59997558594</ele>
        <time>2019-10-30T08:56:43.000Z</time>
      </trkpt>
      <trkpt lat="45.34465" lon="4.60388">
        <ele>863.59997558594</ele>
        <time>2019-10-30T08:56:51.000Z</time>
      </trkpt>
      <trkpt lat="45.34465" lon="4.60388">
        <ele>863.79998779297</ele>
        <time>2019-10-30T08:56:52.000Z</time>
      </trkpt>
      <trkpt lat="45.34464" lon="4.60391">
        <ele>863.79998779297</ele>
        <time>2019-10-30T08:56:54.000Z</time>
      </trkpt>
      <trkpt lat="45.34462" lon="4.60397">
        <ele>863.79998779297</ele>
        <time>2019-10-30T08:56:56.000Z</time>
      </trkpt>
      <trkpt lat="45.34461" lon="4.60399">
        <ele>863.79998779297</ele>
        <time>2019-10-30T08:56:57.000Z</time>
      </trkpt>
      <trkpt lat="45.34459" lon="4.604">
        <ele>863.79998779297</ele>
        <time>2019-10-30T08:56:58.000Z</time>
      </trkpt>
      <trkpt lat="45.34456" lon="4.604">
        <ele>863.79998779297</ele>
        <time>2019-10-30T08:56:59.000Z</time>
      </trkpt>
      <trkpt lat="45.34454" lon="4.60398">
        <ele>863.79998779297</ele>
        <time>2019-10-30T08:57:00.000Z</time>
      </trkpt>
      <trkpt lat="45.34452" lon="4.60396">
        <ele>863.79998779297</ele>
        <time>2019-10-30T08:57:01.000Z</time>
      </trkpt>
      <trkpt lat="45.3445" lon="4.60393">
        <ele>863.79998779297</ele>
        <time>2019-10-30T08:57:02.000Z</time>
      </trkpt>
      <trkpt lat="45.34448" lon="4.60391">
        <ele>863.79998779297</ele>
        <time>2019-10-30T08:57:03.000Z</time>
      </trkpt>
      <trkpt lat="45.34446" lon="4.60389">
        <ele>863.59997558594</ele>
        <time>2019-10-30T08:57:04.000Z</time>
      </trkpt>
      <trkpt lat="45.34444" lon="4.60387">
        <ele>863.20001220703</ele>
        <time>2019-10-30T08:57:05.000Z</time>
      </trkpt>
      <trkpt lat="45.34442" lon="4.60385">
        <ele>863</ele>
        <time>2019-10-30T08:57:06.000Z</time>
      </trkpt>
      <trkpt lat="45.3444" lon="4.60383">
        <ele>862.59997558594</ele>
        <time>2019-10-30T08:57:07.000Z</time>
      </trkpt>
      <trkpt lat="45.34433" lon="4.60376">
        <ele>862.20001220703</ele>
        <time>2019-10-30T08:57:10.000Z</time>
      </trkpt>
      <trkpt lat="45.34428" lon="4.60371">
        <ele>862</ele>
        <time>2019-10-30T08:57:12.000Z</time>
      </trkpt>
      <trkpt lat="45.34418" lon="4.6036">
        <ele>861.59997558594</ele>
        <time>2019-10-30T08:57:16.000Z</time>
      </trkpt>
      <trkpt lat="45.34415" lon="4.60357">
        <ele>861.59997558594</ele>
        <time>2019-10-30T08:57:17.000Z</time>
      </trkpt>
      <trkpt lat="45.34413" lon="4.60353">
        <ele>861.40002441406</ele>
        <time>2019-10-30T08:57:18.000Z</time>
      </trkpt>
      <trkpt lat="45.34411" lon="4.60349">
        <ele>861.40002441406</ele>
        <time>2019-10-30T08:57:19.000Z</time>
      </trkpt>
      <trkpt lat="45.34409" lon="4.60345">
        <ele>861.20001220703</ele>
        <time>2019-10-30T08:57:20.000Z</time>
      </trkpt>
      <trkpt lat="45.34407" lon="4.60341">
        <ele>861.20001220703</ele>
        <time>2019-10-30T08:57:21.000Z</time>
      </trkpt>
      <trkpt lat="45.34405" lon="4.60331">
        <ele>861</ele>
        <time>2019-10-30T08:57:23.000Z</time>
      </trkpt>
      <trkpt lat="45.34404" lon="4.60325">
        <ele>861</ele>
        <time>2019-10-30T08:57:24.000Z</time>
      </trkpt>
      <trkpt lat="45.34404" lon="4.6032">
        <ele>860.79998779297</ele>
        <time>2019-10-30T08:57:25.000Z</time>
      </trkpt>
      <trkpt lat="45.34404" lon="4.60315">
        <ele>860.79998779297</ele>
        <time>2019-10-30T08:57:26.000Z</time>
      </trkpt>
      <trkpt lat="45.34406" lon="4.60313">
        <ele>860.79998779297</ele>
        <time>2019-10-30T08:57:27.000Z</time>
      </trkpt>
      <trkpt lat="45.34408" lon="4.60311">
        <ele>860.59997558594</ele>
        <time>2019-10-30T08:57:28.000Z</time>
      </trkpt>
      <trkpt lat="45.3441" lon="4.60309">
        <ele>860.59997558594</ele>
        <time>2019-10-30T08:57:29.000Z</time>
      </trkpt>
      <trkpt lat="45.34412" lon="4.60307">
        <ele>860.59997558594</ele>
        <time>2019-10-30T08:57:30.000Z</time>
      </trkpt>
      <trkpt lat="45.34413" lon="4.60305">
        <ele>860.40002441406</ele>
        <time>2019-10-30T08:57:31.000Z</time>
      </trkpt>
      <trkpt lat="45.34417" lon="4.603">
        <ele>860.59997558594</ele>
        <time>2019-10-30T08:57:33.000Z</time>
      </trkpt>
      <trkpt lat="45.34419" lon="4.60298">
        <ele>860.59997558594</ele>
        <time>2019-10-30T08:57:34.000Z</time>
      </trkpt>
      <trkpt lat="45.34421" lon="4.60296">
        <ele>860.59997558594</ele>
        <time>2019-10-30T08:57:35.000Z</time>
      </trkpt>
      <trkpt lat="45.34423" lon="4.60293">
        <ele>860.40002441406</ele>
        <time>2019-10-30T08:57:36.000Z</time>
      </trkpt>
      <trkpt lat="45.34425" lon="4.60291">
        <ele>860.59997558594</ele>
        <time>2019-10-30T08:57:37.000Z</time>
      </trkpt>
      <trkpt lat="45.34426" lon="4.60289">
        <ele>860.40002441406</ele>
        <time>2019-10-30T08:57:38.000Z</time>
      </trkpt>
      <trkpt lat="45.34427" lon="4.60287">
        <ele>860.59997558594</ele>
        <time>2019-10-30T08:57:39.000Z</time>
      </trkpt>
      <trkpt lat="45.34429" lon="4.60284">
        <ele>860.59997558594</ele>
        <time>2019-10-30T08:57:40.000Z</time>
      </trkpt>
      <trkpt lat="45.3443" lon="4.60282">
        <ele>860.79998779297</ele>
        <time>2019-10-30T08:57:41.000Z</time>
      </trkpt>
      <trkpt lat="45.3443" lon="4.60279">
        <ele>861.20001220703</ele>
        <time>2019-10-30T08:57:42.000Z</time>
      </trkpt>
      <trkpt lat="45.34431" lon="4.60276">
        <ele>861.40002441406</ele>
        <time>2019-10-30T08:57:43.000Z</time>
      </trkpt>
      <trkpt lat="45.34432" lon="4.60274">
        <ele>861.79998779297</ele>
        <time>2019-10-30T08:57:44.000Z</time>
      </trkpt>
      <trkpt lat="45.34433" lon="4.60271">
        <ele>862.20001220703</ele>
        <time>2019-10-30T08:57:45.000Z</time>
      </trkpt>
      <trkpt lat="45.34433" lon="4.60268">
        <ele>862.20001220703</ele>
        <time>2019-10-30T08:57:46.000Z</time>
      </trkpt>
      <trkpt lat="45.34433" lon="4.60266">
        <ele>862.40002441406</ele>
        <time>2019-10-30T08:57:47.000Z</time>
      </trkpt>
      <trkpt lat="45.34434" lon="4.60264">
        <ele>862.40002441406</ele>
        <time>2019-10-30T08:57:48.000Z</time>
      </trkpt>
      <trkpt lat="45.34434" lon="4.60262">
        <ele>862.79998779297</ele>
        <time>2019-10-30T08:57:49.000Z</time>
      </trkpt>
      <trkpt lat="45.34434" lon="4.60261">
        <ele>863</ele>
        <time>2019-10-30T08:57:50.000Z</time>
      </trkpt>
      <trkpt lat="45.34434" lon="4.6026">
        <ele>863.20001220703</ele>
        <time>2019-10-30T08:57:51.000Z</time>
      </trkpt>
      <trkpt lat="45.34434" lon="4.60259">
        <ele>863.40002441406</ele>
        <time>2019-10-30T08:57:52.000Z</time>
      </trkpt>
      <trkpt lat="45.34434" lon="4.60258">
        <ele>863.59997558594</ele>
        <time>2019-10-30T08:57:53.000Z</time>
      </trkpt>
      <trkpt lat="45.34435" lon="4.60258">
        <ele>863.79998779297</ele>
        <time>2019-10-30T08:57:54.000Z</time>
      </trkpt>
      <trkpt lat="45.34437" lon="4.60258">
        <ele>864</ele>
        <time>2019-10-30T08:57:55.000Z</time>
      </trkpt>
      <trkpt lat="45.34438" lon="4.60259">
        <ele>864.20001220703</ele>
        <time>2019-10-30T08:57:56.000Z</time>
      </trkpt>
      <trkpt lat="45.3444" lon="4.60259">
        <ele>864.20001220703</ele>
        <time>2019-10-30T08:57:57.000Z</time>
      </trkpt>
      <trkpt lat="45.34442" lon="4.6026">
        <ele>864.40002441406</ele>
        <time>2019-10-30T08:57:58.000Z</time>
      </trkpt>
      <trkpt lat="45.34443" lon="4.6026">
        <ele>864.59997558594</ele>
        <time>2019-10-30T08:57:59.000Z</time>
      </trkpt>
      <trkpt lat="45.34444" lon="4.60261">
        <ele>864.79998779297</ele>
        <time>2019-10-30T08:58:00.000Z</time>
      </trkpt>
      <trkpt lat="45.34445" lon="4.60261">
        <ele>864.79998779297</ele>
        <time>2019-10-30T08:58:01.000Z</time>
      </trkpt>
      <trkpt lat="45.34446" lon="4.60262">
        <ele>864.79998779297</ele>
        <time>2019-10-30T08:58:02.000Z</time>
      </trkpt>
      <trkpt lat="45.34447" lon="4.60263">
        <ele>864.79998779297</ele>
        <time>2019-10-30T08:58:03.000Z</time>
      </trkpt>
      <trkpt lat="45.34448" lon="4.60265">
        <ele>865</ele>
        <time>2019-10-30T08:58:04.000Z</time>
      </trkpt>
      <trkpt lat="45.34449" lon="4.60266">
        <ele>865</ele>
        <time>2019-10-30T08:58:05.000Z</time>
      </trkpt>
      <trkpt lat="45.34451" lon="4.60267">
        <ele>865</ele>
        <time>2019-10-30T08:58:06.000Z</time>
      </trkpt>
      <trkpt lat="45.34452" lon="4.60268">
        <ele>865.40002441406</ele>
        <time>2019-10-30T08:58:07.000Z</time>
      </trkpt>
      <trkpt lat="45.34453" lon="4.60269">
        <ele>865.59997558594</ele>
        <time>2019-10-30T08:58:08.000Z</time>
      </trkpt>
      <trkpt lat="45.34454" lon="4.6027">
        <ele>866</ele>
        <time>2019-10-30T08:58:09.000Z</time>
      </trkpt>
      <trkpt lat="45.34455" lon="4.60271">
        <ele>866.20001220703</ele>
        <time>2019-10-30T08:58:10.000Z</time>
      </trkpt>
      <trkpt lat="45.34456" lon="4.60272">
        <ele>866.40002441406</ele>
        <time>2019-10-30T08:58:11.000Z</time>
      </trkpt>
      <trkpt lat="45.34458" lon="4.60273">
        <ele>866.59997558594</ele>
        <time>2019-10-30T08:58:12.000Z</time>
      </trkpt>
      <trkpt lat="45.34459" lon="4.60273">
        <ele>866.79998779297</ele>
        <time>2019-10-30T08:58:13.000Z</time>
      </trkpt>
      <trkpt lat="45.3446" lon="4.60274">
        <ele>866.79998779297</ele>
        <time>2019-10-30T08:58:14.000Z</time>
      </trkpt>
      <trkpt lat="45.34461" lon="4.60275">
        <ele>867.20001220703</ele>
        <time>2019-10-30T08:58:15.000Z</time>
      </trkpt>
      <trkpt lat="45.34462" lon="4.60276">
        <ele>867.40002441406</ele>
        <time>2019-10-30T08:58:16.000Z</time>
      </trkpt>
      <trkpt lat="45.34463" lon="4.60277">
        <ele>867.79998779297</ele>
        <time>2019-10-30T08:58:17.000Z</time>
      </trkpt>
      <trkpt lat="45.34464" lon="4.60278">
        <ele>868</ele>
        <time>2019-10-30T08:58:18.000Z</time>
      </trkpt>
      <trkpt lat="45.34465" lon="4.60279">
        <ele>868</ele>
        <time>2019-10-30T08:58:19.000Z</time>
      </trkpt>
      <trkpt lat="45.34466" lon="4.6028">
        <ele>868.40002441406</ele>
        <time>2019-10-30T08:58:20.000Z</time>
      </trkpt>
      <trkpt lat="45.34468" lon="4.60281">
        <ele>868.79998779297</ele>
        <time>2019-10-30T08:58:21.000Z</time>
      </trkpt>
      <trkpt lat="45.34469" lon="4.60281">
        <ele>868.79998779297</ele>
        <time>2019-10-30T08:58:22.000Z</time>
      </trkpt>
      <trkpt lat="45.3447" lon="4.60282">
        <ele>869.20001220703</ele>
        <time>2019-10-30T08:58:23.000Z</time>
      </trkpt>
      <trkpt lat="45.34471" lon="4.60282">
        <ele>869.20001220703</ele>
        <time>2019-10-30T08:58:24.000Z</time>
      </trkpt>
      <trkpt lat="45.34472" lon="4.60281">
        <ele>869.40002441406</ele>
        <time>2019-10-30T08:58:25.000Z</time>
      </trkpt>
      <trkpt lat="45.34473" lon="4.6028">
        <ele>869.40002441406</ele>
        <time>2019-10-30T08:58:26.000Z</time>
      </trkpt>
      <trkpt lat="45.34474" lon="4.60279">
        <ele>869.79998779297</ele>
        <time>2019-10-30T08:58:27.000Z</time>
      </trkpt>
      <trkpt lat="45.34475" lon="4.60279">
        <ele>869.79998779297</ele>
        <time>2019-10-30T08:58:28.000Z</time>
      </trkpt>
      <trkpt lat="45.34476" lon="4.60278">
        <ele>869.79998779297</ele>
        <time>2019-10-30T08:58:29.000Z</time>
      </trkpt>
      <trkpt lat="45.34477" lon="4.60277">
        <ele>870</ele>
        <time>2019-10-30T08:58:30.000Z</time>
      </trkpt>
      <trkpt lat="45.34478" lon="4.60276">
        <ele>870.20001220703</ele>
        <time>2019-10-30T08:58:31.000Z</time>
      </trkpt>
      <trkpt lat="45.34479" lon="4.60276">
        <ele>870.40002441406</ele>
        <time>2019-10-30T08:58:32.000Z</time>
      </trkpt>
      <trkpt lat="45.3448" lon="4.60276">
        <ele>870.59997558594</ele>
        <time>2019-10-30T08:58:33.000Z</time>
      </trkpt>
      <trkpt lat="45.34481" lon="4.60276">
        <ele>870.79998779297</ele>
        <time>2019-10-30T08:58:34.000Z</time>
      </trkpt>
      <trkpt lat="45.34483" lon="4.60276">
        <ele>871</ele>
        <time>2019-10-30T08:58:35.000Z</time>
      </trkpt>
      <trkpt lat="45.34484" lon="4.60276">
        <ele>871.20001220703</ele>
        <time>2019-10-30T08:58:36.000Z</time>
      </trkpt>
      <trkpt lat="45.34484" lon="4.60276">
        <ele>871.59997558594</ele>
        <time>2019-10-30T08:58:37.000Z</time>
      </trkpt>
      <trkpt lat="45.34485" lon="4.60276">
        <ele>871.79998779297</ele>
        <time>2019-10-30T08:58:38.000Z</time>
      </trkpt>
      <trkpt lat="45.34487" lon="4.60275">
        <ele>872</ele>
        <time>2019-10-30T08:58:39.000Z</time>
      </trkpt>
      <trkpt lat="45.34488" lon="4.60274">
        <ele>872</ele>
        <time>2019-10-30T08:58:40.000Z</time>
      </trkpt>
      <trkpt lat="45.34489" lon="4.60274">
        <ele>872</ele>
        <time>2019-10-30T08:58:41.000Z</time>
      </trkpt>
      <trkpt lat="45.3449" lon="4.60273">
        <ele>872.20001220703</ele>
        <time>2019-10-30T08:58:42.000Z</time>
      </trkpt>
      <trkpt lat="45.34492" lon="4.60272">
        <ele>872.40002441406</ele>
        <time>2019-10-30T08:58:43.000Z</time>
      </trkpt>
      <trkpt lat="45.34493" lon="4.60271">
        <ele>872.59997558594</ele>
        <time>2019-10-30T08:58:44.000Z</time>
      </trkpt>
      <trkpt lat="45.34494" lon="4.60271">
        <ele>872.59997558594</ele>
        <time>2019-10-30T08:58:45.000Z</time>
      </trkpt>
      <trkpt lat="45.34495" lon="4.6027">
        <ele>872.79998779297</ele>
        <time>2019-10-30T08:58:46.000Z</time>
      </trkpt>
      <trkpt lat="45.34496" lon="4.60268">
        <ele>873</ele>
        <time>2019-10-30T08:58:47.000Z</time>
      </trkpt>
      <trkpt lat="45.34497" lon="4.60267">
        <ele>873.20001220703</ele>
        <time>2019-10-30T08:58:48.000Z</time>
      </trkpt>
      <trkpt lat="45.34498" lon="4.60266">
        <ele>873.20001220703</ele>
        <time>2019-10-30T08:58:49.000Z</time>
      </trkpt>
      <trkpt lat="45.34499" lon="4.60264">
        <ele>873.59997558594</ele>
        <time>2019-10-30T08:58:50.000Z</time>
      </trkpt>
      <trkpt lat="45.345" lon="4.60262">
        <ele>873.59997558594</ele>
        <time>2019-10-30T08:58:51.000Z</time>
      </trkpt>
      <trkpt lat="45.34501" lon="4.60261">
        <ele>873.79998779297</ele>
        <time>2019-10-30T08:58:52.000Z</time>
      </trkpt>
      <trkpt lat="45.34501" lon="4.60259">
        <ele>873.79998779297</ele>
        <time>2019-10-30T08:58:53.000Z</time>
      </trkpt>
      <trkpt lat="45.34502" lon="4.60258">
        <ele>874.20001220703</ele>
        <time>2019-10-30T08:58:54.000Z</time>
      </trkpt>
      <trkpt lat="45.34503" lon="4.60256">
        <ele>874.59997558594</ele>
        <time>2019-10-30T08:58:55.000Z</time>
      </trkpt>
      <trkpt lat="45.34504" lon="4.60254">
        <ele>874.79998779297</ele>
        <time>2019-10-30T08:58:56.000Z</time>
      </trkpt>
      <trkpt lat="45.34504" lon="4.60253">
        <ele>874.79998779297</ele>
        <time>2019-10-30T08:58:57.000Z</time>
      </trkpt>
      <trkpt lat="45.34505" lon="4.60251">
        <ele>875.20001220703</ele>
        <time>2019-10-30T08:58:58.000Z</time>
      </trkpt>
      <trkpt lat="45.34505" lon="4.60249">
        <ele>875.40002441406</ele>
        <time>2019-10-30T08:58:59.000Z</time>
      </trkpt>
      <trkpt lat="45.34505" lon="4.60248">
        <ele>876</ele>
        <time>2019-10-30T08:59:00.000Z</time>
      </trkpt>
      <trkpt lat="45.34505" lon="4.60246">
        <ele>876.20001220703</ele>
        <time>2019-10-30T08:59:01.000Z</time>
      </trkpt>
      <trkpt lat="45.34506" lon="4.60244">
        <ele>876.40002441406</ele>
        <time>2019-10-30T08:59:02.000Z</time>
      </trkpt>
      <trkpt lat="45.34505" lon="4.60242">
        <ele>877</ele>
        <time>2019-10-30T08:59:03.000Z</time>
      </trkpt>
      <trkpt lat="45.34505" lon="4.6024">
        <ele>877</ele>
        <time>2019-10-30T08:59:04.000Z</time>
      </trkpt>
      <trkpt lat="45.34505" lon="4.60238">
        <ele>877.20001220703</ele>
        <time>2019-10-30T08:59:05.000Z</time>
      </trkpt>
      <trkpt lat="45.34505" lon="4.60236">
        <ele>877.20001220703</ele>
        <time>2019-10-30T08:59:06.000Z</time>
      </trkpt>
      <trkpt lat="45.34506" lon="4.60234">
        <ele>877.59997558594</ele>
        <time>2019-10-30T08:59:07.000Z</time>
      </trkpt>
      <trkpt lat="45.34507" lon="4.60232">
        <ele>877.79998779297</ele>
        <time>2019-10-30T08:59:08.000Z</time>
      </trkpt>
      <trkpt lat="45.34507" lon="4.6023">
        <ele>878.20001220703</ele>
        <time>2019-10-30T08:59:09.000Z</time>
      </trkpt>
      <trkpt lat="45.34507" lon="4.60228">
        <ele>878.40002441406</ele>
        <time>2019-10-30T08:59:10.000Z</time>
      </trkpt>
      <trkpt lat="45.34507" lon="4.60225">
        <ele>878.40002441406</ele>
        <time>2019-10-30T08:59:11.000Z</time>
      </trkpt>
      <trkpt lat="45.34508" lon="4.60223">
        <ele>878.59997558594</ele>
        <time>2019-10-30T08:59:12.000Z</time>
      </trkpt>
      <trkpt lat="45.34508" lon="4.60221">
        <ele>878.59997558594</ele>
        <time>2019-10-30T08:59:13.000Z</time>
      </trkpt>
      <trkpt lat="45.34508" lon="4.60219">
        <ele>879</ele>
        <time>2019-10-30T08:59:14.000Z</time>
      </trkpt>
      <trkpt lat="45.34509" lon="4.60216">
        <ele>879</ele>
        <time>2019-10-30T08:59:15.000Z</time>
      </trkpt>
      <trkpt lat="45.34509" lon="4.60214">
        <ele>879.40002441406</ele>
        <time>2019-10-30T08:59:16.000Z</time>
      </trkpt>
      <trkpt lat="45.34509" lon="4.60211">
        <ele>879.40002441406</ele>
        <time>2019-10-30T08:59:17.000Z</time>
      </trkpt>
      <trkpt lat="45.3451" lon="4.60209">
        <ele>879.40002441406</ele>
        <time>2019-10-30T08:59:18.000Z</time>
      </trkpt>
      <trkpt lat="45.3451" lon="4.60206">
        <ele>879.59997558594</ele>
        <time>2019-10-30T08:59:19.000Z</time>
      </trkpt>
      <trkpt lat="45.3451" lon="4.60204">
        <ele>879.79998779297</ele>
        <time>2019-10-30T08:59:20.000Z</time>
      </trkpt>
      <trkpt lat="45.3451" lon="4.60202">
        <ele>880</ele>
        <time>2019-10-30T08:59:21.000Z</time>
      </trkpt>
      <trkpt lat="45.34511" lon="4.602">
        <ele>880</ele>
        <time>2019-10-30T08:59:22.000Z</time>
      </trkpt>
      <trkpt lat="45.34511" lon="4.60198">
        <ele>880.20001220703</ele>
        <time>2019-10-30T08:59:23.000Z</time>
      </trkpt>
      <trkpt lat="45.34511" lon="4.60196">
        <ele>880.20001220703</ele>
        <time>2019-10-30T08:59:24.000Z</time>
      </trkpt>
      <trkpt lat="45.34511" lon="4.60194">
        <ele>880.59997558594</ele>
        <time>2019-10-30T08:59:25.000Z</time>
      </trkpt>
      <trkpt lat="45.34512" lon="4.60192">
        <ele>880.40002441406</ele>
        <time>2019-10-30T08:59:26.000Z</time>
      </trkpt>
      <trkpt lat="45.34512" lon="4.6019">
        <ele>880.59997558594</ele>
        <time>2019-10-30T08:59:27.000Z</time>
      </trkpt>
      <trkpt lat="45.34512" lon="4.60188">
        <ele>880.79998779297</ele>
        <time>2019-10-30T08:59:28.000Z</time>
      </trkpt>
      <trkpt lat="45.34512" lon="4.60187">
        <ele>880.79998779297</ele>
        <time>2019-10-30T08:59:29.000Z</time>
      </trkpt>
      <trkpt lat="45.34513" lon="4.60185">
        <ele>881.20001220703</ele>
        <time>2019-10-30T08:59:30.000Z</time>
      </trkpt>
      <trkpt lat="45.34513" lon="4.60183">
        <ele>881.40002441406</ele>
        <time>2019-10-30T08:59:31.000Z</time>
      </trkpt>
      <trkpt lat="45.34513" lon="4.60181">
        <ele>881.40002441406</ele>
        <time>2019-10-30T08:59:32.000Z</time>
      </trkpt>
      <trkpt lat="45.34513" lon="4.60179">
        <ele>881.59997558594</ele>
        <time>2019-10-30T08:59:33.000Z</time>
      </trkpt>
      <trkpt lat="45.34513" lon="4.60177">
        <ele>881.59997558594</ele>
        <time>2019-10-30T08:59:34.000Z</time>
      </trkpt>
      <trkpt lat="45.34513" lon="4.60175">
        <ele>881.59997558594</ele>
        <time>2019-10-30T08:59:35.000Z</time>
      </trkpt>
      <trkpt lat="45.34513" lon="4.60172">
        <ele>881.79998779297</ele>
        <time>2019-10-30T08:59:36.000Z</time>
      </trkpt>
      <trkpt lat="45.34513" lon="4.6017">
        <ele>882</ele>
        <time>2019-10-30T08:59:37.000Z</time>
      </trkpt>
      <trkpt lat="45.34513" lon="4.60168">
        <ele>882.20001220703</ele>
        <time>2019-10-30T08:59:38.000Z</time>
      </trkpt>
      <trkpt lat="45.34513" lon="4.60166">
        <ele>882.40002441406</ele>
        <time>2019-10-30T08:59:39.000Z</time>
      </trkpt>
      <trkpt lat="45.34513" lon="4.60163">
        <ele>882.79998779297</ele>
        <time>2019-10-30T08:59:40.000Z</time>
      </trkpt>
      <trkpt lat="45.34513" lon="4.60161">
        <ele>882.79998779297</ele>
        <time>2019-10-30T08:59:41.000Z</time>
      </trkpt>
      <trkpt lat="45.34513" lon="4.60159">
        <ele>883</ele>
        <time>2019-10-30T08:59:42.000Z</time>
      </trkpt>
      <trkpt lat="45.34514" lon="4.60156">
        <ele>883.20001220703</ele>
        <time>2019-10-30T08:59:43.000Z</time>
      </trkpt>
      <trkpt lat="45.34514" lon="4.60154">
        <ele>883.40002441406</ele>
        <time>2019-10-30T08:59:44.000Z</time>
      </trkpt>
      <trkpt lat="45.34514" lon="4.60151">
        <ele>883.59997558594</ele>
        <time>2019-10-30T08:59:45.000Z</time>
      </trkpt>
      <trkpt lat="45.34515" lon="4.60149">
        <ele>884</ele>
        <time>2019-10-30T08:59:46.000Z</time>
      </trkpt>
      <trkpt lat="45.34515" lon="4.60147">
        <ele>884</ele>
        <time>2019-10-30T08:59:47.000Z</time>
      </trkpt>
      <trkpt lat="45.34515" lon="4.60145">
        <ele>884.40002441406</ele>
        <time>2019-10-30T08:59:48.000Z</time>
      </trkpt>
      <trkpt lat="45.34516" lon="4.60144">
        <ele>884.59997558594</ele>
        <time>2019-10-30T08:59:49.000Z</time>
      </trkpt>
      <trkpt lat="45.34516" lon="4.60142">
        <ele>884.79998779297</ele>
        <time>2019-10-30T08:59:50.000Z</time>
      </trkpt>
      <trkpt lat="45.34517" lon="4.6014">
        <ele>885</ele>
        <time>2019-10-30T08:59:51.000Z</time>
      </trkpt>
      <trkpt lat="45.34517" lon="4.60138">
        <ele>885</ele>
        <time>2019-10-30T08:59:52.000Z</time>
      </trkpt>
      <trkpt lat="45.34518" lon="4.60136">
        <ele>885</ele>
        <time>2019-10-30T08:59:53.000Z</time>
      </trkpt>
      <trkpt lat="45.34519" lon="4.60135">
        <ele>885.20001220703</ele>
        <time>2019-10-30T08:59:54.000Z</time>
      </trkpt>
      <trkpt lat="45.3452" lon="4.60133">
        <ele>885.40002441406</ele>
        <time>2019-10-30T08:59:55.000Z</time>
      </trkpt>
      <trkpt lat="45.34521" lon="4.60132">
        <ele>885.40002441406</ele>
        <time>2019-10-30T08:59:56.000Z</time>
      </trkpt>
      <trkpt lat="45.34522" lon="4.60131">
        <ele>885.79998779297</ele>
        <time>2019-10-30T08:59:57.000Z</time>
      </trkpt>
      <trkpt lat="45.34523" lon="4.6013">
        <ele>885.79998779297</ele>
        <time>2019-10-30T08:59:58.000Z</time>
      </trkpt>
      <trkpt lat="45.34523" lon="4.60128">
        <ele>885.79998779297</ele>
        <time>2019-10-30T08:59:59.000Z</time>
      </trkpt>
      <trkpt lat="45.34524" lon="4.60127">
        <ele>886.20001220703</ele>
        <time>2019-10-30T09:00:00.000Z</time>
      </trkpt>
      <trkpt lat="45.34525" lon="4.60125">
        <ele>886.40002441406</ele>
        <time>2019-10-30T09:00:01.000Z</time>
      </trkpt>
      <trkpt lat="45.34526" lon="4.60124">
        <ele>886.59997558594</ele>
        <time>2019-10-30T09:00:02.000Z</time>
      </trkpt>
      <trkpt lat="45.34527" lon="4.60122">
        <ele>886.79998779297</ele>
        <time>2019-10-30T09:00:03.000Z</time>
      </trkpt>
      <trkpt lat="45.34528" lon="4.6012">
        <ele>886.79998779297</ele>
        <time>2019-10-30T09:00:04.000Z</time>
      </trkpt>
      <trkpt lat="45.34529" lon="4.60118">
        <ele>887.20001220703</ele>
        <time>2019-10-30T09:00:05.000Z</time>
      </trkpt>
      <trkpt lat="45.3453" lon="4.60116">
        <ele>887.40002441406</ele>
        <time>2019-10-30T09:00:06.000Z</time>
      </trkpt>
      <trkpt lat="45.3453" lon="4.60114">
        <ele>887.79998779297</ele>
        <time>2019-10-30T09:00:07.000Z</time>
      </trkpt>
      <trkpt lat="45.34531" lon="4.60112">
        <ele>888</ele>
        <time>2019-10-30T09:00:08.000Z</time>
      </trkpt>
      <trkpt lat="45.34531" lon="4.6011">
        <ele>888.20001220703</ele>
        <time>2019-10-30T09:00:09.000Z</time>
      </trkpt>
      <trkpt lat="45.34531" lon="4.60108">
        <ele>888.79998779297</ele>
        <time>2019-10-30T09:00:10.000Z</time>
      </trkpt>
      <trkpt lat="45.34531" lon="4.60106">
        <ele>888.79998779297</ele>
        <time>2019-10-30T09:00:11.000Z</time>
      </trkpt>
      <trkpt lat="45.34531" lon="4.60104">
        <ele>889</ele>
        <time>2019-10-30T09:00:12.000Z</time>
      </trkpt>
      <trkpt lat="45.34531" lon="4.60101">
        <ele>889.20001220703</ele>
        <time>2019-10-30T09:00:13.000Z</time>
      </trkpt>
      <trkpt lat="45.34532" lon="4.60099">
        <ele>889.40002441406</ele>
        <time>2019-10-30T09:00:14.000Z</time>
      </trkpt>
      <trkpt lat="45.34532" lon="4.60097">
        <ele>889.40002441406</ele>
        <time>2019-10-30T09:00:15.000Z</time>
      </trkpt>
      <trkpt lat="45.34532" lon="4.60095">
        <ele>889.59997558594</ele>
        <time>2019-10-30T09:00:16.000Z</time>
      </trkpt>
      <trkpt lat="45.34532" lon="4.60093">
        <ele>889.59997558594</ele>
        <time>2019-10-30T09:00:17.000Z</time>
      </trkpt>
      <trkpt lat="45.34532" lon="4.6009">
        <ele>889.59997558594</ele>
        <time>2019-10-30T09:00:18.000Z</time>
      </trkpt>
      <trkpt lat="45.34532" lon="4.60089">
        <ele>889.79998779297</ele>
        <time>2019-10-30T09:00:19.000Z</time>
      </trkpt>
      <trkpt lat="45.34532" lon="4.60087">
        <ele>890</ele>
        <time>2019-10-30T09:00:20.000Z</time>
      </trkpt>
      <trkpt lat="45.34533" lon="4.60085">
        <ele>890.20001220703</ele>
        <time>2019-10-30T09:00:21.000Z</time>
      </trkpt>
      <trkpt lat="45.34533" lon="4.60083">
        <ele>890.20001220703</ele>
        <time>2019-10-30T09:00:22.000Z</time>
      </trkpt>
      <trkpt lat="45.34533" lon="4.60081">
        <ele>890.20001220703</ele>
        <time>2019-10-30T09:00:23.000Z</time>
      </trkpt>
      <trkpt lat="45.34533" lon="4.60079">
        <ele>890.20001220703</ele>
        <time>2019-10-30T09:00:24.000Z</time>
      </trkpt>
      <trkpt lat="45.34533" lon="4.60078">
        <ele>890.40002441406</ele>
        <time>2019-10-30T09:00:25.000Z</time>
      </trkpt>
      <trkpt lat="45.34532" lon="4.60076">
        <ele>890.20001220703</ele>
        <time>2019-10-30T09:00:26.000Z</time>
      </trkpt>
      <trkpt lat="45.34532" lon="4.60074">
        <ele>890.40002441406</ele>
        <time>2019-10-30T09:00:27.000Z</time>
      </trkpt>
      <trkpt lat="45.34532" lon="4.60071">
        <ele>890.40002441406</ele>
        <time>2019-10-30T09:00:28.000Z</time>
      </trkpt>
      <trkpt lat="45.34532" lon="4.60069">
        <ele>890.59997558594</ele>
        <time>2019-10-30T09:00:29.000Z</time>
      </trkpt>
      <trkpt lat="45.34532" lon="4.60068">
        <ele>890.59997558594</ele>
        <time>2019-10-30T09:00:30.000Z</time>
      </trkpt>
      <trkpt lat="45.34532" lon="4.60066">
        <ele>890.79998779297</ele>
        <time>2019-10-30T09:00:31.000Z</time>
      </trkpt>
      <trkpt lat="45.34532" lon="4.60064">
        <ele>891</ele>
        <time>2019-10-30T09:00:32.000Z</time>
      </trkpt>
      <trkpt lat="45.34532" lon="4.60062">
        <ele>891.20001220703</ele>
        <time>2019-10-30T09:00:33.000Z</time>
      </trkpt>
      <trkpt lat="45.34532" lon="4.6006">
        <ele>891.40002441406</ele>
        <time>2019-10-30T09:00:34.000Z</time>
      </trkpt>
      <trkpt lat="45.34531" lon="4.60058">
        <ele>891.40002441406</ele>
        <time>2019-10-30T09:00:35.000Z</time>
      </trkpt>
      <trkpt lat="45.34531" lon="4.60056">
        <ele>891.40002441406</ele>
        <time>2019-10-30T09:00:36.000Z</time>
      </trkpt>
      <trkpt lat="45.34531" lon="4.60053">
        <ele>891.59997558594</ele>
        <time>2019-10-30T09:00:37.000Z</time>
      </trkpt>
      <trkpt lat="45.3453" lon="4.60051">
        <ele>891.59997558594</ele>
        <time>2019-10-30T09:00:38.000Z</time>
      </trkpt>
      <trkpt lat="45.3453" lon="4.60049">
        <ele>891.59997558594</ele>
        <time>2019-10-30T09:00:39.000Z</time>
      </trkpt>
      <trkpt lat="45.34529" lon="4.60047">
        <ele>891.79998779297</ele>
        <time>2019-10-30T09:00:40.000Z</time>
      </trkpt>
      <trkpt lat="45.34529" lon="4.60045">
        <ele>891.79998779297</ele>
        <time>2019-10-30T09:00:41.000Z</time>
      </trkpt>
      <trkpt lat="45.34529" lon="4.60043">
        <ele>892</ele>
        <time>2019-10-30T09:00:42.000Z</time>
      </trkpt>
      <trkpt lat="45.34528" lon="4.60042">
        <ele>892.20001220703</ele>
        <time>2019-10-30T09:00:43.000Z</time>
      </trkpt>
      <trkpt lat="45.34528" lon="4.60039">
        <ele>892.40002441406</ele>
        <time>2019-10-30T09:00:44.000Z</time>
      </trkpt>
      <trkpt lat="45.34528" lon="4.60037">
        <ele>892.40002441406</ele>
        <time>2019-10-30T09:00:45.000Z</time>
      </trkpt>
      <trkpt lat="45.34528" lon="4.60035">
        <ele>892.59997558594</ele>
        <time>2019-10-30T09:00:46.000Z</time>
      </trkpt>
      <trkpt lat="45.34528" lon="4.60034">
        <ele>892.59997558594</ele>
        <time>2019-10-30T09:00:47.000Z</time>
      </trkpt>
      <trkpt lat="45.34528" lon="4.60032">
        <ele>892.79998779297</ele>
        <time>2019-10-30T09:00:48.000Z</time>
      </trkpt>
      <trkpt lat="45.34527" lon="4.6003">
        <ele>892.79998779297</ele>
        <time>2019-10-30T09:00:49.000Z</time>
      </trkpt>
      <trkpt lat="45.34527" lon="4.60028">
        <ele>892.79998779297</ele>
        <time>2019-10-30T09:00:50.000Z</time>
      </trkpt>
      <trkpt lat="45.34527" lon="4.60027">
        <ele>893.20001220703</ele>
        <time>2019-10-30T09:00:51.000Z</time>
      </trkpt>
      <trkpt lat="45.34526" lon="4.60025">
        <ele>893.40002441406</ele>
        <time>2019-10-30T09:00:52.000Z</time>
      </trkpt>
      <trkpt lat="45.34526" lon="4.60024">
        <ele>893.40002441406</ele>
        <time>2019-10-30T09:00:53.000Z</time>
      </trkpt>
      <trkpt lat="45.34525" lon="4.60022">
        <ele>893.59997558594</ele>
        <time>2019-10-30T09:00:54.000Z</time>
      </trkpt>
      <trkpt lat="45.34525" lon="4.6002">
        <ele>894</ele>
        <time>2019-10-30T09:00:55.000Z</time>
      </trkpt>
      <trkpt lat="45.34524" lon="4.60018">
        <ele>893.79998779297</ele>
        <time>2019-10-30T09:00:56.000Z</time>
      </trkpt>
      <trkpt lat="45.34524" lon="4.60016">
        <ele>894</ele>
        <time>2019-10-30T09:00:57.000Z</time>
      </trkpt>
      <trkpt lat="45.34523" lon="4.60014">
        <ele>894</ele>
        <time>2019-10-30T09:00:58.000Z</time>
      </trkpt>
      <trkpt lat="45.34523" lon="4.60012">
        <ele>894.40002441406</ele>
        <time>2019-10-30T09:00:59.000Z</time>
      </trkpt>
      <trkpt lat="45.34523" lon="4.6001">
        <ele>894.40002441406</ele>
        <time>2019-10-30T09:01:00.000Z</time>
      </trkpt>
      <trkpt lat="45.34522" lon="4.60008">
        <ele>894.79998779297</ele>
        <time>2019-10-30T09:01:01.000Z</time>
      </trkpt>
      <trkpt lat="45.34522" lon="4.60006">
        <ele>894.79998779297</ele>
        <time>2019-10-30T09:01:02.000Z</time>
      </trkpt>
      <trkpt lat="45.34522" lon="4.60004">
        <ele>895</ele>
        <time>2019-10-30T09:01:03.000Z</time>
      </trkpt>
      <trkpt lat="45.34521" lon="4.60002">
        <ele>895.20001220703</ele>
        <time>2019-10-30T09:01:04.000Z</time>
      </trkpt>
      <trkpt lat="45.34521" lon="4.6">
        <ele>895.40002441406</ele>
        <time>2019-10-30T09:01:05.000Z</time>
      </trkpt>
      <trkpt lat="45.3452" lon="4.59997">
        <ele>895.79998779297</ele>
        <time>2019-10-30T09:01:06.000Z</time>
      </trkpt>
      <trkpt lat="45.3452" lon="4.59995">
        <ele>896</ele>
        <time>2019-10-30T09:01:07.000Z</time>
      </trkpt>
      <trkpt lat="45.3452" lon="4.59993">
        <ele>896.20001220703</ele>
        <time>2019-10-30T09:01:08.000Z</time>
      </trkpt>
      <trkpt lat="45.34519" lon="4.59991">
        <ele>896.40002441406</ele>
        <time>2019-10-30T09:01:09.000Z</time>
      </trkpt>
      <trkpt lat="45.34519" lon="4.59989">
        <ele>896.59997558594</ele>
        <time>2019-10-30T09:01:10.000Z</time>
      </trkpt>
      <trkpt lat="45.34518" lon="4.59988">
        <ele>896.79998779297</ele>
        <time>2019-10-30T09:01:11.000Z</time>
      </trkpt>
      <trkpt lat="45.34518" lon="4.59986">
        <ele>897</ele>
        <time>2019-10-30T09:01:12.000Z</time>
      </trkpt>
      <trkpt lat="45.34518" lon="4.59983">
        <ele>897.40002441406</ele>
        <time>2019-10-30T09:01:13.000Z</time>
      </trkpt>
      <trkpt lat="45.34518" lon="4.59982">
        <ele>897.40002441406</ele>
        <time>2019-10-30T09:01:14.000Z</time>
      </trkpt>
      <trkpt lat="45.34518" lon="4.5998">
        <ele>897.59997558594</ele>
        <time>2019-10-30T09:01:15.000Z</time>
      </trkpt>
      <trkpt lat="45.34518" lon="4.59978">
        <ele>897.59997558594</ele>
        <time>2019-10-30T09:01:16.000Z</time>
      </trkpt>
      <trkpt lat="45.34518" lon="4.59977">
        <ele>897.79998779297</ele>
        <time>2019-10-30T09:01:17.000Z</time>
      </trkpt>
      <trkpt lat="45.34518" lon="4.59976">
        <ele>897.79998779297</ele>
        <time>2019-10-30T09:01:18.000Z</time>
      </trkpt>
      <trkpt lat="45.34517" lon="4.59975">
        <ele>898</ele>
        <time>2019-10-30T09:01:19.000Z</time>
      </trkpt>
      <trkpt lat="45.34517" lon="4.59973">
        <ele>898</ele>
        <time>2019-10-30T09:01:20.000Z</time>
      </trkpt>
      <trkpt lat="45.34517" lon="4.59972">
        <ele>898.40002441406</ele>
        <time>2019-10-30T09:01:21.000Z</time>
      </trkpt>
      <trkpt lat="45.34517" lon="4.5997">
        <ele>898.59997558594</ele>
        <time>2019-10-30T09:01:22.000Z</time>
      </trkpt>
      <trkpt lat="45.34516" lon="4.59969">
        <ele>898.59997558594</ele>
        <time>2019-10-30T09:01:23.000Z</time>
      </trkpt>
      <trkpt lat="45.34516" lon="4.59967">
        <ele>898.79998779297</ele>
        <time>2019-10-30T09:01:24.000Z</time>
      </trkpt>
      <trkpt lat="45.34516" lon="4.59965">
        <ele>899</ele>
        <time>2019-10-30T09:01:25.000Z</time>
      </trkpt>
      <trkpt lat="45.34515" lon="4.59963">
        <ele>899.20001220703</ele>
        <time>2019-10-30T09:01:26.000Z</time>
      </trkpt>
      <trkpt lat="45.34515" lon="4.59961">
        <ele>899.40002441406</ele>
        <time>2019-10-30T09:01:27.000Z</time>
      </trkpt>
      <trkpt lat="45.34515" lon="4.5996">
        <ele>899.59997558594</ele>
        <time>2019-10-30T09:01:28.000Z</time>
      </trkpt>
      <trkpt lat="45.34514" lon="4.59958">
        <ele>899.79998779297</ele>
        <time>2019-10-30T09:01:29.000Z</time>
      </trkpt>
      <trkpt lat="45.34514" lon="4.59956">
        <ele>900</ele>
        <time>2019-10-30T09:01:30.000Z</time>
      </trkpt>
      <trkpt lat="45.34513" lon="4.59955">
        <ele>900</ele>
        <time>2019-10-30T09:01:31.000Z</time>
      </trkpt>
      <trkpt lat="45.34513" lon="4.59953">
        <ele>900.20001220703</ele>
        <time>2019-10-30T09:01:32.000Z</time>
      </trkpt>
      <trkpt lat="45.34513" lon="4.59951">
        <ele>900.20001220703</ele>
        <time>2019-10-30T09:01:33.000Z</time>
      </trkpt>
      <trkpt lat="45.34512" lon="4.59949">
        <ele>900.59997558594</ele>
        <time>2019-10-30T09:01:34.000Z</time>
      </trkpt>
      <trkpt lat="45.34512" lon="4.59947">
        <ele>901</ele>
        <time>2019-10-30T09:01:35.000Z</time>
      </trkpt>
      <trkpt lat="45.34511" lon="4.59945">
        <ele>901.20001220703</ele>
        <time>2019-10-30T09:01:36.000Z</time>
      </trkpt>
      <trkpt lat="45.34511" lon="4.59942">
        <ele>901.40002441406</ele>
        <time>2019-10-30T09:01:37.000Z</time>
      </trkpt>
      <trkpt lat="45.3451" lon="4.5994">
        <ele>901.59997558594</ele>
        <time>2019-10-30T09:01:38.000Z</time>
      </trkpt>
      <trkpt lat="45.3451" lon="4.59939">
        <ele>901.59997558594</ele>
        <time>2019-10-30T09:01:39.000Z</time>
      </trkpt>
      <trkpt lat="45.34509" lon="4.59937">
        <ele>902</ele>
        <time>2019-10-30T09:01:40.000Z</time>
      </trkpt>
      <trkpt lat="45.34509" lon="4.59935">
        <ele>902.20001220703</ele>
        <time>2019-10-30T09:01:41.000Z</time>
      </trkpt>
      <trkpt lat="45.34509" lon="4.59933">
        <ele>902.20001220703</ele>
        <time>2019-10-30T09:01:42.000Z</time>
      </trkpt>
      <trkpt lat="45.34509" lon="4.59931">
        <ele>902.40002441406</ele>
        <time>2019-10-30T09:01:43.000Z</time>
      </trkpt>
      <trkpt lat="45.3451" lon="4.59929">
        <ele>902.79998779297</ele>
        <time>2019-10-30T09:01:44.000Z</time>
      </trkpt>
      <trkpt lat="45.3451" lon="4.59927">
        <ele>902.79998779297</ele>
        <time>2019-10-30T09:01:45.000Z</time>
      </trkpt>
      <trkpt lat="45.3451" lon="4.59926">
        <ele>903</ele>
        <time>2019-10-30T09:01:46.000Z</time>
      </trkpt>
      <trkpt lat="45.34509" lon="4.59924">
        <ele>903.20001220703</ele>
        <time>2019-10-30T09:01:47.000Z</time>
      </trkpt>
      <trkpt lat="45.34509" lon="4.59922">
        <ele>903.59997558594</ele>
        <time>2019-10-30T09:01:48.000Z</time>
      </trkpt>
      <trkpt lat="45.34509" lon="4.59921">
        <ele>903.79998779297</ele>
        <time>2019-10-30T09:01:49.000Z</time>
      </trkpt>
      <trkpt lat="45.34508" lon="4.59919">
        <ele>904</ele>
        <time>2019-10-30T09:01:50.000Z</time>
      </trkpt>
      <trkpt lat="45.34508" lon="4.59917">
        <ele>904.40002441406</ele>
        <time>2019-10-30T09:01:51.000Z</time>
      </trkpt>
      <trkpt lat="45.34508" lon="4.59915">
        <ele>905</ele>
        <time>2019-10-30T09:01:52.000Z</time>
      </trkpt>
      <trkpt lat="45.34508" lon="4.59914">
        <ele>905</ele>
        <time>2019-10-30T09:01:53.000Z</time>
      </trkpt>
      <trkpt lat="45.34508" lon="4.59912">
        <ele>905.20001220703</ele>
        <time>2019-10-30T09:01:54.000Z</time>
      </trkpt>
      <trkpt lat="45.34508" lon="4.5991">
        <ele>905.40002441406</ele>
        <time>2019-10-30T09:01:55.000Z</time>
      </trkpt>
      <trkpt lat="45.34508" lon="4.59909">
        <ele>905.79998779297</ele>
        <time>2019-10-30T09:01:56.000Z</time>
      </trkpt>
      <trkpt lat="45.34509" lon="4.59907">
        <ele>906</ele>
        <time>2019-10-30T09:01:57.000Z</time>
      </trkpt>
      <trkpt lat="45.34508" lon="4.59905">
        <ele>906</ele>
        <time>2019-10-30T09:01:58.000Z</time>
      </trkpt>
      <trkpt lat="45.34508" lon="4.59904">
        <ele>906.20001220703</ele>
        <time>2019-10-30T09:01:59.000Z</time>
      </trkpt>
      <trkpt lat="45.34508" lon="4.59902">
        <ele>906.20001220703</ele>
        <time>2019-10-30T09:02:00.000Z</time>
      </trkpt>
      <trkpt lat="45.34508" lon="4.599">
        <ele>906.20001220703</ele>
        <time>2019-10-30T09:02:01.000Z</time>
      </trkpt>
      <trkpt lat="45.34509" lon="4.59898">
        <ele>906.40002441406</ele>
        <time>2019-10-30T09:02:02.000Z</time>
      </trkpt>
      <trkpt lat="45.34509" lon="4.59896">
        <ele>906.79998779297</ele>
        <time>2019-10-30T09:02:03.000Z</time>
      </trkpt>
      <trkpt lat="45.34509" lon="4.59895">
        <ele>906.79998779297</ele>
        <time>2019-10-30T09:02:04.000Z</time>
      </trkpt>
      <trkpt lat="45.34509" lon="4.59893">
        <ele>907</ele>
        <time>2019-10-30T09:02:05.000Z</time>
      </trkpt>
      <trkpt lat="45.3451" lon="4.59891">
        <ele>907.20001220703</ele>
        <time>2019-10-30T09:02:06.000Z</time>
      </trkpt>
      <trkpt lat="45.3451" lon="4.5989">
        <ele>907.40002441406</ele>
        <time>2019-10-30T09:02:07.000Z</time>
      </trkpt>
      <trkpt lat="45.3451" lon="4.59888">
        <ele>907.40002441406</ele>
        <time>2019-10-30T09:02:08.000Z</time>
      </trkpt>
      <trkpt lat="45.3451" lon="4.59886">
        <ele>907.79998779297</ele>
        <time>2019-10-30T09:02:09.000Z</time>
      </trkpt>
      <trkpt lat="45.3451" lon="4.59884">
        <ele>908</ele>
        <time>2019-10-30T09:02:10.000Z</time>
      </trkpt>
      <trkpt lat="45.3451" lon="4.59882">
        <ele>908.20001220703</ele>
        <time>2019-10-30T09:02:11.000Z</time>
      </trkpt>
      <trkpt lat="45.34511" lon="4.5988">
        <ele>908.20001220703</ele>
        <time>2019-10-30T09:02:12.000Z</time>
      </trkpt>
      <trkpt lat="45.34511" lon="4.59878">
        <ele>908.40002441406</ele>
        <time>2019-10-30T09:02:13.000Z</time>
      </trkpt>
      <trkpt lat="45.34512" lon="4.59877">
        <ele>908.59997558594</ele>
        <time>2019-10-30T09:02:14.000Z</time>
      </trkpt>
      <trkpt lat="45.34512" lon="4.59875">
        <ele>908.79998779297</ele>
        <time>2019-10-30T09:02:15.000Z</time>
      </trkpt>
      <trkpt lat="45.34512" lon="4.59873">
        <ele>909</ele>
        <time>2019-10-30T09:02:16.000Z</time>
      </trkpt>
      <trkpt lat="45.34512" lon="4.59871">
        <ele>909.20001220703</ele>
        <time>2019-10-30T09:02:17.000Z</time>
      </trkpt>
      <trkpt lat="45.34513" lon="4.5987">
        <ele>909.20001220703</ele>
        <time>2019-10-30T09:02:18.000Z</time>
      </trkpt>
      <trkpt lat="45.34513" lon="4.59868">
        <ele>909.59997558594</ele>
        <time>2019-10-30T09:02:19.000Z</time>
      </trkpt>
      <trkpt lat="45.34513" lon="4.59866">
        <ele>909.79998779297</ele>
        <time>2019-10-30T09:02:20.000Z</time>
      </trkpt>
      <trkpt lat="45.34514" lon="4.59864">
        <ele>910</ele>
        <time>2019-10-30T09:02:21.000Z</time>
      </trkpt>
      <trkpt lat="45.34514" lon="4.59862">
        <ele>910.40002441406</ele>
        <time>2019-10-30T09:02:22.000Z</time>
      </trkpt>
      <trkpt lat="45.34515" lon="4.5986">
        <ele>910.40002441406</ele>
        <time>2019-10-30T09:02:23.000Z</time>
      </trkpt>
      <trkpt lat="45.34516" lon="4.59859">
        <ele>910.59997558594</ele>
        <time>2019-10-30T09:02:24.000Z</time>
      </trkpt>
      <trkpt lat="45.34516" lon="4.59857">
        <ele>911</ele>
        <time>2019-10-30T09:02:25.000Z</time>
      </trkpt>
      <trkpt lat="45.34517" lon="4.59856">
        <ele>911.20001220703</ele>
        <time>2019-10-30T09:02:26.000Z</time>
      </trkpt>
      <trkpt lat="45.34518" lon="4.59854">
        <ele>911.20001220703</ele>
        <time>2019-10-30T09:02:27.000Z</time>
      </trkpt>
      <trkpt lat="45.34518" lon="4.59853">
        <ele>911.59997558594</ele>
        <time>2019-10-30T09:02:28.000Z</time>
      </trkpt>
      <trkpt lat="45.34518" lon="4.5985">
        <ele>911.79998779297</ele>
        <time>2019-10-30T09:02:29.000Z</time>
      </trkpt>
      <trkpt lat="45.34519" lon="4.59846">
        <ele>912.20001220703</ele>
        <time>2019-10-30T09:02:31.000Z</time>
      </trkpt>
      <trkpt lat="45.34519" lon="4.59844">
        <ele>912.20001220703</ele>
        <time>2019-10-30T09:02:32.000Z</time>
      </trkpt>
      <trkpt lat="45.34519" lon="4.59843">
        <ele>912.40002441406</ele>
        <time>2019-10-30T09:02:33.000Z</time>
      </trkpt>
      <trkpt lat="45.34519" lon="4.59841">
        <ele>912.40002441406</ele>
        <time>2019-10-30T09:02:34.000Z</time>
      </trkpt>
      <trkpt lat="45.34519" lon="4.59841">
        <ele>912.40002441406</ele>
        <time>2019-10-30T09:02:35.000Z</time>
      </trkpt>
      <trkpt lat="45.34519" lon="4.59841">
        <ele>912.59997558594</ele>
        <time>2019-10-30T09:02:38.000Z</time>
      </trkpt>
      <trkpt lat="45.34519" lon="4.59841">
        <ele>913.20001220703</ele>
        <time>2019-10-30T09:02:55.000Z</time>
      </trkpt>
      <trkpt lat="45.34519" lon="4.59841">
        <ele>913.20001220703</ele>
        <time>2019-10-30T09:03:04.000Z</time>
      </trkpt>
      <trkpt lat="45.34519" lon="4.59841">
        <ele>913.20001220703</ele>
        <time>2019-10-30T09:03:17.000Z</time>
      </trkpt>
      <trkpt lat="45.34519" lon="4.59841">
        <ele>913</ele>
        <time>2019-10-30T09:03:33.000Z</time>
      </trkpt>
      <trkpt lat="45.3452" lon="4.5984">
        <ele>913</ele>
        <time>2019-10-30T09:04:02.000Z</time>
      </trkpt>
      <trkpt lat="45.3452" lon="4.59839">
        <ele>913</ele>
        <time>2019-10-30T09:04:03.000Z</time>
      </trkpt>
      <trkpt lat="45.3452" lon="4.59837">
        <ele>913.20001220703</ele>
        <time>2019-10-30T09:04:08.000Z</time>
      </trkpt>
      <trkpt lat="45.34521" lon="4.59836">
        <ele>913.20001220703</ele>
        <time>2019-10-30T09:04:09.000Z</time>
      </trkpt>
      <trkpt lat="45.34522" lon="4.59833">
        <ele>913.20001220703</ele>
        <time>2019-10-30T09:04:11.000Z</time>
      </trkpt>
      <trkpt lat="45.34523" lon="4.59832">
        <ele>913.20001220703</ele>
        <time>2019-10-30T09:04:12.000Z</time>
      </trkpt>
      <trkpt lat="45.34524" lon="4.5983">
        <ele>913.40002441406</ele>
        <time>2019-10-30T09:04:13.000Z</time>
      </trkpt>
      <trkpt lat="45.34525" lon="4.59829">
        <ele>913.40002441406</ele>
        <time>2019-10-30T09:04:14.000Z</time>
      </trkpt>
      <trkpt lat="45.34526" lon="4.59828">
        <ele>913.40002441406</ele>
        <time>2019-10-30T09:04:15.000Z</time>
      </trkpt>
      <trkpt lat="45.34527" lon="4.59826">
        <ele>913.40002441406</ele>
        <time>2019-10-30T09:04:16.000Z</time>
      </trkpt>
      <trkpt lat="45.34528" lon="4.59825">
        <ele>913.40002441406</ele>
        <time>2019-10-30T09:04:17.000Z</time>
      </trkpt>
      <trkpt lat="45.34529" lon="4.59824">
        <ele>913.40002441406</ele>
        <time>2019-10-30T09:04:18.000Z</time>
      </trkpt>
      <trkpt lat="45.3453" lon="4.59822">
        <ele>913.40002441406</ele>
        <time>2019-10-30T09:04:19.000Z</time>
      </trkpt>
      <trkpt lat="45.34531" lon="4.59821">
        <ele>913.59997558594</ele>
        <time>2019-10-30T09:04:20.000Z</time>
      </trkpt>
      <trkpt lat="45.34532" lon="4.5982">
        <ele>913.79998779297</ele>
        <time>2019-10-30T09:04:21.000Z</time>
      </trkpt>
      <trkpt lat="45.34534" lon="4.59819">
        <ele>914</ele>
        <time>2019-10-30T09:04:22.000Z</time>
      </trkpt>
      <trkpt lat="45.34535" lon="4.59817">
        <ele>914.20001220703</ele>
        <time>2019-10-30T09:04:23.000Z</time>
      </trkpt>
      <trkpt lat="45.34536" lon="4.59816">
        <ele>914.40002441406</ele>
        <time>2019-10-30T09:04:24.000Z</time>
      </trkpt>
      <trkpt lat="45.34538" lon="4.59814">
        <ele>914.79998779297</ele>
        <time>2019-10-30T09:04:25.000Z</time>
      </trkpt>
      <trkpt lat="45.3454" lon="4.59813">
        <ele>914.79998779297</ele>
        <time>2019-10-30T09:04:26.000Z</time>
      </trkpt>
      <trkpt lat="45.34545" lon="4.59809">
        <ele>915.40002441406</ele>
        <time>2019-10-30T09:04:29.000Z</time>
      </trkpt>
      <trkpt lat="45.34546" lon="4.59808">
        <ele>915.59997558594</ele>
        <time>2019-10-30T09:04:30.000Z</time>
      </trkpt>
      <trkpt lat="45.34553" lon="4.59803">
        <ele>916</ele>
        <time>2019-10-30T09:04:34.000Z</time>
      </trkpt>
      <trkpt lat="45.34555" lon="4.59802">
        <ele>916.20001220703</ele>
        <time>2019-10-30T09:04:35.000Z</time>
      </trkpt>
      <trkpt lat="45.34559" lon="4.598">
        <ele>916.20001220703</ele>
        <time>2019-10-30T09:04:37.000Z</time>
      </trkpt>
      <trkpt lat="45.3456" lon="4.59799">
        <ele>916.20001220703</ele>
        <time>2019-10-30T09:04:38.000Z</time>
      </trkpt>
      <trkpt lat="45.34562" lon="4.59798">
        <ele>916</ele>
        <time>2019-10-30T09:04:39.000Z</time>
      </trkpt>
      <trkpt lat="45.34564" lon="4.59798">
        <ele>916</ele>
        <time>2019-10-30T09:04:40.000Z</time>
      </trkpt>
      <trkpt lat="45.34568" lon="4.59796">
        <ele>916.20001220703</ele>
        <time>2019-10-30T09:04:42.000Z</time>
      </trkpt>
      <trkpt lat="45.34571" lon="4.59795">
        <ele>916.20001220703</ele>
        <time>2019-10-30T09:04:44.000Z</time>
      </trkpt>
      <trkpt lat="45.34573" lon="4.59794">
        <ele>916.59997558594</ele>
        <time>2019-10-30T09:04:45.000Z</time>
      </trkpt>
      <trkpt lat="45.34575" lon="4.59793">
        <ele>916.59997558594</ele>
        <time>2019-10-30T09:04:46.000Z</time>
      </trkpt>
      <trkpt lat="45.34577" lon="4.59793">
        <ele>916.59997558594</ele>
        <time>2019-10-30T09:04:47.000Z</time>
      </trkpt>
      <trkpt lat="45.34579" lon="4.59792">
        <ele>916.59997558594</ele>
        <time>2019-10-30T09:04:48.000Z</time>
      </trkpt>
      <trkpt lat="45.3458" lon="4.59791">
        <ele>916.79998779297</ele>
        <time>2019-10-30T09:04:49.000Z</time>
      </trkpt>
      <trkpt lat="45.34582" lon="4.59791">
        <ele>917</ele>
        <time>2019-10-30T09:04:50.000Z</time>
      </trkpt>
      <trkpt lat="45.34584" lon="4.5979">
        <ele>917</ele>
        <time>2019-10-30T09:04:51.000Z</time>
      </trkpt>
      <trkpt lat="45.34588" lon="4.59789">
        <ele>917</ele>
        <time>2019-10-30T09:04:53.000Z</time>
      </trkpt>
      <trkpt lat="45.3459" lon="4.59788">
        <ele>917.20001220703</ele>
        <time>2019-10-30T09:04:54.000Z</time>
      </trkpt>
      <trkpt lat="45.34591" lon="4.59787">
        <ele>917.20001220703</ele>
        <time>2019-10-30T09:04:55.000Z</time>
      </trkpt>
      <trkpt lat="45.34593" lon="4.59786">
        <ele>917.20001220703</ele>
        <time>2019-10-30T09:04:56.000Z</time>
      </trkpt>
      <trkpt lat="45.34595" lon="4.59786">
        <ele>917.40002441406</ele>
        <time>2019-10-30T09:04:57.000Z</time>
      </trkpt>
      <trkpt lat="45.34597" lon="4.59785">
        <ele>917.40002441406</ele>
        <time>2019-10-30T09:04:58.000Z</time>
      </trkpt>
      <trkpt lat="45.34598" lon="4.59784">
        <ele>917.40002441406</ele>
        <time>2019-10-30T09:04:59.000Z</time>
      </trkpt>
      <trkpt lat="45.34602" lon="4.59782">
        <ele>917.40002441406</ele>
        <time>2019-10-30T09:05:01.000Z</time>
      </trkpt>
      <trkpt lat="45.34604" lon="4.59781">
        <ele>917.59997558594</ele>
        <time>2019-10-30T09:05:02.000Z</time>
      </trkpt>
      <trkpt lat="45.34607" lon="4.5978">
        <ele>917.79998779297</ele>
        <time>2019-10-30T09:05:04.000Z</time>
      </trkpt>
      <trkpt lat="45.34608" lon="4.59779">
        <ele>917.79998779297</ele>
        <time>2019-10-30T09:05:05.000Z</time>
      </trkpt>
      <trkpt lat="45.3461" lon="4.59779">
        <ele>918</ele>
        <time>2019-10-30T09:05:06.000Z</time>
      </trkpt>
      <trkpt lat="45.34611" lon="4.59778">
        <ele>918</ele>
        <time>2019-10-30T09:05:07.000Z</time>
      </trkpt>
      <trkpt lat="45.34612" lon="4.59778">
        <ele>918</ele>
        <time>2019-10-30T09:05:08.000Z</time>
      </trkpt>
      <trkpt lat="45.34614" lon="4.59777">
        <ele>918</ele>
        <time>2019-10-30T09:05:09.000Z</time>
      </trkpt>
      <trkpt lat="45.34615" lon="4.59776">
        <ele>918</ele>
        <time>2019-10-30T09:05:10.000Z</time>
      </trkpt>
      <trkpt lat="45.34616" lon="4.59774">
        <ele>918.20001220703</ele>
        <time>2019-10-30T09:05:11.000Z</time>
      </trkpt>
      <trkpt lat="45.34622" lon="4.5977">
        <ele>918.40002441406</ele>
        <time>2019-10-30T09:05:15.000Z</time>
      </trkpt>
      <trkpt lat="45.34623" lon="4.59768">
        <ele>918.40002441406</ele>
        <time>2019-10-30T09:05:16.000Z</time>
      </trkpt>
      <trkpt lat="45.34624" lon="4.59766">
        <ele>918.40002441406</ele>
        <time>2019-10-30T09:05:17.000Z</time>
      </trkpt>
      <trkpt lat="45.34625" lon="4.59765">
        <ele>918.59997558594</ele>
        <time>2019-10-30T09:05:18.000Z</time>
      </trkpt>
      <trkpt lat="45.34627" lon="4.59763">
        <ele>918.59997558594</ele>
        <time>2019-10-30T09:05:19.000Z</time>
      </trkpt>
      <trkpt lat="45.34628" lon="4.59761">
        <ele>918.59997558594</ele>
        <time>2019-10-30T09:05:20.000Z</time>
      </trkpt>
      <trkpt lat="45.34629" lon="4.59759">
        <ele>918.79998779297</ele>
        <time>2019-10-30T09:05:21.000Z</time>
      </trkpt>
      <trkpt lat="45.34631" lon="4.59755">
        <ele>918.59997558594</ele>
        <time>2019-10-30T09:05:23.000Z</time>
      </trkpt>
      <trkpt lat="45.34634" lon="4.59751">
        <ele>919</ele>
        <time>2019-10-30T09:05:25.000Z</time>
      </trkpt>
      <trkpt lat="45.34635" lon="4.59749">
        <ele>919</ele>
        <time>2019-10-30T09:05:26.000Z</time>
      </trkpt>
      <trkpt lat="45.34639" lon="4.59742">
        <ele>919.20001220703</ele>
        <time>2019-10-30T09:05:29.000Z</time>
      </trkpt>
      <trkpt lat="45.34641" lon="4.59737">
        <ele>919.20001220703</ele>
        <time>2019-10-30T09:05:31.000Z</time>
      </trkpt>
      <trkpt lat="45.34642" lon="4.59734">
        <ele>919.40002441406</ele>
        <time>2019-10-30T09:05:32.000Z</time>
      </trkpt>
      <trkpt lat="45.34643" lon="4.59731">
        <ele>919.40002441406</ele>
        <time>2019-10-30T09:05:33.000Z</time>
      </trkpt>
      <trkpt lat="45.34644" lon="4.59728">
        <ele>919.40002441406</ele>
        <time>2019-10-30T09:05:34.000Z</time>
      </trkpt>
      <trkpt lat="45.34645" lon="4.59726">
        <ele>919.40002441406</ele>
        <time>2019-10-30T09:05:35.000Z</time>
      </trkpt>
      <trkpt lat="45.34646" lon="4.59723">
        <ele>919.40002441406</ele>
        <time>2019-10-30T09:05:36.000Z</time>
      </trkpt>
      <trkpt lat="45.34647" lon="4.5972">
        <ele>919.59997558594</ele>
        <time>2019-10-30T09:05:37.000Z</time>
      </trkpt>
      <trkpt lat="45.34648" lon="4.59717">
        <ele>919.59997558594</ele>
        <time>2019-10-30T09:05:38.000Z</time>
      </trkpt>
      <trkpt lat="45.3465" lon="4.59709">
        <ele>919.79998779297</ele>
        <time>2019-10-30T09:05:41.000Z</time>
      </trkpt>
      <trkpt lat="45.3465" lon="4.59706">
        <ele>919.79998779297</ele>
        <time>2019-10-30T09:05:42.000Z</time>
      </trkpt>
      <trkpt lat="45.34651" lon="4.59703">
        <ele>920</ele>
        <time>2019-10-30T09:05:43.000Z</time>
      </trkpt>
      <trkpt lat="45.34651" lon="4.597">
        <ele>920</ele>
        <time>2019-10-30T09:05:44.000Z</time>
      </trkpt>
      <trkpt lat="45.34652" lon="4.59698">
        <ele>920.20001220703</ele>
        <time>2019-10-30T09:05:45.000Z</time>
      </trkpt>
      <trkpt lat="45.34652" lon="4.59695">
        <ele>920.20001220703</ele>
        <time>2019-10-30T09:05:46.000Z</time>
      </trkpt>
      <trkpt lat="45.34653" lon="4.59693">
        <ele>920.20001220703</ele>
        <time>2019-10-30T09:05:47.000Z</time>
      </trkpt>
      <trkpt lat="45.34654" lon="4.5969">
        <ele>920.40002441406</ele>
        <time>2019-10-30T09:05:48.000Z</time>
      </trkpt>
      <trkpt lat="45.34654" lon="4.59688">
        <ele>920.20001220703</ele>
        <time>2019-10-30T09:05:49.000Z</time>
      </trkpt>
      <trkpt lat="45.34655" lon="4.59685">
        <ele>920.59997558594</ele>
        <time>2019-10-30T09:05:50.000Z</time>
      </trkpt>
      <trkpt lat="45.34655" lon="4.59682">
        <ele>920.59997558594</ele>
        <time>2019-10-30T09:05:51.000Z</time>
      </trkpt>
      <trkpt lat="45.34656" lon="4.5968">
        <ele>920.79998779297</ele>
        <time>2019-10-30T09:05:52.000Z</time>
      </trkpt>
      <trkpt lat="45.34656" lon="4.59677">
        <ele>921</ele>
        <time>2019-10-30T09:05:53.000Z</time>
      </trkpt>
      <trkpt lat="45.34657" lon="4.59674">
        <ele>921</ele>
        <time>2019-10-30T09:05:54.000Z</time>
      </trkpt>
      <trkpt lat="45.34657" lon="4.59671">
        <ele>921.20001220703</ele>
        <time>2019-10-30T09:05:55.000Z</time>
      </trkpt>
      <trkpt lat="45.34658" lon="4.59669">
        <ele>921.40002441406</ele>
        <time>2019-10-30T09:05:56.000Z</time>
      </trkpt>
      <trkpt lat="45.34658" lon="4.59666">
        <ele>921.40002441406</ele>
        <time>2019-10-30T09:05:57.000Z</time>
      </trkpt>
      <trkpt lat="45.34659" lon="4.59664">
        <ele>921.59997558594</ele>
        <time>2019-10-30T09:05:58.000Z</time>
      </trkpt>
      <trkpt lat="45.34659" lon="4.59661">
        <ele>921.59997558594</ele>
        <time>2019-10-30T09:05:59.000Z</time>
      </trkpt>
      <trkpt lat="45.3466" lon="4.59658">
        <ele>921.79998779297</ele>
        <time>2019-10-30T09:06:00.000Z</time>
      </trkpt>
      <trkpt lat="45.34661" lon="4.59655">
        <ele>922</ele>
        <time>2019-10-30T09:06:01.000Z</time>
      </trkpt>
      <trkpt lat="45.34661" lon="4.59653">
        <ele>922</ele>
        <time>2019-10-30T09:06:02.000Z</time>
      </trkpt>
      <trkpt lat="45.34662" lon="4.5965">
        <ele>922.40002441406</ele>
        <time>2019-10-30T09:06:03.000Z</time>
      </trkpt>
      <trkpt lat="45.34662" lon="4.59648">
        <ele>922.59997558594</ele>
        <time>2019-10-30T09:06:04.000Z</time>
      </trkpt>
      <trkpt lat="45.34663" lon="4.59645">
        <ele>922.59997558594</ele>
        <time>2019-10-30T09:06:05.000Z</time>
      </trkpt>
      <trkpt lat="45.34663" lon="4.59643">
        <ele>922.79998779297</ele>
        <time>2019-10-30T09:06:06.000Z</time>
      </trkpt>
      <trkpt lat="45.34664" lon="4.5964">
        <ele>923</ele>
        <time>2019-10-30T09:06:07.000Z</time>
      </trkpt>
      <trkpt lat="45.34665" lon="4.59638">
        <ele>923</ele>
        <time>2019-10-30T09:06:08.000Z</time>
      </trkpt>
      <trkpt lat="45.34665" lon="4.59636">
        <ele>923</ele>
        <time>2019-10-30T09:06:09.000Z</time>
      </trkpt>
      <trkpt lat="45.34666" lon="4.59633">
        <ele>923</ele>
        <time>2019-10-30T09:06:10.000Z</time>
      </trkpt>
      <trkpt lat="45.34666" lon="4.5963">
        <ele>923.20001220703</ele>
        <time>2019-10-30T09:06:11.000Z</time>
      </trkpt>
      <trkpt lat="45.34667" lon="4.59628">
        <ele>923.40002441406</ele>
        <time>2019-10-30T09:06:12.000Z</time>
      </trkpt>
      <trkpt lat="45.34667" lon="4.59625">
        <ele>923.59997558594</ele>
        <time>2019-10-30T09:06:13.000Z</time>
      </trkpt>
      <trkpt lat="45.34667" lon="4.59623">
        <ele>923.79998779297</ele>
        <time>2019-10-30T09:06:14.000Z</time>
      </trkpt>
      <trkpt lat="45.34668" lon="4.5962">
        <ele>923.79998779297</ele>
        <time>2019-10-30T09:06:15.000Z</time>
      </trkpt>
      <trkpt lat="45.34668" lon="4.59617">
        <ele>924</ele>
        <time>2019-10-30T09:06:16.000Z</time>
      </trkpt>
      <trkpt lat="45.34668" lon="4.59614">
        <ele>924.20001220703</ele>
        <time>2019-10-30T09:06:17.000Z</time>
      </trkpt>
      <trkpt lat="45.34668" lon="4.59611">
        <ele>924</ele>
        <time>2019-10-30T09:06:18.000Z</time>
      </trkpt>
      <trkpt lat="45.34669" lon="4.59602">
        <ele>924.59997558594</ele>
        <time>2019-10-30T09:06:21.000Z</time>
      </trkpt>
      <trkpt lat="45.34669" lon="4.59599">
        <ele>924.79998779297</ele>
        <time>2019-10-30T09:06:22.000Z</time>
      </trkpt>
      <trkpt lat="45.3467" lon="4.59596">
        <ele>924.59997558594</ele>
        <time>2019-10-30T09:06:23.000Z</time>
      </trkpt>
      <trkpt lat="45.3467" lon="4.59594">
        <ele>924.79998779297</ele>
        <time>2019-10-30T09:06:24.000Z</time>
      </trkpt>
      <trkpt lat="45.3467" lon="4.59591">
        <ele>924.79998779297</ele>
        <time>2019-10-30T09:06:25.000Z</time>
      </trkpt>
      <trkpt lat="45.3467" lon="4.59588">
        <ele>925</ele>
        <time>2019-10-30T09:06:26.000Z</time>
      </trkpt>
      <trkpt lat="45.3467" lon="4.59586">
        <ele>925</ele>
        <time>2019-10-30T09:06:27.000Z</time>
      </trkpt>
      <trkpt lat="45.3467" lon="4.59583">
        <ele>925</ele>
        <time>2019-10-30T09:06:28.000Z</time>
      </trkpt>
      <trkpt lat="45.34671" lon="4.59581">
        <ele>925.20001220703</ele>
        <time>2019-10-30T09:06:29.000Z</time>
      </trkpt>
      <trkpt lat="45.34671" lon="4.59578">
        <ele>925.40002441406</ele>
        <time>2019-10-30T09:06:30.000Z</time>
      </trkpt>
      <trkpt lat="45.34671" lon="4.59575">
        <ele>925.59997558594</ele>
        <time>2019-10-30T09:06:31.000Z</time>
      </trkpt>
      <trkpt lat="45.34672" lon="4.59572">
        <ele>925.79998779297</ele>
        <time>2019-10-30T09:06:32.000Z</time>
      </trkpt>
      <trkpt lat="45.34673" lon="4.5957">
        <ele>925.59997558594</ele>
        <time>2019-10-30T09:06:33.000Z</time>
      </trkpt>
      <trkpt lat="45.34673" lon="4.59567">
        <ele>925.79998779297</ele>
        <time>2019-10-30T09:06:34.000Z</time>
      </trkpt>
      <trkpt lat="45.34674" lon="4.59565">
        <ele>925.79998779297</ele>
        <time>2019-10-30T09:06:35.000Z</time>
      </trkpt>
      <trkpt lat="45.34674" lon="4.59563">
        <ele>926.20001220703</ele>
        <time>2019-10-30T09:06:36.000Z</time>
      </trkpt>
      <trkpt lat="45.34675" lon="4.5956">
        <ele>926.20001220703</ele>
        <time>2019-10-30T09:06:37.000Z</time>
      </trkpt>
      <trkpt lat="45.34675" lon="4.59559">
        <ele>926.40002441406</ele>
        <time>2019-10-30T09:06:38.000Z</time>
      </trkpt>
      <trkpt lat="45.34675" lon="4.59557">
        <ele>926.59997558594</ele>
        <time>2019-10-30T09:06:39.000Z</time>
      </trkpt>
      <trkpt lat="45.34676" lon="4.59555">
        <ele>926.59997558594</ele>
        <time>2019-10-30T09:06:40.000Z</time>
      </trkpt>
      <trkpt lat="45.34677" lon="4.59551">
        <ele>926.79998779297</ele>
        <time>2019-10-30T09:06:42.000Z</time>
      </trkpt>
      <trkpt lat="45.34678" lon="4.59549">
        <ele>927</ele>
        <time>2019-10-30T09:06:43.000Z</time>
      </trkpt>
      <trkpt lat="45.3468" lon="4.59545">
        <ele>927.40002441406</ele>
        <time>2019-10-30T09:06:45.000Z</time>
      </trkpt>
      <trkpt lat="45.3468" lon="4.59543">
        <ele>927.40002441406</ele>
        <time>2019-10-30T09:06:46.000Z</time>
      </trkpt>
      <trkpt lat="45.34682" lon="4.59538">
        <ele>927.59997558594</ele>
        <time>2019-10-30T09:06:48.000Z</time>
      </trkpt>
      <trkpt lat="45.34682" lon="4.59535">
        <ele>927.79998779297</ele>
        <time>2019-10-30T09:06:49.000Z</time>
      </trkpt>
      <trkpt lat="45.34683" lon="4.59533">
        <ele>927.59997558594</ele>
        <time>2019-10-30T09:06:50.000Z</time>
      </trkpt>
      <trkpt lat="45.34683" lon="4.5953">
        <ele>927.59997558594</ele>
        <time>2019-10-30T09:06:51.000Z</time>
      </trkpt>
      <trkpt lat="45.34683" lon="4.59528">
        <ele>927.59997558594</ele>
        <time>2019-10-30T09:06:52.000Z</time>
      </trkpt>
      <trkpt lat="45.34684" lon="4.59525">
        <ele>927.79998779297</ele>
        <time>2019-10-30T09:06:53.000Z</time>
      </trkpt>
      <trkpt lat="45.34684" lon="4.59523">
        <ele>927.79998779297</ele>
        <time>2019-10-30T09:06:54.000Z</time>
      </trkpt>
      <trkpt lat="45.34685" lon="4.59521">
        <ele>927.79998779297</ele>
        <time>2019-10-30T09:06:55.000Z</time>
      </trkpt>
      <trkpt lat="45.34685" lon="4.59519">
        <ele>928</ele>
        <time>2019-10-30T09:06:56.000Z</time>
      </trkpt>
      <trkpt lat="45.34685" lon="4.59516">
        <ele>928</ele>
        <time>2019-10-30T09:06:57.000Z</time>
      </trkpt>
      <trkpt lat="45.34685" lon="4.59514">
        <ele>928</ele>
        <time>2019-10-30T09:06:58.000Z</time>
      </trkpt>
      <trkpt lat="45.34686" lon="4.59511">
        <ele>928</ele>
        <time>2019-10-30T09:06:59.000Z</time>
      </trkpt>
      <trkpt lat="45.34686" lon="4.59509">
        <ele>928</ele>
        <time>2019-10-30T09:07:00.000Z</time>
      </trkpt>
      <trkpt lat="45.34686" lon="4.59507">
        <ele>928</ele>
        <time>2019-10-30T09:07:01.000Z</time>
      </trkpt>
      <trkpt lat="45.34686" lon="4.59504">
        <ele>928.40002441406</ele>
        <time>2019-10-30T09:07:02.000Z</time>
      </trkpt>
      <trkpt lat="45.34686" lon="4.59502">
        <ele>928.59997558594</ele>
        <time>2019-10-30T09:07:03.000Z</time>
      </trkpt>
      <trkpt lat="45.34686" lon="4.595">
        <ele>928.79998779297</ele>
        <time>2019-10-30T09:07:04.000Z</time>
      </trkpt>
      <trkpt lat="45.34686" lon="4.59498">
        <ele>928.79998779297</ele>
        <time>2019-10-30T09:07:05.000Z</time>
      </trkpt>
      <trkpt lat="45.34685" lon="4.59496">
        <ele>928.79998779297</ele>
        <time>2019-10-30T09:07:06.000Z</time>
      </trkpt>
      <trkpt lat="45.34684" lon="4.59494">
        <ele>929</ele>
        <time>2019-10-30T09:07:07.000Z</time>
      </trkpt>
      <trkpt lat="45.34684" lon="4.59492">
        <ele>929.40002441406</ele>
        <time>2019-10-30T09:07:08.000Z</time>
      </trkpt>
      <trkpt lat="45.34683" lon="4.59489">
        <ele>929.59997558594</ele>
        <time>2019-10-30T09:07:09.000Z</time>
      </trkpt>
      <trkpt lat="45.34683" lon="4.59487">
        <ele>929.79998779297</ele>
        <time>2019-10-30T09:07:10.000Z</time>
      </trkpt>
      <trkpt lat="45.34683" lon="4.59485">
        <ele>930</ele>
        <time>2019-10-30T09:07:11.000Z</time>
      </trkpt>
      <trkpt lat="45.34682" lon="4.59483">
        <ele>930.20001220703</ele>
        <time>2019-10-30T09:07:12.000Z</time>
      </trkpt>
      <trkpt lat="45.34681" lon="4.59481">
        <ele>930.20001220703</ele>
        <time>2019-10-30T09:07:13.000Z</time>
      </trkpt>
      <trkpt lat="45.3468" lon="4.59479">
        <ele>930.59997558594</ele>
        <time>2019-10-30T09:07:14.000Z</time>
      </trkpt>
      <trkpt lat="45.34679" lon="4.59477">
        <ele>930.79998779297</ele>
        <time>2019-10-30T09:07:15.000Z</time>
      </trkpt>
      <trkpt lat="45.34679" lon="4.59475">
        <ele>931.20001220703</ele>
        <time>2019-10-30T09:07:16.000Z</time>
      </trkpt>
      <trkpt lat="45.34678" lon="4.59474">
        <ele>931.20001220703</ele>
        <time>2019-10-30T09:07:17.000Z</time>
      </trkpt>
      <trkpt lat="45.34677" lon="4.59472">
        <ele>931.20001220703</ele>
        <time>2019-10-30T09:07:18.000Z</time>
      </trkpt>
      <trkpt lat="45.34676" lon="4.59471">
        <ele>931.59997558594</ele>
        <time>2019-10-30T09:07:19.000Z</time>
      </trkpt>
      <trkpt lat="45.34675" lon="4.59469">
        <ele>931.79998779297</ele>
        <time>2019-10-30T09:07:20.000Z</time>
      </trkpt>
      <trkpt lat="45.34675" lon="4.59467">
        <ele>932.20001220703</ele>
        <time>2019-10-30T09:07:21.000Z</time>
      </trkpt>
      <trkpt lat="45.34675" lon="4.59465">
        <ele>932.59997558594</ele>
        <time>2019-10-30T09:07:22.000Z</time>
      </trkpt>
      <trkpt lat="45.34675" lon="4.59463">
        <ele>933</ele>
        <time>2019-10-30T09:07:23.000Z</time>
      </trkpt>
      <trkpt lat="45.34675" lon="4.59461">
        <ele>933.40002441406</ele>
        <time>2019-10-30T09:07:24.000Z</time>
      </trkpt>
      <trkpt lat="45.34675" lon="4.59457">
        <ele>933.79998779297</ele>
        <time>2019-10-30T09:07:25.000Z</time>
      </trkpt>
      <trkpt lat="45.34674" lon="4.59454">
        <ele>934.20001220703</ele>
        <time>2019-10-30T09:07:26.000Z</time>
      </trkpt>
      <trkpt lat="45.34674" lon="4.59451">
        <ele>934.79998779297</ele>
        <time>2019-10-30T09:07:27.000Z</time>
      </trkpt>
      <trkpt lat="45.34673" lon="4.59449">
        <ele>935.20001220703</ele>
        <time>2019-10-30T09:07:28.000Z</time>
      </trkpt>
      <trkpt lat="45.34672" lon="4.59446">
        <ele>935.79998779297</ele>
        <time>2019-10-30T09:07:29.000Z</time>
      </trkpt>
      <trkpt lat="45.34672" lon="4.59444">
        <ele>936.20001220703</ele>
        <time>2019-10-30T09:07:30.000Z</time>
      </trkpt>
      <trkpt lat="45.34671" lon="4.59442">
        <ele>936.40002441406</ele>
        <time>2019-10-30T09:07:31.000Z</time>
      </trkpt>
      <trkpt lat="45.34671" lon="4.5944">
        <ele>936.79998779297</ele>
        <time>2019-10-30T09:07:32.000Z</time>
      </trkpt>
      <trkpt lat="45.3467" lon="4.59438">
        <ele>937</ele>
        <time>2019-10-30T09:07:33.000Z</time>
      </trkpt>
      <trkpt lat="45.3467" lon="4.59436">
        <ele>937.20001220703</ele>
        <time>2019-10-30T09:07:34.000Z</time>
      </trkpt>
      <trkpt lat="45.34669" lon="4.59433">
        <ele>937.59997558594</ele>
        <time>2019-10-30T09:07:35.000Z</time>
      </trkpt>
      <trkpt lat="45.34668" lon="4.59431">
        <ele>937.79998779297</ele>
        <time>2019-10-30T09:07:36.000Z</time>
      </trkpt>
      <trkpt lat="45.34668" lon="4.59429">
        <ele>938</ele>
        <time>2019-10-30T09:07:37.000Z</time>
      </trkpt>
      <trkpt lat="45.34667" lon="4.59426">
        <ele>938.40002441406</ele>
        <time>2019-10-30T09:07:38.000Z</time>
      </trkpt>
      <trkpt lat="45.34667" lon="4.59424">
        <ele>938.59997558594</ele>
        <time>2019-10-30T09:07:39.000Z</time>
      </trkpt>
      <trkpt lat="45.34666" lon="4.59422">
        <ele>939</ele>
        <time>2019-10-30T09:07:40.000Z</time>
      </trkpt>
      <trkpt lat="45.34665" lon="4.59421">
        <ele>939.40002441406</ele>
        <time>2019-10-30T09:07:41.000Z</time>
      </trkpt>
      <trkpt lat="45.34665" lon="4.59419">
        <ele>939.40002441406</ele>
        <time>2019-10-30T09:07:42.000Z</time>
      </trkpt>
      <trkpt lat="45.34664" lon="4.59417">
        <ele>939.40002441406</ele>
        <time>2019-10-30T09:07:43.000Z</time>
      </trkpt>
      <trkpt lat="45.34664" lon="4.59416">
        <ele>939.59997558594</ele>
        <time>2019-10-30T09:07:44.000Z</time>
      </trkpt>
      <trkpt lat="45.34663" lon="4.59414">
        <ele>940.20001220703</ele>
        <time>2019-10-30T09:07:45.000Z</time>
      </trkpt>
      <trkpt lat="45.34662" lon="4.59412">
        <ele>940.40002441406</ele>
        <time>2019-10-30T09:07:46.000Z</time>
      </trkpt>
      <trkpt lat="45.34662" lon="4.5941">
        <ele>940.59997558594</ele>
        <time>2019-10-30T09:07:47.000Z</time>
      </trkpt>
      <trkpt lat="45.34662" lon="4.59408">
        <ele>941</ele>
        <time>2019-10-30T09:07:48.000Z</time>
      </trkpt>
      <trkpt lat="45.34661" lon="4.59406">
        <ele>941</ele>
        <time>2019-10-30T09:07:49.000Z</time>
      </trkpt>
      <trkpt lat="45.34661" lon="4.59405">
        <ele>941.20001220703</ele>
        <time>2019-10-30T09:07:50.000Z</time>
      </trkpt>
      <trkpt lat="45.34661" lon="4.59403">
        <ele>941.59997558594</ele>
        <time>2019-10-30T09:07:51.000Z</time>
      </trkpt>
      <trkpt lat="45.34661" lon="4.59401">
        <ele>941.79998779297</ele>
        <time>2019-10-30T09:07:52.000Z</time>
      </trkpt>
      <trkpt lat="45.34661" lon="4.59398">
        <ele>942</ele>
        <time>2019-10-30T09:07:53.000Z</time>
      </trkpt>
      <trkpt lat="45.3466" lon="4.59396">
        <ele>942.20001220703</ele>
        <time>2019-10-30T09:07:54.000Z</time>
      </trkpt>
      <trkpt lat="45.3466" lon="4.59394">
        <ele>942.40002441406</ele>
        <time>2019-10-30T09:07:55.000Z</time>
      </trkpt>
      <trkpt lat="45.3466" lon="4.59392">
        <ele>942.59997558594</ele>
        <time>2019-10-30T09:07:56.000Z</time>
      </trkpt>
      <trkpt lat="45.3466" lon="4.5939">
        <ele>943</ele>
        <time>2019-10-30T09:07:57.000Z</time>
      </trkpt>
      <trkpt lat="45.3466" lon="4.59389">
        <ele>943</ele>
        <time>2019-10-30T09:07:58.000Z</time>
      </trkpt>
      <trkpt lat="45.3466" lon="4.59387">
        <ele>943.20001220703</ele>
        <time>2019-10-30T09:07:59.000Z</time>
      </trkpt>
      <trkpt lat="45.34659" lon="4.59385">
        <ele>943.59997558594</ele>
        <time>2019-10-30T09:08:00.000Z</time>
      </trkpt>
      <trkpt lat="45.3466" lon="4.59383">
        <ele>943.79998779297</ele>
        <time>2019-10-30T09:08:01.000Z</time>
      </trkpt>
      <trkpt lat="45.3466" lon="4.59381">
        <ele>944.20001220703</ele>
        <time>2019-10-30T09:08:02.000Z</time>
      </trkpt>
      <trkpt lat="45.3466" lon="4.59379">
        <ele>944.59997558594</ele>
        <time>2019-10-30T09:08:03.000Z</time>
      </trkpt>
      <trkpt lat="45.3466" lon="4.59376">
        <ele>944.79998779297</ele>
        <time>2019-10-30T09:08:04.000Z</time>
      </trkpt>
      <trkpt lat="45.3466" lon="4.59374">
        <ele>945</ele>
        <time>2019-10-30T09:08:05.000Z</time>
      </trkpt>
      <trkpt lat="45.3466" lon="4.59373">
        <ele>945.40002441406</ele>
        <time>2019-10-30T09:08:06.000Z</time>
      </trkpt>
      <trkpt lat="45.34661" lon="4.59371">
        <ele>945.59997558594</ele>
        <time>2019-10-30T09:08:07.000Z</time>
      </trkpt>
      <trkpt lat="45.34661" lon="4.5937">
        <ele>945.79998779297</ele>
        <time>2019-10-30T09:08:08.000Z</time>
      </trkpt>
      <trkpt lat="45.34661" lon="4.59367">
        <ele>945.79998779297</ele>
        <time>2019-10-30T09:08:09.000Z</time>
      </trkpt>
      <trkpt lat="45.34662" lon="4.59365">
        <ele>946.20001220703</ele>
        <time>2019-10-30T09:08:10.000Z</time>
      </trkpt>
      <trkpt lat="45.34662" lon="4.59363">
        <ele>946.40002441406</ele>
        <time>2019-10-30T09:08:11.000Z</time>
      </trkpt>
      <trkpt lat="45.34663" lon="4.59362">
        <ele>946.40002441406</ele>
        <time>2019-10-30T09:08:12.000Z</time>
      </trkpt>
      <trkpt lat="45.34663" lon="4.5936">
        <ele>946.79998779297</ele>
        <time>2019-10-30T09:08:13.000Z</time>
      </trkpt>
      <trkpt lat="45.34664" lon="4.59359">
        <ele>947</ele>
        <time>2019-10-30T09:08:14.000Z</time>
      </trkpt>
      <trkpt lat="45.34665" lon="4.59357">
        <ele>947.20001220703</ele>
        <time>2019-10-30T09:08:15.000Z</time>
      </trkpt>
      <trkpt lat="45.34666" lon="4.59355">
        <ele>947.40002441406</ele>
        <time>2019-10-30T09:08:16.000Z</time>
      </trkpt>
      <trkpt lat="45.34667" lon="4.59354">
        <ele>947.79998779297</ele>
        <time>2019-10-30T09:08:17.000Z</time>
      </trkpt>
      <trkpt lat="45.34667" lon="4.59352">
        <ele>948</ele>
        <time>2019-10-30T09:08:18.000Z</time>
      </trkpt>
      <trkpt lat="45.34667" lon="4.59351">
        <ele>948.40002441406</ele>
        <time>2019-10-30T09:08:19.000Z</time>
      </trkpt>
      <trkpt lat="45.34668" lon="4.5935">
        <ele>948.40002441406</ele>
        <time>2019-10-30T09:08:20.000Z</time>
      </trkpt>
      <trkpt lat="45.34668" lon="4.59349">
        <ele>948.79998779297</ele>
        <time>2019-10-30T09:08:21.000Z</time>
      </trkpt>
      <trkpt lat="45.34669" lon="4.59347">
        <ele>949</ele>
        <time>2019-10-30T09:08:22.000Z</time>
      </trkpt>
      <trkpt lat="45.34669" lon="4.59346">
        <ele>949</ele>
        <time>2019-10-30T09:08:23.000Z</time>
      </trkpt>
      <trkpt lat="45.34669" lon="4.59344">
        <ele>949.20001220703</ele>
        <time>2019-10-30T09:08:24.000Z</time>
      </trkpt>
      <trkpt lat="45.3467" lon="4.59343">
        <ele>949.40002441406</ele>
        <time>2019-10-30T09:08:25.000Z</time>
      </trkpt>
      <trkpt lat="45.3467" lon="4.59341">
        <ele>949.59997558594</ele>
        <time>2019-10-30T09:08:26.000Z</time>
      </trkpt>
      <trkpt lat="45.34671" lon="4.5934">
        <ele>950</ele>
        <time>2019-10-30T09:08:27.000Z</time>
      </trkpt>
      <trkpt lat="45.34672" lon="4.59339">
        <ele>950.20001220703</ele>
        <time>2019-10-30T09:08:28.000Z</time>
      </trkpt>
      <trkpt lat="45.34673" lon="4.59337">
        <ele>950.40002441406</ele>
        <time>2019-10-30T09:08:29.000Z</time>
      </trkpt>
      <trkpt lat="45.34673" lon="4.59336">
        <ele>950.59997558594</ele>
        <time>2019-10-30T09:08:30.000Z</time>
      </trkpt>
      <trkpt lat="45.34673" lon="4.59335">
        <ele>950.79998779297</ele>
        <time>2019-10-30T09:08:31.000Z</time>
      </trkpt>
      <trkpt lat="45.34674" lon="4.59333">
        <ele>950.79998779297</ele>
        <time>2019-10-30T09:08:32.000Z</time>
      </trkpt>
      <trkpt lat="45.34674" lon="4.59332">
        <ele>951.20001220703</ele>
        <time>2019-10-30T09:08:33.000Z</time>
      </trkpt>
      <trkpt lat="45.34675" lon="4.59331">
        <ele>951.40002441406</ele>
        <time>2019-10-30T09:08:34.000Z</time>
      </trkpt>
      <trkpt lat="45.34675" lon="4.59329">
        <ele>951.40002441406</ele>
        <time>2019-10-30T09:08:35.000Z</time>
      </trkpt>
      <trkpt lat="45.34675" lon="4.59328">
        <ele>951.79998779297</ele>
        <time>2019-10-30T09:08:36.000Z</time>
      </trkpt>
      <trkpt lat="45.34676" lon="4.59326">
        <ele>951.79998779297</ele>
        <time>2019-10-30T09:08:37.000Z</time>
      </trkpt>
      <trkpt lat="45.34676" lon="4.59325">
        <ele>952</ele>
        <time>2019-10-30T09:08:38.000Z</time>
      </trkpt>
      <trkpt lat="45.34677" lon="4.59323">
        <ele>952.20001220703</ele>
        <time>2019-10-30T09:08:39.000Z</time>
      </trkpt>
      <trkpt lat="45.34678" lon="4.59321">
        <ele>952.20001220703</ele>
        <time>2019-10-30T09:08:40.000Z</time>
      </trkpt>
      <trkpt lat="45.34679" lon="4.59319">
        <ele>952.40002441406</ele>
        <time>2019-10-30T09:08:41.000Z</time>
      </trkpt>
      <trkpt lat="45.3468" lon="4.59317">
        <ele>952.59997558594</ele>
        <time>2019-10-30T09:08:42.000Z</time>
      </trkpt>
      <trkpt lat="45.34681" lon="4.59315">
        <ele>952.79998779297</ele>
        <time>2019-10-30T09:08:43.000Z</time>
      </trkpt>
      <trkpt lat="45.34681" lon="4.59313">
        <ele>953</ele>
        <time>2019-10-30T09:08:44.000Z</time>
      </trkpt>
      <trkpt lat="45.34682" lon="4.59312">
        <ele>953</ele>
        <time>2019-10-30T09:08:45.000Z</time>
      </trkpt>
      <trkpt lat="45.34682" lon="4.5931">
        <ele>953.40002441406</ele>
        <time>2019-10-30T09:08:46.000Z</time>
      </trkpt>
      <trkpt lat="45.34683" lon="4.59309">
        <ele>953.59997558594</ele>
        <time>2019-10-30T09:08:47.000Z</time>
      </trkpt>
      <trkpt lat="45.34684" lon="4.59307">
        <ele>953.79998779297</ele>
        <time>2019-10-30T09:08:48.000Z</time>
      </trkpt>
      <trkpt lat="45.34684" lon="4.59305">
        <ele>953.79998779297</ele>
        <time>2019-10-30T09:08:49.000Z</time>
      </trkpt>
      <trkpt lat="45.34685" lon="4.59303">
        <ele>954</ele>
        <time>2019-10-30T09:08:50.000Z</time>
      </trkpt>
      <trkpt lat="45.34686" lon="4.59302">
        <ele>954</ele>
        <time>2019-10-30T09:08:51.000Z</time>
      </trkpt>
      <trkpt lat="45.34686" lon="4.593">
        <ele>954.40002441406</ele>
        <time>2019-10-30T09:08:52.000Z</time>
      </trkpt>
      <trkpt lat="45.34687" lon="4.59299">
        <ele>954.59997558594</ele>
        <time>2019-10-30T09:08:53.000Z</time>
      </trkpt>
      <trkpt lat="45.34688" lon="4.59297">
        <ele>954.79998779297</ele>
        <time>2019-10-30T09:08:54.000Z</time>
      </trkpt>
      <trkpt lat="45.34689" lon="4.59295">
        <ele>955</ele>
        <time>2019-10-30T09:08:55.000Z</time>
      </trkpt>
      <trkpt lat="45.3469" lon="4.59293">
        <ele>955.20001220703</ele>
        <time>2019-10-30T09:08:56.000Z</time>
      </trkpt>
      <trkpt lat="45.34691" lon="4.59292">
        <ele>955.59997558594</ele>
        <time>2019-10-30T09:08:57.000Z</time>
      </trkpt>
      <trkpt lat="45.34692" lon="4.5929">
        <ele>956</ele>
        <time>2019-10-30T09:08:58.000Z</time>
      </trkpt>
      <trkpt lat="45.34693" lon="4.59289">
        <ele>956.20001220703</ele>
        <time>2019-10-30T09:08:59.000Z</time>
      </trkpt>
      <trkpt lat="45.34694" lon="4.59287">
        <ele>956.20001220703</ele>
        <time>2019-10-30T09:09:00.000Z</time>
      </trkpt>
      <trkpt lat="45.34695" lon="4.59286">
        <ele>956.20001220703</ele>
        <time>2019-10-30T09:09:01.000Z</time>
      </trkpt>
      <trkpt lat="45.34696" lon="4.59284">
        <ele>956.40002441406</ele>
        <time>2019-10-30T09:09:02.000Z</time>
      </trkpt>
      <trkpt lat="45.34697" lon="4.59282">
        <ele>956.59997558594</ele>
        <time>2019-10-30T09:09:03.000Z</time>
      </trkpt>
      <trkpt lat="45.34698" lon="4.59281">
        <ele>957</ele>
        <time>2019-10-30T09:09:04.000Z</time>
      </trkpt>
      <trkpt lat="45.34699" lon="4.59279">
        <ele>957</ele>
        <time>2019-10-30T09:09:05.000Z</time>
      </trkpt>
      <trkpt lat="45.34699" lon="4.59277">
        <ele>957.20001220703</ele>
        <time>2019-10-30T09:09:06.000Z</time>
      </trkpt>
      <trkpt lat="45.347" lon="4.59276">
        <ele>957.40002441406</ele>
        <time>2019-10-30T09:09:07.000Z</time>
      </trkpt>
      <trkpt lat="45.347" lon="4.59275">
        <ele>957.59997558594</ele>
        <time>2019-10-30T09:09:08.000Z</time>
      </trkpt>
      <trkpt lat="45.34701" lon="4.59273">
        <ele>957.59997558594</ele>
        <time>2019-10-30T09:09:09.000Z</time>
      </trkpt>
      <trkpt lat="45.34702" lon="4.59271">
        <ele>957.59997558594</ele>
        <time>2019-10-30T09:09:10.000Z</time>
      </trkpt>
      <trkpt lat="45.34703" lon="4.59269">
        <ele>958</ele>
        <time>2019-10-30T09:09:11.000Z</time>
      </trkpt>
      <trkpt lat="45.34703" lon="4.59268">
        <ele>958.20001220703</ele>
        <time>2019-10-30T09:09:12.000Z</time>
      </trkpt>
      <trkpt lat="45.34705" lon="4.59266">
        <ele>958.40002441406</ele>
        <time>2019-10-30T09:09:13.000Z</time>
      </trkpt>
      <trkpt lat="45.34705" lon="4.59265">
        <ele>958.59997558594</ele>
        <time>2019-10-30T09:09:14.000Z</time>
      </trkpt>
      <trkpt lat="45.34706" lon="4.59263">
        <ele>958.79998779297</ele>
        <time>2019-10-30T09:09:15.000Z</time>
      </trkpt>
      <trkpt lat="45.34707" lon="4.59262">
        <ele>958.79998779297</ele>
        <time>2019-10-30T09:09:16.000Z</time>
      </trkpt>
      <trkpt lat="45.34707" lon="4.5926">
        <ele>959</ele>
        <time>2019-10-30T09:09:17.000Z</time>
      </trkpt>
      <trkpt lat="45.34708" lon="4.59259">
        <ele>959.20001220703</ele>
        <time>2019-10-30T09:09:18.000Z</time>
      </trkpt>
      <trkpt lat="45.34709" lon="4.59257">
        <ele>959.20001220703</ele>
        <time>2019-10-30T09:09:19.000Z</time>
      </trkpt>
      <trkpt lat="45.34709" lon="4.59256">
        <ele>959.40002441406</ele>
        <time>2019-10-30T09:09:20.000Z</time>
      </trkpt>
      <trkpt lat="45.3471" lon="4.59254">
        <ele>959.59997558594</ele>
        <time>2019-10-30T09:09:21.000Z</time>
      </trkpt>
      <trkpt lat="45.34711" lon="4.59252">
        <ele>959.59997558594</ele>
        <time>2019-10-30T09:09:22.000Z</time>
      </trkpt>
      <trkpt lat="45.34712" lon="4.59251">
        <ele>959.79998779297</ele>
        <time>2019-10-30T09:09:23.000Z</time>
      </trkpt>
      <trkpt lat="45.34712" lon="4.59249">
        <ele>960</ele>
        <time>2019-10-30T09:09:24.000Z</time>
      </trkpt>
      <trkpt lat="45.34713" lon="4.59248">
        <ele>960.20001220703</ele>
        <time>2019-10-30T09:09:25.000Z</time>
      </trkpt>
      <trkpt lat="45.34714" lon="4.59246">
        <ele>960.40002441406</ele>
        <time>2019-10-30T09:09:26.000Z</time>
      </trkpt>
      <trkpt lat="45.34715" lon="4.59245">
        <ele>960.40002441406</ele>
        <time>2019-10-30T09:09:27.000Z</time>
      </trkpt>
      <trkpt lat="45.34716" lon="4.59243">
        <ele>960.59997558594</ele>
        <time>2019-10-30T09:09:28.000Z</time>
      </trkpt>
      <trkpt lat="45.34717" lon="4.59242">
        <ele>960.79998779297</ele>
        <time>2019-10-30T09:09:29.000Z</time>
      </trkpt>
      <trkpt lat="45.34717" lon="4.5924">
        <ele>961.40002441406</ele>
        <time>2019-10-30T09:09:30.000Z</time>
      </trkpt>
      <trkpt lat="45.34719" lon="4.59239">
        <ele>961.40002441406</ele>
        <time>2019-10-30T09:09:31.000Z</time>
      </trkpt>
      <trkpt lat="45.34719" lon="4.59237">
        <ele>961.79998779297</ele>
        <time>2019-10-30T09:09:32.000Z</time>
      </trkpt>
      <trkpt lat="45.3472" lon="4.59236">
        <ele>961.79998779297</ele>
        <time>2019-10-30T09:09:33.000Z</time>
      </trkpt>
      <trkpt lat="45.34721" lon="4.59234">
        <ele>962</ele>
        <time>2019-10-30T09:09:34.000Z</time>
      </trkpt>
      <trkpt lat="45.34722" lon="4.59232">
        <ele>962.20001220703</ele>
        <time>2019-10-30T09:09:35.000Z</time>
      </trkpt>
      <trkpt lat="45.34722" lon="4.59231">
        <ele>962.59997558594</ele>
        <time>2019-10-30T09:09:36.000Z</time>
      </trkpt>
      <trkpt lat="45.34723" lon="4.59229">
        <ele>962.59997558594</ele>
        <time>2019-10-30T09:09:37.000Z</time>
      </trkpt>
      <trkpt lat="45.34724" lon="4.59228">
        <ele>962.79998779297</ele>
        <time>2019-10-30T09:09:38.000Z</time>
      </trkpt>
      <trkpt lat="45.34725" lon="4.59226">
        <ele>963</ele>
        <time>2019-10-30T09:09:39.000Z</time>
      </trkpt>
      <trkpt lat="45.34725" lon="4.59225">
        <ele>963.20001220703</ele>
        <time>2019-10-30T09:09:40.000Z</time>
      </trkpt>
      <trkpt lat="45.34725" lon="4.59223">
        <ele>963.40002441406</ele>
        <time>2019-10-30T09:09:41.000Z</time>
      </trkpt>
      <trkpt lat="45.34726" lon="4.59222">
        <ele>963.59997558594</ele>
        <time>2019-10-30T09:09:42.000Z</time>
      </trkpt>
      <trkpt lat="45.34727" lon="4.5922">
        <ele>963.59997558594</ele>
        <time>2019-10-30T09:09:43.000Z</time>
      </trkpt>
      <trkpt lat="45.34729" lon="4.59219">
        <ele>964</ele>
        <time>2019-10-30T09:09:44.000Z</time>
      </trkpt>
      <trkpt lat="45.3473" lon="4.59217">
        <ele>964.20001220703</ele>
        <time>2019-10-30T09:09:45.000Z</time>
      </trkpt>
      <trkpt lat="45.3473" lon="4.59215">
        <ele>964.40002441406</ele>
        <time>2019-10-30T09:09:46.000Z</time>
      </trkpt>
      <trkpt lat="45.34731" lon="4.59213">
        <ele>964.59997558594</ele>
        <time>2019-10-30T09:09:47.000Z</time>
      </trkpt>
      <trkpt lat="45.34732" lon="4.59212">
        <ele>964.59997558594</ele>
        <time>2019-10-30T09:09:48.000Z</time>
      </trkpt>
      <trkpt lat="45.34732" lon="4.5921">
        <ele>965</ele>
        <time>2019-10-30T09:09:49.000Z</time>
      </trkpt>
      <trkpt lat="45.34733" lon="4.59208">
        <ele>965.20001220703</ele>
        <time>2019-10-30T09:09:50.000Z</time>
      </trkpt>
      <trkpt lat="45.34735" lon="4.59207">
        <ele>965.20001220703</ele>
        <time>2019-10-30T09:09:51.000Z</time>
      </trkpt>
      <trkpt lat="45.34736" lon="4.59205">
        <ele>965.40002441406</ele>
        <time>2019-10-30T09:09:52.000Z</time>
      </trkpt>
      <trkpt lat="45.34737" lon="4.59204">
        <ele>965.40002441406</ele>
        <time>2019-10-30T09:09:53.000Z</time>
      </trkpt>
      <trkpt lat="45.34738" lon="4.59202">
        <ele>965.59997558594</ele>
        <time>2019-10-30T09:09:54.000Z</time>
      </trkpt>
      <trkpt lat="45.34739" lon="4.59201">
        <ele>965.79998779297</ele>
        <time>2019-10-30T09:09:55.000Z</time>
      </trkpt>
      <trkpt lat="45.34739" lon="4.59199">
        <ele>966</ele>
        <time>2019-10-30T09:09:56.000Z</time>
      </trkpt>
      <trkpt lat="45.3474" lon="4.59198">
        <ele>966</ele>
        <time>2019-10-30T09:09:57.000Z</time>
      </trkpt>
      <trkpt lat="45.34741" lon="4.59196">
        <ele>966.20001220703</ele>
        <time>2019-10-30T09:09:58.000Z</time>
      </trkpt>
      <trkpt lat="45.34742" lon="4.59194">
        <ele>966.20001220703</ele>
        <time>2019-10-30T09:09:59.000Z</time>
      </trkpt>
      <trkpt lat="45.34744" lon="4.59193">
        <ele>966.40002441406</ele>
        <time>2019-10-30T09:10:00.000Z</time>
      </trkpt>
      <trkpt lat="45.34746" lon="4.59191">
        <ele>966.59997558594</ele>
        <time>2019-10-30T09:10:01.000Z</time>
      </trkpt>
      <trkpt lat="45.34746" lon="4.59189">
        <ele>966.59997558594</ele>
        <time>2019-10-30T09:10:02.000Z</time>
      </trkpt>
      <trkpt lat="45.34747" lon="4.59188">
        <ele>966.79998779297</ele>
        <time>2019-10-30T09:10:03.000Z</time>
      </trkpt>
      <trkpt lat="45.34748" lon="4.59186">
        <ele>966.79998779297</ele>
        <time>2019-10-30T09:10:04.000Z</time>
      </trkpt>
      <trkpt lat="45.34749" lon="4.59184">
        <ele>967</ele>
        <time>2019-10-30T09:10:05.000Z</time>
      </trkpt>
      <trkpt lat="45.3475" lon="4.59183">
        <ele>967.20001220703</ele>
        <time>2019-10-30T09:10:06.000Z</time>
      </trkpt>
      <trkpt lat="45.3475" lon="4.59181">
        <ele>967.20001220703</ele>
        <time>2019-10-30T09:10:07.000Z</time>
      </trkpt>
      <trkpt lat="45.34751" lon="4.59179">
        <ele>967.20001220703</ele>
        <time>2019-10-30T09:10:08.000Z</time>
      </trkpt>
      <trkpt lat="45.34752" lon="4.59177">
        <ele>967.59997558594</ele>
        <time>2019-10-30T09:10:09.000Z</time>
      </trkpt>
      <trkpt lat="45.34753" lon="4.59176">
        <ele>967.59997558594</ele>
        <time>2019-10-30T09:10:10.000Z</time>
      </trkpt>
      <trkpt lat="45.34754" lon="4.59174">
        <ele>967.59997558594</ele>
        <time>2019-10-30T09:10:11.000Z</time>
      </trkpt>
      <trkpt lat="45.34754" lon="4.59172">
        <ele>968</ele>
        <time>2019-10-30T09:10:12.000Z</time>
      </trkpt>
      <trkpt lat="45.34755" lon="4.5917">
        <ele>968</ele>
        <time>2019-10-30T09:10:13.000Z</time>
      </trkpt>
      <trkpt lat="45.34756" lon="4.59168">
        <ele>968.40002441406</ele>
        <time>2019-10-30T09:10:14.000Z</time>
      </trkpt>
      <trkpt lat="45.34757" lon="4.59167">
        <ele>968.40002441406</ele>
        <time>2019-10-30T09:10:15.000Z</time>
      </trkpt>
      <trkpt lat="45.34758" lon="4.59166">
        <ele>968.59997558594</ele>
        <time>2019-10-30T09:10:16.000Z</time>
      </trkpt>
      <trkpt lat="45.34759" lon="4.59164">
        <ele>968.59997558594</ele>
        <time>2019-10-30T09:10:17.000Z</time>
      </trkpt>
      <trkpt lat="45.34759" lon="4.59162">
        <ele>968.79998779297</ele>
        <time>2019-10-30T09:10:18.000Z</time>
      </trkpt>
      <trkpt lat="45.3476" lon="4.59161">
        <ele>968.79998779297</ele>
        <time>2019-10-30T09:10:19.000Z</time>
      </trkpt>
      <trkpt lat="45.34761" lon="4.59159">
        <ele>969</ele>
        <time>2019-10-30T09:10:20.000Z</time>
      </trkpt>
      <trkpt lat="45.34762" lon="4.59157">
        <ele>969.20001220703</ele>
        <time>2019-10-30T09:10:21.000Z</time>
      </trkpt>
      <trkpt lat="45.34763" lon="4.59156">
        <ele>969.59997558594</ele>
        <time>2019-10-30T09:10:22.000Z</time>
      </trkpt>
      <trkpt lat="45.34764" lon="4.59154">
        <ele>969.59997558594</ele>
        <time>2019-10-30T09:10:23.000Z</time>
      </trkpt>
      <trkpt lat="45.34765" lon="4.59152">
        <ele>969.79998779297</ele>
        <time>2019-10-30T09:10:24.000Z</time>
      </trkpt>
      <trkpt lat="45.34765" lon="4.59151">
        <ele>969.79998779297</ele>
        <time>2019-10-30T09:10:25.000Z</time>
      </trkpt>
      <trkpt lat="45.34766" lon="4.59149">
        <ele>970.20001220703</ele>
        <time>2019-10-30T09:10:26.000Z</time>
      </trkpt>
      <trkpt lat="45.34766" lon="4.59148">
        <ele>970.40002441406</ele>
        <time>2019-10-30T09:10:27.000Z</time>
      </trkpt>
      <trkpt lat="45.34767" lon="4.59146">
        <ele>970.59997558594</ele>
        <time>2019-10-30T09:10:28.000Z</time>
      </trkpt>
      <trkpt lat="45.34768" lon="4.59144">
        <ele>971</ele>
        <time>2019-10-30T09:10:29.000Z</time>
      </trkpt>
      <trkpt lat="45.34768" lon="4.59143">
        <ele>971.40002441406</ele>
        <time>2019-10-30T09:10:30.000Z</time>
      </trkpt>
      <trkpt lat="45.34769" lon="4.59141">
        <ele>971.40002441406</ele>
        <time>2019-10-30T09:10:31.000Z</time>
      </trkpt>
      <trkpt lat="45.3477" lon="4.5914">
        <ele>971.59997558594</ele>
        <time>2019-10-30T09:10:32.000Z</time>
      </trkpt>
      <trkpt lat="45.34771" lon="4.59138">
        <ele>972</ele>
        <time>2019-10-30T09:10:33.000Z</time>
      </trkpt>
      <trkpt lat="45.34771" lon="4.59137">
        <ele>972.20001220703</ele>
        <time>2019-10-30T09:10:34.000Z</time>
      </trkpt>
      <trkpt lat="45.34772" lon="4.59135">
        <ele>972.40002441406</ele>
        <time>2019-10-30T09:10:35.000Z</time>
      </trkpt>
      <trkpt lat="45.34772" lon="4.59133">
        <ele>972.79998779297</ele>
        <time>2019-10-30T09:10:36.000Z</time>
      </trkpt>
      <trkpt lat="45.34773" lon="4.59131">
        <ele>972.79998779297</ele>
        <time>2019-10-30T09:10:37.000Z</time>
      </trkpt>
      <trkpt lat="45.34774" lon="4.59129">
        <ele>973.20001220703</ele>
        <time>2019-10-30T09:10:38.000Z</time>
      </trkpt>
      <trkpt lat="45.34775" lon="4.59128">
        <ele>973.40002441406</ele>
        <time>2019-10-30T09:10:39.000Z</time>
      </trkpt>
      <trkpt lat="45.34777" lon="4.59126">
        <ele>973.79998779297</ele>
        <time>2019-10-30T09:10:40.000Z</time>
      </trkpt>
      <trkpt lat="45.34778" lon="4.59124">
        <ele>973.79998779297</ele>
        <time>2019-10-30T09:10:41.000Z</time>
      </trkpt>
      <trkpt lat="45.34779" lon="4.59123">
        <ele>974</ele>
        <time>2019-10-30T09:10:42.000Z</time>
      </trkpt>
      <trkpt lat="45.3478" lon="4.59121">
        <ele>974.40002441406</ele>
        <time>2019-10-30T09:10:43.000Z</time>
      </trkpt>
      <trkpt lat="45.34781" lon="4.5912">
        <ele>974.59997558594</ele>
        <time>2019-10-30T09:10:44.000Z</time>
      </trkpt>
      <trkpt lat="45.34781" lon="4.59119">
        <ele>974.59997558594</ele>
        <time>2019-10-30T09:10:45.000Z</time>
      </trkpt>
      <trkpt lat="45.34782" lon="4.59117">
        <ele>974.79998779297</ele>
        <time>2019-10-30T09:10:46.000Z</time>
      </trkpt>
      <trkpt lat="45.34782" lon="4.59116">
        <ele>974.79998779297</ele>
        <time>2019-10-30T09:10:47.000Z</time>
      </trkpt>
      <trkpt lat="45.34782" lon="4.59114">
        <ele>975</ele>
        <time>2019-10-30T09:10:48.000Z</time>
      </trkpt>
      <trkpt lat="45.34782" lon="4.59114">
        <ele>975.40002441406</ele>
        <time>2019-10-30T09:10:49.000Z</time>
      </trkpt>
      <trkpt lat="45.34783" lon="4.59114">
        <ele>976.20001220703</ele>
        <time>2019-10-30T09:10:52.000Z</time>
      </trkpt>
      <trkpt lat="45.34783" lon="4.59113">
        <ele>976.59997558594</ele>
        <time>2019-10-30T09:10:55.000Z</time>
      </trkpt>
      <trkpt lat="45.34783" lon="4.59113">
        <ele>977.20001220703</ele>
        <time>2019-10-30T09:11:01.000Z</time>
      </trkpt>
      <trkpt lat="45.34783" lon="4.59113">
        <ele>977.40002441406</ele>
        <time>2019-10-30T09:11:03.000Z</time>
      </trkpt>
      <trkpt lat="45.34783" lon="4.59113">
        <ele>977.40002441406</ele>
        <time>2019-10-30T09:11:09.000Z</time>
      </trkpt>
      <trkpt lat="45.34783" lon="4.59113">
        <ele>977.40002441406</ele>
        <time>2019-10-30T09:11:13.000Z</time>
      </trkpt>
      <trkpt lat="45.34782" lon="4.59112">
        <ele>977.59997558594</ele>
        <time>2019-10-30T09:11:20.000Z</time>
      </trkpt>
      <trkpt lat="45.34781" lon="4.5911">
        <ele>977.59997558594</ele>
        <time>2019-10-30T09:11:21.000Z</time>
      </trkpt>
      <trkpt lat="45.34778" lon="4.59107">
        <ele>977.40002441406</ele>
        <time>2019-10-30T09:11:23.000Z</time>
      </trkpt>
      <trkpt lat="45.34774" lon="4.59104">
        <ele>977.59997558594</ele>
        <time>2019-10-30T09:11:25.000Z</time>
      </trkpt>
      <trkpt lat="45.34771" lon="4.59103">
        <ele>977.40002441406</ele>
        <time>2019-10-30T09:11:26.000Z</time>
      </trkpt>
      <trkpt lat="45.34765" lon="4.591">
        <ele>977.20001220703</ele>
        <time>2019-10-30T09:11:28.000Z</time>
      </trkpt>
      <trkpt lat="45.34757" lon="4.59094">
        <ele>977.20001220703</ele>
        <time>2019-10-30T09:11:31.000Z</time>
      </trkpt>
      <trkpt lat="45.34754" lon="4.59092">
        <ele>977.20001220703</ele>
        <time>2019-10-30T09:11:32.000Z</time>
      </trkpt>
      <trkpt lat="45.34748" lon="4.59088">
        <ele>976.79998779297</ele>
        <time>2019-10-30T09:11:34.000Z</time>
      </trkpt>
      <trkpt lat="45.34746" lon="4.59086">
        <ele>976.59997558594</ele>
        <time>2019-10-30T09:11:35.000Z</time>
      </trkpt>
      <trkpt lat="45.34744" lon="4.59085">
        <ele>976.59997558594</ele>
        <time>2019-10-30T09:11:36.000Z</time>
      </trkpt>
      <trkpt lat="45.34743" lon="4.59083">
        <ele>976.59997558594</ele>
        <time>2019-10-30T09:11:37.000Z</time>
      </trkpt>
      <trkpt lat="45.34742" lon="4.59082">
        <ele>976.40002441406</ele>
        <time>2019-10-30T09:11:38.000Z</time>
      </trkpt>
      <trkpt lat="45.34741" lon="4.59081">
        <ele>976.20001220703</ele>
        <time>2019-10-30T09:11:39.000Z</time>
      </trkpt>
      <trkpt lat="45.3474" lon="4.59079">
        <ele>976.20001220703</ele>
        <time>2019-10-30T09:11:40.000Z</time>
      </trkpt>
      <trkpt lat="45.3474" lon="4.59077">
        <ele>976.20001220703</ele>
        <time>2019-10-30T09:11:41.000Z</time>
      </trkpt>
      <trkpt lat="45.34739" lon="4.59075">
        <ele>975.79998779297</ele>
        <time>2019-10-30T09:11:42.000Z</time>
      </trkpt>
      <trkpt lat="45.34739" lon="4.59071">
        <ele>975.59997558594</ele>
        <time>2019-10-30T09:11:43.000Z</time>
      </trkpt>
      <trkpt lat="45.34738" lon="4.59069">
        <ele>975.40002441406</ele>
        <time>2019-10-30T09:11:44.000Z</time>
      </trkpt>
      <trkpt lat="45.34738" lon="4.59067">
        <ele>975.40002441406</ele>
        <time>2019-10-30T09:11:45.000Z</time>
      </trkpt>
      <trkpt lat="45.34737" lon="4.59065">
        <ele>975</ele>
        <time>2019-10-30T09:11:46.000Z</time>
      </trkpt>
      <trkpt lat="45.34737" lon="4.59065">
        <ele>975</ele>
        <time>2019-10-30T09:11:47.000Z</time>
      </trkpt>
      <trkpt lat="45.34737" lon="4.59063">
        <ele>974.59997558594</ele>
        <time>2019-10-30T09:11:52.000Z</time>
      </trkpt>
      <trkpt lat="45.34737" lon="4.5906">
        <ele>974.20001220703</ele>
        <time>2019-10-30T09:11:54.000Z</time>
      </trkpt>
      <trkpt lat="45.34738" lon="4.59057">
        <ele>974.20001220703</ele>
        <time>2019-10-30T09:11:55.000Z</time>
      </trkpt>
      <trkpt lat="45.34739" lon="4.59054">
        <ele>974</ele>
        <time>2019-10-30T09:11:56.000Z</time>
      </trkpt>
      <trkpt lat="45.34744" lon="4.5904">
        <ele>973.79998779297</ele>
        <time>2019-10-30T09:11:59.000Z</time>
      </trkpt>
      <trkpt lat="45.34749" lon="4.59027">
        <ele>973.79998779297</ele>
        <time>2019-10-30T09:12:01.000Z</time>
      </trkpt>
      <trkpt lat="45.34751" lon="4.5902">
        <ele>973.79998779297</ele>
        <time>2019-10-30T09:12:02.000Z</time>
      </trkpt>
      <trkpt lat="45.3476" lon="4.58991">
        <ele>973</ele>
        <time>2019-10-30T09:12:06.000Z</time>
      </trkpt>
      <trkpt lat="45.34764" lon="4.58983">
        <ele>972.79998779297</ele>
        <time>2019-10-30T09:12:07.000Z</time>
      </trkpt>
      <trkpt lat="45.34768" lon="4.58974">
        <ele>972.59997558594</ele>
        <time>2019-10-30T09:12:08.000Z</time>
      </trkpt>
      <trkpt lat="45.34772" lon="4.58966">
        <ele>972</ele>
        <time>2019-10-30T09:12:09.000Z</time>
      </trkpt>
      <trkpt lat="45.34777" lon="4.58957">
        <ele>971.79998779297</ele>
        <time>2019-10-30T09:12:10.000Z</time>
      </trkpt>
      <trkpt lat="45.34783" lon="4.5895">
        <ele>971.20001220703</ele>
        <time>2019-10-30T09:12:11.000Z</time>
      </trkpt>
      <trkpt lat="45.34789" lon="4.58942">
        <ele>970.79998779297</ele>
        <time>2019-10-30T09:12:12.000Z</time>
      </trkpt>
      <trkpt lat="45.34794" lon="4.58935">
        <ele>970.40002441406</ele>
        <time>2019-10-30T09:12:13.000Z</time>
      </trkpt>
      <trkpt lat="45.34797" lon="4.58927">
        <ele>969.79998779297</ele>
        <time>2019-10-30T09:12:14.000Z</time>
      </trkpt>
      <trkpt lat="45.348" lon="4.58919">
        <ele>969.20001220703</ele>
        <time>2019-10-30T09:12:15.000Z</time>
      </trkpt>
      <trkpt lat="45.34802" lon="4.58912">
        <ele>968.40002441406</ele>
        <time>2019-10-30T09:12:16.000Z</time>
      </trkpt>
      <trkpt lat="45.34803" lon="4.58906">
        <ele>968</ele>
        <time>2019-10-30T09:12:17.000Z</time>
      </trkpt>
      <trkpt lat="45.34804" lon="4.589">
        <ele>967.59997558594</ele>
        <time>2019-10-30T09:12:18.000Z</time>
      </trkpt>
      <trkpt lat="45.34803" lon="4.58897">
        <ele>967.40002441406</ele>
        <time>2019-10-30T09:12:19.000Z</time>
      </trkpt>
      <trkpt lat="45.34803" lon="4.58894">
        <ele>967.59997558594</ele>
        <time>2019-10-30T09:12:20.000Z</time>
      </trkpt>
      <trkpt lat="45.34803" lon="4.58891">
        <ele>967.40002441406</ele>
        <time>2019-10-30T09:12:21.000Z</time>
      </trkpt>
      <trkpt lat="45.34803" lon="4.58889">
        <ele>967.59997558594</ele>
        <time>2019-10-30T09:12:22.000Z</time>
      </trkpt>
      <trkpt lat="45.34803" lon="4.58886">
        <ele>967.59997558594</ele>
        <time>2019-10-30T09:12:23.000Z</time>
      </trkpt>
      <trkpt lat="45.34802" lon="4.58884">
        <ele>967.40002441406</ele>
        <time>2019-10-30T09:12:24.000Z</time>
      </trkpt>
      <trkpt lat="45.34801" lon="4.58883">
        <ele>967.59997558594</ele>
        <time>2019-10-30T09:12:25.000Z</time>
      </trkpt>
      <trkpt lat="45.348" lon="4.58881">
        <ele>967.59997558594</ele>
        <time>2019-10-30T09:12:26.000Z</time>
      </trkpt>
      <trkpt lat="45.34799" lon="4.5888">
        <ele>968</ele>
        <time>2019-10-30T09:12:27.000Z</time>
      </trkpt>
      <trkpt lat="45.34798" lon="4.58878">
        <ele>968.79998779297</ele>
        <time>2019-10-30T09:12:28.000Z</time>
      </trkpt>
      <trkpt lat="45.34797" lon="4.58877">
        <ele>968.79998779297</ele>
        <time>2019-10-30T09:12:29.000Z</time>
      </trkpt>
      <trkpt lat="45.34796" lon="4.58875">
        <ele>969.20001220703</ele>
        <time>2019-10-30T09:12:30.000Z</time>
      </trkpt>
      <trkpt lat="45.34795" lon="4.58874">
        <ele>969.40002441406</ele>
        <time>2019-10-30T09:12:31.000Z</time>
      </trkpt>
      <trkpt lat="45.34794" lon="4.58873">
        <ele>969.79998779297</ele>
        <time>2019-10-30T09:12:32.000Z</time>
      </trkpt>
      <trkpt lat="45.34794" lon="4.58871">
        <ele>970.20001220703</ele>
        <time>2019-10-30T09:12:33.000Z</time>
      </trkpt>
      <trkpt lat="45.34793" lon="4.58869">
        <ele>970.40002441406</ele>
        <time>2019-10-30T09:12:34.000Z</time>
      </trkpt>
      <trkpt lat="45.34792" lon="4.58868">
        <ele>970.59997558594</ele>
        <time>2019-10-30T09:12:35.000Z</time>
      </trkpt>
      <trkpt lat="45.3479" lon="4.58866">
        <ele>970.79998779297</ele>
        <time>2019-10-30T09:12:36.000Z</time>
      </trkpt>
      <trkpt lat="45.34789" lon="4.58865">
        <ele>971</ele>
        <time>2019-10-30T09:12:37.000Z</time>
      </trkpt>
      <trkpt lat="45.34788" lon="4.58864">
        <ele>971.40002441406</ele>
        <time>2019-10-30T09:12:38.000Z</time>
      </trkpt>
      <trkpt lat="45.34787" lon="4.58863">
        <ele>971.59997558594</ele>
        <time>2019-10-30T09:12:39.000Z</time>
      </trkpt>
      <trkpt lat="45.34786" lon="4.58861">
        <ele>971.59997558594</ele>
        <time>2019-10-30T09:12:40.000Z</time>
      </trkpt>
      <trkpt lat="45.34785" lon="4.5886">
        <ele>972</ele>
        <time>2019-10-30T09:12:41.000Z</time>
      </trkpt>
      <trkpt lat="45.34784" lon="4.58858">
        <ele>972.20001220703</ele>
        <time>2019-10-30T09:12:42.000Z</time>
      </trkpt>
      <trkpt lat="45.34783" lon="4.58857">
        <ele>972.20001220703</ele>
        <time>2019-10-30T09:12:43.000Z</time>
      </trkpt>
      <trkpt lat="45.34782" lon="4.58856">
        <ele>972.59997558594</ele>
        <time>2019-10-30T09:12:44.000Z</time>
      </trkpt>
      <trkpt lat="45.34781" lon="4.58855">
        <ele>973</ele>
        <time>2019-10-30T09:12:45.000Z</time>
      </trkpt>
      <trkpt lat="45.34779" lon="4.58853">
        <ele>973.20001220703</ele>
        <time>2019-10-30T09:12:46.000Z</time>
      </trkpt>
      <trkpt lat="45.34777" lon="4.5885">
        <ele>973.59997558594</ele>
        <time>2019-10-30T09:12:47.000Z</time>
      </trkpt>
      <trkpt lat="45.34775" lon="4.58847">
        <ele>973.59997558594</ele>
        <time>2019-10-30T09:12:48.000Z</time>
      </trkpt>
      <trkpt lat="45.34773" lon="4.58843">
        <ele>973.79998779297</ele>
        <time>2019-10-30T09:12:49.000Z</time>
      </trkpt>
      <trkpt lat="45.34772" lon="4.5884">
        <ele>974</ele>
        <time>2019-10-30T09:12:50.000Z</time>
      </trkpt>
      <trkpt lat="45.34771" lon="4.58838">
        <ele>974.40002441406</ele>
        <time>2019-10-30T09:12:51.000Z</time>
      </trkpt>
      <trkpt lat="45.3477" lon="4.58836">
        <ele>974.40002441406</ele>
        <time>2019-10-30T09:12:52.000Z</time>
      </trkpt>
      <trkpt lat="45.34769" lon="4.58834">
        <ele>974.59997558594</ele>
        <time>2019-10-30T09:12:53.000Z</time>
      </trkpt>
      <trkpt lat="45.34768" lon="4.58832">
        <ele>974.79998779297</ele>
        <time>2019-10-30T09:12:54.000Z</time>
      </trkpt>
      <trkpt lat="45.34767" lon="4.58831">
        <ele>974.79998779297</ele>
        <time>2019-10-30T09:12:55.000Z</time>
      </trkpt>
      <trkpt lat="45.34766" lon="4.5883">
        <ele>975.20001220703</ele>
        <time>2019-10-30T09:12:56.000Z</time>
      </trkpt>
      <trkpt lat="45.34765" lon="4.58828">
        <ele>975.20001220703</ele>
        <time>2019-10-30T09:12:57.000Z</time>
      </trkpt>
      <trkpt lat="45.34764" lon="4.58826">
        <ele>975.59997558594</ele>
        <time>2019-10-30T09:12:58.000Z</time>
      </trkpt>
      <trkpt lat="45.34763" lon="4.58824">
        <ele>976</ele>
        <time>2019-10-30T09:12:59.000Z</time>
      </trkpt>
      <trkpt lat="45.34762" lon="4.58822">
        <ele>976.59997558594</ele>
        <time>2019-10-30T09:13:00.000Z</time>
      </trkpt>
      <trkpt lat="45.34761" lon="4.58821">
        <ele>976.59997558594</ele>
        <time>2019-10-30T09:13:01.000Z</time>
      </trkpt>
      <trkpt lat="45.3476" lon="4.5882">
        <ele>976.79998779297</ele>
        <time>2019-10-30T09:13:02.000Z</time>
      </trkpt>
      <trkpt lat="45.34759" lon="4.58819">
        <ele>977</ele>
        <time>2019-10-30T09:13:03.000Z</time>
      </trkpt>
      <trkpt lat="45.34757" lon="4.58817">
        <ele>977.20001220703</ele>
        <time>2019-10-30T09:13:04.000Z</time>
      </trkpt>
      <trkpt lat="45.34756" lon="4.58816">
        <ele>977.40002441406</ele>
        <time>2019-10-30T09:13:05.000Z</time>
      </trkpt>
      <trkpt lat="45.34755" lon="4.58815">
        <ele>977.59997558594</ele>
        <time>2019-10-30T09:13:06.000Z</time>
      </trkpt>
      <trkpt lat="45.34754" lon="4.58813">
        <ele>977.79998779297</ele>
        <time>2019-10-30T09:13:07.000Z</time>
      </trkpt>
      <trkpt lat="45.34753" lon="4.58812">
        <ele>978</ele>
        <time>2019-10-30T09:13:08.000Z</time>
      </trkpt>
      <trkpt lat="45.34752" lon="4.58811">
        <ele>978.40002441406</ele>
        <time>2019-10-30T09:13:09.000Z</time>
      </trkpt>
      <trkpt lat="45.34751" lon="4.58809">
        <ele>978.40002441406</ele>
        <time>2019-10-30T09:13:10.000Z</time>
      </trkpt>
      <trkpt lat="45.3475" lon="4.58808">
        <ele>978.79998779297</ele>
        <time>2019-10-30T09:13:11.000Z</time>
      </trkpt>
      <trkpt lat="45.34749" lon="4.58807">
        <ele>979</ele>
        <time>2019-10-30T09:13:12.000Z</time>
      </trkpt>
      <trkpt lat="45.34747" lon="4.58805">
        <ele>979.20001220703</ele>
        <time>2019-10-30T09:13:13.000Z</time>
      </trkpt>
      <trkpt lat="45.34746" lon="4.58804">
        <ele>979.40002441406</ele>
        <time>2019-10-30T09:13:14.000Z</time>
      </trkpt>
      <trkpt lat="45.34745" lon="4.58803">
        <ele>979.59997558594</ele>
        <time>2019-10-30T09:13:15.000Z</time>
      </trkpt>
      <trkpt lat="45.34744" lon="4.58801">
        <ele>979.79998779297</ele>
        <time>2019-10-30T09:13:16.000Z</time>
      </trkpt>
      <trkpt lat="45.34743" lon="4.588">
        <ele>980</ele>
        <time>2019-10-30T09:13:17.000Z</time>
      </trkpt>
      <trkpt lat="45.34742" lon="4.58799">
        <ele>980.20001220703</ele>
        <time>2019-10-30T09:13:18.000Z</time>
      </trkpt>
      <trkpt lat="45.3474" lon="4.58799">
        <ele>980.40002441406</ele>
        <time>2019-10-30T09:13:19.000Z</time>
      </trkpt>
      <trkpt lat="45.34739" lon="4.58798">
        <ele>980.40002441406</ele>
        <time>2019-10-30T09:13:20.000Z</time>
      </trkpt>
      <trkpt lat="45.34737" lon="4.58798">
        <ele>980.40002441406</ele>
        <time>2019-10-30T09:13:21.000Z</time>
      </trkpt>
      <trkpt lat="45.34735" lon="4.58797">
        <ele>980.59997558594</ele>
        <time>2019-10-30T09:13:22.000Z</time>
      </trkpt>
      <trkpt lat="45.34734" lon="4.58797">
        <ele>980.79998779297</ele>
        <time>2019-10-30T09:13:23.000Z</time>
      </trkpt>
      <trkpt lat="45.34732" lon="4.58796">
        <ele>981</ele>
        <time>2019-10-30T09:13:24.000Z</time>
      </trkpt>
      <trkpt lat="45.34731" lon="4.58796">
        <ele>981.20001220703</ele>
        <time>2019-10-30T09:13:25.000Z</time>
      </trkpt>
      <trkpt lat="45.3473" lon="4.58796">
        <ele>981.59997558594</ele>
        <time>2019-10-30T09:13:26.000Z</time>
      </trkpt>
      <trkpt lat="45.34729" lon="4.58795">
        <ele>981.79998779297</ele>
        <time>2019-10-30T09:13:27.000Z</time>
      </trkpt>
      <trkpt lat="45.34727" lon="4.58794">
        <ele>982</ele>
        <time>2019-10-30T09:13:28.000Z</time>
      </trkpt>
      <trkpt lat="45.34726" lon="4.58794">
        <ele>982.20001220703</ele>
        <time>2019-10-30T09:13:29.000Z</time>
      </trkpt>
      <trkpt lat="45.34724" lon="4.58794">
        <ele>982.40002441406</ele>
        <time>2019-10-30T09:13:30.000Z</time>
      </trkpt>
      <trkpt lat="45.34723" lon="4.58794">
        <ele>982.59997558594</ele>
        <time>2019-10-30T09:13:31.000Z</time>
      </trkpt>
      <trkpt lat="45.34722" lon="4.58795">
        <ele>982.79998779297</ele>
        <time>2019-10-30T09:13:32.000Z</time>
      </trkpt>
      <trkpt lat="45.3472" lon="4.58794">
        <ele>982.79998779297</ele>
        <time>2019-10-30T09:13:33.000Z</time>
      </trkpt>
      <trkpt lat="45.34719" lon="4.58794">
        <ele>983.20001220703</ele>
        <time>2019-10-30T09:13:34.000Z</time>
      </trkpt>
      <trkpt lat="45.34718" lon="4.58795">
        <ele>983.40002441406</ele>
        <time>2019-10-30T09:13:35.000Z</time>
      </trkpt>
      <trkpt lat="45.34716" lon="4.58795">
        <ele>983.79998779297</ele>
        <time>2019-10-30T09:13:36.000Z</time>
      </trkpt>
      <trkpt lat="45.34715" lon="4.58795">
        <ele>983.79998779297</ele>
        <time>2019-10-30T09:13:37.000Z</time>
      </trkpt>
      <trkpt lat="45.34714" lon="4.58796">
        <ele>984</ele>
        <time>2019-10-30T09:13:38.000Z</time>
      </trkpt>
      <trkpt lat="45.34712" lon="4.58796">
        <ele>984.20001220703</ele>
        <time>2019-10-30T09:13:39.000Z</time>
      </trkpt>
      <trkpt lat="45.34711" lon="4.58797">
        <ele>984.40002441406</ele>
        <time>2019-10-30T09:13:40.000Z</time>
      </trkpt>
      <trkpt lat="45.3471" lon="4.58798">
        <ele>984.59997558594</ele>
        <time>2019-10-30T09:13:41.000Z</time>
      </trkpt>
      <trkpt lat="45.34708" lon="4.58798">
        <ele>984.59997558594</ele>
        <time>2019-10-30T09:13:42.000Z</time>
      </trkpt>
      <trkpt lat="45.34707" lon="4.58799">
        <ele>984.79998779297</ele>
        <time>2019-10-30T09:13:43.000Z</time>
      </trkpt>
      <trkpt lat="45.34705" lon="4.58799">
        <ele>985.20001220703</ele>
        <time>2019-10-30T09:13:44.000Z</time>
      </trkpt>
      <trkpt lat="45.34703" lon="4.58799">
        <ele>985.40002441406</ele>
        <time>2019-10-30T09:13:45.000Z</time>
      </trkpt>
      <trkpt lat="45.34702" lon="4.58799">
        <ele>985.40002441406</ele>
        <time>2019-10-30T09:13:46.000Z</time>
      </trkpt>
      <trkpt lat="45.34701" lon="4.58799">
        <ele>985.40002441406</ele>
        <time>2019-10-30T09:13:47.000Z</time>
      </trkpt>
      <trkpt lat="45.34699" lon="4.588">
        <ele>985.59997558594</ele>
        <time>2019-10-30T09:13:48.000Z</time>
      </trkpt>
      <trkpt lat="45.34698" lon="4.58801">
        <ele>985.79998779297</ele>
        <time>2019-10-30T09:13:49.000Z</time>
      </trkpt>
      <trkpt lat="45.34697" lon="4.58802">
        <ele>986</ele>
        <time>2019-10-30T09:13:50.000Z</time>
      </trkpt>
      <trkpt lat="45.34696" lon="4.58803">
        <ele>986.20001220703</ele>
        <time>2019-10-30T09:13:51.000Z</time>
      </trkpt>
      <trkpt lat="45.34694" lon="4.58805">
        <ele>986.40002441406</ele>
        <time>2019-10-30T09:13:52.000Z</time>
      </trkpt>
      <trkpt lat="45.34692" lon="4.58806">
        <ele>986.59997558594</ele>
        <time>2019-10-30T09:13:53.000Z</time>
      </trkpt>
      <trkpt lat="45.34691" lon="4.58807">
        <ele>986.59997558594</ele>
        <time>2019-10-30T09:13:54.000Z</time>
      </trkpt>
      <trkpt lat="45.34689" lon="4.58809">
        <ele>987</ele>
        <time>2019-10-30T09:13:55.000Z</time>
      </trkpt>
      <trkpt lat="45.34687" lon="4.5881">
        <ele>987.20001220703</ele>
        <time>2019-10-30T09:13:56.000Z</time>
      </trkpt>
      <trkpt lat="45.34686" lon="4.58811">
        <ele>987.59997558594</ele>
        <time>2019-10-30T09:13:57.000Z</time>
      </trkpt>
      <trkpt lat="45.34684" lon="4.58812">
        <ele>988</ele>
        <time>2019-10-30T09:13:58.000Z</time>
      </trkpt>
      <trkpt lat="45.34682" lon="4.58813">
        <ele>988.40002441406</ele>
        <time>2019-10-30T09:13:59.000Z</time>
      </trkpt>
      <trkpt lat="45.34681" lon="4.58815">
        <ele>988.59997558594</ele>
        <time>2019-10-30T09:14:00.000Z</time>
      </trkpt>
      <trkpt lat="45.34679" lon="4.58818">
        <ele>989</ele>
        <time>2019-10-30T09:14:01.000Z</time>
      </trkpt>
      <trkpt lat="45.34677" lon="4.5882">
        <ele>989.20001220703</ele>
        <time>2019-10-30T09:14:02.000Z</time>
      </trkpt>
      <trkpt lat="45.34674" lon="4.58822">
        <ele>989.40002441406</ele>
        <time>2019-10-30T09:14:03.000Z</time>
      </trkpt>
      <trkpt lat="45.34672" lon="4.58823">
        <ele>989.59997558594</ele>
        <time>2019-10-30T09:14:04.000Z</time>
      </trkpt>
      <trkpt lat="45.3467" lon="4.58825">
        <ele>989.79998779297</ele>
        <time>2019-10-30T09:14:05.000Z</time>
      </trkpt>
      <trkpt lat="45.34668" lon="4.58826">
        <ele>990</ele>
        <time>2019-10-30T09:14:06.000Z</time>
      </trkpt>
      <trkpt lat="45.34666" lon="4.58829">
        <ele>990</ele>
        <time>2019-10-30T09:14:07.000Z</time>
      </trkpt>
      <trkpt lat="45.34659" lon="4.58834">
        <ele>990.40002441406</ele>
        <time>2019-10-30T09:14:10.000Z</time>
      </trkpt>
      <trkpt lat="45.34657" lon="4.58836">
        <ele>990.40002441406</ele>
        <time>2019-10-30T09:14:11.000Z</time>
      </trkpt>
      <trkpt lat="45.34651" lon="4.58841">
        <ele>990.79998779297</ele>
        <time>2019-10-30T09:14:14.000Z</time>
      </trkpt>
      <trkpt lat="45.34649" lon="4.58842">
        <ele>990.79998779297</ele>
        <time>2019-10-30T09:14:15.000Z</time>
      </trkpt>
      <trkpt lat="45.34647" lon="4.58843">
        <ele>990.79998779297</ele>
        <time>2019-10-30T09:14:16.000Z</time>
      </trkpt>
      <trkpt lat="45.34645" lon="4.58845">
        <ele>990.79998779297</ele>
        <time>2019-10-30T09:14:17.000Z</time>
      </trkpt>
      <trkpt lat="45.3464" lon="4.58849">
        <ele>990.79998779297</ele>
        <time>2019-10-30T09:14:19.000Z</time>
      </trkpt>
      <trkpt lat="45.34637" lon="4.5885">
        <ele>990.79998779297</ele>
        <time>2019-10-30T09:14:20.000Z</time>
      </trkpt>
      <trkpt lat="45.3462" lon="4.58861">
        <ele>990.79998779297</ele>
        <time>2019-10-30T09:14:25.000Z</time>
      </trkpt>
      <trkpt lat="45.34612" lon="4.58863">
        <ele>990.79998779297</ele>
        <time>2019-10-30T09:14:27.000Z</time>
      </trkpt>
      <trkpt lat="45.34608" lon="4.58864">
        <ele>990.59997558594</ele>
        <time>2019-10-30T09:14:28.000Z</time>
      </trkpt>
      <trkpt lat="45.34603" lon="4.58863">
        <ele>990.59997558594</ele>
        <time>2019-10-30T09:14:29.000Z</time>
      </trkpt>
      <trkpt lat="45.34598" lon="4.58862">
        <ele>990.79998779297</ele>
        <time>2019-10-30T09:14:30.000Z</time>
      </trkpt>
      <trkpt lat="45.34593" lon="4.58859">
        <ele>990.59997558594</ele>
        <time>2019-10-30T09:14:31.000Z</time>
      </trkpt>
      <trkpt lat="45.34588" lon="4.58857">
        <ele>990.20001220703</ele>
        <time>2019-10-30T09:14:32.000Z</time>
      </trkpt>
      <trkpt lat="45.34584" lon="4.58854">
        <ele>990</ele>
        <time>2019-10-30T09:14:33.000Z</time>
      </trkpt>
      <trkpt lat="45.3458" lon="4.58852">
        <ele>989.59997558594</ele>
        <time>2019-10-30T09:14:34.000Z</time>
      </trkpt>
      <trkpt lat="45.34577" lon="4.58849">
        <ele>989.40002441406</ele>
        <time>2019-10-30T09:14:35.000Z</time>
      </trkpt>
      <trkpt lat="45.34574" lon="4.58846">
        <ele>989.40002441406</ele>
        <time>2019-10-30T09:14:36.000Z</time>
      </trkpt>
      <trkpt lat="45.34571" lon="4.58844">
        <ele>989.20001220703</ele>
        <time>2019-10-30T09:14:37.000Z</time>
      </trkpt>
      <trkpt lat="45.34568" lon="4.58841">
        <ele>989.20001220703</ele>
        <time>2019-10-30T09:14:38.000Z</time>
      </trkpt>
      <trkpt lat="45.34566" lon="4.5884">
        <ele>989.20001220703</ele>
        <time>2019-10-30T09:14:39.000Z</time>
      </trkpt>
      <trkpt lat="45.34564" lon="4.58838">
        <ele>989.40002441406</ele>
        <time>2019-10-30T09:14:40.000Z</time>
      </trkpt>
      <trkpt lat="45.34562" lon="4.58836">
        <ele>989.20001220703</ele>
        <time>2019-10-30T09:14:41.000Z</time>
      </trkpt>
      <trkpt lat="45.3456" lon="4.58833">
        <ele>989.20001220703</ele>
        <time>2019-10-30T09:14:42.000Z</time>
      </trkpt>
      <trkpt lat="45.34559" lon="4.58831">
        <ele>989.20001220703</ele>
        <time>2019-10-30T09:14:43.000Z</time>
      </trkpt>
      <trkpt lat="45.34557" lon="4.5883">
        <ele>989.20001220703</ele>
        <time>2019-10-30T09:14:44.000Z</time>
      </trkpt>
      <trkpt lat="45.34555" lon="4.58828">
        <ele>989.40002441406</ele>
        <time>2019-10-30T09:14:45.000Z</time>
      </trkpt>
      <trkpt lat="45.34553" lon="4.58826">
        <ele>989.59997558594</ele>
        <time>2019-10-30T09:14:46.000Z</time>
      </trkpt>
      <trkpt lat="45.34551" lon="4.58823">
        <ele>989.59997558594</ele>
        <time>2019-10-30T09:14:47.000Z</time>
      </trkpt>
      <trkpt lat="45.34547" lon="4.58819">
        <ele>989.79998779297</ele>
        <time>2019-10-30T09:14:49.000Z</time>
      </trkpt>
      <trkpt lat="45.34546" lon="4.58818">
        <ele>989.79998779297</ele>
        <time>2019-10-30T09:14:50.000Z</time>
      </trkpt>
      <trkpt lat="45.34544" lon="4.58816">
        <ele>990</ele>
        <time>2019-10-30T09:14:51.000Z</time>
      </trkpt>
      <trkpt lat="45.34543" lon="4.58814">
        <ele>990</ele>
        <time>2019-10-30T09:14:52.000Z</time>
      </trkpt>
      <trkpt lat="45.34542" lon="4.58812">
        <ele>990.20001220703</ele>
        <time>2019-10-30T09:14:53.000Z</time>
      </trkpt>
      <trkpt lat="45.34542" lon="4.58809">
        <ele>990.20001220703</ele>
        <time>2019-10-30T09:14:54.000Z</time>
      </trkpt>
      <trkpt lat="45.34542" lon="4.58807">
        <ele>990.40002441406</ele>
        <time>2019-10-30T09:14:55.000Z</time>
      </trkpt>
      <trkpt lat="45.34541" lon="4.58804">
        <ele>990.59997558594</ele>
        <time>2019-10-30T09:14:56.000Z</time>
      </trkpt>
      <trkpt lat="45.34541" lon="4.58802">
        <ele>990.59997558594</ele>
        <time>2019-10-30T09:14:57.000Z</time>
      </trkpt>
      <trkpt lat="45.3454" lon="4.588">
        <ele>991</ele>
        <time>2019-10-30T09:14:58.000Z</time>
      </trkpt>
      <trkpt lat="45.3454" lon="4.58798">
        <ele>991.40002441406</ele>
        <time>2019-10-30T09:14:59.000Z</time>
      </trkpt>
      <trkpt lat="45.34539" lon="4.58796">
        <ele>991.79998779297</ele>
        <time>2019-10-30T09:15:00.000Z</time>
      </trkpt>
      <trkpt lat="45.34538" lon="4.58793">
        <ele>991.79998779297</ele>
        <time>2019-10-30T09:15:01.000Z</time>
      </trkpt>
      <trkpt lat="45.34536" lon="4.58791">
        <ele>992</ele>
        <time>2019-10-30T09:15:02.000Z</time>
      </trkpt>
      <trkpt lat="45.34535" lon="4.58789">
        <ele>992.20001220703</ele>
        <time>2019-10-30T09:15:03.000Z</time>
      </trkpt>
      <trkpt lat="45.34533" lon="4.58787">
        <ele>992.20001220703</ele>
        <time>2019-10-30T09:15:04.000Z</time>
      </trkpt>
      <trkpt lat="45.34532" lon="4.58785">
        <ele>992.20001220703</ele>
        <time>2019-10-30T09:15:05.000Z</time>
      </trkpt>
      <trkpt lat="45.3453" lon="4.58782">
        <ele>992.59997558594</ele>
        <time>2019-10-30T09:15:06.000Z</time>
      </trkpt>
      <trkpt lat="45.34529" lon="4.5878">
        <ele>992.79998779297</ele>
        <time>2019-10-30T09:15:07.000Z</time>
      </trkpt>
      <trkpt lat="45.34526" lon="4.58779">
        <ele>993</ele>
        <time>2019-10-30T09:15:08.000Z</time>
      </trkpt>
      <trkpt lat="45.34524" lon="4.58777">
        <ele>993.40002441406</ele>
        <time>2019-10-30T09:15:09.000Z</time>
      </trkpt>
      <trkpt lat="45.34522" lon="4.58776">
        <ele>993.59997558594</ele>
        <time>2019-10-30T09:15:10.000Z</time>
      </trkpt>
      <trkpt lat="45.34519" lon="4.58774">
        <ele>993.79998779297</ele>
        <time>2019-10-30T09:15:11.000Z</time>
      </trkpt>
      <trkpt lat="45.34517" lon="4.58773">
        <ele>994.20001220703</ele>
        <time>2019-10-30T09:15:12.000Z</time>
      </trkpt>
      <trkpt lat="45.34515" lon="4.58772">
        <ele>994.59997558594</ele>
        <time>2019-10-30T09:15:13.000Z</time>
      </trkpt>
      <trkpt lat="45.34513" lon="4.58771">
        <ele>994.59997558594</ele>
        <time>2019-10-30T09:15:14.000Z</time>
      </trkpt>
      <trkpt lat="45.34511" lon="4.58771">
        <ele>994.79998779297</ele>
        <time>2019-10-30T09:15:15.000Z</time>
      </trkpt>
      <trkpt lat="45.34509" lon="4.58771">
        <ele>994.79998779297</ele>
        <time>2019-10-30T09:15:16.000Z</time>
      </trkpt>
      <trkpt lat="45.34507" lon="4.5877">
        <ele>995</ele>
        <time>2019-10-30T09:15:17.000Z</time>
      </trkpt>
      <trkpt lat="45.34505" lon="4.5877">
        <ele>995</ele>
        <time>2019-10-30T09:15:18.000Z</time>
      </trkpt>
      <trkpt lat="45.34503" lon="4.5877">
        <ele>995</ele>
        <time>2019-10-30T09:15:19.000Z</time>
      </trkpt>
      <trkpt lat="45.34501" lon="4.58769">
        <ele>995.20001220703</ele>
        <time>2019-10-30T09:15:20.000Z</time>
      </trkpt>
      <trkpt lat="45.34499" lon="4.58769">
        <ele>995.40002441406</ele>
        <time>2019-10-30T09:15:21.000Z</time>
      </trkpt>
      <trkpt lat="45.34497" lon="4.58768">
        <ele>995.59997558594</ele>
        <time>2019-10-30T09:15:22.000Z</time>
      </trkpt>
      <trkpt lat="45.34495" lon="4.58767">
        <ele>995.59997558594</ele>
        <time>2019-10-30T09:15:23.000Z</time>
      </trkpt>
      <trkpt lat="45.34493" lon="4.58766">
        <ele>995.59997558594</ele>
        <time>2019-10-30T09:15:24.000Z</time>
      </trkpt>
      <trkpt lat="45.34492" lon="4.58765">
        <ele>995.59997558594</ele>
        <time>2019-10-30T09:15:25.000Z</time>
      </trkpt>
      <trkpt lat="45.3449" lon="4.58764">
        <ele>996.40002441406</ele>
        <time>2019-10-30T09:15:26.000Z</time>
      </trkpt>
      <trkpt lat="45.34488" lon="4.58763">
        <ele>997</ele>
        <time>2019-10-30T09:15:27.000Z</time>
      </trkpt>
      <trkpt lat="45.34487" lon="4.58762">
        <ele>997.20001220703</ele>
        <time>2019-10-30T09:15:28.000Z</time>
      </trkpt>
      <trkpt lat="45.34485" lon="4.58761">
        <ele>997.40002441406</ele>
        <time>2019-10-30T09:15:29.000Z</time>
      </trkpt>
      <trkpt lat="45.34484" lon="4.58761">
        <ele>997.59997558594</ele>
        <time>2019-10-30T09:15:30.000Z</time>
      </trkpt>
      <trkpt lat="45.34482" lon="4.5876">
        <ele>997.59997558594</ele>
        <time>2019-10-30T09:15:31.000Z</time>
      </trkpt>
      <trkpt lat="45.34481" lon="4.5876">
        <ele>997.59997558594</ele>
        <time>2019-10-30T09:15:32.000Z</time>
      </trkpt>
      <trkpt lat="45.3448" lon="4.58759">
        <ele>997.79998779297</ele>
        <time>2019-10-30T09:15:33.000Z</time>
      </trkpt>
      <trkpt lat="45.34479" lon="4.58758">
        <ele>998</ele>
        <time>2019-10-30T09:15:34.000Z</time>
      </trkpt>
      <trkpt lat="45.34478" lon="4.58757">
        <ele>998</ele>
        <time>2019-10-30T09:15:35.000Z</time>
      </trkpt>
      <trkpt lat="45.34477" lon="4.58756">
        <ele>998.20001220703</ele>
        <time>2019-10-30T09:15:36.000Z</time>
      </trkpt>
      <trkpt lat="45.34476" lon="4.58755">
        <ele>998.40002441406</ele>
        <time>2019-10-30T09:15:37.000Z</time>
      </trkpt>
      <trkpt lat="45.34474" lon="4.58754">
        <ele>998.79998779297</ele>
        <time>2019-10-30T09:15:38.000Z</time>
      </trkpt>
      <trkpt lat="45.34473" lon="4.58752">
        <ele>998.59997558594</ele>
        <time>2019-10-30T09:15:39.000Z</time>
      </trkpt>
      <trkpt lat="45.34472" lon="4.58751">
        <ele>998.79998779297</ele>
        <time>2019-10-30T09:15:40.000Z</time>
      </trkpt>
      <trkpt lat="45.34472" lon="4.58749">
        <ele>998.79998779297</ele>
        <time>2019-10-30T09:15:41.000Z</time>
      </trkpt>
      <trkpt lat="45.34471" lon="4.58748">
        <ele>999</ele>
        <time>2019-10-30T09:15:42.000Z</time>
      </trkpt>
      <trkpt lat="45.3447" lon="4.58747">
        <ele>999</ele>
        <time>2019-10-30T09:15:43.000Z</time>
      </trkpt>
      <trkpt lat="45.34469" lon="4.58746">
        <ele>999.20001220703</ele>
        <time>2019-10-30T09:15:44.000Z</time>
      </trkpt>
      <trkpt lat="45.34468" lon="4.58746">
        <ele>999.20001220703</ele>
        <time>2019-10-30T09:15:45.000Z</time>
      </trkpt>
      <trkpt lat="45.34467" lon="4.58745">
        <ele>999.20001220703</ele>
        <time>2019-10-30T09:15:46.000Z</time>
      </trkpt>
      <trkpt lat="45.34466" lon="4.58744">
        <ele>999.20001220703</ele>
        <time>2019-10-30T09:15:47.000Z</time>
      </trkpt>
      <trkpt lat="45.34466" lon="4.58743">
        <ele>999.20001220703</ele>
        <time>2019-10-30T09:15:48.000Z</time>
      </trkpt>
      <trkpt lat="45.34465" lon="4.58742">
        <ele>999.40002441406</ele>
        <time>2019-10-30T09:15:49.000Z</time>
      </trkpt>
      <trkpt lat="45.34464" lon="4.58741">
        <ele>999.40002441406</ele>
        <time>2019-10-30T09:15:50.000Z</time>
      </trkpt>
      <trkpt lat="45.34463" lon="4.5874">
        <ele>999.59997558594</ele>
        <time>2019-10-30T09:15:51.000Z</time>
      </trkpt>
      <trkpt lat="45.34462" lon="4.58738">
        <ele>1000</ele>
        <time>2019-10-30T09:15:52.000Z</time>
      </trkpt>
      <trkpt lat="45.34461" lon="4.58737">
        <ele>1000</ele>
        <time>2019-10-30T09:15:53.000Z</time>
      </trkpt>
      <trkpt lat="45.3446" lon="4.58736">
        <ele>1000.200012207</ele>
        <time>2019-10-30T09:15:54.000Z</time>
      </trkpt>
      <trkpt lat="45.3446" lon="4.58735">
        <ele>1000.200012207</ele>
        <time>2019-10-30T09:15:55.000Z</time>
      </trkpt>
      <trkpt lat="45.34459" lon="4.58735">
        <ele>1000.4000244141</ele>
        <time>2019-10-30T09:15:56.000Z</time>
      </trkpt>
      <trkpt lat="45.34458" lon="4.58734">
        <ele>1000.4000244141</ele>
        <time>2019-10-30T09:15:57.000Z</time>
      </trkpt>
      <trkpt lat="45.34457" lon="4.58732">
        <ele>1000.5999755859</ele>
        <time>2019-10-30T09:15:58.000Z</time>
      </trkpt>
      <trkpt lat="45.34456" lon="4.58731">
        <ele>1000.799987793</ele>
        <time>2019-10-30T09:15:59.000Z</time>
      </trkpt>
      <trkpt lat="45.34455" lon="4.5873">
        <ele>1000.5999755859</ele>
        <time>2019-10-30T09:16:00.000Z</time>
      </trkpt>
      <trkpt lat="45.34454" lon="4.58729">
        <ele>1001.5999755859</ele>
        <time>2019-10-30T09:16:01.000Z</time>
      </trkpt>
      <trkpt lat="45.34454" lon="4.58727">
        <ele>1002.200012207</ele>
        <time>2019-10-30T09:16:02.000Z</time>
      </trkpt>
      <trkpt lat="45.34453" lon="4.58726">
        <ele>1002.5999755859</ele>
        <time>2019-10-30T09:16:03.000Z</time>
      </trkpt>
      <trkpt lat="45.34452" lon="4.58724">
        <ele>1002.799987793</ele>
        <time>2019-10-30T09:16:04.000Z</time>
      </trkpt>
      <trkpt lat="45.34452" lon="4.58723">
        <ele>1003.200012207</ele>
        <time>2019-10-30T09:16:05.000Z</time>
      </trkpt>
      <trkpt lat="45.34451" lon="4.58722">
        <ele>1003.200012207</ele>
        <time>2019-10-30T09:16:06.000Z</time>
      </trkpt>
      <trkpt lat="45.34451" lon="4.5872">
        <ele>1003.200012207</ele>
        <time>2019-10-30T09:16:07.000Z</time>
      </trkpt>
      <trkpt lat="45.3445" lon="4.58719">
        <ele>1003.4000244141</ele>
        <time>2019-10-30T09:16:08.000Z</time>
      </trkpt>
      <trkpt lat="45.3445" lon="4.58717">
        <ele>1003.4000244141</ele>
        <time>2019-10-30T09:16:09.000Z</time>
      </trkpt>
      <trkpt lat="45.34449" lon="4.58717">
        <ele>1003.200012207</ele>
        <time>2019-10-30T09:16:10.000Z</time>
      </trkpt>
      <trkpt lat="45.34449" lon="4.58715">
        <ele>1003.4000244141</ele>
        <time>2019-10-30T09:16:11.000Z</time>
      </trkpt>
      <trkpt lat="45.34448" lon="4.58714">
        <ele>1003.4000244141</ele>
        <time>2019-10-30T09:16:12.000Z</time>
      </trkpt>
      <trkpt lat="45.34448" lon="4.58713">
        <ele>1003.799987793</ele>
        <time>2019-10-30T09:16:13.000Z</time>
      </trkpt>
      <trkpt lat="45.34447" lon="4.58712">
        <ele>1004.200012207</ele>
        <time>2019-10-30T09:16:14.000Z</time>
      </trkpt>
      <trkpt lat="45.34446" lon="4.58711">
        <ele>1005.200012207</ele>
        <time>2019-10-30T09:16:15.000Z</time>
      </trkpt>
      <trkpt lat="45.34446" lon="4.58709">
        <ele>1005.5999755859</ele>
        <time>2019-10-30T09:16:16.000Z</time>
      </trkpt>
      <trkpt lat="45.34445" lon="4.58707">
        <ele>1006</ele>
        <time>2019-10-30T09:16:17.000Z</time>
      </trkpt>
      <trkpt lat="45.34445" lon="4.58706">
        <ele>1006.200012207</ele>
        <time>2019-10-30T09:16:18.000Z</time>
      </trkpt>
      <trkpt lat="45.34444" lon="4.58704">
        <ele>1006.200012207</ele>
        <time>2019-10-30T09:16:19.000Z</time>
      </trkpt>
      <trkpt lat="45.34444" lon="4.58703">
        <ele>1006.200012207</ele>
        <time>2019-10-30T09:16:20.000Z</time>
      </trkpt>
      <trkpt lat="45.34443" lon="4.58701">
        <ele>1006.200012207</ele>
        <time>2019-10-30T09:16:21.000Z</time>
      </trkpt>
      <trkpt lat="45.34443" lon="4.587">
        <ele>1006.200012207</ele>
        <time>2019-10-30T09:16:22.000Z</time>
      </trkpt>
      <trkpt lat="45.34442" lon="4.58699">
        <ele>1006.200012207</ele>
        <time>2019-10-30T09:16:23.000Z</time>
      </trkpt>
      <trkpt lat="45.34442" lon="4.58697">
        <ele>1006.4000244141</ele>
        <time>2019-10-30T09:16:24.000Z</time>
      </trkpt>
      <trkpt lat="45.34441" lon="4.58695">
        <ele>1006.5999755859</ele>
        <time>2019-10-30T09:16:25.000Z</time>
      </trkpt>
      <trkpt lat="45.3444" lon="4.58693">
        <ele>1007</ele>
        <time>2019-10-30T09:16:26.000Z</time>
      </trkpt>
      <trkpt lat="45.34439" lon="4.58691">
        <ele>1007.4000244141</ele>
        <time>2019-10-30T09:16:27.000Z</time>
      </trkpt>
      <trkpt lat="45.34438" lon="4.58689">
        <ele>1007.799987793</ele>
        <time>2019-10-30T09:16:28.000Z</time>
      </trkpt>
      <trkpt lat="45.34438" lon="4.58687">
        <ele>1008</ele>
        <time>2019-10-30T09:16:29.000Z</time>
      </trkpt>
      <trkpt lat="45.34437" lon="4.58684">
        <ele>1007.799987793</ele>
        <time>2019-10-30T09:16:30.000Z</time>
      </trkpt>
      <trkpt lat="45.34437" lon="4.58682">
        <ele>1008</ele>
        <time>2019-10-30T09:16:31.000Z</time>
      </trkpt>
      <trkpt lat="45.34436" lon="4.5868">
        <ele>1008.4000244141</ele>
        <time>2019-10-30T09:16:32.000Z</time>
      </trkpt>
      <trkpt lat="45.34435" lon="4.58678">
        <ele>1008.4000244141</ele>
        <time>2019-10-30T09:16:33.000Z</time>
      </trkpt>
      <trkpt lat="45.34435" lon="4.58676">
        <ele>1008.4000244141</ele>
        <time>2019-10-30T09:16:34.000Z</time>
      </trkpt>
      <trkpt lat="45.34434" lon="4.58673">
        <ele>1008.4000244141</ele>
        <time>2019-10-30T09:16:35.000Z</time>
      </trkpt>
      <trkpt lat="45.34434" lon="4.5867">
        <ele>1008.5999755859</ele>
        <time>2019-10-30T09:16:36.000Z</time>
      </trkpt>
      <trkpt lat="45.34434" lon="4.58667">
        <ele>1008.5999755859</ele>
        <time>2019-10-30T09:16:37.000Z</time>
      </trkpt>
      <trkpt lat="45.34434" lon="4.58664">
        <ele>1008.5999755859</ele>
        <time>2019-10-30T09:16:38.000Z</time>
      </trkpt>
      <trkpt lat="45.34434" lon="4.58662">
        <ele>1009</ele>
        <time>2019-10-30T09:16:39.000Z</time>
      </trkpt>
      <trkpt lat="45.34434" lon="4.5866">
        <ele>1009.200012207</ele>
        <time>2019-10-30T09:16:40.000Z</time>
      </trkpt>
      <trkpt lat="45.34434" lon="4.58658">
        <ele>1009.5999755859</ele>
        <time>2019-10-30T09:16:41.000Z</time>
      </trkpt>
      <trkpt lat="45.34434" lon="4.58658">
        <ele>1009.799987793</ele>
        <time>2019-10-30T09:16:42.000Z</time>
      </trkpt>
      <trkpt lat="45.34433" lon="4.58657">
        <ele>1010.4000244141</ele>
        <time>2019-10-30T09:16:43.000Z</time>
      </trkpt>
      <trkpt lat="45.34433" lon="4.58657">
        <ele>1010.5999755859</ele>
        <time>2019-10-30T09:16:44.000Z</time>
      </trkpt>
      <trkpt lat="45.34433" lon="4.58657">
        <ele>1010.799987793</ele>
        <time>2019-10-30T09:16:45.000Z</time>
      </trkpt>
      <trkpt lat="45.34433" lon="4.58657">
        <ele>1011.799987793</ele>
        <time>2019-10-30T09:16:46.000Z</time>
      </trkpt>
      <trkpt lat="45.34433" lon="4.58657">
        <ele>1012.4000244141</ele>
        <time>2019-10-30T09:16:47.000Z</time>
      </trkpt>
      <trkpt lat="45.34433" lon="4.58657">
        <ele>1012.4000244141</ele>
        <time>2019-10-30T09:16:48.000Z</time>
      </trkpt>
      <trkpt lat="45.34433" lon="4.58657">
        <ele>1012.5999755859</ele>
        <time>2019-10-30T09:16:49.000Z</time>
      </trkpt>
      <trkpt lat="45.34433" lon="4.58657">
        <ele>1012.5999755859</ele>
        <time>2019-10-30T09:16:50.000Z</time>
      </trkpt>
      <trkpt lat="45.34433" lon="4.58657">
        <ele>1012.799987793</ele>
        <time>2019-10-30T09:16:51.000Z</time>
      </trkpt>
      <trkpt lat="45.34433" lon="4.58657">
        <ele>1012.799987793</ele>
        <time>2019-10-30T09:16:52.000Z</time>
      </trkpt>
      <trkpt lat="45.34433" lon="4.58657">
        <ele>1013</ele>
        <time>2019-10-30T09:16:53.000Z</time>
      </trkpt>
      <trkpt lat="45.34433" lon="4.58657">
        <ele>1013</ele>
        <time>2019-10-30T09:16:54.000Z</time>
      </trkpt>
      <trkpt lat="45.34433" lon="4.58657">
        <ele>1013</ele>
        <time>2019-10-30T09:16:55.000Z</time>
      </trkpt>
      <trkpt lat="45.34433" lon="4.58657">
        <ele>1013.200012207</ele>
        <time>2019-10-30T09:16:56.000Z</time>
      </trkpt>
      <trkpt lat="45.34433" lon="4.58657">
        <ele>1013</ele>
        <time>2019-10-30T09:16:57.000Z</time>
      </trkpt>
      <trkpt lat="45.34433" lon="4.58657">
        <ele>1013</ele>
        <time>2019-10-30T09:16:58.000Z</time>
      </trkpt>
      <trkpt lat="45.34433" lon="4.58657">
        <ele>1012.799987793</ele>
        <time>2019-10-30T09:16:59.000Z</time>
      </trkpt>
      <trkpt lat="45.34433" lon="4.58657">
        <ele>1013</ele>
        <time>2019-10-30T09:17:00.000Z</time>
      </trkpt>
      <trkpt lat="45.34433" lon="4.58657">
        <ele>1012.799987793</ele>
        <time>2019-10-30T09:17:01.000Z</time>
      </trkpt>
      <trkpt lat="45.34433" lon="4.58657">
        <ele>1012.799987793</ele>
        <time>2019-10-30T09:17:02.000Z</time>
      </trkpt>
      <trkpt lat="45.34433" lon="4.58657">
        <ele>1013</ele>
        <time>2019-10-30T09:17:03.000Z</time>
      </trkpt>
      <trkpt lat="45.34433" lon="4.58657">
        <ele>1013</ele>
        <time>2019-10-30T09:17:04.000Z</time>
      </trkpt>
      <trkpt lat="45.34433" lon="4.58657">
        <ele>1013</ele>
        <time>2019-10-30T09:17:05.000Z</time>
      </trkpt>
      <trkpt lat="45.34433" lon="4.58657">
        <ele>1012.799987793</ele>
        <time>2019-10-30T09:17:06.000Z</time>
      </trkpt>
      <trkpt lat="45.34433" lon="4.58657">
        <ele>1013</ele>
        <time>2019-10-30T09:17:07.000Z</time>
      </trkpt>
      <trkpt lat="45.34433" lon="4.58657">
        <ele>1012.799987793</ele>
        <time>2019-10-30T09:17:08.000Z</time>
      </trkpt>
      <trkpt lat="45.34433" lon="4.58657">
        <ele>1012.799987793</ele>
        <time>2019-10-30T09:17:09.000Z</time>
      </trkpt>
      <trkpt lat="45.34433" lon="4.58657">
        <ele>1012.799987793</ele>
        <time>2019-10-30T09:17:10.000Z</time>
      </trkpt>
      <trkpt lat="45.34433" lon="4.58657">
        <ele>1012.799987793</ele>
        <time>2019-10-30T09:17:11.000Z</time>
      </trkpt>
      <trkpt lat="45.34433" lon="4.58657">
        <ele>1013</ele>
        <time>2019-10-30T09:17:12.000Z</time>
      </trkpt>
      <trkpt lat="45.34433" lon="4.58657">
        <ele>1013</ele>
        <time>2019-10-30T09:17:13.000Z</time>
      </trkpt>
      <trkpt lat="45.34433" lon="4.58656">
        <ele>1013</ele>
        <time>2019-10-30T09:17:14.000Z</time>
      </trkpt>
      <trkpt lat="45.34433" lon="4.58656">
        <ele>1013</ele>
        <time>2019-10-30T09:17:15.000Z</time>
      </trkpt>
      <trkpt lat="45.34433" lon="4.58656">
        <ele>1012.799987793</ele>
        <time>2019-10-30T09:17:16.000Z</time>
      </trkpt>
      <trkpt lat="45.34433" lon="4.58656">
        <ele>1012.799987793</ele>
        <time>2019-10-30T09:17:17.000Z</time>
      </trkpt>
      <trkpt lat="45.34433" lon="4.58656">
        <ele>1012.799987793</ele>
        <time>2019-10-30T09:17:18.000Z</time>
      </trkpt>
      <trkpt lat="45.34433" lon="4.58656">
        <ele>1012.799987793</ele>
        <time>2019-10-30T09:17:19.000Z</time>
      </trkpt>
      <trkpt lat="45.34433" lon="4.58656">
        <ele>1012.799987793</ele>
        <time>2019-10-30T09:17:20.000Z</time>
      </trkpt>
      <trkpt lat="45.34433" lon="4.58656">
        <ele>1012.799987793</ele>
        <time>2019-10-30T09:17:21.000Z</time>
      </trkpt>
      <trkpt lat="45.34432" lon="4.58656">
        <ele>1012.5999755859</ele>
        <time>2019-10-30T09:17:22.000Z</time>
      </trkpt>
      <trkpt lat="45.34432" lon="4.58656">
        <ele>1012.799987793</ele>
        <time>2019-10-30T09:17:23.000Z</time>
      </trkpt>
      <trkpt lat="45.34432" lon="4.58656">
        <ele>1012.799987793</ele>
        <time>2019-10-30T09:17:24.000Z</time>
      </trkpt>
      <trkpt lat="45.34432" lon="4.58656">
        <ele>1012.799987793</ele>
        <time>2019-10-30T09:17:25.000Z</time>
      </trkpt>
      <trkpt lat="45.34432" lon="4.58656">
        <ele>1012.799987793</ele>
        <time>2019-10-30T09:17:26.000Z</time>
      </trkpt>
      <trkpt lat="45.34432" lon="4.58656">
        <ele>1012.799987793</ele>
        <time>2019-10-30T09:17:27.000Z</time>
      </trkpt>
      <trkpt lat="45.34432" lon="4.58656">
        <ele>1012.5999755859</ele>
        <time>2019-10-30T09:17:28.000Z</time>
      </trkpt>
      <trkpt lat="45.34432" lon="4.58656">
        <ele>1012.5999755859</ele>
        <time>2019-10-30T09:17:29.000Z</time>
      </trkpt>
      <trkpt lat="45.34432" lon="4.58656">
        <ele>1012.4000244141</ele>
        <time>2019-10-30T09:17:30.000Z</time>
      </trkpt>
      <trkpt lat="45.34432" lon="4.58656">
        <ele>1012.5999755859</ele>
        <time>2019-10-30T09:17:31.000Z</time>
      </trkpt>
      <trkpt lat="45.34432" lon="4.58656">
        <ele>1012.5999755859</ele>
        <time>2019-10-30T09:17:32.000Z</time>
      </trkpt>
      <trkpt lat="45.34432" lon="4.58656">
        <ele>1012.4000244141</ele>
        <time>2019-10-30T09:17:33.000Z</time>
      </trkpt>
      <trkpt lat="45.34432" lon="4.58656">
        <ele>1012.4000244141</ele>
        <time>2019-10-30T09:17:48.000Z</time>
      </trkpt>
      <trkpt lat="45.34433" lon="4.58655">
        <ele>1012.5999755859</ele>
        <time>2019-10-30T09:18:13.000Z</time>
      </trkpt>
      <trkpt lat="45.34434" lon="4.58653">
        <ele>1012.799987793</ele>
        <time>2019-10-30T09:18:16.000Z</time>
      </trkpt>
      <trkpt lat="45.34435" lon="4.58652">
        <ele>1012.799987793</ele>
        <time>2019-10-30T09:18:17.000Z</time>
      </trkpt>
      <trkpt lat="45.34436" lon="4.5865">
        <ele>1013</ele>
        <time>2019-10-30T09:18:18.000Z</time>
      </trkpt>
      <trkpt lat="45.34437" lon="4.58649">
        <ele>1013.200012207</ele>
        <time>2019-10-30T09:18:19.000Z</time>
      </trkpt>
      <trkpt lat="45.34439" lon="4.58648">
        <ele>1013.200012207</ele>
        <time>2019-10-30T09:18:20.000Z</time>
      </trkpt>
      <trkpt lat="45.3444" lon="4.58647">
        <ele>1013.4000244141</ele>
        <time>2019-10-30T09:18:21.000Z</time>
      </trkpt>
      <trkpt lat="45.34441" lon="4.58647">
        <ele>1013.799987793</ele>
        <time>2019-10-30T09:18:22.000Z</time>
      </trkpt>
      <trkpt lat="45.34442" lon="4.58646">
        <ele>1014</ele>
        <time>2019-10-30T09:18:23.000Z</time>
      </trkpt>
      <trkpt lat="45.34443" lon="4.58645">
        <ele>1014.4000244141</ele>
        <time>2019-10-30T09:18:24.000Z</time>
      </trkpt>
      <trkpt lat="45.34444" lon="4.58645">
        <ele>1014.4000244141</ele>
        <time>2019-10-30T09:18:25.000Z</time>
      </trkpt>
      <trkpt lat="45.34446" lon="4.58644">
        <ele>1014.799987793</ele>
        <time>2019-10-30T09:18:26.000Z</time>
      </trkpt>
      <trkpt lat="45.34447" lon="4.58644">
        <ele>1015</ele>
        <time>2019-10-30T09:18:27.000Z</time>
      </trkpt>
      <trkpt lat="45.34448" lon="4.58643">
        <ele>1015.200012207</ele>
        <time>2019-10-30T09:18:28.000Z</time>
      </trkpt>
      <trkpt lat="45.3445" lon="4.58643">
        <ele>1015.4000244141</ele>
        <time>2019-10-30T09:18:29.000Z</time>
      </trkpt>
      <trkpt lat="45.34452" lon="4.58643">
        <ele>1015.5999755859</ele>
        <time>2019-10-30T09:18:30.000Z</time>
      </trkpt>
      <trkpt lat="45.34454" lon="4.58643">
        <ele>1016</ele>
        <time>2019-10-30T09:18:31.000Z</time>
      </trkpt>
      <trkpt lat="45.34456" lon="4.58643">
        <ele>1016</ele>
        <time>2019-10-30T09:18:32.000Z</time>
      </trkpt>
      <trkpt lat="45.34458" lon="4.58643">
        <ele>1016</ele>
        <time>2019-10-30T09:18:33.000Z</time>
      </trkpt>
      <trkpt lat="45.3446" lon="4.58643">
        <ele>1016.4000244141</ele>
        <time>2019-10-30T09:18:34.000Z</time>
      </trkpt>
      <trkpt lat="45.34462" lon="4.58643">
        <ele>1016.799987793</ele>
        <time>2019-10-30T09:18:35.000Z</time>
      </trkpt>
      <trkpt lat="45.34464" lon="4.58642">
        <ele>1016.799987793</ele>
        <time>2019-10-30T09:18:36.000Z</time>
      </trkpt>
      <trkpt lat="45.34465" lon="4.58642">
        <ele>1017</ele>
        <time>2019-10-30T09:18:37.000Z</time>
      </trkpt>
      <trkpt lat="45.34467" lon="4.58642">
        <ele>1017.200012207</ele>
        <time>2019-10-30T09:18:38.000Z</time>
      </trkpt>
      <trkpt lat="45.34469" lon="4.58642">
        <ele>1017.4000244141</ele>
        <time>2019-10-30T09:18:39.000Z</time>
      </trkpt>
      <trkpt lat="45.34471" lon="4.58642">
        <ele>1017.4000244141</ele>
        <time>2019-10-30T09:18:40.000Z</time>
      </trkpt>
      <trkpt lat="45.34472" lon="4.58643">
        <ele>1017.5999755859</ele>
        <time>2019-10-30T09:18:41.000Z</time>
      </trkpt>
      <trkpt lat="45.34474" lon="4.58644">
        <ele>1017.5999755859</ele>
        <time>2019-10-30T09:18:42.000Z</time>
      </trkpt>
      <trkpt lat="45.34477" lon="4.58644">
        <ele>1018</ele>
        <time>2019-10-30T09:18:44.000Z</time>
      </trkpt>
      <trkpt lat="45.34479" lon="4.58644">
        <ele>1018.200012207</ele>
        <time>2019-10-30T09:18:45.000Z</time>
      </trkpt>
      <trkpt lat="45.34481" lon="4.58644">
        <ele>1018.200012207</ele>
        <time>2019-10-30T09:18:46.000Z</time>
      </trkpt>
      <trkpt lat="45.34483" lon="4.58644">
        <ele>1018.4000244141</ele>
        <time>2019-10-30T09:18:47.000Z</time>
      </trkpt>
      <trkpt lat="45.34484" lon="4.58644">
        <ele>1018.5999755859</ele>
        <time>2019-10-30T09:18:48.000Z</time>
      </trkpt>
      <trkpt lat="45.34486" lon="4.58643">
        <ele>1018.5999755859</ele>
        <time>2019-10-30T09:18:49.000Z</time>
      </trkpt>
      <trkpt lat="45.34488" lon="4.58643">
        <ele>1018.799987793</ele>
        <time>2019-10-30T09:18:50.000Z</time>
      </trkpt>
      <trkpt lat="45.34489" lon="4.58643">
        <ele>1018.799987793</ele>
        <time>2019-10-30T09:18:51.000Z</time>
      </trkpt>
      <trkpt lat="45.34491" lon="4.58643">
        <ele>1019</ele>
        <time>2019-10-30T09:18:52.000Z</time>
      </trkpt>
      <trkpt lat="45.34492" lon="4.58643">
        <ele>1019.200012207</ele>
        <time>2019-10-30T09:18:53.000Z</time>
      </trkpt>
      <trkpt lat="45.34494" lon="4.58643">
        <ele>1019.200012207</ele>
        <time>2019-10-30T09:18:54.000Z</time>
      </trkpt>
      <trkpt lat="45.34495" lon="4.58643">
        <ele>1019.4000244141</ele>
        <time>2019-10-30T09:18:55.000Z</time>
      </trkpt>
      <trkpt lat="45.34497" lon="4.58643">
        <ele>1019.4000244141</ele>
        <time>2019-10-30T09:18:56.000Z</time>
      </trkpt>
      <trkpt lat="45.34498" lon="4.58643">
        <ele>1019.5999755859</ele>
        <time>2019-10-30T09:18:57.000Z</time>
      </trkpt>
      <trkpt lat="45.34499" lon="4.58643">
        <ele>1019.5999755859</ele>
        <time>2019-10-30T09:18:58.000Z</time>
      </trkpt>
      <trkpt lat="45.34501" lon="4.58643">
        <ele>1019.799987793</ele>
        <time>2019-10-30T09:18:59.000Z</time>
      </trkpt>
      <trkpt lat="45.34502" lon="4.58643">
        <ele>1020</ele>
        <time>2019-10-30T09:19:00.000Z</time>
      </trkpt>
      <trkpt lat="45.34504" lon="4.58642">
        <ele>1020.4000244141</ele>
        <time>2019-10-30T09:19:01.000Z</time>
      </trkpt>
      <trkpt lat="45.34505" lon="4.58642">
        <ele>1020.200012207</ele>
        <time>2019-10-30T09:19:02.000Z</time>
      </trkpt>
      <trkpt lat="45.34507" lon="4.58642">
        <ele>1020.4000244141</ele>
        <time>2019-10-30T09:19:03.000Z</time>
      </trkpt>
      <trkpt lat="45.34508" lon="4.58641">
        <ele>1020.799987793</ele>
        <time>2019-10-30T09:19:04.000Z</time>
      </trkpt>
      <trkpt lat="45.34509" lon="4.58641">
        <ele>1020.799987793</ele>
        <time>2019-10-30T09:19:05.000Z</time>
      </trkpt>
      <trkpt lat="45.34511" lon="4.5864">
        <ele>1021</ele>
        <time>2019-10-30T09:19:06.000Z</time>
      </trkpt>
      <trkpt lat="45.34512" lon="4.5864">
        <ele>1021</ele>
        <time>2019-10-30T09:19:07.000Z</time>
      </trkpt>
      <trkpt lat="45.34514" lon="4.5864">
        <ele>1021.200012207</ele>
        <time>2019-10-30T09:19:08.000Z</time>
      </trkpt>
      <trkpt lat="45.34516" lon="4.5864">
        <ele>1021.4000244141</ele>
        <time>2019-10-30T09:19:09.000Z</time>
      </trkpt>
      <trkpt lat="45.34518" lon="4.5864">
        <ele>1021.799987793</ele>
        <time>2019-10-30T09:19:10.000Z</time>
      </trkpt>
      <trkpt lat="45.34521" lon="4.5864">
        <ele>1022</ele>
        <time>2019-10-30T09:19:11.000Z</time>
      </trkpt>
      <trkpt lat="45.34523" lon="4.5864">
        <ele>1022.200012207</ele>
        <time>2019-10-30T09:19:12.000Z</time>
      </trkpt>
      <trkpt lat="45.34526" lon="4.58639">
        <ele>1022.4000244141</ele>
        <time>2019-10-30T09:19:13.000Z</time>
      </trkpt>
      <trkpt lat="45.34528" lon="4.58638">
        <ele>1022.4000244141</ele>
        <time>2019-10-30T09:19:14.000Z</time>
      </trkpt>
      <trkpt lat="45.34531" lon="4.58636">
        <ele>1022.5999755859</ele>
        <time>2019-10-30T09:19:15.000Z</time>
      </trkpt>
      <trkpt lat="45.34534" lon="4.58635">
        <ele>1022.5999755859</ele>
        <time>2019-10-30T09:19:16.000Z</time>
      </trkpt>
      <trkpt lat="45.34536" lon="4.58633">
        <ele>1022.799987793</ele>
        <time>2019-10-30T09:19:17.000Z</time>
      </trkpt>
      <trkpt lat="45.34539" lon="4.58632">
        <ele>1022.799987793</ele>
        <time>2019-10-30T09:19:18.000Z</time>
      </trkpt>
      <trkpt lat="45.34541" lon="4.58632">
        <ele>1023.200012207</ele>
        <time>2019-10-30T09:19:19.000Z</time>
      </trkpt>
      <trkpt lat="45.34543" lon="4.58631">
        <ele>1023.200012207</ele>
        <time>2019-10-30T09:19:20.000Z</time>
      </trkpt>
      <trkpt lat="45.34545" lon="4.5863">
        <ele>1023.5999755859</ele>
        <time>2019-10-30T09:19:21.000Z</time>
      </trkpt>
      <trkpt lat="45.34547" lon="4.58629">
        <ele>1023.799987793</ele>
        <time>2019-10-30T09:19:22.000Z</time>
      </trkpt>
      <trkpt lat="45.34549" lon="4.58627">
        <ele>1024</ele>
        <time>2019-10-30T09:19:23.000Z</time>
      </trkpt>
      <trkpt lat="45.34551" lon="4.58626">
        <ele>1024</ele>
        <time>2019-10-30T09:19:24.000Z</time>
      </trkpt>
      <trkpt lat="45.34553" lon="4.58625">
        <ele>1024.4000244141</ele>
        <time>2019-10-30T09:19:25.000Z</time>
      </trkpt>
      <trkpt lat="45.34555" lon="4.58623">
        <ele>1024.5999755859</ele>
        <time>2019-10-30T09:19:26.000Z</time>
      </trkpt>
      <trkpt lat="45.34556" lon="4.58622">
        <ele>1024.8000488281</ele>
        <time>2019-10-30T09:19:27.000Z</time>
      </trkpt>
      <trkpt lat="45.34557" lon="4.58621">
        <ele>1025.1999511719</ele>
        <time>2019-10-30T09:19:28.000Z</time>
      </trkpt>
      <trkpt lat="45.34559" lon="4.5862">
        <ele>1025.1999511719</ele>
        <time>2019-10-30T09:19:29.000Z</time>
      </trkpt>
      <trkpt lat="45.34566" lon="4.58615">
        <ele>1025.5999755859</ele>
        <time>2019-10-30T09:19:33.000Z</time>
      </trkpt>
      <trkpt lat="45.34577" lon="4.58601">
        <ele>1026</ele>
        <time>2019-10-30T09:19:40.000Z</time>
      </trkpt>
      <trkpt lat="45.34578" lon="4.58598">
        <ele>1025.8000488281</ele>
        <time>2019-10-30T09:19:41.000Z</time>
      </trkpt>
      <trkpt lat="45.34578" lon="4.58596">
        <ele>1026</ele>
        <time>2019-10-30T09:19:42.000Z</time>
      </trkpt>
      <trkpt lat="45.34578" lon="4.58594">
        <ele>1026</ele>
        <time>2019-10-30T09:19:43.000Z</time>
      </trkpt>
      <trkpt lat="45.34577" lon="4.58592">
        <ele>1025.8000488281</ele>
        <time>2019-10-30T09:19:44.000Z</time>
      </trkpt>
      <trkpt lat="45.34577" lon="4.58591">
        <ele>1026</ele>
        <time>2019-10-30T09:19:45.000Z</time>
      </trkpt>
      <trkpt lat="45.34576" lon="4.58589">
        <ele>1025.8000488281</ele>
        <time>2019-10-30T09:19:46.000Z</time>
      </trkpt>
      <trkpt lat="45.34575" lon="4.58587">
        <ele>1026</ele>
        <time>2019-10-30T09:19:47.000Z</time>
      </trkpt>
      <trkpt lat="45.34574" lon="4.58586">
        <ele>1025.8000488281</ele>
        <time>2019-10-30T09:19:48.000Z</time>
      </trkpt>
      <trkpt lat="45.34573" lon="4.58586">
        <ele>1025.8000488281</ele>
        <time>2019-10-30T09:19:49.000Z</time>
      </trkpt>
      <trkpt lat="45.34572" lon="4.58585">
        <ele>1025.8000488281</ele>
        <time>2019-10-30T09:19:50.000Z</time>
      </trkpt>
      <trkpt lat="45.34571" lon="4.58583">
        <ele>1025.8000488281</ele>
        <time>2019-10-30T09:19:51.000Z</time>
      </trkpt>
      <trkpt lat="45.34568" lon="4.5858">
        <ele>1025.5999755859</ele>
        <time>2019-10-30T09:19:53.000Z</time>
      </trkpt>
      <trkpt lat="45.34567" lon="4.58579">
        <ele>1025.5999755859</ele>
        <time>2019-10-30T09:19:54.000Z</time>
      </trkpt>
      <trkpt lat="45.34566" lon="4.58578">
        <ele>1025.5999755859</ele>
        <time>2019-10-30T09:19:55.000Z</time>
      </trkpt>
      <trkpt lat="45.34564" lon="4.58577">
        <ele>1025.5999755859</ele>
        <time>2019-10-30T09:19:56.000Z</time>
      </trkpt>
      <trkpt lat="45.34563" lon="4.58577">
        <ele>1025.5999755859</ele>
        <time>2019-10-30T09:19:57.000Z</time>
      </trkpt>
      <trkpt lat="45.34561" lon="4.58576">
        <ele>1025.5999755859</ele>
        <time>2019-10-30T09:19:58.000Z</time>
      </trkpt>
      <trkpt lat="45.34559" lon="4.58575">
        <ele>1025.5999755859</ele>
        <time>2019-10-30T09:19:59.000Z</time>
      </trkpt>
      <trkpt lat="45.34558" lon="4.58574">
        <ele>1025.5999755859</ele>
        <time>2019-10-30T09:20:00.000Z</time>
      </trkpt>
      <trkpt lat="45.34554" lon="4.58572">
        <ele>1025.5999755859</ele>
        <time>2019-10-30T09:20:02.000Z</time>
      </trkpt>
      <trkpt lat="45.34547" lon="4.58567">
        <ele>1025.8000488281</ele>
        <time>2019-10-30T09:20:06.000Z</time>
      </trkpt>
      <trkpt lat="45.34546" lon="4.58565">
        <ele>1025.5999755859</ele>
        <time>2019-10-30T09:20:07.000Z</time>
      </trkpt>
      <trkpt lat="45.34544" lon="4.58564">
        <ele>1025.8000488281</ele>
        <time>2019-10-30T09:20:08.000Z</time>
      </trkpt>
      <trkpt lat="45.34543" lon="4.58562">
        <ele>1025.8000488281</ele>
        <time>2019-10-30T09:20:09.000Z</time>
      </trkpt>
      <trkpt lat="45.34542" lon="4.58561">
        <ele>1025.8000488281</ele>
        <time>2019-10-30T09:20:10.000Z</time>
      </trkpt>
      <trkpt lat="45.3454" lon="4.58559">
        <ele>1025.8000488281</ele>
        <time>2019-10-30T09:20:11.000Z</time>
      </trkpt>
      <trkpt lat="45.34539" lon="4.58557">
        <ele>1025.8000488281</ele>
        <time>2019-10-30T09:20:12.000Z</time>
      </trkpt>
      <trkpt lat="45.34536" lon="4.58553">
        <ele>1025.8000488281</ele>
        <time>2019-10-30T09:20:14.000Z</time>
      </trkpt>
      <trkpt lat="45.34535" lon="4.58551">
        <ele>1026</ele>
        <time>2019-10-30T09:20:15.000Z</time>
      </trkpt>
      <trkpt lat="45.34534" lon="4.5855">
        <ele>1026</ele>
        <time>2019-10-30T09:20:16.000Z</time>
      </trkpt>
      <trkpt lat="45.34533" lon="4.58548">
        <ele>1026.1999511719</ele>
        <time>2019-10-30T09:20:17.000Z</time>
      </trkpt>
      <trkpt lat="45.34532" lon="4.58546">
        <ele>1026.1999511719</ele>
        <time>2019-10-30T09:20:18.000Z</time>
      </trkpt>
      <trkpt lat="45.34532" lon="4.58544">
        <ele>1026.1999511719</ele>
        <time>2019-10-30T09:20:19.000Z</time>
      </trkpt>
      <trkpt lat="45.3453" lon="4.5854">
        <ele>1026.4000244141</ele>
        <time>2019-10-30T09:20:21.000Z</time>
      </trkpt>
      <trkpt lat="45.34529" lon="4.58539">
        <ele>1026.4000244141</ele>
        <time>2019-10-30T09:20:22.000Z</time>
      </trkpt>
      <trkpt lat="45.34528" lon="4.58537">
        <ele>1026.5999755859</ele>
        <time>2019-10-30T09:20:23.000Z</time>
      </trkpt>
      <trkpt lat="45.34527" lon="4.58536">
        <ele>1026.5999755859</ele>
        <time>2019-10-30T09:20:24.000Z</time>
      </trkpt>
      <trkpt lat="45.34526" lon="4.58534">
        <ele>1026.4000244141</ele>
        <time>2019-10-30T09:20:25.000Z</time>
      </trkpt>
      <trkpt lat="45.34526" lon="4.58532">
        <ele>1026.5999755859</ele>
        <time>2019-10-30T09:20:26.000Z</time>
      </trkpt>
      <trkpt lat="45.34525" lon="4.5853">
        <ele>1026.8000488281</ele>
        <time>2019-10-30T09:20:27.000Z</time>
      </trkpt>
      <trkpt lat="45.34524" lon="4.58527">
        <ele>1027</ele>
        <time>2019-10-30T09:20:28.000Z</time>
      </trkpt>
      <trkpt lat="45.34524" lon="4.58525">
        <ele>1026.8000488281</ele>
        <time>2019-10-30T09:20:29.000Z</time>
      </trkpt>
      <trkpt lat="45.34523" lon="4.58523">
        <ele>1027</ele>
        <time>2019-10-30T09:20:30.000Z</time>
      </trkpt>
      <trkpt lat="45.34522" lon="4.5852">
        <ele>1027.1999511719</ele>
        <time>2019-10-30T09:20:31.000Z</time>
      </trkpt>
      <trkpt lat="45.34522" lon="4.58518">
        <ele>1027.4000244141</ele>
        <time>2019-10-30T09:20:32.000Z</time>
      </trkpt>
      <trkpt lat="45.34521" lon="4.58516">
        <ele>1027.4000244141</ele>
        <time>2019-10-30T09:20:33.000Z</time>
      </trkpt>
      <trkpt lat="45.3452" lon="4.58514">
        <ele>1027.4000244141</ele>
        <time>2019-10-30T09:20:34.000Z</time>
      </trkpt>
      <trkpt lat="45.34519" lon="4.58511">
        <ele>1027.5999755859</ele>
        <time>2019-10-30T09:20:35.000Z</time>
      </trkpt>
      <trkpt lat="45.34519" lon="4.58509">
        <ele>1027.5999755859</ele>
        <time>2019-10-30T09:20:36.000Z</time>
      </trkpt>
      <trkpt lat="45.34518" lon="4.58507">
        <ele>1027.8000488281</ele>
        <time>2019-10-30T09:20:37.000Z</time>
      </trkpt>
      <trkpt lat="45.34517" lon="4.58505">
        <ele>1028</ele>
        <time>2019-10-30T09:20:38.000Z</time>
      </trkpt>
      <trkpt lat="45.34517" lon="4.58503">
        <ele>1028</ele>
        <time>2019-10-30T09:20:39.000Z</time>
      </trkpt>
      <trkpt lat="45.34516" lon="4.58501">
        <ele>1028.1999511719</ele>
        <time>2019-10-30T09:20:40.000Z</time>
      </trkpt>
      <trkpt lat="45.34515" lon="4.58499">
        <ele>1028.4000244141</ele>
        <time>2019-10-30T09:20:41.000Z</time>
      </trkpt>
      <trkpt lat="45.34515" lon="4.58497">
        <ele>1028.4000244141</ele>
        <time>2019-10-30T09:20:42.000Z</time>
      </trkpt>
      <trkpt lat="45.34514" lon="4.58495">
        <ele>1028.5999755859</ele>
        <time>2019-10-30T09:20:43.000Z</time>
      </trkpt>
      <trkpt lat="45.34513" lon="4.58493">
        <ele>1028.8000488281</ele>
        <time>2019-10-30T09:20:44.000Z</time>
      </trkpt>
      <trkpt lat="45.34512" lon="4.58491">
        <ele>1028.8000488281</ele>
        <time>2019-10-30T09:20:45.000Z</time>
      </trkpt>
      <trkpt lat="45.34511" lon="4.58489">
        <ele>1029</ele>
        <time>2019-10-30T09:20:46.000Z</time>
      </trkpt>
      <trkpt lat="45.34511" lon="4.58487">
        <ele>1029.4000244141</ele>
        <time>2019-10-30T09:20:47.000Z</time>
      </trkpt>
      <trkpt lat="45.3451" lon="4.58485">
        <ele>1029.4000244141</ele>
        <time>2019-10-30T09:20:48.000Z</time>
      </trkpt>
      <trkpt lat="45.34509" lon="4.58482">
        <ele>1029.5999755859</ele>
        <time>2019-10-30T09:20:49.000Z</time>
      </trkpt>
      <trkpt lat="45.34508" lon="4.58479">
        <ele>1029.8000488281</ele>
        <time>2019-10-30T09:20:50.000Z</time>
      </trkpt>
      <trkpt lat="45.34508" lon="4.58477">
        <ele>1029.8000488281</ele>
        <time>2019-10-30T09:20:51.000Z</time>
      </trkpt>
      <trkpt lat="45.34507" lon="4.58474">
        <ele>1030</ele>
        <time>2019-10-30T09:20:52.000Z</time>
      </trkpt>
      <trkpt lat="45.34507" lon="4.58472">
        <ele>1030</ele>
        <time>2019-10-30T09:20:53.000Z</time>
      </trkpt>
      <trkpt lat="45.34506" lon="4.58469">
        <ele>1030.1999511719</ele>
        <time>2019-10-30T09:20:54.000Z</time>
      </trkpt>
      <trkpt lat="45.34506" lon="4.58467">
        <ele>1030.4000244141</ele>
        <time>2019-10-30T09:20:55.000Z</time>
      </trkpt>
      <trkpt lat="45.34506" lon="4.58464">
        <ele>1030.4000244141</ele>
        <time>2019-10-30T09:20:56.000Z</time>
      </trkpt>
      <trkpt lat="45.34506" lon="4.58462">
        <ele>1030.4000244141</ele>
        <time>2019-10-30T09:20:57.000Z</time>
      </trkpt>
      <trkpt lat="45.34505" lon="4.58461">
        <ele>1030.8000488281</ele>
        <time>2019-10-30T09:20:58.000Z</time>
      </trkpt>
      <trkpt lat="45.34504" lon="4.58459">
        <ele>1031</ele>
        <time>2019-10-30T09:20:59.000Z</time>
      </trkpt>
      <trkpt lat="45.34504" lon="4.58457">
        <ele>1031.4000244141</ele>
        <time>2019-10-30T09:21:00.000Z</time>
      </trkpt>
      <trkpt lat="45.34503" lon="4.58455">
        <ele>1031.4000244141</ele>
        <time>2019-10-30T09:21:01.000Z</time>
      </trkpt>
      <trkpt lat="45.34503" lon="4.58453">
        <ele>1031.8000488281</ele>
        <time>2019-10-30T09:21:02.000Z</time>
      </trkpt>
      <trkpt lat="45.34502" lon="4.58452">
        <ele>1032</ele>
        <time>2019-10-30T09:21:03.000Z</time>
      </trkpt>
      <trkpt lat="45.34502" lon="4.5845">
        <ele>1032.1999511719</ele>
        <time>2019-10-30T09:21:04.000Z</time>
      </trkpt>
      <trkpt lat="45.34502" lon="4.58448">
        <ele>1032.4000244141</ele>
        <time>2019-10-30T09:21:05.000Z</time>
      </trkpt>
      <trkpt lat="45.34502" lon="4.58447">
        <ele>1032.5999755859</ele>
        <time>2019-10-30T09:21:06.000Z</time>
      </trkpt>
      <trkpt lat="45.34502" lon="4.58446">
        <ele>1032.5999755859</ele>
        <time>2019-10-30T09:21:07.000Z</time>
      </trkpt>
      <trkpt lat="45.34501" lon="4.58445">
        <ele>1032.5999755859</ele>
        <time>2019-10-30T09:21:08.000Z</time>
      </trkpt>
      <trkpt lat="45.345" lon="4.58444">
        <ele>1033</ele>
        <time>2019-10-30T09:21:09.000Z</time>
      </trkpt>
      <trkpt lat="45.345" lon="4.58443">
        <ele>1033</ele>
        <time>2019-10-30T09:21:10.000Z</time>
      </trkpt>
      <trkpt lat="45.345" lon="4.58441">
        <ele>1033.4000244141</ele>
        <time>2019-10-30T09:21:11.000Z</time>
      </trkpt>
      <trkpt lat="45.345" lon="4.5844">
        <ele>1033.5999755859</ele>
        <time>2019-10-30T09:21:12.000Z</time>
      </trkpt>
      <trkpt lat="45.34499" lon="4.58438">
        <ele>1034</ele>
        <time>2019-10-30T09:21:13.000Z</time>
      </trkpt>
      <trkpt lat="45.34499" lon="4.58436">
        <ele>1034.1999511719</ele>
        <time>2019-10-30T09:21:14.000Z</time>
      </trkpt>
      <trkpt lat="45.34498" lon="4.58435">
        <ele>1034.5999755859</ele>
        <time>2019-10-30T09:21:15.000Z</time>
      </trkpt>
      <trkpt lat="45.34498" lon="4.58433">
        <ele>1035</ele>
        <time>2019-10-30T09:21:16.000Z</time>
      </trkpt>
      <trkpt lat="45.34497" lon="4.58432">
        <ele>1035.1999511719</ele>
        <time>2019-10-30T09:21:17.000Z</time>
      </trkpt>
      <trkpt lat="45.34497" lon="4.5843">
        <ele>1035.4000244141</ele>
        <time>2019-10-30T09:21:18.000Z</time>
      </trkpt>
      <trkpt lat="45.34496" lon="4.58429">
        <ele>1035.5999755859</ele>
        <time>2019-10-30T09:21:19.000Z</time>
      </trkpt>
      <trkpt lat="45.34496" lon="4.58428">
        <ele>1035.8000488281</ele>
        <time>2019-10-30T09:21:20.000Z</time>
      </trkpt>
      <trkpt lat="45.34495" lon="4.58427">
        <ele>1036</ele>
        <time>2019-10-30T09:21:21.000Z</time>
      </trkpt>
      <trkpt lat="45.34494" lon="4.58426">
        <ele>1036</ele>
        <time>2019-10-30T09:21:22.000Z</time>
      </trkpt>
      <trkpt lat="45.34494" lon="4.58424">
        <ele>1036.5999755859</ele>
        <time>2019-10-30T09:21:23.000Z</time>
      </trkpt>
      <trkpt lat="45.34494" lon="4.58423">
        <ele>1037.1999511719</ele>
        <time>2019-10-30T09:21:24.000Z</time>
      </trkpt>
      <trkpt lat="45.34494" lon="4.58421">
        <ele>1037.4000244141</ele>
        <time>2019-10-30T09:21:25.000Z</time>
      </trkpt>
      <trkpt lat="45.34494" lon="4.58418">
        <ele>1037.5999755859</ele>
        <time>2019-10-30T09:21:26.000Z</time>
      </trkpt>
      <trkpt lat="45.34493" lon="4.58417">
        <ele>1038</ele>
        <time>2019-10-30T09:21:27.000Z</time>
      </trkpt>
      <trkpt lat="45.34493" lon="4.58415">
        <ele>1038.1999511719</ele>
        <time>2019-10-30T09:21:28.000Z</time>
      </trkpt>
      <trkpt lat="45.34492" lon="4.58413">
        <ele>1038.5999755859</ele>
        <time>2019-10-30T09:21:29.000Z</time>
      </trkpt>
      <trkpt lat="45.34492" lon="4.58411">
        <ele>1038.5999755859</ele>
        <time>2019-10-30T09:21:30.000Z</time>
      </trkpt>
      <trkpt lat="45.34491" lon="4.5841">
        <ele>1039.1999511719</ele>
        <time>2019-10-30T09:21:31.000Z</time>
      </trkpt>
      <trkpt lat="45.34491" lon="4.58408">
        <ele>1039.5999755859</ele>
        <time>2019-10-30T09:21:32.000Z</time>
      </trkpt>
      <trkpt lat="45.3449" lon="4.58406">
        <ele>1040</ele>
        <time>2019-10-30T09:21:33.000Z</time>
      </trkpt>
      <trkpt lat="45.3449" lon="4.58404">
        <ele>1040</ele>
        <time>2019-10-30T09:21:34.000Z</time>
      </trkpt>
      <trkpt lat="45.34489" lon="4.58401">
        <ele>1040.4000244141</ele>
        <time>2019-10-30T09:21:35.000Z</time>
      </trkpt>
      <trkpt lat="45.34488" lon="4.58399">
        <ele>1040.8000488281</ele>
        <time>2019-10-30T09:21:36.000Z</time>
      </trkpt>
      <trkpt lat="45.34488" lon="4.58397">
        <ele>1041</ele>
        <time>2019-10-30T09:21:37.000Z</time>
      </trkpt>
      <trkpt lat="45.34488" lon="4.58395">
        <ele>1041.5999755859</ele>
        <time>2019-10-30T09:21:38.000Z</time>
      </trkpt>
      <trkpt lat="45.34488" lon="4.58393">
        <ele>1041.5999755859</ele>
        <time>2019-10-30T09:21:39.000Z</time>
      </trkpt>
      <trkpt lat="45.34488" lon="4.58391">
        <ele>1042.1999511719</ele>
        <time>2019-10-30T09:21:40.000Z</time>
      </trkpt>
      <trkpt lat="45.34488" lon="4.5839">
        <ele>1042.4000244141</ele>
        <time>2019-10-30T09:21:41.000Z</time>
      </trkpt>
      <trkpt lat="45.34488" lon="4.58387">
        <ele>1042.8000488281</ele>
        <time>2019-10-30T09:21:42.000Z</time>
      </trkpt>
      <trkpt lat="45.34487" lon="4.58386">
        <ele>1043</ele>
        <time>2019-10-30T09:21:43.000Z</time>
      </trkpt>
      <trkpt lat="45.34487" lon="4.58383">
        <ele>1043.1999511719</ele>
        <time>2019-10-30T09:21:44.000Z</time>
      </trkpt>
      <trkpt lat="45.34487" lon="4.58381">
        <ele>1043.8000488281</ele>
        <time>2019-10-30T09:21:45.000Z</time>
      </trkpt>
      <trkpt lat="45.34487" lon="4.58379">
        <ele>1044.4000244141</ele>
        <time>2019-10-30T09:21:46.000Z</time>
      </trkpt>
      <trkpt lat="45.34486" lon="4.58376">
        <ele>1045</ele>
        <time>2019-10-30T09:21:47.000Z</time>
      </trkpt>
      <trkpt lat="45.34487" lon="4.58374">
        <ele>1045.5999755859</ele>
        <time>2019-10-30T09:21:48.000Z</time>
      </trkpt>
      <trkpt lat="45.34487" lon="4.58372">
        <ele>1046</ele>
        <time>2019-10-30T09:21:49.000Z</time>
      </trkpt>
      <trkpt lat="45.34487" lon="4.58369">
        <ele>1046.1999511719</ele>
        <time>2019-10-30T09:21:50.000Z</time>
      </trkpt>
      <trkpt lat="45.34487" lon="4.58367">
        <ele>1046.1999511719</ele>
        <time>2019-10-30T09:21:51.000Z</time>
      </trkpt>
      <trkpt lat="45.34487" lon="4.58364">
        <ele>1046.8000488281</ele>
        <time>2019-10-30T09:21:52.000Z</time>
      </trkpt>
      <trkpt lat="45.34487" lon="4.58363">
        <ele>1047</ele>
        <time>2019-10-30T09:21:53.000Z</time>
      </trkpt>
      <trkpt lat="45.34488" lon="4.58361">
        <ele>1047.4000244141</ele>
        <time>2019-10-30T09:21:54.000Z</time>
      </trkpt>
      <trkpt lat="45.34488" lon="4.58359">
        <ele>1047.4000244141</ele>
        <time>2019-10-30T09:21:55.000Z</time>
      </trkpt>
      <trkpt lat="45.34488" lon="4.58356">
        <ele>1047.8000488281</ele>
        <time>2019-10-30T09:21:56.000Z</time>
      </trkpt>
      <trkpt lat="45.34488" lon="4.58355">
        <ele>1047.8000488281</ele>
        <time>2019-10-30T09:21:57.000Z</time>
      </trkpt>
      <trkpt lat="45.34488" lon="4.58352">
        <ele>1048</ele>
        <time>2019-10-30T09:21:58.000Z</time>
      </trkpt>
      <trkpt lat="45.34487" lon="4.58349">
        <ele>1048.4000244141</ele>
        <time>2019-10-30T09:21:59.000Z</time>
      </trkpt>
      <trkpt lat="45.34486" lon="4.58346">
        <ele>1048.4000244141</ele>
        <time>2019-10-30T09:22:00.000Z</time>
      </trkpt>
      <trkpt lat="45.34486" lon="4.58343">
        <ele>1048.8000488281</ele>
        <time>2019-10-30T09:22:01.000Z</time>
      </trkpt>
      <trkpt lat="45.34486" lon="4.58341">
        <ele>1049</ele>
        <time>2019-10-30T09:22:02.000Z</time>
      </trkpt>
      <trkpt lat="45.34486" lon="4.58338">
        <ele>1049.1999511719</ele>
        <time>2019-10-30T09:22:03.000Z</time>
      </trkpt>
      <trkpt lat="45.34487" lon="4.58336">
        <ele>1049.4000244141</ele>
        <time>2019-10-30T09:22:04.000Z</time>
      </trkpt>
      <trkpt lat="45.34487" lon="4.58333">
        <ele>1049.5999755859</ele>
        <time>2019-10-30T09:22:05.000Z</time>
      </trkpt>
      <trkpt lat="45.34487" lon="4.58331">
        <ele>1049.5999755859</ele>
        <time>2019-10-30T09:22:06.000Z</time>
      </trkpt>
      <trkpt lat="45.34487" lon="4.58328">
        <ele>1049.8000488281</ele>
        <time>2019-10-30T09:22:07.000Z</time>
      </trkpt>
      <trkpt lat="45.34489" lon="4.58325">
        <ele>1050.1999511719</ele>
        <time>2019-10-30T09:22:08.000Z</time>
      </trkpt>
      <trkpt lat="45.34489" lon="4.58323">
        <ele>1050.4000244141</ele>
        <time>2019-10-30T09:22:09.000Z</time>
      </trkpt>
      <trkpt lat="45.3449" lon="4.58321">
        <ele>1050.4000244141</ele>
        <time>2019-10-30T09:22:10.000Z</time>
      </trkpt>
      <trkpt lat="45.3449" lon="4.58319">
        <ele>1050.8000488281</ele>
        <time>2019-10-30T09:22:11.000Z</time>
      </trkpt>
      <trkpt lat="45.34491" lon="4.58317">
        <ele>1050.5999755859</ele>
        <time>2019-10-30T09:22:12.000Z</time>
      </trkpt>
      <trkpt lat="45.34491" lon="4.58314">
        <ele>1051</ele>
        <time>2019-10-30T09:22:13.000Z</time>
      </trkpt>
      <trkpt lat="45.34492" lon="4.58312">
        <ele>1051.1999511719</ele>
        <time>2019-10-30T09:22:14.000Z</time>
      </trkpt>
      <trkpt lat="45.34493" lon="4.5831">
        <ele>1051.4000244141</ele>
        <time>2019-10-30T09:22:15.000Z</time>
      </trkpt>
      <trkpt lat="45.34494" lon="4.58307">
        <ele>1051.4000244141</ele>
        <time>2019-10-30T09:22:16.000Z</time>
      </trkpt>
      <trkpt lat="45.34495" lon="4.58305">
        <ele>1051.5999755859</ele>
        <time>2019-10-30T09:22:17.000Z</time>
      </trkpt>
      <trkpt lat="45.34495" lon="4.58303">
        <ele>1051.5999755859</ele>
        <time>2019-10-30T09:22:18.000Z</time>
      </trkpt>
      <trkpt lat="45.34497" lon="4.58301">
        <ele>1051.8000488281</ele>
        <time>2019-10-30T09:22:19.000Z</time>
      </trkpt>
      <trkpt lat="45.34497" lon="4.58298">
        <ele>1052</ele>
        <time>2019-10-30T09:22:20.000Z</time>
      </trkpt>
      <trkpt lat="45.34497" lon="4.58295">
        <ele>1052.1999511719</ele>
        <time>2019-10-30T09:22:21.000Z</time>
      </trkpt>
      <trkpt lat="45.34498" lon="4.58293">
        <ele>1052.4000244141</ele>
        <time>2019-10-30T09:22:22.000Z</time>
      </trkpt>
      <trkpt lat="45.34498" lon="4.58291">
        <ele>1052.4000244141</ele>
        <time>2019-10-30T09:22:23.000Z</time>
      </trkpt>
      <trkpt lat="45.34499" lon="4.58289">
        <ele>1052.4000244141</ele>
        <time>2019-10-30T09:22:24.000Z</time>
      </trkpt>
      <trkpt lat="45.34501" lon="4.58286">
        <ele>1052.5999755859</ele>
        <time>2019-10-30T09:22:25.000Z</time>
      </trkpt>
      <trkpt lat="45.34502" lon="4.58283">
        <ele>1052.5999755859</ele>
        <time>2019-10-30T09:22:26.000Z</time>
      </trkpt>
      <trkpt lat="45.34503" lon="4.58279">
        <ele>1052.8000488281</ele>
        <time>2019-10-30T09:22:27.000Z</time>
      </trkpt>
      <trkpt lat="45.34504" lon="4.58276">
        <ele>1053</ele>
        <time>2019-10-30T09:22:28.000Z</time>
      </trkpt>
      <trkpt lat="45.34506" lon="4.58274">
        <ele>1053.1999511719</ele>
        <time>2019-10-30T09:22:29.000Z</time>
      </trkpt>
      <trkpt lat="45.34507" lon="4.58271">
        <ele>1053.4000244141</ele>
        <time>2019-10-30T09:22:30.000Z</time>
      </trkpt>
      <trkpt lat="45.34509" lon="4.58269">
        <ele>1053.4000244141</ele>
        <time>2019-10-30T09:22:31.000Z</time>
      </trkpt>
      <trkpt lat="45.3451" lon="4.58267">
        <ele>1053.5999755859</ele>
        <time>2019-10-30T09:22:32.000Z</time>
      </trkpt>
      <trkpt lat="45.34511" lon="4.58266">
        <ele>1053.5999755859</ele>
        <time>2019-10-30T09:22:33.000Z</time>
      </trkpt>
      <trkpt lat="45.34513" lon="4.58264">
        <ele>1053.8000488281</ele>
        <time>2019-10-30T09:22:34.000Z</time>
      </trkpt>
      <trkpt lat="45.34514" lon="4.58262">
        <ele>1054</ele>
        <time>2019-10-30T09:22:35.000Z</time>
      </trkpt>
      <trkpt lat="45.34516" lon="4.58259">
        <ele>1054.1999511719</ele>
        <time>2019-10-30T09:22:36.000Z</time>
      </trkpt>
      <trkpt lat="45.34517" lon="4.58257">
        <ele>1054.1999511719</ele>
        <time>2019-10-30T09:22:37.000Z</time>
      </trkpt>
      <trkpt lat="45.34519" lon="4.58254">
        <ele>1054.4000244141</ele>
        <time>2019-10-30T09:22:38.000Z</time>
      </trkpt>
      <trkpt lat="45.3452" lon="4.58252">
        <ele>1054.4000244141</ele>
        <time>2019-10-30T09:22:39.000Z</time>
      </trkpt>
      <trkpt lat="45.34523" lon="4.58247">
        <ele>1054.5999755859</ele>
        <time>2019-10-30T09:22:41.000Z</time>
      </trkpt>
      <trkpt lat="45.34524" lon="4.58245">
        <ele>1054.5999755859</ele>
        <time>2019-10-30T09:22:42.000Z</time>
      </trkpt>
      <trkpt lat="45.34525" lon="4.58243">
        <ele>1054.5999755859</ele>
        <time>2019-10-30T09:22:43.000Z</time>
      </trkpt>
      <trkpt lat="45.34528" lon="4.58239">
        <ele>1054.5999755859</ele>
        <time>2019-10-30T09:22:45.000Z</time>
      </trkpt>
      <trkpt lat="45.34528" lon="4.58236">
        <ele>1054.8000488281</ele>
        <time>2019-10-30T09:22:46.000Z</time>
      </trkpt>
      <trkpt lat="45.3453" lon="4.58234">
        <ele>1054.5999755859</ele>
        <time>2019-10-30T09:22:47.000Z</time>
      </trkpt>
      <trkpt lat="45.34531" lon="4.58232">
        <ele>1054.8000488281</ele>
        <time>2019-10-30T09:22:48.000Z</time>
      </trkpt>
      <trkpt lat="45.34533" lon="4.58227">
        <ele>1055</ele>
        <time>2019-10-30T09:22:50.000Z</time>
      </trkpt>
      <trkpt lat="45.34535" lon="4.58224">
        <ele>1055.1999511719</ele>
        <time>2019-10-30T09:22:51.000Z</time>
      </trkpt>
      <trkpt lat="45.34538" lon="4.58216">
        <ele>1055</ele>
        <time>2019-10-30T09:22:53.000Z</time>
      </trkpt>
      <trkpt lat="45.34539" lon="4.58213">
        <ele>1055.1999511719</ele>
        <time>2019-10-30T09:22:54.000Z</time>
      </trkpt>
      <trkpt lat="45.3454" lon="4.58209">
        <ele>1055.1999511719</ele>
        <time>2019-10-30T09:22:55.000Z</time>
      </trkpt>
      <trkpt lat="45.34542" lon="4.58206">
        <ele>1055.1999511719</ele>
        <time>2019-10-30T09:22:56.000Z</time>
      </trkpt>
      <trkpt lat="45.34543" lon="4.58203">
        <ele>1055.1999511719</ele>
        <time>2019-10-30T09:22:57.000Z</time>
      </trkpt>
      <trkpt lat="45.34543" lon="4.582">
        <ele>1055.1999511719</ele>
        <time>2019-10-30T09:22:58.000Z</time>
      </trkpt>
      <trkpt lat="45.34545" lon="4.58198">
        <ele>1055.1999511719</ele>
        <time>2019-10-30T09:22:59.000Z</time>
      </trkpt>
      <trkpt lat="45.34546" lon="4.58196">
        <ele>1055.1999511719</ele>
        <time>2019-10-30T09:23:00.000Z</time>
      </trkpt>
      <trkpt lat="45.34547" lon="4.58194">
        <ele>1055.1999511719</ele>
        <time>2019-10-30T09:23:01.000Z</time>
      </trkpt>
      <trkpt lat="45.34547" lon="4.58192">
        <ele>1055.4000244141</ele>
        <time>2019-10-30T09:23:02.000Z</time>
      </trkpt>
      <trkpt lat="45.34548" lon="4.5819">
        <ele>1055.1999511719</ele>
        <time>2019-10-30T09:23:03.000Z</time>
      </trkpt>
      <trkpt lat="45.34549" lon="4.58187">
        <ele>1055.4000244141</ele>
        <time>2019-10-30T09:23:04.000Z</time>
      </trkpt>
      <trkpt lat="45.34549" lon="4.58184">
        <ele>1055.4000244141</ele>
        <time>2019-10-30T09:23:05.000Z</time>
      </trkpt>
      <trkpt lat="45.3455" lon="4.58181">
        <ele>1055.4000244141</ele>
        <time>2019-10-30T09:23:06.000Z</time>
      </trkpt>
      <trkpt lat="45.34551" lon="4.58178">
        <ele>1055.5999755859</ele>
        <time>2019-10-30T09:23:07.000Z</time>
      </trkpt>
      <trkpt lat="45.34552" lon="4.58174">
        <ele>1055.5999755859</ele>
        <time>2019-10-30T09:23:08.000Z</time>
      </trkpt>
      <trkpt lat="45.34553" lon="4.58171">
        <ele>1055.5999755859</ele>
        <time>2019-10-30T09:23:09.000Z</time>
      </trkpt>
      <trkpt lat="45.34554" lon="4.58167">
        <ele>1055.8000488281</ele>
        <time>2019-10-30T09:23:10.000Z</time>
      </trkpt>
      <trkpt lat="45.34555" lon="4.58164">
        <ele>1055.8000488281</ele>
        <time>2019-10-30T09:23:11.000Z</time>
      </trkpt>
      <trkpt lat="45.34555" lon="4.5816">
        <ele>1056</ele>
        <time>2019-10-30T09:23:12.000Z</time>
      </trkpt>
      <trkpt lat="45.34556" lon="4.58156">
        <ele>1056.1999511719</ele>
        <time>2019-10-30T09:23:13.000Z</time>
      </trkpt>
      <trkpt lat="45.34556" lon="4.58152">
        <ele>1056</ele>
        <time>2019-10-30T09:23:14.000Z</time>
      </trkpt>
      <trkpt lat="45.34557" lon="4.58149">
        <ele>1056.1999511719</ele>
        <time>2019-10-30T09:23:15.000Z</time>
      </trkpt>
      <trkpt lat="45.34558" lon="4.58146">
        <ele>1056.5999755859</ele>
        <time>2019-10-30T09:23:16.000Z</time>
      </trkpt>
      <trkpt lat="45.34559" lon="4.58143">
        <ele>1056.5999755859</ele>
        <time>2019-10-30T09:23:17.000Z</time>
      </trkpt>
      <trkpt lat="45.34559" lon="4.58141">
        <ele>1056.5999755859</ele>
        <time>2019-10-30T09:23:18.000Z</time>
      </trkpt>
      <trkpt lat="45.3456" lon="4.58139">
        <ele>1056.8000488281</ele>
        <time>2019-10-30T09:23:19.000Z</time>
      </trkpt>
      <trkpt lat="45.34561" lon="4.58136">
        <ele>1056.8000488281</ele>
        <time>2019-10-30T09:23:20.000Z</time>
      </trkpt>
      <trkpt lat="45.34561" lon="4.58135">
        <ele>1057</ele>
        <time>2019-10-30T09:23:21.000Z</time>
      </trkpt>
      <trkpt lat="45.34561" lon="4.58133">
        <ele>1057</ele>
        <time>2019-10-30T09:23:22.000Z</time>
      </trkpt>
      <trkpt lat="45.34561" lon="4.58131">
        <ele>1057.1999511719</ele>
        <time>2019-10-30T09:23:23.000Z</time>
      </trkpt>
      <trkpt lat="45.3456" lon="4.58129">
        <ele>1057.4000244141</ele>
        <time>2019-10-30T09:23:24.000Z</time>
      </trkpt>
      <trkpt lat="45.34559" lon="4.58127">
        <ele>1057.4000244141</ele>
        <time>2019-10-30T09:23:25.000Z</time>
      </trkpt>
      <trkpt lat="45.34556" lon="4.58125">
        <ele>1057.5999755859</ele>
        <time>2019-10-30T09:23:26.000Z</time>
      </trkpt>
      <trkpt lat="45.34553" lon="4.58124">
        <ele>1057.5999755859</ele>
        <time>2019-10-30T09:23:27.000Z</time>
      </trkpt>
      <trkpt lat="45.3455" lon="4.58123">
        <ele>1057.5999755859</ele>
        <time>2019-10-30T09:23:28.000Z</time>
      </trkpt>
      <trkpt lat="45.34547" lon="4.58121">
        <ele>1057.5999755859</ele>
        <time>2019-10-30T09:23:29.000Z</time>
      </trkpt>
      <trkpt lat="45.34539" lon="4.58117">
        <ele>1057.5999755859</ele>
        <time>2019-10-30T09:23:31.000Z</time>
      </trkpt>
      <trkpt lat="45.34516" lon="4.5811">
        <ele>1057</ele>
        <time>2019-10-30T09:23:36.000Z</time>
      </trkpt>
      <trkpt lat="45.34512" lon="4.58109">
        <ele>1056.8000488281</ele>
        <time>2019-10-30T09:23:37.000Z</time>
      </trkpt>
      <trkpt lat="45.34503" lon="4.58106">
        <ele>1056.1999511719</ele>
        <time>2019-10-30T09:23:39.000Z</time>
      </trkpt>
      <trkpt lat="45.34499" lon="4.58105">
        <ele>1056</ele>
        <time>2019-10-30T09:23:40.000Z</time>
      </trkpt>
      <trkpt lat="45.34495" lon="4.58105">
        <ele>1055.5999755859</ele>
        <time>2019-10-30T09:23:41.000Z</time>
      </trkpt>
      <trkpt lat="45.34491" lon="4.58105">
        <ele>1055.1999511719</ele>
        <time>2019-10-30T09:23:42.000Z</time>
      </trkpt>
      <trkpt lat="45.34488" lon="4.58105">
        <ele>1055.1999511719</ele>
        <time>2019-10-30T09:23:43.000Z</time>
      </trkpt>
      <trkpt lat="45.34484" lon="4.58105">
        <ele>1055.1999511719</ele>
        <time>2019-10-30T09:23:44.000Z</time>
      </trkpt>
      <trkpt lat="45.34479" lon="4.58104">
        <ele>1055</ele>
        <time>2019-10-30T09:23:45.000Z</time>
      </trkpt>
      <trkpt lat="45.34466" lon="4.58102">
        <ele>1055</ele>
        <time>2019-10-30T09:23:48.000Z</time>
      </trkpt>
      <trkpt lat="45.34462" lon="4.58099">
        <ele>1054.8000488281</ele>
        <time>2019-10-30T09:23:49.000Z</time>
      </trkpt>
      <trkpt lat="45.34458" lon="4.58097">
        <ele>1054.8000488281</ele>
        <time>2019-10-30T09:23:50.000Z</time>
      </trkpt>
      <trkpt lat="45.34453" lon="4.58095">
        <ele>1054.4000244141</ele>
        <time>2019-10-30T09:23:51.000Z</time>
      </trkpt>
      <trkpt lat="45.34448" lon="4.58092">
        <ele>1054.4000244141</ele>
        <time>2019-10-30T09:23:52.000Z</time>
      </trkpt>
      <trkpt lat="45.34432" lon="4.58087">
        <ele>1053.8000488281</ele>
        <time>2019-10-30T09:23:55.000Z</time>
      </trkpt>
      <trkpt lat="45.34427" lon="4.58088">
        <ele>1053.5999755859</ele>
        <time>2019-10-30T09:23:56.000Z</time>
      </trkpt>
      <trkpt lat="45.34422" lon="4.58089">
        <ele>1053</ele>
        <time>2019-10-30T09:23:57.000Z</time>
      </trkpt>
      <trkpt lat="45.34417" lon="4.58089">
        <ele>1052.8000488281</ele>
        <time>2019-10-30T09:23:58.000Z</time>
      </trkpt>
      <trkpt lat="45.34412" lon="4.5809">
        <ele>1052.4000244141</ele>
        <time>2019-10-30T09:23:59.000Z</time>
      </trkpt>
      <trkpt lat="45.34407" lon="4.58091">
        <ele>1052.1999511719</ele>
        <time>2019-10-30T09:24:00.000Z</time>
      </trkpt>
      <trkpt lat="45.34403" lon="4.58092">
        <ele>1052</ele>
        <time>2019-10-30T09:24:01.000Z</time>
      </trkpt>
      <trkpt lat="45.34399" lon="4.58092">
        <ele>1052</ele>
        <time>2019-10-30T09:24:02.000Z</time>
      </trkpt>
      <trkpt lat="45.34394" lon="4.58092">
        <ele>1051.8000488281</ele>
        <time>2019-10-30T09:24:03.000Z</time>
      </trkpt>
      <trkpt lat="45.3439" lon="4.58093">
        <ele>1051.8000488281</ele>
        <time>2019-10-30T09:24:04.000Z</time>
      </trkpt>
      <trkpt lat="45.34386" lon="4.58095">
        <ele>1051.8000488281</ele>
        <time>2019-10-30T09:24:05.000Z</time>
      </trkpt>
      <trkpt lat="45.34381" lon="4.58097">
        <ele>1051.5999755859</ele>
        <time>2019-10-30T09:24:06.000Z</time>
      </trkpt>
      <trkpt lat="45.34378" lon="4.58099">
        <ele>1051.5999755859</ele>
        <time>2019-10-30T09:24:07.000Z</time>
      </trkpt>
      <trkpt lat="45.34375" lon="4.58101">
        <ele>1051.5999755859</ele>
        <time>2019-10-30T09:24:08.000Z</time>
      </trkpt>
      <trkpt lat="45.34372" lon="4.58103">
        <ele>1051.4000244141</ele>
        <time>2019-10-30T09:24:09.000Z</time>
      </trkpt>
      <trkpt lat="45.3437" lon="4.58105">
        <ele>1051.4000244141</ele>
        <time>2019-10-30T09:24:10.000Z</time>
      </trkpt>
      <trkpt lat="45.34368" lon="4.58106">
        <ele>1051.4000244141</ele>
        <time>2019-10-30T09:24:11.000Z</time>
      </trkpt>
      <trkpt lat="45.34366" lon="4.58107">
        <ele>1051.1999511719</ele>
        <time>2019-10-30T09:24:12.000Z</time>
      </trkpt>
      <trkpt lat="45.34364" lon="4.58108">
        <ele>1051.1999511719</ele>
        <time>2019-10-30T09:24:13.000Z</time>
      </trkpt>
      <trkpt lat="45.34362" lon="4.5811">
        <ele>1051.1999511719</ele>
        <time>2019-10-30T09:24:14.000Z</time>
      </trkpt>
      <trkpt lat="45.3436" lon="4.58111">
        <ele>1051.1999511719</ele>
        <time>2019-10-30T09:24:15.000Z</time>
      </trkpt>
      <trkpt lat="45.34356" lon="4.58114">
        <ele>1051.1999511719</ele>
        <time>2019-10-30T09:24:16.000Z</time>
      </trkpt>
      <trkpt lat="45.34353" lon="4.58115">
        <ele>1051.1999511719</ele>
        <time>2019-10-30T09:24:17.000Z</time>
      </trkpt>
      <trkpt lat="45.34345" lon="4.5812">
        <ele>1051</ele>
        <time>2019-10-30T09:24:20.000Z</time>
      </trkpt>
      <trkpt lat="45.34342" lon="4.58122">
        <ele>1051</ele>
        <time>2019-10-30T09:24:21.000Z</time>
      </trkpt>
      <trkpt lat="45.34339" lon="4.58123">
        <ele>1051</ele>
        <time>2019-10-30T09:24:22.000Z</time>
      </trkpt>
      <trkpt lat="45.34336" lon="4.58126">
        <ele>1051</ele>
        <time>2019-10-30T09:24:23.000Z</time>
      </trkpt>
      <trkpt lat="45.34328" lon="4.58133">
        <ele>1050.8000488281</ele>
        <time>2019-10-30T09:24:25.000Z</time>
      </trkpt>
      <trkpt lat="45.34324" lon="4.58136">
        <ele>1050.5999755859</ele>
        <time>2019-10-30T09:24:26.000Z</time>
      </trkpt>
      <trkpt lat="45.34316" lon="4.5814">
        <ele>1050.4000244141</ele>
        <time>2019-10-30T09:24:28.000Z</time>
      </trkpt>
      <trkpt lat="45.34311" lon="4.58143">
        <ele>1050.1999511719</ele>
        <time>2019-10-30T09:24:29.000Z</time>
      </trkpt>
      <trkpt lat="45.34306" lon="4.58146">
        <ele>1050</ele>
        <time>2019-10-30T09:24:30.000Z</time>
      </trkpt>
      <trkpt lat="45.34295" lon="4.58151">
        <ele>1048.5999755859</ele>
        <time>2019-10-30T09:24:32.000Z</time>
      </trkpt>
      <trkpt lat="45.34289" lon="4.58153">
        <ele>1048</ele>
        <time>2019-10-30T09:24:33.000Z</time>
      </trkpt>
      <trkpt lat="45.34278" lon="4.58159">
        <ele>1047</ele>
        <time>2019-10-30T09:24:35.000Z</time>
      </trkpt>
      <trkpt lat="45.34272" lon="4.58161">
        <ele>1047</ele>
        <time>2019-10-30T09:24:36.000Z</time>
      </trkpt>
      <trkpt lat="45.34265" lon="4.58164">
        <ele>1046.8000488281</ele>
        <time>2019-10-30T09:24:37.000Z</time>
      </trkpt>
      <trkpt lat="45.34259" lon="4.58165">
        <ele>1046.4000244141</ele>
        <time>2019-10-30T09:24:38.000Z</time>
      </trkpt>
      <trkpt lat="45.34253" lon="4.58165">
        <ele>1046.4000244141</ele>
        <time>2019-10-30T09:24:39.000Z</time>
      </trkpt>
      <trkpt lat="45.34246" lon="4.58164">
        <ele>1046</ele>
        <time>2019-10-30T09:24:40.000Z</time>
      </trkpt>
      <trkpt lat="45.34241" lon="4.58164">
        <ele>1046</ele>
        <time>2019-10-30T09:24:41.000Z</time>
      </trkpt>
      <trkpt lat="45.34235" lon="4.58164">
        <ele>1045.4000244141</ele>
        <time>2019-10-30T09:24:42.000Z</time>
      </trkpt>
      <trkpt lat="45.34228" lon="4.58164">
        <ele>1045.1999511719</ele>
        <time>2019-10-30T09:24:43.000Z</time>
      </trkpt>
      <trkpt lat="45.34222" lon="4.58164">
        <ele>1045</ele>
        <time>2019-10-30T09:24:44.000Z</time>
      </trkpt>
      <trkpt lat="45.34217" lon="4.58164">
        <ele>1044</ele>
        <time>2019-10-30T09:24:45.000Z</time>
      </trkpt>
      <trkpt lat="45.34202" lon="4.58164">
        <ele>1042</ele>
        <time>2019-10-30T09:24:48.000Z</time>
      </trkpt>
      <trkpt lat="45.34196" lon="4.58165">
        <ele>1041.8000488281</ele>
        <time>2019-10-30T09:24:49.000Z</time>
      </trkpt>
      <trkpt lat="45.3419" lon="4.58167">
        <ele>1041.4000244141</ele>
        <time>2019-10-30T09:24:50.000Z</time>
      </trkpt>
      <trkpt lat="45.34185" lon="4.5817">
        <ele>1041</ele>
        <time>2019-10-30T09:24:51.000Z</time>
      </trkpt>
      <trkpt lat="45.34156" lon="4.58187">
        <ele>1039</ele>
        <time>2019-10-30T09:24:55.000Z</time>
      </trkpt>
      <trkpt lat="45.34151" lon="4.58192">
        <ele>1038.8000488281</ele>
        <time>2019-10-30T09:24:56.000Z</time>
      </trkpt>
      <trkpt lat="45.34146" lon="4.58197">
        <ele>1038.5999755859</ele>
        <time>2019-10-30T09:24:57.000Z</time>
      </trkpt>
      <trkpt lat="45.34141" lon="4.58203">
        <ele>1038.1999511719</ele>
        <time>2019-10-30T09:24:58.000Z</time>
      </trkpt>
      <trkpt lat="45.34137" lon="4.5821">
        <ele>1037.4000244141</ele>
        <time>2019-10-30T09:24:59.000Z</time>
      </trkpt>
      <trkpt lat="45.34132" lon="4.58217">
        <ele>1036.8000488281</ele>
        <time>2019-10-30T09:25:00.000Z</time>
      </trkpt>
      <trkpt lat="45.34122" lon="4.58233">
        <ele>1036.4000244141</ele>
        <time>2019-10-30T09:25:02.000Z</time>
      </trkpt>
      <trkpt lat="45.34117" lon="4.58241">
        <ele>1036.1999511719</ele>
        <time>2019-10-30T09:25:03.000Z</time>
      </trkpt>
      <trkpt lat="45.34114" lon="4.58249">
        <ele>1035.8000488281</ele>
        <time>2019-10-30T09:25:04.000Z</time>
      </trkpt>
      <trkpt lat="45.34111" lon="4.58257">
        <ele>1035.4000244141</ele>
        <time>2019-10-30T09:25:05.000Z</time>
      </trkpt>
      <trkpt lat="45.34109" lon="4.58266">
        <ele>1035.1999511719</ele>
        <time>2019-10-30T09:25:06.000Z</time>
      </trkpt>
      <trkpt lat="45.34105" lon="4.58276">
        <ele>1035</ele>
        <time>2019-10-30T09:25:07.000Z</time>
      </trkpt>
      <trkpt lat="45.34102" lon="4.58285">
        <ele>1034.5999755859</ele>
        <time>2019-10-30T09:25:08.000Z</time>
      </trkpt>
      <trkpt lat="45.34099" lon="4.58295">
        <ele>1034</ele>
        <time>2019-10-30T09:25:09.000Z</time>
      </trkpt>
      <trkpt lat="45.34097" lon="4.58303">
        <ele>1033.4000244141</ele>
        <time>2019-10-30T09:25:10.000Z</time>
      </trkpt>
      <trkpt lat="45.34094" lon="4.58313">
        <ele>1033</ele>
        <time>2019-10-30T09:25:11.000Z</time>
      </trkpt>
      <trkpt lat="45.3409" lon="4.58331">
        <ele>1032</ele>
        <time>2019-10-30T09:25:13.000Z</time>
      </trkpt>
      <trkpt lat="45.34089" lon="4.58341">
        <ele>1031.5999755859</ele>
        <time>2019-10-30T09:25:14.000Z</time>
      </trkpt>
      <trkpt lat="45.34087" lon="4.58349">
        <ele>1031.1999511719</ele>
        <time>2019-10-30T09:25:15.000Z</time>
      </trkpt>
      <trkpt lat="45.34086" lon="4.58357">
        <ele>1031.1999511719</ele>
        <time>2019-10-30T09:25:16.000Z</time>
      </trkpt>
      <trkpt lat="45.34085" lon="4.58363">
        <ele>1030.4000244141</ele>
        <time>2019-10-30T09:25:17.000Z</time>
      </trkpt>
      <trkpt lat="45.34086" lon="4.58369">
        <ele>1030</ele>
        <time>2019-10-30T09:25:18.000Z</time>
      </trkpt>
      <trkpt lat="45.34087" lon="4.58373">
        <ele>1029.8000488281</ele>
        <time>2019-10-30T09:25:19.000Z</time>
      </trkpt>
      <trkpt lat="45.34088" lon="4.58378">
        <ele>1029.4000244141</ele>
        <time>2019-10-30T09:25:20.000Z</time>
      </trkpt>
      <trkpt lat="45.3409" lon="4.58382">
        <ele>1029.4000244141</ele>
        <time>2019-10-30T09:25:21.000Z</time>
      </trkpt>
      <trkpt lat="45.34092" lon="4.58385">
        <ele>1029</ele>
        <time>2019-10-30T09:25:22.000Z</time>
      </trkpt>
      <trkpt lat="45.34094" lon="4.58389">
        <ele>1028.8000488281</ele>
        <time>2019-10-30T09:25:23.000Z</time>
      </trkpt>
      <trkpt lat="45.34097" lon="4.58393">
        <ele>1028.5999755859</ele>
        <time>2019-10-30T09:25:24.000Z</time>
      </trkpt>
      <trkpt lat="45.341" lon="4.58398">
        <ele>1028.4000244141</ele>
        <time>2019-10-30T09:25:25.000Z</time>
      </trkpt>
      <trkpt lat="45.34104" lon="4.58403">
        <ele>1027.8000488281</ele>
        <time>2019-10-30T09:25:26.000Z</time>
      </trkpt>
      <trkpt lat="45.34109" lon="4.5841">
        <ele>1027.8000488281</ele>
        <time>2019-10-30T09:25:27.000Z</time>
      </trkpt>
      <trkpt lat="45.34113" lon="4.58417">
        <ele>1027.5999755859</ele>
        <time>2019-10-30T09:25:28.000Z</time>
      </trkpt>
      <trkpt lat="45.34116" lon="4.58424">
        <ele>1027.4000244141</ele>
        <time>2019-10-30T09:25:29.000Z</time>
      </trkpt>
      <trkpt lat="45.34118" lon="4.58432">
        <ele>1027.1999511719</ele>
        <time>2019-10-30T09:25:30.000Z</time>
      </trkpt>
      <trkpt lat="45.34118" lon="4.58441">
        <ele>1026.5999755859</ele>
        <time>2019-10-30T09:25:31.000Z</time>
      </trkpt>
      <trkpt lat="45.34118" lon="4.58451">
        <ele>1026</ele>
        <time>2019-10-30T09:25:32.000Z</time>
      </trkpt>
      <trkpt lat="45.34117" lon="4.58461">
        <ele>1025.1999511719</ele>
        <time>2019-10-30T09:25:33.000Z</time>
      </trkpt>
      <trkpt lat="45.34117" lon="4.5847">
        <ele>1024.1999511719</ele>
        <time>2019-10-30T09:25:34.000Z</time>
      </trkpt>
      <trkpt lat="45.34116" lon="4.5848">
        <ele>1022.4000244141</ele>
        <time>2019-10-30T09:25:35.000Z</time>
      </trkpt>
      <trkpt lat="45.34116" lon="4.5849">
        <ele>1021.200012207</ele>
        <time>2019-10-30T09:25:36.000Z</time>
      </trkpt>
      <trkpt lat="45.34115" lon="4.5851">
        <ele>1019.799987793</ele>
        <time>2019-10-30T09:25:38.000Z</time>
      </trkpt>
      <trkpt lat="45.34115" lon="4.5852">
        <ele>1019.200012207</ele>
        <time>2019-10-30T09:25:39.000Z</time>
      </trkpt>
      <trkpt lat="45.34115" lon="4.58539">
        <ele>1017.5999755859</ele>
        <time>2019-10-30T09:25:41.000Z</time>
      </trkpt>
      <trkpt lat="45.34115" lon="4.58549">
        <ele>1017</ele>
        <time>2019-10-30T09:25:42.000Z</time>
      </trkpt>
      <trkpt lat="45.34115" lon="4.58559">
        <ele>1016.4000244141</ele>
        <time>2019-10-30T09:25:43.000Z</time>
      </trkpt>
      <trkpt lat="45.34114" lon="4.58569">
        <ele>1016.200012207</ele>
        <time>2019-10-30T09:25:44.000Z</time>
      </trkpt>
      <trkpt lat="45.34112" lon="4.58579">
        <ele>1015.5999755859</ele>
        <time>2019-10-30T09:25:45.000Z</time>
      </trkpt>
      <trkpt lat="45.3411" lon="4.58589">
        <ele>1015.200012207</ele>
        <time>2019-10-30T09:25:46.000Z</time>
      </trkpt>
      <trkpt lat="45.34107" lon="4.58597">
        <ele>1015.200012207</ele>
        <time>2019-10-30T09:25:47.000Z</time>
      </trkpt>
      <trkpt lat="45.34104" lon="4.58603">
        <ele>1014.799987793</ele>
        <time>2019-10-30T09:25:48.000Z</time>
      </trkpt>
      <trkpt lat="45.34101" lon="4.58607">
        <ele>1014.4000244141</ele>
        <time>2019-10-30T09:25:49.000Z</time>
      </trkpt>
      <trkpt lat="45.34099" lon="4.58611">
        <ele>1014.4000244141</ele>
        <time>2019-10-30T09:25:50.000Z</time>
      </trkpt>
      <trkpt lat="45.34096" lon="4.58615">
        <ele>1014.4000244141</ele>
        <time>2019-10-30T09:25:51.000Z</time>
      </trkpt>
      <trkpt lat="45.34094" lon="4.58617">
        <ele>1014.4000244141</ele>
        <time>2019-10-30T09:25:52.000Z</time>
      </trkpt>
      <trkpt lat="45.34093" lon="4.58619">
        <ele>1014.4000244141</ele>
        <time>2019-10-30T09:25:53.000Z</time>
      </trkpt>
      <trkpt lat="45.34092" lon="4.58621">
        <ele>1014.4000244141</ele>
        <time>2019-10-30T09:25:54.000Z</time>
      </trkpt>
      <trkpt lat="45.34091" lon="4.58622">
        <ele>1014.4000244141</ele>
        <time>2019-10-30T09:25:55.000Z</time>
      </trkpt>
      <trkpt lat="45.3409" lon="4.58624">
        <ele>1014.4000244141</ele>
        <time>2019-10-30T09:25:56.000Z</time>
      </trkpt>
      <trkpt lat="45.34089" lon="4.58626">
        <ele>1014.4000244141</ele>
        <time>2019-10-30T09:25:57.000Z</time>
      </trkpt>
      <trkpt lat="45.34088" lon="4.58628">
        <ele>1014.200012207</ele>
        <time>2019-10-30T09:25:58.000Z</time>
      </trkpt>
      <trkpt lat="45.34087" lon="4.5863">
        <ele>1014.799987793</ele>
        <time>2019-10-30T09:25:59.000Z</time>
      </trkpt>
      <trkpt lat="45.34086" lon="4.58631">
        <ele>1015</ele>
        <time>2019-10-30T09:26:00.000Z</time>
      </trkpt>
      <trkpt lat="45.34085" lon="4.58633">
        <ele>1015.4000244141</ele>
        <time>2019-10-30T09:26:01.000Z</time>
      </trkpt>
      <trkpt lat="45.34084" lon="4.58635">
        <ele>1015.5999755859</ele>
        <time>2019-10-30T09:26:02.000Z</time>
      </trkpt>
      <trkpt lat="45.34082" lon="4.58637">
        <ele>1015.799987793</ele>
        <time>2019-10-30T09:26:03.000Z</time>
      </trkpt>
      <trkpt lat="45.34081" lon="4.58638">
        <ele>1016</ele>
        <time>2019-10-30T09:26:04.000Z</time>
      </trkpt>
      <trkpt lat="45.3408" lon="4.5864">
        <ele>1016.200012207</ele>
        <time>2019-10-30T09:26:05.000Z</time>
      </trkpt>
      <trkpt lat="45.34079" lon="4.58642">
        <ele>1016.200012207</ele>
        <time>2019-10-30T09:26:06.000Z</time>
      </trkpt>
      <trkpt lat="45.34078" lon="4.58644">
        <ele>1016.200012207</ele>
        <time>2019-10-30T09:26:07.000Z</time>
      </trkpt>
      <trkpt lat="45.34076" lon="4.58646">
        <ele>1016.4000244141</ele>
        <time>2019-10-30T09:26:08.000Z</time>
      </trkpt>
      <trkpt lat="45.34075" lon="4.58648">
        <ele>1016.200012207</ele>
        <time>2019-10-30T09:26:09.000Z</time>
      </trkpt>
      <trkpt lat="45.34074" lon="4.5865">
        <ele>1016.4000244141</ele>
        <time>2019-10-30T09:26:10.000Z</time>
      </trkpt>
      <trkpt lat="45.34072" lon="4.58652">
        <ele>1016.799987793</ele>
        <time>2019-10-30T09:26:11.000Z</time>
      </trkpt>
      <trkpt lat="45.34072" lon="4.58652">
        <ele>1017</ele>
        <time>2019-10-30T09:26:12.000Z</time>
      </trkpt>
      <trkpt lat="45.34071" lon="4.58654">
        <ele>1017</ele>
        <time>2019-10-30T09:26:13.000Z</time>
      </trkpt>
      <trkpt lat="45.34069" lon="4.58656">
        <ele>1017.200012207</ele>
        <time>2019-10-30T09:26:14.000Z</time>
      </trkpt>
      <trkpt lat="45.34067" lon="4.58659">
        <ele>1017.200012207</ele>
        <time>2019-10-30T09:26:15.000Z</time>
      </trkpt>
      <trkpt lat="45.34065" lon="4.58661">
        <ele>1017.200012207</ele>
        <time>2019-10-30T09:26:16.000Z</time>
      </trkpt>
      <trkpt lat="45.34063" lon="4.58663">
        <ele>1017.5999755859</ele>
        <time>2019-10-30T09:26:17.000Z</time>
      </trkpt>
      <trkpt lat="45.34062" lon="4.58666">
        <ele>1018</ele>
        <time>2019-10-30T09:26:18.000Z</time>
      </trkpt>
      <trkpt lat="45.3406" lon="4.58668">
        <ele>1018.200012207</ele>
        <time>2019-10-30T09:26:19.000Z</time>
      </trkpt>
      <trkpt lat="45.34059" lon="4.5867">
        <ele>1018.200012207</ele>
        <time>2019-10-30T09:26:20.000Z</time>
      </trkpt>
      <trkpt lat="45.34057" lon="4.58672">
        <ele>1018.200012207</ele>
        <time>2019-10-30T09:26:21.000Z</time>
      </trkpt>
      <trkpt lat="45.34054" lon="4.58677">
        <ele>1018.5999755859</ele>
        <time>2019-10-30T09:26:23.000Z</time>
      </trkpt>
      <trkpt lat="45.34053" lon="4.58679">
        <ele>1018.5999755859</ele>
        <time>2019-10-30T09:26:24.000Z</time>
      </trkpt>
      <trkpt lat="45.34051" lon="4.5868">
        <ele>1018.799987793</ele>
        <time>2019-10-30T09:26:25.000Z</time>
      </trkpt>
      <trkpt lat="45.3405" lon="4.58682">
        <ele>1018.799987793</ele>
        <time>2019-10-30T09:26:26.000Z</time>
      </trkpt>
      <trkpt lat="45.34048" lon="4.58683">
        <ele>1019</ele>
        <time>2019-10-30T09:26:27.000Z</time>
      </trkpt>
      <trkpt lat="45.34047" lon="4.58684">
        <ele>1018.799987793</ele>
        <time>2019-10-30T09:26:28.000Z</time>
      </trkpt>
      <trkpt lat="45.34045" lon="4.58686">
        <ele>1019</ele>
        <time>2019-10-30T09:26:29.000Z</time>
      </trkpt>
      <trkpt lat="45.34044" lon="4.58687">
        <ele>1019.200012207</ele>
        <time>2019-10-30T09:26:30.000Z</time>
      </trkpt>
      <trkpt lat="45.34043" lon="4.58689">
        <ele>1019.4000244141</ele>
        <time>2019-10-30T09:26:31.000Z</time>
      </trkpt>
      <trkpt lat="45.34041" lon="4.58692">
        <ele>1019.5999755859</ele>
        <time>2019-10-30T09:26:32.000Z</time>
      </trkpt>
      <trkpt lat="45.34039" lon="4.58693">
        <ele>1020</ele>
        <time>2019-10-30T09:26:33.000Z</time>
      </trkpt>
      <trkpt lat="45.34037" lon="4.58694">
        <ele>1020.200012207</ele>
        <time>2019-10-30T09:26:34.000Z</time>
      </trkpt>
      <trkpt lat="45.34035" lon="4.58696">
        <ele>1020.4000244141</ele>
        <time>2019-10-30T09:26:35.000Z</time>
      </trkpt>
      <trkpt lat="45.34033" lon="4.58698">
        <ele>1020.5999755859</ele>
        <time>2019-10-30T09:26:36.000Z</time>
      </trkpt>
      <trkpt lat="45.34031" lon="4.587">
        <ele>1020.799987793</ele>
        <time>2019-10-30T09:26:37.000Z</time>
      </trkpt>
      <trkpt lat="45.34029" lon="4.58704">
        <ele>1020.799987793</ele>
        <time>2019-10-30T09:26:38.000Z</time>
      </trkpt>
      <trkpt lat="45.34027" lon="4.58707">
        <ele>1021</ele>
        <time>2019-10-30T09:26:39.000Z</time>
      </trkpt>
      <trkpt lat="45.34025" lon="4.5871">
        <ele>1021.200012207</ele>
        <time>2019-10-30T09:26:40.000Z</time>
      </trkpt>
      <trkpt lat="45.34022" lon="4.58714">
        <ele>1021.200012207</ele>
        <time>2019-10-30T09:26:41.000Z</time>
      </trkpt>
      <trkpt lat="45.34019" lon="4.58717">
        <ele>1021.200012207</ele>
        <time>2019-10-30T09:26:42.000Z</time>
      </trkpt>
      <trkpt lat="45.34018" lon="4.58718">
        <ele>1021.200012207</ele>
        <time>2019-10-30T09:26:43.000Z</time>
      </trkpt>
      <trkpt lat="45.34015" lon="4.58722">
        <ele>1021.200012207</ele>
        <time>2019-10-30T09:26:44.000Z</time>
      </trkpt>
      <trkpt lat="45.34013" lon="4.58726">
        <ele>1021.4000244141</ele>
        <time>2019-10-30T09:26:45.000Z</time>
      </trkpt>
      <trkpt lat="45.3401" lon="4.58729">
        <ele>1021.4000244141</ele>
        <time>2019-10-30T09:26:46.000Z</time>
      </trkpt>
      <trkpt lat="45.34008" lon="4.58732">
        <ele>1021.4000244141</ele>
        <time>2019-10-30T09:26:47.000Z</time>
      </trkpt>
      <trkpt lat="45.34006" lon="4.58736">
        <ele>1021.4000244141</ele>
        <time>2019-10-30T09:26:48.000Z</time>
      </trkpt>
      <trkpt lat="45.34" lon="4.58742">
        <ele>1021.4000244141</ele>
        <time>2019-10-30T09:26:51.000Z</time>
      </trkpt>
      <trkpt lat="45.33997" lon="4.58745">
        <ele>1021.5999755859</ele>
        <time>2019-10-30T09:26:52.000Z</time>
      </trkpt>
      <trkpt lat="45.33995" lon="4.58747">
        <ele>1021.4000244141</ele>
        <time>2019-10-30T09:26:53.000Z</time>
      </trkpt>
      <trkpt lat="45.33993" lon="4.58749">
        <ele>1021.5999755859</ele>
        <time>2019-10-30T09:26:54.000Z</time>
      </trkpt>
      <trkpt lat="45.33989" lon="4.58752">
        <ele>1021.4000244141</ele>
        <time>2019-10-30T09:26:55.000Z</time>
      </trkpt>
      <trkpt lat="45.33985" lon="4.58755">
        <ele>1021.5999755859</ele>
        <time>2019-10-30T09:26:57.000Z</time>
      </trkpt>
      <trkpt lat="45.33983" lon="4.58755">
        <ele>1021.5999755859</ele>
        <time>2019-10-30T09:26:58.000Z</time>
      </trkpt>
      <trkpt lat="45.33981" lon="4.58757">
        <ele>1021.4000244141</ele>
        <time>2019-10-30T09:26:59.000Z</time>
      </trkpt>
      <trkpt lat="45.33978" lon="4.58758">
        <ele>1021.5999755859</ele>
        <time>2019-10-30T09:27:00.000Z</time>
      </trkpt>
      <trkpt lat="45.33969" lon="4.58762">
        <ele>1021.5999755859</ele>
        <time>2019-10-30T09:27:03.000Z</time>
      </trkpt>
      <trkpt lat="45.33964" lon="4.58765">
        <ele>1021.5999755859</ele>
        <time>2019-10-30T09:27:05.000Z</time>
      </trkpt>
      <trkpt lat="45.33961" lon="4.58766">
        <ele>1021.5999755859</ele>
        <time>2019-10-30T09:27:06.000Z</time>
      </trkpt>
      <trkpt lat="45.33959" lon="4.58768">
        <ele>1021.5999755859</ele>
        <time>2019-10-30T09:27:07.000Z</time>
      </trkpt>
      <trkpt lat="45.3395" lon="4.58771">
        <ele>1021.799987793</ele>
        <time>2019-10-30T09:27:09.000Z</time>
      </trkpt>
      <trkpt lat="45.33943" lon="4.58773">
        <ele>1021.799987793</ele>
        <time>2019-10-30T09:27:11.000Z</time>
      </trkpt>
      <trkpt lat="45.33939" lon="4.58775">
        <ele>1021.799987793</ele>
        <time>2019-10-30T09:27:12.000Z</time>
      </trkpt>
      <trkpt lat="45.3393" lon="4.58776">
        <ele>1021.799987793</ele>
        <time>2019-10-30T09:27:14.000Z</time>
      </trkpt>
      <trkpt lat="45.33925" lon="4.58776">
        <ele>1021.799987793</ele>
        <time>2019-10-30T09:27:15.000Z</time>
      </trkpt>
      <trkpt lat="45.33921" lon="4.58775">
        <ele>1022</ele>
        <time>2019-10-30T09:27:16.000Z</time>
      </trkpt>
      <trkpt lat="45.33915" lon="4.58774">
        <ele>1021.799987793</ele>
        <time>2019-10-30T09:27:17.000Z</time>
      </trkpt>
      <trkpt lat="45.3391" lon="4.58773">
        <ele>1022</ele>
        <time>2019-10-30T09:27:18.000Z</time>
      </trkpt>
      <trkpt lat="45.33906" lon="4.58772">
        <ele>1021.799987793</ele>
        <time>2019-10-30T09:27:19.000Z</time>
      </trkpt>
      <trkpt lat="45.33901" lon="4.58771">
        <ele>1021.799987793</ele>
        <time>2019-10-30T09:27:20.000Z</time>
      </trkpt>
      <trkpt lat="45.33889" lon="4.58766">
        <ele>1021.4000244141</ele>
        <time>2019-10-30T09:27:22.000Z</time>
      </trkpt>
      <trkpt lat="45.33883" lon="4.58764">
        <ele>1021.200012207</ele>
        <time>2019-10-30T09:27:23.000Z</time>
      </trkpt>
      <trkpt lat="45.3387" lon="4.58758">
        <ele>1020.5999755859</ele>
        <time>2019-10-30T09:27:25.000Z</time>
      </trkpt>
      <trkpt lat="45.33864" lon="4.58754">
        <ele>1020.4000244141</ele>
        <time>2019-10-30T09:27:26.000Z</time>
      </trkpt>
      <trkpt lat="45.33859" lon="4.58748">
        <ele>1020.200012207</ele>
        <time>2019-10-30T09:27:27.000Z</time>
      </trkpt>
      <trkpt lat="45.33853" lon="4.58742">
        <ele>1020</ele>
        <time>2019-10-30T09:27:28.000Z</time>
      </trkpt>
      <trkpt lat="45.33847" lon="4.58735">
        <ele>1019</ele>
        <time>2019-10-30T09:27:29.000Z</time>
      </trkpt>
      <trkpt lat="45.33842" lon="4.58726">
        <ele>1018.5999755859</ele>
        <time>2019-10-30T09:27:30.000Z</time>
      </trkpt>
      <trkpt lat="45.33837" lon="4.58718">
        <ele>1018.200012207</ele>
        <time>2019-10-30T09:27:31.000Z</time>
      </trkpt>
      <trkpt lat="45.33833" lon="4.5871">
        <ele>1017.5999755859</ele>
        <time>2019-10-30T09:27:32.000Z</time>
      </trkpt>
      <trkpt lat="45.33828" lon="4.58704">
        <ele>1016.5999755859</ele>
        <time>2019-10-30T09:27:33.000Z</time>
      </trkpt>
      <trkpt lat="45.33823" lon="4.58696">
        <ele>1016</ele>
        <time>2019-10-30T09:27:34.000Z</time>
      </trkpt>
      <trkpt lat="45.33818" lon="4.58689">
        <ele>1015</ele>
        <time>2019-10-30T09:27:35.000Z</time>
      </trkpt>
      <trkpt lat="45.33812" lon="4.58683">
        <ele>1014.4000244141</ele>
        <time>2019-10-30T09:27:36.000Z</time>
      </trkpt>
      <trkpt lat="45.33805" lon="4.58678">
        <ele>1014.4000244141</ele>
        <time>2019-10-30T09:27:37.000Z</time>
      </trkpt>
      <trkpt lat="45.33797" lon="4.58673">
        <ele>1013.5999755859</ele>
        <time>2019-10-30T09:27:38.000Z</time>
      </trkpt>
      <trkpt lat="45.33789" lon="4.58668">
        <ele>1012.799987793</ele>
        <time>2019-10-30T09:27:39.000Z</time>
      </trkpt>
      <trkpt lat="45.3378" lon="4.58665">
        <ele>1012.4000244141</ele>
        <time>2019-10-30T09:27:40.000Z</time>
      </trkpt>
      <trkpt lat="45.33772" lon="4.5866">
        <ele>1011.799987793</ele>
        <time>2019-10-30T09:27:41.000Z</time>
      </trkpt>
      <trkpt lat="45.33762" lon="4.58656">
        <ele>1011.4000244141</ele>
        <time>2019-10-30T09:27:42.000Z</time>
      </trkpt>
      <trkpt lat="45.33752" lon="4.58651">
        <ele>1010.5999755859</ele>
        <time>2019-10-30T09:27:43.000Z</time>
      </trkpt>
      <trkpt lat="45.33742" lon="4.58645">
        <ele>1008.799987793</ele>
        <time>2019-10-30T09:27:44.000Z</time>
      </trkpt>
      <trkpt lat="45.33732" lon="4.58639">
        <ele>1007.799987793</ele>
        <time>2019-10-30T09:27:45.000Z</time>
      </trkpt>
      <trkpt lat="45.33724" lon="4.58633">
        <ele>1007.200012207</ele>
        <time>2019-10-30T09:27:46.000Z</time>
      </trkpt>
      <trkpt lat="45.33716" lon="4.58626">
        <ele>1005.799987793</ele>
        <time>2019-10-30T09:27:47.000Z</time>
      </trkpt>
      <trkpt lat="45.33709" lon="4.58616">
        <ele>1004.5999755859</ele>
        <time>2019-10-30T09:27:48.000Z</time>
      </trkpt>
      <trkpt lat="45.33704" lon="4.58607">
        <ele>1003.799987793</ele>
        <time>2019-10-30T09:27:49.000Z</time>
      </trkpt>
      <trkpt lat="45.33699" lon="4.586">
        <ele>1002.5999755859</ele>
        <time>2019-10-30T09:27:50.000Z</time>
      </trkpt>
      <trkpt lat="45.33695" lon="4.58593">
        <ele>1002.200012207</ele>
        <time>2019-10-30T09:27:51.000Z</time>
      </trkpt>
      <trkpt lat="45.33692" lon="4.58588">
        <ele>1002</ele>
        <time>2019-10-30T09:27:52.000Z</time>
      </trkpt>
      <trkpt lat="45.33689" lon="4.58583">
        <ele>1001.799987793</ele>
        <time>2019-10-30T09:27:53.000Z</time>
      </trkpt>
      <trkpt lat="45.33686" lon="4.58579">
        <ele>1001.5999755859</ele>
        <time>2019-10-30T09:27:54.000Z</time>
      </trkpt>
      <trkpt lat="45.33685" lon="4.58576">
        <ele>1001.5999755859</ele>
        <time>2019-10-30T09:27:55.000Z</time>
      </trkpt>
      <trkpt lat="45.33683" lon="4.58572">
        <ele>1001.5999755859</ele>
        <time>2019-10-30T09:27:56.000Z</time>
      </trkpt>
      <trkpt lat="45.33682" lon="4.58569">
        <ele>1001.5999755859</ele>
        <time>2019-10-30T09:27:57.000Z</time>
      </trkpt>
      <trkpt lat="45.33681" lon="4.58566">
        <ele>1001.799987793</ele>
        <time>2019-10-30T09:27:58.000Z</time>
      </trkpt>
      <trkpt lat="45.33681" lon="4.58563">
        <ele>1001.5999755859</ele>
        <time>2019-10-30T09:27:59.000Z</time>
      </trkpt>
      <trkpt lat="45.3368" lon="4.5856">
        <ele>1002.4000244141</ele>
        <time>2019-10-30T09:28:00.000Z</time>
      </trkpt>
      <trkpt lat="45.3368" lon="4.58556">
        <ele>1002.799987793</ele>
        <time>2019-10-30T09:28:01.000Z</time>
      </trkpt>
      <trkpt lat="45.33679" lon="4.58553">
        <ele>1003.799987793</ele>
        <time>2019-10-30T09:28:02.000Z</time>
      </trkpt>
      <trkpt lat="45.33678" lon="4.5855">
        <ele>1003.799987793</ele>
        <time>2019-10-30T09:28:03.000Z</time>
      </trkpt>
      <trkpt lat="45.33678" lon="4.58548">
        <ele>1004.200012207</ele>
        <time>2019-10-30T09:28:04.000Z</time>
      </trkpt>
      <trkpt lat="45.33677" lon="4.58546">
        <ele>1004.5999755859</ele>
        <time>2019-10-30T09:28:05.000Z</time>
      </trkpt>
      <trkpt lat="45.33677" lon="4.58542">
        <ele>1004.799987793</ele>
        <time>2019-10-30T09:28:06.000Z</time>
      </trkpt>
      <trkpt lat="45.33677" lon="4.58539">
        <ele>1005.200012207</ele>
        <time>2019-10-30T09:28:07.000Z</time>
      </trkpt>
      <trkpt lat="45.33677" lon="4.58536">
        <ele>1005.4000244141</ele>
        <time>2019-10-30T09:28:08.000Z</time>
      </trkpt>
      <trkpt lat="45.33676" lon="4.58532">
        <ele>1005.5999755859</ele>
        <time>2019-10-30T09:28:09.000Z</time>
      </trkpt>
      <trkpt lat="45.33676" lon="4.58528">
        <ele>1005.799987793</ele>
        <time>2019-10-30T09:28:10.000Z</time>
      </trkpt>
      <trkpt lat="45.33676" lon="4.58524">
        <ele>1006</ele>
        <time>2019-10-30T09:28:11.000Z</time>
      </trkpt>
      <trkpt lat="45.33676" lon="4.5852">
        <ele>1006.4000244141</ele>
        <time>2019-10-30T09:28:12.000Z</time>
      </trkpt>
      <trkpt lat="45.33676" lon="4.58517">
        <ele>1006.5999755859</ele>
        <time>2019-10-30T09:28:13.000Z</time>
      </trkpt>
      <trkpt lat="45.33677" lon="4.58513">
        <ele>1007</ele>
        <time>2019-10-30T09:28:14.000Z</time>
      </trkpt>
      <trkpt lat="45.33676" lon="4.5851">
        <ele>1007.200012207</ele>
        <time>2019-10-30T09:28:15.000Z</time>
      </trkpt>
      <trkpt lat="45.33677" lon="4.58506">
        <ele>1007.4000244141</ele>
        <time>2019-10-30T09:28:16.000Z</time>
      </trkpt>
      <trkpt lat="45.33677" lon="4.58503">
        <ele>1007.799987793</ele>
        <time>2019-10-30T09:28:17.000Z</time>
      </trkpt>
      <trkpt lat="45.33676" lon="4.58499">
        <ele>1008.200012207</ele>
        <time>2019-10-30T09:28:18.000Z</time>
      </trkpt>
      <trkpt lat="45.33676" lon="4.58495">
        <ele>1008.5999755859</ele>
        <time>2019-10-30T09:28:19.000Z</time>
      </trkpt>
      <trkpt lat="45.33676" lon="4.5849">
        <ele>1008.799987793</ele>
        <time>2019-10-30T09:28:20.000Z</time>
      </trkpt>
      <trkpt lat="45.33677" lon="4.58485">
        <ele>1009</ele>
        <time>2019-10-30T09:28:21.000Z</time>
      </trkpt>
      <trkpt lat="45.33677" lon="4.5848">
        <ele>1009.200012207</ele>
        <time>2019-10-30T09:28:22.000Z</time>
      </trkpt>
      <trkpt lat="45.33677" lon="4.58476">
        <ele>1009.5999755859</ele>
        <time>2019-10-30T09:28:23.000Z</time>
      </trkpt>
      <trkpt lat="45.33677" lon="4.58471">
        <ele>1010</ele>
        <time>2019-10-30T09:28:24.000Z</time>
      </trkpt>
      <trkpt lat="45.33678" lon="4.58467">
        <ele>1010</ele>
        <time>2019-10-30T09:28:25.000Z</time>
      </trkpt>
      <trkpt lat="45.33678" lon="4.58463">
        <ele>1010.200012207</ele>
        <time>2019-10-30T09:28:26.000Z</time>
      </trkpt>
      <trkpt lat="45.33678" lon="4.58459">
        <ele>1010.4000244141</ele>
        <time>2019-10-30T09:28:27.000Z</time>
      </trkpt>
      <trkpt lat="45.33679" lon="4.58455">
        <ele>1010.5999755859</ele>
        <time>2019-10-30T09:28:28.000Z</time>
      </trkpt>
      <trkpt lat="45.33679" lon="4.58451">
        <ele>1010.5999755859</ele>
        <time>2019-10-30T09:28:29.000Z</time>
      </trkpt>
      <trkpt lat="45.33679" lon="4.58447">
        <ele>1011</ele>
        <time>2019-10-30T09:28:30.000Z</time>
      </trkpt>
      <trkpt lat="45.3368" lon="4.58444">
        <ele>1011.200012207</ele>
        <time>2019-10-30T09:28:31.000Z</time>
      </trkpt>
      <trkpt lat="45.3368" lon="4.58441">
        <ele>1011.5999755859</ele>
        <time>2019-10-30T09:28:32.000Z</time>
      </trkpt>
      <trkpt lat="45.33681" lon="4.58438">
        <ele>1011.799987793</ele>
        <time>2019-10-30T09:28:33.000Z</time>
      </trkpt>
      <trkpt lat="45.33682" lon="4.58435">
        <ele>1012</ele>
        <time>2019-10-30T09:28:34.000Z</time>
      </trkpt>
      <trkpt lat="45.33683" lon="4.58431">
        <ele>1012.200012207</ele>
        <time>2019-10-30T09:28:35.000Z</time>
      </trkpt>
      <trkpt lat="45.33684" lon="4.58428">
        <ele>1012.200012207</ele>
        <time>2019-10-30T09:28:36.000Z</time>
      </trkpt>
      <trkpt lat="45.33686" lon="4.58425">
        <ele>1012.4000244141</ele>
        <time>2019-10-30T09:28:37.000Z</time>
      </trkpt>
      <trkpt lat="45.33687" lon="4.58421">
        <ele>1012.4000244141</ele>
        <time>2019-10-30T09:28:38.000Z</time>
      </trkpt>
      <trkpt lat="45.33688" lon="4.58417">
        <ele>1012.799987793</ele>
        <time>2019-10-30T09:28:39.000Z</time>
      </trkpt>
      <trkpt lat="45.3369" lon="4.58412">
        <ele>1013</ele>
        <time>2019-10-30T09:28:40.000Z</time>
      </trkpt>
      <trkpt lat="45.33692" lon="4.58408">
        <ele>1013.200012207</ele>
        <time>2019-10-30T09:28:41.000Z</time>
      </trkpt>
      <trkpt lat="45.33694" lon="4.58403">
        <ele>1013.4000244141</ele>
        <time>2019-10-30T09:28:42.000Z</time>
      </trkpt>
      <trkpt lat="45.33695" lon="4.58399">
        <ele>1013.4000244141</ele>
        <time>2019-10-30T09:28:43.000Z</time>
      </trkpt>
      <trkpt lat="45.33696" lon="4.58396">
        <ele>1013.4000244141</ele>
        <time>2019-10-30T09:28:44.000Z</time>
      </trkpt>
      <trkpt lat="45.33697" lon="4.58392">
        <ele>1013.5999755859</ele>
        <time>2019-10-30T09:28:45.000Z</time>
      </trkpt>
      <trkpt lat="45.33698" lon="4.58389">
        <ele>1013.799987793</ele>
        <time>2019-10-30T09:28:46.000Z</time>
      </trkpt>
      <trkpt lat="45.33699" lon="4.58385">
        <ele>1013.799987793</ele>
        <time>2019-10-30T09:28:47.000Z</time>
      </trkpt>
      <trkpt lat="45.337" lon="4.58382">
        <ele>1014</ele>
        <time>2019-10-30T09:28:48.000Z</time>
      </trkpt>
      <trkpt lat="45.33701" lon="4.58378">
        <ele>1014.200012207</ele>
        <time>2019-10-30T09:28:49.000Z</time>
      </trkpt>
      <trkpt lat="45.33703" lon="4.58374">
        <ele>1014.200012207</ele>
        <time>2019-10-30T09:28:50.000Z</time>
      </trkpt>
      <trkpt lat="45.33705" lon="4.58365">
        <ele>1014.4000244141</ele>
        <time>2019-10-30T09:28:52.000Z</time>
      </trkpt>
      <trkpt lat="45.33706" lon="4.58362">
        <ele>1014.5999755859</ele>
        <time>2019-10-30T09:28:53.000Z</time>
      </trkpt>
      <trkpt lat="45.33708" lon="4.58358">
        <ele>1014.5999755859</ele>
        <time>2019-10-30T09:28:54.000Z</time>
      </trkpt>
      <trkpt lat="45.33711" lon="4.5835">
        <ele>1014.799987793</ele>
        <time>2019-10-30T09:28:56.000Z</time>
      </trkpt>
      <trkpt lat="45.33713" lon="4.58346">
        <ele>1014.5999755859</ele>
        <time>2019-10-30T09:28:57.000Z</time>
      </trkpt>
      <trkpt lat="45.33715" lon="4.58342">
        <ele>1014.5999755859</ele>
        <time>2019-10-30T09:28:58.000Z</time>
      </trkpt>
      <trkpt lat="45.33715" lon="4.58338">
        <ele>1014.5999755859</ele>
        <time>2019-10-30T09:28:59.000Z</time>
      </trkpt>
      <trkpt lat="45.33717" lon="4.58334">
        <ele>1014.5999755859</ele>
        <time>2019-10-30T09:29:00.000Z</time>
      </trkpt>
      <trkpt lat="45.33718" lon="4.5833">
        <ele>1014.799987793</ele>
        <time>2019-10-30T09:29:01.000Z</time>
      </trkpt>
      <trkpt lat="45.33719" lon="4.58326">
        <ele>1014.799987793</ele>
        <time>2019-10-30T09:29:02.000Z</time>
      </trkpt>
      <trkpt lat="45.33721" lon="4.58322">
        <ele>1014.799987793</ele>
        <time>2019-10-30T09:29:04.000Z</time>
      </trkpt>
      <trkpt lat="45.33723" lon="4.58314">
        <ele>1015</ele>
        <time>2019-10-30T09:29:06.000Z</time>
      </trkpt>
      <trkpt lat="45.33724" lon="4.5831">
        <ele>1014.799987793</ele>
        <time>2019-10-30T09:29:07.000Z</time>
      </trkpt>
      <trkpt lat="45.33725" lon="4.58307">
        <ele>1015</ele>
        <time>2019-10-30T09:29:08.000Z</time>
      </trkpt>
      <trkpt lat="45.33728" lon="4.58299">
        <ele>1015</ele>
        <time>2019-10-30T09:29:10.000Z</time>
      </trkpt>
      <trkpt lat="45.3373" lon="4.58296">
        <ele>1015.200012207</ele>
        <time>2019-10-30T09:29:11.000Z</time>
      </trkpt>
      <trkpt lat="45.33731" lon="4.58293">
        <ele>1015.200012207</ele>
        <time>2019-10-30T09:29:12.000Z</time>
      </trkpt>
      <trkpt lat="45.33732" lon="4.58289">
        <ele>1015.200012207</ele>
        <time>2019-10-30T09:29:13.000Z</time>
      </trkpt>
      <trkpt lat="45.33734" lon="4.58285">
        <ele>1015</ele>
        <time>2019-10-30T09:29:14.000Z</time>
      </trkpt>
      <trkpt lat="45.33735" lon="4.58282">
        <ele>1015.200012207</ele>
        <time>2019-10-30T09:29:15.000Z</time>
      </trkpt>
      <trkpt lat="45.33737" lon="4.58278">
        <ele>1015.4000244141</ele>
        <time>2019-10-30T09:29:16.000Z</time>
      </trkpt>
      <trkpt lat="45.33739" lon="4.58274">
        <ele>1015.5999755859</ele>
        <time>2019-10-30T09:29:17.000Z</time>
      </trkpt>
      <trkpt lat="45.3374" lon="4.58271">
        <ele>1015.799987793</ele>
        <time>2019-10-30T09:29:18.000Z</time>
      </trkpt>
      <trkpt lat="45.33741" lon="4.58266">
        <ele>1015.799987793</ele>
        <time>2019-10-30T09:29:19.000Z</time>
      </trkpt>
      <trkpt lat="45.33742" lon="4.58262">
        <ele>1016</ele>
        <time>2019-10-30T09:29:20.000Z</time>
      </trkpt>
      <trkpt lat="45.33743" lon="4.58258">
        <ele>1016.200012207</ele>
        <time>2019-10-30T09:29:21.000Z</time>
      </trkpt>
      <trkpt lat="45.33744" lon="4.58253">
        <ele>1016.200012207</ele>
        <time>2019-10-30T09:29:22.000Z</time>
      </trkpt>
      <trkpt lat="45.33745" lon="4.58248">
        <ele>1016.200012207</ele>
        <time>2019-10-30T09:29:23.000Z</time>
      </trkpt>
      <trkpt lat="45.33747" lon="4.58239">
        <ele>1016.4000244141</ele>
        <time>2019-10-30T09:29:25.000Z</time>
      </trkpt>
      <trkpt lat="45.33748" lon="4.58235">
        <ele>1016.4000244141</ele>
        <time>2019-10-30T09:29:26.000Z</time>
      </trkpt>
      <trkpt lat="45.33749" lon="4.58231">
        <ele>1016.4000244141</ele>
        <time>2019-10-30T09:29:27.000Z</time>
      </trkpt>
      <trkpt lat="45.3375" lon="4.58227">
        <ele>1016.4000244141</ele>
        <time>2019-10-30T09:29:28.000Z</time>
      </trkpt>
      <trkpt lat="45.33751" lon="4.58223">
        <ele>1016.5999755859</ele>
        <time>2019-10-30T09:29:29.000Z</time>
      </trkpt>
      <trkpt lat="45.33752" lon="4.58219">
        <ele>1016.5999755859</ele>
        <time>2019-10-30T09:29:30.000Z</time>
      </trkpt>
      <trkpt lat="45.33754" lon="4.58214">
        <ele>1016.799987793</ele>
        <time>2019-10-30T09:29:31.000Z</time>
      </trkpt>
      <trkpt lat="45.33756" lon="4.5821">
        <ele>1016.799987793</ele>
        <time>2019-10-30T09:29:32.000Z</time>
      </trkpt>
      <trkpt lat="45.33757" lon="4.58206">
        <ele>1016.799987793</ele>
        <time>2019-10-30T09:29:33.000Z</time>
      </trkpt>
      <trkpt lat="45.33759" lon="4.58202">
        <ele>1016.799987793</ele>
        <time>2019-10-30T09:29:34.000Z</time>
      </trkpt>
      <trkpt lat="45.3376" lon="4.58198">
        <ele>1016.799987793</ele>
        <time>2019-10-30T09:29:35.000Z</time>
      </trkpt>
      <trkpt lat="45.33761" lon="4.58195">
        <ele>1016.799987793</ele>
        <time>2019-10-30T09:29:36.000Z</time>
      </trkpt>
      <trkpt lat="45.33763" lon="4.58191">
        <ele>1017</ele>
        <time>2019-10-30T09:29:37.000Z</time>
      </trkpt>
      <trkpt lat="45.33764" lon="4.58187">
        <ele>1017</ele>
        <time>2019-10-30T09:29:38.000Z</time>
      </trkpt>
      <trkpt lat="45.33766" lon="4.58183">
        <ele>1017</ele>
        <time>2019-10-30T09:29:39.000Z</time>
      </trkpt>
      <trkpt lat="45.33767" lon="4.5818">
        <ele>1016.799987793</ele>
        <time>2019-10-30T09:29:40.000Z</time>
      </trkpt>
      <trkpt lat="45.33769" lon="4.58177">
        <ele>1016.799987793</ele>
        <time>2019-10-30T09:29:41.000Z</time>
      </trkpt>
      <trkpt lat="45.3377" lon="4.58173">
        <ele>1016.799987793</ele>
        <time>2019-10-30T09:29:42.000Z</time>
      </trkpt>
      <trkpt lat="45.33772" lon="4.58171">
        <ele>1016.799987793</ele>
        <time>2019-10-30T09:29:43.000Z</time>
      </trkpt>
      <trkpt lat="45.33775" lon="4.58168">
        <ele>1017</ele>
        <time>2019-10-30T09:29:44.000Z</time>
      </trkpt>
      <trkpt lat="45.33778" lon="4.58164">
        <ele>1017.200012207</ele>
        <time>2019-10-30T09:29:45.000Z</time>
      </trkpt>
      <trkpt lat="45.3378" lon="4.58161">
        <ele>1017.200012207</ele>
        <time>2019-10-30T09:29:46.000Z</time>
      </trkpt>
      <trkpt lat="45.33782" lon="4.58158">
        <ele>1017.4000244141</ele>
        <time>2019-10-30T09:29:47.000Z</time>
      </trkpt>
      <trkpt lat="45.33785" lon="4.58151">
        <ele>1017.5999755859</ele>
        <time>2019-10-30T09:29:49.000Z</time>
      </trkpt>
      <trkpt lat="45.33787" lon="4.58148">
        <ele>1018.200012207</ele>
        <time>2019-10-30T09:29:50.000Z</time>
      </trkpt>
      <trkpt lat="45.33788" lon="4.58145">
        <ele>1018</ele>
        <time>2019-10-30T09:29:51.000Z</time>
      </trkpt>
      <trkpt lat="45.3379" lon="4.58142">
        <ele>1018.200012207</ele>
        <time>2019-10-30T09:29:52.000Z</time>
      </trkpt>
      <trkpt lat="45.33791" lon="4.58139">
        <ele>1018.200012207</ele>
        <time>2019-10-30T09:29:53.000Z</time>
      </trkpt>
      <trkpt lat="45.33793" lon="4.58135">
        <ele>1018.4000244141</ele>
        <time>2019-10-30T09:29:54.000Z</time>
      </trkpt>
      <trkpt lat="45.33794" lon="4.58131">
        <ele>1018.4000244141</ele>
        <time>2019-10-30T09:29:55.000Z</time>
      </trkpt>
      <trkpt lat="45.33795" lon="4.58128">
        <ele>1018.5999755859</ele>
        <time>2019-10-30T09:29:56.000Z</time>
      </trkpt>
      <trkpt lat="45.33797" lon="4.58124">
        <ele>1018.4000244141</ele>
        <time>2019-10-30T09:29:57.000Z</time>
      </trkpt>
      <trkpt lat="45.33798" lon="4.5812">
        <ele>1018.4000244141</ele>
        <time>2019-10-30T09:29:58.000Z</time>
      </trkpt>
      <trkpt lat="45.33799" lon="4.58116">
        <ele>1018.5999755859</ele>
        <time>2019-10-30T09:29:59.000Z</time>
      </trkpt>
      <trkpt lat="45.338" lon="4.58113">
        <ele>1018.5999755859</ele>
        <time>2019-10-30T09:30:00.000Z</time>
      </trkpt>
      <trkpt lat="45.33801" lon="4.58109">
        <ele>1018.799987793</ele>
        <time>2019-10-30T09:30:01.000Z</time>
      </trkpt>
      <trkpt lat="45.33803" lon="4.58104">
        <ele>1019</ele>
        <time>2019-10-30T09:30:02.000Z</time>
      </trkpt>
      <trkpt lat="45.33804" lon="4.581">
        <ele>1019</ele>
        <time>2019-10-30T09:30:03.000Z</time>
      </trkpt>
      <trkpt lat="45.33805" lon="4.58097">
        <ele>1019</ele>
        <time>2019-10-30T09:30:04.000Z</time>
      </trkpt>
      <trkpt lat="45.33806" lon="4.58094">
        <ele>1019.200012207</ele>
        <time>2019-10-30T09:30:05.000Z</time>
      </trkpt>
      <trkpt lat="45.33807" lon="4.58091">
        <ele>1019.200012207</ele>
        <time>2019-10-30T09:30:06.000Z</time>
      </trkpt>
      <trkpt lat="45.33809" lon="4.58089">
        <ele>1019.4000244141</ele>
        <time>2019-10-30T09:30:07.000Z</time>
      </trkpt>
      <trkpt lat="45.3381" lon="4.58087">
        <ele>1019.5999755859</ele>
        <time>2019-10-30T09:30:08.000Z</time>
      </trkpt>
      <trkpt lat="45.3381" lon="4.58083">
        <ele>1019.4000244141</ele>
        <time>2019-10-30T09:30:09.000Z</time>
      </trkpt>
      <trkpt lat="45.33811" lon="4.58079">
        <ele>1019.5999755859</ele>
        <time>2019-10-30T09:30:10.000Z</time>
      </trkpt>
      <trkpt lat="45.33813" lon="4.58075">
        <ele>1019.5999755859</ele>
        <time>2019-10-30T09:30:11.000Z</time>
      </trkpt>
      <trkpt lat="45.33815" lon="4.5807">
        <ele>1019.5999755859</ele>
        <time>2019-10-30T09:30:12.000Z</time>
      </trkpt>
      <trkpt lat="45.33817" lon="4.58058">
        <ele>1019.799987793</ele>
        <time>2019-10-30T09:30:14.000Z</time>
      </trkpt>
      <trkpt lat="45.33818" lon="4.58053">
        <ele>1019.5999755859</ele>
        <time>2019-10-30T09:30:15.000Z</time>
      </trkpt>
      <trkpt lat="45.3382" lon="4.58047">
        <ele>1019.799987793</ele>
        <time>2019-10-30T09:30:16.000Z</time>
      </trkpt>
      <trkpt lat="45.33821" lon="4.58041">
        <ele>1020</ele>
        <time>2019-10-30T09:30:17.000Z</time>
      </trkpt>
      <trkpt lat="45.33823" lon="4.58036">
        <ele>1020</ele>
        <time>2019-10-30T09:30:18.000Z</time>
      </trkpt>
      <trkpt lat="45.33824" lon="4.58031">
        <ele>1020.200012207</ele>
        <time>2019-10-30T09:30:19.000Z</time>
      </trkpt>
      <trkpt lat="45.33824" lon="4.58026">
        <ele>1020</ele>
        <time>2019-10-30T09:30:20.000Z</time>
      </trkpt>
      <trkpt lat="45.33825" lon="4.58021">
        <ele>1020.200012207</ele>
        <time>2019-10-30T09:30:21.000Z</time>
      </trkpt>
      <trkpt lat="45.33825" lon="4.58016">
        <ele>1020.4000244141</ele>
        <time>2019-10-30T09:30:22.000Z</time>
      </trkpt>
      <trkpt lat="45.33826" lon="4.58011">
        <ele>1020.4000244141</ele>
        <time>2019-10-30T09:30:23.000Z</time>
      </trkpt>
      <trkpt lat="45.33827" lon="4.58007">
        <ele>1020.200012207</ele>
        <time>2019-10-30T09:30:24.000Z</time>
      </trkpt>
      <trkpt lat="45.33827" lon="4.58002">
        <ele>1020.200012207</ele>
        <time>2019-10-30T09:30:25.000Z</time>
      </trkpt>
      <trkpt lat="45.33827" lon="4.57997">
        <ele>1020.4000244141</ele>
        <time>2019-10-30T09:30:26.000Z</time>
      </trkpt>
      <trkpt lat="45.33828" lon="4.57992">
        <ele>1020.4000244141</ele>
        <time>2019-10-30T09:30:27.000Z</time>
      </trkpt>
      <trkpt lat="45.33828" lon="4.57988">
        <ele>1020.4000244141</ele>
        <time>2019-10-30T09:30:28.000Z</time>
      </trkpt>
      <trkpt lat="45.33828" lon="4.57983">
        <ele>1020.4000244141</ele>
        <time>2019-10-30T09:30:29.000Z</time>
      </trkpt>
      <trkpt lat="45.33829" lon="4.57978">
        <ele>1020.4000244141</ele>
        <time>2019-10-30T09:30:30.000Z</time>
      </trkpt>
      <trkpt lat="45.33829" lon="4.57974">
        <ele>1020.5999755859</ele>
        <time>2019-10-30T09:30:31.000Z</time>
      </trkpt>
      <trkpt lat="45.33829" lon="4.5797">
        <ele>1020.5999755859</ele>
        <time>2019-10-30T09:30:32.000Z</time>
      </trkpt>
      <trkpt lat="45.33828" lon="4.57966">
        <ele>1020.5999755859</ele>
        <time>2019-10-30T09:30:33.000Z</time>
      </trkpt>
      <trkpt lat="45.33828" lon="4.57962">
        <ele>1020.5999755859</ele>
        <time>2019-10-30T09:30:34.000Z</time>
      </trkpt>
      <trkpt lat="45.33827" lon="4.57955">
        <ele>1020.5999755859</ele>
        <time>2019-10-30T09:30:36.000Z</time>
      </trkpt>
      <trkpt lat="45.33827" lon="4.5795">
        <ele>1020.5999755859</ele>
        <time>2019-10-30T09:30:37.000Z</time>
      </trkpt>
      <trkpt lat="45.33826" lon="4.57941">
        <ele>1020.5999755859</ele>
        <time>2019-10-30T09:30:39.000Z</time>
      </trkpt>
      <trkpt lat="45.33826" lon="4.57936">
        <ele>1020.5999755859</ele>
        <time>2019-10-30T09:30:40.000Z</time>
      </trkpt>
      <trkpt lat="45.33826" lon="4.57931">
        <ele>1020.5999755859</ele>
        <time>2019-10-30T09:30:41.000Z</time>
      </trkpt>
      <trkpt lat="45.33826" lon="4.57927">
        <ele>1020.4000244141</ele>
        <time>2019-10-30T09:30:42.000Z</time>
      </trkpt>
      <trkpt lat="45.33825" lon="4.57922">
        <ele>1020.5999755859</ele>
        <time>2019-10-30T09:30:43.000Z</time>
      </trkpt>
      <trkpt lat="45.33825" lon="4.57918">
        <ele>1020.4000244141</ele>
        <time>2019-10-30T09:30:44.000Z</time>
      </trkpt>
      <trkpt lat="45.33824" lon="4.57914">
        <ele>1020.4000244141</ele>
        <time>2019-10-30T09:30:45.000Z</time>
      </trkpt>
      <trkpt lat="45.33824" lon="4.5791">
        <ele>1020.200012207</ele>
        <time>2019-10-30T09:30:46.000Z</time>
      </trkpt>
      <trkpt lat="45.33823" lon="4.57906">
        <ele>1020.200012207</ele>
        <time>2019-10-30T09:30:47.000Z</time>
      </trkpt>
      <trkpt lat="45.33823" lon="4.57902">
        <ele>1020.200012207</ele>
        <time>2019-10-30T09:30:48.000Z</time>
      </trkpt>
      <trkpt lat="45.33819" lon="4.57888">
        <ele>1020.200012207</ele>
        <time>2019-10-30T09:30:51.000Z</time>
      </trkpt>
      <trkpt lat="45.33817" lon="4.57882">
        <ele>1020.200012207</ele>
        <time>2019-10-30T09:30:52.000Z</time>
      </trkpt>
      <trkpt lat="45.33816" lon="4.57877">
        <ele>1020.200012207</ele>
        <time>2019-10-30T09:30:53.000Z</time>
      </trkpt>
      <trkpt lat="45.33812" lon="4.57861">
        <ele>1020.200012207</ele>
        <time>2019-10-30T09:30:56.000Z</time>
      </trkpt>
      <trkpt lat="45.33811" lon="4.57855">
        <ele>1020</ele>
        <time>2019-10-30T09:30:57.000Z</time>
      </trkpt>
      <trkpt lat="45.33811" lon="4.57849">
        <ele>1020</ele>
        <time>2019-10-30T09:30:58.000Z</time>
      </trkpt>
      <trkpt lat="45.3381" lon="4.57843">
        <ele>1020</ele>
        <time>2019-10-30T09:30:59.000Z</time>
      </trkpt>
      <trkpt lat="45.3381" lon="4.57838">
        <ele>1019.5999755859</ele>
        <time>2019-10-30T09:31:00.000Z</time>
      </trkpt>
      <trkpt lat="45.3381" lon="4.57834">
        <ele>1019.5999755859</ele>
        <time>2019-10-30T09:31:01.000Z</time>
      </trkpt>
      <trkpt lat="45.33809" lon="4.57829">
        <ele>1019.5999755859</ele>
        <time>2019-10-30T09:31:02.000Z</time>
      </trkpt>
      <trkpt lat="45.33809" lon="4.57824">
        <ele>1019.4000244141</ele>
        <time>2019-10-30T09:31:03.000Z</time>
      </trkpt>
      <trkpt lat="45.33808" lon="4.5782">
        <ele>1019.4000244141</ele>
        <time>2019-10-30T09:31:04.000Z</time>
      </trkpt>
      <trkpt lat="45.33808" lon="4.57815">
        <ele>1019.4000244141</ele>
        <time>2019-10-30T09:31:05.000Z</time>
      </trkpt>
      <trkpt lat="45.33806" lon="4.57788">
        <ele>1019</ele>
        <time>2019-10-30T09:31:10.000Z</time>
      </trkpt>
      <trkpt lat="45.33806" lon="4.57782">
        <ele>1019</ele>
        <time>2019-10-30T09:31:11.000Z</time>
      </trkpt>
      <trkpt lat="45.33805" lon="4.57776">
        <ele>1018.799987793</ele>
        <time>2019-10-30T09:31:12.000Z</time>
      </trkpt>
      <trkpt lat="45.33804" lon="4.57769">
        <ele>1018.799987793</ele>
        <time>2019-10-30T09:31:13.000Z</time>
      </trkpt>
      <trkpt lat="45.33803" lon="4.57755">
        <ele>1018.5999755859</ele>
        <time>2019-10-30T09:31:15.000Z</time>
      </trkpt>
      <trkpt lat="45.338" lon="4.57741">
        <ele>1018.5999755859</ele>
        <time>2019-10-30T09:31:17.000Z</time>
      </trkpt>
      <trkpt lat="45.33797" lon="4.57721">
        <ele>1018.200012207</ele>
        <time>2019-10-30T09:31:20.000Z</time>
      </trkpt>
      <trkpt lat="45.33797" lon="4.57714">
        <ele>1017.799987793</ele>
        <time>2019-10-30T09:31:21.000Z</time>
      </trkpt>
      <trkpt lat="45.33797" lon="4.57707">
        <ele>1017.5999755859</ele>
        <time>2019-10-30T09:31:22.000Z</time>
      </trkpt>
      <trkpt lat="45.33797" lon="4.57699">
        <ele>1017.4000244141</ele>
        <time>2019-10-30T09:31:23.000Z</time>
      </trkpt>
      <trkpt lat="45.33796" lon="4.57691">
        <ele>1017.200012207</ele>
        <time>2019-10-30T09:31:24.000Z</time>
      </trkpt>
      <trkpt lat="45.33796" lon="4.57683">
        <ele>1017</ele>
        <time>2019-10-30T09:31:25.000Z</time>
      </trkpt>
      <trkpt lat="45.33797" lon="4.57675">
        <ele>1016.5999755859</ele>
        <time>2019-10-30T09:31:26.000Z</time>
      </trkpt>
      <trkpt lat="45.33797" lon="4.57666">
        <ele>1016.4000244141</ele>
        <time>2019-10-30T09:31:27.000Z</time>
      </trkpt>
      <trkpt lat="45.33796" lon="4.57655">
        <ele>1016</ele>
        <time>2019-10-30T09:31:28.000Z</time>
      </trkpt>
      <trkpt lat="45.33797" lon="4.57644">
        <ele>1015.5999755859</ele>
        <time>2019-10-30T09:31:29.000Z</time>
      </trkpt>
      <trkpt lat="45.33796" lon="4.57635">
        <ele>1015.200012207</ele>
        <time>2019-10-30T09:31:30.000Z</time>
      </trkpt>
      <trkpt lat="45.33796" lon="4.57626">
        <ele>1014.799987793</ele>
        <time>2019-10-30T09:31:31.000Z</time>
      </trkpt>
      <trkpt lat="45.33797" lon="4.57619">
        <ele>1014.799987793</ele>
        <time>2019-10-30T09:31:32.000Z</time>
      </trkpt>
      <trkpt lat="45.33797" lon="4.57612">
        <ele>1014.200012207</ele>
        <time>2019-10-30T09:31:33.000Z</time>
      </trkpt>
      <trkpt lat="45.33796" lon="4.57607">
        <ele>1013.799987793</ele>
        <time>2019-10-30T09:31:34.000Z</time>
      </trkpt>
      <trkpt lat="45.33795" lon="4.57602">
        <ele>1013</ele>
        <time>2019-10-30T09:31:35.000Z</time>
      </trkpt>
      <trkpt lat="45.33792" lon="4.57596">
        <ele>1012.4000244141</ele>
        <time>2019-10-30T09:31:36.000Z</time>
      </trkpt>
      <trkpt lat="45.3379" lon="4.57591">
        <ele>1011.799987793</ele>
        <time>2019-10-30T09:31:37.000Z</time>
      </trkpt>
      <trkpt lat="45.33785" lon="4.57585">
        <ele>1011.200012207</ele>
        <time>2019-10-30T09:31:38.000Z</time>
      </trkpt>
      <trkpt lat="45.3378" lon="4.57579">
        <ele>1010.5999755859</ele>
        <time>2019-10-30T09:31:39.000Z</time>
      </trkpt>
      <trkpt lat="45.33774" lon="4.57574">
        <ele>1010</ele>
        <time>2019-10-30T09:31:40.000Z</time>
      </trkpt>
      <trkpt lat="45.33761" lon="4.57563">
        <ele>1009.4000244141</ele>
        <time>2019-10-30T09:31:42.000Z</time>
      </trkpt>
      <trkpt lat="45.3375" lon="4.57553">
        <ele>1008.200012207</ele>
        <time>2019-10-30T09:31:44.000Z</time>
      </trkpt>
      <trkpt lat="45.33746" lon="4.57549">
        <ele>1007.200012207</ele>
        <time>2019-10-30T09:31:45.000Z</time>
      </trkpt>
      <trkpt lat="45.33742" lon="4.57545">
        <ele>1005.5999755859</ele>
        <time>2019-10-30T09:31:46.000Z</time>
      </trkpt>
      <trkpt lat="45.33739" lon="4.57543">
        <ele>1005</ele>
        <time>2019-10-30T09:31:47.000Z</time>
      </trkpt>
      <trkpt lat="45.33737" lon="4.5754">
        <ele>1004.4000244141</ele>
        <time>2019-10-30T09:31:48.000Z</time>
      </trkpt>
      <trkpt lat="45.33735" lon="4.57537">
        <ele>1003</ele>
        <time>2019-10-30T09:31:49.000Z</time>
      </trkpt>
      <trkpt lat="45.33732" lon="4.57534">
        <ele>1002.4000244141</ele>
        <time>2019-10-30T09:31:50.000Z</time>
      </trkpt>
      <trkpt lat="45.33729" lon="4.5753">
        <ele>1002</ele>
        <time>2019-10-30T09:31:51.000Z</time>
      </trkpt>
      <trkpt lat="45.33723" lon="4.57524">
        <ele>1002</ele>
        <time>2019-10-30T09:31:53.000Z</time>
      </trkpt>
      <trkpt lat="45.3372" lon="4.57522">
        <ele>1001.799987793</ele>
        <time>2019-10-30T09:31:54.000Z</time>
      </trkpt>
      <trkpt lat="45.33718" lon="4.57519">
        <ele>1001.799987793</ele>
        <time>2019-10-30T09:31:55.000Z</time>
      </trkpt>
      <trkpt lat="45.33715" lon="4.57516">
        <ele>1001.799987793</ele>
        <time>2019-10-30T09:31:56.000Z</time>
      </trkpt>
      <trkpt lat="45.33712" lon="4.57513">
        <ele>1001.799987793</ele>
        <time>2019-10-30T09:31:57.000Z</time>
      </trkpt>
      <trkpt lat="45.3371" lon="4.5751">
        <ele>1001.799987793</ele>
        <time>2019-10-30T09:31:58.000Z</time>
      </trkpt>
      <trkpt lat="45.33707" lon="4.57507">
        <ele>1001.799987793</ele>
        <time>2019-10-30T09:31:59.000Z</time>
      </trkpt>
      <trkpt lat="45.33705" lon="4.57504">
        <ele>1001.799987793</ele>
        <time>2019-10-30T09:32:00.000Z</time>
      </trkpt>
      <trkpt lat="45.33703" lon="4.575">
        <ele>1001.799987793</ele>
        <time>2019-10-30T09:32:01.000Z</time>
      </trkpt>
      <trkpt lat="45.337" lon="4.57496">
        <ele>1001.799987793</ele>
        <time>2019-10-30T09:32:02.000Z</time>
      </trkpt>
      <trkpt lat="45.33697" lon="4.57492">
        <ele>1001.799987793</ele>
        <time>2019-10-30T09:32:03.000Z</time>
      </trkpt>
      <trkpt lat="45.33691" lon="4.57485">
        <ele>1001.799987793</ele>
        <time>2019-10-30T09:32:05.000Z</time>
      </trkpt>
      <trkpt lat="45.33689" lon="4.57481">
        <ele>1001.799987793</ele>
        <time>2019-10-30T09:32:06.000Z</time>
      </trkpt>
      <trkpt lat="45.33685" lon="4.57477">
        <ele>1001.799987793</ele>
        <time>2019-10-30T09:32:07.000Z</time>
      </trkpt>
      <trkpt lat="45.33678" lon="4.57471">
        <ele>1001.799987793</ele>
        <time>2019-10-30T09:32:09.000Z</time>
      </trkpt>
      <trkpt lat="45.33676" lon="4.57467">
        <ele>1001.5999755859</ele>
        <time>2019-10-30T09:32:10.000Z</time>
      </trkpt>
      <trkpt lat="45.33673" lon="4.57464">
        <ele>1001.5999755859</ele>
        <time>2019-10-30T09:32:11.000Z</time>
      </trkpt>
      <trkpt lat="45.3367" lon="4.57463">
        <ele>1001.4000244141</ele>
        <time>2019-10-30T09:32:12.000Z</time>
      </trkpt>
      <trkpt lat="45.33666" lon="4.57462">
        <ele>1001.200012207</ele>
        <time>2019-10-30T09:32:13.000Z</time>
      </trkpt>
      <trkpt lat="45.33663" lon="4.57463">
        <ele>1001</ele>
        <time>2019-10-30T09:32:14.000Z</time>
      </trkpt>
      <trkpt lat="45.33659" lon="4.57463">
        <ele>1000.5999755859</ele>
        <time>2019-10-30T09:32:15.000Z</time>
      </trkpt>
      <trkpt lat="45.33656" lon="4.57464">
        <ele>1000.200012207</ele>
        <time>2019-10-30T09:32:16.000Z</time>
      </trkpt>
      <trkpt lat="45.33652" lon="4.57464">
        <ele>999.59997558594</ele>
        <time>2019-10-30T09:32:17.000Z</time>
      </trkpt>
      <trkpt lat="45.33648" lon="4.57464">
        <ele>999.20001220703</ele>
        <time>2019-10-30T09:32:18.000Z</time>
      </trkpt>
      <trkpt lat="45.33645" lon="4.57465">
        <ele>999</ele>
        <time>2019-10-30T09:32:19.000Z</time>
      </trkpt>
      <trkpt lat="45.33642" lon="4.57465">
        <ele>998.79998779297</ele>
        <time>2019-10-30T09:32:20.000Z</time>
      </trkpt>
      <trkpt lat="45.33639" lon="4.57466">
        <ele>998.59997558594</ele>
        <time>2019-10-30T09:32:21.000Z</time>
      </trkpt>
      <trkpt lat="45.33636" lon="4.57467">
        <ele>998.40002441406</ele>
        <time>2019-10-30T09:32:22.000Z</time>
      </trkpt>
      <trkpt lat="45.33633" lon="4.57467">
        <ele>998.40002441406</ele>
        <time>2019-10-30T09:32:23.000Z</time>
      </trkpt>
      <trkpt lat="45.3363" lon="4.57468">
        <ele>998.40002441406</ele>
        <time>2019-10-30T09:32:24.000Z</time>
      </trkpt>
      <trkpt lat="45.33627" lon="4.57468">
        <ele>998.59997558594</ele>
        <time>2019-10-30T09:32:25.000Z</time>
      </trkpt>
      <trkpt lat="45.33624" lon="4.57469">
        <ele>998.40002441406</ele>
        <time>2019-10-30T09:32:26.000Z</time>
      </trkpt>
      <trkpt lat="45.33622" lon="4.57469">
        <ele>998.20001220703</ele>
        <time>2019-10-30T09:32:27.000Z</time>
      </trkpt>
      <trkpt lat="45.3362" lon="4.57468">
        <ele>998.20001220703</ele>
        <time>2019-10-30T09:32:28.000Z</time>
      </trkpt>
      <trkpt lat="45.33618" lon="4.57466">
        <ele>998.40002441406</ele>
        <time>2019-10-30T09:32:29.000Z</time>
      </trkpt>
      <trkpt lat="45.33616" lon="4.57464">
        <ele>998.20001220703</ele>
        <time>2019-10-30T09:32:30.000Z</time>
      </trkpt>
      <trkpt lat="45.33615" lon="4.57461">
        <ele>998.20001220703</ele>
        <time>2019-10-30T09:32:31.000Z</time>
      </trkpt>
      <trkpt lat="45.33613" lon="4.57458">
        <ele>997.79998779297</ele>
        <time>2019-10-30T09:32:32.000Z</time>
      </trkpt>
      <trkpt lat="45.33611" lon="4.57455">
        <ele>997.79998779297</ele>
        <time>2019-10-30T09:32:33.000Z</time>
      </trkpt>
      <trkpt lat="45.33609" lon="4.57452">
        <ele>997.79998779297</ele>
        <time>2019-10-30T09:32:34.000Z</time>
      </trkpt>
      <trkpt lat="45.33607" lon="4.57448">
        <ele>997.59997558594</ele>
        <time>2019-10-30T09:32:35.000Z</time>
      </trkpt>
      <trkpt lat="45.33605" lon="4.57444">
        <ele>997.59997558594</ele>
        <time>2019-10-30T09:32:36.000Z</time>
      </trkpt>
      <trkpt lat="45.33602" lon="4.5744">
        <ele>997.59997558594</ele>
        <time>2019-10-30T09:32:37.000Z</time>
      </trkpt>
      <trkpt lat="45.336" lon="4.57437">
        <ele>997.40002441406</ele>
        <time>2019-10-30T09:32:38.000Z</time>
      </trkpt>
      <trkpt lat="45.33597" lon="4.57433">
        <ele>997.59997558594</ele>
        <time>2019-10-30T09:32:39.000Z</time>
      </trkpt>
      <trkpt lat="45.33595" lon="4.57429">
        <ele>997.40002441406</ele>
        <time>2019-10-30T09:32:40.000Z</time>
      </trkpt>
      <trkpt lat="45.3359" lon="4.57422">
        <ele>997.40002441406</ele>
        <time>2019-10-30T09:32:42.000Z</time>
      </trkpt>
      <trkpt lat="45.33587" lon="4.57418">
        <ele>997.59997558594</ele>
        <time>2019-10-30T09:32:43.000Z</time>
      </trkpt>
      <trkpt lat="45.33578" lon="4.57405">
        <ele>997.79998779297</ele>
        <time>2019-10-30T09:32:46.000Z</time>
      </trkpt>
      <trkpt lat="45.33576" lon="4.57401">
        <ele>997.79998779297</ele>
        <time>2019-10-30T09:32:47.000Z</time>
      </trkpt>
      <trkpt lat="45.33573" lon="4.57396">
        <ele>997.59997558594</ele>
        <time>2019-10-30T09:32:48.000Z</time>
      </trkpt>
      <trkpt lat="45.33565" lon="4.57385">
        <ele>997.59997558594</ele>
        <time>2019-10-30T09:32:51.000Z</time>
      </trkpt>
      <trkpt lat="45.33563" lon="4.57382">
        <ele>997.79998779297</ele>
        <time>2019-10-30T09:32:52.000Z</time>
      </trkpt>
      <trkpt lat="45.33561" lon="4.57379">
        <ele>998</ele>
        <time>2019-10-30T09:32:53.000Z</time>
      </trkpt>
      <trkpt lat="45.33559" lon="4.57376">
        <ele>998</ele>
        <time>2019-10-30T09:32:54.000Z</time>
      </trkpt>
      <trkpt lat="45.33558" lon="4.57374">
        <ele>998</ele>
        <time>2019-10-30T09:32:55.000Z</time>
      </trkpt>
      <trkpt lat="45.33556" lon="4.57372">
        <ele>998</ele>
        <time>2019-10-30T09:32:56.000Z</time>
      </trkpt>
      <trkpt lat="45.33554" lon="4.57371">
        <ele>998</ele>
        <time>2019-10-30T09:32:57.000Z</time>
      </trkpt>
      <trkpt lat="45.33553" lon="4.5737">
        <ele>998.20001220703</ele>
        <time>2019-10-30T09:32:58.000Z</time>
      </trkpt>
      <trkpt lat="45.33552" lon="4.5737">
        <ele>998.40002441406</ele>
        <time>2019-10-30T09:32:59.000Z</time>
      </trkpt>
      <trkpt lat="45.3355" lon="4.5737">
        <ele>998.40002441406</ele>
        <time>2019-10-30T09:33:00.000Z</time>
      </trkpt>
      <trkpt lat="45.33548" lon="4.57371">
        <ele>998.79998779297</ele>
        <time>2019-10-30T09:33:01.000Z</time>
      </trkpt>
      <trkpt lat="45.33547" lon="4.57371">
        <ele>999</ele>
        <time>2019-10-30T09:33:02.000Z</time>
      </trkpt>
      <trkpt lat="45.33546" lon="4.57372">
        <ele>999.20001220703</ele>
        <time>2019-10-30T09:33:03.000Z</time>
      </trkpt>
      <trkpt lat="45.33544" lon="4.57373">
        <ele>999.59997558594</ele>
        <time>2019-10-30T09:33:04.000Z</time>
      </trkpt>
      <trkpt lat="45.33542" lon="4.57374">
        <ele>999.79998779297</ele>
        <time>2019-10-30T09:33:05.000Z</time>
      </trkpt>
      <trkpt lat="45.33541" lon="4.57375">
        <ele>999.79998779297</ele>
        <time>2019-10-30T09:33:06.000Z</time>
      </trkpt>
      <trkpt lat="45.33539" lon="4.57377">
        <ele>1000.200012207</ele>
        <time>2019-10-30T09:33:07.000Z</time>
      </trkpt>
      <trkpt lat="45.33538" lon="4.57379">
        <ele>1000.4000244141</ele>
        <time>2019-10-30T09:33:08.000Z</time>
      </trkpt>
      <trkpt lat="45.33536" lon="4.57381">
        <ele>1000.5999755859</ele>
        <time>2019-10-30T09:33:09.000Z</time>
      </trkpt>
      <trkpt lat="45.33534" lon="4.57382">
        <ele>1001</ele>
        <time>2019-10-30T09:33:10.000Z</time>
      </trkpt>
      <trkpt lat="45.33533" lon="4.57383">
        <ele>1001.200012207</ele>
        <time>2019-10-30T09:33:11.000Z</time>
      </trkpt>
      <trkpt lat="45.33531" lon="4.57383">
        <ele>1001.200012207</ele>
        <time>2019-10-30T09:33:12.000Z</time>
      </trkpt>
      <trkpt lat="45.33529" lon="4.57384">
        <ele>1001.5999755859</ele>
        <time>2019-10-30T09:33:13.000Z</time>
      </trkpt>
      <trkpt lat="45.33528" lon="4.57384">
        <ele>1001.799987793</ele>
        <time>2019-10-30T09:33:14.000Z</time>
      </trkpt>
      <trkpt lat="45.33526" lon="4.57384">
        <ele>1001.799987793</ele>
        <time>2019-10-30T09:33:15.000Z</time>
      </trkpt>
      <trkpt lat="45.33526" lon="4.57385">
        <ele>1001.799987793</ele>
        <time>2019-10-30T09:33:16.000Z</time>
      </trkpt>
      <trkpt lat="45.33525" lon="4.57385">
        <ele>1002.200012207</ele>
        <time>2019-10-30T09:33:17.000Z</time>
      </trkpt>
      <trkpt lat="45.33524" lon="4.57385">
        <ele>1002.4000244141</ele>
        <time>2019-10-30T09:33:18.000Z</time>
      </trkpt>
      <trkpt lat="45.33522" lon="4.57386">
        <ele>1002.799987793</ele>
        <time>2019-10-30T09:33:19.000Z</time>
      </trkpt>
      <trkpt lat="45.33521" lon="4.57387">
        <ele>1003.200012207</ele>
        <time>2019-10-30T09:33:20.000Z</time>
      </trkpt>
      <trkpt lat="45.33519" lon="4.57388">
        <ele>1003.200012207</ele>
        <time>2019-10-30T09:33:21.000Z</time>
      </trkpt>
      <trkpt lat="45.33519" lon="4.57391">
        <ele>1003.5999755859</ele>
        <time>2019-10-30T09:33:22.000Z</time>
      </trkpt>
      <trkpt lat="45.33518" lon="4.57392">
        <ele>1003.799987793</ele>
        <time>2019-10-30T09:33:23.000Z</time>
      </trkpt>
      <trkpt lat="45.33516" lon="4.57393">
        <ele>1004.200012207</ele>
        <time>2019-10-30T09:33:24.000Z</time>
      </trkpt>
      <trkpt lat="45.33514" lon="4.57395">
        <ele>1004.5999755859</ele>
        <time>2019-10-30T09:33:25.000Z</time>
      </trkpt>
      <trkpt lat="45.33512" lon="4.57396">
        <ele>1004.799987793</ele>
        <time>2019-10-30T09:33:26.000Z</time>
      </trkpt>
      <trkpt lat="45.3351" lon="4.57397">
        <ele>1005</ele>
        <time>2019-10-30T09:33:27.000Z</time>
      </trkpt>
      <trkpt lat="45.33507" lon="4.57399">
        <ele>1005.200012207</ele>
        <time>2019-10-30T09:33:28.000Z</time>
      </trkpt>
      <trkpt lat="45.33504" lon="4.57402">
        <ele>1005.4000244141</ele>
        <time>2019-10-30T09:33:29.000Z</time>
      </trkpt>
      <trkpt lat="45.33501" lon="4.57404">
        <ele>1005.799987793</ele>
        <time>2019-10-30T09:33:30.000Z</time>
      </trkpt>
      <trkpt lat="45.33498" lon="4.57406">
        <ele>1006</ele>
        <time>2019-10-30T09:33:31.000Z</time>
      </trkpt>
      <trkpt lat="45.33496" lon="4.57409">
        <ele>1006.4000244141</ele>
        <time>2019-10-30T09:33:32.000Z</time>
      </trkpt>
      <trkpt lat="45.33494" lon="4.57411">
        <ele>1006.5999755859</ele>
        <time>2019-10-30T09:33:33.000Z</time>
      </trkpt>
      <trkpt lat="45.33492" lon="4.57413">
        <ele>1007.200012207</ele>
        <time>2019-10-30T09:33:34.000Z</time>
      </trkpt>
      <trkpt lat="45.3349" lon="4.57414">
        <ele>1007.200012207</ele>
        <time>2019-10-30T09:33:35.000Z</time>
      </trkpt>
      <trkpt lat="45.33488" lon="4.57416">
        <ele>1007.4000244141</ele>
        <time>2019-10-30T09:33:36.000Z</time>
      </trkpt>
      <trkpt lat="45.33486" lon="4.57417">
        <ele>1007.799987793</ele>
        <time>2019-10-30T09:33:37.000Z</time>
      </trkpt>
      <trkpt lat="45.33484" lon="4.57417">
        <ele>1008.200012207</ele>
        <time>2019-10-30T09:33:38.000Z</time>
      </trkpt>
      <trkpt lat="45.33482" lon="4.57418">
        <ele>1008.4000244141</ele>
        <time>2019-10-30T09:33:39.000Z</time>
      </trkpt>
      <trkpt lat="45.3348" lon="4.5742">
        <ele>1008.4000244141</ele>
        <time>2019-10-30T09:33:40.000Z</time>
      </trkpt>
      <trkpt lat="45.33478" lon="4.57421">
        <ele>1008.799987793</ele>
        <time>2019-10-30T09:33:41.000Z</time>
      </trkpt>
      <trkpt lat="45.33476" lon="4.57422">
        <ele>1008.799987793</ele>
        <time>2019-10-30T09:33:42.000Z</time>
      </trkpt>
      <trkpt lat="45.33473" lon="4.57423">
        <ele>1009</ele>
        <time>2019-10-30T09:33:43.000Z</time>
      </trkpt>
      <trkpt lat="45.33472" lon="4.57424">
        <ele>1009.200012207</ele>
        <time>2019-10-30T09:33:44.000Z</time>
      </trkpt>
      <trkpt lat="45.33469" lon="4.57425">
        <ele>1009.5999755859</ele>
        <time>2019-10-30T09:33:45.000Z</time>
      </trkpt>
      <trkpt lat="45.33467" lon="4.57426">
        <ele>1009.5999755859</ele>
        <time>2019-10-30T09:33:46.000Z</time>
      </trkpt>
      <trkpt lat="45.33464" lon="4.57427">
        <ele>1010</ele>
        <time>2019-10-30T09:33:47.000Z</time>
      </trkpt>
      <trkpt lat="45.33462" lon="4.57428">
        <ele>1010.4000244141</ele>
        <time>2019-10-30T09:33:48.000Z</time>
      </trkpt>
      <trkpt lat="45.33459" lon="4.57429">
        <ele>1010.4000244141</ele>
        <time>2019-10-30T09:33:49.000Z</time>
      </trkpt>
      <trkpt lat="45.33455" lon="4.57429">
        <ele>1010.4000244141</ele>
        <time>2019-10-30T09:33:50.000Z</time>
      </trkpt>
      <trkpt lat="45.33453" lon="4.5743">
        <ele>1010.799987793</ele>
        <time>2019-10-30T09:33:51.000Z</time>
      </trkpt>
      <trkpt lat="45.3345" lon="4.5743">
        <ele>1010.799987793</ele>
        <time>2019-10-30T09:33:52.000Z</time>
      </trkpt>
      <trkpt lat="45.33448" lon="4.5743">
        <ele>1011.200012207</ele>
        <time>2019-10-30T09:33:53.000Z</time>
      </trkpt>
      <trkpt lat="45.33445" lon="4.57429">
        <ele>1011.200012207</ele>
        <time>2019-10-30T09:33:54.000Z</time>
      </trkpt>
      <trkpt lat="45.33442" lon="4.57429">
        <ele>1011.4000244141</ele>
        <time>2019-10-30T09:33:55.000Z</time>
      </trkpt>
      <trkpt lat="45.3344" lon="4.57429">
        <ele>1011.799987793</ele>
        <time>2019-10-30T09:33:56.000Z</time>
      </trkpt>
      <trkpt lat="45.33439" lon="4.57429">
        <ele>1012.200012207</ele>
        <time>2019-10-30T09:33:57.000Z</time>
      </trkpt>
      <trkpt lat="45.33437" lon="4.57429">
        <ele>1012.4000244141</ele>
        <time>2019-10-30T09:33:58.000Z</time>
      </trkpt>
      <trkpt lat="45.33434" lon="4.57429">
        <ele>1012.5999755859</ele>
        <time>2019-10-30T09:33:59.000Z</time>
      </trkpt>
      <trkpt lat="45.33432" lon="4.57429">
        <ele>1012.799987793</ele>
        <time>2019-10-30T09:34:00.000Z</time>
      </trkpt>
      <trkpt lat="45.3343" lon="4.57429">
        <ele>1013</ele>
        <time>2019-10-30T09:34:01.000Z</time>
      </trkpt>
      <trkpt lat="45.33428" lon="4.57428">
        <ele>1013.200012207</ele>
        <time>2019-10-30T09:34:02.000Z</time>
      </trkpt>
      <trkpt lat="45.33426" lon="4.57428">
        <ele>1013.4000244141</ele>
        <time>2019-10-30T09:34:03.000Z</time>
      </trkpt>
      <trkpt lat="45.33425" lon="4.57428">
        <ele>1013.799987793</ele>
        <time>2019-10-30T09:34:04.000Z</time>
      </trkpt>
      <trkpt lat="45.33423" lon="4.57427">
        <ele>1014</ele>
        <time>2019-10-30T09:34:05.000Z</time>
      </trkpt>
      <trkpt lat="45.33421" lon="4.57426">
        <ele>1014.200012207</ele>
        <time>2019-10-30T09:34:06.000Z</time>
      </trkpt>
      <trkpt lat="45.33419" lon="4.57425">
        <ele>1014.200012207</ele>
        <time>2019-10-30T09:34:07.000Z</time>
      </trkpt>
      <trkpt lat="45.33418" lon="4.57423">
        <ele>1014.200012207</ele>
        <time>2019-10-30T09:34:08.000Z</time>
      </trkpt>
      <trkpt lat="45.33416" lon="4.57421">
        <ele>1014.200012207</ele>
        <time>2019-10-30T09:34:09.000Z</time>
      </trkpt>
      <trkpt lat="45.33414" lon="4.57419">
        <ele>1014.5999755859</ele>
        <time>2019-10-30T09:34:10.000Z</time>
      </trkpt>
      <trkpt lat="45.33413" lon="4.57418">
        <ele>1014.5999755859</ele>
        <time>2019-10-30T09:34:11.000Z</time>
      </trkpt>
      <trkpt lat="45.33412" lon="4.57416">
        <ele>1015</ele>
        <time>2019-10-30T09:34:12.000Z</time>
      </trkpt>
      <trkpt lat="45.33411" lon="4.57415">
        <ele>1015.200012207</ele>
        <time>2019-10-30T09:34:13.000Z</time>
      </trkpt>
      <trkpt lat="45.3341" lon="4.57413">
        <ele>1015.4000244141</ele>
        <time>2019-10-30T09:34:14.000Z</time>
      </trkpt>
      <trkpt lat="45.33409" lon="4.57411">
        <ele>1015.5999755859</ele>
        <time>2019-10-30T09:34:15.000Z</time>
      </trkpt>
      <trkpt lat="45.33406" lon="4.57409">
        <ele>1015.799987793</ele>
        <time>2019-10-30T09:34:16.000Z</time>
      </trkpt>
      <trkpt lat="45.33403" lon="4.57408">
        <ele>1015.799987793</ele>
        <time>2019-10-30T09:34:17.000Z</time>
      </trkpt>
      <trkpt lat="45.33401" lon="4.57406">
        <ele>1015.799987793</ele>
        <time>2019-10-30T09:34:18.000Z</time>
      </trkpt>
      <trkpt lat="45.33399" lon="4.57404">
        <ele>1016.200012207</ele>
        <time>2019-10-30T09:34:19.000Z</time>
      </trkpt>
      <trkpt lat="45.33397" lon="4.57402">
        <ele>1016.200012207</ele>
        <time>2019-10-30T09:34:20.000Z</time>
      </trkpt>
      <trkpt lat="45.33396" lon="4.574">
        <ele>1016.4000244141</ele>
        <time>2019-10-30T09:34:21.000Z</time>
      </trkpt>
      <trkpt lat="45.33394" lon="4.57398">
        <ele>1016.4000244141</ele>
        <time>2019-10-30T09:34:22.000Z</time>
      </trkpt>
      <trkpt lat="45.33392" lon="4.57395">
        <ele>1016.5999755859</ele>
        <time>2019-10-30T09:34:23.000Z</time>
      </trkpt>
      <trkpt lat="45.3339" lon="4.57393">
        <ele>1016.799987793</ele>
        <time>2019-10-30T09:34:24.000Z</time>
      </trkpt>
      <trkpt lat="45.33386" lon="4.57387">
        <ele>1017</ele>
        <time>2019-10-30T09:34:26.000Z</time>
      </trkpt>
      <trkpt lat="45.33379" lon="4.57378">
        <ele>1017.4000244141</ele>
        <time>2019-10-30T09:34:29.000Z</time>
      </trkpt>
      <trkpt lat="45.33377" lon="4.57376">
        <ele>1017.4000244141</ele>
        <time>2019-10-30T09:34:30.000Z</time>
      </trkpt>
      <trkpt lat="45.33374" lon="4.57373">
        <ele>1017.4000244141</ele>
        <time>2019-10-30T09:34:31.000Z</time>
      </trkpt>
      <trkpt lat="45.33364" lon="4.5736">
        <ele>1017.5999755859</ele>
        <time>2019-10-30T09:34:35.000Z</time>
      </trkpt>
      <trkpt lat="45.33361" lon="4.57357">
        <ele>1017.4000244141</ele>
        <time>2019-10-30T09:34:36.000Z</time>
      </trkpt>
      <trkpt lat="45.33358" lon="4.57354">
        <ele>1017.4000244141</ele>
        <time>2019-10-30T09:34:37.000Z</time>
      </trkpt>
      <trkpt lat="45.33355" lon="4.57352">
        <ele>1017.5999755859</ele>
        <time>2019-10-30T09:34:38.000Z</time>
      </trkpt>
      <trkpt lat="45.33353" lon="4.57349">
        <ele>1017.5999755859</ele>
        <time>2019-10-30T09:34:39.000Z</time>
      </trkpt>
      <trkpt lat="45.3335" lon="4.57347">
        <ele>1017.5999755859</ele>
        <time>2019-10-30T09:34:40.000Z</time>
      </trkpt>
      <trkpt lat="45.33347" lon="4.57345">
        <ele>1017.4000244141</ele>
        <time>2019-10-30T09:34:41.000Z</time>
      </trkpt>
      <trkpt lat="45.33344" lon="4.57344">
        <ele>1017.5999755859</ele>
        <time>2019-10-30T09:34:42.000Z</time>
      </trkpt>
      <trkpt lat="45.33341" lon="4.57342">
        <ele>1017.4000244141</ele>
        <time>2019-10-30T09:34:43.000Z</time>
      </trkpt>
      <trkpt lat="45.33338" lon="4.57341">
        <ele>1017.5999755859</ele>
        <time>2019-10-30T09:34:44.000Z</time>
      </trkpt>
      <trkpt lat="45.33336" lon="4.57339">
        <ele>1017.4000244141</ele>
        <time>2019-10-30T09:34:45.000Z</time>
      </trkpt>
      <trkpt lat="45.33333" lon="4.57338">
        <ele>1017.4000244141</ele>
        <time>2019-10-30T09:34:46.000Z</time>
      </trkpt>
      <trkpt lat="45.3333" lon="4.57338">
        <ele>1017.4000244141</ele>
        <time>2019-10-30T09:34:47.000Z</time>
      </trkpt>
      <trkpt lat="45.33322" lon="4.57335">
        <ele>1017.4000244141</ele>
        <time>2019-10-30T09:34:50.000Z</time>
      </trkpt>
      <trkpt lat="45.33315" lon="4.57333">
        <ele>1017.4000244141</ele>
        <time>2019-10-30T09:34:52.000Z</time>
      </trkpt>
      <trkpt lat="45.33312" lon="4.57333">
        <ele>1017.200012207</ele>
        <time>2019-10-30T09:34:53.000Z</time>
      </trkpt>
      <trkpt lat="45.33308" lon="4.57333">
        <ele>1017.200012207</ele>
        <time>2019-10-30T09:34:54.000Z</time>
      </trkpt>
      <trkpt lat="45.33305" lon="4.57333">
        <ele>1017.200012207</ele>
        <time>2019-10-30T09:34:55.000Z</time>
      </trkpt>
      <trkpt lat="45.33302" lon="4.57333">
        <ele>1017.200012207</ele>
        <time>2019-10-30T09:34:56.000Z</time>
      </trkpt>
      <trkpt lat="45.33299" lon="4.57332">
        <ele>1017.200012207</ele>
        <time>2019-10-30T09:34:57.000Z</time>
      </trkpt>
      <trkpt lat="45.33296" lon="4.57331">
        <ele>1017</ele>
        <time>2019-10-30T09:34:58.000Z</time>
      </trkpt>
      <trkpt lat="45.33293" lon="4.57331">
        <ele>1017.200012207</ele>
        <time>2019-10-30T09:34:59.000Z</time>
      </trkpt>
      <trkpt lat="45.3329" lon="4.57331">
        <ele>1017.200012207</ele>
        <time>2019-10-30T09:35:00.000Z</time>
      </trkpt>
      <trkpt lat="45.33287" lon="4.57331">
        <ele>1017.200012207</ele>
        <time>2019-10-30T09:35:01.000Z</time>
      </trkpt>
      <trkpt lat="45.3328" lon="4.5733">
        <ele>1017.200012207</ele>
        <time>2019-10-30T09:35:03.000Z</time>
      </trkpt>
      <trkpt lat="45.33274" lon="4.5733">
        <ele>1017.200012207</ele>
        <time>2019-10-30T09:35:05.000Z</time>
      </trkpt>
      <trkpt lat="45.33271" lon="4.57329">
        <ele>1017.200012207</ele>
        <time>2019-10-30T09:35:06.000Z</time>
      </trkpt>
      <trkpt lat="45.33268" lon="4.57329">
        <ele>1017</ele>
        <time>2019-10-30T09:35:07.000Z</time>
      </trkpt>
      <trkpt lat="45.33265" lon="4.57328">
        <ele>1017</ele>
        <time>2019-10-30T09:35:08.000Z</time>
      </trkpt>
      <trkpt lat="45.33263" lon="4.57328">
        <ele>1017.4000244141</ele>
        <time>2019-10-30T09:35:09.000Z</time>
      </trkpt>
      <trkpt lat="45.3326" lon="4.57328">
        <ele>1017.200012207</ele>
        <time>2019-10-30T09:35:10.000Z</time>
      </trkpt>
      <trkpt lat="45.33257" lon="4.57328">
        <ele>1017.4000244141</ele>
        <time>2019-10-30T09:35:11.000Z</time>
      </trkpt>
      <trkpt lat="45.3325" lon="4.57326">
        <ele>1017.4000244141</ele>
        <time>2019-10-30T09:35:14.000Z</time>
      </trkpt>
      <trkpt lat="45.33247" lon="4.57326">
        <ele>1017.200012207</ele>
        <time>2019-10-30T09:35:15.000Z</time>
      </trkpt>
      <trkpt lat="45.33245" lon="4.57326">
        <ele>1017.4000244141</ele>
        <time>2019-10-30T09:35:16.000Z</time>
      </trkpt>
      <trkpt lat="45.33243" lon="4.57326">
        <ele>1017.4000244141</ele>
        <time>2019-10-30T09:35:17.000Z</time>
      </trkpt>
      <trkpt lat="45.33241" lon="4.57326">
        <ele>1017.5999755859</ele>
        <time>2019-10-30T09:35:18.000Z</time>
      </trkpt>
      <trkpt lat="45.33239" lon="4.57326">
        <ele>1017.4000244141</ele>
        <time>2019-10-30T09:35:19.000Z</time>
      </trkpt>
      <trkpt lat="45.33239" lon="4.57326">
        <ele>1017.5999755859</ele>
        <time>2019-10-30T09:35:20.000Z</time>
      </trkpt>
      <trkpt lat="45.33239" lon="4.57326">
        <ele>1017.5999755859</ele>
        <time>2019-10-30T09:35:21.000Z</time>
      </trkpt>
      <trkpt lat="45.33239" lon="4.57326">
        <ele>1017.5999755859</ele>
        <time>2019-10-30T09:35:35.000Z</time>
      </trkpt>
      <trkpt lat="45.33239" lon="4.57326">
        <ele>1017.799987793</ele>
        <time>2019-10-30T09:35:46.000Z</time>
      </trkpt>
      <trkpt lat="45.33239" lon="4.57326">
        <ele>1017.799987793</ele>
        <time>2019-10-30T09:36:13.000Z</time>
      </trkpt>
      <trkpt lat="45.33239" lon="4.57326">
        <ele>1017.5999755859</ele>
        <time>2019-10-30T09:36:29.000Z</time>
      </trkpt>
      <trkpt lat="45.33239" lon="4.57326">
        <ele>1017.5999755859</ele>
        <time>2019-10-30T09:36:43.000Z</time>
      </trkpt>
      <trkpt lat="45.33239" lon="4.57326">
        <ele>1017.5999755859</ele>
        <time>2019-10-30T09:36:52.000Z</time>
      </trkpt>
      <trkpt lat="45.33239" lon="4.57326">
        <ele>1017.5999755859</ele>
        <time>2019-10-30T09:36:53.000Z</time>
      </trkpt>
      <trkpt lat="45.33239" lon="4.57326">
        <ele>1017.5999755859</ele>
        <time>2019-10-30T09:36:54.000Z</time>
      </trkpt>
      <trkpt lat="45.33239" lon="4.57326">
        <ele>1017.5999755859</ele>
        <time>2019-10-30T09:36:55.000Z</time>
      </trkpt>
      <trkpt lat="45.33239" lon="4.57326">
        <ele>1017.5999755859</ele>
        <time>2019-10-30T09:36:56.000Z</time>
      </trkpt>
      <trkpt lat="45.33239" lon="4.57326">
        <ele>1017.5999755859</ele>
        <time>2019-10-30T09:36:57.000Z</time>
      </trkpt>
      <trkpt lat="45.33239" lon="4.57326">
        <ele>1017.5999755859</ele>
        <time>2019-10-30T09:36:59.000Z</time>
      </trkpt>
      <trkpt lat="45.33239" lon="4.57326">
        <ele>1017.5999755859</ele>
        <time>2019-10-30T09:37:00.000Z</time>
      </trkpt>
      <trkpt lat="45.33239" lon="4.57326">
        <ele>1017.5999755859</ele>
        <time>2019-10-30T09:37:01.000Z</time>
      </trkpt>
      <trkpt lat="45.33239" lon="4.57326">
        <ele>1017.5999755859</ele>
        <time>2019-10-30T09:37:02.000Z</time>
      </trkpt>
      <trkpt lat="45.33239" lon="4.57326">
        <ele>1017.799987793</ele>
        <time>2019-10-30T09:37:03.000Z</time>
      </trkpt>
      <trkpt lat="45.33239" lon="4.57326">
        <ele>1017.5999755859</ele>
        <time>2019-10-30T09:37:05.000Z</time>
      </trkpt>
      <trkpt lat="45.33239" lon="4.57326">
        <ele>1017.799987793</ele>
        <time>2019-10-30T09:37:09.000Z</time>
      </trkpt>
      <trkpt lat="45.33239" lon="4.57326">
        <ele>1017.5999755859</ele>
        <time>2019-10-30T09:37:19.000Z</time>
      </trkpt>
      <trkpt lat="45.33239" lon="4.57326">
        <ele>1017.4000244141</ele>
        <time>2019-10-30T09:37:37.000Z</time>
      </trkpt>
      <trkpt lat="45.33239" lon="4.57326">
        <ele>1017.5999755859</ele>
        <time>2019-10-30T09:37:38.000Z</time>
      </trkpt>
      <trkpt lat="45.33239" lon="4.57326">
        <ele>1017.5999755859</ele>
        <time>2019-10-30T09:37:39.000Z</time>
      </trkpt>
      <trkpt lat="45.33237" lon="4.57326">
        <ele>1017.5999755859</ele>
        <time>2019-10-30T09:37:45.000Z</time>
      </trkpt>
      <trkpt lat="45.33235" lon="4.57326">
        <ele>1017.4000244141</ele>
        <time>2019-10-30T09:37:46.000Z</time>
      </trkpt>
      <trkpt lat="45.33233" lon="4.57326">
        <ele>1017.5999755859</ele>
        <time>2019-10-30T09:37:47.000Z</time>
      </trkpt>
      <trkpt lat="45.33231" lon="4.57326">
        <ele>1017.5999755859</ele>
        <time>2019-10-30T09:37:48.000Z</time>
      </trkpt>
      <trkpt lat="45.33229" lon="4.57326">
        <ele>1017.5999755859</ele>
        <time>2019-10-30T09:37:49.000Z</time>
      </trkpt>
      <trkpt lat="45.33227" lon="4.57326">
        <ele>1017.799987793</ele>
        <time>2019-10-30T09:37:50.000Z</time>
      </trkpt>
      <trkpt lat="45.33225" lon="4.57325">
        <ele>1017.799987793</ele>
        <time>2019-10-30T09:37:51.000Z</time>
      </trkpt>
      <trkpt lat="45.33218" lon="4.57326">
        <ele>1017.799987793</ele>
        <time>2019-10-30T09:37:54.000Z</time>
      </trkpt>
      <trkpt lat="45.33215" lon="4.57326">
        <ele>1017.799987793</ele>
        <time>2019-10-30T09:37:55.000Z</time>
      </trkpt>
      <trkpt lat="45.33207" lon="4.57325">
        <ele>1017.799987793</ele>
        <time>2019-10-30T09:37:58.000Z</time>
      </trkpt>
      <trkpt lat="45.33205" lon="4.57325">
        <ele>1018</ele>
        <time>2019-10-30T09:37:59.000Z</time>
      </trkpt>
      <trkpt lat="45.33203" lon="4.57325">
        <ele>1018</ele>
        <time>2019-10-30T09:38:00.000Z</time>
      </trkpt>
      <trkpt lat="45.33201" lon="4.57325">
        <ele>1018</ele>
        <time>2019-10-30T09:38:01.000Z</time>
      </trkpt>
      <trkpt lat="45.33199" lon="4.57325">
        <ele>1018</ele>
        <time>2019-10-30T09:38:02.000Z</time>
      </trkpt>
      <trkpt lat="45.33197" lon="4.57324">
        <ele>1018</ele>
        <time>2019-10-30T09:38:03.000Z</time>
      </trkpt>
      <trkpt lat="45.33195" lon="4.57324">
        <ele>1018</ele>
        <time>2019-10-30T09:38:04.000Z</time>
      </trkpt>
      <trkpt lat="45.33193" lon="4.57323">
        <ele>1018</ele>
        <time>2019-10-30T09:38:05.000Z</time>
      </trkpt>
      <trkpt lat="45.33191" lon="4.57322">
        <ele>1018</ele>
        <time>2019-10-30T09:38:06.000Z</time>
      </trkpt>
      <trkpt lat="45.33189" lon="4.57322">
        <ele>1018</ele>
        <time>2019-10-30T09:38:07.000Z</time>
      </trkpt>
      <trkpt lat="45.33188" lon="4.57322">
        <ele>1018.200012207</ele>
        <time>2019-10-30T09:38:08.000Z</time>
      </trkpt>
      <trkpt lat="45.33186" lon="4.57323">
        <ele>1018.200012207</ele>
        <time>2019-10-30T09:38:09.000Z</time>
      </trkpt>
      <trkpt lat="45.33184" lon="4.57324">
        <ele>1018.4000244141</ele>
        <time>2019-10-30T09:38:10.000Z</time>
      </trkpt>
      <trkpt lat="45.33183" lon="4.57325">
        <ele>1018.4000244141</ele>
        <time>2019-10-30T09:38:11.000Z</time>
      </trkpt>
      <trkpt lat="45.33181" lon="4.57326">
        <ele>1018.4000244141</ele>
        <time>2019-10-30T09:38:12.000Z</time>
      </trkpt>
      <trkpt lat="45.3318" lon="4.57328">
        <ele>1018.5999755859</ele>
        <time>2019-10-30T09:38:13.000Z</time>
      </trkpt>
      <trkpt lat="45.3318" lon="4.57329">
        <ele>1018.799987793</ele>
        <time>2019-10-30T09:38:14.000Z</time>
      </trkpt>
      <trkpt lat="45.33179" lon="4.57331">
        <ele>1018.799987793</ele>
        <time>2019-10-30T09:38:15.000Z</time>
      </trkpt>
      <trkpt lat="45.33179" lon="4.57333">
        <ele>1019</ele>
        <time>2019-10-30T09:38:16.000Z</time>
      </trkpt>
      <trkpt lat="45.33178" lon="4.57334">
        <ele>1019.200012207</ele>
        <time>2019-10-30T09:38:17.000Z</time>
      </trkpt>
      <trkpt lat="45.33178" lon="4.57336">
        <ele>1019.200012207</ele>
        <time>2019-10-30T09:38:18.000Z</time>
      </trkpt>
      <trkpt lat="45.33178" lon="4.57338">
        <ele>1019.200012207</ele>
        <time>2019-10-30T09:38:19.000Z</time>
      </trkpt>
      <trkpt lat="45.33178" lon="4.57341">
        <ele>1019.4000244141</ele>
        <time>2019-10-30T09:38:20.000Z</time>
      </trkpt>
      <trkpt lat="45.33177" lon="4.57344">
        <ele>1019.5999755859</ele>
        <time>2019-10-30T09:38:21.000Z</time>
      </trkpt>
      <trkpt lat="45.33177" lon="4.57346">
        <ele>1020</ele>
        <time>2019-10-30T09:38:22.000Z</time>
      </trkpt>
      <trkpt lat="45.33176" lon="4.57348">
        <ele>1020</ele>
        <time>2019-10-30T09:38:23.000Z</time>
      </trkpt>
      <trkpt lat="45.33175" lon="4.57351">
        <ele>1020.4000244141</ele>
        <time>2019-10-30T09:38:24.000Z</time>
      </trkpt>
      <trkpt lat="45.33175" lon="4.57354">
        <ele>1020.4000244141</ele>
        <time>2019-10-30T09:38:25.000Z</time>
      </trkpt>
      <trkpt lat="45.33174" lon="4.57357">
        <ele>1020.799987793</ele>
        <time>2019-10-30T09:38:26.000Z</time>
      </trkpt>
      <trkpt lat="45.33173" lon="4.5736">
        <ele>1021</ele>
        <time>2019-10-30T09:38:27.000Z</time>
      </trkpt>
      <trkpt lat="45.33172" lon="4.57363">
        <ele>1021</ele>
        <time>2019-10-30T09:38:28.000Z</time>
      </trkpt>
      <trkpt lat="45.33171" lon="4.57365">
        <ele>1021</ele>
        <time>2019-10-30T09:38:29.000Z</time>
      </trkpt>
      <trkpt lat="45.3317" lon="4.57368">
        <ele>1021.200012207</ele>
        <time>2019-10-30T09:38:30.000Z</time>
      </trkpt>
      <trkpt lat="45.33168" lon="4.57372">
        <ele>1021.4000244141</ele>
        <time>2019-10-30T09:38:32.000Z</time>
      </trkpt>
      <trkpt lat="45.33167" lon="4.57373">
        <ele>1021.799987793</ele>
        <time>2019-10-30T09:38:33.000Z</time>
      </trkpt>
      <trkpt lat="45.33166" lon="4.57375">
        <ele>1021.799987793</ele>
        <time>2019-10-30T09:38:34.000Z</time>
      </trkpt>
      <trkpt lat="45.33165" lon="4.57377">
        <ele>1021.799987793</ele>
        <time>2019-10-30T09:38:35.000Z</time>
      </trkpt>
      <trkpt lat="45.33163" lon="4.5738">
        <ele>1022</ele>
        <time>2019-10-30T09:38:36.000Z</time>
      </trkpt>
      <trkpt lat="45.33162" lon="4.57381">
        <ele>1022.200012207</ele>
        <time>2019-10-30T09:38:37.000Z</time>
      </trkpt>
      <trkpt lat="45.3316" lon="4.57383">
        <ele>1022</ele>
        <time>2019-10-30T09:38:38.000Z</time>
      </trkpt>
      <trkpt lat="45.3316" lon="4.57385">
        <ele>1022.200012207</ele>
        <time>2019-10-30T09:38:39.000Z</time>
      </trkpt>
      <trkpt lat="45.33158" lon="4.57388">
        <ele>1022.200012207</ele>
        <time>2019-10-30T09:38:40.000Z</time>
      </trkpt>
      <trkpt lat="45.33158" lon="4.5739">
        <ele>1022.4000244141</ele>
        <time>2019-10-30T09:38:41.000Z</time>
      </trkpt>
      <trkpt lat="45.33157" lon="4.57392">
        <ele>1022.4000244141</ele>
        <time>2019-10-30T09:38:42.000Z</time>
      </trkpt>
      <trkpt lat="45.33157" lon="4.57394">
        <ele>1022.4000244141</ele>
        <time>2019-10-30T09:38:43.000Z</time>
      </trkpt>
      <trkpt lat="45.33156" lon="4.57397">
        <ele>1022.5999755859</ele>
        <time>2019-10-30T09:38:44.000Z</time>
      </trkpt>
      <trkpt lat="45.33155" lon="4.57399">
        <ele>1022.5999755859</ele>
        <time>2019-10-30T09:38:45.000Z</time>
      </trkpt>
      <trkpt lat="45.33154" lon="4.57402">
        <ele>1023</ele>
        <time>2019-10-30T09:38:46.000Z</time>
      </trkpt>
      <trkpt lat="45.33154" lon="4.57404">
        <ele>1023.200012207</ele>
        <time>2019-10-30T09:38:47.000Z</time>
      </trkpt>
      <trkpt lat="45.33153" lon="4.57407">
        <ele>1023.200012207</ele>
        <time>2019-10-30T09:38:48.000Z</time>
      </trkpt>
      <trkpt lat="45.33153" lon="4.5741">
        <ele>1023.4000244141</ele>
        <time>2019-10-30T09:38:49.000Z</time>
      </trkpt>
      <trkpt lat="45.33152" lon="4.57412">
        <ele>1023.5999755859</ele>
        <time>2019-10-30T09:38:50.000Z</time>
      </trkpt>
      <trkpt lat="45.33152" lon="4.57414">
        <ele>1023.5999755859</ele>
        <time>2019-10-30T09:38:51.000Z</time>
      </trkpt>
      <trkpt lat="45.33151" lon="4.57417">
        <ele>1024</ele>
        <time>2019-10-30T09:38:52.000Z</time>
      </trkpt>
      <trkpt lat="45.3315" lon="4.57419">
        <ele>1024.1999511719</ele>
        <time>2019-10-30T09:38:53.000Z</time>
      </trkpt>
      <trkpt lat="45.3315" lon="4.57422">
        <ele>1024.1999511719</ele>
        <time>2019-10-30T09:38:54.000Z</time>
      </trkpt>
      <trkpt lat="45.33149" lon="4.57424">
        <ele>1024.4000244141</ele>
        <time>2019-10-30T09:38:55.000Z</time>
      </trkpt>
      <trkpt lat="45.33148" lon="4.57427">
        <ele>1024.5999755859</ele>
        <time>2019-10-30T09:38:56.000Z</time>
      </trkpt>
      <trkpt lat="45.33147" lon="4.57429">
        <ele>1024.5999755859</ele>
        <time>2019-10-30T09:38:57.000Z</time>
      </trkpt>
      <trkpt lat="45.33145" lon="4.57431">
        <ele>1024.8000488281</ele>
        <time>2019-10-30T09:38:58.000Z</time>
      </trkpt>
      <trkpt lat="45.33144" lon="4.57434">
        <ele>1025</ele>
        <time>2019-10-30T09:38:59.000Z</time>
      </trkpt>
      <trkpt lat="45.33143" lon="4.57436">
        <ele>1025.1999511719</ele>
        <time>2019-10-30T09:39:00.000Z</time>
      </trkpt>
      <trkpt lat="45.33141" lon="4.57438">
        <ele>1025.4000244141</ele>
        <time>2019-10-30T09:39:01.000Z</time>
      </trkpt>
      <trkpt lat="45.3314" lon="4.5744">
        <ele>1025.4000244141</ele>
        <time>2019-10-30T09:39:02.000Z</time>
      </trkpt>
      <trkpt lat="45.33137" lon="4.57443">
        <ele>1025.1999511719</ele>
        <time>2019-10-30T09:39:03.000Z</time>
      </trkpt>
      <trkpt lat="45.33128" lon="4.57454">
        <ele>1025.1999511719</ele>
        <time>2019-10-30T09:39:06.000Z</time>
      </trkpt>
      <trkpt lat="45.33124" lon="4.57458">
        <ele>1025.1999511719</ele>
        <time>2019-10-30T09:39:07.000Z</time>
      </trkpt>
      <trkpt lat="45.33115" lon="4.57468">
        <ele>1025.1999511719</ele>
        <time>2019-10-30T09:39:10.000Z</time>
      </trkpt>
      <trkpt lat="45.33112" lon="4.57471">
        <ele>1024.8000488281</ele>
        <time>2019-10-30T09:39:11.000Z</time>
      </trkpt>
      <trkpt lat="45.33108" lon="4.57474">
        <ele>1024.4000244141</ele>
        <time>2019-10-30T09:39:12.000Z</time>
      </trkpt>
      <trkpt lat="45.33105" lon="4.57478">
        <ele>1023.799987793</ele>
        <time>2019-10-30T09:39:13.000Z</time>
      </trkpt>
      <trkpt lat="45.33102" lon="4.5748">
        <ele>1023.4000244141</ele>
        <time>2019-10-30T09:39:14.000Z</time>
      </trkpt>
      <trkpt lat="45.33098" lon="4.57484">
        <ele>1023.200012207</ele>
        <time>2019-10-30T09:39:15.000Z</time>
      </trkpt>
      <trkpt lat="45.33091" lon="4.57489">
        <ele>1022.5999755859</ele>
        <time>2019-10-30T09:39:17.000Z</time>
      </trkpt>
      <trkpt lat="45.33083" lon="4.57494">
        <ele>1022</ele>
        <time>2019-10-30T09:39:19.000Z</time>
      </trkpt>
      <trkpt lat="45.33079" lon="4.57496">
        <ele>1022</ele>
        <time>2019-10-30T09:39:20.000Z</time>
      </trkpt>
      <trkpt lat="45.33075" lon="4.57498">
        <ele>1021.799987793</ele>
        <time>2019-10-30T09:39:21.000Z</time>
      </trkpt>
      <trkpt lat="45.3307" lon="4.575">
        <ele>1021.5999755859</ele>
        <time>2019-10-30T09:39:22.000Z</time>
      </trkpt>
      <trkpt lat="45.33065" lon="4.57503">
        <ele>1021.4000244141</ele>
        <time>2019-10-30T09:39:23.000Z</time>
      </trkpt>
      <trkpt lat="45.33059" lon="4.57504">
        <ele>1021.200012207</ele>
        <time>2019-10-30T09:39:24.000Z</time>
      </trkpt>
      <trkpt lat="45.33055" lon="4.57506">
        <ele>1021.200012207</ele>
        <time>2019-10-30T09:39:25.000Z</time>
      </trkpt>
      <trkpt lat="45.3305" lon="4.57508">
        <ele>1021</ele>
        <time>2019-10-30T09:39:26.000Z</time>
      </trkpt>
      <trkpt lat="45.33046" lon="4.5751">
        <ele>1020.799987793</ele>
        <time>2019-10-30T09:39:27.000Z</time>
      </trkpt>
      <trkpt lat="45.33041" lon="4.57511">
        <ele>1020.4000244141</ele>
        <time>2019-10-30T09:39:28.000Z</time>
      </trkpt>
      <trkpt lat="45.33036" lon="4.57512">
        <ele>1019.799987793</ele>
        <time>2019-10-30T09:39:29.000Z</time>
      </trkpt>
      <trkpt lat="45.33031" lon="4.57514">
        <ele>1019</ele>
        <time>2019-10-30T09:39:30.000Z</time>
      </trkpt>
      <trkpt lat="45.33024" lon="4.57516">
        <ele>1018</ele>
        <time>2019-10-30T09:39:32.000Z</time>
      </trkpt>
      <trkpt lat="45.33021" lon="4.57517">
        <ele>1017.5999755859</ele>
        <time>2019-10-30T09:39:33.000Z</time>
      </trkpt>
      <trkpt lat="45.33017" lon="4.57516">
        <ele>1017.200012207</ele>
        <time>2019-10-30T09:39:34.000Z</time>
      </trkpt>
      <trkpt lat="45.33013" lon="4.57515">
        <ele>1016.4000244141</ele>
        <time>2019-10-30T09:39:35.000Z</time>
      </trkpt>
      <trkpt lat="45.33009" lon="4.57515">
        <ele>1016.200012207</ele>
        <time>2019-10-30T09:39:36.000Z</time>
      </trkpt>
      <trkpt lat="45.33005" lon="4.57514">
        <ele>1015.5999755859</ele>
        <time>2019-10-30T09:39:37.000Z</time>
      </trkpt>
      <trkpt lat="45.33001" lon="4.57513">
        <ele>1015.4000244141</ele>
        <time>2019-10-30T09:39:38.000Z</time>
      </trkpt>
      <trkpt lat="45.32997" lon="4.5751">
        <ele>1014.799987793</ele>
        <time>2019-10-30T09:39:39.000Z</time>
      </trkpt>
      <trkpt lat="45.32993" lon="4.57508">
        <ele>1014.5999755859</ele>
        <time>2019-10-30T09:39:40.000Z</time>
      </trkpt>
      <trkpt lat="45.32986" lon="4.57505">
        <ele>1014</ele>
        <time>2019-10-30T09:39:42.000Z</time>
      </trkpt>
      <trkpt lat="45.32983" lon="4.57503">
        <ele>1013.200012207</ele>
        <time>2019-10-30T09:39:43.000Z</time>
      </trkpt>
      <trkpt lat="45.32979" lon="4.57502">
        <ele>1012.799987793</ele>
        <time>2019-10-30T09:39:44.000Z</time>
      </trkpt>
      <trkpt lat="45.32975" lon="4.57502">
        <ele>1012.4000244141</ele>
        <time>2019-10-30T09:39:45.000Z</time>
      </trkpt>
      <trkpt lat="45.32968" lon="4.57501">
        <ele>1011.799987793</ele>
        <time>2019-10-30T09:39:47.000Z</time>
      </trkpt>
      <trkpt lat="45.32964" lon="4.57502">
        <ele>1011.5999755859</ele>
        <time>2019-10-30T09:39:48.000Z</time>
      </trkpt>
      <trkpt lat="45.32958" lon="4.57503">
        <ele>1011.200012207</ele>
        <time>2019-10-30T09:39:49.000Z</time>
      </trkpt>
      <trkpt lat="45.32949" lon="4.57509">
        <ele>1009.4000244141</ele>
        <time>2019-10-30T09:39:51.000Z</time>
      </trkpt>
      <trkpt lat="45.32946" lon="4.57512">
        <ele>1008.5999755859</ele>
        <time>2019-10-30T09:39:52.000Z</time>
      </trkpt>
      <trkpt lat="45.32944" lon="4.57514">
        <ele>1008</ele>
        <time>2019-10-30T09:39:53.000Z</time>
      </trkpt>
      <trkpt lat="45.32941" lon="4.57519">
        <ele>1007.799987793</ele>
        <time>2019-10-30T09:39:54.000Z</time>
      </trkpt>
      <trkpt lat="45.3294" lon="4.57522">
        <ele>1007.5999755859</ele>
        <time>2019-10-30T09:39:55.000Z</time>
      </trkpt>
      <trkpt lat="45.32939" lon="4.57524">
        <ele>1007.5999755859</ele>
        <time>2019-10-30T09:39:56.000Z</time>
      </trkpt>
      <trkpt lat="45.3294" lon="4.57527">
        <ele>1007.200012207</ele>
        <time>2019-10-30T09:39:57.000Z</time>
      </trkpt>
      <trkpt lat="45.32941" lon="4.57538">
        <ele>1005.5999755859</ele>
        <time>2019-10-30T09:40:00.000Z</time>
      </trkpt>
      <trkpt lat="45.32941" lon="4.57547">
        <ele>1004.4000244141</ele>
        <time>2019-10-30T09:40:02.000Z</time>
      </trkpt>
      <trkpt lat="45.3294" lon="4.57551">
        <ele>1003.799987793</ele>
        <time>2019-10-30T09:40:03.000Z</time>
      </trkpt>
      <trkpt lat="45.32938" lon="4.57555">
        <ele>1003.200012207</ele>
        <time>2019-10-30T09:40:04.000Z</time>
      </trkpt>
      <trkpt lat="45.32935" lon="4.57558">
        <ele>1003</ele>
        <time>2019-10-30T09:40:05.000Z</time>
      </trkpt>
      <trkpt lat="45.32932" lon="4.57561">
        <ele>1002.5999755859</ele>
        <time>2019-10-30T09:40:06.000Z</time>
      </trkpt>
      <trkpt lat="45.32924" lon="4.57565">
        <ele>1002</ele>
        <time>2019-10-30T09:40:08.000Z</time>
      </trkpt>
      <trkpt lat="45.3292" lon="4.57566">
        <ele>1001.799987793</ele>
        <time>2019-10-30T09:40:09.000Z</time>
      </trkpt>
      <trkpt lat="45.32912" lon="4.5757">
        <ele>1001.200012207</ele>
        <time>2019-10-30T09:40:11.000Z</time>
      </trkpt>
      <trkpt lat="45.32908" lon="4.57572">
        <ele>1001.200012207</ele>
        <time>2019-10-30T09:40:12.000Z</time>
      </trkpt>
      <trkpt lat="45.32902" lon="4.57575">
        <ele>1000.5999755859</ele>
        <time>2019-10-30T09:40:14.000Z</time>
      </trkpt>
      <trkpt lat="45.32899" lon="4.57576">
        <ele>1000.4000244141</ele>
        <time>2019-10-30T09:40:15.000Z</time>
      </trkpt>
      <trkpt lat="45.32896" lon="4.57579">
        <ele>1000.4000244141</ele>
        <time>2019-10-30T09:40:16.000Z</time>
      </trkpt>
      <trkpt lat="45.32893" lon="4.57582">
        <ele>999.79998779297</ele>
        <time>2019-10-30T09:40:17.000Z</time>
      </trkpt>
      <trkpt lat="45.32889" lon="4.57584">
        <ele>999.59997558594</ele>
        <time>2019-10-30T09:40:18.000Z</time>
      </trkpt>
      <trkpt lat="45.32885" lon="4.57587">
        <ele>999.40002441406</ele>
        <time>2019-10-30T09:40:19.000Z</time>
      </trkpt>
      <trkpt lat="45.32872" lon="4.57603">
        <ele>999</ele>
        <time>2019-10-30T09:40:22.000Z</time>
      </trkpt>
      <trkpt lat="45.32866" lon="4.57612">
        <ele>999</ele>
        <time>2019-10-30T09:40:24.000Z</time>
      </trkpt>
      <trkpt lat="45.32863" lon="4.57615">
        <ele>999</ele>
        <time>2019-10-30T09:40:25.000Z</time>
      </trkpt>
      <trkpt lat="45.32861" lon="4.57619">
        <ele>998.79998779297</ele>
        <time>2019-10-30T09:40:26.000Z</time>
      </trkpt>
      <trkpt lat="45.32858" lon="4.57626">
        <ele>998.79998779297</ele>
        <time>2019-10-30T09:40:27.000Z</time>
      </trkpt>
      <trkpt lat="45.32855" lon="4.57631">
        <ele>998.79998779297</ele>
        <time>2019-10-30T09:40:28.000Z</time>
      </trkpt>
      <trkpt lat="45.32853" lon="4.57634">
        <ele>998.59997558594</ele>
        <time>2019-10-30T09:40:29.000Z</time>
      </trkpt>
      <trkpt lat="45.32852" lon="4.57637">
        <ele>998.59997558594</ele>
        <time>2019-10-30T09:40:30.000Z</time>
      </trkpt>
      <trkpt lat="45.32851" lon="4.5764">
        <ele>998.40002441406</ele>
        <time>2019-10-30T09:40:31.000Z</time>
      </trkpt>
      <trkpt lat="45.32849" lon="4.57643">
        <ele>998.20001220703</ele>
        <time>2019-10-30T09:40:32.000Z</time>
      </trkpt>
      <trkpt lat="45.32847" lon="4.57646">
        <ele>998.20001220703</ele>
        <time>2019-10-30T09:40:33.000Z</time>
      </trkpt>
      <trkpt lat="45.32845" lon="4.57649">
        <ele>998.20001220703</ele>
        <time>2019-10-30T09:40:34.000Z</time>
      </trkpt>
      <trkpt lat="45.32844" lon="4.57652">
        <ele>998</ele>
        <time>2019-10-30T09:40:35.000Z</time>
      </trkpt>
      <trkpt lat="45.3284" lon="4.57657">
        <ele>997.79998779297</ele>
        <time>2019-10-30T09:40:37.000Z</time>
      </trkpt>
      <trkpt lat="45.32838" lon="4.57659">
        <ele>997.79998779297</ele>
        <time>2019-10-30T09:40:38.000Z</time>
      </trkpt>
      <trkpt lat="45.32836" lon="4.57661">
        <ele>998</ele>
        <time>2019-10-30T09:40:39.000Z</time>
      </trkpt>
      <trkpt lat="45.32834" lon="4.57664">
        <ele>998</ele>
        <time>2019-10-30T09:40:40.000Z</time>
      </trkpt>
      <trkpt lat="45.32832" lon="4.57667">
        <ele>997.79998779297</ele>
        <time>2019-10-30T09:40:41.000Z</time>
      </trkpt>
      <trkpt lat="45.32826" lon="4.57674">
        <ele>997.59997558594</ele>
        <time>2019-10-30T09:40:43.000Z</time>
      </trkpt>
      <trkpt lat="45.32823" lon="4.57678">
        <ele>997.59997558594</ele>
        <time>2019-10-30T09:40:44.000Z</time>
      </trkpt>
      <trkpt lat="45.32821" lon="4.57682">
        <ele>997.59997558594</ele>
        <time>2019-10-30T09:40:45.000Z</time>
      </trkpt>
      <trkpt lat="45.32818" lon="4.57687">
        <ele>997.40002441406</ele>
        <time>2019-10-30T09:40:46.000Z</time>
      </trkpt>
      <trkpt lat="45.32815" lon="4.57691">
        <ele>997</ele>
        <time>2019-10-30T09:40:47.000Z</time>
      </trkpt>
      <trkpt lat="45.32812" lon="4.57696">
        <ele>996.79998779297</ele>
        <time>2019-10-30T09:40:48.000Z</time>
      </trkpt>
      <trkpt lat="45.32808" lon="4.57702">
        <ele>996.59997558594</ele>
        <time>2019-10-30T09:40:50.000Z</time>
      </trkpt>
      <trkpt lat="45.32807" lon="4.57705">
        <ele>996.59997558594</ele>
        <time>2019-10-30T09:40:51.000Z</time>
      </trkpt>
      <trkpt lat="45.32805" lon="4.57708">
        <ele>996.40002441406</ele>
        <time>2019-10-30T09:40:52.000Z</time>
      </trkpt>
      <trkpt lat="45.32803" lon="4.57711">
        <ele>996.40002441406</ele>
        <time>2019-10-30T09:40:53.000Z</time>
      </trkpt>
      <trkpt lat="45.32802" lon="4.57714">
        <ele>996.40002441406</ele>
        <time>2019-10-30T09:40:54.000Z</time>
      </trkpt>
      <trkpt lat="45.32801" lon="4.57717">
        <ele>996.40002441406</ele>
        <time>2019-10-30T09:40:55.000Z</time>
      </trkpt>
      <trkpt lat="45.32798" lon="4.57727">
        <ele>996.40002441406</ele>
        <time>2019-10-30T09:40:57.000Z</time>
      </trkpt>
      <trkpt lat="45.32797" lon="4.57731">
        <ele>996.20001220703</ele>
        <time>2019-10-30T09:40:58.000Z</time>
      </trkpt>
      <trkpt lat="45.32796" lon="4.57734">
        <ele>996.20001220703</ele>
        <time>2019-10-30T09:40:59.000Z</time>
      </trkpt>
      <trkpt lat="45.32793" lon="4.57738">
        <ele>996</ele>
        <time>2019-10-30T09:41:00.000Z</time>
      </trkpt>
      <trkpt lat="45.32789" lon="4.57741">
        <ele>995.79998779297</ele>
        <time>2019-10-30T09:41:01.000Z</time>
      </trkpt>
      <trkpt lat="45.32783" lon="4.57744">
        <ele>996</ele>
        <time>2019-10-30T09:41:02.000Z</time>
      </trkpt>
      <trkpt lat="45.32763" lon="4.57754">
        <ele>995.40002441406</ele>
        <time>2019-10-30T09:41:05.000Z</time>
      </trkpt>
      <trkpt lat="45.32756" lon="4.57757">
        <ele>994.79998779297</ele>
        <time>2019-10-30T09:41:06.000Z</time>
      </trkpt>
      <trkpt lat="45.32749" lon="4.5776">
        <ele>994.59997558594</ele>
        <time>2019-10-30T09:41:07.000Z</time>
      </trkpt>
      <trkpt lat="45.32731" lon="4.57764">
        <ele>993.59997558594</ele>
        <time>2019-10-30T09:41:09.000Z</time>
      </trkpt>
      <trkpt lat="45.32723" lon="4.57767">
        <ele>993</ele>
        <time>2019-10-30T09:41:10.000Z</time>
      </trkpt>
      <trkpt lat="45.32715" lon="4.57769">
        <ele>992.40002441406</ele>
        <time>2019-10-30T09:41:11.000Z</time>
      </trkpt>
      <trkpt lat="45.32698" lon="4.57774">
        <ele>991.40002441406</ele>
        <time>2019-10-30T09:41:13.000Z</time>
      </trkpt>
      <trkpt lat="45.32691" lon="4.57777">
        <ele>990.40002441406</ele>
        <time>2019-10-30T09:41:14.000Z</time>
      </trkpt>
      <trkpt lat="45.32676" lon="4.57782">
        <ele>988.59997558594</ele>
        <time>2019-10-30T09:41:16.000Z</time>
      </trkpt>
      <trkpt lat="45.32669" lon="4.57784">
        <ele>988</ele>
        <time>2019-10-30T09:41:17.000Z</time>
      </trkpt>
      <trkpt lat="45.32663" lon="4.57786">
        <ele>987.20001220703</ele>
        <time>2019-10-30T09:41:18.000Z</time>
      </trkpt>
      <trkpt lat="45.32659" lon="4.57787">
        <ele>986.59997558594</ele>
        <time>2019-10-30T09:41:19.000Z</time>
      </trkpt>
      <trkpt lat="45.32656" lon="4.57788">
        <ele>986.40002441406</ele>
        <time>2019-10-30T09:41:20.000Z</time>
      </trkpt>
      <trkpt lat="45.32654" lon="4.57789">
        <ele>986.20001220703</ele>
        <time>2019-10-30T09:41:21.000Z</time>
      </trkpt>
      <trkpt lat="45.32653" lon="4.57789">
        <ele>986</ele>
        <time>2019-10-30T09:41:22.000Z</time>
      </trkpt>
      <trkpt lat="45.32652" lon="4.57788">
        <ele>986.20001220703</ele>
        <time>2019-10-30T09:41:23.000Z</time>
      </trkpt>
      <trkpt lat="45.32651" lon="4.57786">
        <ele>986.20001220703</ele>
        <time>2019-10-30T09:41:24.000Z</time>
      </trkpt>
      <trkpt lat="45.3265" lon="4.57785">
        <ele>986</ele>
        <time>2019-10-30T09:41:25.000Z</time>
      </trkpt>
      <trkpt lat="45.32649" lon="4.57784">
        <ele>986.20001220703</ele>
        <time>2019-10-30T09:41:26.000Z</time>
      </trkpt>
      <trkpt lat="45.32648" lon="4.57782">
        <ele>986</ele>
        <time>2019-10-30T09:41:27.000Z</time>
      </trkpt>
      <trkpt lat="45.32647" lon="4.5778">
        <ele>986.20001220703</ele>
        <time>2019-10-30T09:41:28.000Z</time>
      </trkpt>
      <trkpt lat="45.32646" lon="4.57777">
        <ele>986</ele>
        <time>2019-10-30T09:41:29.000Z</time>
      </trkpt>
      <trkpt lat="45.32646" lon="4.57774">
        <ele>986</ele>
        <time>2019-10-30T09:41:30.000Z</time>
      </trkpt>
      <trkpt lat="45.32646" lon="4.57771">
        <ele>986</ele>
        <time>2019-10-30T09:41:31.000Z</time>
      </trkpt>
      <trkpt lat="45.32645" lon="4.57767">
        <ele>986</ele>
        <time>2019-10-30T09:41:32.000Z</time>
      </trkpt>
      <trkpt lat="45.32645" lon="4.57762">
        <ele>986.20001220703</ele>
        <time>2019-10-30T09:41:33.000Z</time>
      </trkpt>
      <trkpt lat="45.32645" lon="4.57758">
        <ele>986</ele>
        <time>2019-10-30T09:41:34.000Z</time>
      </trkpt>
      <trkpt lat="45.32644" lon="4.57749">
        <ele>986</ele>
        <time>2019-10-30T09:41:36.000Z</time>
      </trkpt>
      <trkpt lat="45.32643" lon="4.57744">
        <ele>986</ele>
        <time>2019-10-30T09:41:37.000Z</time>
      </trkpt>
      <trkpt lat="45.32641" lon="4.57738">
        <ele>986</ele>
        <time>2019-10-30T09:41:38.000Z</time>
      </trkpt>
      <trkpt lat="45.32639" lon="4.57732">
        <ele>986</ele>
        <time>2019-10-30T09:41:39.000Z</time>
      </trkpt>
      <trkpt lat="45.32638" lon="4.57725">
        <ele>985.40002441406</ele>
        <time>2019-10-30T09:41:40.000Z</time>
      </trkpt>
      <trkpt lat="45.32636" lon="4.57719">
        <ele>985.20001220703</ele>
        <time>2019-10-30T09:41:41.000Z</time>
      </trkpt>
      <trkpt lat="45.32634" lon="4.57712">
        <ele>984.79998779297</ele>
        <time>2019-10-30T09:41:42.000Z</time>
      </trkpt>
      <trkpt lat="45.32633" lon="4.57705">
        <ele>984.20001220703</ele>
        <time>2019-10-30T09:41:43.000Z</time>
      </trkpt>
      <trkpt lat="45.32631" lon="4.57698">
        <ele>984</ele>
        <time>2019-10-30T09:41:44.000Z</time>
      </trkpt>
      <trkpt lat="45.32629" lon="4.57691">
        <ele>983.79998779297</ele>
        <time>2019-10-30T09:41:45.000Z</time>
      </trkpt>
      <trkpt lat="45.32625" lon="4.57684">
        <ele>983</ele>
        <time>2019-10-30T09:41:46.000Z</time>
      </trkpt>
      <trkpt lat="45.32621" lon="4.57679">
        <ele>982.59997558594</ele>
        <time>2019-10-30T09:41:47.000Z</time>
      </trkpt>
      <trkpt lat="45.32616" lon="4.57674">
        <ele>982.20001220703</ele>
        <time>2019-10-30T09:41:48.000Z</time>
      </trkpt>
      <trkpt lat="45.32611" lon="4.57668">
        <ele>981.79998779297</ele>
        <time>2019-10-30T09:41:49.000Z</time>
      </trkpt>
      <trkpt lat="45.32602" lon="4.57656">
        <ele>979.40002441406</ele>
        <time>2019-10-30T09:41:51.000Z</time>
      </trkpt>
      <trkpt lat="45.32597" lon="4.57651">
        <ele>978.40002441406</ele>
        <time>2019-10-30T09:41:52.000Z</time>
      </trkpt>
      <trkpt lat="45.32593" lon="4.57646">
        <ele>977.40002441406</ele>
        <time>2019-10-30T09:41:53.000Z</time>
      </trkpt>
      <trkpt lat="45.3259" lon="4.57641">
        <ele>976.40002441406</ele>
        <time>2019-10-30T09:41:54.000Z</time>
      </trkpt>
      <trkpt lat="45.32586" lon="4.57636">
        <ele>975.40002441406</ele>
        <time>2019-10-30T09:41:55.000Z</time>
      </trkpt>
      <trkpt lat="45.32581" lon="4.57632">
        <ele>975.40002441406</ele>
        <time>2019-10-30T09:41:56.000Z</time>
      </trkpt>
      <trkpt lat="45.32573" lon="4.57624">
        <ele>974.40002441406</ele>
        <time>2019-10-30T09:41:58.000Z</time>
      </trkpt>
      <trkpt lat="45.32569" lon="4.5762">
        <ele>974.20001220703</ele>
        <time>2019-10-30T09:41:59.000Z</time>
      </trkpt>
      <trkpt lat="45.32566" lon="4.57616">
        <ele>973.79998779297</ele>
        <time>2019-10-30T09:42:00.000Z</time>
      </trkpt>
      <trkpt lat="45.32564" lon="4.57612">
        <ele>973.79998779297</ele>
        <time>2019-10-30T09:42:01.000Z</time>
      </trkpt>
      <trkpt lat="45.32561" lon="4.57607">
        <ele>973.40002441406</ele>
        <time>2019-10-30T09:42:02.000Z</time>
      </trkpt>
      <trkpt lat="45.32558" lon="4.57602">
        <ele>973.20001220703</ele>
        <time>2019-10-30T09:42:03.000Z</time>
      </trkpt>
      <trkpt lat="45.32554" lon="4.57597">
        <ele>973</ele>
        <time>2019-10-30T09:42:04.000Z</time>
      </trkpt>
      <trkpt lat="45.32551" lon="4.57593">
        <ele>972.79998779297</ele>
        <time>2019-10-30T09:42:05.000Z</time>
      </trkpt>
      <trkpt lat="45.32549" lon="4.57588">
        <ele>972.79998779297</ele>
        <time>2019-10-30T09:42:06.000Z</time>
      </trkpt>
      <trkpt lat="45.32547" lon="4.57583">
        <ele>972.79998779297</ele>
        <time>2019-10-30T09:42:07.000Z</time>
      </trkpt>
      <trkpt lat="45.32545" lon="4.57578">
        <ele>972.59997558594</ele>
        <time>2019-10-30T09:42:08.000Z</time>
      </trkpt>
      <trkpt lat="45.32544" lon="4.57572">
        <ele>972.59997558594</ele>
        <time>2019-10-30T09:42:09.000Z</time>
      </trkpt>
      <trkpt lat="45.32541" lon="4.57563">
        <ele>972.59997558594</ele>
        <time>2019-10-30T09:42:10.000Z</time>
      </trkpt>
      <trkpt lat="45.32538" lon="4.57555">
        <ele>972.59997558594</ele>
        <time>2019-10-30T09:42:11.000Z</time>
      </trkpt>
      <trkpt lat="45.32535" lon="4.57548">
        <ele>972.59997558594</ele>
        <time>2019-10-30T09:42:12.000Z</time>
      </trkpt>
      <trkpt lat="45.32533" lon="4.57542">
        <ele>972.40002441406</ele>
        <time>2019-10-30T09:42:13.000Z</time>
      </trkpt>
      <trkpt lat="45.32531" lon="4.57537">
        <ele>972.20001220703</ele>
        <time>2019-10-30T09:42:14.000Z</time>
      </trkpt>
      <trkpt lat="45.32529" lon="4.57531">
        <ele>972</ele>
        <time>2019-10-30T09:42:15.000Z</time>
      </trkpt>
      <trkpt lat="45.32526" lon="4.57525">
        <ele>972</ele>
        <time>2019-10-30T09:42:16.000Z</time>
      </trkpt>
      <trkpt lat="45.32523" lon="4.57518">
        <ele>972</ele>
        <time>2019-10-30T09:42:17.000Z</time>
      </trkpt>
      <trkpt lat="45.32521" lon="4.57513">
        <ele>971.40002441406</ele>
        <time>2019-10-30T09:42:18.000Z</time>
      </trkpt>
      <trkpt lat="45.32518" lon="4.57506">
        <ele>971.40002441406</ele>
        <time>2019-10-30T09:42:19.000Z</time>
      </trkpt>
      <trkpt lat="45.32515" lon="4.575">
        <ele>971</ele>
        <time>2019-10-30T09:42:20.000Z</time>
      </trkpt>
      <trkpt lat="45.32513" lon="4.57493">
        <ele>970.40002441406</ele>
        <time>2019-10-30T09:42:21.000Z</time>
      </trkpt>
      <trkpt lat="45.32511" lon="4.57485">
        <ele>970.40002441406</ele>
        <time>2019-10-30T09:42:22.000Z</time>
      </trkpt>
      <trkpt lat="45.32508" lon="4.57476">
        <ele>969.79998779297</ele>
        <time>2019-10-30T09:42:23.000Z</time>
      </trkpt>
      <trkpt lat="45.32504" lon="4.57462">
        <ele>969.20001220703</ele>
        <time>2019-10-30T09:42:25.000Z</time>
      </trkpt>
      <trkpt lat="45.32502" lon="4.57455">
        <ele>969</ele>
        <time>2019-10-30T09:42:26.000Z</time>
      </trkpt>
      <trkpt lat="45.32499" lon="4.57439">
        <ele>968.20001220703</ele>
        <time>2019-10-30T09:42:28.000Z</time>
      </trkpt>
      <trkpt lat="45.32496" lon="4.5743">
        <ele>967.79998779297</ele>
        <time>2019-10-30T09:42:29.000Z</time>
      </trkpt>
      <trkpt lat="45.32494" lon="4.57421">
        <ele>967.40002441406</ele>
        <time>2019-10-30T09:42:30.000Z</time>
      </trkpt>
      <trkpt lat="45.32492" lon="4.57412">
        <ele>967.20001220703</ele>
        <time>2019-10-30T09:42:31.000Z</time>
      </trkpt>
      <trkpt lat="45.32486" lon="4.57393">
        <ele>966.40002441406</ele>
        <time>2019-10-30T09:42:33.000Z</time>
      </trkpt>
      <trkpt lat="45.32483" lon="4.57384">
        <ele>965.40002441406</ele>
        <time>2019-10-30T09:42:34.000Z</time>
      </trkpt>
      <trkpt lat="45.32476" lon="4.57368">
        <ele>964.20001220703</ele>
        <time>2019-10-30T09:42:36.000Z</time>
      </trkpt>
      <trkpt lat="45.32473" lon="4.57361">
        <ele>963.79998779297</ele>
        <time>2019-10-30T09:42:37.000Z</time>
      </trkpt>
      <trkpt lat="45.3247" lon="4.57356">
        <ele>962.59997558594</ele>
        <time>2019-10-30T09:42:38.000Z</time>
      </trkpt>
      <trkpt lat="45.32466" lon="4.5735">
        <ele>961.40002441406</ele>
        <time>2019-10-30T09:42:39.000Z</time>
      </trkpt>
      <trkpt lat="45.32464" lon="4.57346">
        <ele>960.79998779297</ele>
        <time>2019-10-30T09:42:40.000Z</time>
      </trkpt>
      <trkpt lat="45.32461" lon="4.5734">
        <ele>960.59997558594</ele>
        <time>2019-10-30T09:42:41.000Z</time>
      </trkpt>
      <trkpt lat="45.32459" lon="4.57336">
        <ele>960.40002441406</ele>
        <time>2019-10-30T09:42:42.000Z</time>
      </trkpt>
      <trkpt lat="45.32457" lon="4.57331">
        <ele>960.40002441406</ele>
        <time>2019-10-30T09:42:43.000Z</time>
      </trkpt>
      <trkpt lat="45.32453" lon="4.57327">
        <ele>960.40002441406</ele>
        <time>2019-10-30T09:42:44.000Z</time>
      </trkpt>
      <trkpt lat="45.3245" lon="4.57323">
        <ele>960.20001220703</ele>
        <time>2019-10-30T09:42:45.000Z</time>
      </trkpt>
      <trkpt lat="45.32448" lon="4.5732">
        <ele>960.20001220703</ele>
        <time>2019-10-30T09:42:46.000Z</time>
      </trkpt>
      <trkpt lat="45.32445" lon="4.57317">
        <ele>960.20001220703</ele>
        <time>2019-10-30T09:42:47.000Z</time>
      </trkpt>
      <trkpt lat="45.32442" lon="4.57315">
        <ele>960.20001220703</ele>
        <time>2019-10-30T09:42:48.000Z</time>
      </trkpt>
      <trkpt lat="45.32439" lon="4.57312">
        <ele>960.20001220703</ele>
        <time>2019-10-30T09:42:49.000Z</time>
      </trkpt>
      <trkpt lat="45.32436" lon="4.5731">
        <ele>960.40002441406</ele>
        <time>2019-10-30T09:42:50.000Z</time>
      </trkpt>
      <trkpt lat="45.32434" lon="4.57308">
        <ele>960.59997558594</ele>
        <time>2019-10-30T09:42:51.000Z</time>
      </trkpt>
      <trkpt lat="45.32432" lon="4.57306">
        <ele>960.79998779297</ele>
        <time>2019-10-30T09:42:52.000Z</time>
      </trkpt>
      <trkpt lat="45.3243" lon="4.57304">
        <ele>960.79998779297</ele>
        <time>2019-10-30T09:42:53.000Z</time>
      </trkpt>
      <trkpt lat="45.32427" lon="4.57303">
        <ele>961</ele>
        <time>2019-10-30T09:42:54.000Z</time>
      </trkpt>
      <trkpt lat="45.32425" lon="4.573">
        <ele>961.20001220703</ele>
        <time>2019-10-30T09:42:55.000Z</time>
      </trkpt>
      <trkpt lat="45.32423" lon="4.57298">
        <ele>961.20001220703</ele>
        <time>2019-10-30T09:42:56.000Z</time>
      </trkpt>
      <trkpt lat="45.32418" lon="4.57293">
        <ele>961.20001220703</ele>
        <time>2019-10-30T09:42:58.000Z</time>
      </trkpt>
      <trkpt lat="45.32414" lon="4.5729">
        <ele>961.20001220703</ele>
        <time>2019-10-30T09:43:00.000Z</time>
      </trkpt>
      <trkpt lat="45.32412" lon="4.57288">
        <ele>961.40002441406</ele>
        <time>2019-10-30T09:43:01.000Z</time>
      </trkpt>
      <trkpt lat="45.32409" lon="4.57286">
        <ele>961.40002441406</ele>
        <time>2019-10-30T09:43:02.000Z</time>
      </trkpt>
      <trkpt lat="45.32407" lon="4.57283">
        <ele>961.40002441406</ele>
        <time>2019-10-30T09:43:03.000Z</time>
      </trkpt>
      <trkpt lat="45.32404" lon="4.5728">
        <ele>961.40002441406</ele>
        <time>2019-10-30T09:43:04.000Z</time>
      </trkpt>
      <trkpt lat="45.32402" lon="4.57278">
        <ele>961.59997558594</ele>
        <time>2019-10-30T09:43:05.000Z</time>
      </trkpt>
      <trkpt lat="45.324" lon="4.57275">
        <ele>961.59997558594</ele>
        <time>2019-10-30T09:43:06.000Z</time>
      </trkpt>
      <trkpt lat="45.32398" lon="4.57272">
        <ele>961.59997558594</ele>
        <time>2019-10-30T09:43:07.000Z</time>
      </trkpt>
      <trkpt lat="45.32396" lon="4.57269">
        <ele>961.79998779297</ele>
        <time>2019-10-30T09:43:08.000Z</time>
      </trkpt>
      <trkpt lat="45.32394" lon="4.57267">
        <ele>962.20001220703</ele>
        <time>2019-10-30T09:43:09.000Z</time>
      </trkpt>
      <trkpt lat="45.32392" lon="4.57265">
        <ele>962.40002441406</ele>
        <time>2019-10-30T09:43:10.000Z</time>
      </trkpt>
      <trkpt lat="45.3239" lon="4.57262">
        <ele>962.40002441406</ele>
        <time>2019-10-30T09:43:11.000Z</time>
      </trkpt>
      <trkpt lat="45.32389" lon="4.5726">
        <ele>962.40002441406</ele>
        <time>2019-10-30T09:43:12.000Z</time>
      </trkpt>
      <trkpt lat="45.32388" lon="4.57258">
        <ele>962.59997558594</ele>
        <time>2019-10-30T09:43:13.000Z</time>
      </trkpt>
      <trkpt lat="45.32386" lon="4.57256">
        <ele>962.59997558594</ele>
        <time>2019-10-30T09:43:14.000Z</time>
      </trkpt>
      <trkpt lat="45.32385" lon="4.57254">
        <ele>962.59997558594</ele>
        <time>2019-10-30T09:43:15.000Z</time>
      </trkpt>
      <trkpt lat="45.32384" lon="4.57253">
        <ele>962.79998779297</ele>
        <time>2019-10-30T09:43:16.000Z</time>
      </trkpt>
      <trkpt lat="45.32382" lon="4.57251">
        <ele>963</ele>
        <time>2019-10-30T09:43:17.000Z</time>
      </trkpt>
      <trkpt lat="45.3238" lon="4.57249">
        <ele>963.20001220703</ele>
        <time>2019-10-30T09:43:18.000Z</time>
      </trkpt>
      <trkpt lat="45.32378" lon="4.57247">
        <ele>963.20001220703</ele>
        <time>2019-10-30T09:43:19.000Z</time>
      </trkpt>
      <trkpt lat="45.32376" lon="4.57245">
        <ele>963.40002441406</ele>
        <time>2019-10-30T09:43:20.000Z</time>
      </trkpt>
      <trkpt lat="45.32374" lon="4.57243">
        <ele>963.40002441406</ele>
        <time>2019-10-30T09:43:21.000Z</time>
      </trkpt>
      <trkpt lat="45.32371" lon="4.57241">
        <ele>963.59997558594</ele>
        <time>2019-10-30T09:43:22.000Z</time>
      </trkpt>
      <trkpt lat="45.32369" lon="4.57238">
        <ele>963.40002441406</ele>
        <time>2019-10-30T09:43:23.000Z</time>
      </trkpt>
      <trkpt lat="45.32367" lon="4.57236">
        <ele>963.59997558594</ele>
        <time>2019-10-30T09:43:24.000Z</time>
      </trkpt>
      <trkpt lat="45.32366" lon="4.57233">
        <ele>963.59997558594</ele>
        <time>2019-10-30T09:43:25.000Z</time>
      </trkpt>
      <trkpt lat="45.32364" lon="4.57232">
        <ele>963.79998779297</ele>
        <time>2019-10-30T09:43:26.000Z</time>
      </trkpt>
      <trkpt lat="45.32362" lon="4.57231">
        <ele>963.79998779297</ele>
        <time>2019-10-30T09:43:27.000Z</time>
      </trkpt>
      <trkpt lat="45.3236" lon="4.57228">
        <ele>963.79998779297</ele>
        <time>2019-10-30T09:43:28.000Z</time>
      </trkpt>
      <trkpt lat="45.32356" lon="4.57222">
        <ele>964</ele>
        <time>2019-10-30T09:43:29.000Z</time>
      </trkpt>
      <trkpt lat="45.32351" lon="4.57215">
        <ele>964.20001220703</ele>
        <time>2019-10-30T09:43:31.000Z</time>
      </trkpt>
      <trkpt lat="45.32349" lon="4.57213">
        <ele>964.20001220703</ele>
        <time>2019-10-30T09:43:32.000Z</time>
      </trkpt>
      <trkpt lat="45.32346" lon="4.57208">
        <ele>964.20001220703</ele>
        <time>2019-10-30T09:43:33.000Z</time>
      </trkpt>
      <trkpt lat="45.32342" lon="4.57202">
        <ele>964.40002441406</ele>
        <time>2019-10-30T09:43:35.000Z</time>
      </trkpt>
      <trkpt lat="45.32341" lon="4.57199">
        <ele>964.59997558594</ele>
        <time>2019-10-30T09:43:36.000Z</time>
      </trkpt>
      <trkpt lat="45.32339" lon="4.57196">
        <ele>964.59997558594</ele>
        <time>2019-10-30T09:43:37.000Z</time>
      </trkpt>
      <trkpt lat="45.32336" lon="4.57192">
        <ele>964.59997558594</ele>
        <time>2019-10-30T09:43:38.000Z</time>
      </trkpt>
      <trkpt lat="45.32335" lon="4.5719">
        <ele>964.59997558594</ele>
        <time>2019-10-30T09:43:39.000Z</time>
      </trkpt>
      <trkpt lat="45.32333" lon="4.57187">
        <ele>964.59997558594</ele>
        <time>2019-10-30T09:43:40.000Z</time>
      </trkpt>
      <trkpt lat="45.3233" lon="4.57184">
        <ele>964.59997558594</ele>
        <time>2019-10-30T09:43:41.000Z</time>
      </trkpt>
      <trkpt lat="45.32324" lon="4.57175">
        <ele>964.40002441406</ele>
        <time>2019-10-30T09:43:44.000Z</time>
      </trkpt>
      <trkpt lat="45.32322" lon="4.57172">
        <ele>964.40002441406</ele>
        <time>2019-10-30T09:43:45.000Z</time>
      </trkpt>
      <trkpt lat="45.32321" lon="4.57169">
        <ele>964.59997558594</ele>
        <time>2019-10-30T09:43:46.000Z</time>
      </trkpt>
      <trkpt lat="45.32319" lon="4.57165">
        <ele>964.59997558594</ele>
        <time>2019-10-30T09:43:47.000Z</time>
      </trkpt>
      <trkpt lat="45.32317" lon="4.57162">
        <ele>964.59997558594</ele>
        <time>2019-10-30T09:43:48.000Z</time>
      </trkpt>
      <trkpt lat="45.32315" lon="4.57159">
        <ele>964.79998779297</ele>
        <time>2019-10-30T09:43:49.000Z</time>
      </trkpt>
      <trkpt lat="45.32313" lon="4.57156">
        <ele>964.79998779297</ele>
        <time>2019-10-30T09:43:50.000Z</time>
      </trkpt>
      <trkpt lat="45.32311" lon="4.57154">
        <ele>965</ele>
        <time>2019-10-30T09:43:51.000Z</time>
      </trkpt>
      <trkpt lat="45.32309" lon="4.57152">
        <ele>965</ele>
        <time>2019-10-30T09:43:52.000Z</time>
      </trkpt>
      <trkpt lat="45.32307" lon="4.57149">
        <ele>965</ele>
        <time>2019-10-30T09:43:53.000Z</time>
      </trkpt>
      <trkpt lat="45.32305" lon="4.57146">
        <ele>965</ele>
        <time>2019-10-30T09:43:54.000Z</time>
      </trkpt>
      <trkpt lat="45.32302" lon="4.57142">
        <ele>965.20001220703</ele>
        <time>2019-10-30T09:43:55.000Z</time>
      </trkpt>
      <trkpt lat="45.323" lon="4.5714">
        <ele>965</ele>
        <time>2019-10-30T09:43:56.000Z</time>
      </trkpt>
      <trkpt lat="45.32297" lon="4.57137">
        <ele>965</ele>
        <time>2019-10-30T09:43:57.000Z</time>
      </trkpt>
      <trkpt lat="45.32292" lon="4.57131">
        <ele>965.20001220703</ele>
        <time>2019-10-30T09:43:59.000Z</time>
      </trkpt>
      <trkpt lat="45.3229" lon="4.57127">
        <ele>965.40002441406</ele>
        <time>2019-10-30T09:44:00.000Z</time>
      </trkpt>
      <trkpt lat="45.32288" lon="4.57124">
        <ele>965.20001220703</ele>
        <time>2019-10-30T09:44:01.000Z</time>
      </trkpt>
      <trkpt lat="45.32285" lon="4.5712">
        <ele>965.20001220703</ele>
        <time>2019-10-30T09:44:02.000Z</time>
      </trkpt>
      <trkpt lat="45.32281" lon="4.57113">
        <ele>965.40002441406</ele>
        <time>2019-10-30T09:44:04.000Z</time>
      </trkpt>
      <trkpt lat="45.32278" lon="4.57109">
        <ele>965.40002441406</ele>
        <time>2019-10-30T09:44:05.000Z</time>
      </trkpt>
      <trkpt lat="45.32276" lon="4.57105">
        <ele>965.40002441406</ele>
        <time>2019-10-30T09:44:06.000Z</time>
      </trkpt>
      <trkpt lat="45.32274" lon="4.57103">
        <ele>965.20001220703</ele>
        <time>2019-10-30T09:44:07.000Z</time>
      </trkpt>
      <trkpt lat="45.32271" lon="4.57101">
        <ele>965.40002441406</ele>
        <time>2019-10-30T09:44:08.000Z</time>
      </trkpt>
      <trkpt lat="45.32269" lon="4.57098">
        <ele>965.40002441406</ele>
        <time>2019-10-30T09:44:09.000Z</time>
      </trkpt>
      <trkpt lat="45.32266" lon="4.57097">
        <ele>965.59997558594</ele>
        <time>2019-10-30T09:44:10.000Z</time>
      </trkpt>
      <trkpt lat="45.32263" lon="4.57095">
        <ele>965.59997558594</ele>
        <time>2019-10-30T09:44:11.000Z</time>
      </trkpt>
      <trkpt lat="45.3226" lon="4.57094">
        <ele>965.59997558594</ele>
        <time>2019-10-30T09:44:12.000Z</time>
      </trkpt>
      <trkpt lat="45.32257" lon="4.57091">
        <ele>965.79998779297</ele>
        <time>2019-10-30T09:44:13.000Z</time>
      </trkpt>
      <trkpt lat="45.32254" lon="4.5709">
        <ele>966.20001220703</ele>
        <time>2019-10-30T09:44:14.000Z</time>
      </trkpt>
      <trkpt lat="45.32251" lon="4.57088">
        <ele>966.20001220703</ele>
        <time>2019-10-30T09:44:15.000Z</time>
      </trkpt>
      <trkpt lat="45.32249" lon="4.57086">
        <ele>966.59997558594</ele>
        <time>2019-10-30T09:44:16.000Z</time>
      </trkpt>
      <trkpt lat="45.32246" lon="4.57085">
        <ele>967</ele>
        <time>2019-10-30T09:44:17.000Z</time>
      </trkpt>
      <trkpt lat="45.32243" lon="4.57082">
        <ele>967</ele>
        <time>2019-10-30T09:44:18.000Z</time>
      </trkpt>
      <trkpt lat="45.3224" lon="4.5708">
        <ele>967.20001220703</ele>
        <time>2019-10-30T09:44:19.000Z</time>
      </trkpt>
      <trkpt lat="45.32238" lon="4.57077">
        <ele>967.20001220703</ele>
        <time>2019-10-30T09:44:20.000Z</time>
      </trkpt>
      <trkpt lat="45.32235" lon="4.57075">
        <ele>967.20001220703</ele>
        <time>2019-10-30T09:44:21.000Z</time>
      </trkpt>
      <trkpt lat="45.32232" lon="4.57073">
        <ele>967.40002441406</ele>
        <time>2019-10-30T09:44:22.000Z</time>
      </trkpt>
      <trkpt lat="45.3223" lon="4.57071">
        <ele>968</ele>
        <time>2019-10-30T09:44:23.000Z</time>
      </trkpt>
      <trkpt lat="45.32227" lon="4.5707">
        <ele>968</ele>
        <time>2019-10-30T09:44:24.000Z</time>
      </trkpt>
      <trkpt lat="45.32223" lon="4.57068">
        <ele>968.40002441406</ele>
        <time>2019-10-30T09:44:25.000Z</time>
      </trkpt>
      <trkpt lat="45.32219" lon="4.57065">
        <ele>968.40002441406</ele>
        <time>2019-10-30T09:44:26.000Z</time>
      </trkpt>
      <trkpt lat="45.32214" lon="4.57064">
        <ele>968.59997558594</ele>
        <time>2019-10-30T09:44:27.000Z</time>
      </trkpt>
      <trkpt lat="45.32206" lon="4.5706">
        <ele>969</ele>
        <time>2019-10-30T09:44:29.000Z</time>
      </trkpt>
      <trkpt lat="45.32203" lon="4.57058">
        <ele>969.20001220703</ele>
        <time>2019-10-30T09:44:30.000Z</time>
      </trkpt>
      <trkpt lat="45.322" lon="4.57056">
        <ele>969.40002441406</ele>
        <time>2019-10-30T09:44:31.000Z</time>
      </trkpt>
      <trkpt lat="45.32197" lon="4.57055">
        <ele>969.40002441406</ele>
        <time>2019-10-30T09:44:32.000Z</time>
      </trkpt>
      <trkpt lat="45.32194" lon="4.57053">
        <ele>969.20001220703</ele>
        <time>2019-10-30T09:44:33.000Z</time>
      </trkpt>
      <trkpt lat="45.3219" lon="4.57052">
        <ele>969.40002441406</ele>
        <time>2019-10-30T09:44:34.000Z</time>
      </trkpt>
      <trkpt lat="45.32185" lon="4.57052">
        <ele>969.59997558594</ele>
        <time>2019-10-30T09:44:35.000Z</time>
      </trkpt>
      <trkpt lat="45.32177" lon="4.57049">
        <ele>969.79998779297</ele>
        <time>2019-10-30T09:44:37.000Z</time>
      </trkpt>
      <trkpt lat="45.32173" lon="4.57048">
        <ele>970</ele>
        <time>2019-10-30T09:44:38.000Z</time>
      </trkpt>
      <trkpt lat="45.32166" lon="4.57047">
        <ele>970.20001220703</ele>
        <time>2019-10-30T09:44:40.000Z</time>
      </trkpt>
      <trkpt lat="45.32162" lon="4.57048">
        <ele>970.20001220703</ele>
        <time>2019-10-30T09:44:41.000Z</time>
      </trkpt>
      <trkpt lat="45.32159" lon="4.57048">
        <ele>970.20001220703</ele>
        <time>2019-10-30T09:44:42.000Z</time>
      </trkpt>
      <trkpt lat="45.32156" lon="4.57049">
        <ele>970.20001220703</ele>
        <time>2019-10-30T09:44:43.000Z</time>
      </trkpt>
      <trkpt lat="45.32153" lon="4.5705">
        <ele>970.40002441406</ele>
        <time>2019-10-30T09:44:44.000Z</time>
      </trkpt>
      <trkpt lat="45.3215" lon="4.57051">
        <ele>970.40002441406</ele>
        <time>2019-10-30T09:44:45.000Z</time>
      </trkpt>
      <trkpt lat="45.32147" lon="4.57051">
        <ele>970.59997558594</ele>
        <time>2019-10-30T09:44:46.000Z</time>
      </trkpt>
      <trkpt lat="45.32144" lon="4.57053">
        <ele>970.59997558594</ele>
        <time>2019-10-30T09:44:47.000Z</time>
      </trkpt>
      <trkpt lat="45.32141" lon="4.57054">
        <ele>970.59997558594</ele>
        <time>2019-10-30T09:44:48.000Z</time>
      </trkpt>
      <trkpt lat="45.32139" lon="4.57055">
        <ele>970.40002441406</ele>
        <time>2019-10-30T09:44:49.000Z</time>
      </trkpt>
      <trkpt lat="45.32136" lon="4.57056">
        <ele>970.40002441406</ele>
        <time>2019-10-30T09:44:50.000Z</time>
      </trkpt>
      <trkpt lat="45.32126" lon="4.57061">
        <ele>970.59997558594</ele>
        <time>2019-10-30T09:44:53.000Z</time>
      </trkpt>
      <trkpt lat="45.32123" lon="4.57062">
        <ele>970.59997558594</ele>
        <time>2019-10-30T09:44:54.000Z</time>
      </trkpt>
      <trkpt lat="45.32119" lon="4.57063">
        <ele>970.59997558594</ele>
        <time>2019-10-30T09:44:55.000Z</time>
      </trkpt>
      <trkpt lat="45.32112" lon="4.57065">
        <ele>970.59997558594</ele>
        <time>2019-10-30T09:44:57.000Z</time>
      </trkpt>
      <trkpt lat="45.32108" lon="4.57066">
        <ele>970.59997558594</ele>
        <time>2019-10-30T09:44:58.000Z</time>
      </trkpt>
      <trkpt lat="45.32099" lon="4.57066">
        <ele>970.40002441406</ele>
        <time>2019-10-30T09:45:00.000Z</time>
      </trkpt>
      <trkpt lat="45.32094" lon="4.57066">
        <ele>970.20001220703</ele>
        <time>2019-10-30T09:45:01.000Z</time>
      </trkpt>
      <trkpt lat="45.3209" lon="4.57066">
        <ele>970.20001220703</ele>
        <time>2019-10-30T09:45:02.000Z</time>
      </trkpt>
      <trkpt lat="45.32085" lon="4.57066">
        <ele>969.79998779297</ele>
        <time>2019-10-30T09:45:03.000Z</time>
      </trkpt>
      <trkpt lat="45.32081" lon="4.57065">
        <ele>969.79998779297</ele>
        <time>2019-10-30T09:45:04.000Z</time>
      </trkpt>
      <trkpt lat="45.32077" lon="4.57064">
        <ele>969.79998779297</ele>
        <time>2019-10-30T09:45:05.000Z</time>
      </trkpt>
      <trkpt lat="45.32073" lon="4.57063">
        <ele>969.59997558594</ele>
        <time>2019-10-30T09:45:06.000Z</time>
      </trkpt>
      <trkpt lat="45.32063" lon="4.57059">
        <ele>969.40002441406</ele>
        <time>2019-10-30T09:45:08.000Z</time>
      </trkpt>
      <trkpt lat="45.32058" lon="4.57055">
        <ele>969.40002441406</ele>
        <time>2019-10-30T09:45:09.000Z</time>
      </trkpt>
      <trkpt lat="45.32054" lon="4.57051">
        <ele>969.20001220703</ele>
        <time>2019-10-30T09:45:10.000Z</time>
      </trkpt>
      <trkpt lat="45.32044" lon="4.57044">
        <ele>969</ele>
        <time>2019-10-30T09:45:13.000Z</time>
      </trkpt>
      <trkpt lat="45.32041" lon="4.57041">
        <ele>969</ele>
        <time>2019-10-30T09:45:14.000Z</time>
      </trkpt>
      <trkpt lat="45.32039" lon="4.57039">
        <ele>969</ele>
        <time>2019-10-30T09:45:15.000Z</time>
      </trkpt>
      <trkpt lat="45.32036" lon="4.57036">
        <ele>969</ele>
        <time>2019-10-30T09:45:16.000Z</time>
      </trkpt>
      <trkpt lat="45.32033" lon="4.57033">
        <ele>968.79998779297</ele>
        <time>2019-10-30T09:45:17.000Z</time>
      </trkpt>
      <trkpt lat="45.32029" lon="4.5703">
        <ele>969</ele>
        <time>2019-10-30T09:45:18.000Z</time>
      </trkpt>
      <trkpt lat="45.32025" lon="4.57027">
        <ele>969</ele>
        <time>2019-10-30T09:45:19.000Z</time>
      </trkpt>
      <trkpt lat="45.32021" lon="4.57025">
        <ele>968.79998779297</ele>
        <time>2019-10-30T09:45:20.000Z</time>
      </trkpt>
      <trkpt lat="45.32017" lon="4.57022">
        <ele>968.79998779297</ele>
        <time>2019-10-30T09:45:21.000Z</time>
      </trkpt>
      <trkpt lat="45.32014" lon="4.57019">
        <ele>968.79998779297</ele>
        <time>2019-10-30T09:45:22.000Z</time>
      </trkpt>
      <trkpt lat="45.3201" lon="4.57017">
        <ele>968.79998779297</ele>
        <time>2019-10-30T09:45:23.000Z</time>
      </trkpt>
      <trkpt lat="45.32002" lon="4.57012">
        <ele>968.79998779297</ele>
        <time>2019-10-30T09:45:25.000Z</time>
      </trkpt>
      <trkpt lat="45.31998" lon="4.5701">
        <ele>968.59997558594</ele>
        <time>2019-10-30T09:45:26.000Z</time>
      </trkpt>
      <trkpt lat="45.31994" lon="4.57008">
        <ele>968.59997558594</ele>
        <time>2019-10-30T09:45:27.000Z</time>
      </trkpt>
      <trkpt lat="45.31991" lon="4.57008">
        <ele>968.59997558594</ele>
        <time>2019-10-30T09:45:28.000Z</time>
      </trkpt>
      <trkpt lat="45.31988" lon="4.57008">
        <ele>968.40002441406</ele>
        <time>2019-10-30T09:45:29.000Z</time>
      </trkpt>
      <trkpt lat="45.31985" lon="4.57007">
        <ele>968.40002441406</ele>
        <time>2019-10-30T09:45:30.000Z</time>
      </trkpt>
      <trkpt lat="45.31982" lon="4.57005">
        <ele>968.59997558594</ele>
        <time>2019-10-30T09:45:31.000Z</time>
      </trkpt>
      <trkpt lat="45.31979" lon="4.57004">
        <ele>968.40002441406</ele>
        <time>2019-10-30T09:45:32.000Z</time>
      </trkpt>
      <trkpt lat="45.31976" lon="4.57003">
        <ele>968.59997558594</ele>
        <time>2019-10-30T09:45:33.000Z</time>
      </trkpt>
      <trkpt lat="45.31973" lon="4.57003">
        <ele>968.59997558594</ele>
        <time>2019-10-30T09:45:34.000Z</time>
      </trkpt>
      <trkpt lat="45.31971" lon="4.57003">
        <ele>968.59997558594</ele>
        <time>2019-10-30T09:45:35.000Z</time>
      </trkpt>
      <trkpt lat="45.31967" lon="4.57002">
        <ele>968.79998779297</ele>
        <time>2019-10-30T09:45:36.000Z</time>
      </trkpt>
      <trkpt lat="45.31964" lon="4.57">
        <ele>968.59997558594</ele>
        <time>2019-10-30T09:45:37.000Z</time>
      </trkpt>
      <trkpt lat="45.31961" lon="4.57">
        <ele>968.79998779297</ele>
        <time>2019-10-30T09:45:38.000Z</time>
      </trkpt>
      <trkpt lat="45.31958" lon="4.57">
        <ele>969</ele>
        <time>2019-10-30T09:45:39.000Z</time>
      </trkpt>
      <trkpt lat="45.31951" lon="4.56997">
        <ele>969.20001220703</ele>
        <time>2019-10-30T09:45:41.000Z</time>
      </trkpt>
      <trkpt lat="45.31947" lon="4.56995">
        <ele>969</ele>
        <time>2019-10-30T09:45:42.000Z</time>
      </trkpt>
      <trkpt lat="45.31943" lon="4.56994">
        <ele>969.20001220703</ele>
        <time>2019-10-30T09:45:43.000Z</time>
      </trkpt>
      <trkpt lat="45.31941" lon="4.56994">
        <ele>969.40002441406</ele>
        <time>2019-10-30T09:45:44.000Z</time>
      </trkpt>
      <trkpt lat="45.31938" lon="4.56994">
        <ele>969.40002441406</ele>
        <time>2019-10-30T09:45:45.000Z</time>
      </trkpt>
      <trkpt lat="45.31936" lon="4.56995">
        <ele>969.59997558594</ele>
        <time>2019-10-30T09:45:46.000Z</time>
      </trkpt>
      <trkpt lat="45.31933" lon="4.56996">
        <ele>969.59997558594</ele>
        <time>2019-10-30T09:45:47.000Z</time>
      </trkpt>
      <trkpt lat="45.31931" lon="4.56997">
        <ele>969.79998779297</ele>
        <time>2019-10-30T09:45:48.000Z</time>
      </trkpt>
      <trkpt lat="45.31929" lon="4.56997">
        <ele>969.79998779297</ele>
        <time>2019-10-30T09:45:49.000Z</time>
      </trkpt>
      <trkpt lat="45.31926" lon="4.56997">
        <ele>969.79998779297</ele>
        <time>2019-10-30T09:45:50.000Z</time>
      </trkpt>
      <trkpt lat="45.31924" lon="4.56996">
        <ele>970.20001220703</ele>
        <time>2019-10-30T09:45:51.000Z</time>
      </trkpt>
      <trkpt lat="45.31921" lon="4.56997">
        <ele>970.40002441406</ele>
        <time>2019-10-30T09:45:52.000Z</time>
      </trkpt>
      <trkpt lat="45.31918" lon="4.56998">
        <ele>970.59997558594</ele>
        <time>2019-10-30T09:45:53.000Z</time>
      </trkpt>
      <trkpt lat="45.31916" lon="4.56999">
        <ele>970.79998779297</ele>
        <time>2019-10-30T09:45:54.000Z</time>
      </trkpt>
      <trkpt lat="45.31914" lon="4.57002">
        <ele>971</ele>
        <time>2019-10-30T09:45:55.000Z</time>
      </trkpt>
      <trkpt lat="45.31912" lon="4.57003">
        <ele>971.20001220703</ele>
        <time>2019-10-30T09:45:56.000Z</time>
      </trkpt>
      <trkpt lat="45.3191" lon="4.57005">
        <ele>971.59997558594</ele>
        <time>2019-10-30T09:45:57.000Z</time>
      </trkpt>
      <trkpt lat="45.31908" lon="4.57007">
        <ele>971.79998779297</ele>
        <time>2019-10-30T09:45:58.000Z</time>
      </trkpt>
      <trkpt lat="45.31906" lon="4.57009">
        <ele>972</ele>
        <time>2019-10-30T09:45:59.000Z</time>
      </trkpt>
      <trkpt lat="45.31897" lon="4.57013">
        <ele>972.40002441406</ele>
        <time>2019-10-30T09:46:02.000Z</time>
      </trkpt>
      <trkpt lat="45.31896" lon="4.57015">
        <ele>972.40002441406</ele>
        <time>2019-10-30T09:46:03.000Z</time>
      </trkpt>
      <trkpt lat="45.31894" lon="4.57017">
        <ele>972.59997558594</ele>
        <time>2019-10-30T09:46:04.000Z</time>
      </trkpt>
      <trkpt lat="45.31892" lon="4.57019">
        <ele>972.40002441406</ele>
        <time>2019-10-30T09:46:05.000Z</time>
      </trkpt>
      <trkpt lat="45.31889" lon="4.5702">
        <ele>972.40002441406</ele>
        <time>2019-10-30T09:46:06.000Z</time>
      </trkpt>
      <trkpt lat="45.31884" lon="4.57026">
        <ele>972.40002441406</ele>
        <time>2019-10-30T09:46:08.000Z</time>
      </trkpt>
      <trkpt lat="45.3188" lon="4.57029">
        <ele>972.40002441406</ele>
        <time>2019-10-30T09:46:09.000Z</time>
      </trkpt>
      <trkpt lat="45.31877" lon="4.57031">
        <ele>972.40002441406</ele>
        <time>2019-10-30T09:46:10.000Z</time>
      </trkpt>
      <trkpt lat="45.31872" lon="4.57032">
        <ele>972.59997558594</ele>
        <time>2019-10-30T09:46:11.000Z</time>
      </trkpt>
      <trkpt lat="45.31868" lon="4.57034">
        <ele>972.40002441406</ele>
        <time>2019-10-30T09:46:12.000Z</time>
      </trkpt>
      <trkpt lat="45.31864" lon="4.57036">
        <ele>972.20001220703</ele>
        <time>2019-10-30T09:46:13.000Z</time>
      </trkpt>
      <trkpt lat="45.3185" lon="4.57046">
        <ele>971.79998779297</ele>
        <time>2019-10-30T09:46:17.000Z</time>
      </trkpt>
      <trkpt lat="45.31846" lon="4.57048">
        <ele>971.59997558594</ele>
        <time>2019-10-30T09:46:18.000Z</time>
      </trkpt>
      <trkpt lat="45.31843" lon="4.57052">
        <ele>971.40002441406</ele>
        <time>2019-10-30T09:46:19.000Z</time>
      </trkpt>
      <trkpt lat="45.3184" lon="4.57055">
        <ele>971.20001220703</ele>
        <time>2019-10-30T09:46:20.000Z</time>
      </trkpt>
      <trkpt lat="45.31837" lon="4.57058">
        <ele>971</ele>
        <time>2019-10-30T09:46:21.000Z</time>
      </trkpt>
      <trkpt lat="45.31827" lon="4.57065">
        <ele>970.40002441406</ele>
        <time>2019-10-30T09:46:23.000Z</time>
      </trkpt>
      <trkpt lat="45.31807" lon="4.57083">
        <ele>969.20001220703</ele>
        <time>2019-10-30T09:46:26.000Z</time>
      </trkpt>
      <trkpt lat="45.31801" lon="4.57088">
        <ele>968.20001220703</ele>
        <time>2019-10-30T09:46:27.000Z</time>
      </trkpt>
      <trkpt lat="45.31793" lon="4.57093">
        <ele>967</ele>
        <time>2019-10-30T09:46:28.000Z</time>
      </trkpt>
      <trkpt lat="45.31787" lon="4.57098">
        <ele>965.79998779297</ele>
        <time>2019-10-30T09:46:29.000Z</time>
      </trkpt>
      <trkpt lat="45.31782" lon="4.57104">
        <ele>964.40002441406</ele>
        <time>2019-10-30T09:46:30.000Z</time>
      </trkpt>
      <trkpt lat="45.31776" lon="4.57111">
        <ele>963.59997558594</ele>
        <time>2019-10-30T09:46:31.000Z</time>
      </trkpt>
      <trkpt lat="45.31769" lon="4.57116">
        <ele>962.40002441406</ele>
        <time>2019-10-30T09:46:32.000Z</time>
      </trkpt>
      <trkpt lat="45.31762" lon="4.57121">
        <ele>961.59997558594</ele>
        <time>2019-10-30T09:46:33.000Z</time>
      </trkpt>
      <trkpt lat="45.31754" lon="4.57126">
        <ele>960.79998779297</ele>
        <time>2019-10-30T09:46:34.000Z</time>
      </trkpt>
      <trkpt lat="45.31746" lon="4.5713">
        <ele>960.40002441406</ele>
        <time>2019-10-30T09:46:35.000Z</time>
      </trkpt>
      <trkpt lat="45.31737" lon="4.57135">
        <ele>959.59997558594</ele>
        <time>2019-10-30T09:46:36.000Z</time>
      </trkpt>
      <trkpt lat="45.31728" lon="4.57139">
        <ele>958.79998779297</ele>
        <time>2019-10-30T09:46:37.000Z</time>
      </trkpt>
      <trkpt lat="45.31712" lon="4.57147">
        <ele>957.20001220703</ele>
        <time>2019-10-30T09:46:39.000Z</time>
      </trkpt>
      <trkpt lat="45.31704" lon="4.57151">
        <ele>956.20001220703</ele>
        <time>2019-10-30T09:46:40.000Z</time>
      </trkpt>
      <trkpt lat="45.31698" lon="4.57154">
        <ele>954.79998779297</ele>
        <time>2019-10-30T09:46:41.000Z</time>
      </trkpt>
      <trkpt lat="45.31693" lon="4.57156">
        <ele>954.79998779297</ele>
        <time>2019-10-30T09:46:42.000Z</time>
      </trkpt>
      <trkpt lat="45.31688" lon="4.57156">
        <ele>953.59997558594</ele>
        <time>2019-10-30T09:46:43.000Z</time>
      </trkpt>
      <trkpt lat="45.31683" lon="4.57156">
        <ele>952.40002441406</ele>
        <time>2019-10-30T09:46:44.000Z</time>
      </trkpt>
      <trkpt lat="45.31678" lon="4.57155">
        <ele>951.20001220703</ele>
        <time>2019-10-30T09:46:45.000Z</time>
      </trkpt>
      <trkpt lat="45.31673" lon="4.57153">
        <ele>950.20001220703</ele>
        <time>2019-10-30T09:46:46.000Z</time>
      </trkpt>
      <trkpt lat="45.31668" lon="4.57152">
        <ele>949.79998779297</ele>
        <time>2019-10-30T09:46:47.000Z</time>
      </trkpt>
      <trkpt lat="45.31656" lon="4.57148">
        <ele>949.40002441406</ele>
        <time>2019-10-30T09:46:49.000Z</time>
      </trkpt>
      <trkpt lat="45.31651" lon="4.57146">
        <ele>949.20001220703</ele>
        <time>2019-10-30T09:46:50.000Z</time>
      </trkpt>
      <trkpt lat="45.31639" lon="4.57141">
        <ele>948.20001220703</ele>
        <time>2019-10-30T09:46:52.000Z</time>
      </trkpt>
      <trkpt lat="45.31634" lon="4.57139">
        <ele>948</ele>
        <time>2019-10-30T09:46:53.000Z</time>
      </trkpt>
      <trkpt lat="45.31623" lon="4.57133">
        <ele>947.40002441406</ele>
        <time>2019-10-30T09:46:55.000Z</time>
      </trkpt>
      <trkpt lat="45.31618" lon="4.5713">
        <ele>946.79998779297</ele>
        <time>2019-10-30T09:46:56.000Z</time>
      </trkpt>
      <trkpt lat="45.31613" lon="4.57128">
        <ele>946.40002441406</ele>
        <time>2019-10-30T09:46:57.000Z</time>
      </trkpt>
      <trkpt lat="45.31606" lon="4.57126">
        <ele>944.79998779297</ele>
        <time>2019-10-30T09:46:58.000Z</time>
      </trkpt>
      <trkpt lat="45.316" lon="4.57126">
        <ele>943.20001220703</ele>
        <time>2019-10-30T09:46:59.000Z</time>
      </trkpt>
      <trkpt lat="45.31581" lon="4.57127">
        <ele>940.79998779297</ele>
        <time>2019-10-30T09:47:02.000Z</time>
      </trkpt>
      <trkpt lat="45.31575" lon="4.57127">
        <ele>940.40002441406</ele>
        <time>2019-10-30T09:47:03.000Z</time>
      </trkpt>
      <trkpt lat="45.31571" lon="4.57127">
        <ele>939.59997558594</ele>
        <time>2019-10-30T09:47:04.000Z</time>
      </trkpt>
      <trkpt lat="45.31567" lon="4.57126">
        <ele>938.59997558594</ele>
        <time>2019-10-30T09:47:05.000Z</time>
      </trkpt>
      <trkpt lat="45.31563" lon="4.57126">
        <ele>938.20001220703</ele>
        <time>2019-10-30T09:47:06.000Z</time>
      </trkpt>
      <trkpt lat="45.3156" lon="4.57125">
        <ele>938</ele>
        <time>2019-10-30T09:47:07.000Z</time>
      </trkpt>
      <trkpt lat="45.31557" lon="4.57126">
        <ele>938</ele>
        <time>2019-10-30T09:47:08.000Z</time>
      </trkpt>
      <trkpt lat="45.31554" lon="4.57126">
        <ele>937.79998779297</ele>
        <time>2019-10-30T09:47:09.000Z</time>
      </trkpt>
      <trkpt lat="45.31551" lon="4.57126">
        <ele>937.59997558594</ele>
        <time>2019-10-30T09:47:10.000Z</time>
      </trkpt>
      <trkpt lat="45.31549" lon="4.57129">
        <ele>937.40002441406</ele>
        <time>2019-10-30T09:47:11.000Z</time>
      </trkpt>
      <trkpt lat="45.31548" lon="4.57138">
        <ele>937.20001220703</ele>
        <time>2019-10-30T09:47:13.000Z</time>
      </trkpt>
      <trkpt lat="45.31549" lon="4.57144">
        <ele>937.20001220703</ele>
        <time>2019-10-30T09:47:14.000Z</time>
      </trkpt>
      <trkpt lat="45.31551" lon="4.57152">
        <ele>936.79998779297</ele>
        <time>2019-10-30T09:47:15.000Z</time>
      </trkpt>
      <trkpt lat="45.31552" lon="4.5717">
        <ele>936</ele>
        <time>2019-10-30T09:47:17.000Z</time>
      </trkpt>
      <trkpt lat="45.31553" lon="4.57179">
        <ele>935.79998779297</ele>
        <time>2019-10-30T09:47:18.000Z</time>
      </trkpt>
      <trkpt lat="45.31555" lon="4.57188">
        <ele>935</ele>
        <time>2019-10-30T09:47:19.000Z</time>
      </trkpt>
      <trkpt lat="45.31556" lon="4.57198">
        <ele>934.40002441406</ele>
        <time>2019-10-30T09:47:20.000Z</time>
      </trkpt>
      <trkpt lat="45.31559" lon="4.57208">
        <ele>933.59997558594</ele>
        <time>2019-10-30T09:47:21.000Z</time>
      </trkpt>
      <trkpt lat="45.31562" lon="4.57217">
        <ele>933.20001220703</ele>
        <time>2019-10-30T09:47:22.000Z</time>
      </trkpt>
      <trkpt lat="45.31565" lon="4.57227">
        <ele>932.40002441406</ele>
        <time>2019-10-30T09:47:23.000Z</time>
      </trkpt>
      <trkpt lat="45.31568" lon="4.57236">
        <ele>931.40002441406</ele>
        <time>2019-10-30T09:47:24.000Z</time>
      </trkpt>
      <trkpt lat="45.31572" lon="4.57246">
        <ele>930.59997558594</ele>
        <time>2019-10-30T09:47:25.000Z</time>
      </trkpt>
      <trkpt lat="45.31583" lon="4.57274">
        <ele>927.79998779297</ele>
        <time>2019-10-30T09:47:28.000Z</time>
      </trkpt>
      <trkpt lat="45.31586" lon="4.57283">
        <ele>926.79998779297</ele>
        <time>2019-10-30T09:47:29.000Z</time>
      </trkpt>
      <trkpt lat="45.31589" lon="4.57292">
        <ele>926.40002441406</ele>
        <time>2019-10-30T09:47:30.000Z</time>
      </trkpt>
      <trkpt lat="45.31592" lon="4.573">
        <ele>926</ele>
        <time>2019-10-30T09:47:31.000Z</time>
      </trkpt>
      <trkpt lat="45.31596" lon="4.57308">
        <ele>925.20001220703</ele>
        <time>2019-10-30T09:47:32.000Z</time>
      </trkpt>
      <trkpt lat="45.31599" lon="4.57314">
        <ele>924.79998779297</ele>
        <time>2019-10-30T09:47:33.000Z</time>
      </trkpt>
      <trkpt lat="45.31602" lon="4.57321">
        <ele>924.79998779297</ele>
        <time>2019-10-30T09:47:34.000Z</time>
      </trkpt>
      <trkpt lat="45.31605" lon="4.57327">
        <ele>924.79998779297</ele>
        <time>2019-10-30T09:47:35.000Z</time>
      </trkpt>
      <trkpt lat="45.31608" lon="4.57332">
        <ele>924.40002441406</ele>
        <time>2019-10-30T09:47:36.000Z</time>
      </trkpt>
      <trkpt lat="45.31612" lon="4.57337">
        <ele>924.40002441406</ele>
        <time>2019-10-30T09:47:37.000Z</time>
      </trkpt>
      <trkpt lat="45.31615" lon="4.57343">
        <ele>924.20001220703</ele>
        <time>2019-10-30T09:47:38.000Z</time>
      </trkpt>
      <trkpt lat="45.31619" lon="4.57348">
        <ele>924</ele>
        <time>2019-10-30T09:47:39.000Z</time>
      </trkpt>
      <trkpt lat="45.31623" lon="4.57353">
        <ele>923.79998779297</ele>
        <time>2019-10-30T09:47:40.000Z</time>
      </trkpt>
      <trkpt lat="45.31627" lon="4.57357">
        <ele>923.59997558594</ele>
        <time>2019-10-30T09:47:41.000Z</time>
      </trkpt>
      <trkpt lat="45.31631" lon="4.57362">
        <ele>923.59997558594</ele>
        <time>2019-10-30T09:47:42.000Z</time>
      </trkpt>
      <trkpt lat="45.31635" lon="4.57366">
        <ele>923.59997558594</ele>
        <time>2019-10-30T09:47:43.000Z</time>
      </trkpt>
      <trkpt lat="45.31639" lon="4.5737">
        <ele>923.59997558594</ele>
        <time>2019-10-30T09:47:44.000Z</time>
      </trkpt>
      <trkpt lat="45.31643" lon="4.57374">
        <ele>923.40002441406</ele>
        <time>2019-10-30T09:47:45.000Z</time>
      </trkpt>
      <trkpt lat="45.31647" lon="4.57378">
        <ele>923.20001220703</ele>
        <time>2019-10-30T09:47:46.000Z</time>
      </trkpt>
      <trkpt lat="45.3165" lon="4.57382">
        <ele>923.40002441406</ele>
        <time>2019-10-30T09:47:47.000Z</time>
      </trkpt>
      <trkpt lat="45.31653" lon="4.57385">
        <ele>923.20001220703</ele>
        <time>2019-10-30T09:47:48.000Z</time>
      </trkpt>
      <trkpt lat="45.31656" lon="4.57388">
        <ele>923.40002441406</ele>
        <time>2019-10-30T09:47:49.000Z</time>
      </trkpt>
      <trkpt lat="45.31658" lon="4.57391">
        <ele>923.40002441406</ele>
        <time>2019-10-30T09:47:50.000Z</time>
      </trkpt>
      <trkpt lat="45.3166" lon="4.57394">
        <ele>923.40002441406</ele>
        <time>2019-10-30T09:47:51.000Z</time>
      </trkpt>
      <trkpt lat="45.31663" lon="4.57396">
        <ele>923.40002441406</ele>
        <time>2019-10-30T09:47:52.000Z</time>
      </trkpt>
      <trkpt lat="45.31665" lon="4.57399">
        <ele>923.40002441406</ele>
        <time>2019-10-30T09:47:53.000Z</time>
      </trkpt>
      <trkpt lat="45.31674" lon="4.57409">
        <ele>923.20001220703</ele>
        <time>2019-10-30T09:47:56.000Z</time>
      </trkpt>
      <trkpt lat="45.31677" lon="4.57412">
        <ele>923.20001220703</ele>
        <time>2019-10-30T09:47:57.000Z</time>
      </trkpt>
      <trkpt lat="45.31683" lon="4.57417">
        <ele>923</ele>
        <time>2019-10-30T09:47:59.000Z</time>
      </trkpt>
      <trkpt lat="45.31686" lon="4.57419">
        <ele>923</ele>
        <time>2019-10-30T09:48:00.000Z</time>
      </trkpt>
      <trkpt lat="45.31694" lon="4.57423">
        <ele>923</ele>
        <time>2019-10-30T09:48:02.000Z</time>
      </trkpt>
      <trkpt lat="45.31702" lon="4.57425">
        <ele>923</ele>
        <time>2019-10-30T09:48:04.000Z</time>
      </trkpt>
      <trkpt lat="45.31706" lon="4.57427">
        <ele>922.79998779297</ele>
        <time>2019-10-30T09:48:05.000Z</time>
      </trkpt>
      <trkpt lat="45.31712" lon="4.57429">
        <ele>922</ele>
        <time>2019-10-30T09:48:06.000Z</time>
      </trkpt>
      <trkpt lat="45.31732" lon="4.57436">
        <ele>920.59997558594</ele>
        <time>2019-10-30T09:48:09.000Z</time>
      </trkpt>
      <trkpt lat="45.31738" lon="4.57438">
        <ele>920</ele>
        <time>2019-10-30T09:48:10.000Z</time>
      </trkpt>
      <trkpt lat="45.31744" lon="4.5744">
        <ele>919.20001220703</ele>
        <time>2019-10-30T09:48:11.000Z</time>
      </trkpt>
      <trkpt lat="45.31749" lon="4.57443">
        <ele>918.59997558594</ele>
        <time>2019-10-30T09:48:12.000Z</time>
      </trkpt>
      <trkpt lat="45.31761" lon="4.5745">
        <ele>917.20001220703</ele>
        <time>2019-10-30T09:48:14.000Z</time>
      </trkpt>
      <trkpt lat="45.31767" lon="4.57454">
        <ele>915.79998779297</ele>
        <time>2019-10-30T09:48:15.000Z</time>
      </trkpt>
      <trkpt lat="45.31773" lon="4.57457">
        <ele>914.79998779297</ele>
        <time>2019-10-30T09:48:16.000Z</time>
      </trkpt>
      <trkpt lat="45.31779" lon="4.57461">
        <ele>914</ele>
        <time>2019-10-30T09:48:17.000Z</time>
      </trkpt>
      <trkpt lat="45.31795" lon="4.57473">
        <ele>911.20001220703</ele>
        <time>2019-10-30T09:48:20.000Z</time>
      </trkpt>
      <trkpt lat="45.31799" lon="4.57477">
        <ele>910.59997558594</ele>
        <time>2019-10-30T09:48:21.000Z</time>
      </trkpt>
      <trkpt lat="45.31804" lon="4.57481">
        <ele>910</ele>
        <time>2019-10-30T09:48:22.000Z</time>
      </trkpt>
      <trkpt lat="45.31807" lon="4.57486">
        <ele>909.40002441406</ele>
        <time>2019-10-30T09:48:23.000Z</time>
      </trkpt>
      <trkpt lat="45.31811" lon="4.57491">
        <ele>909</ele>
        <time>2019-10-30T09:48:24.000Z</time>
      </trkpt>
      <trkpt lat="45.31815" lon="4.57495">
        <ele>908.79998779297</ele>
        <time>2019-10-30T09:48:25.000Z</time>
      </trkpt>
      <trkpt lat="45.31819" lon="4.575">
        <ele>908.79998779297</ele>
        <time>2019-10-30T09:48:26.000Z</time>
      </trkpt>
      <trkpt lat="45.31823" lon="4.57507">
        <ele>908.20001220703</ele>
        <time>2019-10-30T09:48:27.000Z</time>
      </trkpt>
      <trkpt lat="45.31828" lon="4.57514">
        <ele>907.79998779297</ele>
        <time>2019-10-30T09:48:28.000Z</time>
      </trkpt>
      <trkpt lat="45.31833" lon="4.57521">
        <ele>907.59997558594</ele>
        <time>2019-10-30T09:48:29.000Z</time>
      </trkpt>
      <trkpt lat="45.31838" lon="4.57527">
        <ele>907.40002441406</ele>
        <time>2019-10-30T09:48:30.000Z</time>
      </trkpt>
      <trkpt lat="45.31843" lon="4.57532">
        <ele>906.59997558594</ele>
        <time>2019-10-30T09:48:31.000Z</time>
      </trkpt>
      <trkpt lat="45.31848" lon="4.57537">
        <ele>906.20001220703</ele>
        <time>2019-10-30T09:48:32.000Z</time>
      </trkpt>
      <trkpt lat="45.31853" lon="4.57542">
        <ele>905.59997558594</ele>
        <time>2019-10-30T09:48:33.000Z</time>
      </trkpt>
      <trkpt lat="45.31857" lon="4.57546">
        <ele>904.79998779297</ele>
        <time>2019-10-30T09:48:34.000Z</time>
      </trkpt>
      <trkpt lat="45.3186" lon="4.5755">
        <ele>904.20001220703</ele>
        <time>2019-10-30T09:48:35.000Z</time>
      </trkpt>
      <trkpt lat="45.31863" lon="4.57553">
        <ele>903.79998779297</ele>
        <time>2019-10-30T09:48:36.000Z</time>
      </trkpt>
      <trkpt lat="45.31866" lon="4.57557">
        <ele>903.59997558594</ele>
        <time>2019-10-30T09:48:37.000Z</time>
      </trkpt>
      <trkpt lat="45.31869" lon="4.5756">
        <ele>903.40002441406</ele>
        <time>2019-10-30T09:48:38.000Z</time>
      </trkpt>
      <trkpt lat="45.31871" lon="4.57562">
        <ele>903.40002441406</ele>
        <time>2019-10-30T09:48:39.000Z</time>
      </trkpt>
      <trkpt lat="45.31873" lon="4.57565">
        <ele>903.40002441406</ele>
        <time>2019-10-30T09:48:40.000Z</time>
      </trkpt>
      <trkpt lat="45.31875" lon="4.57567">
        <ele>903.40002441406</ele>
        <time>2019-10-30T09:48:41.000Z</time>
      </trkpt>
      <trkpt lat="45.31878" lon="4.5757">
        <ele>903.40002441406</ele>
        <time>2019-10-30T09:48:42.000Z</time>
      </trkpt>
      <trkpt lat="45.3188" lon="4.57573">
        <ele>903.40002441406</ele>
        <time>2019-10-30T09:48:43.000Z</time>
      </trkpt>
      <trkpt lat="45.31883" lon="4.57575">
        <ele>903.59997558594</ele>
        <time>2019-10-30T09:48:44.000Z</time>
      </trkpt>
      <trkpt lat="45.31886" lon="4.57578">
        <ele>903.79998779297</ele>
        <time>2019-10-30T09:48:45.000Z</time>
      </trkpt>
      <trkpt lat="45.31888" lon="4.5758">
        <ele>903.79998779297</ele>
        <time>2019-10-30T09:48:46.000Z</time>
      </trkpt>
      <trkpt lat="45.31891" lon="4.57583">
        <ele>904.40002441406</ele>
        <time>2019-10-30T09:48:47.000Z</time>
      </trkpt>
      <trkpt lat="45.31893" lon="4.57585">
        <ele>904.40002441406</ele>
        <time>2019-10-30T09:48:48.000Z</time>
      </trkpt>
      <trkpt lat="45.31896" lon="4.57587">
        <ele>904.59997558594</ele>
        <time>2019-10-30T09:48:49.000Z</time>
      </trkpt>
      <trkpt lat="45.31898" lon="4.5759">
        <ele>905</ele>
        <time>2019-10-30T09:48:50.000Z</time>
      </trkpt>
      <trkpt lat="45.31901" lon="4.57592">
        <ele>905</ele>
        <time>2019-10-30T09:48:51.000Z</time>
      </trkpt>
      <trkpt lat="45.31903" lon="4.57594">
        <ele>905</ele>
        <time>2019-10-30T09:48:52.000Z</time>
      </trkpt>
      <trkpt lat="45.31906" lon="4.57596">
        <ele>905.20001220703</ele>
        <time>2019-10-30T09:48:53.000Z</time>
      </trkpt>
      <trkpt lat="45.31909" lon="4.57598">
        <ele>905.20001220703</ele>
        <time>2019-10-30T09:48:54.000Z</time>
      </trkpt>
      <trkpt lat="45.31911" lon="4.57601">
        <ele>905.40002441406</ele>
        <time>2019-10-30T09:48:55.000Z</time>
      </trkpt>
      <trkpt lat="45.31914" lon="4.57603">
        <ele>905.20001220703</ele>
        <time>2019-10-30T09:48:56.000Z</time>
      </trkpt>
      <trkpt lat="45.31917" lon="4.57605">
        <ele>905.59997558594</ele>
        <time>2019-10-30T09:48:57.000Z</time>
      </trkpt>
      <trkpt lat="45.31921" lon="4.57608">
        <ele>905.59997558594</ele>
        <time>2019-10-30T09:48:58.000Z</time>
      </trkpt>
      <trkpt lat="45.31923" lon="4.5761">
        <ele>905.79998779297</ele>
        <time>2019-10-30T09:48:59.000Z</time>
      </trkpt>
      <trkpt lat="45.31926" lon="4.57613">
        <ele>906</ele>
        <time>2019-10-30T09:49:00.000Z</time>
      </trkpt>
      <trkpt lat="45.31929" lon="4.57615">
        <ele>906.40002441406</ele>
        <time>2019-10-30T09:49:01.000Z</time>
      </trkpt>
      <trkpt lat="45.31932" lon="4.57618">
        <ele>906.79998779297</ele>
        <time>2019-10-30T09:49:02.000Z</time>
      </trkpt>
      <trkpt lat="45.31938" lon="4.57623">
        <ele>907.20001220703</ele>
        <time>2019-10-30T09:49:04.000Z</time>
      </trkpt>
      <trkpt lat="45.31944" lon="4.57628">
        <ele>907</ele>
        <time>2019-10-30T09:49:06.000Z</time>
      </trkpt>
      <trkpt lat="45.31947" lon="4.5763">
        <ele>907.20001220703</ele>
        <time>2019-10-30T09:49:07.000Z</time>
      </trkpt>
      <trkpt lat="45.31953" lon="4.57635">
        <ele>907.20001220703</ele>
        <time>2019-10-30T09:49:09.000Z</time>
      </trkpt>
      <trkpt lat="45.31957" lon="4.57636">
        <ele>907.20001220703</ele>
        <time>2019-10-30T09:49:10.000Z</time>
      </trkpt>
      <trkpt lat="45.31963" lon="4.5764">
        <ele>907.20001220703</ele>
        <time>2019-10-30T09:49:12.000Z</time>
      </trkpt>
      <trkpt lat="45.31967" lon="4.57641">
        <ele>907.20001220703</ele>
        <time>2019-10-30T09:49:13.000Z</time>
      </trkpt>
      <trkpt lat="45.3197" lon="4.57642">
        <ele>907.20001220703</ele>
        <time>2019-10-30T09:49:14.000Z</time>
      </trkpt>
      <trkpt lat="45.31973" lon="4.57643">
        <ele>907.20001220703</ele>
        <time>2019-10-30T09:49:15.000Z</time>
      </trkpt>
      <trkpt lat="45.31975" lon="4.57644">
        <ele>907</ele>
        <time>2019-10-30T09:49:16.000Z</time>
      </trkpt>
      <trkpt lat="45.31978" lon="4.57646">
        <ele>907</ele>
        <time>2019-10-30T09:49:17.000Z</time>
      </trkpt>
      <trkpt lat="45.31981" lon="4.57647">
        <ele>907</ele>
        <time>2019-10-30T09:49:18.000Z</time>
      </trkpt>
      <trkpt lat="45.31984" lon="4.57648">
        <ele>906.79998779297</ele>
        <time>2019-10-30T09:49:19.000Z</time>
      </trkpt>
      <trkpt lat="45.31991" lon="4.5765">
        <ele>907</ele>
        <time>2019-10-30T09:49:21.000Z</time>
      </trkpt>
      <trkpt lat="45.31998" lon="4.57654">
        <ele>906.79998779297</ele>
        <time>2019-10-30T09:49:23.000Z</time>
      </trkpt>
      <trkpt lat="45.32008" lon="4.57661">
        <ele>906.79998779297</ele>
        <time>2019-10-30T09:49:26.000Z</time>
      </trkpt>
      <trkpt lat="45.3202" lon="4.5767">
        <ele>906.59997558594</ele>
        <time>2019-10-30T09:49:29.000Z</time>
      </trkpt>
      <trkpt lat="45.32036" lon="4.57686">
        <ele>906.20001220703</ele>
        <time>2019-10-30T09:49:33.000Z</time>
      </trkpt>
      <trkpt lat="45.32043" lon="4.57695">
        <ele>906</ele>
        <time>2019-10-30T09:49:35.000Z</time>
      </trkpt>
      <trkpt lat="45.32047" lon="4.577">
        <ele>905.79998779297</ele>
        <time>2019-10-30T09:49:36.000Z</time>
      </trkpt>
      <trkpt lat="45.32054" lon="4.57712">
        <ele>905.20001220703</ele>
        <time>2019-10-30T09:49:38.000Z</time>
      </trkpt>
      <trkpt lat="45.32058" lon="4.57718">
        <ele>905</ele>
        <time>2019-10-30T09:49:39.000Z</time>
      </trkpt>
      <trkpt lat="45.32072" lon="4.57742">
        <ele>903.79998779297</ele>
        <time>2019-10-30T09:49:43.000Z</time>
      </trkpt>
      <trkpt lat="45.32075" lon="4.57748">
        <ele>903.79998779297</ele>
        <time>2019-10-30T09:49:44.000Z</time>
      </trkpt>
      <trkpt lat="45.32078" lon="4.57754">
        <ele>903.59997558594</ele>
        <time>2019-10-30T09:49:45.000Z</time>
      </trkpt>
      <trkpt lat="45.32081" lon="4.5776">
        <ele>903.40002441406</ele>
        <time>2019-10-30T09:49:46.000Z</time>
      </trkpt>
      <trkpt lat="45.32084" lon="4.57766">
        <ele>903</ele>
        <time>2019-10-30T09:49:47.000Z</time>
      </trkpt>
      <trkpt lat="45.32094" lon="4.57786">
        <ele>902.20001220703</ele>
        <time>2019-10-30T09:49:50.000Z</time>
      </trkpt>
      <trkpt lat="45.32096" lon="4.57793">
        <ele>902.20001220703</ele>
        <time>2019-10-30T09:49:51.000Z</time>
      </trkpt>
      <trkpt lat="45.32097" lon="4.578">
        <ele>902</ele>
        <time>2019-10-30T09:49:52.000Z</time>
      </trkpt>
      <trkpt lat="45.32098" lon="4.57807">
        <ele>902</ele>
        <time>2019-10-30T09:49:53.000Z</time>
      </trkpt>
      <trkpt lat="45.32098" lon="4.57814">
        <ele>901.59997558594</ele>
        <time>2019-10-30T09:49:54.000Z</time>
      </trkpt>
      <trkpt lat="45.32099" lon="4.57821">
        <ele>901.20001220703</ele>
        <time>2019-10-30T09:49:55.000Z</time>
      </trkpt>
      <trkpt lat="45.321" lon="4.57827">
        <ele>901.20001220703</ele>
        <time>2019-10-30T09:49:56.000Z</time>
      </trkpt>
      <trkpt lat="45.32101" lon="4.57834">
        <ele>900.79998779297</ele>
        <time>2019-10-30T09:49:57.000Z</time>
      </trkpt>
      <trkpt lat="45.32101" lon="4.5784">
        <ele>900.79998779297</ele>
        <time>2019-10-30T09:49:58.000Z</time>
      </trkpt>
      <trkpt lat="45.32101" lon="4.57845">
        <ele>900.40002441406</ele>
        <time>2019-10-30T09:49:59.000Z</time>
      </trkpt>
      <trkpt lat="45.321" lon="4.57849">
        <ele>900</ele>
        <time>2019-10-30T09:50:00.000Z</time>
      </trkpt>
      <trkpt lat="45.32099" lon="4.57853">
        <ele>899.79998779297</ele>
        <time>2019-10-30T09:50:01.000Z</time>
      </trkpt>
      <trkpt lat="45.32096" lon="4.57858">
        <ele>899.59997558594</ele>
        <time>2019-10-30T09:50:02.000Z</time>
      </trkpt>
      <trkpt lat="45.32094" lon="4.57864">
        <ele>899.59997558594</ele>
        <time>2019-10-30T09:50:03.000Z</time>
      </trkpt>
      <trkpt lat="45.32088" lon="4.57877">
        <ele>899.20001220703</ele>
        <time>2019-10-30T09:50:05.000Z</time>
      </trkpt>
      <trkpt lat="45.32084" lon="4.57885">
        <ele>898.79998779297</ele>
        <time>2019-10-30T09:50:06.000Z</time>
      </trkpt>
      <trkpt lat="45.3208" lon="4.57892">
        <ele>898.59997558594</ele>
        <time>2019-10-30T09:50:07.000Z</time>
      </trkpt>
      <trkpt lat="45.32074" lon="4.57905">
        <ele>898.40002441406</ele>
        <time>2019-10-30T09:50:09.000Z</time>
      </trkpt>
      <trkpt lat="45.32071" lon="4.57911">
        <ele>898.40002441406</ele>
        <time>2019-10-30T09:50:10.000Z</time>
      </trkpt>
      <trkpt lat="45.32068" lon="4.57917">
        <ele>898.20001220703</ele>
        <time>2019-10-30T09:50:11.000Z</time>
      </trkpt>
      <trkpt lat="45.32065" lon="4.57924">
        <ele>898</ele>
        <time>2019-10-30T09:50:12.000Z</time>
      </trkpt>
      <trkpt lat="45.32058" lon="4.57941">
        <ele>896.59997558594</ele>
        <time>2019-10-30T09:50:14.000Z</time>
      </trkpt>
      <trkpt lat="45.32055" lon="4.5795">
        <ele>896</ele>
        <time>2019-10-30T09:50:15.000Z</time>
      </trkpt>
      <trkpt lat="45.3205" lon="4.57959">
        <ele>895.20001220703</ele>
        <time>2019-10-30T09:50:16.000Z</time>
      </trkpt>
      <trkpt lat="45.3204" lon="4.57978">
        <ele>894.40002441406</ele>
        <time>2019-10-30T09:50:18.000Z</time>
      </trkpt>
      <trkpt lat="45.32034" lon="4.57987">
        <ele>894</ele>
        <time>2019-10-30T09:50:19.000Z</time>
      </trkpt>
      <trkpt lat="45.32029" lon="4.57995">
        <ele>893.40002441406</ele>
        <time>2019-10-30T09:50:20.000Z</time>
      </trkpt>
      <trkpt lat="45.32025" lon="4.58002">
        <ele>892.59997558594</ele>
        <time>2019-10-30T09:50:21.000Z</time>
      </trkpt>
      <trkpt lat="45.32021" lon="4.58009">
        <ele>891.79998779297</ele>
        <time>2019-10-30T09:50:22.000Z</time>
      </trkpt>
      <trkpt lat="45.32016" lon="4.58017">
        <ele>890.40002441406</ele>
        <time>2019-10-30T09:50:23.000Z</time>
      </trkpt>
      <trkpt lat="45.32012" lon="4.58024">
        <ele>889.40002441406</ele>
        <time>2019-10-30T09:50:24.000Z</time>
      </trkpt>
      <trkpt lat="45.32001" lon="4.58038">
        <ele>888.20001220703</ele>
        <time>2019-10-30T09:50:26.000Z</time>
      </trkpt>
      <trkpt lat="45.31995" lon="4.58046">
        <ele>887.20001220703</ele>
        <time>2019-10-30T09:50:27.000Z</time>
      </trkpt>
      <trkpt lat="45.31989" lon="4.58053">
        <ele>886.20001220703</ele>
        <time>2019-10-30T09:50:28.000Z</time>
      </trkpt>
      <trkpt lat="45.31978" lon="4.58066">
        <ele>885</ele>
        <time>2019-10-30T09:50:30.000Z</time>
      </trkpt>
      <trkpt lat="45.31972" lon="4.58073">
        <ele>884.59997558594</ele>
        <time>2019-10-30T09:50:31.000Z</time>
      </trkpt>
      <trkpt lat="45.31967" lon="4.58079">
        <ele>884.20001220703</ele>
        <time>2019-10-30T09:50:32.000Z</time>
      </trkpt>
      <trkpt lat="45.31961" lon="4.58085">
        <ele>883.79998779297</ele>
        <time>2019-10-30T09:50:33.000Z</time>
      </trkpt>
      <trkpt lat="45.31956" lon="4.58091">
        <ele>883.20001220703</ele>
        <time>2019-10-30T09:50:34.000Z</time>
      </trkpt>
      <trkpt lat="45.31951" lon="4.58095">
        <ele>882.59997558594</ele>
        <time>2019-10-30T09:50:35.000Z</time>
      </trkpt>
      <trkpt lat="45.31946" lon="4.58099">
        <ele>882.59997558594</ele>
        <time>2019-10-30T09:50:36.000Z</time>
      </trkpt>
      <trkpt lat="45.3194" lon="4.58103">
        <ele>881.79998779297</ele>
        <time>2019-10-30T09:50:37.000Z</time>
      </trkpt>
      <trkpt lat="45.31934" lon="4.58107">
        <ele>881</ele>
        <time>2019-10-30T09:50:38.000Z</time>
      </trkpt>
      <trkpt lat="45.31915" lon="4.58116">
        <ele>878.79998779297</ele>
        <time>2019-10-30T09:50:41.000Z</time>
      </trkpt>
      <trkpt lat="45.31909" lon="4.58117">
        <ele>877.79998779297</ele>
        <time>2019-10-30T09:50:42.000Z</time>
      </trkpt>
      <trkpt lat="45.31903" lon="4.58118">
        <ele>877</ele>
        <time>2019-10-30T09:50:43.000Z</time>
      </trkpt>
      <trkpt lat="45.31896" lon="4.58119">
        <ele>876.59997558594</ele>
        <time>2019-10-30T09:50:44.000Z</time>
      </trkpt>
      <trkpt lat="45.3189" lon="4.5812">
        <ele>875.79998779297</ele>
        <time>2019-10-30T09:50:45.000Z</time>
      </trkpt>
      <trkpt lat="45.31884" lon="4.58121">
        <ele>874.79998779297</ele>
        <time>2019-10-30T09:50:46.000Z</time>
      </trkpt>
      <trkpt lat="45.31879" lon="4.58123">
        <ele>874.40002441406</ele>
        <time>2019-10-30T09:50:47.000Z</time>
      </trkpt>
      <trkpt lat="45.31874" lon="4.58124">
        <ele>874</ele>
        <time>2019-10-30T09:50:48.000Z</time>
      </trkpt>
      <trkpt lat="45.31869" lon="4.58127">
        <ele>873.79998779297</ele>
        <time>2019-10-30T09:50:49.000Z</time>
      </trkpt>
      <trkpt lat="45.31865" lon="4.58129">
        <ele>873.20001220703</ele>
        <time>2019-10-30T09:50:50.000Z</time>
      </trkpt>
      <trkpt lat="45.3186" lon="4.58129">
        <ele>872.40002441406</ele>
        <time>2019-10-30T09:50:51.000Z</time>
      </trkpt>
      <trkpt lat="45.31857" lon="4.58129">
        <ele>871.79998779297</ele>
        <time>2019-10-30T09:50:52.000Z</time>
      </trkpt>
      <trkpt lat="45.31853" lon="4.58132">
        <ele>871</ele>
        <time>2019-10-30T09:50:53.000Z</time>
      </trkpt>
      <trkpt lat="45.3185" lon="4.58136">
        <ele>870.40002441406</ele>
        <time>2019-10-30T09:50:54.000Z</time>
      </trkpt>
      <trkpt lat="45.31846" lon="4.58141">
        <ele>869.59997558594</ele>
        <time>2019-10-30T09:50:55.000Z</time>
      </trkpt>
      <trkpt lat="45.31843" lon="4.58148">
        <ele>869.20001220703</ele>
        <time>2019-10-30T09:50:56.000Z</time>
      </trkpt>
      <trkpt lat="45.31841" lon="4.58156">
        <ele>868.59997558594</ele>
        <time>2019-10-30T09:50:57.000Z</time>
      </trkpt>
      <trkpt lat="45.31839" lon="4.58163">
        <ele>867.79998779297</ele>
        <time>2019-10-30T09:50:58.000Z</time>
      </trkpt>
      <trkpt lat="45.31839" lon="4.5817">
        <ele>867.40002441406</ele>
        <time>2019-10-30T09:50:59.000Z</time>
      </trkpt>
      <trkpt lat="45.31839" lon="4.58177">
        <ele>867</ele>
        <time>2019-10-30T09:51:00.000Z</time>
      </trkpt>
      <trkpt lat="45.31839" lon="4.58183">
        <ele>866.79998779297</ele>
        <time>2019-10-30T09:51:01.000Z</time>
      </trkpt>
      <trkpt lat="45.31841" lon="4.5819">
        <ele>866.79998779297</ele>
        <time>2019-10-30T09:51:02.000Z</time>
      </trkpt>
      <trkpt lat="45.31843" lon="4.58197">
        <ele>865.79998779297</ele>
        <time>2019-10-30T09:51:03.000Z</time>
      </trkpt>
      <trkpt lat="45.31846" lon="4.58204">
        <ele>864.79998779297</ele>
        <time>2019-10-30T09:51:04.000Z</time>
      </trkpt>
      <trkpt lat="45.31851" lon="4.58219">
        <ele>863.40002441406</ele>
        <time>2019-10-30T09:51:06.000Z</time>
      </trkpt>
      <trkpt lat="45.31857" lon="4.58236">
        <ele>862.79998779297</ele>
        <time>2019-10-30T09:51:08.000Z</time>
      </trkpt>
      <trkpt lat="45.3186" lon="4.58245">
        <ele>862</ele>
        <time>2019-10-30T09:51:09.000Z</time>
      </trkpt>
      <trkpt lat="45.31867" lon="4.58262">
        <ele>860.79998779297</ele>
        <time>2019-10-30T09:51:11.000Z</time>
      </trkpt>
      <trkpt lat="45.3187" lon="4.58272">
        <ele>860.20001220703</ele>
        <time>2019-10-30T09:51:12.000Z</time>
      </trkpt>
      <trkpt lat="45.31872" lon="4.58282">
        <ele>859.79998779297</ele>
        <time>2019-10-30T09:51:13.000Z</time>
      </trkpt>
      <trkpt lat="45.31874" lon="4.58292">
        <ele>859</ele>
        <time>2019-10-30T09:51:14.000Z</time>
      </trkpt>
      <trkpt lat="45.31877" lon="4.58314">
        <ele>858.40002441406</ele>
        <time>2019-10-30T09:51:16.000Z</time>
      </trkpt>
      <trkpt lat="45.31877" lon="4.58326">
        <ele>857.79998779297</ele>
        <time>2019-10-30T09:51:17.000Z</time>
      </trkpt>
      <trkpt lat="45.31877" lon="4.58338">
        <ele>857.40002441406</ele>
        <time>2019-10-30T09:51:18.000Z</time>
      </trkpt>
      <trkpt lat="45.31875" lon="4.58349">
        <ele>857</ele>
        <time>2019-10-30T09:51:19.000Z</time>
      </trkpt>
      <trkpt lat="45.31872" lon="4.58361">
        <ele>856.20001220703</ele>
        <time>2019-10-30T09:51:20.000Z</time>
      </trkpt>
      <trkpt lat="45.31869" lon="4.58372">
        <ele>855.40002441406</ele>
        <time>2019-10-30T09:51:21.000Z</time>
      </trkpt>
      <trkpt lat="45.31867" lon="4.58382">
        <ele>854.59997558594</ele>
        <time>2019-10-30T09:51:22.000Z</time>
      </trkpt>
      <trkpt lat="45.31866" lon="4.58391">
        <ele>854</ele>
        <time>2019-10-30T09:51:23.000Z</time>
      </trkpt>
      <trkpt lat="45.31864" lon="4.58401">
        <ele>853.59997558594</ele>
        <time>2019-10-30T09:51:24.000Z</time>
      </trkpt>
      <trkpt lat="45.31863" lon="4.5841">
        <ele>852.59997558594</ele>
        <time>2019-10-30T09:51:25.000Z</time>
      </trkpt>
      <trkpt lat="45.3186" lon="4.5843">
        <ele>850.79998779297</ele>
        <time>2019-10-30T09:51:27.000Z</time>
      </trkpt>
      <trkpt lat="45.31857" lon="4.58439">
        <ele>850.79998779297</ele>
        <time>2019-10-30T09:51:28.000Z</time>
      </trkpt>
      <trkpt lat="45.31853" lon="4.58447">
        <ele>849.79998779297</ele>
        <time>2019-10-30T09:51:29.000Z</time>
      </trkpt>
      <trkpt lat="45.31849" lon="4.58453">
        <ele>849.20001220703</ele>
        <time>2019-10-30T09:51:30.000Z</time>
      </trkpt>
      <trkpt lat="45.31844" lon="4.58459">
        <ele>849</ele>
        <time>2019-10-30T09:51:31.000Z</time>
      </trkpt>
      <trkpt lat="45.31838" lon="4.58464">
        <ele>848.59997558594</ele>
        <time>2019-10-30T09:51:32.000Z</time>
      </trkpt>
      <trkpt lat="45.31833" lon="4.58469">
        <ele>848</ele>
        <time>2019-10-30T09:51:33.000Z</time>
      </trkpt>
      <trkpt lat="45.31828" lon="4.58472">
        <ele>847.40002441406</ele>
        <time>2019-10-30T09:51:34.000Z</time>
      </trkpt>
      <trkpt lat="45.31825" lon="4.58475">
        <ele>846.59997558594</ele>
        <time>2019-10-30T09:51:35.000Z</time>
      </trkpt>
      <trkpt lat="45.31822" lon="4.58477">
        <ele>846.40002441406</ele>
        <time>2019-10-30T09:51:36.000Z</time>
      </trkpt>
      <trkpt lat="45.3182" lon="4.5848">
        <ele>845.40002441406</ele>
        <time>2019-10-30T09:51:37.000Z</time>
      </trkpt>
      <trkpt lat="45.31817" lon="4.58483">
        <ele>844.79998779297</ele>
        <time>2019-10-30T09:51:38.000Z</time>
      </trkpt>
      <trkpt lat="45.31814" lon="4.58486">
        <ele>844.59997558594</ele>
        <time>2019-10-30T09:51:39.000Z</time>
      </trkpt>
      <trkpt lat="45.31811" lon="4.58488">
        <ele>844.20001220703</ele>
        <time>2019-10-30T09:51:40.000Z</time>
      </trkpt>
      <trkpt lat="45.31808" lon="4.5849">
        <ele>844</ele>
        <time>2019-10-30T09:51:41.000Z</time>
      </trkpt>
      <trkpt lat="45.31805" lon="4.58491">
        <ele>843.40002441406</ele>
        <time>2019-10-30T09:51:42.000Z</time>
      </trkpt>
      <trkpt lat="45.31804" lon="4.5849">
        <ele>843.20001220703</ele>
        <time>2019-10-30T09:51:43.000Z</time>
      </trkpt>
      <trkpt lat="45.31803" lon="4.5849">
        <ele>842.79998779297</ele>
        <time>2019-10-30T09:51:44.000Z</time>
      </trkpt>
      <trkpt lat="45.31803" lon="4.5849">
        <ele>842.59997558594</ele>
        <time>2019-10-30T09:51:45.000Z</time>
      </trkpt>
      <trkpt lat="45.31803" lon="4.5849">
        <ele>840</ele>
        <time>2019-10-30T09:51:53.000Z</time>
      </trkpt>
      <trkpt lat="45.31803" lon="4.5849">
        <ele>839.79998779297</ele>
        <time>2019-10-30T09:52:18.000Z</time>
      </trkpt>
      <trkpt lat="45.31803" lon="4.58489">
        <ele>839.59997558594</ele>
        <time>2019-10-30T09:52:50.000Z</time>
      </trkpt>
      <trkpt lat="45.31802" lon="4.58489">
        <ele>839.59997558594</ele>
        <time>2019-10-30T09:53:12.000Z</time>
      </trkpt>
      <trkpt lat="45.31798" lon="4.58489">
        <ele>839.59997558594</ele>
        <time>2019-10-30T09:53:15.000Z</time>
      </trkpt>
      <trkpt lat="45.31796" lon="4.58489">
        <ele>839.79998779297</ele>
        <time>2019-10-30T09:53:16.000Z</time>
      </trkpt>
      <trkpt lat="45.31794" lon="4.58491">
        <ele>839.59997558594</ele>
        <time>2019-10-30T09:53:17.000Z</time>
      </trkpt>
      <trkpt lat="45.31792" lon="4.58492">
        <ele>839.40002441406</ele>
        <time>2019-10-30T09:53:18.000Z</time>
      </trkpt>
      <trkpt lat="45.3179" lon="4.58494">
        <ele>839.59997558594</ele>
        <time>2019-10-30T09:53:19.000Z</time>
      </trkpt>
      <trkpt lat="45.31787" lon="4.58496">
        <ele>839.40002441406</ele>
        <time>2019-10-30T09:53:20.000Z</time>
      </trkpt>
      <trkpt lat="45.31783" lon="4.58501">
        <ele>839.40002441406</ele>
        <time>2019-10-30T09:53:22.000Z</time>
      </trkpt>
      <trkpt lat="45.31781" lon="4.58503">
        <ele>839.20001220703</ele>
        <time>2019-10-30T09:53:23.000Z</time>
      </trkpt>
      <trkpt lat="45.31779" lon="4.58505">
        <ele>839</ele>
        <time>2019-10-30T09:53:24.000Z</time>
      </trkpt>
      <trkpt lat="45.31777" lon="4.58507">
        <ele>838.59997558594</ele>
        <time>2019-10-30T09:53:25.000Z</time>
      </trkpt>
      <trkpt lat="45.31774" lon="4.58509">
        <ele>838.40002441406</ele>
        <time>2019-10-30T09:53:26.000Z</time>
      </trkpt>
      <trkpt lat="45.31772" lon="4.58511">
        <ele>838</ele>
        <time>2019-10-30T09:53:27.000Z</time>
      </trkpt>
      <trkpt lat="45.31767" lon="4.58516">
        <ele>837.20001220703</ele>
        <time>2019-10-30T09:53:29.000Z</time>
      </trkpt>
      <trkpt lat="45.31765" lon="4.58518">
        <ele>837</ele>
        <time>2019-10-30T09:53:30.000Z</time>
      </trkpt>
      <trkpt lat="45.31763" lon="4.58521">
        <ele>836.79998779297</ele>
        <time>2019-10-30T09:53:31.000Z</time>
      </trkpt>
      <trkpt lat="45.31758" lon="4.58528">
        <ele>836.59997558594</ele>
        <time>2019-10-30T09:53:33.000Z</time>
      </trkpt>
      <trkpt lat="45.31754" lon="4.58534">
        <ele>836.40002441406</ele>
        <time>2019-10-30T09:53:35.000Z</time>
      </trkpt>
      <trkpt lat="45.31753" lon="4.58536">
        <ele>836.20001220703</ele>
        <time>2019-10-30T09:53:36.000Z</time>
      </trkpt>
      <trkpt lat="45.31751" lon="4.58538">
        <ele>836</ele>
        <time>2019-10-30T09:53:37.000Z</time>
      </trkpt>
      <trkpt lat="45.3175" lon="4.58541">
        <ele>836</ele>
        <time>2019-10-30T09:53:38.000Z</time>
      </trkpt>
      <trkpt lat="45.31748" lon="4.58543">
        <ele>835.79998779297</ele>
        <time>2019-10-30T09:53:39.000Z</time>
      </trkpt>
      <trkpt lat="45.31746" lon="4.58546">
        <ele>835.59997558594</ele>
        <time>2019-10-30T09:53:40.000Z</time>
      </trkpt>
      <trkpt lat="45.31742" lon="4.58554">
        <ele>835.40002441406</ele>
        <time>2019-10-30T09:53:42.000Z</time>
      </trkpt>
      <trkpt lat="45.3174" lon="4.58558">
        <ele>835.40002441406</ele>
        <time>2019-10-30T09:53:43.000Z</time>
      </trkpt>
      <trkpt lat="45.31736" lon="4.58566">
        <ele>835</ele>
        <time>2019-10-30T09:53:45.000Z</time>
      </trkpt>
      <trkpt lat="45.31734" lon="4.5857">
        <ele>834.79998779297</ele>
        <time>2019-10-30T09:53:46.000Z</time>
      </trkpt>
      <trkpt lat="45.31732" lon="4.58572">
        <ele>834.59997558594</ele>
        <time>2019-10-30T09:53:47.000Z</time>
      </trkpt>
      <trkpt lat="45.3173" lon="4.58575">
        <ele>834.40002441406</ele>
        <time>2019-10-30T09:53:48.000Z</time>
      </trkpt>
      <trkpt lat="45.31729" lon="4.58578">
        <ele>833.40002441406</ele>
        <time>2019-10-30T09:53:49.000Z</time>
      </trkpt>
      <trkpt lat="45.31727" lon="4.58581">
        <ele>832.59997558594</ele>
        <time>2019-10-30T09:53:50.000Z</time>
      </trkpt>
      <trkpt lat="45.31726" lon="4.58583">
        <ele>831.79998779297</ele>
        <time>2019-10-30T09:53:51.000Z</time>
      </trkpt>
      <trkpt lat="45.31724" lon="4.58586">
        <ele>831.40002441406</ele>
        <time>2019-10-30T09:53:52.000Z</time>
      </trkpt>
      <trkpt lat="45.31719" lon="4.58591">
        <ele>830.79998779297</ele>
        <time>2019-10-30T09:53:54.000Z</time>
      </trkpt>
      <trkpt lat="45.31716" lon="4.58593">
        <ele>830.40002441406</ele>
        <time>2019-10-30T09:53:55.000Z</time>
      </trkpt>
      <trkpt lat="45.31713" lon="4.58595">
        <ele>829.79998779297</ele>
        <time>2019-10-30T09:53:56.000Z</time>
      </trkpt>
      <trkpt lat="45.31695" lon="4.58609">
        <ele>828.40002441406</ele>
        <time>2019-10-30T09:54:01.000Z</time>
      </trkpt>
      <trkpt lat="45.31691" lon="4.58611">
        <ele>828</ele>
        <time>2019-10-30T09:54:02.000Z</time>
      </trkpt>
      <trkpt lat="45.31687" lon="4.58612">
        <ele>827.79998779297</ele>
        <time>2019-10-30T09:54:03.000Z</time>
      </trkpt>
      <trkpt lat="45.31683" lon="4.58613">
        <ele>827.79998779297</ele>
        <time>2019-10-30T09:54:04.000Z</time>
      </trkpt>
      <trkpt lat="45.31669" lon="4.58617">
        <ele>827</ele>
        <time>2019-10-30T09:54:07.000Z</time>
      </trkpt>
      <trkpt lat="45.31665" lon="4.58618">
        <ele>826.79998779297</ele>
        <time>2019-10-30T09:54:08.000Z</time>
      </trkpt>
      <trkpt lat="45.31661" lon="4.58619">
        <ele>826.79998779297</ele>
        <time>2019-10-30T09:54:09.000Z</time>
      </trkpt>
      <trkpt lat="45.31658" lon="4.58619">
        <ele>826.59997558594</ele>
        <time>2019-10-30T09:54:10.000Z</time>
      </trkpt>
      <trkpt lat="45.31655" lon="4.58619">
        <ele>826.59997558594</ele>
        <time>2019-10-30T09:54:11.000Z</time>
      </trkpt>
      <trkpt lat="45.31651" lon="4.5862">
        <ele>826.20001220703</ele>
        <time>2019-10-30T09:54:12.000Z</time>
      </trkpt>
      <trkpt lat="45.31648" lon="4.58621">
        <ele>826</ele>
        <time>2019-10-30T09:54:13.000Z</time>
      </trkpt>
      <trkpt lat="45.31645" lon="4.58622">
        <ele>825.59997558594</ele>
        <time>2019-10-30T09:54:14.000Z</time>
      </trkpt>
      <trkpt lat="45.31642" lon="4.58624">
        <ele>825.40002441406</ele>
        <time>2019-10-30T09:54:15.000Z</time>
      </trkpt>
      <trkpt lat="45.31634" lon="4.58627">
        <ele>825.20001220703</ele>
        <time>2019-10-30T09:54:17.000Z</time>
      </trkpt>
      <trkpt lat="45.31631" lon="4.58629">
        <ele>825.20001220703</ele>
        <time>2019-10-30T09:54:18.000Z</time>
      </trkpt>
      <trkpt lat="45.31627" lon="4.58631">
        <ele>824.59997558594</ele>
        <time>2019-10-30T09:54:19.000Z</time>
      </trkpt>
      <trkpt lat="45.31623" lon="4.58634">
        <ele>824.20001220703</ele>
        <time>2019-10-30T09:54:20.000Z</time>
      </trkpt>
      <trkpt lat="45.3162" lon="4.58636">
        <ele>823.79998779297</ele>
        <time>2019-10-30T09:54:21.000Z</time>
      </trkpt>
      <trkpt lat="45.31613" lon="4.58643">
        <ele>823.59997558594</ele>
        <time>2019-10-30T09:54:23.000Z</time>
      </trkpt>
      <trkpt lat="45.31606" lon="4.58648">
        <ele>823.59997558594</ele>
        <time>2019-10-30T09:54:25.000Z</time>
      </trkpt>
      <trkpt lat="45.31603" lon="4.58651">
        <ele>823.40002441406</ele>
        <time>2019-10-30T09:54:26.000Z</time>
      </trkpt>
      <trkpt lat="45.316" lon="4.58654">
        <ele>823.20001220703</ele>
        <time>2019-10-30T09:54:27.000Z</time>
      </trkpt>
      <trkpt lat="45.31598" lon="4.58656">
        <ele>823</ele>
        <time>2019-10-30T09:54:28.000Z</time>
      </trkpt>
      <trkpt lat="45.31596" lon="4.58657">
        <ele>823</ele>
        <time>2019-10-30T09:54:29.000Z</time>
      </trkpt>
      <trkpt lat="45.31594" lon="4.58659">
        <ele>823</ele>
        <time>2019-10-30T09:54:30.000Z</time>
      </trkpt>
      <trkpt lat="45.31592" lon="4.58661">
        <ele>822.79998779297</ele>
        <time>2019-10-30T09:54:31.000Z</time>
      </trkpt>
      <trkpt lat="45.31588" lon="4.58664">
        <ele>822</ele>
        <time>2019-10-30T09:54:32.000Z</time>
      </trkpt>
      <trkpt lat="45.31585" lon="4.58669">
        <ele>821.40002441406</ele>
        <time>2019-10-30T09:54:33.000Z</time>
      </trkpt>
      <trkpt lat="45.31583" lon="4.58672">
        <ele>821.20001220703</ele>
        <time>2019-10-30T09:54:34.000Z</time>
      </trkpt>
      <trkpt lat="45.31581" lon="4.58675">
        <ele>820.79998779297</ele>
        <time>2019-10-30T09:54:35.000Z</time>
      </trkpt>
      <trkpt lat="45.31575" lon="4.58682">
        <ele>819.79998779297</ele>
        <time>2019-10-30T09:54:37.000Z</time>
      </trkpt>
      <trkpt lat="45.3157" lon="4.58689">
        <ele>818.79998779297</ele>
        <time>2019-10-30T09:54:39.000Z</time>
      </trkpt>
      <trkpt lat="45.31568" lon="4.58693">
        <ele>818.59997558594</ele>
        <time>2019-10-30T09:54:40.000Z</time>
      </trkpt>
      <trkpt lat="45.31565" lon="4.58696">
        <ele>817.79998779297</ele>
        <time>2019-10-30T09:54:41.000Z</time>
      </trkpt>
      <trkpt lat="45.31562" lon="4.58698">
        <ele>817.40002441406</ele>
        <time>2019-10-30T09:54:42.000Z</time>
      </trkpt>
      <trkpt lat="45.31558" lon="4.58701">
        <ele>816.79998779297</ele>
        <time>2019-10-30T09:54:43.000Z</time>
      </trkpt>
      <trkpt lat="45.31555" lon="4.58705">
        <ele>816.40002441406</ele>
        <time>2019-10-30T09:54:44.000Z</time>
      </trkpt>
      <trkpt lat="45.31551" lon="4.58707">
        <ele>815.79998779297</ele>
        <time>2019-10-30T09:54:45.000Z</time>
      </trkpt>
      <trkpt lat="45.31548" lon="4.58709">
        <ele>815</ele>
        <time>2019-10-30T09:54:46.000Z</time>
      </trkpt>
      <trkpt lat="45.31543" lon="4.58713">
        <ele>814</ele>
        <time>2019-10-30T09:54:47.000Z</time>
      </trkpt>
      <trkpt lat="45.31533" lon="4.58721">
        <ele>812.79998779297</ele>
        <time>2019-10-30T09:54:49.000Z</time>
      </trkpt>
      <trkpt lat="45.31529" lon="4.58723">
        <ele>812</ele>
        <time>2019-10-30T09:54:50.000Z</time>
      </trkpt>
      <trkpt lat="45.31525" lon="4.58726">
        <ele>810.79998779297</ele>
        <time>2019-10-30T09:54:51.000Z</time>
      </trkpt>
      <trkpt lat="45.31521" lon="4.58728">
        <ele>809.79998779297</ele>
        <time>2019-10-30T09:54:52.000Z</time>
      </trkpt>
      <trkpt lat="45.31518" lon="4.58729">
        <ele>809.20001220703</ele>
        <time>2019-10-30T09:54:53.000Z</time>
      </trkpt>
      <trkpt lat="45.31515" lon="4.58731">
        <ele>808.79998779297</ele>
        <time>2019-10-30T09:54:54.000Z</time>
      </trkpt>
      <trkpt lat="45.31511" lon="4.58736">
        <ele>808.79998779297</ele>
        <time>2019-10-30T09:54:55.000Z</time>
      </trkpt>
      <trkpt lat="45.31508" lon="4.58737">
        <ele>807.79998779297</ele>
        <time>2019-10-30T09:54:56.000Z</time>
      </trkpt>
      <trkpt lat="45.31503" lon="4.58741">
        <ele>807.40002441406</ele>
        <time>2019-10-30T09:54:57.000Z</time>
      </trkpt>
      <trkpt lat="45.315" lon="4.58743">
        <ele>807.20001220703</ele>
        <time>2019-10-30T09:54:58.000Z</time>
      </trkpt>
      <trkpt lat="45.31495" lon="4.58747">
        <ele>807</ele>
        <time>2019-10-30T09:54:59.000Z</time>
      </trkpt>
      <trkpt lat="45.31491" lon="4.58749">
        <ele>806.79998779297</ele>
        <time>2019-10-30T09:55:00.000Z</time>
      </trkpt>
      <trkpt lat="45.31488" lon="4.58751">
        <ele>806.59997558594</ele>
        <time>2019-10-30T09:55:01.000Z</time>
      </trkpt>
      <trkpt lat="45.31485" lon="4.58754">
        <ele>806.20001220703</ele>
        <time>2019-10-30T09:55:02.000Z</time>
      </trkpt>
      <trkpt lat="45.31481" lon="4.58755">
        <ele>806</ele>
        <time>2019-10-30T09:55:03.000Z</time>
      </trkpt>
      <trkpt lat="45.31477" lon="4.58756">
        <ele>805.59997558594</ele>
        <time>2019-10-30T09:55:04.000Z</time>
      </trkpt>
      <trkpt lat="45.31474" lon="4.58754">
        <ele>804.40002441406</ele>
        <time>2019-10-30T09:55:05.000Z</time>
      </trkpt>
      <trkpt lat="45.31471" lon="4.58752">
        <ele>803.59997558594</ele>
        <time>2019-10-30T09:55:06.000Z</time>
      </trkpt>
      <trkpt lat="45.31468" lon="4.58749">
        <ele>803.40002441406</ele>
        <time>2019-10-30T09:55:07.000Z</time>
      </trkpt>
      <trkpt lat="45.31464" lon="4.58746">
        <ele>802.79998779297</ele>
        <time>2019-10-30T09:55:08.000Z</time>
      </trkpt>
      <trkpt lat="45.31461" lon="4.58742">
        <ele>802.40002441406</ele>
        <time>2019-10-30T09:55:09.000Z</time>
      </trkpt>
      <trkpt lat="45.31457" lon="4.58741">
        <ele>802.20001220703</ele>
        <time>2019-10-30T09:55:10.000Z</time>
      </trkpt>
      <trkpt lat="45.31452" lon="4.58741">
        <ele>801.59997558594</ele>
        <time>2019-10-30T09:55:11.000Z</time>
      </trkpt>
      <trkpt lat="45.31449" lon="4.58742">
        <ele>801.40002441406</ele>
        <time>2019-10-30T09:55:12.000Z</time>
      </trkpt>
      <trkpt lat="45.31446" lon="4.58744">
        <ele>800.59997558594</ele>
        <time>2019-10-30T09:55:13.000Z</time>
      </trkpt>
      <trkpt lat="45.31443" lon="4.58746">
        <ele>800.20001220703</ele>
        <time>2019-10-30T09:55:14.000Z</time>
      </trkpt>
      <trkpt lat="45.3144" lon="4.58749">
        <ele>799.59997558594</ele>
        <time>2019-10-30T09:55:15.000Z</time>
      </trkpt>
      <trkpt lat="45.31438" lon="4.58752">
        <ele>798.79998779297</ele>
        <time>2019-10-30T09:55:16.000Z</time>
      </trkpt>
      <trkpt lat="45.31435" lon="4.58755">
        <ele>798.20001220703</ele>
        <time>2019-10-30T09:55:17.000Z</time>
      </trkpt>
      <trkpt lat="45.31434" lon="4.58758">
        <ele>797.59997558594</ele>
        <time>2019-10-30T09:55:18.000Z</time>
      </trkpt>
      <trkpt lat="45.31432" lon="4.58761">
        <ele>797</ele>
        <time>2019-10-30T09:55:19.000Z</time>
      </trkpt>
      <trkpt lat="45.31429" lon="4.58763">
        <ele>796.40002441406</ele>
        <time>2019-10-30T09:55:20.000Z</time>
      </trkpt>
      <trkpt lat="45.31427" lon="4.58766">
        <ele>796.40002441406</ele>
        <time>2019-10-30T09:55:21.000Z</time>
      </trkpt>
      <trkpt lat="45.31425" lon="4.5877">
        <ele>795.79998779297</ele>
        <time>2019-10-30T09:55:22.000Z</time>
      </trkpt>
      <trkpt lat="45.31424" lon="4.58775">
        <ele>795</ele>
        <time>2019-10-30T09:55:23.000Z</time>
      </trkpt>
      <trkpt lat="45.31422" lon="4.58781">
        <ele>794</ele>
        <time>2019-10-30T09:55:24.000Z</time>
      </trkpt>
      <trkpt lat="45.31422" lon="4.58786">
        <ele>793.20001220703</ele>
        <time>2019-10-30T09:55:25.000Z</time>
      </trkpt>
      <trkpt lat="45.31421" lon="4.58791">
        <ele>792.40002441406</ele>
        <time>2019-10-30T09:55:26.000Z</time>
      </trkpt>
      <trkpt lat="45.31422" lon="4.58795">
        <ele>792</ele>
        <time>2019-10-30T09:55:27.000Z</time>
      </trkpt>
      <trkpt lat="45.31423" lon="4.588">
        <ele>791.79998779297</ele>
        <time>2019-10-30T09:55:28.000Z</time>
      </trkpt>
      <trkpt lat="45.31424" lon="4.58804">
        <ele>791.40002441406</ele>
        <time>2019-10-30T09:55:29.000Z</time>
      </trkpt>
      <trkpt lat="45.31425" lon="4.58808">
        <ele>790.79998779297</ele>
        <time>2019-10-30T09:55:30.000Z</time>
      </trkpt>
      <trkpt lat="45.31426" lon="4.58811">
        <ele>790.59997558594</ele>
        <time>2019-10-30T09:55:31.000Z</time>
      </trkpt>
      <trkpt lat="45.31426" lon="4.58814">
        <ele>790.20001220703</ele>
        <time>2019-10-30T09:55:32.000Z</time>
      </trkpt>
      <trkpt lat="45.31427" lon="4.58816">
        <ele>789.79998779297</ele>
        <time>2019-10-30T09:55:33.000Z</time>
      </trkpt>
      <trkpt lat="45.31427" lon="4.58818">
        <ele>789.59997558594</ele>
        <time>2019-10-30T09:55:34.000Z</time>
      </trkpt>
      <trkpt lat="45.31427" lon="4.58822">
        <ele>789.40002441406</ele>
        <time>2019-10-30T09:55:35.000Z</time>
      </trkpt>
      <trkpt lat="45.31426" lon="4.5883">
        <ele>788.79998779297</ele>
        <time>2019-10-30T09:55:37.000Z</time>
      </trkpt>
      <trkpt lat="45.31425" lon="4.58836">
        <ele>788.40002441406</ele>
        <time>2019-10-30T09:55:38.000Z</time>
      </trkpt>
      <trkpt lat="45.31425" lon="4.58841">
        <ele>788</ele>
        <time>2019-10-30T09:55:39.000Z</time>
      </trkpt>
      <trkpt lat="45.31423" lon="4.58844">
        <ele>788</ele>
        <time>2019-10-30T09:55:40.000Z</time>
      </trkpt>
      <trkpt lat="45.31422" lon="4.58847">
        <ele>787.59997558594</ele>
        <time>2019-10-30T09:55:41.000Z</time>
      </trkpt>
      <trkpt lat="45.31419" lon="4.58851">
        <ele>787.20001220703</ele>
        <time>2019-10-30T09:55:42.000Z</time>
      </trkpt>
      <trkpt lat="45.31417" lon="4.58855">
        <ele>786.79998779297</ele>
        <time>2019-10-30T09:55:43.000Z</time>
      </trkpt>
      <trkpt lat="45.31413" lon="4.58863">
        <ele>785</ele>
        <time>2019-10-30T09:55:45.000Z</time>
      </trkpt>
      <trkpt lat="45.31408" lon="4.58873">
        <ele>783.79998779297</ele>
        <time>2019-10-30T09:55:47.000Z</time>
      </trkpt>
      <trkpt lat="45.31405" lon="4.58877">
        <ele>783</ele>
        <time>2019-10-30T09:55:48.000Z</time>
      </trkpt>
      <trkpt lat="45.31402" lon="4.58881">
        <ele>782.40002441406</ele>
        <time>2019-10-30T09:55:49.000Z</time>
      </trkpt>
      <trkpt lat="45.31398" lon="4.58885">
        <ele>781.59997558594</ele>
        <time>2019-10-30T09:55:50.000Z</time>
      </trkpt>
      <trkpt lat="45.31389" lon="4.58898">
        <ele>779.79998779297</ele>
        <time>2019-10-30T09:55:53.000Z</time>
      </trkpt>
      <trkpt lat="45.31386" lon="4.58902">
        <ele>779</ele>
        <time>2019-10-30T09:55:54.000Z</time>
      </trkpt>
      <trkpt lat="45.31381" lon="4.58911">
        <ele>777.79998779297</ele>
        <time>2019-10-30T09:55:56.000Z</time>
      </trkpt>
      <trkpt lat="45.31379" lon="4.58917">
        <ele>776.79998779297</ele>
        <time>2019-10-30T09:55:57.000Z</time>
      </trkpt>
      <trkpt lat="45.31377" lon="4.58922">
        <ele>776</ele>
        <time>2019-10-30T09:55:58.000Z</time>
      </trkpt>
      <trkpt lat="45.31375" lon="4.58928">
        <ele>775.40002441406</ele>
        <time>2019-10-30T09:55:59.000Z</time>
      </trkpt>
      <trkpt lat="45.31374" lon="4.58932">
        <ele>774.79998779297</ele>
        <time>2019-10-30T09:56:00.000Z</time>
      </trkpt>
      <trkpt lat="45.31372" lon="4.58937">
        <ele>774.59997558594</ele>
        <time>2019-10-30T09:56:01.000Z</time>
      </trkpt>
      <trkpt lat="45.31371" lon="4.58944">
        <ele>774</ele>
        <time>2019-10-30T09:56:02.000Z</time>
      </trkpt>
      <trkpt lat="45.31369" lon="4.5895">
        <ele>773.59997558594</ele>
        <time>2019-10-30T09:56:03.000Z</time>
      </trkpt>
      <trkpt lat="45.31366" lon="4.58954">
        <ele>773</ele>
        <time>2019-10-30T09:56:04.000Z</time>
      </trkpt>
      <trkpt lat="45.31363" lon="4.58958">
        <ele>772</ele>
        <time>2019-10-30T09:56:05.000Z</time>
      </trkpt>
      <trkpt lat="45.3136" lon="4.58963">
        <ele>771.20001220703</ele>
        <time>2019-10-30T09:56:06.000Z</time>
      </trkpt>
      <trkpt lat="45.31357" lon="4.58968">
        <ele>770.59997558594</ele>
        <time>2019-10-30T09:56:07.000Z</time>
      </trkpt>
      <trkpt lat="45.31354" lon="4.58974">
        <ele>770</ele>
        <time>2019-10-30T09:56:08.000Z</time>
      </trkpt>
      <trkpt lat="45.31351" lon="4.5898">
        <ele>769.59997558594</ele>
        <time>2019-10-30T09:56:09.000Z</time>
      </trkpt>
      <trkpt lat="45.31348" lon="4.58985">
        <ele>768.59997558594</ele>
        <time>2019-10-30T09:56:10.000Z</time>
      </trkpt>
      <trkpt lat="45.31344" lon="4.58991">
        <ele>768.20001220703</ele>
        <time>2019-10-30T09:56:11.000Z</time>
      </trkpt>
      <trkpt lat="45.31339" lon="4.58996">
        <ele>767.79998779297</ele>
        <time>2019-10-30T09:56:12.000Z</time>
      </trkpt>
      <trkpt lat="45.31335" lon="4.59002">
        <ele>767.79998779297</ele>
        <time>2019-10-30T09:56:13.000Z</time>
      </trkpt>
      <trkpt lat="45.3133" lon="4.59008">
        <ele>766.79998779297</ele>
        <time>2019-10-30T09:56:14.000Z</time>
      </trkpt>
      <trkpt lat="45.31325" lon="4.59011">
        <ele>766.20001220703</ele>
        <time>2019-10-30T09:56:15.000Z</time>
      </trkpt>
      <trkpt lat="45.3132" lon="4.59016">
        <ele>765.20001220703</ele>
        <time>2019-10-30T09:56:16.000Z</time>
      </trkpt>
      <trkpt lat="45.31315" lon="4.59022">
        <ele>764.59997558594</ele>
        <time>2019-10-30T09:56:17.000Z</time>
      </trkpt>
      <trkpt lat="45.3131" lon="4.59029">
        <ele>764.20001220703</ele>
        <time>2019-10-30T09:56:18.000Z</time>
      </trkpt>
      <trkpt lat="45.31306" lon="4.5904">
        <ele>762.79998779297</ele>
        <time>2019-10-30T09:56:19.000Z</time>
      </trkpt>
      <trkpt lat="45.31301" lon="4.5905">
        <ele>761.79998779297</ele>
        <time>2019-10-30T09:56:20.000Z</time>
      </trkpt>
      <trkpt lat="45.31292" lon="4.59073">
        <ele>760.59997558594</ele>
        <time>2019-10-30T09:56:22.000Z</time>
      </trkpt>
      <trkpt lat="45.31288" lon="4.59084">
        <ele>760.20001220703</ele>
        <time>2019-10-30T09:56:23.000Z</time>
      </trkpt>
      <trkpt lat="45.31285" lon="4.59095">
        <ele>759.59997558594</ele>
        <time>2019-10-30T09:56:24.000Z</time>
      </trkpt>
      <trkpt lat="45.31282" lon="4.59105">
        <ele>758.40002441406</ele>
        <time>2019-10-30T09:56:25.000Z</time>
      </trkpt>
      <trkpt lat="45.31279" lon="4.59114">
        <ele>757.79998779297</ele>
        <time>2019-10-30T09:56:26.000Z</time>
      </trkpt>
      <trkpt lat="45.31276" lon="4.59122">
        <ele>756.59997558594</ele>
        <time>2019-10-30T09:56:27.000Z</time>
      </trkpt>
      <trkpt lat="45.31274" lon="4.59131">
        <ele>755.40002441406</ele>
        <time>2019-10-30T09:56:28.000Z</time>
      </trkpt>
      <trkpt lat="45.31271" lon="4.5914">
        <ele>752.79998779297</ele>
        <time>2019-10-30T09:56:29.000Z</time>
      </trkpt>
      <trkpt lat="45.31267" lon="4.59151">
        <ele>751.59997558594</ele>
        <time>2019-10-30T09:56:30.000Z</time>
      </trkpt>
      <trkpt lat="45.31263" lon="4.59161">
        <ele>750.79998779297</ele>
        <time>2019-10-30T09:56:31.000Z</time>
      </trkpt>
      <trkpt lat="45.31259" lon="4.59173">
        <ele>750</ele>
        <time>2019-10-30T09:56:32.000Z</time>
      </trkpt>
      <trkpt lat="45.31255" lon="4.59184">
        <ele>749</ele>
        <time>2019-10-30T09:56:33.000Z</time>
      </trkpt>
      <trkpt lat="45.31252" lon="4.59197">
        <ele>748</ele>
        <time>2019-10-30T09:56:34.000Z</time>
      </trkpt>
      <trkpt lat="45.31243" lon="4.59235">
        <ele>745.20001220703</ele>
        <time>2019-10-30T09:56:37.000Z</time>
      </trkpt>
      <trkpt lat="45.3124" lon="4.59246">
        <ele>744.79998779297</ele>
        <time>2019-10-30T09:56:38.000Z</time>
      </trkpt>
      <trkpt lat="45.31238" lon="4.59258">
        <ele>744.79998779297</ele>
        <time>2019-10-30T09:56:39.000Z</time>
      </trkpt>
      <trkpt lat="45.31236" lon="4.59269">
        <ele>743.59997558594</ele>
        <time>2019-10-30T09:56:40.000Z</time>
      </trkpt>
      <trkpt lat="45.31233" lon="4.5928">
        <ele>741.79998779297</ele>
        <time>2019-10-30T09:56:41.000Z</time>
      </trkpt>
      <trkpt lat="45.31231" lon="4.59291">
        <ele>740.79998779297</ele>
        <time>2019-10-30T09:56:42.000Z</time>
      </trkpt>
      <trkpt lat="45.31228" lon="4.59302">
        <ele>740.20001220703</ele>
        <time>2019-10-30T09:56:43.000Z</time>
      </trkpt>
      <trkpt lat="45.31226" lon="4.59313">
        <ele>739.40002441406</ele>
        <time>2019-10-30T09:56:44.000Z</time>
      </trkpt>
      <trkpt lat="45.31224" lon="4.59323">
        <ele>739</ele>
        <time>2019-10-30T09:56:45.000Z</time>
      </trkpt>
      <trkpt lat="45.31221" lon="4.59333">
        <ele>738.79998779297</ele>
        <time>2019-10-30T09:56:46.000Z</time>
      </trkpt>
      <trkpt lat="45.31218" lon="4.59343">
        <ele>738.40002441406</ele>
        <time>2019-10-30T09:56:47.000Z</time>
      </trkpt>
      <trkpt lat="45.31216" lon="4.59353">
        <ele>738.20001220703</ele>
        <time>2019-10-30T09:56:48.000Z</time>
      </trkpt>
      <trkpt lat="45.31213" lon="4.59362">
        <ele>738</ele>
        <time>2019-10-30T09:56:49.000Z</time>
      </trkpt>
      <trkpt lat="45.3121" lon="4.59372">
        <ele>738</ele>
        <time>2019-10-30T09:56:50.000Z</time>
      </trkpt>
      <trkpt lat="45.31206" lon="4.59381">
        <ele>737.79998779297</ele>
        <time>2019-10-30T09:56:51.000Z</time>
      </trkpt>
      <trkpt lat="45.31203" lon="4.59389">
        <ele>737.20001220703</ele>
        <time>2019-10-30T09:56:52.000Z</time>
      </trkpt>
      <trkpt lat="45.31199" lon="4.59397">
        <ele>736.59997558594</ele>
        <time>2019-10-30T09:56:53.000Z</time>
      </trkpt>
      <trkpt lat="45.31197" lon="4.59405">
        <ele>736</ele>
        <time>2019-10-30T09:56:54.000Z</time>
      </trkpt>
      <trkpt lat="45.31194" lon="4.59413">
        <ele>735.59997558594</ele>
        <time>2019-10-30T09:56:55.000Z</time>
      </trkpt>
      <trkpt lat="45.31192" lon="4.59422">
        <ele>735.20001220703</ele>
        <time>2019-10-30T09:56:56.000Z</time>
      </trkpt>
      <trkpt lat="45.31189" lon="4.59431">
        <ele>734.59997558594</ele>
        <time>2019-10-30T09:56:57.000Z</time>
      </trkpt>
      <trkpt lat="45.31186" lon="4.5944">
        <ele>734.40002441406</ele>
        <time>2019-10-30T09:56:58.000Z</time>
      </trkpt>
      <trkpt lat="45.31183" lon="4.59448">
        <ele>734</ele>
        <time>2019-10-30T09:56:59.000Z</time>
      </trkpt>
      <trkpt lat="45.31177" lon="4.59466">
        <ele>733.40002441406</ele>
        <time>2019-10-30T09:57:01.000Z</time>
      </trkpt>
      <trkpt lat="45.31172" lon="4.59484">
        <ele>733</ele>
        <time>2019-10-30T09:57:03.000Z</time>
      </trkpt>
      <trkpt lat="45.31169" lon="4.59493">
        <ele>732</ele>
        <time>2019-10-30T09:57:04.000Z</time>
      </trkpt>
      <trkpt lat="45.3116" lon="4.59519">
        <ele>730.20001220703</ele>
        <time>2019-10-30T09:57:07.000Z</time>
      </trkpt>
      <trkpt lat="45.31158" lon="4.59527">
        <ele>729.40002441406</ele>
        <time>2019-10-30T09:57:08.000Z</time>
      </trkpt>
      <trkpt lat="45.31155" lon="4.59536">
        <ele>728.40002441406</ele>
        <time>2019-10-30T09:57:09.000Z</time>
      </trkpt>
      <trkpt lat="45.31152" lon="4.59544">
        <ele>727.79998779297</ele>
        <time>2019-10-30T09:57:10.000Z</time>
      </trkpt>
      <trkpt lat="45.3115" lon="4.59552">
        <ele>726.79998779297</ele>
        <time>2019-10-30T09:57:11.000Z</time>
      </trkpt>
      <trkpt lat="45.31148" lon="4.59559">
        <ele>726.20001220703</ele>
        <time>2019-10-30T09:57:12.000Z</time>
      </trkpt>
      <trkpt lat="45.31145" lon="4.59566">
        <ele>725.59997558594</ele>
        <time>2019-10-30T09:57:13.000Z</time>
      </trkpt>
      <trkpt lat="45.3114" lon="4.59581">
        <ele>724.59997558594</ele>
        <time>2019-10-30T09:57:15.000Z</time>
      </trkpt>
      <trkpt lat="45.31138" lon="4.59588">
        <ele>723.59997558594</ele>
        <time>2019-10-30T09:57:16.000Z</time>
      </trkpt>
      <trkpt lat="45.31137" lon="4.59595">
        <ele>723</ele>
        <time>2019-10-30T09:57:17.000Z</time>
      </trkpt>
      <trkpt lat="45.31133" lon="4.59612">
        <ele>722</ele>
        <time>2019-10-30T09:57:19.000Z</time>
      </trkpt>
      <trkpt lat="45.3113" lon="4.59621">
        <ele>721.20001220703</ele>
        <time>2019-10-30T09:57:20.000Z</time>
      </trkpt>
      <trkpt lat="45.31128" lon="4.59631">
        <ele>721</ele>
        <time>2019-10-30T09:57:21.000Z</time>
      </trkpt>
      <trkpt lat="45.31123" lon="4.59649">
        <ele>720</ele>
        <time>2019-10-30T09:57:23.000Z</time>
      </trkpt>
      <trkpt lat="45.31121" lon="4.59655">
        <ele>718.40002441406</ele>
        <time>2019-10-30T09:57:24.000Z</time>
      </trkpt>
      <trkpt lat="45.31119" lon="4.5966">
        <ele>717.79998779297</ele>
        <time>2019-10-30T09:57:25.000Z</time>
      </trkpt>
      <trkpt lat="45.31118" lon="4.59665">
        <ele>717.40002441406</ele>
        <time>2019-10-30T09:57:26.000Z</time>
      </trkpt>
      <trkpt lat="45.31116" lon="4.5967">
        <ele>716.79998779297</ele>
        <time>2019-10-30T09:57:27.000Z</time>
      </trkpt>
      <trkpt lat="45.31114" lon="4.59674">
        <ele>716.40002441406</ele>
        <time>2019-10-30T09:57:28.000Z</time>
      </trkpt>
      <trkpt lat="45.31112" lon="4.59679">
        <ele>715.59997558594</ele>
        <time>2019-10-30T09:57:29.000Z</time>
      </trkpt>
      <trkpt lat="45.3111" lon="4.59684">
        <ele>714.79998779297</ele>
        <time>2019-10-30T09:57:30.000Z</time>
      </trkpt>
      <trkpt lat="45.31106" lon="4.59693">
        <ele>714.20001220703</ele>
        <time>2019-10-30T09:57:32.000Z</time>
      </trkpt>
      <trkpt lat="45.31093" lon="4.59721">
        <ele>713.20001220703</ele>
        <time>2019-10-30T09:57:37.000Z</time>
      </trkpt>
      <trkpt lat="45.3109" lon="4.59727">
        <ele>713.20001220703</ele>
        <time>2019-10-30T09:57:38.000Z</time>
      </trkpt>
      <trkpt lat="45.31084" lon="4.59737">
        <ele>712.40002441406</ele>
        <time>2019-10-30T09:57:40.000Z</time>
      </trkpt>
      <trkpt lat="45.31075" lon="4.59753">
        <ele>711.20001220703</ele>
        <time>2019-10-30T09:57:43.000Z</time>
      </trkpt>
      <trkpt lat="45.31072" lon="4.59758">
        <ele>711</ele>
        <time>2019-10-30T09:57:44.000Z</time>
      </trkpt>
      <trkpt lat="45.31063" lon="4.59774">
        <ele>710.59997558594</ele>
        <time>2019-10-30T09:57:47.000Z</time>
      </trkpt>
      <trkpt lat="45.31057" lon="4.59784">
        <ele>710</ele>
        <time>2019-10-30T09:57:49.000Z</time>
      </trkpt>
      <trkpt lat="45.31053" lon="4.59788">
        <ele>709.79998779297</ele>
        <time>2019-10-30T09:57:50.000Z</time>
      </trkpt>
      <trkpt lat="45.3105" lon="4.59792">
        <ele>709.59997558594</ele>
        <time>2019-10-30T09:57:51.000Z</time>
      </trkpt>
      <trkpt lat="45.31048" lon="4.59796">
        <ele>709.59997558594</ele>
        <time>2019-10-30T09:57:52.000Z</time>
      </trkpt>
      <trkpt lat="45.31045" lon="4.59798">
        <ele>709.40002441406</ele>
        <time>2019-10-30T09:57:53.000Z</time>
      </trkpt>
      <trkpt lat="45.31042" lon="4.59802">
        <ele>709.40002441406</ele>
        <time>2019-10-30T09:57:54.000Z</time>
      </trkpt>
      <trkpt lat="45.3104" lon="4.59805">
        <ele>709.20001220703</ele>
        <time>2019-10-30T09:57:55.000Z</time>
      </trkpt>
      <trkpt lat="45.31038" lon="4.59808">
        <ele>709</ele>
        <time>2019-10-30T09:57:56.000Z</time>
      </trkpt>
      <trkpt lat="45.31036" lon="4.59811">
        <ele>709</ele>
        <time>2019-10-30T09:57:57.000Z</time>
      </trkpt>
      <trkpt lat="45.31034" lon="4.59815">
        <ele>708.79998779297</ele>
        <time>2019-10-30T09:57:58.000Z</time>
      </trkpt>
      <trkpt lat="45.31031" lon="4.59823">
        <ele>708.40002441406</ele>
        <time>2019-10-30T09:58:00.000Z</time>
      </trkpt>
      <trkpt lat="45.31029" lon="4.59826">
        <ele>708</ele>
        <time>2019-10-30T09:58:01.000Z</time>
      </trkpt>
      <trkpt lat="45.31027" lon="4.59829">
        <ele>707.59997558594</ele>
        <time>2019-10-30T09:58:02.000Z</time>
      </trkpt>
      <trkpt lat="45.31024" lon="4.5983">
        <ele>707.40002441406</ele>
        <time>2019-10-30T09:58:03.000Z</time>
      </trkpt>
      <trkpt lat="45.31023" lon="4.59831">
        <ele>707</ele>
        <time>2019-10-30T09:58:04.000Z</time>
      </trkpt>
      <trkpt lat="45.31021" lon="4.5983">
        <ele>706.40002441406</ele>
        <time>2019-10-30T09:58:05.000Z</time>
      </trkpt>
      <trkpt lat="45.31021" lon="4.5983">
        <ele>706.20001220703</ele>
        <time>2019-10-30T09:58:06.000Z</time>
      </trkpt>
      <trkpt lat="45.31021" lon="4.5983">
        <ele>706</ele>
        <time>2019-10-30T09:58:07.000Z</time>
      </trkpt>
      <trkpt lat="45.31019" lon="4.59829">
        <ele>704.40002441406</ele>
        <time>2019-10-30T09:58:14.000Z</time>
      </trkpt>
      <trkpt lat="45.31018" lon="4.5983">
        <ele>704.40002441406</ele>
        <time>2019-10-30T09:58:15.000Z</time>
      </trkpt>
      <trkpt lat="45.31017" lon="4.59831">
        <ele>704.40002441406</ele>
        <time>2019-10-30T09:58:16.000Z</time>
      </trkpt>
      <trkpt lat="45.31016" lon="4.59832">
        <ele>704.59997558594</ele>
        <time>2019-10-30T09:58:17.000Z</time>
      </trkpt>
      <trkpt lat="45.31014" lon="4.59834">
        <ele>704.40002441406</ele>
        <time>2019-10-30T09:58:18.000Z</time>
      </trkpt>
      <trkpt lat="45.31013" lon="4.59836">
        <ele>704.40002441406</ele>
        <time>2019-10-30T09:58:19.000Z</time>
      </trkpt>
      <trkpt lat="45.31012" lon="4.59838">
        <ele>704.59997558594</ele>
        <time>2019-10-30T09:58:20.000Z</time>
      </trkpt>
      <trkpt lat="45.31008" lon="4.59842">
        <ele>704.40002441406</ele>
        <time>2019-10-30T09:58:22.000Z</time>
      </trkpt>
      <trkpt lat="45.31007" lon="4.59844">
        <ele>704.40002441406</ele>
        <time>2019-10-30T09:58:23.000Z</time>
      </trkpt>
      <trkpt lat="45.31005" lon="4.59845">
        <ele>704.40002441406</ele>
        <time>2019-10-30T09:58:24.000Z</time>
      </trkpt>
      <trkpt lat="45.31004" lon="4.59845">
        <ele>704.40002441406</ele>
        <time>2019-10-30T09:58:25.000Z</time>
      </trkpt>
      <trkpt lat="45.31003" lon="4.59846">
        <ele>704.40002441406</ele>
        <time>2019-10-30T09:58:26.000Z</time>
      </trkpt>
      <trkpt lat="45.31001" lon="4.59845">
        <ele>704.59997558594</ele>
        <time>2019-10-30T09:58:27.000Z</time>
      </trkpt>
      <trkpt lat="45.30995" lon="4.59845">
        <ele>704.79998779297</ele>
        <time>2019-10-30T09:58:30.000Z</time>
      </trkpt>
      <trkpt lat="45.30994" lon="4.59845">
        <ele>704.79998779297</ele>
        <time>2019-10-30T09:58:31.000Z</time>
      </trkpt>
      <trkpt lat="45.30993" lon="4.59844">
        <ele>705</ele>
        <time>2019-10-30T09:58:32.000Z</time>
      </trkpt>
      <trkpt lat="45.30992" lon="4.59844">
        <ele>705</ele>
        <time>2019-10-30T09:58:33.000Z</time>
      </trkpt>
      <trkpt lat="45.30991" lon="4.59843">
        <ele>705</ele>
        <time>2019-10-30T09:58:34.000Z</time>
      </trkpt>
      <trkpt lat="45.30989" lon="4.59843">
        <ele>705</ele>
        <time>2019-10-30T09:58:35.000Z</time>
      </trkpt>
      <trkpt lat="45.30987" lon="4.59842">
        <ele>705</ele>
        <time>2019-10-30T09:58:36.000Z</time>
      </trkpt>
      <trkpt lat="45.30986" lon="4.5984">
        <ele>705.20001220703</ele>
        <time>2019-10-30T09:58:37.000Z</time>
      </trkpt>
      <trkpt lat="45.30984" lon="4.59839">
        <ele>705.20001220703</ele>
        <time>2019-10-30T09:58:38.000Z</time>
      </trkpt>
      <trkpt lat="45.3098" lon="4.59836">
        <ele>705.40002441406</ele>
        <time>2019-10-30T09:58:40.000Z</time>
      </trkpt>
      <trkpt lat="45.30976" lon="4.59834">
        <ele>705.20001220703</ele>
        <time>2019-10-30T09:58:42.000Z</time>
      </trkpt>
      <trkpt lat="45.30964" lon="4.59825">
        <ele>705.20001220703</ele>
        <time>2019-10-30T09:58:47.000Z</time>
      </trkpt>
      <trkpt lat="45.30962" lon="4.59823">
        <ele>705.40002441406</ele>
        <time>2019-10-30T09:58:48.000Z</time>
      </trkpt>
      <trkpt lat="45.30959" lon="4.59822">
        <ele>705.40002441406</ele>
        <time>2019-10-30T09:58:49.000Z</time>
      </trkpt>
      <trkpt lat="45.30957" lon="4.5982">
        <ele>705.40002441406</ele>
        <time>2019-10-30T09:58:50.000Z</time>
      </trkpt>
      <trkpt lat="45.30945" lon="4.5981">
        <ele>705.20001220703</ele>
        <time>2019-10-30T09:58:55.000Z</time>
      </trkpt>
      <trkpt lat="45.30935" lon="4.59802">
        <ele>705.40002441406</ele>
        <time>2019-10-30T09:58:59.000Z</time>
      </trkpt>
      <trkpt lat="45.30932" lon="4.598">
        <ele>705.40002441406</ele>
        <time>2019-10-30T09:59:00.000Z</time>
      </trkpt>
      <trkpt lat="45.3093" lon="4.59798">
        <ele>705.40002441406</ele>
        <time>2019-10-30T09:59:01.000Z</time>
      </trkpt>
      <trkpt lat="45.30927" lon="4.59797">
        <ele>705.40002441406</ele>
        <time>2019-10-30T09:59:02.000Z</time>
      </trkpt>
      <trkpt lat="45.30925" lon="4.59795">
        <ele>705.40002441406</ele>
        <time>2019-10-30T09:59:03.000Z</time>
      </trkpt>
      <trkpt lat="45.30922" lon="4.59793">
        <ele>705.59997558594</ele>
        <time>2019-10-30T09:59:04.000Z</time>
      </trkpt>
      <trkpt lat="45.3092" lon="4.59791">
        <ele>705.59997558594</ele>
        <time>2019-10-30T09:59:05.000Z</time>
      </trkpt>
      <trkpt lat="45.30918" lon="4.59789">
        <ele>705.79998779297</ele>
        <time>2019-10-30T09:59:06.000Z</time>
      </trkpt>
      <trkpt lat="45.30899" lon="4.59771">
        <ele>706</ele>
        <time>2019-10-30T09:59:13.000Z</time>
      </trkpt>
      <trkpt lat="45.30893" lon="4.59766">
        <ele>706</ele>
        <time>2019-10-30T09:59:15.000Z</time>
      </trkpt>
      <trkpt lat="45.30884" lon="4.59757">
        <ele>706.20001220703</ele>
        <time>2019-10-30T09:59:18.000Z</time>
      </trkpt>
      <trkpt lat="45.30881" lon="4.59754">
        <ele>706.20001220703</ele>
        <time>2019-10-30T09:59:19.000Z</time>
      </trkpt>
      <trkpt lat="45.30878" lon="4.59751">
        <ele>706.20001220703</ele>
        <time>2019-10-30T09:59:20.000Z</time>
      </trkpt>
      <trkpt lat="45.30872" lon="4.59744">
        <ele>706</ele>
        <time>2019-10-30T09:59:22.000Z</time>
      </trkpt>
      <trkpt lat="45.30867" lon="4.59737">
        <ele>706</ele>
        <time>2019-10-30T09:59:24.000Z</time>
      </trkpt>
      <trkpt lat="45.30859" lon="4.59726">
        <ele>705.79998779297</ele>
        <time>2019-10-30T09:59:27.000Z</time>
      </trkpt>
      <trkpt lat="45.30856" lon="4.59723">
        <ele>705.40002441406</ele>
        <time>2019-10-30T09:59:28.000Z</time>
      </trkpt>
      <trkpt lat="45.30853" lon="4.5972">
        <ele>705.40002441406</ele>
        <time>2019-10-30T09:59:29.000Z</time>
      </trkpt>
      <trkpt lat="45.3085" lon="4.59716">
        <ele>705.40002441406</ele>
        <time>2019-10-30T09:59:30.000Z</time>
      </trkpt>
      <trkpt lat="45.30839" lon="4.59701">
        <ele>705.20001220703</ele>
        <time>2019-10-30T09:59:34.000Z</time>
      </trkpt>
      <trkpt lat="45.30836" lon="4.59697">
        <ele>705.20001220703</ele>
        <time>2019-10-30T09:59:35.000Z</time>
      </trkpt>
      <trkpt lat="45.30834" lon="4.59693">
        <ele>705.20001220703</ele>
        <time>2019-10-30T09:59:36.000Z</time>
      </trkpt>
      <trkpt lat="45.30824" lon="4.59681">
        <ele>705.20001220703</ele>
        <time>2019-10-30T09:59:39.000Z</time>
      </trkpt>
      <trkpt lat="45.30814" lon="4.59669">
        <ele>705.20001220703</ele>
        <time>2019-10-30T09:59:42.000Z</time>
      </trkpt>
      <trkpt lat="45.30811" lon="4.59666">
        <ele>705</ele>
        <time>2019-10-30T09:59:43.000Z</time>
      </trkpt>
      <trkpt lat="45.30807" lon="4.59663">
        <ele>705.20001220703</ele>
        <time>2019-10-30T09:59:44.000Z</time>
      </trkpt>
      <trkpt lat="45.30804" lon="4.5966">
        <ele>705</ele>
        <time>2019-10-30T09:59:45.000Z</time>
      </trkpt>
      <trkpt lat="45.30797" lon="4.59654">
        <ele>705</ele>
        <time>2019-10-30T09:59:47.000Z</time>
      </trkpt>
      <trkpt lat="45.30793" lon="4.59651">
        <ele>705</ele>
        <time>2019-10-30T09:59:48.000Z</time>
      </trkpt>
      <trkpt lat="45.3079" lon="4.59648">
        <ele>704.79998779297</ele>
        <time>2019-10-30T09:59:49.000Z</time>
      </trkpt>
      <trkpt lat="45.30787" lon="4.59645">
        <ele>705</ele>
        <time>2019-10-30T09:59:50.000Z</time>
      </trkpt>
      <trkpt lat="45.30784" lon="4.59643">
        <ele>705</ele>
        <time>2019-10-30T09:59:51.000Z</time>
      </trkpt>
      <trkpt lat="45.3078" lon="4.5964">
        <ele>705</ele>
        <time>2019-10-30T09:59:52.000Z</time>
      </trkpt>
      <trkpt lat="45.3077" lon="4.59632">
        <ele>705</ele>
        <time>2019-10-30T09:59:55.000Z</time>
      </trkpt>
      <trkpt lat="45.30767" lon="4.59629">
        <ele>704.79998779297</ele>
        <time>2019-10-30T09:59:56.000Z</time>
      </trkpt>
      <trkpt lat="45.30765" lon="4.59627">
        <ele>705</ele>
        <time>2019-10-30T09:59:57.000Z</time>
      </trkpt>
      <trkpt lat="45.30763" lon="4.59626">
        <ele>704.79998779297</ele>
        <time>2019-10-30T09:59:58.000Z</time>
      </trkpt>
      <trkpt lat="45.3076" lon="4.59624">
        <ele>705</ele>
        <time>2019-10-30T09:59:59.000Z</time>
      </trkpt>
      <trkpt lat="45.30758" lon="4.59622">
        <ele>705</ele>
        <time>2019-10-30T10:00:00.000Z</time>
      </trkpt>
      <trkpt lat="45.30756" lon="4.59619">
        <ele>705</ele>
        <time>2019-10-30T10:00:01.000Z</time>
      </trkpt>
      <trkpt lat="45.30753" lon="4.59617">
        <ele>705</ele>
        <time>2019-10-30T10:00:02.000Z</time>
      </trkpt>
      <trkpt lat="45.30751" lon="4.59615">
        <ele>705.20001220703</ele>
        <time>2019-10-30T10:00:03.000Z</time>
      </trkpt>
      <trkpt lat="45.30749" lon="4.59613">
        <ele>705.40002441406</ele>
        <time>2019-10-30T10:00:04.000Z</time>
      </trkpt>
      <trkpt lat="45.30741" lon="4.59603">
        <ele>705.40002441406</ele>
        <time>2019-10-30T10:00:07.000Z</time>
      </trkpt>
      <trkpt lat="45.30732" lon="4.5959">
        <ele>705.59997558594</ele>
        <time>2019-10-30T10:00:10.000Z</time>
      </trkpt>
      <trkpt lat="45.30729" lon="4.59584">
        <ele>705.40002441406</ele>
        <time>2019-10-30T10:00:11.000Z</time>
      </trkpt>
      <trkpt lat="45.30726" lon="4.59578">
        <ele>705.40002441406</ele>
        <time>2019-10-30T10:00:12.000Z</time>
      </trkpt>
      <trkpt lat="45.30713" lon="4.5955">
        <ele>705.59997558594</ele>
        <time>2019-10-30T10:00:16.000Z</time>
      </trkpt>
      <trkpt lat="45.30706" lon="4.59535">
        <ele>704.79998779297</ele>
        <time>2019-10-30T10:00:18.000Z</time>
      </trkpt>
      <trkpt lat="45.30702" lon="4.59528">
        <ele>704.40002441406</ele>
        <time>2019-10-30T10:00:19.000Z</time>
      </trkpt>
      <trkpt lat="45.30695" lon="4.59515">
        <ele>703.40002441406</ele>
        <time>2019-10-30T10:00:21.000Z</time>
      </trkpt>
      <trkpt lat="45.30682" lon="4.59495">
        <ele>702.40002441406</ele>
        <time>2019-10-30T10:00:24.000Z</time>
      </trkpt>
      <trkpt lat="45.30678" lon="4.59488">
        <ele>701.79998779297</ele>
        <time>2019-10-30T10:00:25.000Z</time>
      </trkpt>
      <trkpt lat="45.30665" lon="4.5947">
        <ele>700.40002441406</ele>
        <time>2019-10-30T10:00:28.000Z</time>
      </trkpt>
      <trkpt lat="45.30661" lon="4.59464">
        <ele>699.79998779297</ele>
        <time>2019-10-30T10:00:29.000Z</time>
      </trkpt>
      <trkpt lat="45.30658" lon="4.59458">
        <ele>699.20001220703</ele>
        <time>2019-10-30T10:00:30.000Z</time>
      </trkpt>
      <trkpt lat="45.30653" lon="4.59452">
        <ele>699</ele>
        <time>2019-10-30T10:00:31.000Z</time>
      </trkpt>
      <trkpt lat="45.30649" lon="4.59446">
        <ele>698.79998779297</ele>
        <time>2019-10-30T10:00:32.000Z</time>
      </trkpt>
      <trkpt lat="45.30638" lon="4.59433">
        <ele>698.40002441406</ele>
        <time>2019-10-30T10:00:34.000Z</time>
      </trkpt>
      <trkpt lat="45.30633" lon="4.59428">
        <ele>698.20001220703</ele>
        <time>2019-10-30T10:00:35.000Z</time>
      </trkpt>
      <trkpt lat="45.30628" lon="4.59424">
        <ele>697.59997558594</ele>
        <time>2019-10-30T10:00:36.000Z</time>
      </trkpt>
      <trkpt lat="45.30622" lon="4.59418">
        <ele>697.20001220703</ele>
        <time>2019-10-30T10:00:37.000Z</time>
      </trkpt>
      <trkpt lat="45.30617" lon="4.59414">
        <ele>697</ele>
        <time>2019-10-30T10:00:38.000Z</time>
      </trkpt>
      <trkpt lat="45.30611" lon="4.5941">
        <ele>696.40002441406</ele>
        <time>2019-10-30T10:00:39.000Z</time>
      </trkpt>
      <trkpt lat="45.30605" lon="4.59407">
        <ele>696</ele>
        <time>2019-10-30T10:00:40.000Z</time>
      </trkpt>
      <trkpt lat="45.30594" lon="4.59401">
        <ele>695</ele>
        <time>2019-10-30T10:00:42.000Z</time>
      </trkpt>
      <trkpt lat="45.30588" lon="4.59399">
        <ele>694.59997558594</ele>
        <time>2019-10-30T10:00:43.000Z</time>
      </trkpt>
      <trkpt lat="45.30582" lon="4.59398">
        <ele>694.40002441406</ele>
        <time>2019-10-30T10:00:44.000Z</time>
      </trkpt>
      <trkpt lat="45.30577" lon="4.59398">
        <ele>694.20001220703</ele>
        <time>2019-10-30T10:00:45.000Z</time>
      </trkpt>
      <trkpt lat="45.30571" lon="4.59397">
        <ele>694.20001220703</ele>
        <time>2019-10-30T10:00:46.000Z</time>
      </trkpt>
      <trkpt lat="45.30566" lon="4.59398">
        <ele>694</ele>
        <time>2019-10-30T10:00:47.000Z</time>
      </trkpt>
      <trkpt lat="45.3056" lon="4.59398">
        <ele>693.40002441406</ele>
        <time>2019-10-30T10:00:48.000Z</time>
      </trkpt>
      <trkpt lat="45.30554" lon="4.59398">
        <ele>693</ele>
        <time>2019-10-30T10:00:49.000Z</time>
      </trkpt>
      <trkpt lat="45.30543" lon="4.59397">
        <ele>692.40002441406</ele>
        <time>2019-10-30T10:00:51.000Z</time>
      </trkpt>
      <trkpt lat="45.30538" lon="4.59398">
        <ele>692.40002441406</ele>
        <time>2019-10-30T10:00:52.000Z</time>
      </trkpt>
      <trkpt lat="45.30533" lon="4.59399">
        <ele>692.20001220703</ele>
        <time>2019-10-30T10:00:53.000Z</time>
      </trkpt>
      <trkpt lat="45.30527" lon="4.594">
        <ele>692.20001220703</ele>
        <time>2019-10-30T10:00:54.000Z</time>
      </trkpt>
      <trkpt lat="45.30522" lon="4.59402">
        <ele>692.20001220703</ele>
        <time>2019-10-30T10:00:55.000Z</time>
      </trkpt>
      <trkpt lat="45.30512" lon="4.59409">
        <ele>692</ele>
        <time>2019-10-30T10:00:57.000Z</time>
      </trkpt>
      <trkpt lat="45.30507" lon="4.59413">
        <ele>691.79998779297</ele>
        <time>2019-10-30T10:00:58.000Z</time>
      </trkpt>
      <trkpt lat="45.30497" lon="4.59422">
        <ele>691.59997558594</ele>
        <time>2019-10-30T10:01:00.000Z</time>
      </trkpt>
      <trkpt lat="45.30493" lon="4.59427">
        <ele>691.20001220703</ele>
        <time>2019-10-30T10:01:01.000Z</time>
      </trkpt>
      <trkpt lat="45.30474" lon="4.59449">
        <ele>690.40002441406</ele>
        <time>2019-10-30T10:01:05.000Z</time>
      </trkpt>
      <trkpt lat="45.30469" lon="4.59454">
        <ele>690</ele>
        <time>2019-10-30T10:01:06.000Z</time>
      </trkpt>
      <trkpt lat="45.30465" lon="4.59458">
        <ele>689.59997558594</ele>
        <time>2019-10-30T10:01:07.000Z</time>
      </trkpt>
      <trkpt lat="45.30461" lon="4.59462">
        <ele>689.20001220703</ele>
        <time>2019-10-30T10:01:08.000Z</time>
      </trkpt>
      <trkpt lat="45.30456" lon="4.59465">
        <ele>688.59997558594</ele>
        <time>2019-10-30T10:01:09.000Z</time>
      </trkpt>
      <trkpt lat="45.30452" lon="4.59469">
        <ele>688.20001220703</ele>
        <time>2019-10-30T10:01:10.000Z</time>
      </trkpt>
      <trkpt lat="45.30447" lon="4.59473">
        <ele>688</ele>
        <time>2019-10-30T10:01:11.000Z</time>
      </trkpt>
      <trkpt lat="45.30442" lon="4.59478">
        <ele>687.79998779297</ele>
        <time>2019-10-30T10:01:12.000Z</time>
      </trkpt>
      <trkpt lat="45.30436" lon="4.59483">
        <ele>687.59997558594</ele>
        <time>2019-10-30T10:01:13.000Z</time>
      </trkpt>
      <trkpt lat="45.3043" lon="4.5949">
        <ele>687.59997558594</ele>
        <time>2019-10-30T10:01:14.000Z</time>
      </trkpt>
      <trkpt lat="45.30423" lon="4.59496">
        <ele>687.59997558594</ele>
        <time>2019-10-30T10:01:15.000Z</time>
      </trkpt>
      <trkpt lat="45.30417" lon="4.59501">
        <ele>687.20001220703</ele>
        <time>2019-10-30T10:01:16.000Z</time>
      </trkpt>
      <trkpt lat="45.30412" lon="4.59506">
        <ele>687</ele>
        <time>2019-10-30T10:01:17.000Z</time>
      </trkpt>
      <trkpt lat="45.30407" lon="4.59511">
        <ele>686.59997558594</ele>
        <time>2019-10-30T10:01:18.000Z</time>
      </trkpt>
      <trkpt lat="45.30395" lon="4.59522">
        <ele>685.59997558594</ele>
        <time>2019-10-30T10:01:20.000Z</time>
      </trkpt>
      <trkpt lat="45.30382" lon="4.59532">
        <ele>683.79998779297</ele>
        <time>2019-10-30T10:01:22.000Z</time>
      </trkpt>
      <trkpt lat="45.30377" lon="4.59537">
        <ele>683</ele>
        <time>2019-10-30T10:01:23.000Z</time>
      </trkpt>
      <trkpt lat="45.30372" lon="4.59541">
        <ele>682.20001220703</ele>
        <time>2019-10-30T10:01:24.000Z</time>
      </trkpt>
      <trkpt lat="45.30368" lon="4.59544">
        <ele>682.20001220703</ele>
        <time>2019-10-30T10:01:25.000Z</time>
      </trkpt>
      <trkpt lat="45.30363" lon="4.59547">
        <ele>681.79998779297</ele>
        <time>2019-10-30T10:01:26.000Z</time>
      </trkpt>
      <trkpt lat="45.30359" lon="4.5955">
        <ele>681.20001220703</ele>
        <time>2019-10-30T10:01:27.000Z</time>
      </trkpt>
      <trkpt lat="45.30355" lon="4.59553">
        <ele>680.40002441406</ele>
        <time>2019-10-30T10:01:28.000Z</time>
      </trkpt>
      <trkpt lat="45.30341" lon="4.59564">
        <ele>678.40002441406</ele>
        <time>2019-10-30T10:01:31.000Z</time>
      </trkpt>
      <trkpt lat="45.30337" lon="4.59568">
        <ele>677.79998779297</ele>
        <time>2019-10-30T10:01:32.000Z</time>
      </trkpt>
      <trkpt lat="45.30328" lon="4.59575">
        <ele>677.40002441406</ele>
        <time>2019-10-30T10:01:34.000Z</time>
      </trkpt>
      <trkpt lat="45.30325" lon="4.59578">
        <ele>677.20001220703</ele>
        <time>2019-10-30T10:01:35.000Z</time>
      </trkpt>
      <trkpt lat="45.30321" lon="4.5958">
        <ele>676.79998779297</ele>
        <time>2019-10-30T10:01:36.000Z</time>
      </trkpt>
      <trkpt lat="45.30318" lon="4.59583">
        <ele>676.20001220703</ele>
        <time>2019-10-30T10:01:37.000Z</time>
      </trkpt>
      <trkpt lat="45.30315" lon="4.59586">
        <ele>675.59997558594</ele>
        <time>2019-10-30T10:01:38.000Z</time>
      </trkpt>
      <trkpt lat="45.30312" lon="4.5959">
        <ele>675.59997558594</ele>
        <time>2019-10-30T10:01:39.000Z</time>
      </trkpt>
      <trkpt lat="45.30309" lon="4.59594">
        <ele>675.40002441406</ele>
        <time>2019-10-30T10:01:40.000Z</time>
      </trkpt>
      <trkpt lat="45.30307" lon="4.59598">
        <ele>675.20001220703</ele>
        <time>2019-10-30T10:01:41.000Z</time>
      </trkpt>
      <trkpt lat="45.30306" lon="4.59603">
        <ele>675.20001220703</ele>
        <time>2019-10-30T10:01:42.000Z</time>
      </trkpt>
      <trkpt lat="45.30305" lon="4.59608">
        <ele>675.20001220703</ele>
        <time>2019-10-30T10:01:43.000Z</time>
      </trkpt>
      <trkpt lat="45.30304" lon="4.59612">
        <ele>675</ele>
        <time>2019-10-30T10:01:44.000Z</time>
      </trkpt>
      <trkpt lat="45.30303" lon="4.59616">
        <ele>675.20001220703</ele>
        <time>2019-10-30T10:01:45.000Z</time>
      </trkpt>
      <trkpt lat="45.30303" lon="4.59619">
        <ele>675</ele>
        <time>2019-10-30T10:01:46.000Z</time>
      </trkpt>
      <trkpt lat="45.30303" lon="4.59622">
        <ele>675.20001220703</ele>
        <time>2019-10-30T10:01:47.000Z</time>
      </trkpt>
      <trkpt lat="45.30303" lon="4.59625">
        <ele>675</ele>
        <time>2019-10-30T10:01:48.000Z</time>
      </trkpt>
      <trkpt lat="45.30303" lon="4.59628">
        <ele>675.20001220703</ele>
        <time>2019-10-30T10:01:49.000Z</time>
      </trkpt>
      <trkpt lat="45.30303" lon="4.59632">
        <ele>675</ele>
        <time>2019-10-30T10:01:50.000Z</time>
      </trkpt>
      <trkpt lat="45.30303" lon="4.59635">
        <ele>675</ele>
        <time>2019-10-30T10:01:51.000Z</time>
      </trkpt>
      <trkpt lat="45.30303" lon="4.59639">
        <ele>675.20001220703</ele>
        <time>2019-10-30T10:01:52.000Z</time>
      </trkpt>
      <trkpt lat="45.30303" lon="4.59643">
        <ele>675.79998779297</ele>
        <time>2019-10-30T10:01:53.000Z</time>
      </trkpt>
      <trkpt lat="45.30303" lon="4.59646">
        <ele>676.20001220703</ele>
        <time>2019-10-30T10:01:54.000Z</time>
      </trkpt>
      <trkpt lat="45.30303" lon="4.5965">
        <ele>676.40002441406</ele>
        <time>2019-10-30T10:01:55.000Z</time>
      </trkpt>
      <trkpt lat="45.30304" lon="4.59653">
        <ele>677</ele>
        <time>2019-10-30T10:01:56.000Z</time>
      </trkpt>
      <trkpt lat="45.30304" lon="4.59656">
        <ele>677.40002441406</ele>
        <time>2019-10-30T10:01:57.000Z</time>
      </trkpt>
      <trkpt lat="45.30305" lon="4.59659">
        <ele>677.79998779297</ele>
        <time>2019-10-30T10:01:58.000Z</time>
      </trkpt>
      <trkpt lat="45.30305" lon="4.59662">
        <ele>678</ele>
        <time>2019-10-30T10:01:59.000Z</time>
      </trkpt>
      <trkpt lat="45.30306" lon="4.59665">
        <ele>678.40002441406</ele>
        <time>2019-10-30T10:02:00.000Z</time>
      </trkpt>
      <trkpt lat="45.30306" lon="4.59669">
        <ele>678.59997558594</ele>
        <time>2019-10-30T10:02:01.000Z</time>
      </trkpt>
      <trkpt lat="45.30307" lon="4.59671">
        <ele>678.79998779297</ele>
        <time>2019-10-30T10:02:02.000Z</time>
      </trkpt>
      <trkpt lat="45.30308" lon="4.59674">
        <ele>679.20001220703</ele>
        <time>2019-10-30T10:02:03.000Z</time>
      </trkpt>
      <trkpt lat="45.30309" lon="4.59676">
        <ele>679.79998779297</ele>
        <time>2019-10-30T10:02:04.000Z</time>
      </trkpt>
      <trkpt lat="45.3031" lon="4.59679">
        <ele>680.20001220703</ele>
        <time>2019-10-30T10:02:05.000Z</time>
      </trkpt>
      <trkpt lat="45.30311" lon="4.59682">
        <ele>680.79998779297</ele>
        <time>2019-10-30T10:02:06.000Z</time>
      </trkpt>
      <trkpt lat="45.30311" lon="4.59684">
        <ele>681.20001220703</ele>
        <time>2019-10-30T10:02:07.000Z</time>
      </trkpt>
      <trkpt lat="45.30312" lon="4.59686">
        <ele>681.59997558594</ele>
        <time>2019-10-30T10:02:08.000Z</time>
      </trkpt>
      <trkpt lat="45.30313" lon="4.59688">
        <ele>682.20001220703</ele>
        <time>2019-10-30T10:02:09.000Z</time>
      </trkpt>
      <trkpt lat="45.30313" lon="4.5969">
        <ele>682.20001220703</ele>
        <time>2019-10-30T10:02:10.000Z</time>
      </trkpt>
      <trkpt lat="45.30313" lon="4.59693">
        <ele>682.59997558594</ele>
        <time>2019-10-30T10:02:11.000Z</time>
      </trkpt>
      <trkpt lat="45.30313" lon="4.59695">
        <ele>683</ele>
        <time>2019-10-30T10:02:12.000Z</time>
      </trkpt>
      <trkpt lat="45.30313" lon="4.59698">
        <ele>683.40002441406</ele>
        <time>2019-10-30T10:02:13.000Z</time>
      </trkpt>
      <trkpt lat="45.30314" lon="4.59701">
        <ele>683.40002441406</ele>
        <time>2019-10-30T10:02:14.000Z</time>
      </trkpt>
      <trkpt lat="45.30314" lon="4.59704">
        <ele>683.59997558594</ele>
        <time>2019-10-30T10:02:15.000Z</time>
      </trkpt>
      <trkpt lat="45.30314" lon="4.59707">
        <ele>684</ele>
        <time>2019-10-30T10:02:16.000Z</time>
      </trkpt>
      <trkpt lat="45.30314" lon="4.59714">
        <ele>684.40002441406</ele>
        <time>2019-10-30T10:02:18.000Z</time>
      </trkpt>
      <trkpt lat="45.30314" lon="4.59717">
        <ele>684.40002441406</ele>
        <time>2019-10-30T10:02:19.000Z</time>
      </trkpt>
      <trkpt lat="45.30314" lon="4.59719">
        <ele>684.59997558594</ele>
        <time>2019-10-30T10:02:20.000Z</time>
      </trkpt>
      <trkpt lat="45.30313" lon="4.59722">
        <ele>685</ele>
        <time>2019-10-30T10:02:21.000Z</time>
      </trkpt>
      <trkpt lat="45.30312" lon="4.59725">
        <ele>685</ele>
        <time>2019-10-30T10:02:22.000Z</time>
      </trkpt>
      <trkpt lat="45.3031" lon="4.59733">
        <ele>685</ele>
        <time>2019-10-30T10:02:24.000Z</time>
      </trkpt>
      <trkpt lat="45.30309" lon="4.59737">
        <ele>685</ele>
        <time>2019-10-30T10:02:25.000Z</time>
      </trkpt>
      <trkpt lat="45.30306" lon="4.59746">
        <ele>685</ele>
        <time>2019-10-30T10:02:27.000Z</time>
      </trkpt>
      <trkpt lat="45.30298" lon="4.59765">
        <ele>684.79998779297</ele>
        <time>2019-10-30T10:02:31.000Z</time>
      </trkpt>
      <trkpt lat="45.30296" lon="4.59768">
        <ele>685</ele>
        <time>2019-10-30T10:02:32.000Z</time>
      </trkpt>
      <trkpt lat="45.30295" lon="4.5977">
        <ele>685</ele>
        <time>2019-10-30T10:02:33.000Z</time>
      </trkpt>
      <trkpt lat="45.30292" lon="4.59771">
        <ele>684.79998779297</ele>
        <time>2019-10-30T10:02:34.000Z</time>
      </trkpt>
      <trkpt lat="45.30289" lon="4.59771">
        <ele>684.79998779297</ele>
        <time>2019-10-30T10:02:35.000Z</time>
      </trkpt>
      <trkpt lat="45.30287" lon="4.59771">
        <ele>684.59997558594</ele>
        <time>2019-10-30T10:02:36.000Z</time>
      </trkpt>
      <trkpt lat="45.30284" lon="4.5977">
        <ele>684.59997558594</ele>
        <time>2019-10-30T10:02:37.000Z</time>
      </trkpt>
      <trkpt lat="45.30282" lon="4.59769">
        <ele>684.59997558594</ele>
        <time>2019-10-30T10:02:38.000Z</time>
      </trkpt>
      <trkpt lat="45.3028" lon="4.59768">
        <ele>684.59997558594</ele>
        <time>2019-10-30T10:02:39.000Z</time>
      </trkpt>
      <trkpt lat="45.30273" lon="4.59766">
        <ele>684.59997558594</ele>
        <time>2019-10-30T10:02:41.000Z</time>
      </trkpt>
      <trkpt lat="45.3027" lon="4.59766">
        <ele>684.40002441406</ele>
        <time>2019-10-30T10:02:42.000Z</time>
      </trkpt>
      <trkpt lat="45.30266" lon="4.59766">
        <ele>684.40002441406</ele>
        <time>2019-10-30T10:02:43.000Z</time>
      </trkpt>
      <trkpt lat="45.30252" lon="4.59768">
        <ele>684.20001220703</ele>
        <time>2019-10-30T10:02:46.000Z</time>
      </trkpt>
      <trkpt lat="45.30248" lon="4.5977">
        <ele>684.20001220703</ele>
        <time>2019-10-30T10:02:47.000Z</time>
      </trkpt>
      <trkpt lat="45.30238" lon="4.59774">
        <ele>684</ele>
        <time>2019-10-30T10:02:49.000Z</time>
      </trkpt>
      <trkpt lat="45.30234" lon="4.59776">
        <ele>683.79998779297</ele>
        <time>2019-10-30T10:02:50.000Z</time>
      </trkpt>
      <trkpt lat="45.3023" lon="4.59779">
        <ele>683.59997558594</ele>
        <time>2019-10-30T10:02:51.000Z</time>
      </trkpt>
      <trkpt lat="45.30227" lon="4.59781">
        <ele>683</ele>
        <time>2019-10-30T10:02:52.000Z</time>
      </trkpt>
      <trkpt lat="45.30224" lon="4.59784">
        <ele>682.79998779297</ele>
        <time>2019-10-30T10:02:53.000Z</time>
      </trkpt>
      <trkpt lat="45.3022" lon="4.59786">
        <ele>682.20001220703</ele>
        <time>2019-10-30T10:02:54.000Z</time>
      </trkpt>
      <trkpt lat="45.30218" lon="4.59789">
        <ele>682</ele>
        <time>2019-10-30T10:02:55.000Z</time>
      </trkpt>
      <trkpt lat="45.30216" lon="4.59792">
        <ele>681.59997558594</ele>
        <time>2019-10-30T10:02:56.000Z</time>
      </trkpt>
      <trkpt lat="45.30213" lon="4.59795">
        <ele>681.40002441406</ele>
        <time>2019-10-30T10:02:57.000Z</time>
      </trkpt>
      <trkpt lat="45.30211" lon="4.59798">
        <ele>681.40002441406</ele>
        <time>2019-10-30T10:02:58.000Z</time>
      </trkpt>
      <trkpt lat="45.30209" lon="4.59802">
        <ele>681.20001220703</ele>
        <time>2019-10-30T10:02:59.000Z</time>
      </trkpt>
      <trkpt lat="45.30207" lon="4.59806">
        <ele>681.40002441406</ele>
        <time>2019-10-30T10:03:00.000Z</time>
      </trkpt>
      <trkpt lat="45.30206" lon="4.59809">
        <ele>681</ele>
        <time>2019-10-30T10:03:01.000Z</time>
      </trkpt>
      <trkpt lat="45.30205" lon="4.59812">
        <ele>680.79998779297</ele>
        <time>2019-10-30T10:03:02.000Z</time>
      </trkpt>
      <trkpt lat="45.30205" lon="4.59815">
        <ele>680.79998779297</ele>
        <time>2019-10-30T10:03:03.000Z</time>
      </trkpt>
      <trkpt lat="45.30205" lon="4.59818">
        <ele>680.40002441406</ele>
        <time>2019-10-30T10:03:04.000Z</time>
      </trkpt>
      <trkpt lat="45.30205" lon="4.59821">
        <ele>679.59997558594</ele>
        <time>2019-10-30T10:03:05.000Z</time>
      </trkpt>
      <trkpt lat="45.30205" lon="4.59823">
        <ele>679.40002441406</ele>
        <time>2019-10-30T10:03:06.000Z</time>
      </trkpt>
      <trkpt lat="45.30205" lon="4.59826">
        <ele>678.79998779297</ele>
        <time>2019-10-30T10:03:07.000Z</time>
      </trkpt>
      <trkpt lat="45.30205" lon="4.5983">
        <ele>678.20001220703</ele>
        <time>2019-10-30T10:03:08.000Z</time>
      </trkpt>
      <trkpt lat="45.30207" lon="4.59841">
        <ele>677.59997558594</ele>
        <time>2019-10-30T10:03:10.000Z</time>
      </trkpt>
      <trkpt lat="45.30209" lon="4.59845">
        <ele>677.20001220703</ele>
        <time>2019-10-30T10:03:11.000Z</time>
      </trkpt>
      <trkpt lat="45.30211" lon="4.5985">
        <ele>677</ele>
        <time>2019-10-30T10:03:12.000Z</time>
      </trkpt>
      <trkpt lat="45.30219" lon="4.59864">
        <ele>676.40002441406</ele>
        <time>2019-10-30T10:03:15.000Z</time>
      </trkpt>
      <trkpt lat="45.30223" lon="4.59867">
        <ele>676.20001220703</ele>
        <time>2019-10-30T10:03:16.000Z</time>
      </trkpt>
      <trkpt lat="45.30231" lon="4.59873">
        <ele>675.40002441406</ele>
        <time>2019-10-30T10:03:18.000Z</time>
      </trkpt>
      <trkpt lat="45.30235" lon="4.59876">
        <ele>674.79998779297</ele>
        <time>2019-10-30T10:03:19.000Z</time>
      </trkpt>
      <trkpt lat="45.3024" lon="4.5988">
        <ele>673.40002441406</ele>
        <time>2019-10-30T10:03:20.000Z</time>
      </trkpt>
      <trkpt lat="45.30253" lon="4.59891">
        <ele>672</ele>
        <time>2019-10-30T10:03:23.000Z</time>
      </trkpt>
      <trkpt lat="45.30257" lon="4.59895">
        <ele>671.59997558594</ele>
        <time>2019-10-30T10:03:24.000Z</time>
      </trkpt>
      <trkpt lat="45.3026" lon="4.59898">
        <ele>671.20001220703</ele>
        <time>2019-10-30T10:03:25.000Z</time>
      </trkpt>
      <trkpt lat="45.30264" lon="4.59902">
        <ele>670.79998779297</ele>
        <time>2019-10-30T10:03:26.000Z</time>
      </trkpt>
      <trkpt lat="45.30267" lon="4.59906">
        <ele>669.20001220703</ele>
        <time>2019-10-30T10:03:27.000Z</time>
      </trkpt>
      <trkpt lat="45.3027" lon="4.59911">
        <ele>668.20001220703</ele>
        <time>2019-10-30T10:03:28.000Z</time>
      </trkpt>
      <trkpt lat="45.30273" lon="4.59916">
        <ele>667.40002441406</ele>
        <time>2019-10-30T10:03:29.000Z</time>
      </trkpt>
      <trkpt lat="45.30282" lon="4.59934">
        <ele>666.59997558594</ele>
        <time>2019-10-30T10:03:32.000Z</time>
      </trkpt>
      <trkpt lat="45.30294" lon="4.5996">
        <ele>665.59997558594</ele>
        <time>2019-10-30T10:03:36.000Z</time>
      </trkpt>
      <trkpt lat="45.30296" lon="4.59967">
        <ele>665.20001220703</ele>
        <time>2019-10-30T10:03:37.000Z</time>
      </trkpt>
      <trkpt lat="45.30298" lon="4.59974">
        <ele>665</ele>
        <time>2019-10-30T10:03:38.000Z</time>
      </trkpt>
      <trkpt lat="45.303" lon="4.5998">
        <ele>663.79998779297</ele>
        <time>2019-10-30T10:03:39.000Z</time>
      </trkpt>
      <trkpt lat="45.30302" lon="4.59985">
        <ele>662.79998779297</ele>
        <time>2019-10-30T10:03:40.000Z</time>
      </trkpt>
      <trkpt lat="45.30304" lon="4.59991">
        <ele>662.59997558594</ele>
        <time>2019-10-30T10:03:41.000Z</time>
      </trkpt>
      <trkpt lat="45.30307" lon="4.59996">
        <ele>662.40002441406</ele>
        <time>2019-10-30T10:03:42.000Z</time>
      </trkpt>
      <trkpt lat="45.30314" lon="4.60016">
        <ele>661.79998779297</ele>
        <time>2019-10-30T10:03:45.000Z</time>
      </trkpt>
      <trkpt lat="45.30319" lon="4.60027">
        <ele>661.59997558594</ele>
        <time>2019-10-30T10:03:47.000Z</time>
      </trkpt>
      <trkpt lat="45.30321" lon="4.60033">
        <ele>661.40002441406</ele>
        <time>2019-10-30T10:03:48.000Z</time>
      </trkpt>
      <trkpt lat="45.30323" lon="4.60038">
        <ele>661.20001220703</ele>
        <time>2019-10-30T10:03:49.000Z</time>
      </trkpt>
      <trkpt lat="45.30325" lon="4.60044">
        <ele>661</ele>
        <time>2019-10-30T10:03:50.000Z</time>
      </trkpt>
      <trkpt lat="45.30326" lon="4.6005">
        <ele>661</ele>
        <time>2019-10-30T10:03:51.000Z</time>
      </trkpt>
      <trkpt lat="45.30327" lon="4.60057">
        <ele>660.79998779297</ele>
        <time>2019-10-30T10:03:52.000Z</time>
      </trkpt>
      <trkpt lat="45.30331" lon="4.60089">
        <ele>660.40002441406</ele>
        <time>2019-10-30T10:03:57.000Z</time>
      </trkpt>
      <trkpt lat="45.30332" lon="4.60104">
        <ele>660.40002441406</ele>
        <time>2019-10-30T10:03:59.000Z</time>
      </trkpt>
      <trkpt lat="45.30335" lon="4.60129">
        <ele>660</ele>
        <time>2019-10-30T10:04:02.000Z</time>
      </trkpt>
      <trkpt lat="45.30336" lon="4.60138">
        <ele>659.79998779297</ele>
        <time>2019-10-30T10:04:03.000Z</time>
      </trkpt>
      <trkpt lat="45.30337" lon="4.60146">
        <ele>659.59997558594</ele>
        <time>2019-10-30T10:04:04.000Z</time>
      </trkpt>
      <trkpt lat="45.30335" lon="4.60155">
        <ele>659.40002441406</ele>
        <time>2019-10-30T10:04:05.000Z</time>
      </trkpt>
      <trkpt lat="45.30333" lon="4.60164">
        <ele>659.20001220703</ele>
        <time>2019-10-30T10:04:06.000Z</time>
      </trkpt>
      <trkpt lat="45.30331" lon="4.60172">
        <ele>658.79998779297</ele>
        <time>2019-10-30T10:04:07.000Z</time>
      </trkpt>
      <trkpt lat="45.30329" lon="4.60181">
        <ele>658</ele>
        <time>2019-10-30T10:04:08.000Z</time>
      </trkpt>
      <trkpt lat="45.30324" lon="4.60201">
        <ele>656.40002441406</ele>
        <time>2019-10-30T10:04:10.000Z</time>
      </trkpt>
      <trkpt lat="45.30322" lon="4.60211">
        <ele>656</ele>
        <time>2019-10-30T10:04:11.000Z</time>
      </trkpt>
      <trkpt lat="45.3032" lon="4.6022">
        <ele>655.59997558594</ele>
        <time>2019-10-30T10:04:12.000Z</time>
      </trkpt>
      <trkpt lat="45.30319" lon="4.60228">
        <ele>655.40002441406</ele>
        <time>2019-10-30T10:04:13.000Z</time>
      </trkpt>
      <trkpt lat="45.30317" lon="4.60235">
        <ele>655</ele>
        <time>2019-10-30T10:04:14.000Z</time>
      </trkpt>
      <trkpt lat="45.30316" lon="4.60241">
        <ele>654.40002441406</ele>
        <time>2019-10-30T10:04:15.000Z</time>
      </trkpt>
      <trkpt lat="45.30315" lon="4.60248">
        <ele>654</ele>
        <time>2019-10-30T10:04:16.000Z</time>
      </trkpt>
      <trkpt lat="45.30315" lon="4.60256">
        <ele>653</ele>
        <time>2019-10-30T10:04:17.000Z</time>
      </trkpt>
      <trkpt lat="45.30314" lon="4.60264">
        <ele>652.20001220703</ele>
        <time>2019-10-30T10:04:18.000Z</time>
      </trkpt>
      <trkpt lat="45.30314" lon="4.60272">
        <ele>651.59997558594</ele>
        <time>2019-10-30T10:04:19.000Z</time>
      </trkpt>
      <trkpt lat="45.30314" lon="4.60279">
        <ele>651.20001220703</ele>
        <time>2019-10-30T10:04:20.000Z</time>
      </trkpt>
      <trkpt lat="45.30314" lon="4.60287">
        <ele>650.79998779297</ele>
        <time>2019-10-30T10:04:21.000Z</time>
      </trkpt>
      <trkpt lat="45.30315" lon="4.60294">
        <ele>650</ele>
        <time>2019-10-30T10:04:22.000Z</time>
      </trkpt>
      <trkpt lat="45.30316" lon="4.60301">
        <ele>649.59997558594</ele>
        <time>2019-10-30T10:04:23.000Z</time>
      </trkpt>
      <trkpt lat="45.30316" lon="4.60309">
        <ele>649.20001220703</ele>
        <time>2019-10-30T10:04:24.000Z</time>
      </trkpt>
      <trkpt lat="45.30318" lon="4.60316">
        <ele>648.59997558594</ele>
        <time>2019-10-30T10:04:25.000Z</time>
      </trkpt>
      <trkpt lat="45.30319" lon="4.60323">
        <ele>647.40002441406</ele>
        <time>2019-10-30T10:04:26.000Z</time>
      </trkpt>
      <trkpt lat="45.30321" lon="4.60329">
        <ele>647.40002441406</ele>
        <time>2019-10-30T10:04:27.000Z</time>
      </trkpt>
      <trkpt lat="45.30322" lon="4.60336">
        <ele>646.79998779297</ele>
        <time>2019-10-30T10:04:28.000Z</time>
      </trkpt>
      <trkpt lat="45.30324" lon="4.60343">
        <ele>645.79998779297</ele>
        <time>2019-10-30T10:04:29.000Z</time>
      </trkpt>
      <trkpt lat="45.30328" lon="4.60357">
        <ele>644.79998779297</ele>
        <time>2019-10-30T10:04:31.000Z</time>
      </trkpt>
      <trkpt lat="45.30332" lon="4.60372">
        <ele>643</ele>
        <time>2019-10-30T10:04:33.000Z</time>
      </trkpt>
      <trkpt lat="45.30334" lon="4.60381">
        <ele>642.40002441406</ele>
        <time>2019-10-30T10:04:34.000Z</time>
      </trkpt>
      <trkpt lat="45.30339" lon="4.60399">
        <ele>641.79998779297</ele>
        <time>2019-10-30T10:04:36.000Z</time>
      </trkpt>
      <trkpt lat="45.3034" lon="4.60408">
        <ele>641.40002441406</ele>
        <time>2019-10-30T10:04:37.000Z</time>
      </trkpt>
      <trkpt lat="45.30343" lon="4.60426">
        <ele>640.59997558594</ele>
        <time>2019-10-30T10:04:39.000Z</time>
      </trkpt>
      <trkpt lat="45.30345" lon="4.60433">
        <ele>639.79998779297</ele>
        <time>2019-10-30T10:04:40.000Z</time>
      </trkpt>
      <trkpt lat="45.30347" lon="4.6044">
        <ele>639.20001220703</ele>
        <time>2019-10-30T10:04:41.000Z</time>
      </trkpt>
      <trkpt lat="45.30348" lon="4.60445">
        <ele>639</ele>
        <time>2019-10-30T10:04:42.000Z</time>
      </trkpt>
      <trkpt lat="45.30348" lon="4.6045">
        <ele>637.79998779297</ele>
        <time>2019-10-30T10:04:43.000Z</time>
      </trkpt>
      <trkpt lat="45.30347" lon="4.60455">
        <ele>637</ele>
        <time>2019-10-30T10:04:44.000Z</time>
      </trkpt>
      <trkpt lat="45.30344" lon="4.60459">
        <ele>636.20001220703</ele>
        <time>2019-10-30T10:04:45.000Z</time>
      </trkpt>
      <trkpt lat="45.30341" lon="4.60463">
        <ele>635.79998779297</ele>
        <time>2019-10-30T10:04:46.000Z</time>
      </trkpt>
      <trkpt lat="45.30337" lon="4.60467">
        <ele>635.20001220703</ele>
        <time>2019-10-30T10:04:47.000Z</time>
      </trkpt>
      <trkpt lat="45.30333" lon="4.6047">
        <ele>635</ele>
        <time>2019-10-30T10:04:48.000Z</time>
      </trkpt>
      <trkpt lat="45.30329" lon="4.60472">
        <ele>634.79998779297</ele>
        <time>2019-10-30T10:04:49.000Z</time>
      </trkpt>
      <trkpt lat="45.30324" lon="4.60474">
        <ele>634.59997558594</ele>
        <time>2019-10-30T10:04:50.000Z</time>
      </trkpt>
      <trkpt lat="45.30321" lon="4.60475">
        <ele>634.40002441406</ele>
        <time>2019-10-30T10:04:51.000Z</time>
      </trkpt>
      <trkpt lat="45.30316" lon="4.60476">
        <ele>634.20001220703</ele>
        <time>2019-10-30T10:04:52.000Z</time>
      </trkpt>
      <trkpt lat="45.30301" lon="4.60479">
        <ele>633.40002441406</ele>
        <time>2019-10-30T10:04:55.000Z</time>
      </trkpt>
      <trkpt lat="45.30295" lon="4.60481">
        <ele>632.59997558594</ele>
        <time>2019-10-30T10:04:56.000Z</time>
      </trkpt>
      <trkpt lat="45.30289" lon="4.60485">
        <ele>631.79998779297</ele>
        <time>2019-10-30T10:04:57.000Z</time>
      </trkpt>
      <trkpt lat="45.30285" lon="4.60491">
        <ele>631.40002441406</ele>
        <time>2019-10-30T10:04:58.000Z</time>
      </trkpt>
      <trkpt lat="45.3028" lon="4.60496">
        <ele>630.79998779297</ele>
        <time>2019-10-30T10:04:59.000Z</time>
      </trkpt>
      <trkpt lat="45.30276" lon="4.60503">
        <ele>630.40002441406</ele>
        <time>2019-10-30T10:05:00.000Z</time>
      </trkpt>
      <trkpt lat="45.30273" lon="4.60509">
        <ele>630</ele>
        <time>2019-10-30T10:05:01.000Z</time>
      </trkpt>
      <trkpt lat="45.30271" lon="4.60515">
        <ele>629.40002441406</ele>
        <time>2019-10-30T10:05:02.000Z</time>
      </trkpt>
      <trkpt lat="45.30269" lon="4.60521">
        <ele>629.20001220703</ele>
        <time>2019-10-30T10:05:03.000Z</time>
      </trkpt>
      <trkpt lat="45.30269" lon="4.60526">
        <ele>628.20001220703</ele>
        <time>2019-10-30T10:05:04.000Z</time>
      </trkpt>
      <trkpt lat="45.30268" lon="4.60531">
        <ele>627</ele>
        <time>2019-10-30T10:05:05.000Z</time>
      </trkpt>
      <trkpt lat="45.30268" lon="4.60536">
        <ele>626</ele>
        <time>2019-10-30T10:05:06.000Z</time>
      </trkpt>
      <trkpt lat="45.30268" lon="4.60541">
        <ele>625.40002441406</ele>
        <time>2019-10-30T10:05:07.000Z</time>
      </trkpt>
      <trkpt lat="45.30268" lon="4.60546">
        <ele>625</ele>
        <time>2019-10-30T10:05:08.000Z</time>
      </trkpt>
      <trkpt lat="45.30269" lon="4.6055">
        <ele>624.20001220703</ele>
        <time>2019-10-30T10:05:09.000Z</time>
      </trkpt>
      <trkpt lat="45.3027" lon="4.60555">
        <ele>624</ele>
        <time>2019-10-30T10:05:10.000Z</time>
      </trkpt>
      <trkpt lat="45.30272" lon="4.60559">
        <ele>623.79998779297</ele>
        <time>2019-10-30T10:05:11.000Z</time>
      </trkpt>
      <trkpt lat="45.30274" lon="4.60563">
        <ele>623.59997558594</ele>
        <time>2019-10-30T10:05:12.000Z</time>
      </trkpt>
      <trkpt lat="45.30275" lon="4.60567">
        <ele>623.40002441406</ele>
        <time>2019-10-30T10:05:13.000Z</time>
      </trkpt>
      <trkpt lat="45.30277" lon="4.6057">
        <ele>623.59997558594</ele>
        <time>2019-10-30T10:05:14.000Z</time>
      </trkpt>
      <trkpt lat="45.30278" lon="4.60573">
        <ele>623.59997558594</ele>
        <time>2019-10-30T10:05:15.000Z</time>
      </trkpt>
      <trkpt lat="45.3028" lon="4.60576">
        <ele>623.40002441406</ele>
        <time>2019-10-30T10:05:16.000Z</time>
      </trkpt>
      <trkpt lat="45.30281" lon="4.60579">
        <ele>623.59997558594</ele>
        <time>2019-10-30T10:05:17.000Z</time>
      </trkpt>
      <trkpt lat="45.30283" lon="4.60582">
        <ele>623.59997558594</ele>
        <time>2019-10-30T10:05:18.000Z</time>
      </trkpt>
      <trkpt lat="45.30284" lon="4.60585">
        <ele>623.59997558594</ele>
        <time>2019-10-30T10:05:19.000Z</time>
      </trkpt>
      <trkpt lat="45.30286" lon="4.60588">
        <ele>623.59997558594</ele>
        <time>2019-10-30T10:05:20.000Z</time>
      </trkpt>
      <trkpt lat="45.30287" lon="4.60592">
        <ele>623.40002441406</ele>
        <time>2019-10-30T10:05:21.000Z</time>
      </trkpt>
      <trkpt lat="45.30289" lon="4.60595">
        <ele>623.40002441406</ele>
        <time>2019-10-30T10:05:22.000Z</time>
      </trkpt>
      <trkpt lat="45.3029" lon="4.60598">
        <ele>623.40002441406</ele>
        <time>2019-10-30T10:05:23.000Z</time>
      </trkpt>
      <trkpt lat="45.30291" lon="4.60601">
        <ele>623.40002441406</ele>
        <time>2019-10-30T10:05:24.000Z</time>
      </trkpt>
      <trkpt lat="45.30292" lon="4.60604">
        <ele>623.59997558594</ele>
        <time>2019-10-30T10:05:25.000Z</time>
      </trkpt>
      <trkpt lat="45.30293" lon="4.60608">
        <ele>623.40002441406</ele>
        <time>2019-10-30T10:05:26.000Z</time>
      </trkpt>
      <trkpt lat="45.30295" lon="4.60611">
        <ele>623.59997558594</ele>
        <time>2019-10-30T10:05:27.000Z</time>
      </trkpt>
      <trkpt lat="45.30296" lon="4.60615">
        <ele>623.59997558594</ele>
        <time>2019-10-30T10:05:28.000Z</time>
      </trkpt>
      <trkpt lat="45.30297" lon="4.60618">
        <ele>623.59997558594</ele>
        <time>2019-10-30T10:05:29.000Z</time>
      </trkpt>
      <trkpt lat="45.30298" lon="4.60622">
        <ele>623.79998779297</ele>
        <time>2019-10-30T10:05:30.000Z</time>
      </trkpt>
      <trkpt lat="45.303" lon="4.60625">
        <ele>624.20001220703</ele>
        <time>2019-10-30T10:05:31.000Z</time>
      </trkpt>
      <trkpt lat="45.30301" lon="4.60629">
        <ele>624.20001220703</ele>
        <time>2019-10-30T10:05:32.000Z</time>
      </trkpt>
      <trkpt lat="45.30303" lon="4.60632">
        <ele>624.40002441406</ele>
        <time>2019-10-30T10:05:33.000Z</time>
      </trkpt>
      <trkpt lat="45.30307" lon="4.60641">
        <ele>624.79998779297</ele>
        <time>2019-10-30T10:05:35.000Z</time>
      </trkpt>
      <trkpt lat="45.30311" lon="4.60651">
        <ele>624.40002441406</ele>
        <time>2019-10-30T10:05:37.000Z</time>
      </trkpt>
      <trkpt lat="45.30312" lon="4.60657">
        <ele>624</ele>
        <time>2019-10-30T10:05:38.000Z</time>
      </trkpt>
      <trkpt lat="45.30313" lon="4.60664">
        <ele>623.59997558594</ele>
        <time>2019-10-30T10:05:39.000Z</time>
      </trkpt>
      <trkpt lat="45.30313" lon="4.60669">
        <ele>623.20001220703</ele>
        <time>2019-10-30T10:05:40.000Z</time>
      </trkpt>
      <trkpt lat="45.30313" lon="4.60675">
        <ele>623</ele>
        <time>2019-10-30T10:05:41.000Z</time>
      </trkpt>
      <trkpt lat="45.30312" lon="4.6068">
        <ele>623</ele>
        <time>2019-10-30T10:05:42.000Z</time>
      </trkpt>
      <trkpt lat="45.30311" lon="4.60685">
        <ele>623</ele>
        <time>2019-10-30T10:05:43.000Z</time>
      </trkpt>
      <trkpt lat="45.3031" lon="4.60691">
        <ele>623</ele>
        <time>2019-10-30T10:05:44.000Z</time>
      </trkpt>
      <trkpt lat="45.30308" lon="4.60697">
        <ele>623.20001220703</ele>
        <time>2019-10-30T10:05:45.000Z</time>
      </trkpt>
      <trkpt lat="45.30306" lon="4.60703">
        <ele>623.20001220703</ele>
        <time>2019-10-30T10:05:46.000Z</time>
      </trkpt>
      <trkpt lat="45.30303" lon="4.60709">
        <ele>623</ele>
        <time>2019-10-30T10:05:47.000Z</time>
      </trkpt>
      <trkpt lat="45.303" lon="4.60715">
        <ele>622.79998779297</ele>
        <time>2019-10-30T10:05:48.000Z</time>
      </trkpt>
      <trkpt lat="45.30297" lon="4.60722">
        <ele>622.79998779297</ele>
        <time>2019-10-30T10:05:49.000Z</time>
      </trkpt>
      <trkpt lat="45.30284" lon="4.60747">
        <ele>622</ele>
        <time>2019-10-30T10:05:53.000Z</time>
      </trkpt>
      <trkpt lat="45.30281" lon="4.60753">
        <ele>621.59997558594</ele>
        <time>2019-10-30T10:05:54.000Z</time>
      </trkpt>
      <trkpt lat="45.30278" lon="4.60759">
        <ele>621</ele>
        <time>2019-10-30T10:05:55.000Z</time>
      </trkpt>
      <trkpt lat="45.30275" lon="4.60764">
        <ele>620.79998779297</ele>
        <time>2019-10-30T10:05:56.000Z</time>
      </trkpt>
      <trkpt lat="45.30272" lon="4.60769">
        <ele>620.20001220703</ele>
        <time>2019-10-30T10:05:57.000Z</time>
      </trkpt>
      <trkpt lat="45.3027" lon="4.60773">
        <ele>619.79998779297</ele>
        <time>2019-10-30T10:05:58.000Z</time>
      </trkpt>
      <trkpt lat="45.30267" lon="4.60777">
        <ele>619.79998779297</ele>
        <time>2019-10-30T10:05:59.000Z</time>
      </trkpt>
      <trkpt lat="45.30265" lon="4.60781">
        <ele>619.59997558594</ele>
        <time>2019-10-30T10:06:00.000Z</time>
      </trkpt>
      <trkpt lat="45.30262" lon="4.60784">
        <ele>619.59997558594</ele>
        <time>2019-10-30T10:06:01.000Z</time>
      </trkpt>
      <trkpt lat="45.30259" lon="4.60788">
        <ele>619.79998779297</ele>
        <time>2019-10-30T10:06:02.000Z</time>
      </trkpt>
      <trkpt lat="45.30256" lon="4.60792">
        <ele>619.79998779297</ele>
        <time>2019-10-30T10:06:03.000Z</time>
      </trkpt>
      <trkpt lat="45.30253" lon="4.60795">
        <ele>619.79998779297</ele>
        <time>2019-10-30T10:06:04.000Z</time>
      </trkpt>
      <trkpt lat="45.3025" lon="4.60799">
        <ele>619.59997558594</ele>
        <time>2019-10-30T10:06:05.000Z</time>
      </trkpt>
      <trkpt lat="45.30247" lon="4.60802">
        <ele>619.40002441406</ele>
        <time>2019-10-30T10:06:06.000Z</time>
      </trkpt>
      <trkpt lat="45.30244" lon="4.60806">
        <ele>619.59997558594</ele>
        <time>2019-10-30T10:06:07.000Z</time>
      </trkpt>
      <trkpt lat="45.30233" lon="4.60819">
        <ele>619.20001220703</ele>
        <time>2019-10-30T10:06:10.000Z</time>
      </trkpt>
      <trkpt lat="45.30229" lon="4.60823">
        <ele>619.40002441406</ele>
        <time>2019-10-30T10:06:11.000Z</time>
      </trkpt>
      <trkpt lat="45.30208" lon="4.60845">
        <ele>619</ele>
        <time>2019-10-30T10:06:16.000Z</time>
      </trkpt>
      <trkpt lat="45.30205" lon="4.60849">
        <ele>618.79998779297</ele>
        <time>2019-10-30T10:06:17.000Z</time>
      </trkpt>
      <trkpt lat="45.30201" lon="4.60853">
        <ele>618.20001220703</ele>
        <time>2019-10-30T10:06:18.000Z</time>
      </trkpt>
      <trkpt lat="45.30198" lon="4.60857">
        <ele>618</ele>
        <time>2019-10-30T10:06:19.000Z</time>
      </trkpt>
      <trkpt lat="45.30195" lon="4.6086">
        <ele>618</ele>
        <time>2019-10-30T10:06:20.000Z</time>
      </trkpt>
      <trkpt lat="45.30192" lon="4.60864">
        <ele>618</ele>
        <time>2019-10-30T10:06:21.000Z</time>
      </trkpt>
      <trkpt lat="45.3019" lon="4.60867">
        <ele>618</ele>
        <time>2019-10-30T10:06:22.000Z</time>
      </trkpt>
      <trkpt lat="45.30187" lon="4.60871">
        <ele>618</ele>
        <time>2019-10-30T10:06:23.000Z</time>
      </trkpt>
      <trkpt lat="45.30184" lon="4.60874">
        <ele>618</ele>
        <time>2019-10-30T10:06:24.000Z</time>
      </trkpt>
      <trkpt lat="45.30181" lon="4.60877">
        <ele>617.79998779297</ele>
        <time>2019-10-30T10:06:25.000Z</time>
      </trkpt>
      <trkpt lat="45.30179" lon="4.6088">
        <ele>617.79998779297</ele>
        <time>2019-10-30T10:06:26.000Z</time>
      </trkpt>
      <trkpt lat="45.30177" lon="4.60884">
        <ele>617.79998779297</ele>
        <time>2019-10-30T10:06:27.000Z</time>
      </trkpt>
      <trkpt lat="45.30175" lon="4.60887">
        <ele>618</ele>
        <time>2019-10-30T10:06:28.000Z</time>
      </trkpt>
      <trkpt lat="45.30173" lon="4.60891">
        <ele>617.79998779297</ele>
        <time>2019-10-30T10:06:29.000Z</time>
      </trkpt>
      <trkpt lat="45.30171" lon="4.60894">
        <ele>618.40002441406</ele>
        <time>2019-10-30T10:06:30.000Z</time>
      </trkpt>
      <trkpt lat="45.30169" lon="4.60897">
        <ele>618.59997558594</ele>
        <time>2019-10-30T10:06:31.000Z</time>
      </trkpt>
      <trkpt lat="45.30168" lon="4.609">
        <ele>619</ele>
        <time>2019-10-30T10:06:32.000Z</time>
      </trkpt>
      <trkpt lat="45.30166" lon="4.60903">
        <ele>619</ele>
        <time>2019-10-30T10:06:33.000Z</time>
      </trkpt>
      <trkpt lat="45.30165" lon="4.60906">
        <ele>619.20001220703</ele>
        <time>2019-10-30T10:06:34.000Z</time>
      </trkpt>
      <trkpt lat="45.30163" lon="4.6091">
        <ele>619.59997558594</ele>
        <time>2019-10-30T10:06:35.000Z</time>
      </trkpt>
      <trkpt lat="45.30162" lon="4.60913">
        <ele>619.59997558594</ele>
        <time>2019-10-30T10:06:36.000Z</time>
      </trkpt>
      <trkpt lat="45.3016" lon="4.60918">
        <ele>620.20001220703</ele>
        <time>2019-10-30T10:06:37.000Z</time>
      </trkpt>
      <trkpt lat="45.30159" lon="4.60922">
        <ele>620.59997558594</ele>
        <time>2019-10-30T10:06:38.000Z</time>
      </trkpt>
      <trkpt lat="45.30158" lon="4.60927">
        <ele>620.59997558594</ele>
        <time>2019-10-30T10:06:39.000Z</time>
      </trkpt>
      <trkpt lat="45.30156" lon="4.60938">
        <ele>621.20001220703</ele>
        <time>2019-10-30T10:06:41.000Z</time>
      </trkpt>
      <trkpt lat="45.30157" lon="4.60943">
        <ele>621.40002441406</ele>
        <time>2019-10-30T10:06:42.000Z</time>
      </trkpt>
      <trkpt lat="45.30157" lon="4.60948">
        <ele>621.40002441406</ele>
        <time>2019-10-30T10:06:43.000Z</time>
      </trkpt>
      <trkpt lat="45.30159" lon="4.60953">
        <ele>621.59997558594</ele>
        <time>2019-10-30T10:06:44.000Z</time>
      </trkpt>
      <trkpt lat="45.30161" lon="4.60958">
        <ele>621.59997558594</ele>
        <time>2019-10-30T10:06:45.000Z</time>
      </trkpt>
      <trkpt lat="45.30163" lon="4.60962">
        <ele>621.59997558594</ele>
        <time>2019-10-30T10:06:46.000Z</time>
      </trkpt>
      <trkpt lat="45.30164" lon="4.60966">
        <ele>621.79998779297</ele>
        <time>2019-10-30T10:06:47.000Z</time>
      </trkpt>
      <trkpt lat="45.30167" lon="4.60969">
        <ele>621.79998779297</ele>
        <time>2019-10-30T10:06:48.000Z</time>
      </trkpt>
      <trkpt lat="45.30169" lon="4.60973">
        <ele>621.79998779297</ele>
        <time>2019-10-30T10:06:49.000Z</time>
      </trkpt>
      <trkpt lat="45.30171" lon="4.60976">
        <ele>621.79998779297</ele>
        <time>2019-10-30T10:06:50.000Z</time>
      </trkpt>
      <trkpt lat="45.30173" lon="4.6098">
        <ele>621.79998779297</ele>
        <time>2019-10-30T10:06:51.000Z</time>
      </trkpt>
      <trkpt lat="45.30175" lon="4.60983">
        <ele>622</ele>
        <time>2019-10-30T10:06:52.000Z</time>
      </trkpt>
      <trkpt lat="45.30178" lon="4.60987">
        <ele>622.20001220703</ele>
        <time>2019-10-30T10:06:53.000Z</time>
      </trkpt>
      <trkpt lat="45.30182" lon="4.60994">
        <ele>622.59997558594</ele>
        <time>2019-10-30T10:06:55.000Z</time>
      </trkpt>
      <trkpt lat="45.30184" lon="4.60998">
        <ele>622.79998779297</ele>
        <time>2019-10-30T10:06:56.000Z</time>
      </trkpt>
      <trkpt lat="45.30189" lon="4.61006">
        <ele>623</ele>
        <time>2019-10-30T10:06:58.000Z</time>
      </trkpt>
      <trkpt lat="45.30191" lon="4.6101">
        <ele>623.20001220703</ele>
        <time>2019-10-30T10:06:59.000Z</time>
      </trkpt>
      <trkpt lat="45.30193" lon="4.61014">
        <ele>623.20001220703</ele>
        <time>2019-10-30T10:07:00.000Z</time>
      </trkpt>
      <trkpt lat="45.30195" lon="4.61018">
        <ele>623</ele>
        <time>2019-10-30T10:07:01.000Z</time>
      </trkpt>
      <trkpt lat="45.30198" lon="4.61022">
        <ele>623</ele>
        <time>2019-10-30T10:07:02.000Z</time>
      </trkpt>
      <trkpt lat="45.30203" lon="4.61029">
        <ele>623.40002441406</ele>
        <time>2019-10-30T10:07:04.000Z</time>
      </trkpt>
      <trkpt lat="45.30206" lon="4.61033">
        <ele>623.40002441406</ele>
        <time>2019-10-30T10:07:05.000Z</time>
      </trkpt>
      <trkpt lat="45.30214" lon="4.61046">
        <ele>623.20001220703</ele>
        <time>2019-10-30T10:07:08.000Z</time>
      </trkpt>
      <trkpt lat="45.30216" lon="4.61052">
        <ele>623.20001220703</ele>
        <time>2019-10-30T10:07:09.000Z</time>
      </trkpt>
      <trkpt lat="45.30215" lon="4.61058">
        <ele>623.20001220703</ele>
        <time>2019-10-30T10:07:10.000Z</time>
      </trkpt>
      <trkpt lat="45.30213" lon="4.61063">
        <ele>623.20001220703</ele>
        <time>2019-10-30T10:07:11.000Z</time>
      </trkpt>
      <trkpt lat="45.3021" lon="4.61066">
        <ele>623.20001220703</ele>
        <time>2019-10-30T10:07:12.000Z</time>
      </trkpt>
      <trkpt lat="45.30207" lon="4.61069">
        <ele>623.20001220703</ele>
        <time>2019-10-30T10:07:13.000Z</time>
      </trkpt>
      <trkpt lat="45.30204" lon="4.61072">
        <ele>623</ele>
        <time>2019-10-30T10:07:14.000Z</time>
      </trkpt>
      <trkpt lat="45.302" lon="4.61075">
        <ele>623.20001220703</ele>
        <time>2019-10-30T10:07:15.000Z</time>
      </trkpt>
      <trkpt lat="45.30197" lon="4.61077">
        <ele>623.20001220703</ele>
        <time>2019-10-30T10:07:16.000Z</time>
      </trkpt>
      <trkpt lat="45.3019" lon="4.61082">
        <ele>623.20001220703</ele>
        <time>2019-10-30T10:07:18.000Z</time>
      </trkpt>
      <trkpt lat="45.30187" lon="4.61084">
        <ele>623</ele>
        <time>2019-10-30T10:07:19.000Z</time>
      </trkpt>
      <trkpt lat="45.30184" lon="4.61087">
        <ele>623</ele>
        <time>2019-10-30T10:07:20.000Z</time>
      </trkpt>
      <trkpt lat="45.30181" lon="4.61089">
        <ele>623</ele>
        <time>2019-10-30T10:07:21.000Z</time>
      </trkpt>
      <trkpt lat="45.30178" lon="4.61091">
        <ele>623</ele>
        <time>2019-10-30T10:07:22.000Z</time>
      </trkpt>
      <trkpt lat="45.30175" lon="4.61093">
        <ele>623</ele>
        <time>2019-10-30T10:07:23.000Z</time>
      </trkpt>
      <trkpt lat="45.30173" lon="4.61095">
        <ele>623</ele>
        <time>2019-10-30T10:07:24.000Z</time>
      </trkpt>
      <trkpt lat="45.30171" lon="4.61097">
        <ele>623</ele>
        <time>2019-10-30T10:07:25.000Z</time>
      </trkpt>
      <trkpt lat="45.30168" lon="4.61099">
        <ele>623</ele>
        <time>2019-10-30T10:07:26.000Z</time>
      </trkpt>
      <trkpt lat="45.30165" lon="4.61101">
        <ele>623.20001220703</ele>
        <time>2019-10-30T10:07:27.000Z</time>
      </trkpt>
      <trkpt lat="45.30162" lon="4.61104">
        <ele>623.20001220703</ele>
        <time>2019-10-30T10:07:28.000Z</time>
      </trkpt>
      <trkpt lat="45.30159" lon="4.61107">
        <ele>623.40002441406</ele>
        <time>2019-10-30T10:07:29.000Z</time>
      </trkpt>
      <trkpt lat="45.30156" lon="4.61109">
        <ele>623.59997558594</ele>
        <time>2019-10-30T10:07:30.000Z</time>
      </trkpt>
      <trkpt lat="45.30153" lon="4.61112">
        <ele>623.79998779297</ele>
        <time>2019-10-30T10:07:31.000Z</time>
      </trkpt>
      <trkpt lat="45.3015" lon="4.61115">
        <ele>624</ele>
        <time>2019-10-30T10:07:32.000Z</time>
      </trkpt>
      <trkpt lat="45.30147" lon="4.61118">
        <ele>624.40002441406</ele>
        <time>2019-10-30T10:07:33.000Z</time>
      </trkpt>
      <trkpt lat="45.30144" lon="4.61121">
        <ele>624.59997558594</ele>
        <time>2019-10-30T10:07:34.000Z</time>
      </trkpt>
      <trkpt lat="45.30141" lon="4.61124">
        <ele>624.79998779297</ele>
        <time>2019-10-30T10:07:35.000Z</time>
      </trkpt>
      <trkpt lat="45.30138" lon="4.61126">
        <ele>625</ele>
        <time>2019-10-30T10:07:36.000Z</time>
      </trkpt>
      <trkpt lat="45.30136" lon="4.61129">
        <ele>625</ele>
        <time>2019-10-30T10:07:37.000Z</time>
      </trkpt>
      <trkpt lat="45.30134" lon="4.61132">
        <ele>625</ele>
        <time>2019-10-30T10:07:38.000Z</time>
      </trkpt>
      <trkpt lat="45.30132" lon="4.61135">
        <ele>625.20001220703</ele>
        <time>2019-10-30T10:07:39.000Z</time>
      </trkpt>
      <trkpt lat="45.3013" lon="4.61138">
        <ele>625.20001220703</ele>
        <time>2019-10-30T10:07:40.000Z</time>
      </trkpt>
      <trkpt lat="45.30128" lon="4.61141">
        <ele>625.40002441406</ele>
        <time>2019-10-30T10:07:41.000Z</time>
      </trkpt>
      <trkpt lat="45.30126" lon="4.61145">
        <ele>625.40002441406</ele>
        <time>2019-10-30T10:07:42.000Z</time>
      </trkpt>
      <trkpt lat="45.30124" lon="4.61149">
        <ele>625.40002441406</ele>
        <time>2019-10-30T10:07:43.000Z</time>
      </trkpt>
      <trkpt lat="45.30122" lon="4.61153">
        <ele>625.40002441406</ele>
        <time>2019-10-30T10:07:44.000Z</time>
      </trkpt>
      <trkpt lat="45.30121" lon="4.61157">
        <ele>625.59997558594</ele>
        <time>2019-10-30T10:07:45.000Z</time>
      </trkpt>
      <trkpt lat="45.3012" lon="4.61161">
        <ele>625.59997558594</ele>
        <time>2019-10-30T10:07:46.000Z</time>
      </trkpt>
      <trkpt lat="45.30119" lon="4.61165">
        <ele>625.79998779297</ele>
        <time>2019-10-30T10:07:47.000Z</time>
      </trkpt>
      <trkpt lat="45.30118" lon="4.61169">
        <ele>626</ele>
        <time>2019-10-30T10:07:48.000Z</time>
      </trkpt>
      <trkpt lat="45.30117" lon="4.61173">
        <ele>626.20001220703</ele>
        <time>2019-10-30T10:07:49.000Z</time>
      </trkpt>
      <trkpt lat="45.30116" lon="4.61177">
        <ele>626.40002441406</ele>
        <time>2019-10-30T10:07:50.000Z</time>
      </trkpt>
      <trkpt lat="45.30116" lon="4.61182">
        <ele>626.59997558594</ele>
        <time>2019-10-30T10:07:51.000Z</time>
      </trkpt>
      <trkpt lat="45.30116" lon="4.61187">
        <ele>626.59997558594</ele>
        <time>2019-10-30T10:07:52.000Z</time>
      </trkpt>
      <trkpt lat="45.30115" lon="4.61192">
        <ele>626.59997558594</ele>
        <time>2019-10-30T10:07:53.000Z</time>
      </trkpt>
      <trkpt lat="45.30115" lon="4.61199">
        <ele>626.59997558594</ele>
        <time>2019-10-30T10:07:54.000Z</time>
      </trkpt>
      <trkpt lat="45.30115" lon="4.61215">
        <ele>626.59997558594</ele>
        <time>2019-10-30T10:07:56.000Z</time>
      </trkpt>
      <trkpt lat="45.30116" lon="4.61224">
        <ele>626.59997558594</ele>
        <time>2019-10-30T10:07:57.000Z</time>
      </trkpt>
      <trkpt lat="45.30116" lon="4.61233">
        <ele>626.59997558594</ele>
        <time>2019-10-30T10:07:58.000Z</time>
      </trkpt>
      <trkpt lat="45.30116" lon="4.61244">
        <ele>626.59997558594</ele>
        <time>2019-10-30T10:07:59.000Z</time>
      </trkpt>
      <trkpt lat="45.30117" lon="4.61256">
        <ele>626.20001220703</ele>
        <time>2019-10-30T10:08:00.000Z</time>
      </trkpt>
      <trkpt lat="45.30118" lon="4.61268">
        <ele>625.59997558594</ele>
        <time>2019-10-30T10:08:01.000Z</time>
      </trkpt>
      <trkpt lat="45.30118" lon="4.61282">
        <ele>624.79998779297</ele>
        <time>2019-10-30T10:08:02.000Z</time>
      </trkpt>
      <trkpt lat="45.30119" lon="4.6132">
        <ele>623.59997558594</ele>
        <time>2019-10-30T10:08:05.000Z</time>
      </trkpt>
      <trkpt lat="45.30119" lon="4.61332">
        <ele>622.59997558594</ele>
        <time>2019-10-30T10:08:06.000Z</time>
      </trkpt>
      <trkpt lat="45.30119" lon="4.61342">
        <ele>622.20001220703</ele>
        <time>2019-10-30T10:08:07.000Z</time>
      </trkpt>
      <trkpt lat="45.3012" lon="4.61351">
        <ele>621.40002441406</ele>
        <time>2019-10-30T10:08:08.000Z</time>
      </trkpt>
      <trkpt lat="45.3012" lon="4.6136">
        <ele>620</ele>
        <time>2019-10-30T10:08:09.000Z</time>
      </trkpt>
      <trkpt lat="45.3012" lon="4.61369">
        <ele>618</ele>
        <time>2019-10-30T10:08:10.000Z</time>
      </trkpt>
      <trkpt lat="45.30121" lon="4.61378">
        <ele>616.20001220703</ele>
        <time>2019-10-30T10:08:11.000Z</time>
      </trkpt>
      <trkpt lat="45.30121" lon="4.61387">
        <ele>615.20001220703</ele>
        <time>2019-10-30T10:08:12.000Z</time>
      </trkpt>
      <trkpt lat="45.30122" lon="4.61396">
        <ele>614.59997558594</ele>
        <time>2019-10-30T10:08:13.000Z</time>
      </trkpt>
      <trkpt lat="45.30122" lon="4.61404">
        <ele>614.20001220703</ele>
        <time>2019-10-30T10:08:14.000Z</time>
      </trkpt>
      <trkpt lat="45.30123" lon="4.61412">
        <ele>614</ele>
        <time>2019-10-30T10:08:15.000Z</time>
      </trkpt>
      <trkpt lat="45.30123" lon="4.61419">
        <ele>613.79998779297</ele>
        <time>2019-10-30T10:08:16.000Z</time>
      </trkpt>
      <trkpt lat="45.30124" lon="4.61425">
        <ele>613.59997558594</ele>
        <time>2019-10-30T10:08:17.000Z</time>
      </trkpt>
      <trkpt lat="45.30124" lon="4.61431">
        <ele>613.20001220703</ele>
        <time>2019-10-30T10:08:18.000Z</time>
      </trkpt>
      <trkpt lat="45.30125" lon="4.61437">
        <ele>613</ele>
        <time>2019-10-30T10:08:19.000Z</time>
      </trkpt>
      <trkpt lat="45.30128" lon="4.61442">
        <ele>613</ele>
        <time>2019-10-30T10:08:20.000Z</time>
      </trkpt>
      <trkpt lat="45.30131" lon="4.61446">
        <ele>612.59997558594</ele>
        <time>2019-10-30T10:08:21.000Z</time>
      </trkpt>
      <trkpt lat="45.30135" lon="4.61448">
        <ele>612.20001220703</ele>
        <time>2019-10-30T10:08:22.000Z</time>
      </trkpt>
      <trkpt lat="45.30139" lon="4.61448">
        <ele>611.79998779297</ele>
        <time>2019-10-30T10:08:23.000Z</time>
      </trkpt>
      <trkpt lat="45.30143" lon="4.61448">
        <ele>611.79998779297</ele>
        <time>2019-10-30T10:08:24.000Z</time>
      </trkpt>
      <trkpt lat="45.30146" lon="4.61448">
        <ele>611.59997558594</ele>
        <time>2019-10-30T10:08:25.000Z</time>
      </trkpt>
      <trkpt lat="45.3015" lon="4.61448">
        <ele>611.59997558594</ele>
        <time>2019-10-30T10:08:26.000Z</time>
      </trkpt>
      <trkpt lat="45.30166" lon="4.6145">
        <ele>611.59997558594</ele>
        <time>2019-10-30T10:08:30.000Z</time>
      </trkpt>
      <trkpt lat="45.3017" lon="4.61451">
        <ele>611.59997558594</ele>
        <time>2019-10-30T10:08:31.000Z</time>
      </trkpt>
      <trkpt lat="45.30174" lon="4.61451">
        <ele>611.59997558594</ele>
        <time>2019-10-30T10:08:32.000Z</time>
      </trkpt>
      <trkpt lat="45.30178" lon="4.61451">
        <ele>611.40002441406</ele>
        <time>2019-10-30T10:08:33.000Z</time>
      </trkpt>
      <trkpt lat="45.30182" lon="4.61452">
        <ele>611.40002441406</ele>
        <time>2019-10-30T10:08:34.000Z</time>
      </trkpt>
      <trkpt lat="45.30186" lon="4.61452">
        <ele>611.40002441406</ele>
        <time>2019-10-30T10:08:35.000Z</time>
      </trkpt>
      <trkpt lat="45.30195" lon="4.61452">
        <ele>611.20001220703</ele>
        <time>2019-10-30T10:08:37.000Z</time>
      </trkpt>
      <trkpt lat="45.30207" lon="4.61453">
        <ele>611.20001220703</ele>
        <time>2019-10-30T10:08:40.000Z</time>
      </trkpt>
      <trkpt lat="45.30211" lon="4.61453">
        <ele>611.40002441406</ele>
        <time>2019-10-30T10:08:41.000Z</time>
      </trkpt>
      <trkpt lat="45.30215" lon="4.61453">
        <ele>611.20001220703</ele>
        <time>2019-10-30T10:08:42.000Z</time>
      </trkpt>
      <trkpt lat="45.30219" lon="4.61452">
        <ele>611.40002441406</ele>
        <time>2019-10-30T10:08:43.000Z</time>
      </trkpt>
      <trkpt lat="45.30223" lon="4.61453">
        <ele>611</ele>
        <time>2019-10-30T10:08:44.000Z</time>
      </trkpt>
      <trkpt lat="45.30228" lon="4.61453">
        <ele>611.20001220703</ele>
        <time>2019-10-30T10:08:45.000Z</time>
      </trkpt>
      <trkpt lat="45.30236" lon="4.61452">
        <ele>611.20001220703</ele>
        <time>2019-10-30T10:08:47.000Z</time>
      </trkpt>
      <trkpt lat="45.3024" lon="4.61451">
        <ele>611</ele>
        <time>2019-10-30T10:08:48.000Z</time>
      </trkpt>
      <trkpt lat="45.30244" lon="4.61451">
        <ele>611</ele>
        <time>2019-10-30T10:08:49.000Z</time>
      </trkpt>
      <trkpt lat="45.30247" lon="4.61451">
        <ele>611</ele>
        <time>2019-10-30T10:08:50.000Z</time>
      </trkpt>
      <trkpt lat="45.30251" lon="4.6145">
        <ele>611</ele>
        <time>2019-10-30T10:08:51.000Z</time>
      </trkpt>
      <trkpt lat="45.30255" lon="4.6145">
        <ele>611</ele>
        <time>2019-10-30T10:08:52.000Z</time>
      </trkpt>
      <trkpt lat="45.30258" lon="4.61449">
        <ele>611</ele>
        <time>2019-10-30T10:08:53.000Z</time>
      </trkpt>
      <trkpt lat="45.30262" lon="4.61449">
        <ele>611</ele>
        <time>2019-10-30T10:08:54.000Z</time>
      </trkpt>
      <trkpt lat="45.30265" lon="4.61448">
        <ele>611</ele>
        <time>2019-10-30T10:08:55.000Z</time>
      </trkpt>
      <trkpt lat="45.30269" lon="4.61448">
        <ele>611</ele>
        <time>2019-10-30T10:08:56.000Z</time>
      </trkpt>
      <trkpt lat="45.30272" lon="4.61447">
        <ele>611</ele>
        <time>2019-10-30T10:08:57.000Z</time>
      </trkpt>
      <trkpt lat="45.30276" lon="4.61447">
        <ele>611</ele>
        <time>2019-10-30T10:08:58.000Z</time>
      </trkpt>
      <trkpt lat="45.30279" lon="4.61446">
        <ele>611</ele>
        <time>2019-10-30T10:08:59.000Z</time>
      </trkpt>
      <trkpt lat="45.30283" lon="4.61445">
        <ele>611</ele>
        <time>2019-10-30T10:09:00.000Z</time>
      </trkpt>
      <trkpt lat="45.30286" lon="4.61444">
        <ele>611.20001220703</ele>
        <time>2019-10-30T10:09:01.000Z</time>
      </trkpt>
      <trkpt lat="45.30289" lon="4.61443">
        <ele>611.40002441406</ele>
        <time>2019-10-30T10:09:02.000Z</time>
      </trkpt>
      <trkpt lat="45.30292" lon="4.61442">
        <ele>611.40002441406</ele>
        <time>2019-10-30T10:09:03.000Z</time>
      </trkpt>
      <trkpt lat="45.30303" lon="4.61439">
        <ele>611.79998779297</ele>
        <time>2019-10-30T10:09:06.000Z</time>
      </trkpt>
      <trkpt lat="45.30306" lon="4.61437">
        <ele>612</ele>
        <time>2019-10-30T10:09:07.000Z</time>
      </trkpt>
      <trkpt lat="45.30312" lon="4.61435">
        <ele>612</ele>
        <time>2019-10-30T10:09:09.000Z</time>
      </trkpt>
      <trkpt lat="45.30316" lon="4.61433">
        <ele>612.20001220703</ele>
        <time>2019-10-30T10:09:10.000Z</time>
      </trkpt>
      <trkpt lat="45.30319" lon="4.61432">
        <ele>612.20001220703</ele>
        <time>2019-10-30T10:09:11.000Z</time>
      </trkpt>
      <trkpt lat="45.30322" lon="4.61431">
        <ele>612.20001220703</ele>
        <time>2019-10-30T10:09:12.000Z</time>
      </trkpt>
      <trkpt lat="45.30329" lon="4.61429">
        <ele>612.40002441406</ele>
        <time>2019-10-30T10:09:14.000Z</time>
      </trkpt>
      <trkpt lat="45.30336" lon="4.61428">
        <ele>612.59997558594</ele>
        <time>2019-10-30T10:09:16.000Z</time>
      </trkpt>
      <trkpt lat="45.30339" lon="4.61427">
        <ele>612.59997558594</ele>
        <time>2019-10-30T10:09:17.000Z</time>
      </trkpt>
      <trkpt lat="45.30341" lon="4.61426">
        <ele>612.79998779297</ele>
        <time>2019-10-30T10:09:18.000Z</time>
      </trkpt>
      <trkpt lat="45.30344" lon="4.61426">
        <ele>613</ele>
        <time>2019-10-30T10:09:19.000Z</time>
      </trkpt>
      <trkpt lat="45.30346" lon="4.61425">
        <ele>613</ele>
        <time>2019-10-30T10:09:20.000Z</time>
      </trkpt>
      <trkpt lat="45.30348" lon="4.61425">
        <ele>613.20001220703</ele>
        <time>2019-10-30T10:09:21.000Z</time>
      </trkpt>
      <trkpt lat="45.30351" lon="4.61425">
        <ele>613.20001220703</ele>
        <time>2019-10-30T10:09:22.000Z</time>
      </trkpt>
      <trkpt lat="45.30355" lon="4.61425">
        <ele>613.40002441406</ele>
        <time>2019-10-30T10:09:24.000Z</time>
      </trkpt>
      <trkpt lat="45.30358" lon="4.61425">
        <ele>613.40002441406</ele>
        <time>2019-10-30T10:09:25.000Z</time>
      </trkpt>
      <trkpt lat="45.30359" lon="4.61425">
        <ele>613.59997558594</ele>
        <time>2019-10-30T10:09:26.000Z</time>
      </trkpt>
      <trkpt lat="45.30361" lon="4.61426">
        <ele>613.59997558594</ele>
        <time>2019-10-30T10:09:27.000Z</time>
      </trkpt>
      <trkpt lat="45.30362" lon="4.61426">
        <ele>613.79998779297</ele>
        <time>2019-10-30T10:09:28.000Z</time>
      </trkpt>
      <trkpt lat="45.30363" lon="4.61425">
        <ele>613.79998779297</ele>
        <time>2019-10-30T10:09:29.000Z</time>
      </trkpt>
      <trkpt lat="45.30364" lon="4.61425">
        <ele>613.79998779297</ele>
        <time>2019-10-30T10:09:30.000Z</time>
      </trkpt>
      <trkpt lat="45.30366" lon="4.61425">
        <ele>613.79998779297</ele>
        <time>2019-10-30T10:09:31.000Z</time>
      </trkpt>
      <trkpt lat="45.30369" lon="4.61424">
        <ele>614</ele>
        <time>2019-10-30T10:09:32.000Z</time>
      </trkpt>
      <trkpt lat="45.30375" lon="4.61424">
        <ele>614.20001220703</ele>
        <time>2019-10-30T10:09:34.000Z</time>
      </trkpt>
      <trkpt lat="45.30378" lon="4.61424">
        <ele>614</ele>
        <time>2019-10-30T10:09:35.000Z</time>
      </trkpt>
      <trkpt lat="45.3038" lon="4.61423">
        <ele>614.20001220703</ele>
        <time>2019-10-30T10:09:36.000Z</time>
      </trkpt>
      <trkpt lat="45.30383" lon="4.61422">
        <ele>614.20001220703</ele>
        <time>2019-10-30T10:09:37.000Z</time>
      </trkpt>
      <trkpt lat="45.30388" lon="4.61421">
        <ele>614.40002441406</ele>
        <time>2019-10-30T10:09:39.000Z</time>
      </trkpt>
      <trkpt lat="45.30391" lon="4.6142">
        <ele>614.20001220703</ele>
        <time>2019-10-30T10:09:40.000Z</time>
      </trkpt>
      <trkpt lat="45.30393" lon="4.6142">
        <ele>614.40002441406</ele>
        <time>2019-10-30T10:09:41.000Z</time>
      </trkpt>
      <trkpt lat="45.30396" lon="4.61419">
        <ele>614.59997558594</ele>
        <time>2019-10-30T10:09:42.000Z</time>
      </trkpt>
      <trkpt lat="45.30398" lon="4.61419">
        <ele>614.59997558594</ele>
        <time>2019-10-30T10:09:43.000Z</time>
      </trkpt>
      <trkpt lat="45.30401" lon="4.61418">
        <ele>614.79998779297</ele>
        <time>2019-10-30T10:09:44.000Z</time>
      </trkpt>
      <trkpt lat="45.30403" lon="4.61417">
        <ele>614.59997558594</ele>
        <time>2019-10-30T10:09:45.000Z</time>
      </trkpt>
      <trkpt lat="45.30405" lon="4.61416">
        <ele>614.79998779297</ele>
        <time>2019-10-30T10:09:46.000Z</time>
      </trkpt>
      <trkpt lat="45.30408" lon="4.61415">
        <ele>615</ele>
        <time>2019-10-30T10:09:47.000Z</time>
      </trkpt>
      <trkpt lat="45.3041" lon="4.61414">
        <ele>615</ele>
        <time>2019-10-30T10:09:48.000Z</time>
      </trkpt>
      <trkpt lat="45.30412" lon="4.61413">
        <ele>615.40002441406</ele>
        <time>2019-10-30T10:09:49.000Z</time>
      </trkpt>
      <trkpt lat="45.30415" lon="4.61412">
        <ele>615.40002441406</ele>
        <time>2019-10-30T10:09:50.000Z</time>
      </trkpt>
      <trkpt lat="45.30417" lon="4.6141">
        <ele>615.59997558594</ele>
        <time>2019-10-30T10:09:51.000Z</time>
      </trkpt>
      <trkpt lat="45.30419" lon="4.61409">
        <ele>615.79998779297</ele>
        <time>2019-10-30T10:09:52.000Z</time>
      </trkpt>
      <trkpt lat="45.30422" lon="4.61407">
        <ele>616.20001220703</ele>
        <time>2019-10-30T10:09:53.000Z</time>
      </trkpt>
      <trkpt lat="45.30426" lon="4.61406">
        <ele>616.20001220703</ele>
        <time>2019-10-30T10:09:54.000Z</time>
      </trkpt>
      <trkpt lat="45.30434" lon="4.61402">
        <ele>616.59997558594</ele>
        <time>2019-10-30T10:09:56.000Z</time>
      </trkpt>
      <trkpt lat="45.30438" lon="4.61401">
        <ele>616.79998779297</ele>
        <time>2019-10-30T10:09:57.000Z</time>
      </trkpt>
      <trkpt lat="45.30442" lon="4.61399">
        <ele>617.20001220703</ele>
        <time>2019-10-30T10:09:58.000Z</time>
      </trkpt>
      <trkpt lat="45.30446" lon="4.61398">
        <ele>617.40002441406</ele>
        <time>2019-10-30T10:09:59.000Z</time>
      </trkpt>
      <trkpt lat="45.30449" lon="4.61397">
        <ele>617.40002441406</ele>
        <time>2019-10-30T10:10:00.000Z</time>
      </trkpt>
      <trkpt lat="45.30452" lon="4.61396">
        <ele>617.40002441406</ele>
        <time>2019-10-30T10:10:01.000Z</time>
      </trkpt>
      <trkpt lat="45.30456" lon="4.61395">
        <ele>617.40002441406</ele>
        <time>2019-10-30T10:10:02.000Z</time>
      </trkpt>
      <trkpt lat="45.30459" lon="4.61394">
        <ele>617.40002441406</ele>
        <time>2019-10-30T10:10:03.000Z</time>
      </trkpt>
      <trkpt lat="45.30466" lon="4.61393">
        <ele>617.40002441406</ele>
        <time>2019-10-30T10:10:05.000Z</time>
      </trkpt>
      <trkpt lat="45.30469" lon="4.61392">
        <ele>617.59997558594</ele>
        <time>2019-10-30T10:10:06.000Z</time>
      </trkpt>
      <trkpt lat="45.30472" lon="4.61391">
        <ele>617.79998779297</ele>
        <time>2019-10-30T10:10:07.000Z</time>
      </trkpt>
      <trkpt lat="45.30476" lon="4.6139">
        <ele>618.20001220703</ele>
        <time>2019-10-30T10:10:08.000Z</time>
      </trkpt>
      <trkpt lat="45.30479" lon="4.6139">
        <ele>618.20001220703</ele>
        <time>2019-10-30T10:10:09.000Z</time>
      </trkpt>
      <trkpt lat="45.30485" lon="4.61388">
        <ele>618.59997558594</ele>
        <time>2019-10-30T10:10:11.000Z</time>
      </trkpt>
      <trkpt lat="45.30515" lon="4.61381">
        <ele>619.20001220703</ele>
        <time>2019-10-30T10:10:20.000Z</time>
      </trkpt>
      <trkpt lat="45.30518" lon="4.61381">
        <ele>619.40002441406</ele>
        <time>2019-10-30T10:10:21.000Z</time>
      </trkpt>
      <trkpt lat="45.30521" lon="4.61381">
        <ele>619.40002441406</ele>
        <time>2019-10-30T10:10:22.000Z</time>
      </trkpt>
      <trkpt lat="45.30524" lon="4.61381">
        <ele>619.59997558594</ele>
        <time>2019-10-30T10:10:23.000Z</time>
      </trkpt>
      <trkpt lat="45.30527" lon="4.61381">
        <ele>619.59997558594</ele>
        <time>2019-10-30T10:10:24.000Z</time>
      </trkpt>
      <trkpt lat="45.30532" lon="4.61382">
        <ele>619.59997558594</ele>
        <time>2019-10-30T10:10:26.000Z</time>
      </trkpt>
      <trkpt lat="45.30535" lon="4.61383">
        <ele>619.59997558594</ele>
        <time>2019-10-30T10:10:27.000Z</time>
      </trkpt>
      <trkpt lat="45.30537" lon="4.61384">
        <ele>619.79998779297</ele>
        <time>2019-10-30T10:10:28.000Z</time>
      </trkpt>
      <trkpt lat="45.30539" lon="4.61385">
        <ele>619.79998779297</ele>
        <time>2019-10-30T10:10:29.000Z</time>
      </trkpt>
      <trkpt lat="45.30541" lon="4.61386">
        <ele>619.79998779297</ele>
        <time>2019-10-30T10:10:30.000Z</time>
      </trkpt>
      <trkpt lat="45.30543" lon="4.61388">
        <ele>620</ele>
        <time>2019-10-30T10:10:31.000Z</time>
      </trkpt>
      <trkpt lat="45.30546" lon="4.61389">
        <ele>620.20001220703</ele>
        <time>2019-10-30T10:10:32.000Z</time>
      </trkpt>
      <trkpt lat="45.30548" lon="4.61391">
        <ele>620</ele>
        <time>2019-10-30T10:10:33.000Z</time>
      </trkpt>
      <trkpt lat="45.3055" lon="4.61393">
        <ele>620.20001220703</ele>
        <time>2019-10-30T10:10:34.000Z</time>
      </trkpt>
      <trkpt lat="45.30552" lon="4.61395">
        <ele>620.20001220703</ele>
        <time>2019-10-30T10:10:35.000Z</time>
      </trkpt>
      <trkpt lat="45.30554" lon="4.61396">
        <ele>620.20001220703</ele>
        <time>2019-10-30T10:10:36.000Z</time>
      </trkpt>
      <trkpt lat="45.30556" lon="4.61398">
        <ele>620.59997558594</ele>
        <time>2019-10-30T10:10:37.000Z</time>
      </trkpt>
      <trkpt lat="45.30557" lon="4.61399">
        <ele>620.59997558594</ele>
        <time>2019-10-30T10:10:38.000Z</time>
      </trkpt>
      <trkpt lat="45.30559" lon="4.61401">
        <ele>621</ele>
        <time>2019-10-30T10:10:39.000Z</time>
      </trkpt>
      <trkpt lat="45.30561" lon="4.61403">
        <ele>621</ele>
        <time>2019-10-30T10:10:40.000Z</time>
      </trkpt>
      <trkpt lat="45.30563" lon="4.61404">
        <ele>621.40002441406</ele>
        <time>2019-10-30T10:10:41.000Z</time>
      </trkpt>
      <trkpt lat="45.30564" lon="4.61406">
        <ele>621.59997558594</ele>
        <time>2019-10-30T10:10:42.000Z</time>
      </trkpt>
      <trkpt lat="45.30566" lon="4.61407">
        <ele>622</ele>
        <time>2019-10-30T10:10:43.000Z</time>
      </trkpt>
      <trkpt lat="45.30568" lon="4.61408">
        <ele>622.20001220703</ele>
        <time>2019-10-30T10:10:44.000Z</time>
      </trkpt>
      <trkpt lat="45.3057" lon="4.6141">
        <ele>622.40002441406</ele>
        <time>2019-10-30T10:10:45.000Z</time>
      </trkpt>
      <trkpt lat="45.30572" lon="4.61411">
        <ele>622.79998779297</ele>
        <time>2019-10-30T10:10:46.000Z</time>
      </trkpt>
      <trkpt lat="45.30574" lon="4.61412">
        <ele>623</ele>
        <time>2019-10-30T10:10:47.000Z</time>
      </trkpt>
      <trkpt lat="45.30576" lon="4.61414">
        <ele>623.40002441406</ele>
        <time>2019-10-30T10:10:48.000Z</time>
      </trkpt>
      <trkpt lat="45.30578" lon="4.61415">
        <ele>623.79998779297</ele>
        <time>2019-10-30T10:10:49.000Z</time>
      </trkpt>
      <trkpt lat="45.3058" lon="4.61416">
        <ele>624</ele>
        <time>2019-10-30T10:10:50.000Z</time>
      </trkpt>
      <trkpt lat="45.30582" lon="4.61416">
        <ele>624.20001220703</ele>
        <time>2019-10-30T10:10:51.000Z</time>
      </trkpt>
      <trkpt lat="45.30584" lon="4.61417">
        <ele>624.59997558594</ele>
        <time>2019-10-30T10:10:52.000Z</time>
      </trkpt>
      <trkpt lat="45.30586" lon="4.61417">
        <ele>624.79998779297</ele>
        <time>2019-10-30T10:10:53.000Z</time>
      </trkpt>
      <trkpt lat="45.30588" lon="4.61418">
        <ele>625.20001220703</ele>
        <time>2019-10-30T10:10:54.000Z</time>
      </trkpt>
      <trkpt lat="45.3059" lon="4.61418">
        <ele>625.40002441406</ele>
        <time>2019-10-30T10:10:55.000Z</time>
      </trkpt>
      <trkpt lat="45.30592" lon="4.61418">
        <ele>625.40002441406</ele>
        <time>2019-10-30T10:10:56.000Z</time>
      </trkpt>
      <trkpt lat="45.30595" lon="4.61417">
        <ele>625.59997558594</ele>
        <time>2019-10-30T10:10:57.000Z</time>
      </trkpt>
      <trkpt lat="45.30597" lon="4.61417">
        <ele>625.79998779297</ele>
        <time>2019-10-30T10:10:58.000Z</time>
      </trkpt>
      <trkpt lat="45.30599" lon="4.61417">
        <ele>626</ele>
        <time>2019-10-30T10:10:59.000Z</time>
      </trkpt>
      <trkpt lat="45.30602" lon="4.61417">
        <ele>626.40002441406</ele>
        <time>2019-10-30T10:11:00.000Z</time>
      </trkpt>
      <trkpt lat="45.30604" lon="4.61418">
        <ele>626.59997558594</ele>
        <time>2019-10-30T10:11:01.000Z</time>
      </trkpt>
      <trkpt lat="45.30606" lon="4.61418">
        <ele>626.79998779297</ele>
        <time>2019-10-30T10:11:02.000Z</time>
      </trkpt>
      <trkpt lat="45.30609" lon="4.61418">
        <ele>627.20001220703</ele>
        <time>2019-10-30T10:11:03.000Z</time>
      </trkpt>
      <trkpt lat="45.30611" lon="4.61418">
        <ele>627.59997558594</ele>
        <time>2019-10-30T10:11:04.000Z</time>
      </trkpt>
      <trkpt lat="45.30613" lon="4.61418">
        <ele>627.79998779297</ele>
        <time>2019-10-30T10:11:05.000Z</time>
      </trkpt>
      <trkpt lat="45.30615" lon="4.61419">
        <ele>628</ele>
        <time>2019-10-30T10:11:06.000Z</time>
      </trkpt>
      <trkpt lat="45.30617" lon="4.61421">
        <ele>628.40002441406</ele>
        <time>2019-10-30T10:11:07.000Z</time>
      </trkpt>
      <trkpt lat="45.30619" lon="4.61423">
        <ele>628.40002441406</ele>
        <time>2019-10-30T10:11:08.000Z</time>
      </trkpt>
      <trkpt lat="45.3062" lon="4.61424">
        <ele>628.79998779297</ele>
        <time>2019-10-30T10:11:09.000Z</time>
      </trkpt>
      <trkpt lat="45.30622" lon="4.61426">
        <ele>629.20001220703</ele>
        <time>2019-10-30T10:11:10.000Z</time>
      </trkpt>
      <trkpt lat="45.30624" lon="4.61429">
        <ele>629.40002441406</ele>
        <time>2019-10-30T10:11:11.000Z</time>
      </trkpt>
      <trkpt lat="45.30626" lon="4.61431">
        <ele>629.40002441406</ele>
        <time>2019-10-30T10:11:12.000Z</time>
      </trkpt>
      <trkpt lat="45.30628" lon="4.61434">
        <ele>629.79998779297</ele>
        <time>2019-10-30T10:11:13.000Z</time>
      </trkpt>
      <trkpt lat="45.3063" lon="4.61437">
        <ele>630.20001220703</ele>
        <time>2019-10-30T10:11:14.000Z</time>
      </trkpt>
      <trkpt lat="45.30631" lon="4.6144">
        <ele>630.40002441406</ele>
        <time>2019-10-30T10:11:15.000Z</time>
      </trkpt>
      <trkpt lat="45.30633" lon="4.61443">
        <ele>630.59997558594</ele>
        <time>2019-10-30T10:11:16.000Z</time>
      </trkpt>
      <trkpt lat="45.30639" lon="4.61454">
        <ele>630.59997558594</ele>
        <time>2019-10-30T10:11:19.000Z</time>
      </trkpt>
      <trkpt lat="45.30643" lon="4.61462">
        <ele>631</ele>
        <time>2019-10-30T10:11:21.000Z</time>
      </trkpt>
      <trkpt lat="45.30645" lon="4.61465">
        <ele>631</ele>
        <time>2019-10-30T10:11:22.000Z</time>
      </trkpt>
      <trkpt lat="45.30649" lon="4.61472">
        <ele>631</ele>
        <time>2019-10-30T10:11:24.000Z</time>
      </trkpt>
      <trkpt lat="45.30653" lon="4.6148">
        <ele>631</ele>
        <time>2019-10-30T10:11:26.000Z</time>
      </trkpt>
      <trkpt lat="45.30656" lon="4.61485">
        <ele>631.20001220703</ele>
        <time>2019-10-30T10:11:27.000Z</time>
      </trkpt>
      <trkpt lat="45.30664" lon="4.61499">
        <ele>630.79998779297</ele>
        <time>2019-10-30T10:11:30.000Z</time>
      </trkpt>
      <trkpt lat="45.30666" lon="4.61504">
        <ele>630.79998779297</ele>
        <time>2019-10-30T10:11:31.000Z</time>
      </trkpt>
      <trkpt lat="45.30668" lon="4.61508">
        <ele>630.79998779297</ele>
        <time>2019-10-30T10:11:32.000Z</time>
      </trkpt>
      <trkpt lat="45.3067" lon="4.61513">
        <ele>630.79998779297</ele>
        <time>2019-10-30T10:11:33.000Z</time>
      </trkpt>
      <trkpt lat="45.30672" lon="4.61517">
        <ele>630.79998779297</ele>
        <time>2019-10-30T10:11:34.000Z</time>
      </trkpt>
      <trkpt lat="45.30674" lon="4.6152">
        <ele>630.59997558594</ele>
        <time>2019-10-30T10:11:35.000Z</time>
      </trkpt>
      <trkpt lat="45.30676" lon="4.61524">
        <ele>630.59997558594</ele>
        <time>2019-10-30T10:11:36.000Z</time>
      </trkpt>
      <trkpt lat="45.30677" lon="4.61527">
        <ele>630.59997558594</ele>
        <time>2019-10-30T10:11:37.000Z</time>
      </trkpt>
      <trkpt lat="45.30678" lon="4.6153">
        <ele>630.40002441406</ele>
        <time>2019-10-30T10:11:38.000Z</time>
      </trkpt>
      <trkpt lat="45.30678" lon="4.61534">
        <ele>630.59997558594</ele>
        <time>2019-10-30T10:11:39.000Z</time>
      </trkpt>
      <trkpt lat="45.30679" lon="4.61537">
        <ele>630.40002441406</ele>
        <time>2019-10-30T10:11:40.000Z</time>
      </trkpt>
      <trkpt lat="45.30679" lon="4.61539">
        <ele>630.59997558594</ele>
        <time>2019-10-30T10:11:41.000Z</time>
      </trkpt>
      <trkpt lat="45.30679" lon="4.61542">
        <ele>630.40002441406</ele>
        <time>2019-10-30T10:11:42.000Z</time>
      </trkpt>
      <trkpt lat="45.3068" lon="4.61545">
        <ele>630.59997558594</ele>
        <time>2019-10-30T10:11:43.000Z</time>
      </trkpt>
      <trkpt lat="45.30681" lon="4.61547">
        <ele>630.40002441406</ele>
        <time>2019-10-30T10:11:44.000Z</time>
      </trkpt>
      <trkpt lat="45.30682" lon="4.6155">
        <ele>630.40002441406</ele>
        <time>2019-10-30T10:11:45.000Z</time>
      </trkpt>
      <trkpt lat="45.30683" lon="4.61552">
        <ele>630.79998779297</ele>
        <time>2019-10-30T10:11:46.000Z</time>
      </trkpt>
      <trkpt lat="45.30684" lon="4.61554">
        <ele>630.79998779297</ele>
        <time>2019-10-30T10:11:47.000Z</time>
      </trkpt>
      <trkpt lat="45.30686" lon="4.61556">
        <ele>630.79998779297</ele>
        <time>2019-10-30T10:11:48.000Z</time>
      </trkpt>
      <trkpt lat="45.30687" lon="4.61559">
        <ele>630.79998779297</ele>
        <time>2019-10-30T10:11:49.000Z</time>
      </trkpt>
      <trkpt lat="45.30688" lon="4.61561">
        <ele>631</ele>
        <time>2019-10-30T10:11:50.000Z</time>
      </trkpt>
      <trkpt lat="45.30689" lon="4.61564">
        <ele>631.40002441406</ele>
        <time>2019-10-30T10:11:51.000Z</time>
      </trkpt>
      <trkpt lat="45.3069" lon="4.61567">
        <ele>631.40002441406</ele>
        <time>2019-10-30T10:11:52.000Z</time>
      </trkpt>
      <trkpt lat="45.30691" lon="4.6157">
        <ele>631.79998779297</ele>
        <time>2019-10-30T10:11:53.000Z</time>
      </trkpt>
      <trkpt lat="45.30692" lon="4.61573">
        <ele>631.79998779297</ele>
        <time>2019-10-30T10:11:54.000Z</time>
      </trkpt>
      <trkpt lat="45.30693" lon="4.61576">
        <ele>632</ele>
        <time>2019-10-30T10:11:55.000Z</time>
      </trkpt>
      <trkpt lat="45.30694" lon="4.61579">
        <ele>632.20001220703</ele>
        <time>2019-10-30T10:11:56.000Z</time>
      </trkpt>
      <trkpt lat="45.30694" lon="4.61581">
        <ele>633</ele>
        <time>2019-10-30T10:11:57.000Z</time>
      </trkpt>
      <trkpt lat="45.30695" lon="4.61584">
        <ele>633.20001220703</ele>
        <time>2019-10-30T10:11:58.000Z</time>
      </trkpt>
      <trkpt lat="45.30696" lon="4.61587">
        <ele>633.40002441406</ele>
        <time>2019-10-30T10:11:59.000Z</time>
      </trkpt>
      <trkpt lat="45.30697" lon="4.6159">
        <ele>633.79998779297</ele>
        <time>2019-10-30T10:12:00.000Z</time>
      </trkpt>
      <trkpt lat="45.30698" lon="4.61593">
        <ele>634.59997558594</ele>
        <time>2019-10-30T10:12:01.000Z</time>
      </trkpt>
      <trkpt lat="45.30699" lon="4.61595">
        <ele>634.79998779297</ele>
        <time>2019-10-30T10:12:02.000Z</time>
      </trkpt>
      <trkpt lat="45.307" lon="4.61598">
        <ele>635.20001220703</ele>
        <time>2019-10-30T10:12:03.000Z</time>
      </trkpt>
      <trkpt lat="45.30701" lon="4.616">
        <ele>635.59997558594</ele>
        <time>2019-10-30T10:12:04.000Z</time>
      </trkpt>
      <trkpt lat="45.30702" lon="4.61603">
        <ele>636</ele>
        <time>2019-10-30T10:12:05.000Z</time>
      </trkpt>
      <trkpt lat="45.30703" lon="4.61606">
        <ele>636.40002441406</ele>
        <time>2019-10-30T10:12:06.000Z</time>
      </trkpt>
      <trkpt lat="45.30704" lon="4.61609">
        <ele>637</ele>
        <time>2019-10-30T10:12:07.000Z</time>
      </trkpt>
      <trkpt lat="45.30704" lon="4.61611">
        <ele>637.40002441406</ele>
        <time>2019-10-30T10:12:08.000Z</time>
      </trkpt>
      <trkpt lat="45.30705" lon="4.61614">
        <ele>637.79998779297</ele>
        <time>2019-10-30T10:12:09.000Z</time>
      </trkpt>
      <trkpt lat="45.30706" lon="4.61617">
        <ele>638.20001220703</ele>
        <time>2019-10-30T10:12:10.000Z</time>
      </trkpt>
      <trkpt lat="45.30707" lon="4.61619">
        <ele>638.40002441406</ele>
        <time>2019-10-30T10:12:11.000Z</time>
      </trkpt>
      <trkpt lat="45.30708" lon="4.61622">
        <ele>638.40002441406</ele>
        <time>2019-10-30T10:12:12.000Z</time>
      </trkpt>
      <trkpt lat="45.30709" lon="4.61624">
        <ele>639</ele>
        <time>2019-10-30T10:12:13.000Z</time>
      </trkpt>
      <trkpt lat="45.3071" lon="4.61627">
        <ele>639</ele>
        <time>2019-10-30T10:12:14.000Z</time>
      </trkpt>
      <trkpt lat="45.30711" lon="4.61629">
        <ele>639.40002441406</ele>
        <time>2019-10-30T10:12:15.000Z</time>
      </trkpt>
      <trkpt lat="45.30712" lon="4.61633">
        <ele>639.79998779297</ele>
        <time>2019-10-30T10:12:16.000Z</time>
      </trkpt>
      <trkpt lat="45.30712" lon="4.61636">
        <ele>640.20001220703</ele>
        <time>2019-10-30T10:12:17.000Z</time>
      </trkpt>
      <trkpt lat="45.30713" lon="4.61639">
        <ele>640.79998779297</ele>
        <time>2019-10-30T10:12:18.000Z</time>
      </trkpt>
      <trkpt lat="45.30713" lon="4.61641">
        <ele>641.40002441406</ele>
        <time>2019-10-30T10:12:19.000Z</time>
      </trkpt>
      <trkpt lat="45.30714" lon="4.61644">
        <ele>641.79998779297</ele>
        <time>2019-10-30T10:12:20.000Z</time>
      </trkpt>
      <trkpt lat="45.30714" lon="4.61646">
        <ele>642.40002441406</ele>
        <time>2019-10-30T10:12:21.000Z</time>
      </trkpt>
      <trkpt lat="45.30715" lon="4.61649">
        <ele>642.79998779297</ele>
        <time>2019-10-30T10:12:22.000Z</time>
      </trkpt>
      <trkpt lat="45.30716" lon="4.61652">
        <ele>643.20001220703</ele>
        <time>2019-10-30T10:12:23.000Z</time>
      </trkpt>
      <trkpt lat="45.30716" lon="4.61655">
        <ele>643.40002441406</ele>
        <time>2019-10-30T10:12:24.000Z</time>
      </trkpt>
      <trkpt lat="45.30717" lon="4.61658">
        <ele>643.79998779297</ele>
        <time>2019-10-30T10:12:25.000Z</time>
      </trkpt>
      <trkpt lat="45.30718" lon="4.61662">
        <ele>644</ele>
        <time>2019-10-30T10:12:26.000Z</time>
      </trkpt>
      <trkpt lat="45.30718" lon="4.61665">
        <ele>644.40002441406</ele>
        <time>2019-10-30T10:12:27.000Z</time>
      </trkpt>
      <trkpt lat="45.30719" lon="4.61669">
        <ele>645</ele>
        <time>2019-10-30T10:12:28.000Z</time>
      </trkpt>
      <trkpt lat="45.30719" lon="4.61672">
        <ele>645.20001220703</ele>
        <time>2019-10-30T10:12:29.000Z</time>
      </trkpt>
      <trkpt lat="45.3072" lon="4.61675">
        <ele>645.79998779297</ele>
        <time>2019-10-30T10:12:30.000Z</time>
      </trkpt>
      <trkpt lat="45.3072" lon="4.61678">
        <ele>646</ele>
        <time>2019-10-30T10:12:31.000Z</time>
      </trkpt>
      <trkpt lat="45.3072" lon="4.61681">
        <ele>646.40002441406</ele>
        <time>2019-10-30T10:12:32.000Z</time>
      </trkpt>
      <trkpt lat="45.30721" lon="4.61684">
        <ele>646.79998779297</ele>
        <time>2019-10-30T10:12:33.000Z</time>
      </trkpt>
      <trkpt lat="45.30722" lon="4.61688">
        <ele>647.20001220703</ele>
        <time>2019-10-30T10:12:34.000Z</time>
      </trkpt>
      <trkpt lat="45.30722" lon="4.61691">
        <ele>647.79998779297</ele>
        <time>2019-10-30T10:12:35.000Z</time>
      </trkpt>
      <trkpt lat="45.30723" lon="4.61694">
        <ele>647.79998779297</ele>
        <time>2019-10-30T10:12:36.000Z</time>
      </trkpt>
      <trkpt lat="45.30724" lon="4.61697">
        <ele>648.40002441406</ele>
        <time>2019-10-30T10:12:37.000Z</time>
      </trkpt>
      <trkpt lat="45.30724" lon="4.617">
        <ele>649</ele>
        <time>2019-10-30T10:12:38.000Z</time>
      </trkpt>
      <trkpt lat="45.30725" lon="4.61703">
        <ele>649.40002441406</ele>
        <time>2019-10-30T10:12:39.000Z</time>
      </trkpt>
      <trkpt lat="45.30725" lon="4.61706">
        <ele>649.40002441406</ele>
        <time>2019-10-30T10:12:40.000Z</time>
      </trkpt>
      <trkpt lat="45.30725" lon="4.61709">
        <ele>650</ele>
        <time>2019-10-30T10:12:41.000Z</time>
      </trkpt>
      <trkpt lat="45.30725" lon="4.61712">
        <ele>650.40002441406</ele>
        <time>2019-10-30T10:12:42.000Z</time>
      </trkpt>
      <trkpt lat="45.30726" lon="4.61714">
        <ele>650.79998779297</ele>
        <time>2019-10-30T10:12:43.000Z</time>
      </trkpt>
      <trkpt lat="45.30726" lon="4.61716">
        <ele>651</ele>
        <time>2019-10-30T10:12:44.000Z</time>
      </trkpt>
      <trkpt lat="45.30726" lon="4.61719">
        <ele>651.20001220703</ele>
        <time>2019-10-30T10:12:45.000Z</time>
      </trkpt>
      <trkpt lat="45.30726" lon="4.61722">
        <ele>651.40002441406</ele>
        <time>2019-10-30T10:12:46.000Z</time>
      </trkpt>
      <trkpt lat="45.30726" lon="4.61725">
        <ele>651.59997558594</ele>
        <time>2019-10-30T10:12:47.000Z</time>
      </trkpt>
      <trkpt lat="45.30726" lon="4.61728">
        <ele>651.79998779297</ele>
        <time>2019-10-30T10:12:48.000Z</time>
      </trkpt>
      <trkpt lat="45.30726" lon="4.6173">
        <ele>652</ele>
        <time>2019-10-30T10:12:49.000Z</time>
      </trkpt>
      <trkpt lat="45.30726" lon="4.61732">
        <ele>652.59997558594</ele>
        <time>2019-10-30T10:12:50.000Z</time>
      </trkpt>
      <trkpt lat="45.30726" lon="4.61734">
        <ele>653</ele>
        <time>2019-10-30T10:12:51.000Z</time>
      </trkpt>
      <trkpt lat="45.30727" lon="4.61737">
        <ele>653.40002441406</ele>
        <time>2019-10-30T10:12:52.000Z</time>
      </trkpt>
      <trkpt lat="45.30727" lon="4.61739">
        <ele>653.59997558594</ele>
        <time>2019-10-30T10:12:53.000Z</time>
      </trkpt>
      <trkpt lat="45.30727" lon="4.61742">
        <ele>653.79998779297</ele>
        <time>2019-10-30T10:12:54.000Z</time>
      </trkpt>
      <trkpt lat="45.30727" lon="4.61745">
        <ele>654</ele>
        <time>2019-10-30T10:12:55.000Z</time>
      </trkpt>
      <trkpt lat="45.30727" lon="4.61748">
        <ele>654.20001220703</ele>
        <time>2019-10-30T10:12:56.000Z</time>
      </trkpt>
      <trkpt lat="45.30727" lon="4.61751">
        <ele>654.59997558594</ele>
        <time>2019-10-30T10:12:57.000Z</time>
      </trkpt>
      <trkpt lat="45.30727" lon="4.61753">
        <ele>654.79998779297</ele>
        <time>2019-10-30T10:12:58.000Z</time>
      </trkpt>
      <trkpt lat="45.30727" lon="4.61756">
        <ele>654.79998779297</ele>
        <time>2019-10-30T10:12:59.000Z</time>
      </trkpt>
      <trkpt lat="45.30728" lon="4.61758">
        <ele>655.20001220703</ele>
        <time>2019-10-30T10:13:00.000Z</time>
      </trkpt>
      <trkpt lat="45.30728" lon="4.6176">
        <ele>655.40002441406</ele>
        <time>2019-10-30T10:13:01.000Z</time>
      </trkpt>
      <trkpt lat="45.30729" lon="4.61763">
        <ele>655.79998779297</ele>
        <time>2019-10-30T10:13:02.000Z</time>
      </trkpt>
      <trkpt lat="45.30729" lon="4.61765">
        <ele>655.79998779297</ele>
        <time>2019-10-30T10:13:03.000Z</time>
      </trkpt>
      <trkpt lat="45.30729" lon="4.61768">
        <ele>655.79998779297</ele>
        <time>2019-10-30T10:13:04.000Z</time>
      </trkpt>
      <trkpt lat="45.3073" lon="4.6177">
        <ele>656</ele>
        <time>2019-10-30T10:13:05.000Z</time>
      </trkpt>
      <trkpt lat="45.3073" lon="4.61772">
        <ele>656</ele>
        <time>2019-10-30T10:13:06.000Z</time>
      </trkpt>
      <trkpt lat="45.30731" lon="4.61775">
        <ele>656.20001220703</ele>
        <time>2019-10-30T10:13:07.000Z</time>
      </trkpt>
      <trkpt lat="45.30731" lon="4.61777">
        <ele>656.40002441406</ele>
        <time>2019-10-30T10:13:08.000Z</time>
      </trkpt>
      <trkpt lat="45.30732" lon="4.6178">
        <ele>656.59997558594</ele>
        <time>2019-10-30T10:13:09.000Z</time>
      </trkpt>
      <trkpt lat="45.30732" lon="4.61783">
        <ele>656.79998779297</ele>
        <time>2019-10-30T10:13:10.000Z</time>
      </trkpt>
      <trkpt lat="45.30733" lon="4.61787">
        <ele>656.79998779297</ele>
        <time>2019-10-30T10:13:11.000Z</time>
      </trkpt>
      <trkpt lat="45.30734" lon="4.61791">
        <ele>657.20001220703</ele>
        <time>2019-10-30T10:13:12.000Z</time>
      </trkpt>
      <trkpt lat="45.30735" lon="4.61795">
        <ele>657.40002441406</ele>
        <time>2019-10-30T10:13:13.000Z</time>
      </trkpt>
      <trkpt lat="45.30736" lon="4.61799">
        <ele>657.40002441406</ele>
        <time>2019-10-30T10:13:14.000Z</time>
      </trkpt>
      <trkpt lat="45.30736" lon="4.61804">
        <ele>657.79998779297</ele>
        <time>2019-10-30T10:13:15.000Z</time>
      </trkpt>
      <trkpt lat="45.30737" lon="4.61809">
        <ele>658</ele>
        <time>2019-10-30T10:13:16.000Z</time>
      </trkpt>
      <trkpt lat="45.30737" lon="4.61814">
        <ele>658.20001220703</ele>
        <time>2019-10-30T10:13:17.000Z</time>
      </trkpt>
      <trkpt lat="45.30738" lon="4.61818">
        <ele>658.40002441406</ele>
        <time>2019-10-30T10:13:18.000Z</time>
      </trkpt>
      <trkpt lat="45.30738" lon="4.61822">
        <ele>658.40002441406</ele>
        <time>2019-10-30T10:13:19.000Z</time>
      </trkpt>
      <trkpt lat="45.30738" lon="4.61827">
        <ele>659</ele>
        <time>2019-10-30T10:13:20.000Z</time>
      </trkpt>
      <trkpt lat="45.30739" lon="4.6183">
        <ele>659.20001220703</ele>
        <time>2019-10-30T10:13:21.000Z</time>
      </trkpt>
      <trkpt lat="45.30739" lon="4.61833">
        <ele>659.79998779297</ele>
        <time>2019-10-30T10:13:22.000Z</time>
      </trkpt>
      <trkpt lat="45.30739" lon="4.61836">
        <ele>660.20001220703</ele>
        <time>2019-10-30T10:13:23.000Z</time>
      </trkpt>
      <trkpt lat="45.30739" lon="4.61838">
        <ele>660.40002441406</ele>
        <time>2019-10-30T10:13:24.000Z</time>
      </trkpt>
      <trkpt lat="45.30739" lon="4.61841">
        <ele>661.20001220703</ele>
        <time>2019-10-30T10:13:25.000Z</time>
      </trkpt>
      <trkpt lat="45.30739" lon="4.61843">
        <ele>661.59997558594</ele>
        <time>2019-10-30T10:13:26.000Z</time>
      </trkpt>
      <trkpt lat="45.3074" lon="4.61846">
        <ele>661.59997558594</ele>
        <time>2019-10-30T10:13:27.000Z</time>
      </trkpt>
      <trkpt lat="45.3074" lon="4.61848">
        <ele>662.59997558594</ele>
        <time>2019-10-30T10:13:28.000Z</time>
      </trkpt>
      <trkpt lat="45.3074" lon="4.61852">
        <ele>662.79998779297</ele>
        <time>2019-10-30T10:13:29.000Z</time>
      </trkpt>
      <trkpt lat="45.3074" lon="4.61855">
        <ele>663.40002441406</ele>
        <time>2019-10-30T10:13:30.000Z</time>
      </trkpt>
      <trkpt lat="45.3074" lon="4.61858">
        <ele>663.79998779297</ele>
        <time>2019-10-30T10:13:31.000Z</time>
      </trkpt>
      <trkpt lat="45.3074" lon="4.61861">
        <ele>663.79998779297</ele>
        <time>2019-10-30T10:13:32.000Z</time>
      </trkpt>
      <trkpt lat="45.3074" lon="4.61864">
        <ele>664.20001220703</ele>
        <time>2019-10-30T10:13:33.000Z</time>
      </trkpt>
      <trkpt lat="45.30739" lon="4.61867">
        <ele>664.40002441406</ele>
        <time>2019-10-30T10:13:34.000Z</time>
      </trkpt>
      <trkpt lat="45.30739" lon="4.6187">
        <ele>664.79998779297</ele>
        <time>2019-10-30T10:13:35.000Z</time>
      </trkpt>
      <trkpt lat="45.30739" lon="4.61873">
        <ele>665</ele>
        <time>2019-10-30T10:13:36.000Z</time>
      </trkpt>
      <trkpt lat="45.30739" lon="4.61875">
        <ele>665.20001220703</ele>
        <time>2019-10-30T10:13:37.000Z</time>
      </trkpt>
      <trkpt lat="45.30739" lon="4.61877">
        <ele>665.40002441406</ele>
        <time>2019-10-30T10:13:38.000Z</time>
      </trkpt>
      <trkpt lat="45.30739" lon="4.61879">
        <ele>665.59997558594</ele>
        <time>2019-10-30T10:13:39.000Z</time>
      </trkpt>
      <trkpt lat="45.30738" lon="4.61881">
        <ele>666.20001220703</ele>
        <time>2019-10-30T10:13:40.000Z</time>
      </trkpt>
      <trkpt lat="45.30738" lon="4.61884">
        <ele>666.79998779297</ele>
        <time>2019-10-30T10:13:41.000Z</time>
      </trkpt>
      <trkpt lat="45.30739" lon="4.61886">
        <ele>667.20001220703</ele>
        <time>2019-10-30T10:13:42.000Z</time>
      </trkpt>
      <trkpt lat="45.30739" lon="4.6189">
        <ele>667.40002441406</ele>
        <time>2019-10-30T10:13:43.000Z</time>
      </trkpt>
      <trkpt lat="45.3074" lon="4.61893">
        <ele>667.79998779297</ele>
        <time>2019-10-30T10:13:44.000Z</time>
      </trkpt>
      <trkpt lat="45.30741" lon="4.61896">
        <ele>668.20001220703</ele>
        <time>2019-10-30T10:13:45.000Z</time>
      </trkpt>
      <trkpt lat="45.30741" lon="4.61899">
        <ele>668.40002441406</ele>
        <time>2019-10-30T10:13:46.000Z</time>
      </trkpt>
      <trkpt lat="45.30742" lon="4.61902">
        <ele>668.59997558594</ele>
        <time>2019-10-30T10:13:47.000Z</time>
      </trkpt>
      <trkpt lat="45.30742" lon="4.61904">
        <ele>668.79998779297</ele>
        <time>2019-10-30T10:13:48.000Z</time>
      </trkpt>
      <trkpt lat="45.30743" lon="4.61906">
        <ele>669.20001220703</ele>
        <time>2019-10-30T10:13:49.000Z</time>
      </trkpt>
      <trkpt lat="45.30744" lon="4.61909">
        <ele>669.20001220703</ele>
        <time>2019-10-30T10:13:50.000Z</time>
      </trkpt>
      <trkpt lat="45.30744" lon="4.61911">
        <ele>669.40002441406</ele>
        <time>2019-10-30T10:13:51.000Z</time>
      </trkpt>
      <trkpt lat="45.30745" lon="4.61913">
        <ele>669.59997558594</ele>
        <time>2019-10-30T10:13:52.000Z</time>
      </trkpt>
      <trkpt lat="45.30745" lon="4.61915">
        <ele>669.79998779297</ele>
        <time>2019-10-30T10:13:53.000Z</time>
      </trkpt>
      <trkpt lat="45.30745" lon="4.61918">
        <ele>670</ele>
        <time>2019-10-30T10:13:54.000Z</time>
      </trkpt>
      <trkpt lat="45.30744" lon="4.61921">
        <ele>670.40002441406</ele>
        <time>2019-10-30T10:13:55.000Z</time>
      </trkpt>
      <trkpt lat="45.30743" lon="4.61923">
        <ele>670.59997558594</ele>
        <time>2019-10-30T10:13:56.000Z</time>
      </trkpt>
      <trkpt lat="45.30742" lon="4.61926">
        <ele>670.59997558594</ele>
        <time>2019-10-30T10:13:57.000Z</time>
      </trkpt>
      <trkpt lat="45.30741" lon="4.61928">
        <ele>670.59997558594</ele>
        <time>2019-10-30T10:13:58.000Z</time>
      </trkpt>
      <trkpt lat="45.30739" lon="4.61929">
        <ele>670.59997558594</ele>
        <time>2019-10-30T10:13:59.000Z</time>
      </trkpt>
      <trkpt lat="45.30737" lon="4.61931">
        <ele>671</ele>
        <time>2019-10-30T10:14:00.000Z</time>
      </trkpt>
      <trkpt lat="45.30734" lon="4.61935">
        <ele>671.20001220703</ele>
        <time>2019-10-30T10:14:02.000Z</time>
      </trkpt>
      <trkpt lat="45.30732" lon="4.61936">
        <ele>671.40002441406</ele>
        <time>2019-10-30T10:14:03.000Z</time>
      </trkpt>
      <trkpt lat="45.30731" lon="4.61937">
        <ele>671.40002441406</ele>
        <time>2019-10-30T10:14:04.000Z</time>
      </trkpt>
      <trkpt lat="45.30729" lon="4.61938">
        <ele>671.20001220703</ele>
        <time>2019-10-30T10:14:05.000Z</time>
      </trkpt>
      <trkpt lat="45.30728" lon="4.61939">
        <ele>671.59997558594</ele>
        <time>2019-10-30T10:14:06.000Z</time>
      </trkpt>
      <trkpt lat="45.30726" lon="4.6194">
        <ele>671.40002441406</ele>
        <time>2019-10-30T10:14:07.000Z</time>
      </trkpt>
      <trkpt lat="45.30725" lon="4.61942">
        <ele>671.59997558594</ele>
        <time>2019-10-30T10:14:08.000Z</time>
      </trkpt>
      <trkpt lat="45.30723" lon="4.61944">
        <ele>671.59997558594</ele>
        <time>2019-10-30T10:14:09.000Z</time>
      </trkpt>
      <trkpt lat="45.30722" lon="4.61946">
        <ele>671.79998779297</ele>
        <time>2019-10-30T10:14:10.000Z</time>
      </trkpt>
      <trkpt lat="45.3072" lon="4.61948">
        <ele>672.20001220703</ele>
        <time>2019-10-30T10:14:11.000Z</time>
      </trkpt>
      <trkpt lat="45.30719" lon="4.61951">
        <ele>672.59997558594</ele>
        <time>2019-10-30T10:14:12.000Z</time>
      </trkpt>
      <trkpt lat="45.30718" lon="4.61953">
        <ele>673.20001220703</ele>
        <time>2019-10-30T10:14:13.000Z</time>
      </trkpt>
      <trkpt lat="45.30717" lon="4.61956">
        <ele>673.59997558594</ele>
        <time>2019-10-30T10:14:14.000Z</time>
      </trkpt>
      <trkpt lat="45.30716" lon="4.61959">
        <ele>674</ele>
        <time>2019-10-30T10:14:15.000Z</time>
      </trkpt>
      <trkpt lat="45.30717" lon="4.61962">
        <ele>674.20001220703</ele>
        <time>2019-10-30T10:14:16.000Z</time>
      </trkpt>
      <trkpt lat="45.30718" lon="4.61965">
        <ele>674.59997558594</ele>
        <time>2019-10-30T10:14:17.000Z</time>
      </trkpt>
      <trkpt lat="45.30719" lon="4.61968">
        <ele>674.79998779297</ele>
        <time>2019-10-30T10:14:18.000Z</time>
      </trkpt>
      <trkpt lat="45.3072" lon="4.61971">
        <ele>675.20001220703</ele>
        <time>2019-10-30T10:14:19.000Z</time>
      </trkpt>
      <trkpt lat="45.3072" lon="4.61974">
        <ele>675.40002441406</ele>
        <time>2019-10-30T10:14:20.000Z</time>
      </trkpt>
      <trkpt lat="45.30721" lon="4.61976">
        <ele>675.79998779297</ele>
        <time>2019-10-30T10:14:21.000Z</time>
      </trkpt>
      <trkpt lat="45.30722" lon="4.61979">
        <ele>676.40002441406</ele>
        <time>2019-10-30T10:14:22.000Z</time>
      </trkpt>
      <trkpt lat="45.30723" lon="4.61982">
        <ele>676.59997558594</ele>
        <time>2019-10-30T10:14:23.000Z</time>
      </trkpt>
      <trkpt lat="45.30724" lon="4.61985">
        <ele>676.59997558594</ele>
        <time>2019-10-30T10:14:24.000Z</time>
      </trkpt>
      <trkpt lat="45.30724" lon="4.61987">
        <ele>676.79998779297</ele>
        <time>2019-10-30T10:14:25.000Z</time>
      </trkpt>
      <trkpt lat="45.30725" lon="4.6199">
        <ele>677.20001220703</ele>
        <time>2019-10-30T10:14:26.000Z</time>
      </trkpt>
      <trkpt lat="45.30725" lon="4.61993">
        <ele>677.40002441406</ele>
        <time>2019-10-30T10:14:27.000Z</time>
      </trkpt>
      <trkpt lat="45.30725" lon="4.61996">
        <ele>677.79998779297</ele>
        <time>2019-10-30T10:14:28.000Z</time>
      </trkpt>
      <trkpt lat="45.30726" lon="4.61999">
        <ele>678</ele>
        <time>2019-10-30T10:14:29.000Z</time>
      </trkpt>
      <trkpt lat="45.30727" lon="4.62001">
        <ele>678.40002441406</ele>
        <time>2019-10-30T10:14:30.000Z</time>
      </trkpt>
      <trkpt lat="45.30728" lon="4.62004">
        <ele>678.59997558594</ele>
        <time>2019-10-30T10:14:31.000Z</time>
      </trkpt>
      <trkpt lat="45.30729" lon="4.62007">
        <ele>678.79998779297</ele>
        <time>2019-10-30T10:14:32.000Z</time>
      </trkpt>
      <trkpt lat="45.3073" lon="4.62009">
        <ele>679.59997558594</ele>
        <time>2019-10-30T10:14:33.000Z</time>
      </trkpt>
      <trkpt lat="45.30732" lon="4.62012">
        <ele>680</ele>
        <time>2019-10-30T10:14:34.000Z</time>
      </trkpt>
      <trkpt lat="45.30733" lon="4.62014">
        <ele>680.40002441406</ele>
        <time>2019-10-30T10:14:35.000Z</time>
      </trkpt>
      <trkpt lat="45.30735" lon="4.62015">
        <ele>680.79998779297</ele>
        <time>2019-10-30T10:14:36.000Z</time>
      </trkpt>
      <trkpt lat="45.30737" lon="4.62017">
        <ele>681.20001220703</ele>
        <time>2019-10-30T10:14:37.000Z</time>
      </trkpt>
      <trkpt lat="45.30739" lon="4.62019">
        <ele>681.40002441406</ele>
        <time>2019-10-30T10:14:38.000Z</time>
      </trkpt>
      <trkpt lat="45.3074" lon="4.62021">
        <ele>681.59997558594</ele>
        <time>2019-10-30T10:14:39.000Z</time>
      </trkpt>
      <trkpt lat="45.30742" lon="4.62024">
        <ele>682</ele>
        <time>2019-10-30T10:14:40.000Z</time>
      </trkpt>
      <trkpt lat="45.30743" lon="4.62026">
        <ele>682.40002441406</ele>
        <time>2019-10-30T10:14:41.000Z</time>
      </trkpt>
      <trkpt lat="45.30745" lon="4.62029">
        <ele>682.79998779297</ele>
        <time>2019-10-30T10:14:42.000Z</time>
      </trkpt>
      <trkpt lat="45.30746" lon="4.62032">
        <ele>683.20001220703</ele>
        <time>2019-10-30T10:14:43.000Z</time>
      </trkpt>
      <trkpt lat="45.30748" lon="4.62034">
        <ele>683.40002441406</ele>
        <time>2019-10-30T10:14:44.000Z</time>
      </trkpt>
      <trkpt lat="45.30749" lon="4.62036">
        <ele>683.79998779297</ele>
        <time>2019-10-30T10:14:45.000Z</time>
      </trkpt>
      <trkpt lat="45.30751" lon="4.62039">
        <ele>684.20001220703</ele>
        <time>2019-10-30T10:14:46.000Z</time>
      </trkpt>
      <trkpt lat="45.30753" lon="4.62041">
        <ele>684.20001220703</ele>
        <time>2019-10-30T10:14:47.000Z</time>
      </trkpt>
      <trkpt lat="45.30754" lon="4.62043">
        <ele>684.59997558594</ele>
        <time>2019-10-30T10:14:48.000Z</time>
      </trkpt>
      <trkpt lat="45.30756" lon="4.62045">
        <ele>685</ele>
        <time>2019-10-30T10:14:49.000Z</time>
      </trkpt>
      <trkpt lat="45.30757" lon="4.62047">
        <ele>685</ele>
        <time>2019-10-30T10:14:50.000Z</time>
      </trkpt>
      <trkpt lat="45.30759" lon="4.62048">
        <ele>685.79998779297</ele>
        <time>2019-10-30T10:14:51.000Z</time>
      </trkpt>
      <trkpt lat="45.3076" lon="4.6205">
        <ele>686.20001220703</ele>
        <time>2019-10-30T10:14:52.000Z</time>
      </trkpt>
      <trkpt lat="45.30762" lon="4.62052">
        <ele>686.59997558594</ele>
        <time>2019-10-30T10:14:53.000Z</time>
      </trkpt>
      <trkpt lat="45.30763" lon="4.62053">
        <ele>687</ele>
        <time>2019-10-30T10:14:54.000Z</time>
      </trkpt>
      <trkpt lat="45.30764" lon="4.62055">
        <ele>687.40002441406</ele>
        <time>2019-10-30T10:14:55.000Z</time>
      </trkpt>
      <trkpt lat="45.30766" lon="4.62057">
        <ele>687.79998779297</ele>
        <time>2019-10-30T10:14:56.000Z</time>
      </trkpt>
      <trkpt lat="45.30767" lon="4.62058">
        <ele>688</ele>
        <time>2019-10-30T10:14:57.000Z</time>
      </trkpt>
      <trkpt lat="45.30768" lon="4.6206">
        <ele>688.20001220703</ele>
        <time>2019-10-30T10:14:58.000Z</time>
      </trkpt>
      <trkpt lat="45.3077" lon="4.62061">
        <ele>688.59997558594</ele>
        <time>2019-10-30T10:14:59.000Z</time>
      </trkpt>
      <trkpt lat="45.30771" lon="4.62062">
        <ele>688.59997558594</ele>
        <time>2019-10-30T10:15:00.000Z</time>
      </trkpt>
      <trkpt lat="45.30772" lon="4.62063">
        <ele>689</ele>
        <time>2019-10-30T10:15:01.000Z</time>
      </trkpt>
      <trkpt lat="45.30774" lon="4.62065">
        <ele>689.40002441406</ele>
        <time>2019-10-30T10:15:02.000Z</time>
      </trkpt>
      <trkpt lat="45.30775" lon="4.62067">
        <ele>689.40002441406</ele>
        <time>2019-10-30T10:15:03.000Z</time>
      </trkpt>
      <trkpt lat="45.30777" lon="4.62069">
        <ele>689.79998779297</ele>
        <time>2019-10-30T10:15:04.000Z</time>
      </trkpt>
      <trkpt lat="45.30779" lon="4.62071">
        <ele>690.20001220703</ele>
        <time>2019-10-30T10:15:05.000Z</time>
      </trkpt>
      <trkpt lat="45.3078" lon="4.62072">
        <ele>690.59997558594</ele>
        <time>2019-10-30T10:15:06.000Z</time>
      </trkpt>
      <trkpt lat="45.30782" lon="4.62074">
        <ele>690.79998779297</ele>
        <time>2019-10-30T10:15:07.000Z</time>
      </trkpt>
      <trkpt lat="45.30784" lon="4.62075">
        <ele>691</ele>
        <time>2019-10-30T10:15:08.000Z</time>
      </trkpt>
      <trkpt lat="45.30785" lon="4.62077">
        <ele>691.20001220703</ele>
        <time>2019-10-30T10:15:09.000Z</time>
      </trkpt>
      <trkpt lat="45.30787" lon="4.62079">
        <ele>691.40002441406</ele>
        <time>2019-10-30T10:15:10.000Z</time>
      </trkpt>
      <trkpt lat="45.30789" lon="4.62081">
        <ele>691.40002441406</ele>
        <time>2019-10-30T10:15:11.000Z</time>
      </trkpt>
      <trkpt lat="45.30791" lon="4.62082">
        <ele>692</ele>
        <time>2019-10-30T10:15:12.000Z</time>
      </trkpt>
      <trkpt lat="45.30792" lon="4.62084">
        <ele>692.20001220703</ele>
        <time>2019-10-30T10:15:13.000Z</time>
      </trkpt>
      <trkpt lat="45.30794" lon="4.62086">
        <ele>692.59997558594</ele>
        <time>2019-10-30T10:15:14.000Z</time>
      </trkpt>
      <trkpt lat="45.30796" lon="4.62087">
        <ele>692.79998779297</ele>
        <time>2019-10-30T10:15:15.000Z</time>
      </trkpt>
      <trkpt lat="45.30797" lon="4.62089">
        <ele>692.79998779297</ele>
        <time>2019-10-30T10:15:16.000Z</time>
      </trkpt>
      <trkpt lat="45.30799" lon="4.62091">
        <ele>693.20001220703</ele>
        <time>2019-10-30T10:15:17.000Z</time>
      </trkpt>
      <trkpt lat="45.308" lon="4.62092">
        <ele>693.40002441406</ele>
        <time>2019-10-30T10:15:18.000Z</time>
      </trkpt>
      <trkpt lat="45.30802" lon="4.62093">
        <ele>693.59997558594</ele>
        <time>2019-10-30T10:15:19.000Z</time>
      </trkpt>
      <trkpt lat="45.30803" lon="4.62094">
        <ele>693.79998779297</ele>
        <time>2019-10-30T10:15:20.000Z</time>
      </trkpt>
      <trkpt lat="45.30804" lon="4.62094">
        <ele>694.20001220703</ele>
        <time>2019-10-30T10:15:21.000Z</time>
      </trkpt>
      <trkpt lat="45.30805" lon="4.62095">
        <ele>694.59997558594</ele>
        <time>2019-10-30T10:15:22.000Z</time>
      </trkpt>
      <trkpt lat="45.30806" lon="4.62096">
        <ele>695</ele>
        <time>2019-10-30T10:15:23.000Z</time>
      </trkpt>
      <trkpt lat="45.30807" lon="4.62098">
        <ele>695.20001220703</ele>
        <time>2019-10-30T10:15:24.000Z</time>
      </trkpt>
      <trkpt lat="45.30807" lon="4.62099">
        <ele>695.40002441406</ele>
        <time>2019-10-30T10:15:25.000Z</time>
      </trkpt>
      <trkpt lat="45.30807" lon="4.621">
        <ele>695.59997558594</ele>
        <time>2019-10-30T10:15:26.000Z</time>
      </trkpt>
      <trkpt lat="45.30807" lon="4.62101">
        <ele>696</ele>
        <time>2019-10-30T10:15:27.000Z</time>
      </trkpt>
      <trkpt lat="45.30807" lon="4.62101">
        <ele>696.79998779297</ele>
        <time>2019-10-30T10:15:32.000Z</time>
      </trkpt>
      <trkpt lat="45.30807" lon="4.62101">
        <ele>697.40002441406</ele>
        <time>2019-10-30T10:15:34.000Z</time>
      </trkpt>
      <trkpt lat="45.30807" lon="4.62101">
        <ele>698</ele>
        <time>2019-10-30T10:15:45.000Z</time>
      </trkpt>
      <trkpt lat="45.30807" lon="4.62101">
        <ele>698</ele>
        <time>2019-10-30T10:15:46.000Z</time>
      </trkpt>
      <trkpt lat="45.30807" lon="4.62101">
        <ele>698</ele>
        <time>2019-10-30T10:15:47.000Z</time>
      </trkpt>
      <trkpt lat="45.30807" lon="4.62101">
        <ele>698</ele>
        <time>2019-10-30T10:15:49.000Z</time>
      </trkpt>
      <trkpt lat="45.30807" lon="4.62101">
        <ele>698</ele>
        <time>2019-10-30T10:15:50.000Z</time>
      </trkpt>
      <trkpt lat="45.30807" lon="4.62101">
        <ele>698</ele>
        <time>2019-10-30T10:15:52.000Z</time>
      </trkpt>
      <trkpt lat="45.30807" lon="4.62101">
        <ele>698</ele>
        <time>2019-10-30T10:16:14.000Z</time>
      </trkpt>
      <trkpt lat="45.30807" lon="4.62101">
        <ele>698</ele>
        <time>2019-10-30T10:16:28.000Z</time>
      </trkpt>
      <trkpt lat="45.30807" lon="4.62101">
        <ele>697.79998779297</ele>
        <time>2019-10-30T10:16:41.000Z</time>
      </trkpt>
      <trkpt lat="45.30806" lon="4.62102">
        <ele>697.79998779297</ele>
        <time>2019-10-30T10:16:49.000Z</time>
      </trkpt>
      <trkpt lat="45.30805" lon="4.62102">
        <ele>697.79998779297</ele>
        <time>2019-10-30T10:16:50.000Z</time>
      </trkpt>
      <trkpt lat="45.30804" lon="4.62103">
        <ele>698</ele>
        <time>2019-10-30T10:16:51.000Z</time>
      </trkpt>
      <trkpt lat="45.30802" lon="4.62105">
        <ele>697.79998779297</ele>
        <time>2019-10-30T10:16:52.000Z</time>
      </trkpt>
      <trkpt lat="45.30797" lon="4.62108">
        <ele>697.79998779297</ele>
        <time>2019-10-30T10:16:54.000Z</time>
      </trkpt>
      <trkpt lat="45.30787" lon="4.62113">
        <ele>697.79998779297</ele>
        <time>2019-10-30T10:16:57.000Z</time>
      </trkpt>
      <trkpt lat="45.30779" lon="4.62115">
        <ele>697.59997558594</ele>
        <time>2019-10-30T10:16:59.000Z</time>
      </trkpt>
      <trkpt lat="45.30776" lon="4.62115">
        <ele>697.59997558594</ele>
        <time>2019-10-30T10:17:00.000Z</time>
      </trkpt>
      <trkpt lat="45.30772" lon="4.62116">
        <ele>697.40002441406</ele>
        <time>2019-10-30T10:17:01.000Z</time>
      </trkpt>
      <trkpt lat="45.30769" lon="4.62117">
        <ele>697.20001220703</ele>
        <time>2019-10-30T10:17:02.000Z</time>
      </trkpt>
      <trkpt lat="45.30762" lon="4.62121">
        <ele>696.79998779297</ele>
        <time>2019-10-30T10:17:04.000Z</time>
      </trkpt>
      <trkpt lat="45.3076" lon="4.62124">
        <ele>696.40002441406</ele>
        <time>2019-10-30T10:17:05.000Z</time>
      </trkpt>
      <trkpt lat="45.30759" lon="4.62127">
        <ele>696</ele>
        <time>2019-10-30T10:17:06.000Z</time>
      </trkpt>
      <trkpt lat="45.30759" lon="4.62132">
        <ele>695.20001220703</ele>
        <time>2019-10-30T10:17:07.000Z</time>
      </trkpt>
      <trkpt lat="45.30759" lon="4.62136">
        <ele>694.59997558594</ele>
        <time>2019-10-30T10:17:08.000Z</time>
      </trkpt>
      <trkpt lat="45.30761" lon="4.6214">
        <ele>694</ele>
        <time>2019-10-30T10:17:09.000Z</time>
      </trkpt>
      <trkpt lat="45.30762" lon="4.62145">
        <ele>693.20001220703</ele>
        <time>2019-10-30T10:17:10.000Z</time>
      </trkpt>
      <trkpt lat="45.30764" lon="4.62152">
        <ele>692</ele>
        <time>2019-10-30T10:17:12.000Z</time>
      </trkpt>
      <trkpt lat="45.30764" lon="4.62156">
        <ele>691.59997558594</ele>
        <time>2019-10-30T10:17:13.000Z</time>
      </trkpt>
      <trkpt lat="45.30765" lon="4.62159">
        <ele>691.59997558594</ele>
        <time>2019-10-30T10:17:14.000Z</time>
      </trkpt>
      <trkpt lat="45.30766" lon="4.62163">
        <ele>691.40002441406</ele>
        <time>2019-10-30T10:17:15.000Z</time>
      </trkpt>
      <trkpt lat="45.30766" lon="4.62167">
        <ele>691.20001220703</ele>
        <time>2019-10-30T10:17:16.000Z</time>
      </trkpt>
      <trkpt lat="45.30767" lon="4.62174">
        <ele>690.79998779297</ele>
        <time>2019-10-30T10:17:18.000Z</time>
      </trkpt>
      <trkpt lat="45.30768" lon="4.62189">
        <ele>690.40002441406</ele>
        <time>2019-10-30T10:17:21.000Z</time>
      </trkpt>
      <trkpt lat="45.30769" lon="4.62195">
        <ele>690.20001220703</ele>
        <time>2019-10-30T10:17:22.000Z</time>
      </trkpt>
      <trkpt lat="45.30772" lon="4.62207">
        <ele>690</ele>
        <time>2019-10-30T10:17:24.000Z</time>
      </trkpt>
      <trkpt lat="45.30779" lon="4.62226">
        <ele>689.79998779297</ele>
        <time>2019-10-30T10:17:27.000Z</time>
      </trkpt>
      <trkpt lat="45.30782" lon="4.62234">
        <ele>689.20001220703</ele>
        <time>2019-10-30T10:17:28.000Z</time>
      </trkpt>
      <trkpt lat="45.30786" lon="4.6224">
        <ele>688.59997558594</ele>
        <time>2019-10-30T10:17:29.000Z</time>
      </trkpt>
      <trkpt lat="45.30791" lon="4.62247">
        <ele>688.40002441406</ele>
        <time>2019-10-30T10:17:30.000Z</time>
      </trkpt>
      <trkpt lat="45.30797" lon="4.62252">
        <ele>688</ele>
        <time>2019-10-30T10:17:31.000Z</time>
      </trkpt>
      <trkpt lat="45.30803" lon="4.62256">
        <ele>687.40002441406</ele>
        <time>2019-10-30T10:17:32.000Z</time>
      </trkpt>
      <trkpt lat="45.30808" lon="4.6226">
        <ele>687</ele>
        <time>2019-10-30T10:17:33.000Z</time>
      </trkpt>
      <trkpt lat="45.30815" lon="4.62263">
        <ele>686.59997558594</ele>
        <time>2019-10-30T10:17:34.000Z</time>
      </trkpt>
      <trkpt lat="45.30821" lon="4.62266">
        <ele>686.20001220703</ele>
        <time>2019-10-30T10:17:35.000Z</time>
      </trkpt>
      <trkpt lat="45.30826" lon="4.62268">
        <ele>685.59997558594</ele>
        <time>2019-10-30T10:17:36.000Z</time>
      </trkpt>
      <trkpt lat="45.30832" lon="4.6227">
        <ele>685.20001220703</ele>
        <time>2019-10-30T10:17:37.000Z</time>
      </trkpt>
      <trkpt lat="45.30838" lon="4.62273">
        <ele>684</ele>
        <time>2019-10-30T10:17:38.000Z</time>
      </trkpt>
      <trkpt lat="45.30844" lon="4.62276">
        <ele>683.59997558594</ele>
        <time>2019-10-30T10:17:39.000Z</time>
      </trkpt>
      <trkpt lat="45.30849" lon="4.62279">
        <ele>683.20001220703</ele>
        <time>2019-10-30T10:17:40.000Z</time>
      </trkpt>
      <trkpt lat="45.30853" lon="4.62284">
        <ele>683</ele>
        <time>2019-10-30T10:17:41.000Z</time>
      </trkpt>
      <trkpt lat="45.30856" lon="4.62289">
        <ele>682.59997558594</ele>
        <time>2019-10-30T10:17:42.000Z</time>
      </trkpt>
      <trkpt lat="45.30859" lon="4.62296">
        <ele>682.40002441406</ele>
        <time>2019-10-30T10:17:43.000Z</time>
      </trkpt>
      <trkpt lat="45.30861" lon="4.62302">
        <ele>682.20001220703</ele>
        <time>2019-10-30T10:17:44.000Z</time>
      </trkpt>
      <trkpt lat="45.30863" lon="4.62309">
        <ele>682</ele>
        <time>2019-10-30T10:17:45.000Z</time>
      </trkpt>
      <trkpt lat="45.30865" lon="4.62316">
        <ele>682</ele>
        <time>2019-10-30T10:17:46.000Z</time>
      </trkpt>
      <trkpt lat="45.30867" lon="4.62322">
        <ele>681.79998779297</ele>
        <time>2019-10-30T10:17:47.000Z</time>
      </trkpt>
      <trkpt lat="45.30869" lon="4.62329">
        <ele>681.59997558594</ele>
        <time>2019-10-30T10:17:48.000Z</time>
      </trkpt>
      <trkpt lat="45.30872" lon="4.62336">
        <ele>681.40002441406</ele>
        <time>2019-10-30T10:17:49.000Z</time>
      </trkpt>
      <trkpt lat="45.30875" lon="4.62342">
        <ele>681.40002441406</ele>
        <time>2019-10-30T10:17:50.000Z</time>
      </trkpt>
      <trkpt lat="45.30879" lon="4.62347">
        <ele>681.20001220703</ele>
        <time>2019-10-30T10:17:51.000Z</time>
      </trkpt>
      <trkpt lat="45.30884" lon="4.62352">
        <ele>681.20001220703</ele>
        <time>2019-10-30T10:17:52.000Z</time>
      </trkpt>
      <trkpt lat="45.30889" lon="4.62356">
        <ele>681.20001220703</ele>
        <time>2019-10-30T10:17:53.000Z</time>
      </trkpt>
      <trkpt lat="45.30894" lon="4.62361">
        <ele>681</ele>
        <time>2019-10-30T10:17:54.000Z</time>
      </trkpt>
      <trkpt lat="45.30897" lon="4.62365">
        <ele>681</ele>
        <time>2019-10-30T10:17:55.000Z</time>
      </trkpt>
      <trkpt lat="45.309" lon="4.6237">
        <ele>681.20001220703</ele>
        <time>2019-10-30T10:17:56.000Z</time>
      </trkpt>
      <trkpt lat="45.30901" lon="4.62375">
        <ele>681</ele>
        <time>2019-10-30T10:17:57.000Z</time>
      </trkpt>
      <trkpt lat="45.30902" lon="4.62381">
        <ele>681</ele>
        <time>2019-10-30T10:17:58.000Z</time>
      </trkpt>
      <trkpt lat="45.30901" lon="4.62389">
        <ele>680.20001220703</ele>
        <time>2019-10-30T10:17:59.000Z</time>
      </trkpt>
      <trkpt lat="45.309" lon="4.62396">
        <ele>679.59997558594</ele>
        <time>2019-10-30T10:18:00.000Z</time>
      </trkpt>
      <trkpt lat="45.30898" lon="4.62405">
        <ele>678.79998779297</ele>
        <time>2019-10-30T10:18:01.000Z</time>
      </trkpt>
      <trkpt lat="45.30896" lon="4.62413">
        <ele>678</ele>
        <time>2019-10-30T10:18:02.000Z</time>
      </trkpt>
      <trkpt lat="45.30896" lon="4.62422">
        <ele>677.40002441406</ele>
        <time>2019-10-30T10:18:03.000Z</time>
      </trkpt>
      <trkpt lat="45.30896" lon="4.6243">
        <ele>677</ele>
        <time>2019-10-30T10:18:04.000Z</time>
      </trkpt>
      <trkpt lat="45.30897" lon="4.6244">
        <ele>676.40002441406</ele>
        <time>2019-10-30T10:18:05.000Z</time>
      </trkpt>
      <trkpt lat="45.30898" lon="4.62449">
        <ele>675.40002441406</ele>
        <time>2019-10-30T10:18:06.000Z</time>
      </trkpt>
      <trkpt lat="45.30899" lon="4.62457">
        <ele>674.79998779297</ele>
        <time>2019-10-30T10:18:07.000Z</time>
      </trkpt>
      <trkpt lat="45.309" lon="4.62465">
        <ele>674.40002441406</ele>
        <time>2019-10-30T10:18:08.000Z</time>
      </trkpt>
      <trkpt lat="45.30901" lon="4.62473">
        <ele>673.79998779297</ele>
        <time>2019-10-30T10:18:09.000Z</time>
      </trkpt>
      <trkpt lat="45.30902" lon="4.62481">
        <ele>673.59997558594</ele>
        <time>2019-10-30T10:18:10.000Z</time>
      </trkpt>
      <trkpt lat="45.30905" lon="4.62487">
        <ele>673.40002441406</ele>
        <time>2019-10-30T10:18:11.000Z</time>
      </trkpt>
      <trkpt lat="45.30907" lon="4.62493">
        <ele>673.40002441406</ele>
        <time>2019-10-30T10:18:12.000Z</time>
      </trkpt>
      <trkpt lat="45.3091" lon="4.62498">
        <ele>673.20001220703</ele>
        <time>2019-10-30T10:18:13.000Z</time>
      </trkpt>
      <trkpt lat="45.3092" lon="4.62514">
        <ele>673.20001220703</ele>
        <time>2019-10-30T10:18:16.000Z</time>
      </trkpt>
      <trkpt lat="45.30923" lon="4.62519">
        <ele>673</ele>
        <time>2019-10-30T10:18:17.000Z</time>
      </trkpt>
      <trkpt lat="45.30927" lon="4.62523">
        <ele>673</ele>
        <time>2019-10-30T10:18:18.000Z</time>
      </trkpt>
      <trkpt lat="45.30934" lon="4.62533">
        <ele>672.79998779297</ele>
        <time>2019-10-30T10:18:20.000Z</time>
      </trkpt>
      <trkpt lat="45.30937" lon="4.62539">
        <ele>672.79998779297</ele>
        <time>2019-10-30T10:18:21.000Z</time>
      </trkpt>
      <trkpt lat="45.30939" lon="4.62545">
        <ele>672.79998779297</ele>
        <time>2019-10-30T10:18:22.000Z</time>
      </trkpt>
      <trkpt lat="45.3094" lon="4.62551">
        <ele>672.59997558594</ele>
        <time>2019-10-30T10:18:23.000Z</time>
      </trkpt>
      <trkpt lat="45.30939" lon="4.62557">
        <ele>672.40002441406</ele>
        <time>2019-10-30T10:18:24.000Z</time>
      </trkpt>
      <trkpt lat="45.30936" lon="4.62563">
        <ele>672</ele>
        <time>2019-10-30T10:18:25.000Z</time>
      </trkpt>
      <trkpt lat="45.30934" lon="4.62567">
        <ele>671.79998779297</ele>
        <time>2019-10-30T10:18:26.000Z</time>
      </trkpt>
      <trkpt lat="45.30931" lon="4.62572">
        <ele>671.59997558594</ele>
        <time>2019-10-30T10:18:27.000Z</time>
      </trkpt>
      <trkpt lat="45.30928" lon="4.62576">
        <ele>671.59997558594</ele>
        <time>2019-10-30T10:18:28.000Z</time>
      </trkpt>
      <trkpt lat="45.30926" lon="4.62581">
        <ele>671.40002441406</ele>
        <time>2019-10-30T10:18:29.000Z</time>
      </trkpt>
      <trkpt lat="45.30919" lon="4.62597">
        <ele>671.40002441406</ele>
        <time>2019-10-30T10:18:32.000Z</time>
      </trkpt>
      <trkpt lat="45.30915" lon="4.62606">
        <ele>671.40002441406</ele>
        <time>2019-10-30T10:18:34.000Z</time>
      </trkpt>
      <trkpt lat="45.30913" lon="4.62611">
        <ele>671.40002441406</ele>
        <time>2019-10-30T10:18:35.000Z</time>
      </trkpt>
      <trkpt lat="45.30911" lon="4.62615">
        <ele>671.20001220703</ele>
        <time>2019-10-30T10:18:36.000Z</time>
      </trkpt>
      <trkpt lat="45.3091" lon="4.6262">
        <ele>671.40002441406</ele>
        <time>2019-10-30T10:18:37.000Z</time>
      </trkpt>
      <trkpt lat="45.30909" lon="4.62625">
        <ele>671.40002441406</ele>
        <time>2019-10-30T10:18:38.000Z</time>
      </trkpt>
      <trkpt lat="45.30908" lon="4.62629">
        <ele>671.40002441406</ele>
        <time>2019-10-30T10:18:39.000Z</time>
      </trkpt>
      <trkpt lat="45.30907" lon="4.62633">
        <ele>671.40002441406</ele>
        <time>2019-10-30T10:18:40.000Z</time>
      </trkpt>
      <trkpt lat="45.30906" lon="4.62637">
        <ele>671.40002441406</ele>
        <time>2019-10-30T10:18:41.000Z</time>
      </trkpt>
      <trkpt lat="45.30905" lon="4.62641">
        <ele>671.59997558594</ele>
        <time>2019-10-30T10:18:42.000Z</time>
      </trkpt>
      <trkpt lat="45.30904" lon="4.62644">
        <ele>671.59997558594</ele>
        <time>2019-10-30T10:18:43.000Z</time>
      </trkpt>
      <trkpt lat="45.30904" lon="4.62647">
        <ele>671.59997558594</ele>
        <time>2019-10-30T10:18:44.000Z</time>
      </trkpt>
      <trkpt lat="45.30903" lon="4.62651">
        <ele>671.79998779297</ele>
        <time>2019-10-30T10:18:45.000Z</time>
      </trkpt>
      <trkpt lat="45.30903" lon="4.62654">
        <ele>672</ele>
        <time>2019-10-30T10:18:46.000Z</time>
      </trkpt>
      <trkpt lat="45.30902" lon="4.62656">
        <ele>672</ele>
        <time>2019-10-30T10:18:47.000Z</time>
      </trkpt>
      <trkpt lat="45.30901" lon="4.62658">
        <ele>672.20001220703</ele>
        <time>2019-10-30T10:18:48.000Z</time>
      </trkpt>
      <trkpt lat="45.30901" lon="4.62661">
        <ele>672.40002441406</ele>
        <time>2019-10-30T10:18:49.000Z</time>
      </trkpt>
      <trkpt lat="45.309" lon="4.62663">
        <ele>672.59997558594</ele>
        <time>2019-10-30T10:18:50.000Z</time>
      </trkpt>
      <trkpt lat="45.30899" lon="4.62666">
        <ele>672.79998779297</ele>
        <time>2019-10-30T10:18:51.000Z</time>
      </trkpt>
      <trkpt lat="45.30899" lon="4.62668">
        <ele>672.79998779297</ele>
        <time>2019-10-30T10:18:52.000Z</time>
      </trkpt>
      <trkpt lat="45.30899" lon="4.62671">
        <ele>673</ele>
        <time>2019-10-30T10:18:53.000Z</time>
      </trkpt>
      <trkpt lat="45.30899" lon="4.62674">
        <ele>673.20001220703</ele>
        <time>2019-10-30T10:18:54.000Z</time>
      </trkpt>
      <trkpt lat="45.30898" lon="4.62677">
        <ele>673.40002441406</ele>
        <time>2019-10-30T10:18:55.000Z</time>
      </trkpt>
      <trkpt lat="45.30898" lon="4.62679">
        <ele>674</ele>
        <time>2019-10-30T10:18:56.000Z</time>
      </trkpt>
      <trkpt lat="45.30897" lon="4.62682">
        <ele>674.20001220703</ele>
        <time>2019-10-30T10:18:57.000Z</time>
      </trkpt>
      <trkpt lat="45.30896" lon="4.62685">
        <ele>674.40002441406</ele>
        <time>2019-10-30T10:18:58.000Z</time>
      </trkpt>
      <trkpt lat="45.30896" lon="4.62688">
        <ele>674.40002441406</ele>
        <time>2019-10-30T10:18:59.000Z</time>
      </trkpt>
      <trkpt lat="45.30895" lon="4.6269">
        <ele>674.59997558594</ele>
        <time>2019-10-30T10:19:00.000Z</time>
      </trkpt>
      <trkpt lat="45.30894" lon="4.62693">
        <ele>674.79998779297</ele>
        <time>2019-10-30T10:19:01.000Z</time>
      </trkpt>
      <trkpt lat="45.30894" lon="4.62696">
        <ele>675.20001220703</ele>
        <time>2019-10-30T10:19:02.000Z</time>
      </trkpt>
      <trkpt lat="45.30893" lon="4.62699">
        <ele>675.40002441406</ele>
        <time>2019-10-30T10:19:03.000Z</time>
      </trkpt>
      <trkpt lat="45.30892" lon="4.62701">
        <ele>675.79998779297</ele>
        <time>2019-10-30T10:19:04.000Z</time>
      </trkpt>
      <trkpt lat="45.30892" lon="4.62704">
        <ele>676</ele>
        <time>2019-10-30T10:19:05.000Z</time>
      </trkpt>
      <trkpt lat="45.30891" lon="4.62707">
        <ele>676.40002441406</ele>
        <time>2019-10-30T10:19:06.000Z</time>
      </trkpt>
      <trkpt lat="45.3089" lon="4.62709">
        <ele>676.59997558594</ele>
        <time>2019-10-30T10:19:07.000Z</time>
      </trkpt>
      <trkpt lat="45.30889" lon="4.62713">
        <ele>677</ele>
        <time>2019-10-30T10:19:08.000Z</time>
      </trkpt>
      <trkpt lat="45.30888" lon="4.62715">
        <ele>677.40002441406</ele>
        <time>2019-10-30T10:19:09.000Z</time>
      </trkpt>
      <trkpt lat="45.30887" lon="4.62719">
        <ele>677.40002441406</ele>
        <time>2019-10-30T10:19:10.000Z</time>
      </trkpt>
      <trkpt lat="45.30886" lon="4.62722">
        <ele>677.59997558594</ele>
        <time>2019-10-30T10:19:11.000Z</time>
      </trkpt>
      <trkpt lat="45.30884" lon="4.62725">
        <ele>677.79998779297</ele>
        <time>2019-10-30T10:19:12.000Z</time>
      </trkpt>
      <trkpt lat="45.30884" lon="4.62729">
        <ele>677.79998779297</ele>
        <time>2019-10-30T10:19:13.000Z</time>
      </trkpt>
      <trkpt lat="45.30882" lon="4.62732">
        <ele>678.20001220703</ele>
        <time>2019-10-30T10:19:14.000Z</time>
      </trkpt>
      <trkpt lat="45.30881" lon="4.62736">
        <ele>678.20001220703</ele>
        <time>2019-10-30T10:19:15.000Z</time>
      </trkpt>
      <trkpt lat="45.30879" lon="4.62743">
        <ele>678.40002441406</ele>
        <time>2019-10-30T10:19:17.000Z</time>
      </trkpt>
      <trkpt lat="45.30877" lon="4.62747">
        <ele>678.59997558594</ele>
        <time>2019-10-30T10:19:18.000Z</time>
      </trkpt>
      <trkpt lat="45.30876" lon="4.6275">
        <ele>678.79998779297</ele>
        <time>2019-10-30T10:19:19.000Z</time>
      </trkpt>
      <trkpt lat="45.30875" lon="4.62753">
        <ele>678.79998779297</ele>
        <time>2019-10-30T10:19:20.000Z</time>
      </trkpt>
      <trkpt lat="45.30875" lon="4.62756">
        <ele>679</ele>
        <time>2019-10-30T10:19:21.000Z</time>
      </trkpt>
      <trkpt lat="45.30874" lon="4.6276">
        <ele>679</ele>
        <time>2019-10-30T10:19:22.000Z</time>
      </trkpt>
      <trkpt lat="45.30871" lon="4.62773">
        <ele>679.20001220703</ele>
        <time>2019-10-30T10:19:25.000Z</time>
      </trkpt>
      <trkpt lat="45.3087" lon="4.62778">
        <ele>679</ele>
        <time>2019-10-30T10:19:26.000Z</time>
      </trkpt>
      <trkpt lat="45.30867" lon="4.62782">
        <ele>679</ele>
        <time>2019-10-30T10:19:27.000Z</time>
      </trkpt>
      <trkpt lat="45.30864" lon="4.62786">
        <ele>679.20001220703</ele>
        <time>2019-10-30T10:19:28.000Z</time>
      </trkpt>
      <trkpt lat="45.3086" lon="4.6279">
        <ele>679.20001220703</ele>
        <time>2019-10-30T10:19:29.000Z</time>
      </trkpt>
      <trkpt lat="45.30847" lon="4.62801">
        <ele>678.59997558594</ele>
        <time>2019-10-30T10:19:32.000Z</time>
      </trkpt>
      <trkpt lat="45.30844" lon="4.62805">
        <ele>678.40002441406</ele>
        <time>2019-10-30T10:19:33.000Z</time>
      </trkpt>
      <trkpt lat="45.3084" lon="4.62808">
        <ele>678.20001220703</ele>
        <time>2019-10-30T10:19:34.000Z</time>
      </trkpt>
      <trkpt lat="45.30837" lon="4.62812">
        <ele>678</ele>
        <time>2019-10-30T10:19:35.000Z</time>
      </trkpt>
      <trkpt lat="45.30834" lon="4.62814">
        <ele>678</ele>
        <time>2019-10-30T10:19:36.000Z</time>
      </trkpt>
      <trkpt lat="45.30831" lon="4.62816">
        <ele>677.40002441406</ele>
        <time>2019-10-30T10:19:37.000Z</time>
      </trkpt>
      <trkpt lat="45.30828" lon="4.62818">
        <ele>677.20001220703</ele>
        <time>2019-10-30T10:19:38.000Z</time>
      </trkpt>
      <trkpt lat="45.30825" lon="4.6282">
        <ele>677</ele>
        <time>2019-10-30T10:19:39.000Z</time>
      </trkpt>
      <trkpt lat="45.30823" lon="4.62822">
        <ele>676.79998779297</ele>
        <time>2019-10-30T10:19:40.000Z</time>
      </trkpt>
      <trkpt lat="45.3082" lon="4.62823">
        <ele>676.79998779297</ele>
        <time>2019-10-30T10:19:41.000Z</time>
      </trkpt>
      <trkpt lat="45.30817" lon="4.62825">
        <ele>676.79998779297</ele>
        <time>2019-10-30T10:19:42.000Z</time>
      </trkpt>
      <trkpt lat="45.30814" lon="4.62826">
        <ele>676.79998779297</ele>
        <time>2019-10-30T10:19:43.000Z</time>
      </trkpt>
      <trkpt lat="45.30811" lon="4.62828">
        <ele>676.79998779297</ele>
        <time>2019-10-30T10:19:44.000Z</time>
      </trkpt>
      <trkpt lat="45.30808" lon="4.62829">
        <ele>677</ele>
        <time>2019-10-30T10:19:45.000Z</time>
      </trkpt>
      <trkpt lat="45.30804" lon="4.62831">
        <ele>677</ele>
        <time>2019-10-30T10:19:46.000Z</time>
      </trkpt>
      <trkpt lat="45.30801" lon="4.62833">
        <ele>676.79998779297</ele>
        <time>2019-10-30T10:19:47.000Z</time>
      </trkpt>
      <trkpt lat="45.30798" lon="4.62835">
        <ele>677</ele>
        <time>2019-10-30T10:19:48.000Z</time>
      </trkpt>
      <trkpt lat="45.30795" lon="4.62837">
        <ele>677.20001220703</ele>
        <time>2019-10-30T10:19:49.000Z</time>
      </trkpt>
      <trkpt lat="45.30792" lon="4.62839">
        <ele>677.40002441406</ele>
        <time>2019-10-30T10:19:50.000Z</time>
      </trkpt>
      <trkpt lat="45.30789" lon="4.62841">
        <ele>677.59997558594</ele>
        <time>2019-10-30T10:19:51.000Z</time>
      </trkpt>
      <trkpt lat="45.30786" lon="4.62843">
        <ele>677.59997558594</ele>
        <time>2019-10-30T10:19:52.000Z</time>
      </trkpt>
      <trkpt lat="45.30784" lon="4.62845">
        <ele>678</ele>
        <time>2019-10-30T10:19:53.000Z</time>
      </trkpt>
      <trkpt lat="45.30781" lon="4.62848">
        <ele>678.20001220703</ele>
        <time>2019-10-30T10:19:54.000Z</time>
      </trkpt>
      <trkpt lat="45.30779" lon="4.6285">
        <ele>678.40002441406</ele>
        <time>2019-10-30T10:19:55.000Z</time>
      </trkpt>
      <trkpt lat="45.30777" lon="4.62853">
        <ele>678.59997558594</ele>
        <time>2019-10-30T10:19:56.000Z</time>
      </trkpt>
      <trkpt lat="45.30774" lon="4.62856">
        <ele>678.79998779297</ele>
        <time>2019-10-30T10:19:57.000Z</time>
      </trkpt>
      <trkpt lat="45.30772" lon="4.62858">
        <ele>679</ele>
        <time>2019-10-30T10:19:58.000Z</time>
      </trkpt>
      <trkpt lat="45.3077" lon="4.62861">
        <ele>679.20001220703</ele>
        <time>2019-10-30T10:19:59.000Z</time>
      </trkpt>
      <trkpt lat="45.30768" lon="4.62863">
        <ele>679.59997558594</ele>
        <time>2019-10-30T10:20:00.000Z</time>
      </trkpt>
      <trkpt lat="45.30766" lon="4.62866">
        <ele>679.79998779297</ele>
        <time>2019-10-30T10:20:01.000Z</time>
      </trkpt>
      <trkpt lat="45.30764" lon="4.62869">
        <ele>679.79998779297</ele>
        <time>2019-10-30T10:20:02.000Z</time>
      </trkpt>
      <trkpt lat="45.30762" lon="4.62872">
        <ele>680.20001220703</ele>
        <time>2019-10-30T10:20:03.000Z</time>
      </trkpt>
      <trkpt lat="45.3076" lon="4.62874">
        <ele>680.40002441406</ele>
        <time>2019-10-30T10:20:04.000Z</time>
      </trkpt>
      <trkpt lat="45.30758" lon="4.62877">
        <ele>680.40002441406</ele>
        <time>2019-10-30T10:20:05.000Z</time>
      </trkpt>
      <trkpt lat="45.30756" lon="4.6288">
        <ele>680.59997558594</ele>
        <time>2019-10-30T10:20:06.000Z</time>
      </trkpt>
      <trkpt lat="45.30754" lon="4.62883">
        <ele>680.59997558594</ele>
        <time>2019-10-30T10:20:07.000Z</time>
      </trkpt>
      <trkpt lat="45.30752" lon="4.62886">
        <ele>680.79998779297</ele>
        <time>2019-10-30T10:20:08.000Z</time>
      </trkpt>
      <trkpt lat="45.30751" lon="4.62889">
        <ele>681</ele>
        <time>2019-10-30T10:20:09.000Z</time>
      </trkpt>
      <trkpt lat="45.30749" lon="4.62892">
        <ele>681.40002441406</ele>
        <time>2019-10-30T10:20:10.000Z</time>
      </trkpt>
      <trkpt lat="45.30748" lon="4.62895">
        <ele>681.79998779297</ele>
        <time>2019-10-30T10:20:11.000Z</time>
      </trkpt>
      <trkpt lat="45.30746" lon="4.62898">
        <ele>682.20001220703</ele>
        <time>2019-10-30T10:20:12.000Z</time>
      </trkpt>
      <trkpt lat="45.30745" lon="4.62901">
        <ele>682.20001220703</ele>
        <time>2019-10-30T10:20:13.000Z</time>
      </trkpt>
      <trkpt lat="45.30744" lon="4.62904">
        <ele>682.59997558594</ele>
        <time>2019-10-30T10:20:14.000Z</time>
      </trkpt>
      <trkpt lat="45.30743" lon="4.62906">
        <ele>682.79998779297</ele>
        <time>2019-10-30T10:20:15.000Z</time>
      </trkpt>
      <trkpt lat="45.30742" lon="4.62909">
        <ele>682.79998779297</ele>
        <time>2019-10-30T10:20:16.000Z</time>
      </trkpt>
      <trkpt lat="45.30741" lon="4.62912">
        <ele>683</ele>
        <time>2019-10-30T10:20:17.000Z</time>
      </trkpt>
      <trkpt lat="45.30741" lon="4.62914">
        <ele>683.20001220703</ele>
        <time>2019-10-30T10:20:18.000Z</time>
      </trkpt>
      <trkpt lat="45.30739" lon="4.62917">
        <ele>683.20001220703</ele>
        <time>2019-10-30T10:20:19.000Z</time>
      </trkpt>
      <trkpt lat="45.30738" lon="4.62919">
        <ele>683.40002441406</ele>
        <time>2019-10-30T10:20:20.000Z</time>
      </trkpt>
      <trkpt lat="45.30736" lon="4.62921">
        <ele>683.59997558594</ele>
        <time>2019-10-30T10:20:21.000Z</time>
      </trkpt>
      <trkpt lat="45.30735" lon="4.62924">
        <ele>683.79998779297</ele>
        <time>2019-10-30T10:20:22.000Z</time>
      </trkpt>
      <trkpt lat="45.30733" lon="4.62926">
        <ele>684.20001220703</ele>
        <time>2019-10-30T10:20:23.000Z</time>
      </trkpt>
      <trkpt lat="45.3073" lon="4.62928">
        <ele>684.40002441406</ele>
        <time>2019-10-30T10:20:24.000Z</time>
      </trkpt>
      <trkpt lat="45.30728" lon="4.6293">
        <ele>684.40002441406</ele>
        <time>2019-10-30T10:20:25.000Z</time>
      </trkpt>
      <trkpt lat="45.30725" lon="4.62933">
        <ele>684.40002441406</ele>
        <time>2019-10-30T10:20:26.000Z</time>
      </trkpt>
      <trkpt lat="45.30717" lon="4.62939">
        <ele>684.59997558594</ele>
        <time>2019-10-30T10:20:28.000Z</time>
      </trkpt>
      <trkpt lat="45.30704" lon="4.62955">
        <ele>684.40002441406</ele>
        <time>2019-10-30T10:20:31.000Z</time>
      </trkpt>
      <trkpt lat="45.30697" lon="4.62967">
        <ele>684</ele>
        <time>2019-10-30T10:20:33.000Z</time>
      </trkpt>
      <trkpt lat="45.30693" lon="4.62975">
        <ele>683.59997558594</ele>
        <time>2019-10-30T10:20:34.000Z</time>
      </trkpt>
      <trkpt lat="45.30691" lon="4.62983">
        <ele>683.40002441406</ele>
        <time>2019-10-30T10:20:35.000Z</time>
      </trkpt>
      <trkpt lat="45.30684" lon="4.63002">
        <ele>682.40002441406</ele>
        <time>2019-10-30T10:20:37.000Z</time>
      </trkpt>
      <trkpt lat="45.30681" lon="4.63011">
        <ele>682</ele>
        <time>2019-10-30T10:20:38.000Z</time>
      </trkpt>
      <trkpt lat="45.30678" lon="4.63022">
        <ele>681.20001220703</ele>
        <time>2019-10-30T10:20:39.000Z</time>
      </trkpt>
      <trkpt lat="45.30671" lon="4.63044">
        <ele>680.79998779297</ele>
        <time>2019-10-30T10:20:41.000Z</time>
      </trkpt>
      <trkpt lat="45.30667" lon="4.63055">
        <ele>680.20001220703</ele>
        <time>2019-10-30T10:20:42.000Z</time>
      </trkpt>
      <trkpt lat="45.30662" lon="4.63067">
        <ele>679</ele>
        <time>2019-10-30T10:20:43.000Z</time>
      </trkpt>
      <trkpt lat="45.30657" lon="4.63078">
        <ele>678.20001220703</ele>
        <time>2019-10-30T10:20:44.000Z</time>
      </trkpt>
      <trkpt lat="45.30647" lon="4.63102">
        <ele>676.20001220703</ele>
        <time>2019-10-30T10:20:46.000Z</time>
      </trkpt>
      <trkpt lat="45.30642" lon="4.63114">
        <ele>674.79998779297</ele>
        <time>2019-10-30T10:20:47.000Z</time>
      </trkpt>
      <trkpt lat="45.30637" lon="4.63125">
        <ele>673.20001220703</ele>
        <time>2019-10-30T10:20:48.000Z</time>
      </trkpt>
      <trkpt lat="45.30632" lon="4.63136">
        <ele>671.59997558594</ele>
        <time>2019-10-30T10:20:49.000Z</time>
      </trkpt>
      <trkpt lat="45.30628" lon="4.63147">
        <ele>670</ele>
        <time>2019-10-30T10:20:50.000Z</time>
      </trkpt>
      <trkpt lat="45.30624" lon="4.63157">
        <ele>669</ele>
        <time>2019-10-30T10:20:51.000Z</time>
      </trkpt>
      <trkpt lat="45.3062" lon="4.63166">
        <ele>669</ele>
        <time>2019-10-30T10:20:52.000Z</time>
      </trkpt>
      <trkpt lat="45.30616" lon="4.63174">
        <ele>667.79998779297</ele>
        <time>2019-10-30T10:20:53.000Z</time>
      </trkpt>
      <trkpt lat="45.30612" lon="4.6318">
        <ele>666.20001220703</ele>
        <time>2019-10-30T10:20:54.000Z</time>
      </trkpt>
      <trkpt lat="45.30607" lon="4.63185">
        <ele>665</ele>
        <time>2019-10-30T10:20:55.000Z</time>
      </trkpt>
      <trkpt lat="45.30602" lon="4.6319">
        <ele>664.20001220703</ele>
        <time>2019-10-30T10:20:56.000Z</time>
      </trkpt>
      <trkpt lat="45.30597" lon="4.63193">
        <ele>663.40002441406</ele>
        <time>2019-10-30T10:20:57.000Z</time>
      </trkpt>
      <trkpt lat="45.30591" lon="4.63195">
        <ele>662.79998779297</ele>
        <time>2019-10-30T10:20:58.000Z</time>
      </trkpt>
      <trkpt lat="45.30584" lon="4.63197">
        <ele>662.20001220703</ele>
        <time>2019-10-30T10:20:59.000Z</time>
      </trkpt>
      <trkpt lat="45.30578" lon="4.632">
        <ele>661.79998779297</ele>
        <time>2019-10-30T10:21:00.000Z</time>
      </trkpt>
      <trkpt lat="45.30565" lon="4.63205">
        <ele>661.20001220703</ele>
        <time>2019-10-30T10:21:02.000Z</time>
      </trkpt>
      <trkpt lat="45.30559" lon="4.63208">
        <ele>660.79998779297</ele>
        <time>2019-10-30T10:21:03.000Z</time>
      </trkpt>
      <trkpt lat="45.30553" lon="4.6321">
        <ele>660</ele>
        <time>2019-10-30T10:21:04.000Z</time>
      </trkpt>
      <trkpt lat="45.30547" lon="4.63214">
        <ele>659.59997558594</ele>
        <time>2019-10-30T10:21:05.000Z</time>
      </trkpt>
      <trkpt lat="45.30541" lon="4.63217">
        <ele>659.20001220703</ele>
        <time>2019-10-30T10:21:06.000Z</time>
      </trkpt>
      <trkpt lat="45.30534" lon="4.63221">
        <ele>658.79998779297</ele>
        <time>2019-10-30T10:21:07.000Z</time>
      </trkpt>
      <trkpt lat="45.30526" lon="4.63224">
        <ele>658.59997558594</ele>
        <time>2019-10-30T10:21:08.000Z</time>
      </trkpt>
      <trkpt lat="45.30519" lon="4.63227">
        <ele>657</ele>
        <time>2019-10-30T10:21:09.000Z</time>
      </trkpt>
      <trkpt lat="45.30512" lon="4.63228">
        <ele>656</ele>
        <time>2019-10-30T10:21:10.000Z</time>
      </trkpt>
      <trkpt lat="45.30506" lon="4.6323">
        <ele>655.40002441406</ele>
        <time>2019-10-30T10:21:11.000Z</time>
      </trkpt>
      <trkpt lat="45.305" lon="4.63232">
        <ele>655</ele>
        <time>2019-10-30T10:21:12.000Z</time>
      </trkpt>
      <trkpt lat="45.30493" lon="4.63233">
        <ele>654.59997558594</ele>
        <time>2019-10-30T10:21:13.000Z</time>
      </trkpt>
      <trkpt lat="45.30485" lon="4.63236">
        <ele>654</ele>
        <time>2019-10-30T10:21:14.000Z</time>
      </trkpt>
      <trkpt lat="45.30477" lon="4.63238">
        <ele>653.20001220703</ele>
        <time>2019-10-30T10:21:15.000Z</time>
      </trkpt>
      <trkpt lat="45.30459" lon="4.63241">
        <ele>650.79998779297</ele>
        <time>2019-10-30T10:21:17.000Z</time>
      </trkpt>
      <trkpt lat="45.3044" lon="4.63243">
        <ele>650.40002441406</ele>
        <time>2019-10-30T10:21:19.000Z</time>
      </trkpt>
      <trkpt lat="45.30429" lon="4.63245">
        <ele>649.79998779297</ele>
        <time>2019-10-30T10:21:20.000Z</time>
      </trkpt>
      <trkpt lat="45.30418" lon="4.63247">
        <ele>649.40002441406</ele>
        <time>2019-10-30T10:21:21.000Z</time>
      </trkpt>
      <trkpt lat="45.30407" lon="4.63249">
        <ele>648.79998779297</ele>
        <time>2019-10-30T10:21:22.000Z</time>
      </trkpt>
      <trkpt lat="45.30396" lon="4.63252">
        <ele>647.40002441406</ele>
        <time>2019-10-30T10:21:23.000Z</time>
      </trkpt>
      <trkpt lat="45.30386" lon="4.63255">
        <ele>646.20001220703</ele>
        <time>2019-10-30T10:21:24.000Z</time>
      </trkpt>
      <trkpt lat="45.30377" lon="4.63258">
        <ele>643.59997558594</ele>
        <time>2019-10-30T10:21:25.000Z</time>
      </trkpt>
      <trkpt lat="45.30368" lon="4.63261">
        <ele>642.20001220703</ele>
        <time>2019-10-30T10:21:26.000Z</time>
      </trkpt>
      <trkpt lat="45.30358" lon="4.63263">
        <ele>640.79998779297</ele>
        <time>2019-10-30T10:21:27.000Z</time>
      </trkpt>
      <trkpt lat="45.30337" lon="4.63268">
        <ele>637.59997558594</ele>
        <time>2019-10-30T10:21:29.000Z</time>
      </trkpt>
      <trkpt lat="45.30327" lon="4.63272">
        <ele>635.79998779297</ele>
        <time>2019-10-30T10:21:30.000Z</time>
      </trkpt>
      <trkpt lat="45.30317" lon="4.63279">
        <ele>634.59997558594</ele>
        <time>2019-10-30T10:21:31.000Z</time>
      </trkpt>
      <trkpt lat="45.30308" lon="4.63286">
        <ele>633.40002441406</ele>
        <time>2019-10-30T10:21:32.000Z</time>
      </trkpt>
      <trkpt lat="45.30299" lon="4.63293">
        <ele>632.20001220703</ele>
        <time>2019-10-30T10:21:33.000Z</time>
      </trkpt>
      <trkpt lat="45.30291" lon="4.633">
        <ele>631.79998779297</ele>
        <time>2019-10-30T10:21:34.000Z</time>
      </trkpt>
      <trkpt lat="45.30282" lon="4.63306">
        <ele>631</ele>
        <time>2019-10-30T10:21:35.000Z</time>
      </trkpt>
      <trkpt lat="45.30274" lon="4.63311">
        <ele>629.20001220703</ele>
        <time>2019-10-30T10:21:36.000Z</time>
      </trkpt>
      <trkpt lat="45.30255" lon="4.63321">
        <ele>626.20001220703</ele>
        <time>2019-10-30T10:21:38.000Z</time>
      </trkpt>
      <trkpt lat="45.30234" lon="4.6333">
        <ele>624.20001220703</ele>
        <time>2019-10-30T10:21:40.000Z</time>
      </trkpt>
      <trkpt lat="45.30224" lon="4.63335">
        <ele>623.40002441406</ele>
        <time>2019-10-30T10:21:41.000Z</time>
      </trkpt>
      <trkpt lat="45.30203" lon="4.63349">
        <ele>622</ele>
        <time>2019-10-30T10:21:43.000Z</time>
      </trkpt>
      <trkpt lat="45.30182" lon="4.63362">
        <ele>621.40002441406</ele>
        <time>2019-10-30T10:21:45.000Z</time>
      </trkpt>
      <trkpt lat="45.30171" lon="4.63368">
        <ele>620.20001220703</ele>
        <time>2019-10-30T10:21:46.000Z</time>
      </trkpt>
      <trkpt lat="45.30148" lon="4.63379">
        <ele>618.20001220703</ele>
        <time>2019-10-30T10:21:48.000Z</time>
      </trkpt>
      <trkpt lat="45.30138" lon="4.63384">
        <ele>617</ele>
        <time>2019-10-30T10:21:49.000Z</time>
      </trkpt>
      <trkpt lat="45.30127" lon="4.63388">
        <ele>616.20001220703</ele>
        <time>2019-10-30T10:21:50.000Z</time>
      </trkpt>
      <trkpt lat="45.30118" lon="4.63391">
        <ele>614.59997558594</ele>
        <time>2019-10-30T10:21:51.000Z</time>
      </trkpt>
      <trkpt lat="45.30109" lon="4.63393">
        <ele>613.40002441406</ele>
        <time>2019-10-30T10:21:52.000Z</time>
      </trkpt>
      <trkpt lat="45.301" lon="4.63394">
        <ele>612.59997558594</ele>
        <time>2019-10-30T10:21:53.000Z</time>
      </trkpt>
      <trkpt lat="45.30091" lon="4.63395">
        <ele>611.40002441406</ele>
        <time>2019-10-30T10:21:54.000Z</time>
      </trkpt>
      <trkpt lat="45.30082" lon="4.63396">
        <ele>609.79998779297</ele>
        <time>2019-10-30T10:21:55.000Z</time>
      </trkpt>
      <trkpt lat="45.30074" lon="4.63395">
        <ele>608.79998779297</ele>
        <time>2019-10-30T10:21:56.000Z</time>
      </trkpt>
      <trkpt lat="45.30065" lon="4.63395">
        <ele>607.79998779297</ele>
        <time>2019-10-30T10:21:57.000Z</time>
      </trkpt>
      <trkpt lat="45.30057" lon="4.63394">
        <ele>607.20001220703</ele>
        <time>2019-10-30T10:21:58.000Z</time>
      </trkpt>
      <trkpt lat="45.3005" lon="4.63393">
        <ele>607</ele>
        <time>2019-10-30T10:21:59.000Z</time>
      </trkpt>
      <trkpt lat="45.30044" lon="4.63392">
        <ele>606.79998779297</ele>
        <time>2019-10-30T10:22:00.000Z</time>
      </trkpt>
      <trkpt lat="45.30038" lon="4.63391">
        <ele>606.59997558594</ele>
        <time>2019-10-30T10:22:01.000Z</time>
      </trkpt>
      <trkpt lat="45.30032" lon="4.63391">
        <ele>606.59997558594</ele>
        <time>2019-10-30T10:22:02.000Z</time>
      </trkpt>
      <trkpt lat="45.30026" lon="4.63392">
        <ele>606.40002441406</ele>
        <time>2019-10-30T10:22:03.000Z</time>
      </trkpt>
      <trkpt lat="45.3002" lon="4.63393">
        <ele>606</ele>
        <time>2019-10-30T10:22:04.000Z</time>
      </trkpt>
      <trkpt lat="45.30015" lon="4.63395">
        <ele>605.40002441406</ele>
        <time>2019-10-30T10:22:05.000Z</time>
      </trkpt>
      <trkpt lat="45.30009" lon="4.63397">
        <ele>605</ele>
        <time>2019-10-30T10:22:06.000Z</time>
      </trkpt>
      <trkpt lat="45.30004" lon="4.63399">
        <ele>605</ele>
        <time>2019-10-30T10:22:07.000Z</time>
      </trkpt>
      <trkpt lat="45.29999" lon="4.63401">
        <ele>604.59997558594</ele>
        <time>2019-10-30T10:22:08.000Z</time>
      </trkpt>
      <trkpt lat="45.29994" lon="4.63401">
        <ele>604.40002441406</ele>
        <time>2019-10-30T10:22:09.000Z</time>
      </trkpt>
      <trkpt lat="45.2999" lon="4.63401">
        <ele>604.40002441406</ele>
        <time>2019-10-30T10:22:10.000Z</time>
      </trkpt>
      <trkpt lat="45.29986" lon="4.634">
        <ele>604.40002441406</ele>
        <time>2019-10-30T10:22:11.000Z</time>
      </trkpt>
      <trkpt lat="45.29983" lon="4.63398">
        <ele>604</ele>
        <time>2019-10-30T10:22:12.000Z</time>
      </trkpt>
      <trkpt lat="45.29981" lon="4.63397">
        <ele>603.59997558594</ele>
        <time>2019-10-30T10:22:13.000Z</time>
      </trkpt>
      <trkpt lat="45.29979" lon="4.63397">
        <ele>602.79998779297</ele>
        <time>2019-10-30T10:22:14.000Z</time>
      </trkpt>
      <trkpt lat="45.29977" lon="4.63399">
        <ele>602.40002441406</ele>
        <time>2019-10-30T10:22:15.000Z</time>
      </trkpt>
      <trkpt lat="45.29976" lon="4.63406">
        <ele>600.79998779297</ele>
        <time>2019-10-30T10:22:17.000Z</time>
      </trkpt>
      <trkpt lat="45.29976" lon="4.63411">
        <ele>600</ele>
        <time>2019-10-30T10:22:18.000Z</time>
      </trkpt>
      <trkpt lat="45.29976" lon="4.63421">
        <ele>598.40002441406</ele>
        <time>2019-10-30T10:22:20.000Z</time>
      </trkpt>
      <trkpt lat="45.29976" lon="4.63439">
        <ele>597.40002441406</ele>
        <time>2019-10-30T10:22:23.000Z</time>
      </trkpt>
      <trkpt lat="45.29976" lon="4.63446">
        <ele>597</ele>
        <time>2019-10-30T10:22:24.000Z</time>
      </trkpt>
      <trkpt lat="45.29978" lon="4.63471">
        <ele>596.20001220703</ele>
        <time>2019-10-30T10:22:28.000Z</time>
      </trkpt>
      <trkpt lat="45.29978" lon="4.63477">
        <ele>595.79998779297</ele>
        <time>2019-10-30T10:22:29.000Z</time>
      </trkpt>
      <trkpt lat="45.29979" lon="4.63482">
        <ele>595.40002441406</ele>
        <time>2019-10-30T10:22:30.000Z</time>
      </trkpt>
      <trkpt lat="45.29979" lon="4.63487">
        <ele>595.20001220703</ele>
        <time>2019-10-30T10:22:31.000Z</time>
      </trkpt>
      <trkpt lat="45.2998" lon="4.63491">
        <ele>595</ele>
        <time>2019-10-30T10:22:32.000Z</time>
      </trkpt>
      <trkpt lat="45.29981" lon="4.63495">
        <ele>595</ele>
        <time>2019-10-30T10:22:33.000Z</time>
      </trkpt>
      <trkpt lat="45.29981" lon="4.63499">
        <ele>594.79998779297</ele>
        <time>2019-10-30T10:22:34.000Z</time>
      </trkpt>
      <trkpt lat="45.29982" lon="4.63504">
        <ele>594.79998779297</ele>
        <time>2019-10-30T10:22:35.000Z</time>
      </trkpt>
      <trkpt lat="45.29985" lon="4.63518">
        <ele>594.59997558594</ele>
        <time>2019-10-30T10:22:38.000Z</time>
      </trkpt>
      <trkpt lat="45.29986" lon="4.63523">
        <ele>594.79998779297</ele>
        <time>2019-10-30T10:22:39.000Z</time>
      </trkpt>
      <trkpt lat="45.29985" lon="4.63527">
        <ele>594.59997558594</ele>
        <time>2019-10-30T10:22:40.000Z</time>
      </trkpt>
      <trkpt lat="45.29983" lon="4.63531">
        <ele>594.59997558594</ele>
        <time>2019-10-30T10:22:41.000Z</time>
      </trkpt>
      <trkpt lat="45.2998" lon="4.63533">
        <ele>594.40002441406</ele>
        <time>2019-10-30T10:22:42.000Z</time>
      </trkpt>
      <trkpt lat="45.29976" lon="4.63535">
        <ele>594.40002441406</ele>
        <time>2019-10-30T10:22:43.000Z</time>
      </trkpt>
      <trkpt lat="45.29972" lon="4.63537">
        <ele>594.40002441406</ele>
        <time>2019-10-30T10:22:44.000Z</time>
      </trkpt>
      <trkpt lat="45.29956" lon="4.63545">
        <ele>594.20001220703</ele>
        <time>2019-10-30T10:22:47.000Z</time>
      </trkpt>
      <trkpt lat="45.2995" lon="4.63549">
        <ele>594.40002441406</ele>
        <time>2019-10-30T10:22:48.000Z</time>
      </trkpt>
      <trkpt lat="45.29929" lon="4.63559">
        <ele>594</ele>
        <time>2019-10-30T10:22:51.000Z</time>
      </trkpt>
      <trkpt lat="45.29914" lon="4.63567">
        <ele>591.79998779297</ele>
        <time>2019-10-30T10:22:53.000Z</time>
      </trkpt>
      <trkpt lat="45.29899" lon="4.63577">
        <ele>590.79998779297</ele>
        <time>2019-10-30T10:22:55.000Z</time>
      </trkpt>
      <trkpt lat="45.29891" lon="4.63582">
        <ele>590.20001220703</ele>
        <time>2019-10-30T10:22:56.000Z</time>
      </trkpt>
      <trkpt lat="45.29883" lon="4.63588">
        <ele>589</ele>
        <time>2019-10-30T10:22:57.000Z</time>
      </trkpt>
      <trkpt lat="45.29866" lon="4.636">
        <ele>587.79998779297</ele>
        <time>2019-10-30T10:22:59.000Z</time>
      </trkpt>
      <trkpt lat="45.29844" lon="4.63619">
        <ele>586.79998779297</ele>
        <time>2019-10-30T10:23:02.000Z</time>
      </trkpt>
      <trkpt lat="45.29839" lon="4.63623">
        <ele>586</ele>
        <time>2019-10-30T10:23:03.000Z</time>
      </trkpt>
      <trkpt lat="45.29834" lon="4.63627">
        <ele>585.40002441406</ele>
        <time>2019-10-30T10:23:04.000Z</time>
      </trkpt>
      <trkpt lat="45.29829" lon="4.63631">
        <ele>584.79998779297</ele>
        <time>2019-10-30T10:23:05.000Z</time>
      </trkpt>
      <trkpt lat="45.29824" lon="4.63635">
        <ele>583.59997558594</ele>
        <time>2019-10-30T10:23:06.000Z</time>
      </trkpt>
      <trkpt lat="45.29819" lon="4.63638">
        <ele>582.40002441406</ele>
        <time>2019-10-30T10:23:07.000Z</time>
      </trkpt>
      <trkpt lat="45.29814" lon="4.63642">
        <ele>581.40002441406</ele>
        <time>2019-10-30T10:23:08.000Z</time>
      </trkpt>
      <trkpt lat="45.29809" lon="4.63645">
        <ele>580.79998779297</ele>
        <time>2019-10-30T10:23:09.000Z</time>
      </trkpt>
      <trkpt lat="45.29791" lon="4.63657">
        <ele>579.79998779297</ele>
        <time>2019-10-30T10:23:12.000Z</time>
      </trkpt>
      <trkpt lat="45.29786" lon="4.63661">
        <ele>579.59997558594</ele>
        <time>2019-10-30T10:23:13.000Z</time>
      </trkpt>
      <trkpt lat="45.2978" lon="4.63664">
        <ele>579.59997558594</ele>
        <time>2019-10-30T10:23:14.000Z</time>
      </trkpt>
      <trkpt lat="45.29775" lon="4.63668">
        <ele>579.40002441406</ele>
        <time>2019-10-30T10:23:15.000Z</time>
      </trkpt>
      <trkpt lat="45.2977" lon="4.63672">
        <ele>579.20001220703</ele>
        <time>2019-10-30T10:23:16.000Z</time>
      </trkpt>
      <trkpt lat="45.29765" lon="4.63676">
        <ele>579.20001220703</ele>
        <time>2019-10-30T10:23:17.000Z</time>
      </trkpt>
      <trkpt lat="45.2976" lon="4.6368">
        <ele>578.59997558594</ele>
        <time>2019-10-30T10:23:18.000Z</time>
      </trkpt>
      <trkpt lat="45.29755" lon="4.63684">
        <ele>578.40002441406</ele>
        <time>2019-10-30T10:23:19.000Z</time>
      </trkpt>
      <trkpt lat="45.2975" lon="4.63688">
        <ele>577.59997558594</ele>
        <time>2019-10-30T10:23:20.000Z</time>
      </trkpt>
      <trkpt lat="45.29745" lon="4.63692">
        <ele>577.20001220703</ele>
        <time>2019-10-30T10:23:21.000Z</time>
      </trkpt>
      <trkpt lat="45.2974" lon="4.63695">
        <ele>576.79998779297</ele>
        <time>2019-10-30T10:23:22.000Z</time>
      </trkpt>
      <trkpt lat="45.29735" lon="4.63698">
        <ele>576.40002441406</ele>
        <time>2019-10-30T10:23:23.000Z</time>
      </trkpt>
      <trkpt lat="45.2973" lon="4.63701">
        <ele>576</ele>
        <time>2019-10-30T10:23:24.000Z</time>
      </trkpt>
      <trkpt lat="45.29724" lon="4.63705">
        <ele>575.59997558594</ele>
        <time>2019-10-30T10:23:25.000Z</time>
      </trkpt>
      <trkpt lat="45.29719" lon="4.63708">
        <ele>575.40002441406</ele>
        <time>2019-10-30T10:23:26.000Z</time>
      </trkpt>
      <trkpt lat="45.29714" lon="4.63712">
        <ele>575</ele>
        <time>2019-10-30T10:23:27.000Z</time>
      </trkpt>
      <trkpt lat="45.2971" lon="4.63716">
        <ele>575</ele>
        <time>2019-10-30T10:23:28.000Z</time>
      </trkpt>
      <trkpt lat="45.29705" lon="4.6372">
        <ele>574.40002441406</ele>
        <time>2019-10-30T10:23:29.000Z</time>
      </trkpt>
      <trkpt lat="45.29701" lon="4.63724">
        <ele>574</ele>
        <time>2019-10-30T10:23:30.000Z</time>
      </trkpt>
      <trkpt lat="45.29699" lon="4.63728">
        <ele>573.59997558594</ele>
        <time>2019-10-30T10:23:31.000Z</time>
      </trkpt>
      <trkpt lat="45.29698" lon="4.63731">
        <ele>573.40002441406</ele>
        <time>2019-10-30T10:23:32.000Z</time>
      </trkpt>
      <trkpt lat="45.29699" lon="4.63734">
        <ele>573.20001220703</ele>
        <time>2019-10-30T10:23:33.000Z</time>
      </trkpt>
      <trkpt lat="45.297" lon="4.63736">
        <ele>572.79998779297</ele>
        <time>2019-10-30T10:23:34.000Z</time>
      </trkpt>
      <trkpt lat="45.29701" lon="4.63737">
        <ele>572.79998779297</ele>
        <time>2019-10-30T10:23:35.000Z</time>
      </trkpt>
      <trkpt lat="45.29702" lon="4.63739">
        <ele>572.59997558594</ele>
        <time>2019-10-30T10:23:36.000Z</time>
      </trkpt>
      <trkpt lat="45.29704" lon="4.6374">
        <ele>572.40002441406</ele>
        <time>2019-10-30T10:23:37.000Z</time>
      </trkpt>
      <trkpt lat="45.29705" lon="4.63742">
        <ele>572.20001220703</ele>
        <time>2019-10-30T10:23:38.000Z</time>
      </trkpt>
      <trkpt lat="45.29707" lon="4.63744">
        <ele>572.20001220703</ele>
        <time>2019-10-30T10:23:39.000Z</time>
      </trkpt>
      <trkpt lat="45.29709" lon="4.63746">
        <ele>572.20001220703</ele>
        <time>2019-10-30T10:23:40.000Z</time>
      </trkpt>
      <trkpt lat="45.29714" lon="4.63754">
        <ele>572</ele>
        <time>2019-10-30T10:23:42.000Z</time>
      </trkpt>
      <trkpt lat="45.29717" lon="4.63758">
        <ele>572</ele>
        <time>2019-10-30T10:23:43.000Z</time>
      </trkpt>
      <trkpt lat="45.2972" lon="4.63762">
        <ele>571.79998779297</ele>
        <time>2019-10-30T10:23:44.000Z</time>
      </trkpt>
      <trkpt lat="45.29723" lon="4.63765">
        <ele>571.79998779297</ele>
        <time>2019-10-30T10:23:45.000Z</time>
      </trkpt>
      <trkpt lat="45.29726" lon="4.63769">
        <ele>571.59997558594</ele>
        <time>2019-10-30T10:23:46.000Z</time>
      </trkpt>
      <trkpt lat="45.29729" lon="4.63772">
        <ele>571.79998779297</ele>
        <time>2019-10-30T10:23:47.000Z</time>
      </trkpt>
      <trkpt lat="45.29744" lon="4.63785">
        <ele>570.40002441406</ele>
        <time>2019-10-30T10:23:51.000Z</time>
      </trkpt>
      <trkpt lat="45.29748" lon="4.63788">
        <ele>569.59997558594</ele>
        <time>2019-10-30T10:23:52.000Z</time>
      </trkpt>
      <trkpt lat="45.29751" lon="4.63791">
        <ele>569.40002441406</ele>
        <time>2019-10-30T10:23:53.000Z</time>
      </trkpt>
      <trkpt lat="45.29759" lon="4.63797">
        <ele>569</ele>
        <time>2019-10-30T10:23:55.000Z</time>
      </trkpt>
      <trkpt lat="45.29762" lon="4.638">
        <ele>568.79998779297</ele>
        <time>2019-10-30T10:23:56.000Z</time>
      </trkpt>
      <trkpt lat="45.29766" lon="4.63803">
        <ele>568.40002441406</ele>
        <time>2019-10-30T10:23:57.000Z</time>
      </trkpt>
      <trkpt lat="45.2977" lon="4.63806">
        <ele>568</ele>
        <time>2019-10-30T10:23:58.000Z</time>
      </trkpt>
      <trkpt lat="45.29773" lon="4.63808">
        <ele>567.59997558594</ele>
        <time>2019-10-30T10:23:59.000Z</time>
      </trkpt>
      <trkpt lat="45.29776" lon="4.63811">
        <ele>567.40002441406</ele>
        <time>2019-10-30T10:24:00.000Z</time>
      </trkpt>
      <trkpt lat="45.29779" lon="4.63815">
        <ele>567.20001220703</ele>
        <time>2019-10-30T10:24:01.000Z</time>
      </trkpt>
      <trkpt lat="45.29781" lon="4.63818">
        <ele>567.20001220703</ele>
        <time>2019-10-30T10:24:02.000Z</time>
      </trkpt>
      <trkpt lat="45.29784" lon="4.63822">
        <ele>567.20001220703</ele>
        <time>2019-10-30T10:24:03.000Z</time>
      </trkpt>
      <trkpt lat="45.29786" lon="4.63825">
        <ele>567</ele>
        <time>2019-10-30T10:24:04.000Z</time>
      </trkpt>
      <trkpt lat="45.29788" lon="4.63828">
        <ele>567</ele>
        <time>2019-10-30T10:24:05.000Z</time>
      </trkpt>
      <trkpt lat="45.29794" lon="4.63835">
        <ele>567</ele>
        <time>2019-10-30T10:24:07.000Z</time>
      </trkpt>
      <trkpt lat="45.29812" lon="4.63852">
        <ele>566.20001220703</ele>
        <time>2019-10-30T10:24:12.000Z</time>
      </trkpt>
      <trkpt lat="45.29815" lon="4.63855">
        <ele>566.20001220703</ele>
        <time>2019-10-30T10:24:13.000Z</time>
      </trkpt>
      <trkpt lat="45.29819" lon="4.63858">
        <ele>566</ele>
        <time>2019-10-30T10:24:14.000Z</time>
      </trkpt>
      <trkpt lat="45.29822" lon="4.63861">
        <ele>566</ele>
        <time>2019-10-30T10:24:15.000Z</time>
      </trkpt>
      <trkpt lat="45.29825" lon="4.63863">
        <ele>566</ele>
        <time>2019-10-30T10:24:16.000Z</time>
      </trkpt>
      <trkpt lat="45.29828" lon="4.63866">
        <ele>566</ele>
        <time>2019-10-30T10:24:17.000Z</time>
      </trkpt>
      <trkpt lat="45.29831" lon="4.63868">
        <ele>565.79998779297</ele>
        <time>2019-10-30T10:24:18.000Z</time>
      </trkpt>
      <trkpt lat="45.29834" lon="4.63871">
        <ele>565.79998779297</ele>
        <time>2019-10-30T10:24:19.000Z</time>
      </trkpt>
      <trkpt lat="45.29837" lon="4.63874">
        <ele>565.79998779297</ele>
        <time>2019-10-30T10:24:20.000Z</time>
      </trkpt>
      <trkpt lat="45.29843" lon="4.63879">
        <ele>565.79998779297</ele>
        <time>2019-10-30T10:24:22.000Z</time>
      </trkpt>
      <trkpt lat="45.2985" lon="4.63883">
        <ele>566</ele>
        <time>2019-10-30T10:24:24.000Z</time>
      </trkpt>
      <trkpt lat="45.29854" lon="4.63885">
        <ele>566</ele>
        <time>2019-10-30T10:24:25.000Z</time>
      </trkpt>
      <trkpt lat="45.29857" lon="4.63887">
        <ele>566</ele>
        <time>2019-10-30T10:24:26.000Z</time>
      </trkpt>
      <trkpt lat="45.2986" lon="4.63889">
        <ele>566</ele>
        <time>2019-10-30T10:24:27.000Z</time>
      </trkpt>
      <trkpt lat="45.29863" lon="4.63892">
        <ele>566</ele>
        <time>2019-10-30T10:24:28.000Z</time>
      </trkpt>
      <trkpt lat="45.29866" lon="4.63894">
        <ele>566</ele>
        <time>2019-10-30T10:24:29.000Z</time>
      </trkpt>
      <trkpt lat="45.29869" lon="4.63897">
        <ele>566</ele>
        <time>2019-10-30T10:24:30.000Z</time>
      </trkpt>
      <trkpt lat="45.29872" lon="4.639">
        <ele>566</ele>
        <time>2019-10-30T10:24:31.000Z</time>
      </trkpt>
      <trkpt lat="45.29874" lon="4.63902">
        <ele>566.20001220703</ele>
        <time>2019-10-30T10:24:32.000Z</time>
      </trkpt>
      <trkpt lat="45.2988" lon="4.63907">
        <ele>566.20001220703</ele>
        <time>2019-10-30T10:24:34.000Z</time>
      </trkpt>
      <trkpt lat="45.29883" lon="4.63909">
        <ele>566.59997558594</ele>
        <time>2019-10-30T10:24:35.000Z</time>
      </trkpt>
      <trkpt lat="45.29886" lon="4.63911">
        <ele>566.79998779297</ele>
        <time>2019-10-30T10:24:36.000Z</time>
      </trkpt>
      <trkpt lat="45.29888" lon="4.63913">
        <ele>566.79998779297</ele>
        <time>2019-10-30T10:24:37.000Z</time>
      </trkpt>
      <trkpt lat="45.29891" lon="4.63916">
        <ele>567</ele>
        <time>2019-10-30T10:24:38.000Z</time>
      </trkpt>
      <trkpt lat="45.29893" lon="4.63918">
        <ele>567</ele>
        <time>2019-10-30T10:24:39.000Z</time>
      </trkpt>
      <trkpt lat="45.29898" lon="4.63922">
        <ele>567.20001220703</ele>
        <time>2019-10-30T10:24:41.000Z</time>
      </trkpt>
      <trkpt lat="45.299" lon="4.63923">
        <ele>567</ele>
        <time>2019-10-30T10:24:42.000Z</time>
      </trkpt>
      <trkpt lat="45.29903" lon="4.63924">
        <ele>567.20001220703</ele>
        <time>2019-10-30T10:24:43.000Z</time>
      </trkpt>
      <trkpt lat="45.29905" lon="4.63925">
        <ele>567</ele>
        <time>2019-10-30T10:24:44.000Z</time>
      </trkpt>
      <trkpt lat="45.29911" lon="4.63927">
        <ele>567.20001220703</ele>
        <time>2019-10-30T10:24:46.000Z</time>
      </trkpt>
      <trkpt lat="45.29913" lon="4.63928">
        <ele>567.20001220703</ele>
        <time>2019-10-30T10:24:47.000Z</time>
      </trkpt>
      <trkpt lat="45.29916" lon="4.6393">
        <ele>567.20001220703</ele>
        <time>2019-10-30T10:24:48.000Z</time>
      </trkpt>
      <trkpt lat="45.29918" lon="4.63931">
        <ele>567.20001220703</ele>
        <time>2019-10-30T10:24:49.000Z</time>
      </trkpt>
      <trkpt lat="45.29921" lon="4.63932">
        <ele>567.20001220703</ele>
        <time>2019-10-30T10:24:50.000Z</time>
      </trkpt>
      <trkpt lat="45.29932" lon="4.63933">
        <ele>567.20001220703</ele>
        <time>2019-10-30T10:24:53.000Z</time>
      </trkpt>
      <trkpt lat="45.29941" lon="4.63934">
        <ele>567</ele>
        <time>2019-10-30T10:24:55.000Z</time>
      </trkpt>
      <trkpt lat="45.29946" lon="4.63934">
        <ele>567</ele>
        <time>2019-10-30T10:24:56.000Z</time>
      </trkpt>
      <trkpt lat="45.29959" lon="4.63933">
        <ele>567</ele>
        <time>2019-10-30T10:24:58.000Z</time>
      </trkpt>
      <trkpt lat="45.29965" lon="4.63933">
        <ele>567</ele>
        <time>2019-10-30T10:24:59.000Z</time>
      </trkpt>
      <trkpt lat="45.29972" lon="4.63933">
        <ele>567</ele>
        <time>2019-10-30T10:25:00.000Z</time>
      </trkpt>
      <trkpt lat="45.29996" lon="4.63933">
        <ele>566</ele>
        <time>2019-10-30T10:25:03.000Z</time>
      </trkpt>
      <trkpt lat="45.30013" lon="4.63932">
        <ele>563.40002441406</ele>
        <time>2019-10-30T10:25:05.000Z</time>
      </trkpt>
      <trkpt lat="45.30031" lon="4.6393">
        <ele>561.40002441406</ele>
        <time>2019-10-30T10:25:07.000Z</time>
      </trkpt>
      <trkpt lat="45.3004" lon="4.6393">
        <ele>560.40002441406</ele>
        <time>2019-10-30T10:25:08.000Z</time>
      </trkpt>
      <trkpt lat="45.30058" lon="4.6393">
        <ele>558</ele>
        <time>2019-10-30T10:25:10.000Z</time>
      </trkpt>
      <trkpt lat="45.30065" lon="4.63932">
        <ele>557</ele>
        <time>2019-10-30T10:25:11.000Z</time>
      </trkpt>
      <trkpt lat="45.30072" lon="4.63934">
        <ele>557</ele>
        <time>2019-10-30T10:25:12.000Z</time>
      </trkpt>
      <trkpt lat="45.30079" lon="4.63936">
        <ele>556</ele>
        <time>2019-10-30T10:25:13.000Z</time>
      </trkpt>
      <trkpt lat="45.30085" lon="4.63939">
        <ele>555.20001220703</ele>
        <time>2019-10-30T10:25:14.000Z</time>
      </trkpt>
      <trkpt lat="45.30091" lon="4.63942">
        <ele>554.79998779297</ele>
        <time>2019-10-30T10:25:15.000Z</time>
      </trkpt>
      <trkpt lat="45.30095" lon="4.63944">
        <ele>554</ele>
        <time>2019-10-30T10:25:16.000Z</time>
      </trkpt>
      <trkpt lat="45.30097" lon="4.63946">
        <ele>553.79998779297</ele>
        <time>2019-10-30T10:25:17.000Z</time>
      </trkpt>
      <trkpt lat="45.30098" lon="4.63948">
        <ele>553.59997558594</ele>
        <time>2019-10-30T10:25:18.000Z</time>
      </trkpt>
      <trkpt lat="45.30098" lon="4.6395">
        <ele>553.40002441406</ele>
        <time>2019-10-30T10:25:19.000Z</time>
      </trkpt>
      <trkpt lat="45.30096" lon="4.63952">
        <ele>553.20001220703</ele>
        <time>2019-10-30T10:25:20.000Z</time>
      </trkpt>
      <trkpt lat="45.30094" lon="4.63953">
        <ele>553.20001220703</ele>
        <time>2019-10-30T10:25:21.000Z</time>
      </trkpt>
      <trkpt lat="45.30092" lon="4.63955">
        <ele>553</ele>
        <time>2019-10-30T10:25:22.000Z</time>
      </trkpt>
      <trkpt lat="45.30088" lon="4.63956">
        <ele>553</ele>
        <time>2019-10-30T10:25:23.000Z</time>
      </trkpt>
      <trkpt lat="45.30081" lon="4.6396">
        <ele>552.59997558594</ele>
        <time>2019-10-30T10:25:25.000Z</time>
      </trkpt>
      <trkpt lat="45.30077" lon="4.63963">
        <ele>552.40002441406</ele>
        <time>2019-10-30T10:25:26.000Z</time>
      </trkpt>
      <trkpt lat="45.30072" lon="4.63965">
        <ele>552.40002441406</ele>
        <time>2019-10-30T10:25:27.000Z</time>
      </trkpt>
      <trkpt lat="45.30062" lon="4.6397">
        <ele>552.40002441406</ele>
        <time>2019-10-30T10:25:29.000Z</time>
      </trkpt>
      <trkpt lat="45.30056" lon="4.63973">
        <ele>552.40002441406</ele>
        <time>2019-10-30T10:25:30.000Z</time>
      </trkpt>
      <trkpt lat="45.30051" lon="4.63976">
        <ele>552.20001220703</ele>
        <time>2019-10-30T10:25:31.000Z</time>
      </trkpt>
      <trkpt lat="45.30046" lon="4.63979">
        <ele>551.79998779297</ele>
        <time>2019-10-30T10:25:32.000Z</time>
      </trkpt>
      <trkpt lat="45.30041" lon="4.63982">
        <ele>551.40002441406</ele>
        <time>2019-10-30T10:25:33.000Z</time>
      </trkpt>
      <trkpt lat="45.30038" lon="4.63985">
        <ele>550.79998779297</ele>
        <time>2019-10-30T10:25:34.000Z</time>
      </trkpt>
      <trkpt lat="45.30034" lon="4.63987">
        <ele>550.40002441406</ele>
        <time>2019-10-30T10:25:35.000Z</time>
      </trkpt>
      <trkpt lat="45.30031" lon="4.6399">
        <ele>550</ele>
        <time>2019-10-30T10:25:36.000Z</time>
      </trkpt>
      <trkpt lat="45.30019" lon="4.64004">
        <ele>548.40002441406</ele>
        <time>2019-10-30T10:25:39.000Z</time>
      </trkpt>
      <trkpt lat="45.30015" lon="4.6401">
        <ele>547.59997558594</ele>
        <time>2019-10-30T10:25:40.000Z</time>
      </trkpt>
      <trkpt lat="45.30012" lon="4.64017">
        <ele>547.40002441406</ele>
        <time>2019-10-30T10:25:41.000Z</time>
      </trkpt>
      <trkpt lat="45.3001" lon="4.64024">
        <ele>546.79998779297</ele>
        <time>2019-10-30T10:25:42.000Z</time>
      </trkpt>
      <trkpt lat="45.30009" lon="4.64031">
        <ele>546.59997558594</ele>
        <time>2019-10-30T10:25:43.000Z</time>
      </trkpt>
      <trkpt lat="45.30008" lon="4.64038">
        <ele>546.20001220703</ele>
        <time>2019-10-30T10:25:44.000Z</time>
      </trkpt>
      <trkpt lat="45.30006" lon="4.64044">
        <ele>545.79998779297</ele>
        <time>2019-10-30T10:25:45.000Z</time>
      </trkpt>
      <trkpt lat="45.30005" lon="4.6405">
        <ele>545.20001220703</ele>
        <time>2019-10-30T10:25:46.000Z</time>
      </trkpt>
      <trkpt lat="45.30004" lon="4.64056">
        <ele>544.59997558594</ele>
        <time>2019-10-30T10:25:47.000Z</time>
      </trkpt>
      <trkpt lat="45.30003" lon="4.64061">
        <ele>544.40002441406</ele>
        <time>2019-10-30T10:25:48.000Z</time>
      </trkpt>
      <trkpt lat="45.30003" lon="4.64066">
        <ele>544.20001220703</ele>
        <time>2019-10-30T10:25:49.000Z</time>
      </trkpt>
      <trkpt lat="45.30002" lon="4.64071">
        <ele>544.20001220703</ele>
        <time>2019-10-30T10:25:50.000Z</time>
      </trkpt>
      <trkpt lat="45.30002" lon="4.64077">
        <ele>544.20001220703</ele>
        <time>2019-10-30T10:25:51.000Z</time>
      </trkpt>
      <trkpt lat="45.30001" lon="4.64082">
        <ele>544</ele>
        <time>2019-10-30T10:25:52.000Z</time>
      </trkpt>
      <trkpt lat="45.30001" lon="4.64087">
        <ele>544</ele>
        <time>2019-10-30T10:25:53.000Z</time>
      </trkpt>
      <trkpt lat="45.30001" lon="4.64091">
        <ele>544.20001220703</ele>
        <time>2019-10-30T10:25:54.000Z</time>
      </trkpt>
      <trkpt lat="45.30001" lon="4.64095">
        <ele>544</ele>
        <time>2019-10-30T10:25:55.000Z</time>
      </trkpt>
      <trkpt lat="45.30002" lon="4.64102">
        <ele>544</ele>
        <time>2019-10-30T10:25:56.000Z</time>
      </trkpt>
      <trkpt lat="45.30004" lon="4.64114">
        <ele>544</ele>
        <time>2019-10-30T10:25:58.000Z</time>
      </trkpt>
      <trkpt lat="45.30005" lon="4.64119">
        <ele>543.79998779297</ele>
        <time>2019-10-30T10:25:59.000Z</time>
      </trkpt>
      <trkpt lat="45.30008" lon="4.64137">
        <ele>543.59997558594</ele>
        <time>2019-10-30T10:26:02.000Z</time>
      </trkpt>
      <trkpt lat="45.30009" lon="4.64144">
        <ele>543.40002441406</ele>
        <time>2019-10-30T10:26:03.000Z</time>
      </trkpt>
      <trkpt lat="45.30008" lon="4.64151">
        <ele>543.40002441406</ele>
        <time>2019-10-30T10:26:04.000Z</time>
      </trkpt>
      <trkpt lat="45.30007" lon="4.64157">
        <ele>543.59997558594</ele>
        <time>2019-10-30T10:26:05.000Z</time>
      </trkpt>
      <trkpt lat="45.30005" lon="4.64163">
        <ele>543.40002441406</ele>
        <time>2019-10-30T10:26:06.000Z</time>
      </trkpt>
      <trkpt lat="45.30002" lon="4.64168">
        <ele>543.40002441406</ele>
        <time>2019-10-30T10:26:07.000Z</time>
      </trkpt>
      <trkpt lat="45.29998" lon="4.64173">
        <ele>543.40002441406</ele>
        <time>2019-10-30T10:26:08.000Z</time>
      </trkpt>
      <trkpt lat="45.29994" lon="4.64177">
        <ele>543.40002441406</ele>
        <time>2019-10-30T10:26:09.000Z</time>
      </trkpt>
      <trkpt lat="45.29989" lon="4.6418">
        <ele>543.40002441406</ele>
        <time>2019-10-30T10:26:10.000Z</time>
      </trkpt>
      <trkpt lat="45.29985" lon="4.64182">
        <ele>543.20001220703</ele>
        <time>2019-10-30T10:26:11.000Z</time>
      </trkpt>
      <trkpt lat="45.2998" lon="4.64184">
        <ele>543.20001220703</ele>
        <time>2019-10-30T10:26:12.000Z</time>
      </trkpt>
      <trkpt lat="45.29976" lon="4.64186">
        <ele>543.20001220703</ele>
        <time>2019-10-30T10:26:13.000Z</time>
      </trkpt>
      <trkpt lat="45.29972" lon="4.64187">
        <ele>543.40002441406</ele>
        <time>2019-10-30T10:26:14.000Z</time>
      </trkpt>
      <trkpt lat="45.29967" lon="4.64189">
        <ele>543.20001220703</ele>
        <time>2019-10-30T10:26:15.000Z</time>
      </trkpt>
      <trkpt lat="45.29963" lon="4.6419">
        <ele>543.40002441406</ele>
        <time>2019-10-30T10:26:16.000Z</time>
      </trkpt>
      <trkpt lat="45.29958" lon="4.64192">
        <ele>543.40002441406</ele>
        <time>2019-10-30T10:26:17.000Z</time>
      </trkpt>
      <trkpt lat="45.29953" lon="4.64194">
        <ele>543.20001220703</ele>
        <time>2019-10-30T10:26:18.000Z</time>
      </trkpt>
      <trkpt lat="45.29944" lon="4.64198">
        <ele>543.40002441406</ele>
        <time>2019-10-30T10:26:20.000Z</time>
      </trkpt>
      <trkpt lat="45.29935" lon="4.64203">
        <ele>543.40002441406</ele>
        <time>2019-10-30T10:26:22.000Z</time>
      </trkpt>
      <trkpt lat="45.2993" lon="4.64207">
        <ele>543.20001220703</ele>
        <time>2019-10-30T10:26:23.000Z</time>
      </trkpt>
      <trkpt lat="45.29925" lon="4.6421">
        <ele>543.20001220703</ele>
        <time>2019-10-30T10:26:24.000Z</time>
      </trkpt>
      <trkpt lat="45.2992" lon="4.64213">
        <ele>543.40002441406</ele>
        <time>2019-10-30T10:26:25.000Z</time>
      </trkpt>
      <trkpt lat="45.29915" lon="4.64215">
        <ele>543.40002441406</ele>
        <time>2019-10-30T10:26:26.000Z</time>
      </trkpt>
      <trkpt lat="45.2991" lon="4.64218">
        <ele>543.40002441406</ele>
        <time>2019-10-30T10:26:27.000Z</time>
      </trkpt>
      <trkpt lat="45.29906" lon="4.64221">
        <ele>543.40002441406</ele>
        <time>2019-10-30T10:26:28.000Z</time>
      </trkpt>
      <trkpt lat="45.29901" lon="4.64224">
        <ele>543.40002441406</ele>
        <time>2019-10-30T10:26:29.000Z</time>
      </trkpt>
      <trkpt lat="45.29896" lon="4.64227">
        <ele>543.40002441406</ele>
        <time>2019-10-30T10:26:30.000Z</time>
      </trkpt>
      <trkpt lat="45.29892" lon="4.6423">
        <ele>543.20001220703</ele>
        <time>2019-10-30T10:26:31.000Z</time>
      </trkpt>
      <trkpt lat="45.29887" lon="4.64233">
        <ele>543.40002441406</ele>
        <time>2019-10-30T10:26:32.000Z</time>
      </trkpt>
      <trkpt lat="45.29883" lon="4.64236">
        <ele>543.40002441406</ele>
        <time>2019-10-30T10:26:33.000Z</time>
      </trkpt>
      <trkpt lat="45.29878" lon="4.64239">
        <ele>543.40002441406</ele>
        <time>2019-10-30T10:26:34.000Z</time>
      </trkpt>
      <trkpt lat="45.29874" lon="4.64242">
        <ele>543.79998779297</ele>
        <time>2019-10-30T10:26:35.000Z</time>
      </trkpt>
      <trkpt lat="45.2987" lon="4.64245">
        <ele>544</ele>
        <time>2019-10-30T10:26:36.000Z</time>
      </trkpt>
      <trkpt lat="45.29866" lon="4.64249">
        <ele>544.20001220703</ele>
        <time>2019-10-30T10:26:37.000Z</time>
      </trkpt>
      <trkpt lat="45.29858" lon="4.64257">
        <ele>544</ele>
        <time>2019-10-30T10:26:39.000Z</time>
      </trkpt>
      <trkpt lat="45.29855" lon="4.64262">
        <ele>544.20001220703</ele>
        <time>2019-10-30T10:26:40.000Z</time>
      </trkpt>
      <trkpt lat="45.29854" lon="4.64267">
        <ele>544</ele>
        <time>2019-10-30T10:26:41.000Z</time>
      </trkpt>
      <trkpt lat="45.29854" lon="4.64273">
        <ele>544.20001220703</ele>
        <time>2019-10-30T10:26:42.000Z</time>
      </trkpt>
      <trkpt lat="45.29855" lon="4.6428">
        <ele>544</ele>
        <time>2019-10-30T10:26:43.000Z</time>
      </trkpt>
      <trkpt lat="45.29855" lon="4.64286">
        <ele>544</ele>
        <time>2019-10-30T10:26:44.000Z</time>
      </trkpt>
      <trkpt lat="45.29856" lon="4.64292">
        <ele>544.20001220703</ele>
        <time>2019-10-30T10:26:45.000Z</time>
      </trkpt>
      <trkpt lat="45.29856" lon="4.64298">
        <ele>544.20001220703</ele>
        <time>2019-10-30T10:26:46.000Z</time>
      </trkpt>
      <trkpt lat="45.29857" lon="4.64304">
        <ele>543.79998779297</ele>
        <time>2019-10-30T10:26:47.000Z</time>
      </trkpt>
      <trkpt lat="45.29857" lon="4.64309">
        <ele>543.79998779297</ele>
        <time>2019-10-30T10:26:48.000Z</time>
      </trkpt>
      <trkpt lat="45.29857" lon="4.64316">
        <ele>543.79998779297</ele>
        <time>2019-10-30T10:26:49.000Z</time>
      </trkpt>
      <trkpt lat="45.29858" lon="4.6433">
        <ele>543.79998779297</ele>
        <time>2019-10-30T10:26:51.000Z</time>
      </trkpt>
      <trkpt lat="45.29859" lon="4.64346">
        <ele>543.79998779297</ele>
        <time>2019-10-30T10:26:53.000Z</time>
      </trkpt>
      <trkpt lat="45.29858" lon="4.64354">
        <ele>543.59997558594</ele>
        <time>2019-10-30T10:26:54.000Z</time>
      </trkpt>
      <trkpt lat="45.29858" lon="4.64369">
        <ele>543.79998779297</ele>
        <time>2019-10-30T10:26:56.000Z</time>
      </trkpt>
      <trkpt lat="45.29858" lon="4.64376">
        <ele>543.79998779297</ele>
        <time>2019-10-30T10:26:57.000Z</time>
      </trkpt>
      <trkpt lat="45.29858" lon="4.64383">
        <ele>543.40002441406</ele>
        <time>2019-10-30T10:26:58.000Z</time>
      </trkpt>
      <trkpt lat="45.29858" lon="4.64389">
        <ele>543.40002441406</ele>
        <time>2019-10-30T10:26:59.000Z</time>
      </trkpt>
      <trkpt lat="45.29858" lon="4.64396">
        <ele>543.59997558594</ele>
        <time>2019-10-30T10:27:00.000Z</time>
      </trkpt>
      <trkpt lat="45.29857" lon="4.64402">
        <ele>543.59997558594</ele>
        <time>2019-10-30T10:27:01.000Z</time>
      </trkpt>
      <trkpt lat="45.29855" lon="4.6443">
        <ele>543.40002441406</ele>
        <time>2019-10-30T10:27:05.000Z</time>
      </trkpt>
      <trkpt lat="45.29854" lon="4.64436">
        <ele>543.20001220703</ele>
        <time>2019-10-30T10:27:06.000Z</time>
      </trkpt>
      <trkpt lat="45.29854" lon="4.64443">
        <ele>543.40002441406</ele>
        <time>2019-10-30T10:27:07.000Z</time>
      </trkpt>
      <trkpt lat="45.29853" lon="4.64449">
        <ele>543.40002441406</ele>
        <time>2019-10-30T10:27:08.000Z</time>
      </trkpt>
      <trkpt lat="45.29852" lon="4.64455">
        <ele>543.40002441406</ele>
        <time>2019-10-30T10:27:09.000Z</time>
      </trkpt>
      <trkpt lat="45.29852" lon="4.64461">
        <ele>543.40002441406</ele>
        <time>2019-10-30T10:27:10.000Z</time>
      </trkpt>
      <trkpt lat="45.29851" lon="4.64467">
        <ele>543.40002441406</ele>
        <time>2019-10-30T10:27:11.000Z</time>
      </trkpt>
      <trkpt lat="45.2985" lon="4.64472">
        <ele>543.40002441406</ele>
        <time>2019-10-30T10:27:12.000Z</time>
      </trkpt>
      <trkpt lat="45.2985" lon="4.64476">
        <ele>543.40002441406</ele>
        <time>2019-10-30T10:27:13.000Z</time>
      </trkpt>
      <trkpt lat="45.29851" lon="4.64481">
        <ele>543.59997558594</ele>
        <time>2019-10-30T10:27:14.000Z</time>
      </trkpt>
      <trkpt lat="45.29852" lon="4.64485">
        <ele>543.59997558594</ele>
        <time>2019-10-30T10:27:15.000Z</time>
      </trkpt>
      <trkpt lat="45.29854" lon="4.64488">
        <ele>543.59997558594</ele>
        <time>2019-10-30T10:27:16.000Z</time>
      </trkpt>
      <trkpt lat="45.29857" lon="4.6449">
        <ele>543.59997558594</ele>
        <time>2019-10-30T10:27:17.000Z</time>
      </trkpt>
      <trkpt lat="45.29859" lon="4.64492">
        <ele>543.59997558594</ele>
        <time>2019-10-30T10:27:18.000Z</time>
      </trkpt>
      <trkpt lat="45.2987" lon="4.64496">
        <ele>543.79998779297</ele>
        <time>2019-10-30T10:27:21.000Z</time>
      </trkpt>
      <trkpt lat="45.29879" lon="4.64498">
        <ele>543.59997558594</ele>
        <time>2019-10-30T10:27:23.000Z</time>
      </trkpt>
      <trkpt lat="45.29889" lon="4.64498">
        <ele>543.79998779297</ele>
        <time>2019-10-30T10:27:25.000Z</time>
      </trkpt>
      <trkpt lat="45.29893" lon="4.64497">
        <ele>543.79998779297</ele>
        <time>2019-10-30T10:27:26.000Z</time>
      </trkpt>
      <trkpt lat="45.29898" lon="4.64495">
        <ele>543.59997558594</ele>
        <time>2019-10-30T10:27:27.000Z</time>
      </trkpt>
      <trkpt lat="45.29902" lon="4.64492">
        <ele>543.79998779297</ele>
        <time>2019-10-30T10:27:28.000Z</time>
      </trkpt>
      <trkpt lat="45.29906" lon="4.64488">
        <ele>543.79998779297</ele>
        <time>2019-10-30T10:27:29.000Z</time>
      </trkpt>
      <trkpt lat="45.29923" lon="4.64469">
        <ele>543.79998779297</ele>
        <time>2019-10-30T10:27:33.000Z</time>
      </trkpt>
      <trkpt lat="45.29927" lon="4.64464">
        <ele>543.79998779297</ele>
        <time>2019-10-30T10:27:34.000Z</time>
      </trkpt>
      <trkpt lat="45.29931" lon="4.64459">
        <ele>543.79998779297</ele>
        <time>2019-10-30T10:27:35.000Z</time>
      </trkpt>
      <trkpt lat="45.29934" lon="4.64454">
        <ele>543.59997558594</ele>
        <time>2019-10-30T10:27:36.000Z</time>
      </trkpt>
      <trkpt lat="45.29938" lon="4.64448">
        <ele>543.59997558594</ele>
        <time>2019-10-30T10:27:37.000Z</time>
      </trkpt>
      <trkpt lat="45.29941" lon="4.64443">
        <ele>543.40002441406</ele>
        <time>2019-10-30T10:27:38.000Z</time>
      </trkpt>
      <trkpt lat="45.29945" lon="4.64437">
        <ele>543.40002441406</ele>
        <time>2019-10-30T10:27:39.000Z</time>
      </trkpt>
      <trkpt lat="45.29949" lon="4.64432">
        <ele>543.59997558594</ele>
        <time>2019-10-30T10:27:40.000Z</time>
      </trkpt>
      <trkpt lat="45.29967" lon="4.64409">
        <ele>543.40002441406</ele>
        <time>2019-10-30T10:27:44.000Z</time>
      </trkpt>
      <trkpt lat="45.29972" lon="4.64405">
        <ele>543.40002441406</ele>
        <time>2019-10-30T10:27:45.000Z</time>
      </trkpt>
      <trkpt lat="45.29977" lon="4.64402">
        <ele>543.40002441406</ele>
        <time>2019-10-30T10:27:46.000Z</time>
      </trkpt>
      <trkpt lat="45.29983" lon="4.64399">
        <ele>543.40002441406</ele>
        <time>2019-10-30T10:27:47.000Z</time>
      </trkpt>
      <trkpt lat="45.30011" lon="4.64392">
        <ele>543.40002441406</ele>
        <time>2019-10-30T10:27:52.000Z</time>
      </trkpt>
      <trkpt lat="45.30023" lon="4.64392">
        <ele>543.40002441406</ele>
        <time>2019-10-30T10:27:54.000Z</time>
      </trkpt>
      <trkpt lat="45.30029" lon="4.64392">
        <ele>543.40002441406</ele>
        <time>2019-10-30T10:27:55.000Z</time>
      </trkpt>
      <trkpt lat="45.30034" lon="4.64393">
        <ele>543.40002441406</ele>
        <time>2019-10-30T10:27:56.000Z</time>
      </trkpt>
      <trkpt lat="45.3004" lon="4.64394">
        <ele>543.40002441406</ele>
        <time>2019-10-30T10:27:57.000Z</time>
      </trkpt>
      <trkpt lat="45.30045" lon="4.64397">
        <ele>543.40002441406</ele>
        <time>2019-10-30T10:27:58.000Z</time>
      </trkpt>
      <trkpt lat="45.3005" lon="4.64399">
        <ele>543.59997558594</ele>
        <time>2019-10-30T10:27:59.000Z</time>
      </trkpt>
      <trkpt lat="45.30054" lon="4.64401">
        <ele>543.40002441406</ele>
        <time>2019-10-30T10:28:00.000Z</time>
      </trkpt>
      <trkpt lat="45.30057" lon="4.64404">
        <ele>543.59997558594</ele>
        <time>2019-10-30T10:28:01.000Z</time>
      </trkpt>
      <trkpt lat="45.3006" lon="4.64405">
        <ele>543.40002441406</ele>
        <time>2019-10-30T10:28:02.000Z</time>
      </trkpt>
      <trkpt lat="45.30063" lon="4.64406">
        <ele>543.40002441406</ele>
        <time>2019-10-30T10:28:03.000Z</time>
      </trkpt>
      <trkpt lat="45.30065" lon="4.64407">
        <ele>543.59997558594</ele>
        <time>2019-10-30T10:28:04.000Z</time>
      </trkpt>
      <trkpt lat="45.30067" lon="4.64408">
        <ele>543.59997558594</ele>
        <time>2019-10-30T10:28:05.000Z</time>
      </trkpt>
      <trkpt lat="45.30068" lon="4.6441">
        <ele>543.59997558594</ele>
        <time>2019-10-30T10:28:06.000Z</time>
      </trkpt>
      <trkpt lat="45.30069" lon="4.64412">
        <ele>543.79998779297</ele>
        <time>2019-10-30T10:28:07.000Z</time>
      </trkpt>
      <trkpt lat="45.30068" lon="4.64413">
        <ele>544</ele>
        <time>2019-10-30T10:28:08.000Z</time>
      </trkpt>
      <trkpt lat="45.30068" lon="4.64414">
        <ele>544</ele>
        <time>2019-10-30T10:28:10.000Z</time>
      </trkpt>
      <trkpt lat="45.30069" lon="4.64414">
        <ele>543.79998779297</ele>
        <time>2019-10-30T10:28:11.000Z</time>
      </trkpt>
      <trkpt lat="45.30069" lon="4.64414">
        <ele>544.20001220703</ele>
        <time>2019-10-30T10:28:12.000Z</time>
      </trkpt>
      <trkpt lat="45.30069" lon="4.64414">
        <ele>544</ele>
        <time>2019-10-30T10:28:13.000Z</time>
      </trkpt>
      <trkpt lat="45.30068" lon="4.64412">
        <ele>544.40002441406</ele>
        <time>2019-10-30T10:28:22.000Z</time>
      </trkpt>
      <trkpt lat="45.30068" lon="4.64412">
        <ele>544.20001220703</ele>
        <time>2019-10-30T10:28:26.000Z</time>
      </trkpt>
    </trkseg>
  </trk>
</gpx>